<?xml version='1.0' encoding='UTF-8'?><gpx version="1.1" creator="JPX - https://github.com/jenetics/jpx" xmlns="http://www.topografix.com/GPX/1/1"><trk><trkseg><trkpt lat="45.56095108849147" lon="9.826156375900299"><ele>149.0</ele><time>2026-04-11T13:51:24Z</time></trkpt><trkpt lat="45.56093588191588" lon="9.825960859669234"><ele>149.0</ele><time>2026-04-11T13:51:26Z</time></trkpt><trkpt lat="45.56091528062999" lon="9.825826188621233"><ele>149.0</ele><time>2026-04-11T13:51:27Z</time></trkpt><trkpt lat="45.560887781220146" lon="9.825710005483467"><ele>149.0</ele><time>2026-04-11T13:51:28Z</time></trkpt><trkpt lat="45.56086263827086" lon="9.825581521346908"><ele>149.0</ele><time>2026-04-11T13:51:29Z</time></trkpt><trkpt lat="45.56083750124812" lon="9.825471045119704"><ele>149.0</ele><time>2026-04-11T13:51:30Z</time></trkpt><trkpt lat="45.56081772292327" lon="9.825358260802176"><ele>149.0</ele><time>2026-04-11T13:51:31Z</time></trkpt><trkpt lat="45.560799411311365" lon="9.825266378536197"><ele>149.0</ele><time>2026-04-11T13:51:32Z</time></trkpt><trkpt lat="45.560782309104624" lon="9.825178152901703"><ele>149.0</ele><time>2026-04-11T13:51:33Z</time></trkpt><trkpt lat="45.56074517413542" lon="9.825057226378794"><ele>149.0</ele><time>2026-04-11T13:51:35Z</time></trkpt><trkpt lat="45.560678302590205" lon="9.824891011740684"><ele>149.0</ele><time>2026-04-11T13:51:37Z</time></trkpt><trkpt lat="45.56064784252896" lon="9.824768964982976"><ele>148.6</ele><time>2026-04-11T13:51:38Z</time></trkpt><trkpt lat="45.56062127090013" lon="9.824649056075113"><ele>148.2</ele><time>2026-04-11T13:51:39Z</time></trkpt><trkpt lat="45.560593110141845" lon="9.82451278560333"><ele>147.79999999999998</ele><time>2026-04-11T13:51:40Z</time></trkpt><trkpt lat="45.560558872667066" lon="9.824350076773525"><ele>147.4</ele><time>2026-04-11T13:51:41Z</time></trkpt><trkpt lat="45.56052117260691" lon="9.824177801461536"><ele>147.0</ele><time>2026-04-11T13:51:42Z</time></trkpt><trkpt lat="45.56047957389923" lon="9.824006455952409"><ele>146.75</ele><time>2026-04-11T13:51:43Z</time></trkpt><trkpt lat="45.56043999295638" lon="9.823818840340063"><ele>146.5</ele><time>2026-04-11T13:51:44Z</time></trkpt><trkpt lat="45.56039487627775" lon="9.823621267284388"><ele>146.25</ele><time>2026-04-11T13:51:45Z</time></trkpt><trkpt lat="45.560356790439826" lon="9.823418113925444"><ele>146.0</ele><time>2026-04-11T13:51:46Z</time></trkpt><trkpt lat="45.56031509684042" lon="9.823216635742918"><ele>145.8</ele><time>2026-04-11T13:51:47Z</time></trkpt><trkpt lat="45.560273892734905" lon="9.82301713768779"><ele>145.6</ele><time>2026-04-11T13:51:48Z</time></trkpt><trkpt lat="45.56024013742731" lon="9.822861919057754"><ele>145.4</ele><time>2026-04-11T13:51:49Z</time></trkpt><trkpt lat="45.56021732678434" lon="9.822740368235682"><ele>145.2</ele><time>2026-04-11T13:51:50Z</time></trkpt><trkpt lat="45.56020888748543" lon="9.82265038466322"><ele>145.0</ele><time>2026-04-11T13:51:51Z</time></trkpt><trkpt lat="45.56027737605155" lon="9.822508965349314"><ele>144.8</ele><time>2026-04-11T13:51:53Z</time></trkpt><trkpt lat="45.5603398791835" lon="9.822438342793482"><ele>144.6</ele><time>2026-04-11T13:51:54Z</time></trkpt><trkpt lat="45.560368016574984" lon="9.822332173052292"><ele>144.4</ele><time>2026-04-11T13:51:55Z</time></trkpt><trkpt lat="45.56040063317282" lon="9.82224472080569"><ele>144.2</ele><time>2026-04-11T13:51:56Z</time></trkpt><trkpt lat="45.56056807111884" lon="9.822308051342182"><ele>144.0</ele><time>2026-04-11T13:51:56.999Z</time></trkpt><trkpt lat="45.560651280838165" lon="9.822329999093203"><ele>144.0</ele><time>2026-04-11T13:51:57.999Z</time></trkpt><trkpt lat="45.56072562361482" lon="9.822366895777094"><ele>144.0</ele><time>2026-04-11T13:51:58.999Z</time></trkpt><trkpt lat="45.56079939742402" lon="9.82241760848753"><ele>144.0</ele><time>2026-04-11T13:51:59.999Z</time></trkpt><trkpt lat="45.56089689500954" lon="9.822456893603555"><ele>144.0</ele><time>2026-04-11T13:52:00.999Z</time></trkpt><trkpt lat="45.56100577149526" lon="9.82247889454259"><ele>144.0</ele><time>2026-04-11T13:52:01.998Z</time></trkpt><trkpt lat="45.5611275160263" lon="9.822525265695251"><ele>144.5</ele><time>2026-04-11T13:52:02.998Z</time></trkpt><trkpt lat="45.561261245790284" lon="9.822577758129771"><ele>145.0</ele><time>2026-04-11T13:52:03.998Z</time></trkpt><trkpt lat="45.561403999331354" lon="9.822625932230649"><ele>145.5</ele><time>2026-04-11T13:52:04.998Z</time></trkpt><trkpt lat="45.561550526490365" lon="9.822673145238142"><ele>146.0</ele><time>2026-04-11T13:52:05.998Z</time></trkpt><trkpt lat="45.56170574196468" lon="9.822723130352502"><ele>146.0</ele><time>2026-04-11T13:52:06.999Z</time></trkpt><trkpt lat="45.56186441394364" lon="9.8227729335973"><ele>146.0</ele><time>2026-04-11T13:52:07.999Z</time></trkpt><trkpt lat="45.5620278165481" lon="9.822831221206064"><ele>146.0</ele><time>2026-04-11T13:52:08.999Z</time></trkpt><trkpt lat="45.562201032417725" lon="9.822886020582644"><ele>146.33333333333331</ele><time>2026-04-11T13:52:09.999Z</time></trkpt><trkpt lat="45.56238772865516" lon="9.822951379588897"><ele>146.66666666666666</ele><time>2026-04-11T13:52:10.999Z</time></trkpt><trkpt lat="45.56257632881043" lon="9.823010276611281"><ele>147.0</ele><time>2026-04-11T13:52:11.999Z</time></trkpt><trkpt lat="45.562769693753246" lon="9.82307703478933"><ele>146.66666666666666</ele><time>2026-04-11T13:52:12.999Z</time></trkpt><trkpt lat="45.562965743339575" lon="9.823150607659295"><ele>146.33333333333331</ele><time>2026-04-11T13:52:13.999Z</time></trkpt><trkpt lat="45.563152890943385" lon="9.82322245414835"><ele>146.0</ele><time>2026-04-11T13:52:14.999Z</time></trkpt><trkpt lat="45.56333749432238" lon="9.823291748415693"><ele>146.0</ele><time>2026-04-11T13:52:15.999Z</time></trkpt><trkpt lat="45.56351761048727" lon="9.823356228883709"><ele>146.0</ele><time>2026-04-11T13:52:16.999Z</time></trkpt><trkpt lat="45.56369610572825" lon="9.82341775003643"><ele>146.0</ele><time>2026-04-11T13:52:17.999Z</time></trkpt><trkpt lat="45.56386494982111" lon="9.823481036320123"><ele>146.0</ele><time>2026-04-11T13:52:18.999Z</time></trkpt><trkpt lat="45.56403644561801" lon="9.823539078537543"><ele>146.0</ele><time>2026-04-11T13:52:19.999Z</time></trkpt><trkpt lat="45.564200584923" lon="9.823592841406452"><ele>146.0</ele><time>2026-04-11T13:52:20.999Z</time></trkpt><trkpt lat="45.56435999870119" lon="9.823640033929228"><ele>146.0</ele><time>2026-04-11T13:52:21.999Z</time></trkpt><trkpt lat="45.56451655710721" lon="9.82368668459044"><ele>146.0</ele><time>2026-04-11T13:52:22.999Z</time></trkpt><trkpt lat="45.56465867690013" lon="9.823736662899307"><ele>146.0</ele><time>2026-04-11T13:52:23.999Z</time></trkpt><trkpt lat="45.56479622171615" lon="9.823788729561388"><ele>146.0</ele><time>2026-04-11T13:52:24.999Z</time></trkpt><trkpt lat="45.564916218464" lon="9.823842003370709"><ele>146.33333333333331</ele><time>2026-04-11T13:52:25.999Z</time></trkpt><trkpt lat="45.56501889806421" lon="9.823898637570917"><ele>146.66666666666666</ele><time>2026-04-11T13:52:26.999Z</time></trkpt><trkpt lat="45.56510169871743" lon="9.823952266268105"><ele>147.0</ele><time>2026-04-11T13:52:27.999Z</time></trkpt><trkpt lat="45.56517237510261" lon="9.824008517694452"><ele>147.33333333333334</ele><time>2026-04-11T13:52:28.999Z</time></trkpt><trkpt lat="45.56523444596783" lon="9.82407215490578"><ele>147.66666666666669</ele><time>2026-04-11T13:52:29.999Z</time></trkpt><trkpt lat="45.565293150273966" lon="9.82412302648452"><ele>148.0</ele><time>2026-04-11T13:52:31Z</time></trkpt><trkpt lat="45.56531348317405" lon="9.824267015559368"><ele>147.4</ele><time>2026-04-11T13:52:32Z</time></trkpt><trkpt lat="45.56534515306929" lon="9.8244007013593"><ele>146.8</ele><time>2026-04-11T13:52:33Z</time></trkpt><trkpt lat="45.56541374926571" lon="9.82450558005809"><ele>146.2</ele><time>2026-04-11T13:52:34Z</time></trkpt><trkpt lat="45.5655149937596" lon="9.824551421634611"><ele>145.6</ele><time>2026-04-11T13:52:35Z</time></trkpt><trkpt lat="45.565637877742844" lon="9.824521714518557"><ele>145.0</ele><time>2026-04-11T13:52:36Z</time></trkpt><trkpt lat="45.565766623433106" lon="9.824441533023599"><ele>145.0</ele><time>2026-04-11T13:52:37Z</time></trkpt><trkpt lat="45.565878765334396" lon="9.824330409583103"><ele>145.0</ele><time>2026-04-11T13:52:38Z</time></trkpt><trkpt lat="45.56598929848098" lon="9.824195652190385"><ele>145.0</ele><time>2026-04-11T13:52:39Z</time></trkpt><trkpt lat="45.56612002218618" lon="9.824082746039615"><ele>145.0</ele><time>2026-04-11T13:52:40Z</time></trkpt><trkpt lat="45.56626554962884" lon="9.823992945207818"><ele>145.66666666666669</ele><time>2026-04-11T13:52:41Z</time></trkpt><trkpt lat="45.56641416164135" lon="9.823903043541318"><ele>146.33333333333334</ele><time>2026-04-11T13:52:42Z</time></trkpt><trkpt lat="45.566572302106515" lon="9.823799071153227"><ele>147.0</ele><time>2026-04-11T13:52:43Z</time></trkpt><trkpt lat="45.56671541157295" lon="9.823672211985622"><ele>147.0</ele><time>2026-04-11T13:52:44Z</time></trkpt><trkpt lat="45.56686297396071" lon="9.82354477012985"><ele>147.0</ele><time>2026-04-11T13:52:45Z</time></trkpt><trkpt lat="45.5670149610468" lon="9.823413976417324"><ele>147.0</ele><time>2026-04-11T13:52:46Z</time></trkpt><trkpt lat="45.56717606305984" lon="9.823310413457355"><ele>146.66666666666666</ele><time>2026-04-11T13:52:47Z</time></trkpt><trkpt lat="45.567346223858785" lon="9.823216418523229"><ele>146.33333333333331</ele><time>2026-04-11T13:52:48Z</time></trkpt><trkpt lat="45.56751816334296" lon="9.823121835211415"><ele>146.0</ele><time>2026-04-11T13:52:49Z</time></trkpt><trkpt lat="45.56768568549911" lon="9.823022678951824"><ele>145.33333333333331</ele><time>2026-04-11T13:52:50Z</time></trkpt><trkpt lat="45.567860395095806" lon="9.822918751091796"><ele>144.66666666666666</ele><time>2026-04-11T13:52:51Z</time></trkpt><trkpt lat="45.5680309029406" lon="9.822814824604126"><ele>144.0</ele><time>2026-04-11T13:52:52Z</time></trkpt><trkpt lat="45.56820341150631" lon="9.82271781016902"><ele>145.0</ele><time>2026-04-11T13:52:53Z</time></trkpt><trkpt lat="45.568383313505905" lon="9.822637159902145"><ele>146.0</ele><time>2026-04-11T13:52:54Z</time></trkpt><trkpt lat="45.56857304296937" lon="9.822617253787094"><ele>147.0</ele><time>2026-04-11T13:52:55Z</time></trkpt><trkpt lat="45.56877072405363" lon="9.822630413653942"><ele>146.66666666666666</ele><time>2026-04-11T13:52:56Z</time></trkpt><trkpt lat="45.56898199504035" lon="9.822662787847122"><ele>146.33333333333331</ele><time>2026-04-11T13:52:57Z</time></trkpt><trkpt lat="45.56919094866136" lon="9.822679799090011"><ele>146.0</ele><time>2026-04-11T13:52:58Z</time></trkpt><trkpt lat="45.569402446646905" lon="9.822731845552841"><ele>147.0</ele><time>2026-04-11T13:52:59Z</time></trkpt><trkpt lat="45.569626315445745" lon="9.822799948529871"><ele>148.0</ele><time>2026-04-11T13:53:00Z</time></trkpt><trkpt lat="45.56984973578751" lon="9.822893508845889"><ele>148.0</ele><time>2026-04-11T13:53:01Z</time></trkpt><trkpt lat="45.570075876116164" lon="9.82300007631168"><ele>148.0</ele><time>2026-04-11T13:53:02Z</time></trkpt><trkpt lat="45.570302325172065" lon="9.823116102370241"><ele>150.0</ele><time>2026-04-11T13:53:03Z</time></trkpt><trkpt lat="45.570512452408" lon="9.823243132051523"><ele>152.0</ele><time>2026-04-11T13:53:04Z</time></trkpt><trkpt lat="45.57072321703306" lon="9.82338408993195"><ele>151.66666666666666</ele><time>2026-04-11T13:53:05Z</time></trkpt><trkpt lat="45.57093000401263" lon="9.823522022109437"><ele>151.33333333333334</ele><time>2026-04-11T13:53:06Z</time></trkpt><trkpt lat="45.57113155979755" lon="9.823648264022337"><ele>151.0</ele><time>2026-04-11T13:53:07Z</time></trkpt><trkpt lat="45.57132357827074" lon="9.823767301143002"><ele>151.0</ele><time>2026-04-11T13:53:08Z</time></trkpt><trkpt lat="45.57150258414402" lon="9.823875802317248"><ele>151.0</ele><time>2026-04-11T13:53:09Z</time></trkpt><trkpt lat="45.571664899218625" lon="9.823979951547374"><ele>151.0</ele><time>2026-04-11T13:53:10Z</time></trkpt><trkpt lat="45.57182441798381" lon="9.824074786277562"><ele>151.0</ele><time>2026-04-11T13:53:11Z</time></trkpt><trkpt lat="45.57198394585163" lon="9.824150145777445"><ele>151.0</ele><time>2026-04-11T13:53:12Z</time></trkpt><trkpt lat="45.572141785253066" lon="9.824196080952174"><ele>151.0</ele><time>2026-04-11T13:53:13Z</time></trkpt><trkpt lat="45.57228980177042" lon="9.824208121369107"><ele>151.25</ele><time>2026-04-11T13:53:14Z</time></trkpt><trkpt lat="45.57242143033954" lon="9.82419683450631"><ele>151.5</ele><time>2026-04-11T13:53:15Z</time></trkpt><trkpt lat="45.57254656041986" lon="9.824170287618172"><ele>151.75</ele><time>2026-04-11T13:53:16Z</time></trkpt><trkpt lat="45.57265989286726" lon="9.824125038710717"><ele>152.0</ele><time>2026-04-11T13:53:17Z</time></trkpt><trkpt lat="45.5727664097663" lon="9.824062764349796"><ele>151.5</ele><time>2026-04-11T13:53:18Z</time></trkpt><trkpt lat="45.57286721347305" lon="9.823979354914837"><ele>151.0</ele><time>2026-04-11T13:53:19Z</time></trkpt><trkpt lat="45.572970878392724" lon="9.823887158244254"><ele>150.5</ele><time>2026-04-11T13:53:20Z</time></trkpt><trkpt lat="45.573066344006456" lon="9.823786050020232"><ele>150.0</ele><time>2026-04-11T13:53:21Z</time></trkpt><trkpt lat="45.57316247644587" lon="9.823678656240764"><ele>150.0</ele><time>2026-04-11T13:53:22Z</time></trkpt><trkpt lat="45.57324743134345" lon="9.823548626852862"><ele>150.0</ele><time>2026-04-11T13:53:23Z</time></trkpt><trkpt lat="45.573322278446696" lon="9.823411808720723"><ele>150.0</ele><time>2026-04-11T13:53:24Z</time></trkpt><trkpt lat="45.573406312873956" lon="9.823273808412035"><ele>150.0</ele><time>2026-04-11T13:53:25Z</time></trkpt><trkpt lat="45.57348564065539" lon="9.823140109132455"><ele>150.25</ele><time>2026-04-11T13:53:26Z</time></trkpt><trkpt lat="45.57356225214323" lon="9.823007181721955"><ele>150.5</ele><time>2026-04-11T13:53:27Z</time></trkpt><trkpt lat="45.57363720011282" lon="9.822884363168246"><ele>150.75</ele><time>2026-04-11T13:53:28Z</time></trkpt><trkpt lat="45.57372036385703" lon="9.822765425454106"><ele>151.0</ele><time>2026-04-11T13:53:29Z</time></trkpt><trkpt lat="45.573806503067345" lon="9.822650646805775"><ele>150.75</ele><time>2026-04-11T13:53:30Z</time></trkpt><trkpt lat="45.57390078406654" lon="9.822549391135938"><ele>150.5</ele><time>2026-04-11T13:53:31Z</time></trkpt><trkpt lat="45.57401150116567" lon="9.822482084740777"><ele>150.25</ele><time>2026-04-11T13:53:32Z</time></trkpt><trkpt lat="45.57411453433934" lon="9.822381533972456"><ele>150.0</ele><time>2026-04-11T13:53:33Z</time></trkpt><trkpt lat="45.57423031975765" lon="9.82231770599059"><ele>150.0</ele><time>2026-04-11T13:53:34Z</time></trkpt><trkpt lat="45.57434815191895" lon="9.822270004905748"><ele>150.0</ele><time>2026-04-11T13:53:35Z</time></trkpt><trkpt lat="45.574466506315844" lon="9.822242358861612"><ele>150.0</ele><time>2026-04-11T13:53:36Z</time></trkpt><trkpt lat="45.57458298880958" lon="9.822223855438168"><ele>150.0</ele><time>2026-04-11T13:53:37Z</time></trkpt><trkpt lat="45.57468833233846" lon="9.822218064404785"><ele>150.0</ele><time>2026-04-11T13:53:38Z</time></trkpt><trkpt lat="45.574786087845965" lon="9.822221205915989"><ele>150.0</ele><time>2026-04-11T13:53:39Z</time></trkpt><trkpt lat="45.57487181673785" lon="9.822226300202349"><ele>150.0</ele><time>2026-04-11T13:53:40Z</time></trkpt><trkpt lat="45.57495567796031" lon="9.8222311023173"><ele>150.0</ele><time>2026-04-11T13:53:41Z</time></trkpt><trkpt lat="45.57502434811842" lon="9.822234591021235"><ele>150.0</ele><time>2026-04-11T13:53:42Z</time></trkpt><trkpt lat="45.57515764379284" lon="9.822241362236735"><ele>150.0</ele><time>2026-04-11T13:53:44Z</time></trkpt><trkpt lat="45.575288155718646" lon="9.822295927790645"><ele>150.0</ele><time>2026-04-11T13:53:46Z</time></trkpt><trkpt lat="45.57535070270467" lon="9.822335451394688"><ele>150.0</ele><time>2026-04-11T13:53:47Z</time></trkpt><trkpt lat="45.575414469179826" lon="9.822402841788147"><ele>150.0</ele><time>2026-04-11T13:53:48Z</time></trkpt><trkpt lat="45.5754773839172" lon="9.822450075482724"><ele>150.0</ele><time>2026-04-11T13:53:49Z</time></trkpt><trkpt lat="45.57554578947756" lon="9.822470598383463"><ele>150.0</ele><time>2026-04-11T13:53:50Z</time></trkpt><trkpt lat="45.57562592433037" lon="9.822456975922433"><ele>150.2</ele><time>2026-04-11T13:53:51Z</time></trkpt><trkpt lat="45.57571915704603" lon="9.8224718567743"><ele>150.4</ele><time>2026-04-11T13:53:52Z</time></trkpt><trkpt lat="45.575799191970965" lon="9.822555727122092"><ele>150.6</ele><time>2026-04-11T13:53:53Z</time></trkpt><trkpt lat="45.57583434123" lon="9.822690020576255"><ele>150.8</ele><time>2026-04-11T13:53:54Z</time></trkpt><trkpt lat="45.575846341799426" lon="9.82285468504354"><ele>151.0</ele><time>2026-04-11T13:53:55Z</time></trkpt><trkpt lat="45.57586721355107" lon="9.82302706076226"><ele>151.0</ele><time>2026-04-11T13:53:56Z</time></trkpt><trkpt lat="45.57590417623287" lon="9.823181940973189"><ele>151.0</ele><time>2026-04-11T13:53:57Z</time></trkpt><trkpt lat="45.575954358801226" lon="9.82334173501361"><ele>151.0</ele><time>2026-04-11T13:53:58Z</time></trkpt><trkpt lat="45.575997758312575" lon="9.823519285852115"><ele>151.0</ele><time>2026-04-11T13:53:59Z</time></trkpt><trkpt lat="45.576052722247645" lon="9.823703073362134"><ele>150.66666666666669</ele><time>2026-04-11T13:54:00Z</time></trkpt><trkpt lat="45.57611492688021" lon="9.823902574787626"><ele>150.33333333333334</ele><time>2026-04-11T13:54:01Z</time></trkpt><trkpt lat="45.57617594677218" lon="9.824124718489578"><ele>150.0</ele><time>2026-04-11T13:54:02Z</time></trkpt><trkpt lat="45.576244276396814" lon="9.824344714054847"><ele>149.33333333333334</ele><time>2026-04-11T13:54:03Z</time></trkpt><trkpt lat="45.57632512781529" lon="9.824562001497394"><ele>148.66666666666669</ele><time>2026-04-11T13:54:04Z</time></trkpt><trkpt lat="45.57641336516568" lon="9.824800133682913"><ele>148.0</ele><time>2026-04-11T13:54:05Z</time></trkpt><trkpt lat="45.5765039997935" lon="9.825034995398987"><ele>147.66666666666669</ele><time>2026-04-11T13:54:06Z</time></trkpt><trkpt lat="45.57661329509387" lon="9.825271131859754"><ele>147.33333333333334</ele><time>2026-04-11T13:54:07Z</time></trkpt><trkpt lat="45.57670948172554" lon="9.825501922001964"><ele>147.0</ele><time>2026-04-11T13:54:07.998Z</time></trkpt><trkpt lat="45.57681076308233" lon="9.825741698300414"><ele>147.0</ele><time>2026-04-11T13:54:08.998Z</time></trkpt><trkpt lat="45.576913140363075" lon="9.825986888756315"><ele>147.0</ele><time>2026-04-11T13:54:09.998Z</time></trkpt><trkpt lat="45.57701680258012" lon="9.826233729724601"><ele>147.0</ele><time>2026-04-11T13:54:10.998Z</time></trkpt><trkpt lat="45.577122641763786" lon="9.826486602154771"><ele>147.0</ele><time>2026-04-11T13:54:11.998Z</time></trkpt><trkpt lat="45.57723705027175" lon="9.826750137568206"><ele>147.0</ele><time>2026-04-11T13:54:12.998Z</time></trkpt><trkpt lat="45.57734947835192" lon="9.827004042460334"><ele>147.0</ele><time>2026-04-11T13:54:13.998Z</time></trkpt><trkpt lat="45.577459689640826" lon="9.827265888205664"><ele>147.0</ele><time>2026-04-11T13:54:14.998Z</time></trkpt><trkpt lat="45.577569183668516" lon="9.82752234993185"><ele>147.0</ele><time>2026-04-11T13:54:15.998Z</time></trkpt><trkpt lat="45.577684142417816" lon="9.827780055925807"><ele>147.0</ele><time>2026-04-11T13:54:16.998Z</time></trkpt><trkpt lat="45.57780880289491" lon="9.828026294502687"><ele>147.33333333333334</ele><time>2026-04-11T13:54:17.998Z</time></trkpt><trkpt lat="45.577941742066535" lon="9.828264126532893"><ele>147.66666666666669</ele><time>2026-04-11T13:54:18.998Z</time></trkpt><trkpt lat="45.5780806829835" lon="9.828502547504876"><ele>148.0</ele><time>2026-04-11T13:54:19.998Z</time></trkpt><trkpt lat="45.57821044685511" lon="9.82873535389539"><ele>148.0</ele><time>2026-04-11T13:54:20.998Z</time></trkpt><trkpt lat="45.57834148281723" lon="9.82896867510133"><ele>148.0</ele><time>2026-04-11T13:54:21.999Z</time></trkpt><trkpt lat="45.57847005826853" lon="9.829191451606789"><ele>148.0</ele><time>2026-04-11T13:54:22.999Z</time></trkpt><trkpt lat="45.578592546990905" lon="9.829413949324161"><ele>147.66666666666669</ele><time>2026-04-11T13:54:23.999Z</time></trkpt><trkpt lat="45.578712033187735" lon="9.82963543065066"><ele>147.33333333333334</ele><time>2026-04-11T13:54:24.999Z</time></trkpt><trkpt lat="45.57883224829385" lon="9.82985509607363"><ele>147.0</ele><time>2026-04-11T13:54:25.999Z</time></trkpt><trkpt lat="45.578945389922005" lon="9.830055892209513"><ele>147.33333333333334</ele><time>2026-04-11T13:54:26.999Z</time></trkpt><trkpt lat="45.57905865598469" lon="9.830255798882536"><ele>147.66666666666669</ele><time>2026-04-11T13:54:27.999Z</time></trkpt><trkpt lat="45.57918142824591" lon="9.830437878871704"><ele>148.0</ele><time>2026-04-11T13:54:28.999Z</time></trkpt><trkpt lat="45.579325892998746" lon="9.83059195479539"><ele>148.0</ele><time>2026-04-11T13:54:29.999Z</time></trkpt><trkpt lat="45.57949019167915" lon="9.830711931498168"><ele>148.0</ele><time>2026-04-11T13:54:30.999Z</time></trkpt><trkpt lat="45.57966106045642" lon="9.830821859216075"><ele>148.0</ele><time>2026-04-11T13:54:31.999Z</time></trkpt><trkpt lat="45.579834697539425" lon="9.83093063614392"><ele>148.0</ele><time>2026-04-11T13:54:32.999Z</time></trkpt><trkpt lat="45.580017815637284" lon="9.831028969956007"><ele>148.0</ele><time>2026-04-11T13:54:33.999Z</time></trkpt><trkpt lat="45.58020822849802" lon="9.831121117857807"><ele>148.0</ele><time>2026-04-11T13:54:34.999Z</time></trkpt><trkpt lat="45.580396831560265" lon="9.831219411777074"><ele>148.0</ele><time>2026-04-11T13:54:35.999Z</time></trkpt><trkpt lat="45.5805765541256" lon="9.831341425889109"><ele>148.0</ele><time>2026-04-11T13:54:36.999Z</time></trkpt><trkpt lat="45.580737106886595" lon="9.831508890041487"><ele>148.0</ele><time>2026-04-11T13:54:37.999Z</time></trkpt><trkpt lat="45.58088404065711" lon="9.831712344564746"><ele>148.0</ele><time>2026-04-11T13:54:38.999Z</time></trkpt><trkpt lat="45.58103846028136" lon="9.831918614659418"><ele>148.0</ele><time>2026-04-11T13:54:39.999Z</time></trkpt><trkpt lat="45.58116020251523" lon="9.83214531839274"><ele>148.0</ele><time>2026-04-11T13:54:40.999Z</time></trkpt><trkpt lat="45.5812872289363" lon="9.832358781801304"><ele>148.0</ele><time>2026-04-11T13:54:41.999Z</time></trkpt><trkpt lat="45.5814152731115" lon="9.83256637654822"><ele>148.0</ele><time>2026-04-11T13:54:43Z</time></trkpt><trkpt lat="45.581552301166525" lon="9.832760430156824"><ele>148.0</ele><time>2026-04-11T13:54:44Z</time></trkpt><trkpt lat="45.58169384231421" lon="9.832927868396027"><ele>148.0</ele><time>2026-04-11T13:54:45Z</time></trkpt><trkpt lat="45.581834110398944" lon="9.833035027231922"><ele>148.0</ele><time>2026-04-11T13:54:46Z</time></trkpt><trkpt lat="45.58202602203607" lon="9.833137714472707"><ele>148.0</ele><time>2026-04-11T13:54:47Z</time></trkpt><trkpt lat="45.58215581328304" lon="9.833240589065264"><ele>147.75</ele><time>2026-04-11T13:54:48Z</time></trkpt><trkpt lat="45.58227883036253" lon="9.833332272780932"><ele>147.5</ele><time>2026-04-11T13:54:49Z</time></trkpt><trkpt lat="45.58238136836847" lon="9.83343499732097"><ele>147.25</ele><time>2026-04-11T13:54:50Z</time></trkpt><trkpt lat="45.58247735731833" lon="9.833508379198422"><ele>147.0</ele><time>2026-04-11T13:54:51Z</time></trkpt><trkpt lat="45.58257203197317" lon="9.833592174673376"><ele>147.0</ele><time>2026-04-11T13:54:52Z</time></trkpt><trkpt lat="45.582671678438466" lon="9.833669439737852"><ele>147.0</ele><time>2026-04-11T13:54:53Z</time></trkpt><trkpt lat="45.582775878615706" lon="9.833749231676506"><ele>147.0</ele><time>2026-04-11T13:54:54Z</time></trkpt><trkpt lat="45.58289119165985" lon="9.833837490491756"><ele>147.0</ele><time>2026-04-11T13:54:55Z</time></trkpt><trkpt lat="45.583002710841335" lon="9.833927751864755"><ele>147.25</ele><time>2026-04-11T13:54:56Z</time></trkpt><trkpt lat="45.58311529441969" lon="9.834019023159552"><ele>147.5</ele><time>2026-04-11T13:54:57Z</time></trkpt><trkpt lat="45.58322452011383" lon="9.834103147207387"><ele>147.75</ele><time>2026-04-11T13:54:58Z</time></trkpt><trkpt lat="45.58333336475923" lon="9.834188315655373"><ele>148.0</ele><time>2026-04-11T13:54:59Z</time></trkpt><trkpt lat="45.583433256640696" lon="9.834275149144501"><ele>149.0</ele><time>2026-04-11T13:55:00Z</time></trkpt><trkpt lat="45.583526861211986" lon="9.83435969145709"><ele>150.0</ele><time>2026-04-11T13:55:01Z</time></trkpt><trkpt lat="45.58362806017262" lon="9.834439622004869"><ele>151.0</ele><time>2026-04-11T13:55:02Z</time></trkpt><trkpt lat="45.5837379843393" lon="9.834536711384889"><ele>152.0</ele><time>2026-04-11T13:55:03Z</time></trkpt><trkpt lat="45.583863071075676" lon="9.834634102337672"><ele>153.5</ele><time>2026-04-11T13:55:04Z</time></trkpt><trkpt lat="45.58399847131683" lon="9.83473462571155"><ele>155.0</ele><time>2026-04-11T13:55:05Z</time></trkpt><trkpt lat="45.58411645085092" lon="9.834835128769173"><ele>156.5</ele><time>2026-04-11T13:55:06Z</time></trkpt><trkpt lat="45.58423019060582" lon="9.83492242004277"><ele>158.0</ele><time>2026-04-11T13:55:07Z</time></trkpt><trkpt lat="45.58434138379302" lon="9.834962533270897"><ele>158.0</ele><time>2026-04-11T13:55:08Z</time></trkpt><trkpt lat="45.58440833584913" lon="9.835051205146042"><ele>158.0</ele><time>2026-04-11T13:55:09Z</time></trkpt><trkpt lat="45.584496424025716" lon="9.835204192720642"><ele>158.0</ele><time>2026-04-11T13:55:11Z</time></trkpt><trkpt lat="45.58454331243194" lon="9.835277710877328"><ele>158.0</ele><time>2026-04-11T13:55:12Z</time></trkpt><trkpt lat="45.5845435067149" lon="9.83538884576711"><ele>158.0</ele><time>2026-04-11T13:55:13Z</time></trkpt><trkpt lat="45.584590300206784" lon="9.835462729121822"><ele>158.0</ele><time>2026-04-11T13:55:14Z</time></trkpt><trkpt lat="45.58444004077877" lon="9.835497186396536"><ele>158.0</ele><time>2026-04-11T13:55:15Z</time></trkpt><trkpt lat="45.58439491904237" lon="9.835589267327222"><ele>158.0</ele><time>2026-04-11T13:55:16Z</time></trkpt><trkpt lat="45.58435613746524" lon="9.835702993297007"><ele>158.0</ele><time>2026-04-11T13:55:17Z</time></trkpt><trkpt lat="45.58428614470419" lon="9.835756144635159"><ele>158.0</ele><time>2026-04-11T13:55:18Z</time></trkpt><trkpt lat="45.58423689815314" lon="9.835815478856112"><ele>158.0</ele><time>2026-04-11T13:55:19Z</time></trkpt><trkpt lat="45.584344820784374" lon="9.835980725956544"><ele>158.0</ele><time>2026-04-11T13:55:21Z</time></trkpt><trkpt lat="45.584425997199936" lon="9.836014138337719"><ele>158.0</ele><time>2026-04-11T13:55:22Z</time></trkpt><trkpt lat="45.58449055984227" lon="9.836056236376042"><ele>158.0</ele><time>2026-04-11T13:55:23Z</time></trkpt><trkpt lat="45.58455036291376" lon="9.836151528820896"><ele>158.0</ele><time>2026-04-11T13:55:24Z</time></trkpt><trkpt lat="45.5845916351087" lon="9.836251495558919"><ele>158.0</ele><time>2026-04-11T13:55:25Z</time></trkpt><trkpt lat="45.58462248120501" lon="9.83637098814463"><ele>158.0</ele><time>2026-04-11T13:55:26Z</time></trkpt><trkpt lat="45.58466604510996" lon="9.836478080582644"><ele>158.0</ele><time>2026-04-11T13:55:27Z</time></trkpt><trkpt lat="45.584717639138034" lon="9.836603109350209"><ele>158.0</ele><time>2026-04-11T13:55:28Z</time></trkpt><trkpt lat="45.58475625815946" lon="9.836720406927377"><ele>158.0</ele><time>2026-04-11T13:55:29Z</time></trkpt><trkpt lat="45.58480881707114" lon="9.836833543556022"><ele>158.0</ele><time>2026-04-11T13:55:30Z</time></trkpt><trkpt lat="45.58485751913879" lon="9.836937784132958"><ele>158.0</ele><time>2026-04-11T13:55:31Z</time></trkpt><trkpt lat="45.58490210662128" lon="9.837037656116692"><ele>158.0</ele><time>2026-04-11T13:55:32Z</time></trkpt><trkpt lat="45.584965324954865" lon="9.837174666974903"><ele>158.0</ele><time>2026-04-11T13:55:34Z</time></trkpt><trkpt lat="45.58500633511764" lon="9.837290847844528"><ele>158.0</ele><time>2026-04-11T13:55:36Z</time></trkpt><trkpt lat="45.585055536620494" lon="9.837354053319574"><ele>158.0</ele><time>2026-04-11T13:55:40.001Z</time></trkpt><trkpt lat="45.58523545833993" lon="9.837187684015252"><ele>158.00000000000003</ele><time>2026-04-11T13:55:46.001Z</time></trkpt><trkpt lat="45.58528928229177" lon="9.837113218575842"><ele>158.0</ele><time>2026-04-11T13:55:47.001Z</time></trkpt><trkpt lat="45.58536089698183" lon="9.837037959369022"><ele>158.0</ele><time>2026-04-11T13:55:48.001Z</time></trkpt><trkpt lat="45.585416013736385" lon="9.836955179160988"><ele>158.0</ele><time>2026-04-11T13:55:49.001Z</time></trkpt><trkpt lat="45.58546541762134" lon="9.836881952123765"><ele>158.0</ele><time>2026-04-11T13:55:50.001Z</time></trkpt><trkpt lat="45.58551314962315" lon="9.83681516299511"><ele>158.00000000000003</ele><time>2026-04-11T13:55:51.001Z</time></trkpt><trkpt lat="45.58555930000527" lon="9.836748716102752"><ele>158.0</ele><time>2026-04-11T13:55:52.001Z</time></trkpt><trkpt lat="45.58563295970346" lon="9.836623374740308"><ele>157.4</ele><time>2026-04-11T13:55:54.001Z</time></trkpt><trkpt lat="45.58569562905217" lon="9.836573727292475"><ele>156.8</ele><time>2026-04-11T13:56:00.001Z</time></trkpt><trkpt lat="45.58579130063274" lon="9.836453739607046"><ele>156.2</ele><time>2026-04-11T13:56:02.001Z</time></trkpt><trkpt lat="45.5858488975933" lon="9.836355970693695"><ele>155.6</ele><time>2026-04-11T13:56:03.001Z</time></trkpt><trkpt lat="45.58591992620179" lon="9.836266111232598"><ele>155.0</ele><time>2026-04-11T13:56:04.001Z</time></trkpt><trkpt lat="45.58601070228226" lon="9.836128922420697"><ele>154.75</ele><time>2026-04-11T13:56:05.001Z</time></trkpt><trkpt lat="45.586112465792084" lon="9.835968015757427"><ele>154.5</ele><time>2026-04-11T13:56:06.001Z</time></trkpt><trkpt lat="45.586216753009275" lon="9.835820744345018"><ele>154.25</ele><time>2026-04-11T13:56:07.001Z</time></trkpt><trkpt lat="45.58631224998814" lon="9.835672800379848"><ele>154.0</ele><time>2026-04-11T13:56:08.001Z</time></trkpt><trkpt lat="45.58640810533712" lon="9.835529399455638"><ele>153.75</ele><time>2026-04-11T13:56:09.001Z</time></trkpt><trkpt lat="45.58650095745536" lon="9.835380269520925"><ele>153.5</ele><time>2026-04-11T13:56:10.001Z</time></trkpt><trkpt lat="45.58660584786669" lon="9.835237623409105"><ele>153.25</ele><time>2026-04-11T13:56:11.001Z</time></trkpt><trkpt lat="45.586705688677405" lon="9.835110806499978"><ele>153.0</ele><time>2026-04-11T13:56:12.001Z</time></trkpt><trkpt lat="45.58680546157736" lon="9.834988587624894"><ele>153.0</ele><time>2026-04-11T13:56:13.001Z</time></trkpt><trkpt lat="45.586896675087516" lon="9.8348604019839"><ele>153.0</ele><time>2026-04-11T13:56:13.998Z</time></trkpt><trkpt lat="45.58698324996721" lon="9.834743066648224"><ele>153.0</ele><time>2026-04-11T13:56:14.998Z</time></trkpt><trkpt lat="45.58707008519781" lon="9.834622394196868"><ele>153.0</ele><time>2026-04-11T13:56:15.998Z</time></trkpt><trkpt lat="45.58715779996824" lon="9.834498697133622"><ele>153.25</ele><time>2026-04-11T13:56:16.998Z</time></trkpt><trkpt lat="45.58724014221112" lon="9.834372158921651"><ele>153.5</ele><time>2026-04-11T13:56:17.998Z</time></trkpt><trkpt lat="45.58732276658712" lon="9.83423652885234"><ele>153.75</ele><time>2026-04-11T13:56:18.998Z</time></trkpt><trkpt lat="45.58742851404374" lon="9.834089024902866"><ele>154.0</ele><time>2026-04-11T13:56:19.998Z</time></trkpt><trkpt lat="45.58754272459629" lon="9.833939981419787"><ele>154.33333333333334</ele><time>2026-04-11T13:56:20.998Z</time></trkpt><trkpt lat="45.5876580244624" lon="9.833775988887446"><ele>154.66666666666666</ele><time>2026-04-11T13:56:21.998Z</time></trkpt><trkpt lat="45.587778921134436" lon="9.83358791091322"><ele>155.0</ele><time>2026-04-11T13:56:22.998Z</time></trkpt><trkpt lat="45.58789845456771" lon="9.833402320575326"><ele>155.0</ele><time>2026-04-11T13:56:23.998Z</time></trkpt><trkpt lat="45.588018928856656" lon="9.833221375063468"><ele>155.0</ele><time>2026-04-11T13:56:24.998Z</time></trkpt><trkpt lat="45.58813881267694" lon="9.83304559875916"><ele>155.0</ele><time>2026-04-11T13:56:25.999Z</time></trkpt><trkpt lat="45.58826152475688" lon="9.832874998804249"><ele>155.0</ele><time>2026-04-11T13:56:26.999Z</time></trkpt><trkpt lat="45.588379843415666" lon="9.832709896087971"><ele>155.0</ele><time>2026-04-11T13:56:27.999Z</time></trkpt><trkpt lat="45.58849107189368" lon="9.832544396642566"><ele>155.0</ele><time>2026-04-11T13:56:28.999Z</time></trkpt><trkpt lat="45.58860343151539" lon="9.8323824207936"><ele>155.25</ele><time>2026-04-11T13:56:29.999Z</time></trkpt><trkpt lat="45.58871089863057" lon="9.83222316986508"><ele>155.5</ele><time>2026-04-11T13:56:30.999Z</time></trkpt><trkpt lat="45.588818109580096" lon="9.832078575357114"><ele>155.75</ele><time>2026-04-11T13:56:31.999Z</time></trkpt><trkpt lat="45.588918534030135" lon="9.831948972457713"><ele>156.0</ele><time>2026-04-11T13:56:32.999Z</time></trkpt><trkpt lat="45.58900868676059" lon="9.831838863490407"><ele>156.2</ele><time>2026-04-11T13:56:33.999Z</time></trkpt><trkpt lat="45.58906565077049" lon="9.831721916265053"><ele>156.39999999999998</ele><time>2026-04-11T13:56:34.999Z</time></trkpt><trkpt lat="45.589133125782205" lon="9.831660200418487"><ele>156.6</ele><time>2026-04-11T13:56:35.999Z</time></trkpt><trkpt lat="45.58920789741403" lon="9.831586255273804"><ele>156.79999999999998</ele><time>2026-04-11T13:56:36.999Z</time></trkpt><trkpt lat="45.58929455259589" lon="9.83155235923801"><ele>157.0</ele><time>2026-04-11T13:56:37.999Z</time></trkpt><trkpt lat="45.589386497701085" lon="9.831513492596805"><ele>157.0</ele><time>2026-04-11T13:56:38.999Z</time></trkpt><trkpt lat="45.58950053286109" lon="9.831463003862831"><ele>157.0</ele><time>2026-04-11T13:56:39.999Z</time></trkpt><trkpt lat="45.589622503640186" lon="9.831424771089898"><ele>157.0</ele><time>2026-04-11T13:56:40.999Z</time></trkpt><trkpt lat="45.58974675992271" lon="9.831390223388901"><ele>157.0</ele><time>2026-04-11T13:56:41.999Z</time></trkpt><trkpt lat="45.58988181719457" lon="9.83133731099001"><ele>158.25</ele><time>2026-04-11T13:56:42.999Z</time></trkpt><trkpt lat="45.59001514936878" lon="9.83128623967857"><ele>159.5</ele><time>2026-04-11T13:56:43.999Z</time></trkpt><trkpt lat="45.590158076279494" lon="9.831236887927979"><ele>160.75</ele><time>2026-04-11T13:56:44.999Z</time></trkpt><trkpt lat="45.590293417622085" lon="9.8312025526235"><ele>162.0</ele><time>2026-04-11T13:56:45.999Z</time></trkpt><trkpt lat="45.59041965523312" lon="9.83117080281474"><ele>162.2</ele><time>2026-04-11T13:56:46.999Z</time></trkpt><trkpt lat="45.590536783447135" lon="9.831140013271607"><ele>162.39999999999998</ele><time>2026-04-11T13:56:48Z</time></trkpt><trkpt lat="45.590644050659066" lon="9.831115730972472"><ele>162.60000000000002</ele><time>2026-04-11T13:56:49Z</time></trkpt><trkpt lat="45.59075443504882" lon="9.83109592994492"><ele>162.8</ele><time>2026-04-11T13:56:50Z</time></trkpt><trkpt lat="45.59085886633986" lon="9.831086546793388"><ele>163.0</ele><time>2026-04-11T13:56:51Z</time></trkpt><trkpt lat="45.5909556040443" lon="9.831067824330713"><ele>163.0</ele><time>2026-04-11T13:56:52Z</time></trkpt><trkpt lat="45.59105201964257" lon="9.831036164760025"><ele>163.0</ele><time>2026-04-11T13:56:53Z</time></trkpt><trkpt lat="45.591151664721345" lon="9.831018729470411"><ele>163.0</ele><time>2026-04-11T13:56:54Z</time></trkpt><trkpt lat="45.591247706873126" lon="9.83100372588995"><ele>163.0</ele><time>2026-04-11T13:56:55Z</time></trkpt><trkpt lat="45.59134103973563" lon="9.830993106173148"><ele>163.0</ele><time>2026-04-11T13:56:56Z</time></trkpt><trkpt lat="45.59143086717342" lon="9.830974591161233"><ele>163.0</ele><time>2026-04-11T13:56:57Z</time></trkpt><trkpt lat="45.59151089242159" lon="9.8309625481865"><ele>163.0</ele><time>2026-04-11T13:56:58Z</time></trkpt><trkpt lat="45.59158494184716" lon="9.830953797117644"><ele>163.0</ele><time>2026-04-11T13:56:59Z</time></trkpt><trkpt lat="45.591651054113676" lon="9.83093374749988"><ele>163.0</ele><time>2026-04-11T13:57:00Z</time></trkpt><trkpt lat="45.59172259642687" lon="9.830915260653288"><ele>163.0</ele><time>2026-04-11T13:57:01Z</time></trkpt><trkpt lat="45.59180826005924" lon="9.830906597836437"><ele>163.0</ele><time>2026-04-11T13:57:02Z</time></trkpt><trkpt lat="45.59189719278635" lon="9.830893426282698"><ele>163.0</ele><time>2026-04-11T13:57:03Z</time></trkpt><trkpt lat="45.592008932536345" lon="9.8308497938178"><ele>163.0</ele><time>2026-04-11T13:57:04Z</time></trkpt><trkpt lat="45.59215947393016" lon="9.830845767971356"><ele>163.0</ele><time>2026-04-11T13:57:05Z</time></trkpt><trkpt lat="45.59231137776924" lon="9.830833037095148"><ele>163.0</ele><time>2026-04-11T13:57:06Z</time></trkpt><trkpt lat="45.59247193493063" lon="9.830817523270138"><ele>163.0</ele><time>2026-04-11T13:57:07Z</time></trkpt><trkpt lat="45.59263980238944" lon="9.830786779176892"><ele>163.0</ele><time>2026-04-11T13:57:08Z</time></trkpt><trkpt lat="45.592805315568725" lon="9.830751099108682"><ele>163.0</ele><time>2026-04-11T13:57:09Z</time></trkpt><trkpt lat="45.59297167108104" lon="9.830737350070347"><ele>163.33333333333334</ele><time>2026-04-11T13:57:10Z</time></trkpt><trkpt lat="45.59314336083153" lon="9.830717439620248"><ele>163.66666666666666</ele><time>2026-04-11T13:57:11Z</time></trkpt><trkpt lat="45.59332170750931" lon="9.830676365644075"><ele>164.0</ele><time>2026-04-11T13:57:12Z</time></trkpt><trkpt lat="45.593502647046556" lon="9.830624588021278"><ele>163.66666666666666</ele><time>2026-04-11T13:57:13Z</time></trkpt><trkpt lat="45.59368688278993" lon="9.830585416894152"><ele>163.33333333333334</ele><time>2026-04-11T13:57:14Z</time></trkpt><trkpt lat="45.59387582988404" lon="9.830550198352777"><ele>163.0</ele><time>2026-04-11T13:57:15Z</time></trkpt><trkpt lat="45.594069037736475" lon="9.830525949835351"><ele>163.0</ele><time>2026-04-11T13:57:16Z</time></trkpt><trkpt lat="45.59426134957642" lon="9.830495999770832"><ele>163.0</ele><time>2026-04-11T13:57:17Z</time></trkpt><trkpt lat="45.59445472133099" lon="9.830466251975954"><ele>163.0</ele><time>2026-04-11T13:57:18Z</time></trkpt><trkpt lat="45.59464529224232" lon="9.830459064545238"><ele>163.66666666666669</ele><time>2026-04-11T13:57:19Z</time></trkpt><trkpt lat="45.59482270881404" lon="9.830486572329509"><ele>164.33333333333334</ele><time>2026-04-11T13:57:20Z</time></trkpt><trkpt lat="45.59499088047235" lon="9.830512093596159"><ele>165.0</ele><time>2026-04-11T13:57:21Z</time></trkpt><trkpt lat="45.595152692929275" lon="9.830557598926234"><ele>165.0</ele><time>2026-04-11T13:57:22Z</time></trkpt><trkpt lat="45.5952980573745" lon="9.830605481336725"><ele>165.0</ele><time>2026-04-11T13:57:23Z</time></trkpt><trkpt lat="45.595435821811684" lon="9.830642611075193"><ele>165.0</ele><time>2026-04-11T13:57:24Z</time></trkpt><trkpt lat="45.59557457980736" lon="9.830673912441364"><ele>165.0</ele><time>2026-04-11T13:57:25Z</time></trkpt><trkpt lat="45.59572219074987" lon="9.830710811028537"><ele>165.33333333333334</ele><time>2026-04-11T13:57:26Z</time></trkpt><trkpt lat="45.59587077049852" lon="9.830747834863855"><ele>165.66666666666669</ele><time>2026-04-11T13:57:27Z</time></trkpt><trkpt lat="45.59602331607627" lon="9.83079625550113"><ele>166.0</ele><time>2026-04-11T13:57:28Z</time></trkpt><trkpt lat="45.596168828842586" lon="9.83084417881853"><ele>166.0</ele><time>2026-04-11T13:57:29Z</time></trkpt><trkpt lat="45.596312957961764" lon="9.830883544332268"><ele>166.0</ele><time>2026-04-11T13:57:30Z</time></trkpt><trkpt lat="45.596457523309645" lon="9.830930012996188"><ele>166.0</ele><time>2026-04-11T13:57:31.001Z</time></trkpt><trkpt lat="45.59659738271757" lon="9.830971849241552"><ele>166.0</ele><time>2026-04-11T13:57:32.001Z</time></trkpt><trkpt lat="45.59673085603421" lon="9.831016034706789"><ele>166.0</ele><time>2026-04-11T13:57:33.001Z</time></trkpt><trkpt lat="45.596876223574185" lon="9.831056538982127"><ele>166.0</ele><time>2026-04-11T13:57:34.001Z</time></trkpt><trkpt lat="45.59700522846259" lon="9.83108201940893"><ele>166.0</ele><time>2026-04-11T13:57:35.001Z</time></trkpt><trkpt lat="45.59712627479117" lon="9.831114439952046"><ele>166.0</ele><time>2026-04-11T13:57:36.001Z</time></trkpt><trkpt lat="45.59726016684539" lon="9.831152999880457"><ele>166.0</ele><time>2026-04-11T13:57:37.001Z</time></trkpt><trkpt lat="45.597389189743524" lon="9.831178434937788"><ele>166.0</ele><time>2026-04-11T13:57:38.001Z</time></trkpt><trkpt lat="45.59751334421309" lon="9.831201554198598"><ele>166.0</ele><time>2026-04-11T13:57:39.001Z</time></trkpt><trkpt lat="45.597629625905846" lon="9.831231576324027"><ele>166.0</ele><time>2026-04-11T13:57:40.001Z</time></trkpt><trkpt lat="45.59772062105178" lon="9.831274785635884"><ele>166.0</ele><time>2026-04-11T13:57:41.001Z</time></trkpt><trkpt lat="45.597796683832904" lon="9.831332733951943"><ele>166.0</ele><time>2026-04-11T13:57:42.001Z</time></trkpt><trkpt lat="45.5978453920442" lon="9.83142313918053"><ele>166.0</ele><time>2026-04-11T13:57:43.001Z</time></trkpt><trkpt lat="45.597884667096785" lon="9.831517703255528"><ele>166.0</ele><time>2026-04-11T13:57:44.001Z</time></trkpt><trkpt lat="45.59794428350756" lon="9.831601785221459"><ele>166.0</ele><time>2026-04-11T13:57:45.001Z</time></trkpt><trkpt lat="45.59802279810993" lon="9.831654173466815"><ele>166.0</ele><time>2026-04-11T13:57:46.001Z</time></trkpt><trkpt lat="45.598119646901594" lon="9.831633210715795"><ele>165.75</ele><time>2026-04-11T13:57:47.001Z</time></trkpt><trkpt lat="45.59820427193276" lon="9.831560027421027"><ele>165.5</ele><time>2026-04-11T13:57:48.001Z</time></trkpt><trkpt lat="45.59829082422792" lon="9.831473331094555"><ele>165.25</ele><time>2026-04-11T13:57:49.001Z</time></trkpt><trkpt lat="45.59836579089161" lon="9.831395838928676"><ele>165.0</ele><time>2026-04-11T13:57:50.001Z</time></trkpt><trkpt lat="45.59850681539651" lon="9.831497354488084"><ele>165.0</ele><time>2026-04-11T13:57:51.001Z</time></trkpt><trkpt lat="45.59864886993994" lon="9.83152464966565"><ele>165.0</ele><time>2026-04-11T13:57:52.001Z</time></trkpt><trkpt lat="45.59879719712872" lon="9.831579917158221"><ele>165.0</ele><time>2026-04-11T13:57:53.001Z</time></trkpt><trkpt lat="45.59896652836478" lon="9.831635236555442"><ele>164.66666666666666</ele><time>2026-04-11T13:57:54.001Z</time></trkpt><trkpt lat="45.59913885139409" lon="9.831684218136656"><ele>164.33333333333331</ele><time>2026-04-11T13:57:55.001Z</time></trkpt><trkpt lat="45.59931470122293" lon="9.83172780693972"><ele>164.0</ele><time>2026-04-11T13:57:56.001Z</time></trkpt><trkpt lat="45.59949633077308" lon="9.831770779536843"><ele>164.33333333333331</ele><time>2026-04-11T13:57:57.001Z</time></trkpt><trkpt lat="45.59967736984921" lon="9.831821637021717"><ele>164.66666666666666</ele><time>2026-04-11T13:57:58.001Z</time></trkpt><trkpt lat="45.59986003058562" lon="9.831876001897374"><ele>165.0</ele><time>2026-04-11T13:57:59.001Z</time></trkpt><trkpt lat="45.60004992319044" lon="9.831930148527157"><ele>165.0</ele><time>2026-04-11T13:58:00.001Z</time></trkpt><trkpt lat="45.60024768303802" lon="9.831977438908712"><ele>165.0</ele><time>2026-04-11T13:58:01.001Z</time></trkpt><trkpt lat="45.60045259390756" lon="9.832002062092497"><ele>165.0</ele><time>2026-04-11T13:58:02.001Z</time></trkpt><trkpt lat="45.600667334068426" lon="9.832003166817556"><ele>165.0</ele><time>2026-04-11T13:58:03.001Z</time></trkpt><trkpt lat="45.6008904549422" lon="9.83198816913058"><ele>165.0</ele><time>2026-04-11T13:58:04.001Z</time></trkpt><trkpt lat="45.6011119555982" lon="9.831976698592275"><ele>165.0</ele><time>2026-04-11T13:58:05.001Z</time></trkpt><trkpt lat="45.60132772017816" lon="9.831974582700871"><ele>165.33333333333334</ele><time>2026-04-11T13:58:06.001Z</time></trkpt><trkpt lat="45.60153863327874" lon="9.831978583391702"><ele>165.66666666666669</ele><time>2026-04-11T13:58:07.001Z</time></trkpt><trkpt lat="45.60174987874515" lon="9.831981091658342"><ele>166.0</ele><time>2026-04-11T13:58:08.001Z</time></trkpt><trkpt lat="45.6019650989381" lon="9.831974437534972"><ele>166.0</ele><time>2026-04-11T13:58:09.001Z</time></trkpt><trkpt lat="45.602181186052384" lon="9.831968798214671"><ele>166.0</ele><time>2026-04-11T13:58:10.001Z</time></trkpt><trkpt lat="45.60238733488714" lon="9.831982790682417"><ele>166.0</ele><time>2026-04-11T13:58:11.001Z</time></trkpt><trkpt lat="45.60259414380206" lon="9.83200779270805"><ele>166.0</ele><time>2026-04-11T13:58:12.001Z</time></trkpt><trkpt lat="45.60279815335708" lon="9.832038253838281"><ele>166.0</ele><time>2026-04-11T13:58:13.001Z</time></trkpt><trkpt lat="45.603003594067836" lon="9.832066884180918"><ele>166.0</ele><time>2026-04-11T13:58:14.001Z</time></trkpt><trkpt lat="45.60320200935241" lon="9.832096515806285"><ele>166.66666666666669</ele><time>2026-04-11T13:58:15.001Z</time></trkpt><trkpt lat="45.603388205217" lon="9.83211269630958"><ele>167.33333333333334</ele><time>2026-04-11T13:58:16.001Z</time></trkpt><trkpt lat="45.603573814749495" lon="9.832130847249152"><ele>168.0</ele><time>2026-04-11T13:58:17.001Z</time></trkpt><trkpt lat="45.603751195080385" lon="9.832136786103602"><ele>168.0</ele><time>2026-04-11T13:58:18.001Z</time></trkpt><trkpt lat="45.60391123790189" lon="9.832120292249735"><ele>168.0</ele><time>2026-04-11T13:58:19.001Z</time></trkpt><trkpt lat="45.60405958818425" lon="9.832072453742859"><ele>168.0</ele><time>2026-04-11T13:58:19.999Z</time></trkpt><trkpt lat="45.6041822424269" lon="9.832023114455012"><ele>168.0</ele><time>2026-04-11T13:58:20.999Z</time></trkpt><trkpt lat="45.60429401182237" lon="9.831995709935306"><ele>168.0</ele><time>2026-04-11T13:58:21.999Z</time></trkpt><trkpt lat="45.60440458142027" lon="9.831992091012955"><ele>168.0</ele><time>2026-04-11T13:58:22.999Z</time></trkpt><trkpt lat="45.60452892209666" lon="9.832025598029928"><ele>168.0</ele><time>2026-04-11T13:58:23.999Z</time></trkpt><trkpt lat="45.60468184785061" lon="9.832020380622078"><ele>168.0</ele><time>2026-04-11T13:58:24.999Z</time></trkpt><trkpt lat="45.60484355279361" lon="9.83199553112292"><ele>168.66666666666666</ele><time>2026-04-11T13:58:25.999Z</time></trkpt><trkpt lat="45.60501279224904" lon="9.83202441657701"><ele>169.33333333333331</ele><time>2026-04-11T13:58:26.999Z</time></trkpt><trkpt lat="45.605190175229495" lon="9.832063859134625"><ele>170.0</ele><time>2026-04-11T13:58:27.999Z</time></trkpt><trkpt lat="45.60538791298889" lon="9.832066770344358"><ele>170.0</ele><time>2026-04-11T13:58:28.999Z</time></trkpt><trkpt lat="45.60560112544885" lon="9.832065256325137"><ele>170.0</ele><time>2026-04-11T13:58:29.999Z</time></trkpt><trkpt lat="45.605824375874334" lon="9.832072126366565"><ele>170.0</ele><time>2026-04-11T13:58:30.999Z</time></trkpt><trkpt lat="45.60604458602617" lon="9.832078591875135"><ele>170.5</ele><time>2026-04-11T13:58:31.999Z</time></trkpt><trkpt lat="45.60627328038743" lon="9.832083175933514"><ele>171.0</ele><time>2026-04-11T13:58:32.999Z</time></trkpt><trkpt lat="45.606499898489865" lon="9.83207753578044"><ele>171.0</ele><time>2026-04-11T13:58:33.999Z</time></trkpt><trkpt lat="45.60673260972256" lon="9.832077823161068"><ele>171.0</ele><time>2026-04-11T13:58:34.999Z</time></trkpt><trkpt lat="45.60696812109719" lon="9.83207877518388"><ele>171.0</ele><time>2026-04-11T13:58:35.999Z</time></trkpt><trkpt lat="45.60720967862387" lon="9.832087722974391"><ele>171.0</ele><time>2026-04-11T13:58:36.999Z</time></trkpt><trkpt lat="45.60746220250762" lon="9.832097026955338"><ele>171.0</ele><time>2026-04-11T13:58:37.999Z</time></trkpt><trkpt lat="45.607703976864755" lon="9.832099514907982"><ele>171.0</ele><time>2026-04-11T13:58:38.999Z</time></trkpt><trkpt lat="45.607948241332366" lon="9.832095907432185"><ele>170.5</ele><time>2026-04-11T13:58:39.999Z</time></trkpt><trkpt lat="45.608196173909064" lon="9.832096283814673"><ele>170.0</ele><time>2026-04-11T13:58:40.999Z</time></trkpt><trkpt lat="45.60845296038626" lon="9.832117720635836"><ele>170.0</ele><time>2026-04-11T13:58:41.999Z</time></trkpt><trkpt lat="45.608723150239776" lon="9.832123351883256"><ele>170.0</ele><time>2026-04-11T13:58:42.999Z</time></trkpt><trkpt lat="45.608996221501386" lon="9.832129043196227"><ele>170.0</ele><time>2026-04-11T13:58:43.999Z</time></trkpt><trkpt lat="45.609274359011444" lon="9.832134840100208"><ele>170.0</ele><time>2026-04-11T13:58:45Z</time></trkpt><trkpt lat="45.609556820128894" lon="9.832140320882075"><ele>170.5</ele><time>2026-04-11T13:58:46Z</time></trkpt><trkpt lat="45.60983736351207" lon="9.832125891792446"><ele>171.0</ele><time>2026-04-11T13:58:47Z</time></trkpt><trkpt lat="45.610105734325295" lon="9.83213784792409"><ele>172.0</ele><time>2026-04-11T13:58:48Z</time></trkpt><trkpt lat="45.61037174350503" lon="9.832142859803518"><ele>173.0</ele><time>2026-04-11T13:58:49Z</time></trkpt><trkpt lat="45.610633324107276" lon="9.832143798447786"><ele>173.0</ele><time>2026-04-11T13:58:50Z</time></trkpt><trkpt lat="45.610890729819616" lon="9.83215376056697"><ele>173.0</ele><time>2026-04-11T13:58:51Z</time></trkpt><trkpt lat="45.6111464387133" lon="9.832158216472935"><ele>173.5</ele><time>2026-04-11T13:58:52Z</time></trkpt><trkpt lat="45.6114034651038" lon="9.83216191415707"><ele>174.0</ele><time>2026-04-11T13:58:53Z</time></trkpt><trkpt lat="45.61166384853121" lon="9.832176659198089"><ele>174.0</ele><time>2026-04-11T13:58:54Z</time></trkpt><trkpt lat="45.6119253701777" lon="9.832195608280529"><ele>174.0</ele><time>2026-04-11T13:58:55Z</time></trkpt><trkpt lat="45.61218493514585" lon="9.832224099209093"><ele>173.5</ele><time>2026-04-11T13:58:56Z</time></trkpt><trkpt lat="45.61243493810983" lon="9.832272098057567"><ele>173.0</ele><time>2026-04-11T13:58:57Z</time></trkpt><trkpt lat="45.61267689872005" lon="9.832315788580502"><ele>174.5</ele><time>2026-04-11T13:58:58Z</time></trkpt><trkpt lat="45.6129214266352" lon="9.832370286280234"><ele>176.0</ele><time>2026-04-11T13:58:59Z</time></trkpt><trkpt lat="45.61315760797703" lon="9.832416255951033"><ele>176.0</ele><time>2026-04-11T13:59:00Z</time></trkpt><trkpt lat="45.613385005096035" lon="9.832458143156284"><ele>176.0</ele><time>2026-04-11T13:59:01Z</time></trkpt><trkpt lat="45.61360898911769" lon="9.832494383053277"><ele>176.33333333333331</ele><time>2026-04-11T13:59:02Z</time></trkpt><trkpt lat="45.61383219716709" lon="9.832533407092543"><ele>176.66666666666666</ele><time>2026-04-11T13:59:03Z</time></trkpt><trkpt lat="45.61405520560282" lon="9.832572005847249"><ele>177.0</ele><time>2026-04-11T13:59:04Z</time></trkpt><trkpt lat="45.61428163999831" lon="9.832613322396028"><ele>178.0</ele><time>2026-04-11T13:59:05Z</time></trkpt><trkpt lat="45.614511053437376" lon="9.83265439273873"><ele>179.0</ele><time>2026-04-11T13:59:06Z</time></trkpt><trkpt lat="45.61474206999116" lon="9.832697811989734"><ele>179.0</ele><time>2026-04-11T13:59:07Z</time></trkpt><trkpt lat="45.614973542577765" lon="9.832744339427668"><ele>179.0</ele><time>2026-04-11T13:59:08Z</time></trkpt><trkpt lat="45.6152067996027" lon="9.832785132182645"><ele>178.0</ele><time>2026-04-11T13:59:09Z</time></trkpt><trkpt lat="45.61543430175649" lon="9.832824321070394"><ele>177.0</ele><time>2026-04-11T13:59:10Z</time></trkpt><trkpt lat="45.61566114826515" lon="9.83286642386996"><ele>177.0</ele><time>2026-04-11T13:59:11Z</time></trkpt><trkpt lat="45.61586930210881" lon="9.832901528033819"><ele>177.0</ele><time>2026-04-11T13:59:12Z</time></trkpt><trkpt lat="45.61607214446491" lon="9.83290958143445"><ele>177.0</ele><time>2026-04-11T13:59:13Z</time></trkpt><trkpt lat="45.61626426867047" lon="9.832883983753712"><ele>177.0</ele><time>2026-04-11T13:59:14Z</time></trkpt><trkpt lat="45.61645307899374" lon="9.832826090727533"><ele>177.0</ele><time>2026-04-11T13:59:15Z</time></trkpt><trkpt lat="45.61663799931995" lon="9.832735603368022"><ele>177.0</ele><time>2026-04-11T13:59:16Z</time></trkpt><trkpt lat="45.616821679444264" lon="9.832619088220966"><ele>177.66666666666666</ele><time>2026-04-11T13:59:17Z</time></trkpt><trkpt lat="45.61701206202" lon="9.832500743028401"><ele>178.33333333333331</ele><time>2026-04-11T13:59:18Z</time></trkpt><trkpt lat="45.61720903009833" lon="9.832384467705982"><ele>179.0</ele><time>2026-04-11T13:59:19Z</time></trkpt><trkpt lat="45.617414487937175" lon="9.8322744672433"><ele>179.0</ele><time>2026-04-11T13:59:20.001Z</time></trkpt><trkpt lat="45.617616704764956" lon="9.832169687238343"><ele>179.0</ele><time>2026-04-11T13:59:21.001Z</time></trkpt><trkpt lat="45.61782945587522" lon="9.832077537374017"><ele>179.0</ele><time>2026-04-11T13:59:22.001Z</time></trkpt><trkpt lat="45.6180542190359" lon="9.83200783576836"><ele>178.5</ele><time>2026-04-11T13:59:23.001Z</time></trkpt><trkpt lat="45.618280325680544" lon="9.831955786979881"><ele>178.0</ele><time>2026-04-11T13:59:24.001Z</time></trkpt><trkpt lat="45.61852436626257" lon="9.831933901956504"><ele>179.5</ele><time>2026-04-11T13:59:25.001Z</time></trkpt><trkpt lat="45.618774388104825" lon="9.831921288202931"><ele>181.0</ele><time>2026-04-11T13:59:26.001Z</time></trkpt><trkpt lat="45.619034818343884" lon="9.831927413272615"><ele>181.0</ele><time>2026-04-11T13:59:27.001Z</time></trkpt><trkpt lat="45.619304550700754" lon="9.83194142764441"><ele>181.0</ele><time>2026-04-11T13:59:28.001Z</time></trkpt><trkpt lat="45.619579333454325" lon="9.831953144402851"><ele>180.0</ele><time>2026-04-11T13:59:29.001Z</time></trkpt><trkpt lat="45.61986050968062" lon="9.831969741091191"><ele>179.0</ele><time>2026-04-11T13:59:30.001Z</time></trkpt><trkpt lat="45.62014158416633" lon="9.83197432811717"><ele>180.5</ele><time>2026-04-11T13:59:31.001Z</time></trkpt><trkpt lat="45.62042876310503" lon="9.831980354706399"><ele>182.0</ele><time>2026-04-11T13:59:32.001Z</time></trkpt><trkpt lat="45.620718824783275" lon="9.831993360983637"><ele>182.0</ele><time>2026-04-11T13:59:33.001Z</time></trkpt><trkpt lat="45.621005945280125" lon="9.832004158715865"><ele>182.0</ele><time>2026-04-11T13:59:34.001Z</time></trkpt><trkpt lat="45.6212903056578" lon="9.832030042592946"><ele>181.5</ele><time>2026-04-11T13:59:35.001Z</time></trkpt><trkpt lat="45.62153687245966" lon="9.832039133921183"><ele>181.0</ele><time>2026-04-11T13:59:36.001Z</time></trkpt><trkpt lat="45.62177580222551" lon="9.832037170113361"><ele>181.33333333333334</ele><time>2026-04-11T13:59:37.001Z</time></trkpt><trkpt lat="45.62199704865466" lon="9.832037618463323"><ele>181.66666666666666</ele><time>2026-04-11T13:59:38.001Z</time></trkpt><trkpt lat="45.622177545528935" lon="9.83204504967802"><ele>182.0</ele><time>2026-04-11T13:59:39.001Z</time></trkpt><trkpt lat="45.62232437716639" lon="9.832051374309213"><ele>182.0</ele><time>2026-04-11T13:59:40.001Z</time></trkpt><trkpt lat="45.62245812985152" lon="9.832058958434075"><ele>182.0</ele><time>2026-04-11T13:59:41.001Z</time></trkpt><trkpt lat="45.62257091108676" lon="9.832070252422136"><ele>182.0</ele><time>2026-04-11T13:59:42.001Z</time></trkpt><trkpt lat="45.622656366760246" lon="9.832085804681451"><ele>182.0</ele><time>2026-04-11T13:59:43.001Z</time></trkpt><trkpt lat="45.62272256839403" lon="9.832147921932014"><ele>182.0</ele><time>2026-04-11T13:59:44.001Z</time></trkpt><trkpt lat="45.62279017390397" lon="9.832238326756197"><ele>182.39999999999998</ele><time>2026-04-11T13:59:45.001Z</time></trkpt><trkpt lat="45.622870242303016" lon="9.832267181447355"><ele>182.79999999999998</ele><time>2026-04-11T13:59:46.001Z</time></trkpt><trkpt lat="45.622985935149515" lon="9.832259871118794"><ele>183.2</ele><time>2026-04-11T13:59:47.001Z</time></trkpt><trkpt lat="45.62308383544982" lon="9.832195051177758"><ele>183.6</ele><time>2026-04-11T13:59:48.001Z</time></trkpt><trkpt lat="45.62316321313969" lon="9.832090877694124"><ele>184.0</ele><time>2026-04-11T13:59:49.001Z</time></trkpt><trkpt lat="45.62325727845404" lon="9.832026754076084"><ele>184.0</ele><time>2026-04-11T13:59:50.001Z</time></trkpt><trkpt lat="45.6233845497914" lon="9.831994512186178"><ele>184.0</ele><time>2026-04-11T13:59:51.001Z</time></trkpt><trkpt lat="45.62351917908421" lon="9.832003154454465"><ele>184.0</ele><time>2026-04-11T13:59:52.001Z</time></trkpt><trkpt lat="45.62367293537887" lon="9.832017642098721"><ele>184.0</ele><time>2026-04-11T13:59:53.001Z</time></trkpt><trkpt lat="45.62384149888259" lon="9.832024344676638"><ele>185.0</ele><time>2026-04-11T13:59:54.001Z</time></trkpt><trkpt lat="45.62403017492289" lon="9.832029934596154"><ele>186.0</ele><time>2026-04-11T13:59:55.001Z</time></trkpt><trkpt lat="45.62422796496966" lon="9.832037231112148"><ele>187.0</ele><time>2026-04-11T13:59:56.001Z</time></trkpt><trkpt lat="45.62444526931579" lon="9.832042417743754"><ele>187.5</ele><time>2026-04-11T13:59:57.001Z</time></trkpt><trkpt lat="45.62466991878749" lon="9.832047023662632"><ele>188.0</ele><time>2026-04-11T13:59:58.001Z</time></trkpt><trkpt lat="45.62490193631376" lon="9.832047825155264"><ele>188.0</ele><time>2026-04-11T13:59:59.001Z</time></trkpt><trkpt lat="45.62514815910742" lon="9.832051243658347"><ele>188.0</ele><time>2026-04-11T14:00:00.001Z</time></trkpt><trkpt lat="45.62539714571461" lon="9.832046377603477"><ele>187.5</ele><time>2026-04-11T14:00:01.001Z</time></trkpt><trkpt lat="45.625661626060385" lon="9.832044906662073"><ele>187.0</ele><time>2026-04-11T14:00:02.001Z</time></trkpt><trkpt lat="45.62592563112944" lon="9.832047564847727"><ele>187.5</ele><time>2026-04-11T14:00:03.001Z</time></trkpt><trkpt lat="45.626191783992326" lon="9.832049748805716"><ele>188.0</ele><time>2026-04-11T14:00:04.001Z</time></trkpt><trkpt lat="45.62645670735016" lon="9.83205591381244"><ele>188.0</ele><time>2026-04-11T14:00:05.002Z</time></trkpt><trkpt lat="45.626723923873534" lon="9.832057731452595"><ele>188.0</ele><time>2026-04-11T14:00:06.002Z</time></trkpt><trkpt lat="45.626993308418506" lon="9.832066004336788"><ele>187.0</ele><time>2026-04-11T14:00:07.002Z</time></trkpt><trkpt lat="45.62725964332032" lon="9.832071542400204"><ele>186.0</ele><time>2026-04-11T14:00:08.002Z</time></trkpt><trkpt lat="45.627528916146844" lon="9.832077172868267"><ele>186.0</ele><time>2026-04-11T14:00:09.002Z</time></trkpt><trkpt lat="45.627792607399925" lon="9.832061214178513"><ele>186.0</ele><time>2026-04-11T14:00:10.002Z</time></trkpt><trkpt lat="45.62805528084773" lon="9.832146833758879"><ele>187.5</ele><time>2026-04-11T14:00:11.002Z</time></trkpt><trkpt lat="45.6282837104974" lon="9.831976501817929"><ele>189.0</ele><time>2026-04-11T14:00:12.002Z</time></trkpt><trkpt lat="45.62850708016893" lon="9.831916547925779"><ele>190.0</ele><time>2026-04-11T14:00:13.002Z</time></trkpt><trkpt lat="45.62871361814997" lon="9.831838147966142"><ele>191.0</ele><time>2026-04-11T14:00:14.002Z</time></trkpt><trkpt lat="45.62890567044361" lon="9.831759328864653"><ele>192.0</ele><time>2026-04-11T14:00:15.002Z</time></trkpt><trkpt lat="45.62907679750328" lon="9.831673864197882"><ele>192.0</ele><time>2026-04-11T14:00:16.002Z</time></trkpt><trkpt lat="45.62923085679167" lon="9.831605440747603"><ele>192.0</ele><time>2026-04-11T14:00:17.002Z</time></trkpt><trkpt lat="45.62938110408529" lon="9.831530873434286"><ele>192.0</ele><time>2026-04-11T14:00:18.002Z</time></trkpt><trkpt lat="45.629520828963855" lon="9.831455235684652"><ele>191.25</ele><time>2026-04-11T14:00:19.002Z</time></trkpt><trkpt lat="45.6296541112039" lon="9.83136109188425"><ele>190.5</ele><time>2026-04-11T14:00:20.002Z</time></trkpt><trkpt lat="45.629779251800784" lon="9.831258584167335"><ele>189.75</ele><time>2026-04-11T14:00:21.002Z</time></trkpt><trkpt lat="45.62991597869282" lon="9.831177170652484"><ele>189.0</ele><time>2026-04-11T14:00:22.002Z</time></trkpt><trkpt lat="45.630053510738236" lon="9.831094566801742"><ele>189.0</ele><time>2026-04-11T14:00:23.002Z</time></trkpt><trkpt lat="45.63019360917719" lon="9.830998845893372"><ele>189.0</ele><time>2026-04-11T14:00:24.002Z</time></trkpt><trkpt lat="45.63033583641966" lon="9.83089372559603"><ele>189.0</ele><time>2026-04-11T14:00:25.002Z</time></trkpt><trkpt lat="45.63048383178791" lon="9.830811743604311"><ele>190.33333333333331</ele><time>2026-04-11T14:00:25.999Z</time></trkpt><trkpt lat="45.63063581509676" lon="9.8307549578226"><ele>191.66666666666666</ele><time>2026-04-11T14:00:26.999Z</time></trkpt><trkpt lat="45.6307920611685" lon="9.830720719308282"><ele>193.0</ele><time>2026-04-11T14:00:27.999Z</time></trkpt><trkpt lat="45.630945963552236" lon="9.83070635688834"><ele>193.0</ele><time>2026-04-11T14:00:28.999Z</time></trkpt><trkpt lat="45.63109332288786" lon="9.830711771202271"><ele>193.0</ele><time>2026-04-11T14:00:29.999Z</time></trkpt><trkpt lat="45.63123533635886" lon="9.83072640312771"><ele>193.0</ele><time>2026-04-11T14:00:30.999Z</time></trkpt><trkpt lat="45.63136460696289" lon="9.83074213945314"><ele>193.0</ele><time>2026-04-11T14:00:31.999Z</time></trkpt><trkpt lat="45.63149741731563" lon="9.830762583722237"><ele>193.5</ele><time>2026-04-11T14:00:32.999Z</time></trkpt><trkpt lat="45.63162159639206" lon="9.830778933021216"><ele>194.0</ele><time>2026-04-11T14:00:33.999Z</time></trkpt><trkpt lat="45.631735907036834" lon="9.830790190553524"><ele>194.5</ele><time>2026-04-11T14:00:34.999Z</time></trkpt><trkpt lat="45.631848839556426" lon="9.830803235353121"><ele>195.0</ele><time>2026-04-11T14:00:35.999Z</time></trkpt><trkpt lat="45.63195721173236" lon="9.830825487155131"><ele>194.6</ele><time>2026-04-11T14:00:36.999Z</time></trkpt><trkpt lat="45.632057438023374" lon="9.830843623903347"><ele>194.2</ele><time>2026-04-11T14:00:37.999Z</time></trkpt><trkpt lat="45.632144073430055" lon="9.830820168804735"><ele>193.8</ele><time>2026-04-11T14:00:38.999Z</time></trkpt><trkpt lat="45.63223381437465" lon="9.830811195542696"><ele>193.4</ele><time>2026-04-11T14:00:39.999Z</time></trkpt><trkpt lat="45.632317714312165" lon="9.830777528818949"><ele>193.0</ele><time>2026-04-11T14:00:40.999Z</time></trkpt><trkpt lat="45.63240753158342" lon="9.830813254048703"><ele>192.99999999999997</ele><time>2026-04-11T14:00:41.999Z</time></trkpt><trkpt lat="45.63248321954737" lon="9.830867891573376"><ele>193.0</ele><time>2026-04-11T14:00:42.999Z</time></trkpt><trkpt lat="45.63256130660191" lon="9.830925641217489"><ele>193.0</ele><time>2026-04-11T14:00:43.999Z</time></trkpt><trkpt lat="45.632648858968295" lon="9.830938700920974"><ele>193.0</ele><time>2026-04-11T14:00:44.999Z</time></trkpt><trkpt lat="45.632740250029556" lon="9.830919087607217"><ele>192.99999999999997</ele><time>2026-04-11T14:00:46Z</time></trkpt><trkpt lat="45.63281749408881" lon="9.830863978286327"><ele>193.0</ele><time>2026-04-11T14:00:47Z</time></trkpt><trkpt lat="45.63287282908117" lon="9.830770404588149"><ele>192.99999999999997</ele><time>2026-04-11T14:00:48Z</time></trkpt><trkpt lat="45.632893704709275" lon="9.830651260400789"><ele>193.0</ele><time>2026-04-11T14:00:49Z</time></trkpt><trkpt lat="45.63288622881805" lon="9.830534258754522"><ele>193.0</ele><time>2026-04-11T14:00:50Z</time></trkpt><trkpt lat="45.63284557492237" lon="9.830420830804941"><ele>193.0</ele><time>2026-04-11T14:00:51Z</time></trkpt><trkpt lat="45.632768355019365" lon="9.83033137822849"><ele>192.99999999999997</ele><time>2026-04-11T14:00:52Z</time></trkpt><trkpt lat="45.632685066519386" lon="9.830282578064427"><ele>193.0</ele><time>2026-04-11T14:00:53Z</time></trkpt><trkpt lat="45.63258665980835" lon="9.830290548517775"><ele>193.0</ele><time>2026-04-11T14:00:54Z</time></trkpt><trkpt lat="45.63249414196392" lon="9.830354298165677"><ele>193.0</ele><time>2026-04-11T14:00:55Z</time></trkpt><trkpt lat="45.63242741146846" lon="9.830467172071343"><ele>193.0</ele><time>2026-04-11T14:00:56Z</time></trkpt><trkpt lat="45.632413986354315" lon="9.830589662579534"><ele>193.0</ele><time>2026-04-11T14:00:57Z</time></trkpt><trkpt lat="45.63242891552259" lon="9.830723160987027"><ele>193.0</ele><time>2026-04-11T14:00:58Z</time></trkpt><trkpt lat="45.6324729863422" lon="9.830846646720241"><ele>192.75</ele><time>2026-04-11T14:00:59Z</time></trkpt><trkpt lat="45.63252887687769" lon="9.830981431853928"><ele>192.5</ele><time>2026-04-11T14:01:00Z</time></trkpt><trkpt lat="45.63256225014969" lon="9.831142348285804"><ele>192.25</ele><time>2026-04-11T14:01:01Z</time></trkpt><trkpt lat="45.63261806984235" lon="9.83128978112408"><ele>192.0</ele><time>2026-04-11T14:01:02Z</time></trkpt><trkpt lat="45.63254365997317" lon="9.831533684316817"><ele>192.0</ele><time>2026-04-11T14:01:03Z</time></trkpt><trkpt lat="45.63252618003787" lon="9.831728184695468"><ele>192.0</ele><time>2026-04-11T14:01:04Z</time></trkpt><trkpt lat="45.63248551160937" lon="9.831923007148164"><ele>192.0</ele><time>2026-04-11T14:01:05Z</time></trkpt><trkpt lat="45.63244418532465" lon="9.83211108132138"><ele>192.0</ele><time>2026-04-11T14:01:06Z</time></trkpt><trkpt lat="45.632398242141306" lon="9.832311922505545"><ele>191.66666666666666</ele><time>2026-04-11T14:01:07Z</time></trkpt><trkpt lat="45.632319085273615" lon="9.83249022645423"><ele>191.33333333333331</ele><time>2026-04-11T14:01:08Z</time></trkpt><trkpt lat="45.63222712039933" lon="9.832663206169963"><ele>191.0</ele><time>2026-04-11T14:01:09Z</time></trkpt><trkpt lat="45.63211818794454" lon="9.832824378051845"><ele>191.66666666666666</ele><time>2026-04-11T14:01:10Z</time></trkpt><trkpt lat="45.63199173160139" lon="9.832979395560058"><ele>192.33333333333331</ele><time>2026-04-11T14:01:11Z</time></trkpt><trkpt lat="45.631857250924625" lon="9.83314790420472"><ele>193.0</ele><time>2026-04-11T14:01:12Z</time></trkpt><trkpt lat="45.63172194848833" lon="9.83332702348142"><ele>193.66666666666666</ele><time>2026-04-11T14:01:13Z</time></trkpt><trkpt lat="45.63158447577305" lon="9.83350776436745"><ele>194.33333333333331</ele><time>2026-04-11T14:01:14Z</time></trkpt><trkpt lat="45.63144304403137" lon="9.833691819274014"><ele>195.0</ele><time>2026-04-11T14:01:15Z</time></trkpt><trkpt lat="45.63130535898989" lon="9.833877445584884"><ele>195.0</ele><time>2026-04-11T14:01:16Z</time></trkpt><trkpt lat="45.63116871796916" lon="9.834054562392945"><ele>195.0</ele><time>2026-04-11T14:01:17Z</time></trkpt><trkpt lat="45.63104311365033" lon="9.834218877270542"><ele>195.0</ele><time>2026-04-11T14:01:18Z</time></trkpt><trkpt lat="45.630926312180186" lon="9.834377507869407"><ele>193.66666666666666</ele><time>2026-04-11T14:01:19.001Z</time></trkpt><trkpt lat="45.630814615186196" lon="9.834551494343266"><ele>192.33333333333331</ele><time>2026-04-11T14:01:20.001Z</time></trkpt><trkpt lat="45.63072134737033" lon="9.83475250084907"><ele>191.0</ele><time>2026-04-11T14:01:21.001Z</time></trkpt><trkpt lat="45.630688443347985" lon="9.83499379398743"><ele>191.33333333333331</ele><time>2026-04-11T14:01:22.001Z</time></trkpt><trkpt lat="45.63064230762041" lon="9.835238200043273"><ele>191.66666666666666</ele><time>2026-04-11T14:01:23.001Z</time></trkpt><trkpt lat="45.63061619314169" lon="9.835517227844605"><ele>192.0</ele><time>2026-04-11T14:01:24.001Z</time></trkpt><trkpt lat="45.63056705527236" lon="9.835815051170103"><ele>192.66666666666669</ele><time>2026-04-11T14:01:25.001Z</time></trkpt><trkpt lat="45.630517374353175" lon="9.83611875710723"><ele>193.33333333333334</ele><time>2026-04-11T14:01:26.001Z</time></trkpt><trkpt lat="45.63047891410352" lon="9.836433723117775"><ele>194.0</ele><time>2026-04-11T14:01:27.001Z</time></trkpt><trkpt lat="45.63044678709753" lon="9.836751763942498"><ele>193.5</ele><time>2026-04-11T14:01:28.001Z</time></trkpt><trkpt lat="45.63042251681553" lon="9.837074565548555"><ele>193.0</ele><time>2026-04-11T14:01:29.001Z</time></trkpt><trkpt lat="45.630394829106336" lon="9.837391805721406"><ele>192.66666666666666</ele><time>2026-04-11T14:01:30.001Z</time></trkpt><trkpt lat="45.63037014970778" lon="9.837701095591646"><ele>192.33333333333331</ele><time>2026-04-11T14:01:31.001Z</time></trkpt><trkpt lat="45.63034190764224" lon="9.837999707729992"><ele>192.0</ele><time>2026-04-11T14:01:32.001Z</time></trkpt><trkpt lat="45.63031995688671" lon="9.8382856339705"><ele>192.33333333333331</ele><time>2026-04-11T14:01:33.001Z</time></trkpt><trkpt lat="45.63029398873899" lon="9.838557658998907"><ele>192.66666666666666</ele><time>2026-04-11T14:01:34.001Z</time></trkpt><trkpt lat="45.6302722116722" lon="9.838808225205643"><ele>193.0</ele><time>2026-04-11T14:01:35.001Z</time></trkpt><trkpt lat="45.63024656962114" lon="9.839057421248746"><ele>193.0</ele><time>2026-04-11T14:01:36.001Z</time></trkpt><trkpt lat="45.63022452547806" lon="9.839291478702297"><ele>193.0</ele><time>2026-04-11T14:01:37.001Z</time></trkpt><trkpt lat="45.63021098049457" lon="9.839497305154683"><ele>193.0</ele><time>2026-04-11T14:01:38.001Z</time></trkpt><trkpt lat="45.63019727586437" lon="9.83966614715456"><ele>193.0</ele><time>2026-04-11T14:01:39.001Z</time></trkpt><trkpt lat="45.630181811542364" lon="9.839791739020745"><ele>192.8</ele><time>2026-04-11T14:01:40.001Z</time></trkpt><trkpt lat="45.63002022362055" lon="9.83985165401716"><ele>192.60000000000002</ele><time>2026-04-11T14:01:43.001Z</time></trkpt><trkpt lat="45.629950252895924" lon="9.839824380714012"><ele>192.39999999999998</ele><time>2026-04-11T14:01:44.001Z</time></trkpt><trkpt lat="45.62988998634927" lon="9.839796743282047"><ele>192.2</ele><time>2026-04-11T14:01:45.001Z</time></trkpt><trkpt lat="45.62981991084523" lon="9.83979296256307"><ele>192.0</ele><time>2026-04-11T14:01:47.001Z</time></trkpt><trkpt lat="45.62990170797772" lon="9.83982482786686"><ele>192.0</ele><time>2026-04-11T14:01:52.001Z</time></trkpt><trkpt lat="45.62997082160799" lon="9.83984388623267"><ele>192.0</ele><time>2026-04-11T14:01:53.001Z</time></trkpt><trkpt lat="45.62988025814288" lon="9.83987236204961"><ele>192.0</ele><time>2026-04-11T14:01:54.001Z</time></trkpt><trkpt lat="45.6301210638129" lon="9.839970254181106"><ele>192.0</ele><time>2026-04-11T14:01:56.001Z</time></trkpt><trkpt lat="45.63022639004016" lon="9.83990434715676"><ele>192.0</ele><time>2026-04-11T14:01:59.002Z</time></trkpt><trkpt lat="45.63023212287781" lon="9.83977694028477"><ele>192.0</ele><time>2026-04-11T14:02:00.002Z</time></trkpt><trkpt lat="45.630242425267795" lon="9.839644332903806"><ele>192.0</ele><time>2026-04-11T14:02:01.002Z</time></trkpt><trkpt lat="45.630266981281345" lon="9.839480496167868"><ele>192.0</ele><time>2026-04-11T14:02:02.002Z</time></trkpt><trkpt lat="45.630288608493004" lon="9.839300676844415"><ele>192.0</ele><time>2026-04-11T14:02:03.002Z</time></trkpt><trkpt lat="45.63030756947571" lon="9.839110496460005"><ele>192.0</ele><time>2026-04-11T14:02:04.002Z</time></trkpt><trkpt lat="45.63032173298922" lon="9.838913738121786"><ele>192.0</ele><time>2026-04-11T14:02:05.002Z</time></trkpt><trkpt lat="45.63034018488991" lon="9.838715104191802"><ele>192.0</ele><time>2026-04-11T14:02:06.002Z</time></trkpt><trkpt lat="45.63035999159684" lon="9.838521590773754"><ele>192.0</ele><time>2026-04-11T14:02:07.002Z</time></trkpt><trkpt lat="45.630378935744" lon="9.838350735089868"><ele>192.0</ele><time>2026-04-11T14:02:08.002Z</time></trkpt><trkpt lat="45.63039530698034" lon="9.83822746988246"><ele>192.0</ele><time>2026-04-11T14:02:09.002Z</time></trkpt><trkpt lat="45.630423604886516" lon="9.838108843455469"><ele>192.0</ele><time>2026-04-11T14:02:11.002Z</time></trkpt><trkpt lat="45.63052594854589" lon="9.838048806433086"><ele>192.0</ele><time>2026-04-11T14:02:13.002Z</time></trkpt><trkpt lat="45.6306175269894" lon="9.83807433387883"><ele>192.0</ele><time>2026-04-11T14:02:14.002Z</time></trkpt><trkpt lat="45.63072864302005" lon="9.838090714769207"><ele>192.0</ele><time>2026-04-11T14:02:15.002Z</time></trkpt><trkpt lat="45.63086807631811" lon="9.838105356061275"><ele>192.0</ele><time>2026-04-11T14:02:16.002Z</time></trkpt><trkpt lat="45.6310117376342" lon="9.838118917155755"><ele>192.0</ele><time>2026-04-11T14:02:17.002Z</time></trkpt><trkpt lat="45.63115612329038" lon="9.838147855420798"><ele>192.0</ele><time>2026-04-11T14:02:18.002Z</time></trkpt><trkpt lat="45.63130924409388" lon="9.838178110820932"><ele>192.0</ele><time>2026-04-11T14:02:19.002Z</time></trkpt><trkpt lat="45.63147071360343" lon="9.83820524991432"><ele>192.0</ele><time>2026-04-11T14:02:20.002Z</time></trkpt><trkpt lat="45.63164316234323" lon="9.838208544583418"><ele>192.0</ele><time>2026-04-11T14:02:21.002Z</time></trkpt><trkpt lat="45.63181383350299" lon="9.838215311928728"><ele>192.0</ele><time>2026-04-11T14:02:22.002Z</time></trkpt><trkpt lat="45.63198183496677" lon="9.838248977592036"><ele>192.0</ele><time>2026-04-11T14:02:23.002Z</time></trkpt><trkpt lat="45.63215452603645" lon="9.838269391379553"><ele>192.0</ele><time>2026-04-11T14:02:24.002Z</time></trkpt><trkpt lat="45.63232142723755" lon="9.838281149729712"><ele>192.0</ele><time>2026-04-11T14:02:25.002Z</time></trkpt><trkpt lat="45.63248480374249" lon="9.83829594994738"><ele>192.0</ele><time>2026-04-11T14:02:26.002Z</time></trkpt><trkpt lat="45.63264107280473" lon="9.838314252793712"><ele>192.0</ele><time>2026-04-11T14:02:27.002Z</time></trkpt><trkpt lat="45.63279006791671" lon="9.838331598390932"><ele>192.5</ele><time>2026-04-11T14:02:28.002Z</time></trkpt><trkpt lat="45.632935327565114" lon="9.838348448503996"><ele>193.0</ele><time>2026-04-11T14:02:29.002Z</time></trkpt><trkpt lat="45.633064757132075" lon="9.83836089045797"><ele>193.5</ele><time>2026-04-11T14:02:30.002Z</time></trkpt><trkpt lat="45.63317652201121" lon="9.838378808331418"><ele>194.0</ele><time>2026-04-11T14:02:31.002Z</time></trkpt><trkpt lat="45.633266392500765" lon="9.838411750461475"><ele>194.0</ele><time>2026-04-11T14:02:31.999Z</time></trkpt><trkpt lat="45.63332843146419" lon="9.838464306702779"><ele>194.0</ele><time>2026-04-11T14:02:32.999Z</time></trkpt><trkpt lat="45.63339636391254" lon="9.838443751397904"><ele>194.0</ele><time>2026-04-11T14:02:34.999Z</time></trkpt><trkpt lat="45.633439912427875" lon="9.838712454867805"><ele>194.0</ele><time>2026-04-11T14:02:36.999Z</time></trkpt><trkpt lat="45.63341803773265" lon="9.838814203122153"><ele>194.0</ele><time>2026-04-11T14:02:37.999Z</time></trkpt><trkpt lat="45.633406500413365" lon="9.838954430162163"><ele>194.0</ele><time>2026-04-11T14:02:38.999Z</time></trkpt><trkpt lat="45.63339178005019" lon="9.839133344635988"><ele>194.0</ele><time>2026-04-11T14:02:39.999Z</time></trkpt><trkpt lat="45.63337389498033" lon="9.839340204611089"><ele>194.0</ele><time>2026-04-11T14:02:40.999Z</time></trkpt><trkpt lat="45.63335338080392" lon="9.839552508428577"><ele>194.0</ele><time>2026-04-11T14:02:41.999Z</time></trkpt><trkpt lat="45.63332773828668" lon="9.839787022667213"><ele>194.0</ele><time>2026-04-11T14:02:42.999Z</time></trkpt><trkpt lat="45.6333010586725" lon="9.840029920330696"><ele>194.0</ele><time>2026-04-11T14:02:43.999Z</time></trkpt><trkpt lat="45.63327290716245" lon="9.840286218514253"><ele>194.0</ele><time>2026-04-11T14:02:44.999Z</time></trkpt><trkpt lat="45.63324197347713" lon="9.840563455386516"><ele>194.0</ele><time>2026-04-11T14:02:45.999Z</time></trkpt><trkpt lat="45.63321145122992" lon="9.840833551794898"><ele>194.0</ele><time>2026-04-11T14:02:46.999Z</time></trkpt><trkpt lat="45.63317804664272" lon="9.841106430340593"><ele>194.0</ele><time>2026-04-11T14:02:48Z</time></trkpt><trkpt lat="45.63315038551844" lon="9.841383664799833"><ele>193.66666666666669</ele><time>2026-04-11T14:02:49Z</time></trkpt><trkpt lat="45.633123080039695" lon="9.841666534836824"><ele>193.33333333333331</ele><time>2026-04-11T14:02:50Z</time></trkpt><trkpt lat="45.63308637361508" lon="9.841944749940918"><ele>193.0</ele><time>2026-04-11T14:02:51Z</time></trkpt><trkpt lat="45.6330542866687" lon="9.842217023054605"><ele>193.66666666666666</ele><time>2026-04-11T14:02:52Z</time></trkpt><trkpt lat="45.63302384961008" lon="9.842474554567168"><ele>194.33333333333331</ele><time>2026-04-11T14:02:53Z</time></trkpt><trkpt lat="45.6329896816351" lon="9.842726631509747"><ele>195.0</ele><time>2026-04-11T14:02:54Z</time></trkpt><trkpt lat="45.63295798207437" lon="9.842977235860934"><ele>195.0</ele><time>2026-04-11T14:02:55Z</time></trkpt><trkpt lat="45.632927237764335" lon="9.843223370538901"><ele>195.0</ele><time>2026-04-11T14:02:56Z</time></trkpt><trkpt lat="45.63289044435372" lon="9.843463105850544"><ele>195.0</ele><time>2026-04-11T14:02:57Z</time></trkpt><trkpt lat="45.63285496412971" lon="9.843699970764765"><ele>195.33333333333331</ele><time>2026-04-11T14:02:58Z</time></trkpt><trkpt lat="45.6328359363226" lon="9.843944648816024"><ele>195.66666666666666</ele><time>2026-04-11T14:02:59Z</time></trkpt><trkpt lat="45.6328189506915" lon="9.844199588147102"><ele>196.0</ele><time>2026-04-11T14:03:00Z</time></trkpt><trkpt lat="45.63279403391149" lon="9.84445154923086"><ele>194.66666666666666</ele><time>2026-04-11T14:03:01Z</time></trkpt><trkpt lat="45.63276302352687" lon="9.844693570112648"><ele>193.33333333333331</ele><time>2026-04-11T14:03:02Z</time></trkpt><trkpt lat="45.63273243748868" lon="9.844940520698694"><ele>192.0</ele><time>2026-04-11T14:03:03Z</time></trkpt><trkpt lat="45.63270578725845" lon="9.845211407914611"><ele>191.66666666666666</ele><time>2026-04-11T14:03:04Z</time></trkpt><trkpt lat="45.632669617387656" lon="9.84549720609087"><ele>191.33333333333331</ele><time>2026-04-11T14:03:05Z</time></trkpt><trkpt lat="45.63262830404862" lon="9.84578733254423"><ele>191.0</ele><time>2026-04-11T14:03:06Z</time></trkpt><trkpt lat="45.63259146922011" lon="9.846073485687157"><ele>190.33333333333331</ele><time>2026-04-11T14:03:07Z</time></trkpt><trkpt lat="45.632560714020855" lon="9.846350477426856"><ele>189.66666666666666</ele><time>2026-04-11T14:03:08Z</time></trkpt><trkpt lat="45.63253289134679" lon="9.846617962195355"><ele>189.0</ele><time>2026-04-11T14:03:09Z</time></trkpt><trkpt lat="45.63250690842217" lon="9.84686874665567"><ele>189.0</ele><time>2026-04-11T14:03:10Z</time></trkpt><trkpt lat="45.632481971029506" lon="9.847107740369315"><ele>189.0</ele><time>2026-04-11T14:03:11Z</time></trkpt><trkpt lat="45.63245837671393" lon="9.847334439996988"><ele>189.0</ele><time>2026-04-11T14:03:12Z</time></trkpt><trkpt lat="45.63243199074863" lon="9.84754484039404"><ele>189.2</ele><time>2026-04-11T14:03:13Z</time></trkpt><trkpt lat="45.632417690289905" lon="9.847737975573699"><ele>189.39999999999998</ele><time>2026-04-11T14:03:14Z</time></trkpt><trkpt lat="45.6324029213502" lon="9.847909688259817"><ele>189.6</ele><time>2026-04-11T14:03:15Z</time></trkpt><trkpt lat="45.63239237524081" lon="9.848057458455592"><ele>189.8</ele><time>2026-04-11T14:03:16Z</time></trkpt><trkpt lat="45.63237900711763" lon="9.848182163197773"><ele>190.0</ele><time>2026-04-11T14:03:17.001Z</time></trkpt><trkpt lat="45.63236108629997" lon="9.848281637944837"><ele>190.0</ele><time>2026-04-11T14:03:18.001Z</time></trkpt><trkpt lat="45.63234143355923" lon="9.848374140724063"><ele>190.0</ele><time>2026-04-11T14:03:19.001Z</time></trkpt><trkpt lat="45.632321767926406" lon="9.848474288129456"><ele>190.0</ele><time>2026-04-11T14:03:20.001Z</time></trkpt><trkpt lat="45.63229575605732" lon="9.848574509467216"><ele>190.0</ele><time>2026-04-11T14:03:21.001Z</time></trkpt><trkpt lat="45.63227074646014" lon="9.848669388588593"><ele>190.0</ele><time>2026-04-11T14:03:22.001Z</time></trkpt><trkpt lat="45.63226605320984" lon="9.848769189824003"><ele>190.0</ele><time>2026-04-11T14:03:23.001Z</time></trkpt><trkpt lat="45.632349495337216" lon="9.848885762078917"><ele>191.0</ele><time>2026-04-11T14:03:25.001Z</time></trkpt><trkpt lat="45.63245230285652" lon="9.848798462132065"><ele>192.0</ele><time>2026-04-11T14:03:27.001Z</time></trkpt><trkpt lat="45.63251596251786" lon="9.848617631830617"><ele>193.0</ele><time>2026-04-11T14:03:29.001Z</time></trkpt><trkpt lat="45.63259862190034" lon="9.84856120454163"><ele>194.0</ele><time>2026-04-11T14:03:30.001Z</time></trkpt><trkpt lat="45.63269018114812" lon="9.848504614343225"><ele>194.0</ele><time>2026-04-11T14:03:31.001Z</time></trkpt><trkpt lat="45.63280457304422" lon="9.848432371917102"><ele>194.0</ele><time>2026-04-11T14:03:32.001Z</time></trkpt><trkpt lat="45.632928098780994" lon="9.848328001818507"><ele>194.0</ele><time>2026-04-11T14:03:33.001Z</time></trkpt><trkpt lat="45.63306125209865" lon="9.848221635694326"><ele>194.0</ele><time>2026-04-11T14:03:34.001Z</time></trkpt><trkpt lat="45.633203055652054" lon="9.848100421050301"><ele>194.0</ele><time>2026-04-11T14:03:35.001Z</time></trkpt><trkpt lat="45.633355821376114" lon="9.847982565129813"><ele>194.0</ele><time>2026-04-11T14:03:36.001Z</time></trkpt><trkpt lat="45.63351359448501" lon="9.847874465520732"><ele>194.0</ele><time>2026-04-11T14:03:37.001Z</time></trkpt><trkpt lat="45.63368034343597" lon="9.847749029637608"><ele>194.0</ele><time>2026-04-11T14:03:38.001Z</time></trkpt><trkpt lat="45.63384408691735" lon="9.847616035764142"><ele>194.0</ele><time>2026-04-11T14:03:39.001Z</time></trkpt><trkpt lat="45.63400250667898" lon="9.84747712302351"><ele>194.0</ele><time>2026-04-11T14:03:40.001Z</time></trkpt><trkpt lat="45.63415051386231" lon="9.847324621245162"><ele>194.0</ele><time>2026-04-11T14:03:41.001Z</time></trkpt><trkpt lat="45.63427244401111" lon="9.847139014774147"><ele>194.0</ele><time>2026-04-11T14:03:42.001Z</time></trkpt><trkpt lat="45.634370328186385" lon="9.846946333478607"><ele>194.0</ele><time>2026-04-11T14:03:43.001Z</time></trkpt><trkpt lat="45.63445712000393" lon="9.846764691694629"><ele>194.75</ele><time>2026-04-11T14:03:44.001Z</time></trkpt><trkpt lat="45.63454353551513" lon="9.846619550588418"><ele>195.5</ele><time>2026-04-11T14:03:45.001Z</time></trkpt><trkpt lat="45.634634935346256" lon="9.846520969868592"><ele>196.25</ele><time>2026-04-11T14:03:46.001Z</time></trkpt><trkpt lat="45.6347397622111" lon="9.84650790037048"><ele>197.0</ele><time>2026-04-11T14:03:47.001Z</time></trkpt><trkpt lat="45.63484662298128" lon="9.846457432393988"><ele>197.0</ele><time>2026-04-11T14:03:48.001Z</time></trkpt><trkpt lat="45.63498165254986" lon="9.846422676283543"><ele>197.0</ele><time>2026-04-11T14:03:49.001Z</time></trkpt><trkpt lat="45.63513003135169" lon="9.846379927443104"><ele>197.0</ele><time>2026-04-11T14:03:50.001Z</time></trkpt><trkpt lat="45.63529450062243" lon="9.846329593070559"><ele>197.33333333333334</ele><time>2026-04-11T14:03:51.001Z</time></trkpt><trkpt lat="45.63547637735801" lon="9.846264982511247"><ele>197.66666666666669</ele><time>2026-04-11T14:03:52.001Z</time></trkpt><trkpt lat="45.63565648132985" lon="9.846203048749558"><ele>198.0</ele><time>2026-04-11T14:03:53.002Z</time></trkpt><trkpt lat="45.63581469203566" lon="9.846151577119242"><ele>198.0</ele><time>2026-04-11T14:03:54.002Z</time></trkpt><trkpt lat="45.63596350603412" lon="9.846107266511954"><ele>198.0</ele><time>2026-04-11T14:03:55.002Z</time></trkpt><trkpt lat="45.63612814205653" lon="9.846072301108459"><ele>198.0</ele><time>2026-04-11T14:03:56.002Z</time></trkpt><trkpt lat="45.63630077354556" lon="9.846038339838351"><ele>198.0</ele><time>2026-04-11T14:03:57.002Z</time></trkpt><trkpt lat="45.63647088509096" lon="9.84597840258571"><ele>198.0</ele><time>2026-04-11T14:03:58.002Z</time></trkpt><trkpt lat="45.63662943411088" lon="9.845921546078992"><ele>198.0</ele><time>2026-04-11T14:03:59.002Z</time></trkpt><trkpt lat="45.63678030873894" lon="9.845867983606443"><ele>198.2</ele><time>2026-04-11T14:04:00.002Z</time></trkpt><trkpt lat="45.636907343107715" lon="9.845812231798527"><ele>198.4</ele><time>2026-04-11T14:04:01.002Z</time></trkpt><trkpt lat="45.63700753225711" lon="9.845778338648959"><ele>198.6</ele><time>2026-04-11T14:04:02.002Z</time></trkpt><trkpt lat="45.637085596408994" lon="9.845754375142336"><ele>198.79999999999998</ele><time>2026-04-11T14:04:03.002Z</time></trkpt><trkpt lat="45.6371516160278" lon="9.84570555422556"><ele>199.0</ele><time>2026-04-11T14:04:04.002Z</time></trkpt><trkpt lat="45.637203191613644" lon="9.845639542367259"><ele>198.66666666666666</ele><time>2026-04-11T14:04:05.002Z</time></trkpt><trkpt lat="45.637265526363414" lon="9.845579937366807"><ele>198.33333333333331</ele><time>2026-04-11T14:04:06.002Z</time></trkpt><trkpt lat="45.637323523939955" lon="9.845538847213101"><ele>198.0</ele><time>2026-04-11T14:04:07.002Z</time></trkpt><trkpt lat="45.637371382390455" lon="9.845479407904612"><ele>197.66666666666669</ele><time>2026-04-11T14:04:08.002Z</time></trkpt><trkpt lat="45.63746164762066" lon="9.845385123175879"><ele>197.33333333333334</ele><time>2026-04-11T14:04:10.002Z</time></trkpt><trkpt lat="45.63752071670326" lon="9.845349111370453"><ele>197.0</ele><time>2026-04-11T14:04:12.002Z</time></trkpt><trkpt lat="45.637620549773956" lon="9.845320799267078"><ele>197.0</ele><time>2026-04-11T14:04:15.002Z</time></trkpt><trkpt lat="45.63769078903039" lon="9.845337556924834"><ele>197.0</ele><time>2026-04-11T14:04:16.002Z</time></trkpt><trkpt lat="45.637761421071296" lon="9.845396734908308"><ele>197.0</ele><time>2026-04-11T14:04:17.002Z</time></trkpt><trkpt lat="45.63783608461885" lon="9.845427215245977"><ele>197.0</ele><time>2026-04-11T14:04:18.002Z</time></trkpt><trkpt lat="45.63785588269095" lon="9.845642641598362"><ele>197.0</ele><time>2026-04-11T14:04:19.002Z</time></trkpt><trkpt lat="45.63786297076798" lon="9.845809769199292"><ele>197.25</ele><time>2026-04-11T14:04:20.002Z</time></trkpt><trkpt lat="45.637853810559356" lon="9.84600808100685"><ele>197.5</ele><time>2026-04-11T14:04:21.002Z</time></trkpt><trkpt lat="45.63783786865715" lon="9.846206413535686"><ele>197.75</ele><time>2026-04-11T14:04:22.002Z</time></trkpt><trkpt lat="45.63783410296212" lon="9.846428633234426"><ele>198.0</ele><time>2026-04-11T14:04:23.002Z</time></trkpt><trkpt lat="45.637838882081454" lon="9.846674160115434"><ele>198.33333333333331</ele><time>2026-04-11T14:04:24.002Z</time></trkpt><trkpt lat="45.63784280128068" lon="9.846926284296687"><ele>198.66666666666666</ele><time>2026-04-11T14:04:25.002Z</time></trkpt><trkpt lat="45.63784397218554" lon="9.847188773633931"><ele>199.0</ele><time>2026-04-11T14:04:26.002Z</time></trkpt><trkpt lat="45.63783302350174" lon="9.84745842627814"><ele>199.66666666666666</ele><time>2026-04-11T14:04:27.002Z</time></trkpt><trkpt lat="45.63783417974849" lon="9.847730901158917"><ele>200.33333333333331</ele><time>2026-04-11T14:04:28.002Z</time></trkpt><trkpt lat="45.63783019343989" lon="9.847997396662596"><ele>201.0</ele><time>2026-04-11T14:04:29.002Z</time></trkpt><trkpt lat="45.63781833168224" lon="9.848281030389076"><ele>200.66666666666669</ele><time>2026-04-11T14:04:30.002Z</time></trkpt><trkpt lat="45.63781310540733" lon="9.848564737824868"><ele>200.33333333333334</ele><time>2026-04-11T14:04:31.003Z</time></trkpt><trkpt lat="45.63780356128171" lon="9.848863919502856"><ele>200.0</ele><time>2026-04-11T14:04:32.003Z</time></trkpt><trkpt lat="45.637768813024124" lon="9.849160166543562"><ele>198.33333333333334</ele><time>2026-04-11T14:04:33.003Z</time></trkpt><trkpt lat="45.637724486941295" lon="9.849443582578568"><ele>196.66666666666669</ele><time>2026-04-11T14:04:34.003Z</time></trkpt><trkpt lat="45.63767355153857" lon="9.849714584782674"><ele>195.0</ele><time>2026-04-11T14:04:35.003Z</time></trkpt><trkpt lat="45.63763423495286" lon="9.849974576383614"><ele>195.66666666666669</ele><time>2026-04-11T14:04:36.003Z</time></trkpt><trkpt lat="45.637597036148584" lon="9.850223001933701"><ele>196.33333333333334</ele><time>2026-04-11T14:04:37.003Z</time></trkpt><trkpt lat="45.63755908953852" lon="9.850459973206494"><ele>197.0</ele><time>2026-04-11T14:04:37.999Z</time></trkpt><trkpt lat="45.637523951071586" lon="9.850689684708122"><ele>197.0</ele><time>2026-04-11T14:04:38.999Z</time></trkpt><trkpt lat="45.63749136779541" lon="9.850908311663952"><ele>197.0</ele><time>2026-04-11T14:04:39.999Z</time></trkpt><trkpt lat="45.63746386318309" lon="9.851119072806819"><ele>197.0</ele><time>2026-04-11T14:04:40.999Z</time></trkpt><trkpt lat="45.63743946041524" lon="9.851328528133537"><ele>196.75</ele><time>2026-04-11T14:04:41.999Z</time></trkpt><trkpt lat="45.63740630751486" lon="9.851526694591419"><ele>196.5</ele><time>2026-04-11T14:04:42.999Z</time></trkpt><trkpt lat="45.637367867814135" lon="9.851716311008804"><ele>196.25</ele><time>2026-04-11T14:04:43.999Z</time></trkpt><trkpt lat="45.63733374714292" lon="9.85190339776252"><ele>196.0</ele><time>2026-04-11T14:04:44.999Z</time></trkpt><trkpt lat="45.637320751749265" lon="9.852088141005899"><ele>195.75</ele><time>2026-04-11T14:04:46Z</time></trkpt><trkpt lat="45.63729041755716" lon="9.852265635718517"><ele>195.5</ele><time>2026-04-11T14:04:47Z</time></trkpt><trkpt lat="45.63723053980963" lon="9.85242901939454"><ele>195.25</ele><time>2026-04-11T14:04:48Z</time></trkpt><trkpt lat="45.637156175216006" lon="9.852567319395899"><ele>195.0</ele><time>2026-04-11T14:04:49Z</time></trkpt><trkpt lat="45.6370989512159" lon="9.85270054071956"><ele>195.0</ele><time>2026-04-11T14:04:50Z</time></trkpt><trkpt lat="45.637088528542655" lon="9.852841495087482"><ele>195.0</ele><time>2026-04-11T14:04:51Z</time></trkpt><trkpt lat="45.637113199194836" lon="9.852979846402278"><ele>195.0</ele><time>2026-04-11T14:04:52Z</time></trkpt><trkpt lat="45.637153188801726" lon="9.853113062247603"><ele>195.0</ele><time>2026-04-11T14:04:53Z</time></trkpt><trkpt lat="45.637187028480255" lon="9.85325639882455"><ele>195.0</ele><time>2026-04-11T14:04:54Z</time></trkpt><trkpt lat="45.637208663335876" lon="9.85340482796258"><ele>194.75</ele><time>2026-04-11T14:04:55Z</time></trkpt><trkpt lat="45.637238017424906" lon="9.853542840531038"><ele>194.5</ele><time>2026-04-11T14:04:56Z</time></trkpt><trkpt lat="45.63720415113132" lon="9.853720057488658"><ele>194.25</ele><time>2026-04-11T14:04:57Z</time></trkpt><trkpt lat="45.63717461950435" lon="9.853901220043028"><ele>194.0</ele><time>2026-04-11T14:04:58Z</time></trkpt><trkpt lat="45.63713530352857" lon="9.854100339002674"><ele>194.0</ele><time>2026-04-11T14:04:59Z</time></trkpt><trkpt lat="45.63709004592599" lon="9.854297975360709"><ele>194.0</ele><time>2026-04-11T14:05:00Z</time></trkpt><trkpt lat="45.63705174166024" lon="9.85448753954327"><ele>194.0</ele><time>2026-04-11T14:05:01Z</time></trkpt><trkpt lat="45.63701228886393" lon="9.854669648296857"><ele>194.0</ele><time>2026-04-11T14:05:02Z</time></trkpt><trkpt lat="45.63696678853273" lon="9.854848524619218"><ele>194.0</ele><time>2026-04-11T14:05:03Z</time></trkpt><trkpt lat="45.6369072547019" lon="9.855016510083075"><ele>194.0</ele><time>2026-04-11T14:05:04Z</time></trkpt><trkpt lat="45.63684749066257" lon="9.855176679693432"><ele>194.0</ele><time>2026-04-11T14:05:05Z</time></trkpt><trkpt lat="45.6368000712469" lon="9.855340446451264"><ele>194.0</ele><time>2026-04-11T14:05:06Z</time></trkpt><trkpt lat="45.63675193851672" lon="9.855505591559968"><ele>194.5</ele><time>2026-04-11T14:05:07Z</time></trkpt><trkpt lat="45.63669312426449" lon="9.855672183174095"><ele>195.0</ele><time>2026-04-11T14:05:08Z</time></trkpt><trkpt lat="45.636622958586294" lon="9.855829431070646"><ele>195.5</ele><time>2026-04-11T14:05:09Z</time></trkpt><trkpt lat="45.63655066519134" lon="9.855995929346191"><ele>196.0</ele><time>2026-04-11T14:05:10Z</time></trkpt><trkpt lat="45.636484324968805" lon="9.85617311647888"><ele>196.33333333333331</ele><time>2026-04-11T14:05:11Z</time></trkpt><trkpt lat="45.63639973625634" lon="9.856372331850473"><ele>196.66666666666669</ele><time>2026-04-11T14:05:12Z</time></trkpt><trkpt lat="45.63631738250833" lon="9.856593083141684"><ele>197.0</ele><time>2026-04-11T14:05:13Z</time></trkpt><trkpt lat="45.63621572461161" lon="9.85681382706228"><ele>197.0</ele><time>2026-04-11T14:05:14Z</time></trkpt><trkpt lat="45.63610681081106" lon="9.857020219658986"><ele>197.0</ele><time>2026-04-11T14:05:15Z</time></trkpt><trkpt lat="45.63600131518866" lon="9.857208967554426"><ele>197.0</ele><time>2026-04-11T14:05:16Z</time></trkpt><trkpt lat="45.63590230616251" lon="9.8573845248815"><ele>197.0</ele><time>2026-04-11T14:05:17Z</time></trkpt><trkpt lat="45.635794023686216" lon="9.857558644990887"><ele>197.0</ele><time>2026-04-11T14:05:18.001Z</time></trkpt><trkpt lat="45.6356754802637" lon="9.857729238619902"><ele>197.0</ele><time>2026-04-11T14:05:19.001Z</time></trkpt><trkpt lat="45.63555589407573" lon="9.857883977303933"><ele>197.0</ele><time>2026-04-11T14:05:20.001Z</time></trkpt><trkpt lat="45.6354354876919" lon="9.858040142074623"><ele>197.0</ele><time>2026-04-11T14:05:21.001Z</time></trkpt><trkpt lat="45.63530888616438" lon="9.858196150332915"><ele>197.0</ele><time>2026-04-11T14:05:22.001Z</time></trkpt><trkpt lat="45.635181565410626" lon="9.858335207275127"><ele>197.66666666666669</ele><time>2026-04-11T14:05:23.001Z</time></trkpt><trkpt lat="45.63505482384774" lon="9.858467972929809"><ele>198.33333333333331</ele><time>2026-04-11T14:05:24.001Z</time></trkpt><trkpt lat="45.63491743820696" lon="9.858591710868652"><ele>199.0</ele><time>2026-04-11T14:05:25.001Z</time></trkpt><trkpt lat="45.63477549630602" lon="9.858713078021271"><ele>199.0</ele><time>2026-04-11T14:05:26.001Z</time></trkpt><trkpt lat="45.63462773188485" lon="9.85883872523246"><ele>199.0</ele><time>2026-04-11T14:05:27.001Z</time></trkpt><trkpt lat="45.634491524559785" lon="9.858956444503088"><ele>199.0</ele><time>2026-04-11T14:05:28.001Z</time></trkpt><trkpt lat="45.634367645457715" lon="9.859067430199152"><ele>199.0</ele><time>2026-04-11T14:05:29.001Z</time></trkpt><trkpt lat="45.63424472395568" lon="9.859172103700153"><ele>199.0</ele><time>2026-04-11T14:05:30.001Z</time></trkpt><trkpt lat="45.6341437841039" lon="9.859266581190141"><ele>199.0</ele><time>2026-04-11T14:05:31.001Z</time></trkpt><trkpt lat="45.63404099790602" lon="9.859358815402688"><ele>199.0</ele><time>2026-04-11T14:05:32.001Z</time></trkpt><trkpt lat="45.63391444595342" lon="9.859461218672545"><ele>198.79999999999998</ele><time>2026-04-11T14:05:33.001Z</time></trkpt><trkpt lat="45.63381538933442" lon="9.859550985415325"><ele>198.6</ele><time>2026-04-11T14:05:34.001Z</time></trkpt><trkpt lat="45.633729328703254" lon="9.859634829058107"><ele>198.4</ele><time>2026-04-11T14:05:35.001Z</time></trkpt><trkpt lat="45.63364264214226" lon="9.85971880923153"><ele>198.2</ele><time>2026-04-11T14:05:36.001Z</time></trkpt><trkpt lat="45.63355127316364" lon="9.859799092855136"><ele>198.0</ele><time>2026-04-11T14:05:37.001Z</time></trkpt><trkpt lat="45.63346100708322" lon="9.859885959070546"><ele>197.60000000000002</ele><time>2026-04-11T14:05:38.001Z</time></trkpt><trkpt lat="45.63337672832453" lon="9.85998586321123"><ele>197.20000000000002</ele><time>2026-04-11T14:05:39.001Z</time></trkpt><trkpt lat="45.63329908364859" lon="9.860091748958752"><ele>196.8</ele><time>2026-04-11T14:05:40.001Z</time></trkpt><trkpt lat="45.63322894444291" lon="9.860206978292844"><ele>196.4</ele><time>2026-04-11T14:05:41.001Z</time></trkpt><trkpt lat="45.633156323588565" lon="9.860322300100758"><ele>196.0</ele><time>2026-04-11T14:05:42.001Z</time></trkpt><trkpt lat="45.63307528812181" lon="9.860457278039938"><ele>196.0</ele><time>2026-04-11T14:05:43.001Z</time></trkpt><trkpt lat="45.63299976572914" lon="9.86059354433725"><ele>196.0</ele><time>2026-04-11T14:05:44.001Z</time></trkpt><trkpt lat="45.632912807808296" lon="9.86071493478941"><ele>196.0</ele><time>2026-04-11T14:05:45.001Z</time></trkpt><trkpt lat="45.632854293242055" lon="9.860852989418829"><ele>196.0</ele><time>2026-04-11T14:05:46.001Z</time></trkpt><trkpt lat="45.63279000997652" lon="9.860971058242955"><ele>195.99999999999997</ele><time>2026-04-11T14:05:47.001Z</time></trkpt><trkpt lat="45.63274365003047" lon="9.861094726535974"><ele>196.0</ele><time>2026-04-11T14:05:48.001Z</time></trkpt><trkpt lat="45.632699350196695" lon="9.861205512783554"><ele>196.0</ele><time>2026-04-11T14:05:49.001Z</time></trkpt><trkpt lat="45.63266965489427" lon="9.861303928109468"><ele>196.0</ele><time>2026-04-11T14:05:50.001Z</time></trkpt><trkpt lat="45.63261842592194" lon="9.861452012655501"><ele>195.99999999999997</ele><time>2026-04-11T14:05:52.001Z</time></trkpt><trkpt lat="45.63257173864134" lon="9.861526408498133"><ele>196.0</ele><time>2026-04-11T14:05:54.002Z</time></trkpt><trkpt lat="45.632483140821925" lon="9.861616477353373"><ele>195.99999999999997</ele><time>2026-04-11T14:05:57.002Z</time></trkpt><trkpt lat="45.63241614261779" lon="9.861653225141689"><ele>196.0</ele><time>2026-04-11T14:05:58.002Z</time></trkpt><trkpt lat="45.63234488787282" lon="9.861717152133258"><ele>196.0</ele><time>2026-04-11T14:05:59.002Z</time></trkpt><trkpt lat="45.63229535438395" lon="9.861808530683392"><ele>196.0</ele><time>2026-04-11T14:06:00.002Z</time></trkpt><trkpt lat="45.63226468117459" lon="9.861922448255445"><ele>195.99999999999997</ele><time>2026-04-11T14:06:01.002Z</time></trkpt><trkpt lat="45.6322738403194" lon="9.862049682675282"><ele>196.0</ele><time>2026-04-11T14:06:02.002Z</time></trkpt><trkpt lat="45.632313721484145" lon="9.862163315649681"><ele>196.33333333333331</ele><time>2026-04-11T14:06:03.002Z</time></trkpt><trkpt lat="45.63238799373621" lon="9.862250133873399"><ele>196.66666666666666</ele><time>2026-04-11T14:06:04.002Z</time></trkpt><trkpt lat="45.632452211526136" lon="9.862324205428711"><ele>197.0</ele><time>2026-04-11T14:06:05.002Z</time></trkpt><trkpt lat="45.63254654027963" lon="9.862294052768036"><ele>197.33333333333331</ele><time>2026-04-11T14:06:06.002Z</time></trkpt><trkpt lat="45.63262303559593" lon="9.862282604752373"><ele>197.66666666666666</ele><time>2026-04-11T14:06:07.002Z</time></trkpt><trkpt lat="45.63271399789789" lon="9.862243449448247"><ele>198.0</ele><time>2026-04-11T14:06:08.002Z</time></trkpt><trkpt lat="45.63282889404239" lon="9.862209303270548"><ele>198.0</ele><time>2026-04-11T14:06:09.002Z</time></trkpt><trkpt lat="45.63295733367052" lon="9.862197709504905"><ele>198.0</ele><time>2026-04-11T14:06:10.002Z</time></trkpt><trkpt lat="45.633082278966874" lon="9.862220786484889"><ele>198.0</ele><time>2026-04-11T14:06:11.002Z</time></trkpt><trkpt lat="45.633194139005674" lon="9.862264336756105"><ele>198.0</ele><time>2026-04-11T14:06:12.002Z</time></trkpt><trkpt lat="45.63330620153424" lon="9.862312429432054"><ele>198.0</ele><time>2026-04-11T14:06:13.002Z</time></trkpt><trkpt lat="45.6334050236629" lon="9.86234017701237"><ele>198.0</ele><time>2026-04-11T14:06:14.002Z</time></trkpt><trkpt lat="45.63348302395413" lon="9.862359615111021"><ele>198.0</ele><time>2026-04-11T14:06:15.002Z</time></trkpt><trkpt lat="45.633544088351" lon="9.862393227744503"><ele>198.0</ele><time>2026-04-11T14:06:16.002Z</time></trkpt><trkpt lat="45.63359542424399" lon="9.862455984945376"><ele>198.0</ele><time>2026-04-11T14:06:17.002Z</time></trkpt><trkpt lat="45.633678445094255" lon="9.862600313768503"><ele>198.0</ele><time>2026-04-11T14:06:19.002Z</time></trkpt><trkpt lat="45.63370616259349" lon="9.862695943093112"><ele>198.83333333333334</ele><time>2026-04-11T14:06:20.002Z</time></trkpt><trkpt lat="45.63371245543762" lon="9.862817520659446"><ele>199.66666666666669</ele><time>2026-04-11T14:06:21.002Z</time></trkpt><trkpt lat="45.63372112278013" lon="9.86293550565083"><ele>200.5</ele><time>2026-04-11T14:06:22.002Z</time></trkpt><trkpt lat="45.63372502841199" lon="9.863062444306687"><ele>201.33333333333334</ele><time>2026-04-11T14:06:23.002Z</time></trkpt><trkpt lat="45.63371095787182" lon="9.86319183909339"><ele>202.16666666666669</ele><time>2026-04-11T14:06:24.002Z</time></trkpt><trkpt lat="45.63370637433094" lon="9.863311460043365"><ele>203.0</ele><time>2026-04-11T14:06:25.002Z</time></trkpt><trkpt lat="45.633702795779506" lon="9.863440028977422"><ele>203.25</ele><time>2026-04-11T14:06:26.002Z</time></trkpt><trkpt lat="45.63368478275636" lon="9.863583580345091"><ele>203.5</ele><time>2026-04-11T14:06:27.002Z</time></trkpt><trkpt lat="45.6336669425775" lon="9.863740796827274"><ele>203.75</ele><time>2026-04-11T14:06:28.003Z</time></trkpt><trkpt lat="45.633668459896285" lon="9.86392879251137"><ele>204.0</ele><time>2026-04-11T14:06:29.003Z</time></trkpt><trkpt lat="45.63369166558857" lon="9.864107942902876"><ele>204.0</ele><time>2026-04-11T14:06:30.003Z</time></trkpt><trkpt lat="45.633761479851806" lon="9.864273298811526"><ele>204.0</ele><time>2026-04-11T14:06:31.003Z</time></trkpt><trkpt lat="45.6338485959268" lon="9.864419988476522"><ele>204.0</ele><time>2026-04-11T14:06:32.003Z</time></trkpt><trkpt lat="45.63393458186394" lon="9.86457560507452"><ele>204.0</ele><time>2026-04-11T14:06:33.003Z</time></trkpt><trkpt lat="45.634007489716296" lon="9.86473054253084"><ele>204.0</ele><time>2026-04-11T14:06:34.003Z</time></trkpt><trkpt lat="45.634065020472526" lon="9.86487409470794"><ele>204.0</ele><time>2026-04-11T14:06:35.003Z</time></trkpt><trkpt lat="45.63413050526018" lon="9.865017678776592"><ele>204.0</ele><time>2026-04-11T14:06:36.003Z</time></trkpt><trkpt lat="45.634199763544316" lon="9.86517725366196"><ele>204.0</ele><time>2026-04-11T14:06:37.003Z</time></trkpt><trkpt lat="45.634279001386" lon="9.86535148175984"><ele>204.0</ele><time>2026-04-11T14:06:38.003Z</time></trkpt><trkpt lat="45.63435803014135" lon="9.865538789589479"><ele>204.0</ele><time>2026-04-11T14:06:39.003Z</time></trkpt><trkpt lat="45.63444590623511" lon="9.865751076002255"><ele>204.0</ele><time>2026-04-11T14:06:40.003Z</time></trkpt><trkpt lat="45.63453674461289" lon="9.865967909481492"><ele>204.66666666666669</ele><time>2026-04-11T14:06:41.003Z</time></trkpt><trkpt lat="45.63462570283883" lon="9.866167846229983"><ele>205.33333333333334</ele><time>2026-04-11T14:06:42.003Z</time></trkpt><trkpt lat="45.6347114304988" lon="9.866355953173732"><ele>206.0</ele><time>2026-04-11T14:06:43.003Z</time></trkpt><trkpt lat="45.63478990477482" lon="9.866533874618096"><ele>206.0</ele><time>2026-04-11T14:06:43.999Z</time></trkpt><trkpt lat="45.63486950219655" lon="9.866697294290578"><ele>206.0</ele><time>2026-04-11T14:06:44.999Z</time></trkpt><trkpt lat="45.634929638624314" lon="9.866845054613014"><ele>206.0</ele><time>2026-04-11T14:06:45.999Z</time></trkpt><trkpt lat="45.63499414081212" lon="9.866985137238107"><ele>206.0</ele><time>2026-04-11T14:06:46.999Z</time></trkpt><trkpt lat="45.635054854901774" lon="9.86711485110194"><ele>206.0</ele><time>2026-04-11T14:06:47.999Z</time></trkpt><trkpt lat="45.63510465302896" lon="9.867222135670188"><ele>206.0</ele><time>2026-04-11T14:06:48.999Z</time></trkpt><trkpt lat="45.63516496765345" lon="9.867354703546814"><ele>206.0</ele><time>2026-04-11T14:06:49.999Z</time></trkpt><trkpt lat="45.6352237454223" lon="9.867492796573973"><ele>206.0</ele><time>2026-04-11T14:06:50.999Z</time></trkpt><trkpt lat="45.63528282989669" lon="9.86762194434602"><ele>206.0</ele><time>2026-04-11T14:06:51.999Z</time></trkpt><trkpt lat="45.63535365702417" lon="9.867765634861891"><ele>206.25</ele><time>2026-04-11T14:06:52.999Z</time></trkpt><trkpt lat="45.63542295439128" lon="9.867918194576706"><ele>206.5</ele><time>2026-04-11T14:06:53.999Z</time></trkpt><trkpt lat="45.635492691162334" lon="9.868073378053737"><ele>206.75</ele><time>2026-04-11T14:06:54.999Z</time></trkpt><trkpt lat="45.63556078899437" lon="9.868225804576744"><ele>207.0</ele><time>2026-04-11T14:06:55.999Z</time></trkpt><trkpt lat="45.63562514343952" lon="9.868363773461091"><ele>207.2</ele><time>2026-04-11T14:06:56.999Z</time></trkpt><trkpt lat="45.635686479471126" lon="9.86848598567466"><ele>207.39999999999998</ele><time>2026-04-11T14:06:57.999Z</time></trkpt><trkpt lat="45.635734056657434" lon="9.868605174291847"><ele>207.60000000000002</ele><time>2026-04-11T14:06:59Z</time></trkpt><trkpt lat="45.63577335055424" lon="9.86870801625335"><ele>207.8</ele><time>2026-04-11T14:07:00Z</time></trkpt><trkpt lat="45.63581304399616" lon="9.868790101603173"><ele>208.0</ele><time>2026-04-11T14:07:01Z</time></trkpt><trkpt lat="45.635905444385244" lon="9.86888887906524"><ele>208.0</ele><time>2026-04-11T14:07:03Z</time></trkpt><trkpt lat="45.63599289100784" lon="9.868990279456158"><ele>208.0</ele><time>2026-04-11T14:07:05Z</time></trkpt><trkpt lat="45.63603824180742" lon="9.869089389365197"><ele>208.0</ele><time>2026-04-11T14:07:07Z</time></trkpt><trkpt lat="45.636146162783184" lon="9.86918844550047"><ele>208.0</ele><time>2026-04-11T14:07:09Z</time></trkpt><trkpt lat="45.63622704285219" lon="9.869200163919125"><ele>208.0</ele><time>2026-04-11T14:07:10Z</time></trkpt><trkpt lat="45.63630341337186" lon="9.869234470476753"><ele>210.0</ele><time>2026-04-11T14:07:11Z</time></trkpt><trkpt lat="45.6363824773312" lon="9.869285767416011"><ele>212.0</ele><time>2026-04-11T14:07:12Z</time></trkpt><trkpt lat="45.63646690419798" lon="9.869353355310603"><ele>214.0</ele><time>2026-04-11T14:07:13Z</time></trkpt><trkpt lat="45.63655410892373" lon="9.869419640309022"><ele>216.0</ele><time>2026-04-11T14:07:14Z</time></trkpt><trkpt lat="45.63663020097088" lon="9.869485675898764"><ele>218.0</ele><time>2026-04-11T14:07:15Z</time></trkpt><trkpt lat="45.63673709087479" lon="9.869559132198008"><ele>218.0</ele><time>2026-04-11T14:07:16Z</time></trkpt><trkpt lat="45.63683403014322" lon="9.869615411429693"><ele>218.0</ele><time>2026-04-11T14:07:17Z</time></trkpt><trkpt lat="45.63695401348254" lon="9.869652063761343"><ele>218.0</ele><time>2026-04-11T14:07:18Z</time></trkpt><trkpt lat="45.63708325501206" lon="9.869687613690928"><ele>218.0</ele><time>2026-04-11T14:07:19Z</time></trkpt><trkpt lat="45.637211623549234" lon="9.869680014778325"><ele>219.60000000000002</ele><time>2026-04-11T14:07:20Z</time></trkpt><trkpt lat="45.63732960771484" lon="9.869700935435503"><ele>221.20000000000002</ele><time>2026-04-11T14:07:21Z</time></trkpt><trkpt lat="45.63742575138539" lon="9.86972110267235"><ele>222.8</ele><time>2026-04-11T14:07:22Z</time></trkpt><trkpt lat="45.637504123526114" lon="9.869736255518282"><ele>224.4</ele><time>2026-04-11T14:07:23Z</time></trkpt><trkpt lat="45.637584486317" lon="9.869727307340355"><ele>226.0</ele><time>2026-04-11T14:07:26.001Z</time></trkpt><trkpt lat="45.63768513182558" lon="9.86972771218388"><ele>226.0</ele><time>2026-04-11T14:07:28.001Z</time></trkpt><trkpt lat="45.63775406223274" lon="9.86972444375639"><ele>226.00000000000003</ele><time>2026-04-11T14:07:29.001Z</time></trkpt><trkpt lat="45.63785336455677" lon="9.869718864977143"><ele>226.00000000000003</ele><time>2026-04-11T14:07:30.001Z</time></trkpt><trkpt lat="45.63794658653156" lon="9.869694651430205"><ele>226.0</ele><time>2026-04-11T14:07:31.001Z</time></trkpt><trkpt lat="45.638045625267914" lon="9.869665510028781"><ele>226.0</ele><time>2026-04-11T14:07:32.001Z</time></trkpt><trkpt lat="45.63813297253318" lon="9.86963682121942"><ele>225.8</ele><time>2026-04-11T14:07:33.001Z</time></trkpt><trkpt lat="45.63821864586071" lon="9.86960808693623"><ele>225.60000000000002</ele><time>2026-04-11T14:07:34.001Z</time></trkpt><trkpt lat="45.63828772389275" lon="9.869587395670653"><ele>225.4</ele><time>2026-04-11T14:07:35.001Z</time></trkpt><trkpt lat="45.63840154622496" lon="9.86955387147983"><ele>225.2</ele><time>2026-04-11T14:07:37.001Z</time></trkpt><trkpt lat="45.63851384365343" lon="9.86953307120725"><ele>225.0</ele><time>2026-04-11T14:07:39.001Z</time></trkpt><trkpt lat="45.63859196110622" lon="9.869515480000413"><ele>224.6</ele><time>2026-04-11T14:07:40.001Z</time></trkpt><trkpt lat="45.63866875781249" lon="9.869503344266105"><ele>224.2</ele><time>2026-04-11T14:07:41.001Z</time></trkpt><trkpt lat="45.63875864838614" lon="9.869500275444727"><ele>223.8</ele><time>2026-04-11T14:07:42.001Z</time></trkpt><trkpt lat="45.63884954227647" lon="9.869499018088167"><ele>223.4</ele><time>2026-04-11T14:07:43.001Z</time></trkpt><trkpt lat="45.63894000674382" lon="9.869495682386566"><ele>223.0</ele><time>2026-04-11T14:07:44.001Z</time></trkpt><trkpt lat="45.63904717476072" lon="9.86949978407747"><ele>223.0</ele><time>2026-04-11T14:07:45.001Z</time></trkpt><trkpt lat="45.63916128932876" lon="9.869525903503225"><ele>223.0</ele><time>2026-04-11T14:07:46.001Z</time></trkpt><trkpt lat="45.63928697765873" lon="9.869556878751366"><ele>223.0</ele><time>2026-04-11T14:07:47.001Z</time></trkpt><trkpt lat="45.63940665526875" lon="9.869583269574896"><ele>223.0</ele><time>2026-04-11T14:07:48.001Z</time></trkpt><trkpt lat="45.639523041697466" lon="9.869602373149517"><ele>224.0</ele><time>2026-04-11T14:07:49.001Z</time></trkpt><trkpt lat="45.63965445455684" lon="9.869615472750835"><ele>225.0</ele><time>2026-04-11T14:07:50.001Z</time></trkpt><trkpt lat="45.6397872254883" lon="9.869620823455472"><ele>226.0</ele><time>2026-04-11T14:07:51.001Z</time></trkpt><trkpt lat="45.63993504362758" lon="9.869594213317626"><ele>227.0</ele><time>2026-04-11T14:07:52.001Z</time></trkpt><trkpt lat="45.64007622771878" lon="9.869582957576991"><ele>227.0</ele><time>2026-04-11T14:07:53.001Z</time></trkpt><trkpt lat="45.640216681130454" lon="9.86955293321994"><ele>227.0</ele><time>2026-04-11T14:07:54.001Z</time></trkpt><trkpt lat="45.640363631283094" lon="9.869492506624"><ele>227.0</ele><time>2026-04-11T14:07:55.001Z</time></trkpt><trkpt lat="45.64050806601481" lon="9.869421235738322"><ele>227.0</ele><time>2026-04-11T14:07:56.002Z</time></trkpt><trkpt lat="45.64064065807475" lon="9.869359761903468"><ele>227.0</ele><time>2026-04-11T14:07:57.002Z</time></trkpt><trkpt lat="45.640762334486816" lon="9.86929106738635"><ele>227.0</ele><time>2026-04-11T14:07:58.002Z</time></trkpt><trkpt lat="45.64086179047882" lon="9.869224995537357"><ele>227.0</ele><time>2026-04-11T14:07:59.002Z</time></trkpt><trkpt lat="45.640937825201014" lon="9.869162669248146"><ele>227.0</ele><time>2026-04-11T14:08:00.002Z</time></trkpt><trkpt lat="45.641002526583186" lon="9.869131060536974"><ele>227.0</ele><time>2026-04-11T14:08:01.002Z</time></trkpt><trkpt lat="45.64107421449237" lon="9.869108266815315"><ele>228.50000000000003</ele><time>2026-04-11T14:08:04.002Z</time></trkpt><trkpt lat="45.641159439956446" lon="9.86916546939276"><ele>230.0</ele><time>2026-04-11T14:08:06.002Z</time></trkpt><trkpt lat="45.64124215919259" lon="9.869183141608412"><ele>231.5</ele><time>2026-04-11T14:08:08.002Z</time></trkpt><trkpt lat="45.64127236089518" lon="9.869033286331746"><ele>233.0</ele><time>2026-04-11T14:08:09.002Z</time></trkpt><trkpt lat="45.64129420426051" lon="9.868931350179931"><ele>234.50000000000003</ele><time>2026-04-11T14:08:10.002Z</time></trkpt><trkpt lat="45.641351179488176" lon="9.868866652529706"><ele>236.0</ele><time>2026-04-11T14:08:11.002Z</time></trkpt><trkpt lat="45.641440874593926" lon="9.868845468904707"><ele>236.0</ele><time>2026-04-11T14:08:12.002Z</time></trkpt><trkpt lat="45.641532011530145" lon="9.868805971005205"><ele>236.0</ele><time>2026-04-11T14:08:13.002Z</time></trkpt><trkpt lat="45.64164070533113" lon="9.868774401412887"><ele>236.0</ele><time>2026-04-11T14:08:14.002Z</time></trkpt><trkpt lat="45.641773090833084" lon="9.868749211338296"><ele>236.0</ele><time>2026-04-11T14:08:15.002Z</time></trkpt><trkpt lat="45.641900734825676" lon="9.86872607390116"><ele>237.0</ele><time>2026-04-11T14:08:16.002Z</time></trkpt><trkpt lat="45.642017009522085" lon="9.868718289432815"><ele>238.00000000000003</ele><time>2026-04-11T14:08:17.002Z</time></trkpt><trkpt lat="45.6421203492817" lon="9.868700906460202"><ele>239.00000000000003</ele><time>2026-04-11T14:08:18.002Z</time></trkpt><trkpt lat="45.64221304489187" lon="9.868683392969077"><ele>240.0</ele><time>2026-04-11T14:08:19.002Z</time></trkpt><trkpt lat="45.64229773577341" lon="9.868650038557403"><ele>241.0</ele><time>2026-04-11T14:08:20.002Z</time></trkpt><trkpt lat="45.64238390185478" lon="9.86860965367677"><ele>241.0</ele><time>2026-04-11T14:08:21.002Z</time></trkpt><trkpt lat="45.64248008847661" lon="9.868556032425424"><ele>241.0</ele><time>2026-04-11T14:08:22.002Z</time></trkpt><trkpt lat="45.64258548707744" lon="9.868468784487789"><ele>241.0</ele><time>2026-04-11T14:08:23.002Z</time></trkpt><trkpt lat="45.64269651372251" lon="9.868365396598774"><ele>241.0</ele><time>2026-04-11T14:08:24.002Z</time></trkpt><trkpt lat="45.64280762132567" lon="9.868266562258967"><ele>245.75</ele><time>2026-04-11T14:08:25.002Z</time></trkpt><trkpt lat="45.64291387300852" lon="9.868173750959704"><ele>250.5</ele><time>2026-04-11T14:08:26.002Z</time></trkpt><trkpt lat="45.64301167435845" lon="9.868078442414387"><ele>255.25</ele><time>2026-04-11T14:08:27.002Z</time></trkpt><trkpt lat="45.64309784184745" lon="9.867968257132802"><ele>260.0</ele><time>2026-04-11T14:08:28.002Z</time></trkpt><trkpt lat="45.64316189132929" lon="9.867835381741832"><ele>260.0</ele><time>2026-04-11T14:08:29.003Z</time></trkpt><trkpt lat="45.64322335011695" lon="9.867696630083323"><ele>260.0</ele><time>2026-04-11T14:08:30.003Z</time></trkpt><trkpt lat="45.64327775174539" lon="9.867566080405252"><ele>260.0</ele><time>2026-04-11T14:08:31.003Z</time></trkpt><trkpt lat="45.6433403549288" lon="9.867457852700893"><ele>260.0</ele><time>2026-04-11T14:08:32.003Z</time></trkpt><trkpt lat="45.64342754028231" lon="9.867387735106119"><ele>260.0</ele><time>2026-04-11T14:08:33.003Z</time></trkpt><trkpt lat="45.64353362700239" lon="9.867334637164365"><ele>264.0</ele><time>2026-04-11T14:08:34.003Z</time></trkpt><trkpt lat="45.64364318476717" lon="9.867289681816587"><ele>268.0</ele><time>2026-04-11T14:08:35.003Z</time></trkpt><trkpt lat="45.64375902493668" lon="9.867308100536942"><ele>272.0</ele><time>2026-04-11T14:08:36.003Z</time></trkpt><trkpt lat="45.643858130512804" lon="9.867302589602108"><ele>276.0</ele><time>2026-04-11T14:08:37.003Z</time></trkpt><trkpt lat="45.643944363381934" lon="9.867302228493017"><ele>280.0</ele><time>2026-04-11T14:08:38.003Z</time></trkpt><trkpt lat="45.64402002471555" lon="9.867300344645017"><ele>280.0</ele><time>2026-04-11T14:08:39.003Z</time></trkpt><trkpt lat="45.64410196710662" lon="9.867326886823498"><ele>280.0</ele><time>2026-04-11T14:08:40.003Z</time></trkpt><trkpt lat="45.64418725836814" lon="9.86739989411459"><ele>280.0</ele><time>2026-04-11T14:08:41.003Z</time></trkpt><trkpt lat="45.64428051265384" lon="9.867494296624294"><ele>280.0</ele><time>2026-04-11T14:08:42.003Z</time></trkpt><trkpt lat="45.644402175181305" lon="9.867551504302602"><ele>280.0</ele><time>2026-04-11T14:08:43.003Z</time></trkpt><trkpt lat="45.644478617835574" lon="9.86760596071649"><ele>280.0</ele><time>2026-04-11T14:08:44.003Z</time></trkpt><trkpt lat="45.64454030827359" lon="9.867642713489685"><ele>280.0</ele><time>2026-04-11T14:08:45.003Z</time></trkpt><trkpt lat="45.64464995622193" lon="9.867695517105222"><ele>280.0</ele><time>2026-04-11T14:08:47.003Z</time></trkpt><trkpt lat="45.64472065946591" lon="9.867722337873944"><ele>280.0</ele><time>2026-04-11T14:08:48.003Z</time></trkpt><trkpt lat="45.644799816577006" lon="9.86777198627822"><ele>280.0</ele><time>2026-04-11T14:08:49.003Z</time></trkpt><trkpt lat="45.644888573030066" lon="9.86782264020902"><ele>280.0</ele><time>2026-04-11T14:08:49.999Z</time></trkpt><trkpt lat="45.64499287270519" lon="9.867867965159615"><ele>280.0</ele><time>2026-04-11T14:08:50.999Z</time></trkpt><trkpt lat="45.64510282983912" lon="9.867914967215654"><ele>280.0</ele><time>2026-04-11T14:08:51.999Z</time></trkpt><trkpt lat="45.645211571682054" lon="9.867969812313827"><ele>280.0</ele><time>2026-04-11T14:08:52.999Z</time></trkpt><trkpt lat="45.64531284107726" lon="9.868026176314526"><ele>280.0</ele><time>2026-04-11T14:08:53.999Z</time></trkpt><trkpt lat="45.64541645002516" lon="9.868084031792824"><ele>282.5</ele><time>2026-04-11T14:08:54.999Z</time></trkpt><trkpt lat="45.6455122514529" lon="9.868150015691516"><ele>285.0</ele><time>2026-04-11T14:08:55.999Z</time></trkpt><trkpt lat="45.645598678507504" lon="9.8682452549652"><ele>287.5</ele><time>2026-04-11T14:08:56.999Z</time></trkpt><trkpt lat="45.645673283981615" lon="9.868371758562207"><ele>290.0</ele><time>2026-04-11T14:08:57.999Z</time></trkpt><trkpt lat="45.64574128546273" lon="9.868518419727422"><ele>290.0</ele><time>2026-04-11T14:08:58.999Z</time></trkpt><trkpt lat="45.64582289251214" lon="9.868648908782546"><ele>290.0</ele><time>2026-04-11T14:08:59.999Z</time></trkpt><trkpt lat="45.645891983834225" lon="9.868771562772414"><ele>290.0</ele><time>2026-04-11T14:09:00.999Z</time></trkpt><trkpt lat="45.64596316970617" lon="9.868881038501371"><ele>290.0</ele><time>2026-04-11T14:09:01.999Z</time></trkpt><trkpt lat="45.64604043120306" lon="9.868931949726603"><ele>290.0</ele><time>2026-04-11T14:09:02.999Z</time></trkpt><trkpt lat="45.64615434042876" lon="9.868930895727411"><ele>292.1666666666667</ele><time>2026-04-11T14:09:03.999Z</time></trkpt><trkpt lat="45.646258694052776" lon="9.86894094915049"><ele>294.33333333333337</ele><time>2026-04-11T14:09:05Z</time></trkpt><trkpt lat="45.64635623952383" lon="9.868953653380839"><ele>296.5</ele><time>2026-04-11T14:09:06Z</time></trkpt><trkpt lat="45.64644434996171" lon="9.868966610106419"><ele>298.6666666666667</ele><time>2026-04-11T14:09:07Z</time></trkpt><trkpt lat="45.64652283915275" lon="9.868971994689609"><ele>300.8333333333333</ele><time>2026-04-11T14:09:08Z</time></trkpt><trkpt lat="45.64659106448641" lon="9.86895154438049"><ele>303.0</ele><time>2026-04-11T14:09:09Z</time></trkpt><trkpt lat="45.646636090566474" lon="9.868786459527907"><ele>303.0</ele><time>2026-04-11T14:09:11Z</time></trkpt><trkpt lat="45.646597059388455" lon="9.868678772102621"><ele>303.0</ele><time>2026-04-11T14:09:12Z</time></trkpt><trkpt lat="45.64653027037875" lon="9.868606589246893"><ele>303.0</ele><time>2026-04-11T14:09:13Z</time></trkpt><trkpt lat="45.64647158634198" lon="9.868547353831948"><ele>303.0</ele><time>2026-04-11T14:09:14Z</time></trkpt><trkpt lat="45.64637992804892" lon="9.868493333859035"><ele>303.0</ele><time>2026-04-11T14:09:15Z</time></trkpt><trkpt lat="45.64634146457219" lon="9.86833330122993"><ele>305.2</ele><time>2026-04-11T14:09:17Z</time></trkpt><trkpt lat="45.646406221284906" lon="9.868263548801767"><ele>307.4</ele><time>2026-04-11T14:09:18Z</time></trkpt><trkpt lat="45.64648221230036" lon="9.86823862018922"><ele>309.59999999999997</ele><time>2026-04-11T14:09:19Z</time></trkpt><trkpt lat="45.646553783147674" lon="9.868172817221824"><ele>311.8</ele><time>2026-04-11T14:09:20Z</time></trkpt><trkpt lat="45.64665351579972" lon="9.86807731716137"><ele>314.0</ele><time>2026-04-11T14:09:21Z</time></trkpt><trkpt lat="45.646738326874804" lon="9.86799521745655"><ele>314.0</ele><time>2026-04-11T14:09:22Z</time></trkpt><trkpt lat="45.646820017149466" lon="9.867927546280091"><ele>314.0</ele><time>2026-04-11T14:09:23Z</time></trkpt><trkpt lat="45.64689901660513" lon="9.8679345740401"><ele>314.0</ele><time>2026-04-11T14:09:24Z</time></trkpt><trkpt lat="45.64695760197193" lon="9.868015619990533"><ele>314.0</ele><time>2026-04-11T14:09:25Z</time></trkpt><trkpt lat="45.64707577116798" lon="9.868156602773054"><ele>314.0</ele><time>2026-04-11T14:09:27Z</time></trkpt><trkpt lat="45.64715289538223" lon="9.868242730635705"><ele>314.4</ele><time>2026-04-11T14:09:28Z</time></trkpt><trkpt lat="45.64726495796319" lon="9.868353471081493"><ele>314.79999999999995</ele><time>2026-04-11T14:09:29.001Z</time></trkpt><trkpt lat="45.64734665714208" lon="9.868431236727629"><ele>315.20000000000005</ele><time>2026-04-11T14:09:30.001Z</time></trkpt><trkpt lat="45.64738780729319" lon="9.868535560039758"><ele>315.6</ele><time>2026-04-11T14:09:31.001Z</time></trkpt><trkpt lat="45.647446889137754" lon="9.868643137712429"><ele>316.0</ele><time>2026-04-11T14:09:33.001Z</time></trkpt><trkpt lat="45.64752392631537" lon="9.868780308028263"><ele>316.0</ele><time>2026-04-11T14:09:35.001Z</time></trkpt><trkpt lat="45.64757560658586" lon="9.868861391128151"><ele>316.0</ele><time>2026-04-11T14:09:36.001Z</time></trkpt><trkpt lat="45.64763133561974" lon="9.868962774437225"><ele>316.0</ele><time>2026-04-11T14:09:37.001Z</time></trkpt><trkpt lat="45.64770822460589" lon="9.86907844729966"><ele>316.0</ele><time>2026-04-11T14:09:38.001Z</time></trkpt><trkpt lat="45.647777232656985" lon="9.869180154477393"><ele>316.0</ele><time>2026-04-11T14:09:39.001Z</time></trkpt><trkpt lat="45.64784561096871" lon="9.869302048853374"><ele>317.20000000000005</ele><time>2026-04-11T14:09:40.001Z</time></trkpt><trkpt lat="45.64793176946014" lon="9.869460995117834"><ele>318.40000000000003</ele><time>2026-04-11T14:09:41.001Z</time></trkpt><trkpt lat="45.64801544968575" lon="9.86957563107772"><ele>319.6</ele><time>2026-04-11T14:09:42.001Z</time></trkpt><trkpt lat="45.64809573643895" lon="9.869692792698935"><ele>320.8</ele><time>2026-04-11T14:09:43.001Z</time></trkpt><trkpt lat="45.64813863028598" lon="9.869779650759844"><ele>322.0</ele><time>2026-04-11T14:09:44.001Z</time></trkpt><trkpt lat="45.64819839809563" lon="9.869910052269777"><ele>322.0</ele><time>2026-04-11T14:09:46.001Z</time></trkpt><trkpt lat="45.64824974180486" lon="9.870067151610506"><ele>322.0</ele><time>2026-04-11T14:09:48.001Z</time></trkpt><trkpt lat="45.64830924769592" lon="9.870213121439061"><ele>322.0</ele><time>2026-04-11T14:09:50.001Z</time></trkpt><trkpt lat="45.64834723617942" lon="9.870305375108794"><ele>322.0</ele><time>2026-04-11T14:09:51.001Z</time></trkpt><trkpt lat="45.64839401819033" lon="9.870405121518012"><ele>322.0</ele><time>2026-04-11T14:09:52.001Z</time></trkpt><trkpt lat="45.64845970649044" lon="9.870492743824277"><ele>320.6</ele><time>2026-04-11T14:09:53.001Z</time></trkpt><trkpt lat="45.64854501925563" lon="9.870565240875106"><ele>319.20000000000005</ele><time>2026-04-11T14:09:54.001Z</time></trkpt><trkpt lat="45.64862564854667" lon="9.870628242458318"><ele>317.8</ele><time>2026-04-11T14:09:55.001Z</time></trkpt><trkpt lat="45.648676886022805" lon="9.870732063878192"><ele>316.4</ele><time>2026-04-11T14:09:56.001Z</time></trkpt><trkpt lat="45.64875315331288" lon="9.870823472121046"><ele>315.0</ele><time>2026-04-11T14:09:57.001Z</time></trkpt><trkpt lat="45.64887060544544" lon="9.870886673867936"><ele>314.4</ele><time>2026-04-11T14:09:58.001Z</time></trkpt><trkpt lat="45.64894713120593" lon="9.870978493381465"><ele>313.8</ele><time>2026-04-11T14:09:59.001Z</time></trkpt><trkpt lat="45.64903133986091" lon="9.871031797996476"><ele>313.2</ele><time>2026-04-11T14:10:00.001Z</time></trkpt><trkpt lat="45.649142570184324" lon="9.871140994890537"><ele>312.6</ele><time>2026-04-11T14:10:02.002Z</time></trkpt><trkpt lat="45.649197636533444" lon="9.871185035598044"><ele>312.0</ele><time>2026-04-11T14:10:03.002Z</time></trkpt><trkpt lat="45.64932550680561" lon="9.87127223325827"><ele>312.0</ele><time>2026-04-11T14:10:05.002Z</time></trkpt><trkpt lat="45.64940417192826" lon="9.871326996749795"><ele>312.0</ele><time>2026-04-11T14:10:06.002Z</time></trkpt><trkpt lat="45.64948756049594" lon="9.871385076245236"><ele>312.0</ele><time>2026-04-11T14:10:07.002Z</time></trkpt><trkpt lat="45.649567052535495" lon="9.871435488302323"><ele>312.0</ele><time>2026-04-11T14:10:08.002Z</time></trkpt><trkpt lat="45.64964251061029" lon="9.871499960107124"><ele>312.0</ele><time>2026-04-11T14:10:09.002Z</time></trkpt><trkpt lat="45.64971323526048" lon="9.871578119348039"><ele>312.0</ele><time>2026-04-11T14:10:10.002Z</time></trkpt><trkpt lat="45.649769508138405" lon="9.871678892200535"><ele>312.0</ele><time>2026-04-11T14:10:11.002Z</time></trkpt><trkpt lat="45.6498144544119" lon="9.87179212699906"><ele>312.0</ele><time>2026-04-11T14:10:12.002Z</time></trkpt><trkpt lat="45.649876062934396" lon="9.87189856495855"><ele>312.0</ele><time>2026-04-11T14:10:13.002Z</time></trkpt><trkpt lat="45.64995002778041" lon="9.872005213554884"><ele>312.0</ele><time>2026-04-11T14:10:14.002Z</time></trkpt><trkpt lat="45.65003214486502" lon="9.872116550395196"><ele>312.0</ele><time>2026-04-11T14:10:15.002Z</time></trkpt><trkpt lat="45.6501025317008" lon="9.872215470155707"><ele>312.0</ele><time>2026-04-11T14:10:16.002Z</time></trkpt><trkpt lat="45.650161575298426" lon="9.872294971329474"><ele>312.0</ele><time>2026-04-11T14:10:17.002Z</time></trkpt><trkpt lat="45.650208859615056" lon="9.872363686806803"><ele>312.0</ele><time>2026-04-11T14:10:18.002Z</time></trkpt><trkpt lat="45.65029658406307" lon="9.872464223045863"><ele>312.0</ele><time>2026-04-11T14:10:20.002Z</time></trkpt><trkpt lat="45.65036812418084" lon="9.872549624949048"><ele>312.0</ele><time>2026-04-11T14:10:22.002Z</time></trkpt><trkpt lat="45.65042457798153" lon="9.872642274687792"><ele>312.0</ele><time>2026-04-11T14:10:24.002Z</time></trkpt><trkpt lat="45.650474796309" lon="9.872723356273353"><ele>314.0</ele><time>2026-04-11T14:10:25.002Z</time></trkpt><trkpt lat="45.65053843515274" lon="9.872821325430582"><ele>316.0</ele><time>2026-04-11T14:10:26.002Z</time></trkpt><trkpt lat="45.650611028307246" lon="9.872926169869128"><ele>318.0</ele><time>2026-04-11T14:10:27.002Z</time></trkpt><trkpt lat="45.65068508786703" lon="9.873030979434072"><ele>320.0</ele><time>2026-04-11T14:10:28.002Z</time></trkpt><trkpt lat="45.65075443976536" lon="9.87314412190461"><ele>322.0</ele><time>2026-04-11T14:10:29.002Z</time></trkpt><trkpt lat="45.65083846456916" lon="9.87328068783885"><ele>322.0</ele><time>2026-04-11T14:10:30.002Z</time></trkpt><trkpt lat="45.650921822885344" lon="9.873430901091782"><ele>322.0</ele><time>2026-04-11T14:10:31.002Z</time></trkpt><trkpt lat="45.650995800004395" lon="9.873591905893763"><ele>322.0</ele><time>2026-04-11T14:10:32.002Z</time></trkpt><trkpt lat="45.65105982112905" lon="9.873757469830418"><ele>322.0</ele><time>2026-04-11T14:10:33.002Z</time></trkpt><trkpt lat="45.651097486449586" lon="9.873964539562003"><ele>322.5</ele><time>2026-04-11T14:10:34.003Z</time></trkpt><trkpt lat="45.65112367953845" lon="9.874173586152232"><ele>323.0</ele><time>2026-04-11T14:10:35.003Z</time></trkpt><trkpt lat="45.651123582223235" lon="9.874375855509236"><ele>323.5</ele><time>2026-04-11T14:10:36.003Z</time></trkpt><trkpt lat="45.65113556906247" lon="9.874576613241818"><ele>324.0</ele><time>2026-04-11T14:10:37.003Z</time></trkpt><trkpt lat="45.65114792666616" lon="9.87477360689452"><ele>330.5</ele><time>2026-04-11T14:10:38.003Z</time></trkpt><trkpt lat="45.65119385571974" lon="9.87496625921275"><ele>337.0</ele><time>2026-04-11T14:10:39.003Z</time></trkpt><trkpt lat="45.65126686372833" lon="9.875155805904138"><ele>343.5</ele><time>2026-04-11T14:10:40.003Z</time></trkpt><trkpt lat="45.65135690145469" lon="9.875313299473607"><ele>350.0</ele><time>2026-04-11T14:10:41.003Z</time></trkpt><trkpt lat="45.65146505830803" lon="9.875503558748077"><ele>350.6666666666667</ele><time>2026-04-11T14:10:42.003Z</time></trkpt><trkpt lat="45.651533525456166" lon="9.875714491206114"><ele>351.3333333333333</ele><time>2026-04-11T14:10:43.003Z</time></trkpt><trkpt lat="45.65152571519106" lon="9.87592406217792"><ele>352.0</ele><time>2026-04-11T14:10:44.003Z</time></trkpt><trkpt lat="45.65150395473989" lon="9.876132205817399"><ele>354.0</ele><time>2026-04-11T14:10:45.003Z</time></trkpt><trkpt lat="45.651479971064134" lon="9.876339242185225"><ele>356.0</ele><time>2026-04-11T14:10:46.003Z</time></trkpt><trkpt lat="45.651436312010425" lon="9.876565934000691"><ele>358.0</ele><time>2026-04-11T14:10:47.003Z</time></trkpt><trkpt lat="45.651399687574425" lon="9.87680648536637"><ele>358.3333333333333</ele><time>2026-04-11T14:10:48.003Z</time></trkpt><trkpt lat="45.65136546624935" lon="9.877040222527638"><ele>358.6666666666667</ele><time>2026-04-11T14:10:49.003Z</time></trkpt><trkpt lat="45.651335581887224" lon="9.877252084941357"><ele>359.0</ele><time>2026-04-11T14:10:50.003Z</time></trkpt><trkpt lat="45.651314184988564" lon="9.877457826801537"><ele>357.75</ele><time>2026-04-11T14:10:51.003Z</time></trkpt><trkpt lat="45.65132412928567" lon="9.877663226943428"><ele>356.5</ele><time>2026-04-11T14:10:52.003Z</time></trkpt><trkpt lat="45.65137418686249" lon="9.877855746169015"><ele>355.25</ele><time>2026-04-11T14:10:53.003Z</time></trkpt><trkpt lat="45.651456838219495" lon="9.878041669803553"><ele>354.0</ele><time>2026-04-11T14:10:54.003Z</time></trkpt><trkpt lat="45.651546611997425" lon="9.878256415469417"><ele>352.3333333333333</ele><time>2026-04-11T14:10:55.003Z</time></trkpt><trkpt lat="45.6516442167806" lon="9.878485599568103"><ele>350.66666666666663</ele><time>2026-04-11T14:10:56Z</time></trkpt><trkpt lat="45.651738349857574" lon="9.87871758732593"><ele>349.0</ele><time>2026-04-11T14:10:57Z</time></trkpt><trkpt lat="45.65183252376999" lon="9.878942360725333"><ele>349.0</ele><time>2026-04-11T14:10:58Z</time></trkpt><trkpt lat="45.651926874572176" lon="9.879156885259736"><ele>349.0</ele><time>2026-04-11T14:10:59Z</time></trkpt><trkpt lat="45.65200860012097" lon="9.879361570011207"><ele>349.0</ele><time>2026-04-11T14:11:00Z</time></trkpt><trkpt lat="45.6520807180412" lon="9.879565944182225"><ele>357.3333333333333</ele><time>2026-04-11T14:11:01Z</time></trkpt><trkpt lat="45.65211251650763" lon="9.879770004800584"><ele>365.6666666666667</ele><time>2026-04-11T14:11:02Z</time></trkpt><trkpt lat="45.652087861387145" lon="9.879989425585972"><ele>374.0</ele><time>2026-04-11T14:11:03Z</time></trkpt><trkpt lat="45.652075215421604" lon="9.880204159854324"><ele>375.0</ele><time>2026-04-11T14:11:04Z</time></trkpt><trkpt lat="45.652048221835145" lon="9.880419000343442"><ele>376.0</ele><time>2026-04-11T14:11:05Z</time></trkpt><trkpt lat="45.65203764446318" lon="9.880643690277578"><ele>377.0</ele><time>2026-04-11T14:11:06Z</time></trkpt><trkpt lat="45.652066522113905" lon="9.880864745645132"><ele>377.25</ele><time>2026-04-11T14:11:07Z</time></trkpt><trkpt lat="45.65212018961755" lon="9.881077592124216"><ele>377.5</ele><time>2026-04-11T14:11:08Z</time></trkpt><trkpt lat="45.6521768314102" lon="9.881250950755456"><ele>377.75</ele><time>2026-04-11T14:11:09Z</time></trkpt><trkpt lat="45.65223239079118" lon="9.88140783513139"><ele>378.0</ele><time>2026-04-11T14:11:10Z</time></trkpt><trkpt lat="45.65231850950268" lon="9.881551363943403"><ele>378.0</ele><time>2026-04-11T14:11:11Z</time></trkpt><trkpt lat="45.65240761923638" lon="9.881667255523878"><ele>378.0</ele><time>2026-04-11T14:11:12Z</time></trkpt><trkpt lat="45.652461426706395" lon="9.88177691719375"><ele>378.0</ele><time>2026-04-11T14:11:13Z</time></trkpt><trkpt lat="45.6524053673001" lon="9.8819927710745"><ele>378.0</ele><time>2026-04-11T14:11:15Z</time></trkpt><trkpt lat="45.65232728642385" lon="9.882142436496894"><ele>380.0</ele><time>2026-04-11T14:11:16Z</time></trkpt><trkpt lat="45.65225994126968" lon="9.882300090555507"><ele>382.0</ele><time>2026-04-11T14:11:17Z</time></trkpt><trkpt lat="45.65223231401528" lon="9.88246333414204"><ele>384.0</ele><time>2026-04-11T14:11:18Z</time></trkpt><trkpt lat="45.65223480179447" lon="9.882681766193606"><ele>386.0</ele><time>2026-04-11T14:11:19Z</time></trkpt><trkpt lat="45.65227886893441" lon="9.882931118046155"><ele>388.0</ele><time>2026-04-11T14:11:20Z</time></trkpt><trkpt lat="45.65230187423714" lon="9.883158441737354"><ele>390.0</ele><time>2026-04-11T14:11:21Z</time></trkpt><trkpt lat="45.652325989617346" lon="9.883397043886118"><ele>392.0</ele><time>2026-04-11T14:11:22Z</time></trkpt><trkpt lat="45.65232872791075" lon="9.883630777489563"><ele>394.0</ele><time>2026-04-11T14:11:23Z</time></trkpt><trkpt lat="45.652304474466746" lon="9.88386691195849"><ele>396.0</ele><time>2026-04-11T14:11:24Z</time></trkpt><trkpt lat="45.65227130031001" lon="9.88410875346051"><ele>398.0</ele><time>2026-04-11T14:11:25Z</time></trkpt><trkpt lat="45.65223897913749" lon="9.884349380231406"><ele>401.66666666666663</ele><time>2026-04-11T14:11:26Z</time></trkpt><trkpt lat="45.65220257787399" lon="9.884576421992467"><ele>405.33333333333337</ele><time>2026-04-11T14:11:27Z</time></trkpt><trkpt lat="45.652159991315195" lon="9.884810388823531"><ele>409.0</ele><time>2026-04-11T14:11:28.001Z</time></trkpt><trkpt lat="45.65212477397177" lon="9.885026050339452"><ele>410.0</ele><time>2026-04-11T14:11:29.001Z</time></trkpt><trkpt lat="45.652087067686615" lon="9.885223661705792"><ele>411.0</ele><time>2026-04-11T14:11:30.001Z</time></trkpt><trkpt lat="45.65206962129601" lon="9.885413255409254"><ele>412.0</ele><time>2026-04-11T14:11:31.001Z</time></trkpt><trkpt lat="45.65209055877151" lon="9.885588482885483"><ele>413.0</ele><time>2026-04-11T14:11:32.001Z</time></trkpt><trkpt lat="45.65215014262047" lon="9.885721512635579"><ele>413.0</ele><time>2026-04-11T14:11:33.001Z</time></trkpt><trkpt lat="45.652230040885186" lon="9.88583378907674"><ele>413.0</ele><time>2026-04-11T14:11:34.001Z</time></trkpt><trkpt lat="45.65230541920643" lon="9.885965759547764"><ele>413.0</ele><time>2026-04-11T14:11:35.001Z</time></trkpt><trkpt lat="45.652381273420225" lon="9.886148436652102"><ele>413.0</ele><time>2026-04-11T14:11:36.001Z</time></trkpt><trkpt lat="45.65239129155143" lon="9.88633747535735"><ele>414.25</ele><time>2026-04-11T14:11:37.001Z</time></trkpt><trkpt lat="45.65238053992614" lon="9.886542857237355"><ele>415.5</ele><time>2026-04-11T14:11:38.001Z</time></trkpt><trkpt lat="45.65235791342636" lon="9.886740839431818"><ele>416.75</ele><time>2026-04-11T14:11:39.001Z</time></trkpt><trkpt lat="45.652340799246836" lon="9.886927591056654"><ele>418.0</ele><time>2026-04-11T14:11:40.001Z</time></trkpt><trkpt lat="45.65233498985699" lon="9.887128955222485"><ele>421.5</ele><time>2026-04-11T14:11:41.001Z</time></trkpt><trkpt lat="45.65234064202653" lon="9.88731880067561"><ele>425.0</ele><time>2026-04-11T14:11:42.001Z</time></trkpt><trkpt lat="45.65233484818907" lon="9.887501162068707"><ele>428.5</ele><time>2026-04-11T14:11:43.001Z</time></trkpt><trkpt lat="45.65230105342373" lon="9.88766836401687"><ele>432.0</ele><time>2026-04-11T14:11:44.001Z</time></trkpt><trkpt lat="45.65225647283678" lon="9.887809635591923"><ele>431.25</ele><time>2026-04-11T14:11:45.001Z</time></trkpt><trkpt lat="45.65216577430773" lon="9.88791692080106"><ele>430.5</ele><time>2026-04-11T14:11:46.001Z</time></trkpt><trkpt lat="45.652057123675334" lon="9.888002486910445"><ele>429.75</ele><time>2026-04-11T14:11:47.001Z</time></trkpt><trkpt lat="45.651941707442596" lon="9.888092321329637"><ele>429.0</ele><time>2026-04-11T14:11:48.001Z</time></trkpt><trkpt lat="45.65183088421493" lon="9.888198764080164"><ele>429.0</ele><time>2026-04-11T14:11:49.001Z</time></trkpt><trkpt lat="45.651690179450846" lon="9.888294258887516"><ele>429.0</ele><time>2026-04-11T14:11:50.001Z</time></trkpt><trkpt lat="45.65153279099586" lon="9.888364791043786"><ele>429.0</ele><time>2026-04-11T14:11:51.001Z</time></trkpt><trkpt lat="45.65137758180879" lon="9.888382196341114"><ele>429.0</ele><time>2026-04-11T14:11:52.001Z</time></trkpt><trkpt lat="45.6512146915923" lon="9.888395310643592"><ele>429.0</ele><time>2026-04-11T14:11:53.001Z</time></trkpt><trkpt lat="45.65107767660187" lon="9.888435506219851"><ele>429.0</ele><time>2026-04-11T14:11:54.001Z</time></trkpt><trkpt lat="45.650954040355" lon="9.888453514019071"><ele>429.0</ele><time>2026-04-11T14:11:55.001Z</time></trkpt><trkpt lat="45.65084216794389" lon="9.888503526746748"><ele>429.0</ele><time>2026-04-11T14:11:56.001Z</time></trkpt><trkpt lat="45.65073837908675" lon="9.888542714526357"><ele>429.0</ele><time>2026-04-11T14:11:57.001Z</time></trkpt><trkpt lat="45.65066021427265" lon="9.888597176768512"><ele>429.0</ele><time>2026-04-11T14:11:58.001Z</time></trkpt><trkpt lat="45.650635859548956" lon="9.888702676023133"><ele>429.0</ele><time>2026-04-11T14:11:59.001Z</time></trkpt><trkpt lat="45.65063188844436" lon="9.888819031503322"><ele>429.0</ele><time>2026-04-11T14:12:00.001Z</time></trkpt><trkpt lat="45.65067659652471" lon="9.888921262741592"><ele>429.0</ele><time>2026-04-11T14:12:01.002Z</time></trkpt><trkpt lat="45.65072349795075" lon="9.88905899173675"><ele>429.0</ele><time>2026-04-11T14:12:02.002Z</time></trkpt><trkpt lat="45.6509333480281" lon="9.889073188778967"><ele>429.0</ele><time>2026-04-11T14:12:03.002Z</time></trkpt><trkpt lat="45.65105518935542" lon="9.889176227936822"><ele>429.0</ele><time>2026-04-11T14:12:04.002Z</time></trkpt><trkpt lat="45.65116573715087" lon="9.88931301878938"><ele>434.75</ele><time>2026-04-11T14:12:05.002Z</time></trkpt><trkpt lat="45.65126517334213" lon="9.889459524353695"><ele>440.5</ele><time>2026-04-11T14:12:06.002Z</time></trkpt><trkpt lat="45.65135332464823" lon="9.8895960996334"><ele>446.25</ele><time>2026-04-11T14:12:07.002Z</time></trkpt><trkpt lat="45.651453542755846" lon="9.889720933940303"><ele>452.0</ele><time>2026-04-11T14:12:08.002Z</time></trkpt><trkpt lat="45.65154919427815" lon="9.88984260163516"><ele>452.0</ele><time>2026-04-11T14:12:09.002Z</time></trkpt><trkpt lat="45.65164153854074" lon="9.889981475750352"><ele>452.0</ele><time>2026-04-11T14:12:10.002Z</time></trkpt><trkpt lat="45.65172960112706" lon="9.890119900156613"><ele>452.0</ele><time>2026-04-11T14:12:11.002Z</time></trkpt><trkpt lat="45.65181804035222" lon="9.890254800434155"><ele>452.0</ele><time>2026-04-11T14:12:12.002Z</time></trkpt><trkpt lat="45.65190389371435" lon="9.890404713160548"><ele>454.66666666666663</ele><time>2026-04-11T14:12:13.002Z</time></trkpt><trkpt lat="45.65199508429282" lon="9.89057418267339"><ele>457.33333333333337</ele><time>2026-04-11T14:12:14.002Z</time></trkpt><trkpt lat="45.65209556463454" lon="9.890758508228625"><ele>460.0</ele><time>2026-04-11T14:12:15.002Z</time></trkpt><trkpt lat="45.65221181777879" lon="9.890958771338216"><ele>460.0</ele><time>2026-04-11T14:12:16.002Z</time></trkpt><trkpt lat="45.652304486721086" lon="9.891159781591698"><ele>460.0</ele><time>2026-04-11T14:12:17.002Z</time></trkpt><trkpt lat="45.65238605636655" lon="9.891389758444376"><ele>460.0</ele><time>2026-04-11T14:12:18.002Z</time></trkpt><trkpt lat="45.6524707206743" lon="9.891633278632986"><ele>459.0</ele><time>2026-04-11T14:12:19.002Z</time></trkpt><trkpt lat="45.652549870864604" lon="9.891866882889042"><ele>458.0</ele><time>2026-04-11T14:12:20.002Z</time></trkpt><trkpt lat="45.6526359745363" lon="9.8921115134766"><ele>457.0</ele><time>2026-04-11T14:12:21.002Z</time></trkpt><trkpt lat="45.65272418395921" lon="9.89234942234674"><ele>464.0</ele><time>2026-04-11T14:12:22.002Z</time></trkpt><trkpt lat="45.65280483709263" lon="9.892588722941975"><ele>471.0</ele><time>2026-04-11T14:12:23.002Z</time></trkpt><trkpt lat="45.65288915002604" lon="9.89282692996443"><ele>478.0</ele><time>2026-04-11T14:12:24.002Z</time></trkpt><trkpt lat="45.652968536240046" lon="9.893064931444497"><ele>478.0</ele><time>2026-04-11T14:12:25.002Z</time></trkpt><trkpt lat="45.653030207343825" lon="9.893284481769523"><ele>478.0</ele><time>2026-04-11T14:12:26.002Z</time></trkpt><trkpt lat="45.65308602894736" lon="9.893484323985973"><ele>478.0</ele><time>2026-04-11T14:12:27.002Z</time></trkpt><trkpt lat="45.65315091568433" lon="9.893667277971504"><ele>475.25</ele><time>2026-04-11T14:12:28.002Z</time></trkpt><trkpt lat="45.65322024800834" lon="9.893825824557876"><ele>472.5</ele><time>2026-04-11T14:12:29.002Z</time></trkpt><trkpt lat="45.65329291889981" lon="9.893966151549735"><ele>469.75</ele><time>2026-04-11T14:12:30.002Z</time></trkpt><trkpt lat="45.65337714716682" lon="9.894098026796362"><ele>467.0</ele><time>2026-04-11T14:12:31.002Z</time></trkpt><trkpt lat="45.65344741088575" lon="9.894213235078585"><ele>466.40000000000003</ele><time>2026-04-11T14:12:32.002Z</time></trkpt><trkpt lat="45.65351942531877" lon="9.894278924905764"><ele>465.80000000000007</ele><time>2026-04-11T14:12:33.002Z</time></trkpt><trkpt lat="45.653615477889915" lon="9.894360555178372"><ele>465.2</ele><time>2026-04-11T14:12:35.003Z</time></trkpt><trkpt lat="45.65365580472112" lon="9.89456926764785"><ele>464.6</ele><time>2026-04-11T14:12:37.003Z</time></trkpt><trkpt lat="45.65366947519233" lon="9.894691708967528"><ele>464.0</ele><time>2026-04-11T14:12:38.003Z</time></trkpt><trkpt lat="45.6536847481265" lon="9.894844096378792"><ele>464.0</ele><time>2026-04-11T14:12:39.003Z</time></trkpt><trkpt lat="45.65370692897387" lon="9.895002449333495"><ele>464.0</ele><time>2026-04-11T14:12:40.003Z</time></trkpt><trkpt lat="45.65372057651064" lon="9.89519431745781"><ele>464.0</ele><time>2026-04-11T14:12:41.003Z</time></trkpt><trkpt lat="45.65374042954904" lon="9.895389227496025"><ele>464.0</ele><time>2026-04-11T14:12:42.003Z</time></trkpt><trkpt lat="45.65377276802542" lon="9.89556110181185"><ele>464.16666666666663</ele><time>2026-04-11T14:12:43.003Z</time></trkpt><trkpt lat="45.65379579939479" lon="9.895697686560185"><ele>464.3333333333333</ele><time>2026-04-11T14:12:44.003Z</time></trkpt><trkpt lat="45.653811635621274" lon="9.895807101572613"><ele>464.5</ele><time>2026-04-11T14:12:45.003Z</time></trkpt><trkpt lat="45.653853912896345" lon="9.89588000683076"><ele>464.66666666666663</ele><time>2026-04-11T14:12:46.003Z</time></trkpt><trkpt lat="45.65391887411699" lon="9.895910223617532"><ele>464.8333333333333</ele><time>2026-04-11T14:12:47.003Z</time></trkpt><trkpt lat="45.653993686854534" lon="9.895869319416473"><ele>465.0</ele><time>2026-04-11T14:12:48.003Z</time></trkpt><trkpt lat="45.6540343130571" lon="9.895684028171729"><ele>465.0</ele><time>2026-04-11T14:12:50.003Z</time></trkpt><trkpt lat="45.65405288286056" lon="9.89552836974541"><ele>465.0</ele><time>2026-04-11T14:12:51.003Z</time></trkpt><trkpt lat="45.65408150948252" lon="9.89534257511073"><ele>465.0</ele><time>2026-04-11T14:12:52.003Z</time></trkpt><trkpt lat="45.65411777127707" lon="9.895170696241804"><ele>465.0</ele><time>2026-04-11T14:12:53.003Z</time></trkpt><trkpt lat="45.65416066059245" lon="9.895006173305632"><ele>464.75</ele><time>2026-04-11T14:12:54.003Z</time></trkpt><trkpt lat="45.65421800352255" lon="9.894848484936308"><ele>464.5</ele><time>2026-04-11T14:12:55.003Z</time></trkpt><trkpt lat="45.65429744554571" lon="9.894703324274182"><ele>464.25</ele><time>2026-04-11T14:12:56.003Z</time></trkpt><trkpt lat="45.65438910210472" lon="9.894574827753928"><ele>464.0</ele><time>2026-04-11T14:12:57.003Z</time></trkpt><trkpt lat="45.65448831691479" lon="9.89447518649839"><ele>459.0</ele><time>2026-04-11T14:12:58.003Z</time></trkpt><trkpt lat="45.654605062871596" lon="9.894407387413548"><ele>454.0</ele><time>2026-04-11T14:12:59.003Z</time></trkpt><trkpt lat="45.654726200986254" lon="9.894360537798862"><ele>449.0</ele><time>2026-04-11T14:13:00.003Z</time></trkpt><trkpt lat="45.65486233849352" lon="9.894326950803446"><ele>444.0</ele><time>2026-04-11T14:13:01.003Z</time></trkpt><trkpt lat="45.65500334495024" lon="9.894311150601112"><ele>444.0</ele><time>2026-04-11T14:13:02Z</time></trkpt><trkpt lat="45.6551498796676" lon="9.89431206649975"><ele>444.0</ele><time>2026-04-11T14:13:03Z</time></trkpt><trkpt lat="45.655290718328494" lon="9.89431625557811"><ele>444.0</ele><time>2026-04-11T14:13:04Z</time></trkpt><trkpt lat="45.65541286263221" lon="9.894312900461028"><ele>444.0</ele><time>2026-04-11T14:13:05Z</time></trkpt><trkpt lat="45.655547731127044" lon="9.89430836052946"><ele>442.25</ele><time>2026-04-11T14:13:06Z</time></trkpt><trkpt lat="45.65569276864443" lon="9.894298584338234"><ele>440.5</ele><time>2026-04-11T14:13:07Z</time></trkpt><trkpt lat="45.655827463815726" lon="9.894292560626731"><ele>438.75</ele><time>2026-04-11T14:13:08Z</time></trkpt><trkpt lat="45.65595859951795" lon="9.89428228566694"><ele>437.0</ele><time>2026-04-11T14:13:09Z</time></trkpt><trkpt lat="45.6560904039504" lon="9.894276016960928"><ele>433.75</ele><time>2026-04-11T14:13:10Z</time></trkpt><trkpt lat="45.65622086369073" lon="9.894231654340476"><ele>430.5</ele><time>2026-04-11T14:13:11Z</time></trkpt><trkpt lat="45.6563543658747" lon="9.894145889879985"><ele>427.25</ele><time>2026-04-11T14:13:12Z</time></trkpt><trkpt lat="45.65647939994123" lon="9.894058966087908"><ele>424.0</ele><time>2026-04-11T14:13:13Z</time></trkpt><trkpt lat="45.656588125207655" lon="9.893961917741779"><ele>424.0</ele><time>2026-04-11T14:13:14Z</time></trkpt><trkpt lat="45.65667827498374" lon="9.893841676964795"><ele>424.0</ele><time>2026-04-11T14:13:15Z</time></trkpt><trkpt lat="45.65676740644039" lon="9.893740472047854"><ele>424.0</ele><time>2026-04-11T14:13:16Z</time></trkpt><trkpt lat="45.65686875555397" lon="9.89369314433567"><ele>424.0</ele><time>2026-04-11T14:13:17Z</time></trkpt><trkpt lat="45.656991656629884" lon="9.893704242482226"><ele>422.0</ele><time>2026-04-11T14:13:18Z</time></trkpt><trkpt lat="45.65709480917601" lon="9.893768356437212"><ele>420.0</ele><time>2026-04-11T14:13:19Z</time></trkpt><trkpt lat="45.6571811228515" lon="9.893850851814575"><ele>418.0</ele><time>2026-04-11T14:13:20Z</time></trkpt><trkpt lat="45.65726626585463" lon="9.893918299872478"><ele>416.0</ele><time>2026-04-11T14:13:21Z</time></trkpt><trkpt lat="45.65736097714291" lon="9.893951359957455"><ele>414.0</ele><time>2026-04-11T14:13:22Z</time></trkpt><trkpt lat="45.65746086219901" lon="9.89395545725732"><ele>414.0</ele><time>2026-04-11T14:13:23Z</time></trkpt><trkpt lat="45.657561182875" lon="9.89394473887352"><ele>414.0</ele><time>2026-04-11T14:13:24Z</time></trkpt><trkpt lat="45.65765243392518" lon="9.89386571700137"><ele>414.0</ele><time>2026-04-11T14:13:25Z</time></trkpt><trkpt lat="45.65772978724973" lon="9.89378252420463"><ele>414.0</ele><time>2026-04-11T14:13:26Z</time></trkpt><trkpt lat="45.65781392635496" lon="9.893711286186875"><ele>414.0</ele><time>2026-04-11T14:13:27Z</time></trkpt><trkpt lat="45.65788750236353" lon="9.89360811283437"><ele>413.25</ele><time>2026-04-11T14:13:28Z</time></trkpt><trkpt lat="45.657966754817316" lon="9.893492209061238"><ele>412.5</ele><time>2026-04-11T14:13:29Z</time></trkpt><trkpt lat="45.65806279945179" lon="9.893380472937727"><ele>411.75</ele><time>2026-04-11T14:13:30.001Z</time></trkpt><trkpt lat="45.658180003660746" lon="9.893332645525133"><ele>411.0</ele><time>2026-04-11T14:13:31.001Z</time></trkpt><trkpt lat="45.65830572480235" lon="9.893302034828183"><ele>411.0</ele><time>2026-04-11T14:13:32.001Z</time></trkpt><trkpt lat="45.65843607563247" lon="9.893265372099146"><ele>411.0</ele><time>2026-04-11T14:13:33.001Z</time></trkpt><trkpt lat="45.658566969507916" lon="9.893224731795367"><ele>411.0</ele><time>2026-04-11T14:13:34.001Z</time></trkpt><trkpt lat="45.65868670597779" lon="9.893180781349514"><ele>411.0</ele><time>2026-04-11T14:13:35.001Z</time></trkpt><trkpt lat="45.658800660106095" lon="9.893102992072297"><ele>407.20000000000005</ele><time>2026-04-11T14:13:36.001Z</time></trkpt><trkpt lat="45.65889783601767" lon="9.893011104491023"><ele>403.40000000000003</ele><time>2026-04-11T14:13:37.001Z</time></trkpt><trkpt lat="45.658991122623355" lon="9.892913012548833"><ele>399.6</ele><time>2026-04-11T14:13:38.001Z</time></trkpt><trkpt lat="45.65905743256564" lon="9.892782896757666"><ele>395.8</ele><time>2026-04-11T14:13:39.001Z</time></trkpt><trkpt lat="45.65910187511566" lon="9.89268575196396"><ele>392.0</ele><time>2026-04-11T14:13:40.001Z</time></trkpt><trkpt lat="45.659158058901674" lon="9.89259093995718"><ele>390.6</ele><time>2026-04-11T14:13:41.001Z</time></trkpt><trkpt lat="45.659199604535026" lon="9.892469732462747"><ele>389.20000000000005</ele><time>2026-04-11T14:13:42.001Z</time></trkpt><trkpt lat="45.65928329784483" lon="9.89239107093598"><ele>387.8</ele><time>2026-04-11T14:13:43.001Z</time></trkpt><trkpt lat="45.65939035913532" lon="9.89237822355565"><ele>386.4</ele><time>2026-04-11T14:13:44.001Z</time></trkpt><trkpt lat="45.659495681392606" lon="9.892366635089257"><ele>385.0</ele><time>2026-04-11T14:13:45.001Z</time></trkpt><trkpt lat="45.659598826890324" lon="9.89232201636168"><ele>385.0</ele><time>2026-04-11T14:13:46.001Z</time></trkpt><trkpt lat="45.65967737347405" lon="9.89223831526064"><ele>385.0</ele><time>2026-04-11T14:13:47.001Z</time></trkpt><trkpt lat="45.659751142428" lon="9.892146398417847"><ele>385.0</ele><time>2026-04-11T14:13:48.001Z</time></trkpt><trkpt lat="45.65980474611727" lon="9.89202225845491"><ele>385.0</ele><time>2026-04-11T14:13:49.001Z</time></trkpt><trkpt lat="45.65985314668721" lon="9.891900627768221"><ele>385.0</ele><time>2026-04-11T14:13:50.001Z</time></trkpt><trkpt lat="45.65989214619942" lon="9.891792253196883"><ele>385.4</ele><time>2026-04-11T14:13:51.001Z</time></trkpt><trkpt lat="45.65996622358492" lon="9.89172883289401"><ele>385.8</ele><time>2026-04-11T14:13:52.001Z</time></trkpt><trkpt lat="45.660069693955364" lon="9.891697104446287"><ele>386.20000000000005</ele><time>2026-04-11T14:13:53.001Z</time></trkpt><trkpt lat="45.66017052935591" lon="9.891668739129319"><ele>386.6</ele><time>2026-04-11T14:13:54.001Z</time></trkpt><trkpt lat="45.66025825024343" lon="9.891650438483396"><ele>387.0</ele><time>2026-04-11T14:13:55.001Z</time></trkpt><trkpt lat="45.66032780702181" lon="9.891622618254923"><ele>387.0</ele><time>2026-04-11T14:13:56.001Z</time></trkpt><trkpt lat="45.660429165517456" lon="9.89154411738312"><ele>387.0</ele><time>2026-04-11T14:13:58.001Z</time></trkpt><trkpt lat="45.66049067447769" lon="9.891524362556968"><ele>387.0</ele><time>2026-04-11T14:13:59.001Z</time></trkpt><trkpt lat="45.660558483244" lon="9.89149981522664"><ele>387.0</ele><time>2026-04-11T14:14:00.001Z</time></trkpt><trkpt lat="45.66065016636203" lon="9.891520212059522"><ele>387.0</ele><time>2026-04-11T14:14:01.001Z</time></trkpt><trkpt lat="45.66074484436937" lon="9.891566950802424"><ele>387.0</ele><time>2026-04-11T14:14:02.001Z</time></trkpt><trkpt lat="45.66084391817111" lon="9.891604574256787"><ele>387.0</ele><time>2026-04-11T14:14:03.001Z</time></trkpt><trkpt lat="45.66095285368304" lon="9.891603717599983"><ele>387.0</ele><time>2026-04-11T14:14:04.001Z</time></trkpt><trkpt lat="45.661047972274915" lon="9.891576994067464"><ele>387.0</ele><time>2026-04-11T14:14:05.001Z</time></trkpt><trkpt lat="45.66113563169406" lon="9.891497617643672"><ele>387.0</ele><time>2026-04-11T14:14:06.002Z</time></trkpt><trkpt lat="45.66121825299334" lon="9.891383522117417"><ele>387.0</ele><time>2026-04-11T14:14:07.002Z</time></trkpt><trkpt lat="45.661327700876974" lon="9.891291550206494"><ele>384.25</ele><time>2026-04-11T14:14:08.002Z</time></trkpt><trkpt lat="45.66146757082392" lon="9.891274295261"><ele>381.5</ele><time>2026-04-11T14:14:09.002Z</time></trkpt><trkpt lat="45.66158891624786" lon="9.891196987623285"><ele>378.75</ele><time>2026-04-11T14:14:10.002Z</time></trkpt><trkpt lat="45.661699309273516" lon="9.891138552164282"><ele>376.0</ele><time>2026-04-11T14:14:11.002Z</time></trkpt><trkpt lat="45.661798598343225" lon="9.891062492539412"><ele>376.0</ele><time>2026-04-11T14:14:12.002Z</time></trkpt><trkpt lat="45.66188920748929" lon="9.890982015783568"><ele>376.0</ele><time>2026-04-11T14:14:13.002Z</time></trkpt><trkpt lat="45.661980956952256" lon="9.890913834843921"><ele>376.0</ele><time>2026-04-11T14:14:14.002Z</time></trkpt><trkpt lat="45.66207119686561" lon="9.890855546957182"><ele>376.0</ele><time>2026-04-11T14:14:15.002Z</time></trkpt><trkpt lat="45.66215334041638" lon="9.890778874661288"><ele>376.0</ele><time>2026-04-11T14:14:16.002Z</time></trkpt><trkpt lat="45.66222811320918" lon="9.890672017927479"><ele>375.4</ele><time>2026-04-11T14:14:17.002Z</time></trkpt><trkpt lat="45.66227382992219" lon="9.890542591804211"><ele>374.8</ele><time>2026-04-11T14:14:18.002Z</time></trkpt><trkpt lat="45.66234191394555" lon="9.890456660956882"><ele>374.2</ele><time>2026-04-11T14:14:19.002Z</time></trkpt><trkpt lat="45.66241000073575" lon="9.89037493622028"><ele>373.59999999999997</ele><time>2026-04-11T14:14:20.002Z</time></trkpt><trkpt lat="45.6624844257483" lon="9.89030496550539"><ele>373.0</ele><time>2026-04-11T14:14:21.002Z</time></trkpt><trkpt lat="45.66257643411812" lon="9.890268111061188"><ele>373.0</ele><time>2026-04-11T14:14:22.002Z</time></trkpt><trkpt lat="45.66267015149611" lon="9.89025200836693"><ele>373.0</ele><time>2026-04-11T14:14:23.002Z</time></trkpt><trkpt lat="45.66276323505429" lon="9.890258285406928"><ele>373.0</ele><time>2026-04-11T14:14:24.002Z</time></trkpt><trkpt lat="45.66284692411095" lon="9.890309817032627"><ele>373.0</ele><time>2026-04-11T14:14:25.002Z</time></trkpt><trkpt lat="45.66294469642947" lon="9.89032220672895"><ele>373.0</ele><time>2026-04-11T14:14:26.002Z</time></trkpt><trkpt lat="45.66303349860192" lon="9.890311107438785"><ele>371.0</ele><time>2026-04-11T14:14:27.002Z</time></trkpt><trkpt lat="45.66313956483759" lon="9.890294390758394"><ele>369.0</ele><time>2026-04-11T14:14:28.002Z</time></trkpt><trkpt lat="45.66322899163139" lon="9.89028381278931"><ele>367.0</ele><time>2026-04-11T14:14:29.002Z</time></trkpt><trkpt lat="45.663320267869835" lon="9.890286605240789"><ele>365.0</ele><time>2026-04-11T14:14:30.002Z</time></trkpt><trkpt lat="45.66340541024335" lon="9.890311935623549"><ele>363.0</ele><time>2026-04-11T14:14:31.002Z</time></trkpt><trkpt lat="45.66348389547647" lon="9.890342876204922"><ele>363.0</ele><time>2026-04-11T14:14:32.002Z</time></trkpt><trkpt lat="45.66356187049092" lon="9.89037948897202"><ele>363.0</ele><time>2026-04-11T14:14:33.002Z</time></trkpt><trkpt lat="45.66364776351251" lon="9.890428744080825"><ele>363.0</ele><time>2026-04-11T14:14:34.002Z</time></trkpt><trkpt lat="45.663731557271035" lon="9.89050281264599"><ele>363.0</ele><time>2026-04-11T14:14:35.002Z</time></trkpt><trkpt lat="45.663810956926305" lon="9.890579387868609"><ele>363.0</ele><time>2026-04-11T14:14:36.002Z</time></trkpt><trkpt lat="45.66389515560796" lon="9.890666369562867"><ele>362.2</ele><time>2026-04-11T14:14:37.002Z</time></trkpt><trkpt lat="45.66398747794122" lon="9.890731225527126"><ele>361.4</ele><time>2026-04-11T14:14:38.002Z</time></trkpt><trkpt lat="45.664084618906536" lon="9.890798628701598"><ele>360.59999999999997</ele><time>2026-04-11T14:14:39.002Z</time></trkpt><trkpt lat="45.6641713358853" lon="9.890873930273978"><ele>359.79999999999995</ele><time>2026-04-11T14:14:40.002Z</time></trkpt><trkpt lat="45.66423502747895" lon="9.890960779281865"><ele>359.0</ele><time>2026-04-11T14:14:41.002Z</time></trkpt><trkpt lat="45.664294117788245" lon="9.891097194545496"><ele>356.79999999999995</ele><time>2026-04-11T14:14:42.003Z</time></trkpt><trkpt lat="45.664360337509876" lon="9.8912339612189"><ele>354.59999999999997</ele><time>2026-04-11T14:14:43.003Z</time></trkpt><trkpt lat="45.664430983018484" lon="9.891322220852045"><ele>352.4</ele><time>2026-04-11T14:14:44.003Z</time></trkpt><trkpt lat="45.66449323772194" lon="9.89143358887938"><ele>350.2</ele><time>2026-04-11T14:14:45.003Z</time></trkpt><trkpt lat="45.66453401807879" lon="9.89155859754037"><ele>348.0</ele><time>2026-04-11T14:14:46.003Z</time></trkpt><trkpt lat="45.664563351872474" lon="9.891703514491455"><ele>345.8333333333333</ele><time>2026-04-11T14:14:47.003Z</time></trkpt><trkpt lat="45.664588911832034" lon="9.891814758923696"><ele>343.6666666666667</ele><time>2026-04-11T14:14:48.003Z</time></trkpt><trkpt lat="45.664650168517205" lon="9.89195695697397"><ele>341.5</ele><time>2026-04-11T14:14:49.003Z</time></trkpt><trkpt lat="45.664685334560055" lon="9.892048574533934"><ele>339.33333333333337</ele><time>2026-04-11T14:14:50.003Z</time></trkpt><trkpt lat="45.66473186758969" lon="9.892139835286885"><ele>337.1666666666667</ele><time>2026-04-11T14:14:51.003Z</time></trkpt><trkpt lat="45.66478134470147" lon="9.892223240604656"><ele>335.0</ele><time>2026-04-11T14:14:52.003Z</time></trkpt><trkpt lat="45.66481605617313" lon="9.892338055875198"><ele>335.0</ele><time>2026-04-11T14:14:53.003Z</time></trkpt><trkpt lat="45.66481732241504" lon="9.892461840018283"><ele>335.0</ele><time>2026-04-11T14:14:54.003Z</time></trkpt><trkpt lat="45.66482015590795" lon="9.892568609995857"><ele>335.0</ele><time>2026-04-11T14:14:55.003Z</time></trkpt><trkpt lat="45.66481668929649" lon="9.89267166204303"><ele>335.0</ele><time>2026-04-11T14:14:56.003Z</time></trkpt><trkpt lat="45.66480387747071" lon="9.892772585978431"><ele>335.0</ele><time>2026-04-11T14:14:57.003Z</time></trkpt><trkpt lat="45.664799726209715" lon="9.892903572151589"><ele>335.0</ele><time>2026-04-11T14:14:58.003Z</time></trkpt><trkpt lat="45.66477288153178" lon="9.893035538023527"><ele>332.8</ele><time>2026-04-11T14:14:59.003Z</time></trkpt><trkpt lat="45.664744237399645" lon="9.893183972622408"><ele>330.6</ele><time>2026-04-11T14:15:00.003Z</time></trkpt><trkpt lat="45.66471403977395" lon="9.893341408779053"><ele>328.4</ele><time>2026-04-11T14:15:01.003Z</time></trkpt><trkpt lat="45.66468197384212" lon="9.893501708472522"><ele>326.2</ele><time>2026-04-11T14:15:02.003Z</time></trkpt><trkpt lat="45.6646511941929" lon="9.893653052146224"><ele>324.0</ele><time>2026-04-11T14:15:03.003Z</time></trkpt><trkpt lat="45.66461896727473" lon="9.893801363559685"><ele>321.8</ele><time>2026-04-11T14:15:04.003Z</time></trkpt><trkpt lat="45.66459566070685" lon="9.893948146610938"><ele>319.59999999999997</ele><time>2026-04-11T14:15:05.003Z</time></trkpt><trkpt lat="45.66457048334194" lon="9.89408874880728"><ele>317.4</ele><time>2026-04-11T14:15:06.003Z</time></trkpt><trkpt lat="45.66455892847557" lon="9.894220602715636"><ele>315.2</ele><time>2026-04-11T14:15:07.003Z</time></trkpt><trkpt lat="45.664552390499686" lon="9.894365256992748"><ele>313.0</ele><time>2026-04-11T14:15:08Z</time></trkpt><trkpt lat="45.66455564807761" lon="9.894509519206965"><ele>312.0</ele><time>2026-04-11T14:15:09Z</time></trkpt><trkpt lat="45.66457060426384" lon="9.894662785428011"><ele>311.0</ele><time>2026-04-11T14:15:10Z</time></trkpt><trkpt lat="45.66458951804453" lon="9.89482612927991"><ele>310.0</ele><time>2026-04-11T14:15:11Z</time></trkpt><trkpt lat="45.66458909909852" lon="9.894983551175837"><ele>309.0</ele><time>2026-04-11T14:15:12Z</time></trkpt><trkpt lat="45.66460250674117" lon="9.895136060590051"><ele>308.0</ele><time>2026-04-11T14:15:13Z</time></trkpt><trkpt lat="45.664610123604355" lon="9.895283901956345"><ele>306.8</ele><time>2026-04-11T14:15:14Z</time></trkpt><trkpt lat="45.66462341837272" lon="9.89542748331885"><ele>305.6</ele><time>2026-04-11T14:15:15Z</time></trkpt><trkpt lat="45.664599015311204" lon="9.895570951553275"><ele>304.4</ele><time>2026-04-11T14:15:16Z</time></trkpt><trkpt lat="45.66459748204953" lon="9.895712990444338"><ele>303.2</ele><time>2026-04-11T14:15:17Z</time></trkpt><trkpt lat="45.66458563470358" lon="9.89585781599117"><ele>302.0</ele><time>2026-04-11T14:15:18Z</time></trkpt><trkpt lat="45.66456083180915" lon="9.896001479905966"><ele>300.4</ele><time>2026-04-11T14:15:19Z</time></trkpt><trkpt lat="45.664583403079725" lon="9.896158048291094"><ele>298.79999999999995</ele><time>2026-04-11T14:15:20Z</time></trkpt><trkpt lat="45.664594262518044" lon="9.896302951053993"><ele>297.2</ele><time>2026-04-11T14:15:21Z</time></trkpt><trkpt lat="45.66460448397702" lon="9.89643066161216"><ele>295.59999999999997</ele><time>2026-04-11T14:15:22Z</time></trkpt><trkpt lat="45.664625903138564" lon="9.896554200407254"><ele>294.0</ele><time>2026-04-11T14:15:23Z</time></trkpt><trkpt lat="45.6646308408206" lon="9.896699611037263"><ele>292.3333333333333</ele><time>2026-04-11T14:15:24Z</time></trkpt><trkpt lat="45.6646486369861" lon="9.896816242181954"><ele>290.6666666666667</ele><time>2026-04-11T14:15:25Z</time></trkpt><trkpt lat="45.66466549085708" lon="9.896955518939192"><ele>289.0</ele><time>2026-04-11T14:15:26Z</time></trkpt><trkpt lat="45.66468134822015" lon="9.897072901354603"><ele>287.33333333333337</ele><time>2026-04-11T14:15:27Z</time></trkpt><trkpt lat="45.66469314850139" lon="9.897190045559908"><ele>285.6666666666667</ele><time>2026-04-11T14:15:28Z</time></trkpt><trkpt lat="45.664700667006706" lon="9.897299989711543"><ele>284.0</ele><time>2026-04-11T14:15:29Z</time></trkpt><trkpt lat="45.66470343856399" lon="9.897409670790795"><ele>284.0</ele><time>2026-04-11T14:15:30Z</time></trkpt><trkpt lat="45.66470244989077" lon="9.897505273858828"><ele>284.0</ele><time>2026-04-11T14:15:31Z</time></trkpt><trkpt lat="45.6646881459999" lon="9.897597331112566"><ele>284.0</ele><time>2026-04-11T14:15:32Z</time></trkpt><trkpt lat="45.664675144158124" lon="9.897692451996662"><ele>284.0</ele><time>2026-04-11T14:15:33Z</time></trkpt><trkpt lat="45.66464946277236" lon="9.897777803063788"><ele>284.0</ele><time>2026-04-11T14:15:34Z</time></trkpt><trkpt lat="45.664615959075604" lon="9.897917774856031"><ele>284.0</ele><time>2026-04-11T14:15:36Z</time></trkpt><trkpt lat="45.664574920870265" lon="9.89803541550335"><ele>282.5</ele><time>2026-04-11T14:15:38.001Z</time></trkpt><trkpt lat="45.66452521564162" lon="9.89810571074605"><ele>281.0</ele><time>2026-04-11T14:15:40.001Z</time></trkpt><trkpt lat="45.6644873679557" lon="9.898206287158073"><ele>279.5</ele><time>2026-04-11T14:15:42.001Z</time></trkpt><trkpt lat="45.664426199794306" lon="9.898336371408677"><ele>278.0</ele><time>2026-04-11T14:15:44.001Z</time></trkpt><trkpt lat="45.664416313213" lon="9.89849925770902"><ele>276.5</ele><time>2026-04-11T14:15:46.001Z</time></trkpt><trkpt lat="45.664433428277015" lon="9.898599793045246"><ele>275.0</ele><time>2026-04-11T14:15:47.001Z</time></trkpt><trkpt lat="45.66445466406205" lon="9.898709120501884"><ele>273.6</ele><time>2026-04-11T14:15:48.001Z</time></trkpt><trkpt lat="45.66447004200231" lon="9.898839814072561"><ele>272.2</ele><time>2026-04-11T14:15:49.001Z</time></trkpt><trkpt lat="45.66449622134839" lon="9.898979350752182"><ele>270.8</ele><time>2026-04-11T14:15:50.001Z</time></trkpt><trkpt lat="45.6645289667267" lon="9.899145765608784"><ele>269.4</ele><time>2026-04-11T14:15:51.001Z</time></trkpt><trkpt lat="45.664530532110284" lon="9.899323155324565"><ele>268.0</ele><time>2026-04-11T14:15:52.001Z</time></trkpt><trkpt lat="45.66453844269598" lon="9.899506535836455"><ele>266.25</ele><time>2026-04-11T14:15:53.001Z</time></trkpt><trkpt lat="45.66452664181249" lon="9.899719460829102"><ele>264.5</ele><time>2026-04-11T14:15:54.001Z</time></trkpt><trkpt lat="45.664529595996655" lon="9.89990645971689"><ele>262.75</ele><time>2026-04-11T14:15:55.001Z</time></trkpt><trkpt lat="45.66452800833978" lon="9.900074652309558"><ele>261.0</ele><time>2026-04-11T14:15:56.001Z</time></trkpt><trkpt lat="45.664531729122714" lon="9.90022717018649"><ele>260.6666666666667</ele><time>2026-04-11T14:15:57.001Z</time></trkpt><trkpt lat="45.66453712924761" lon="9.900365607069652"><ele>260.3333333333333</ele><time>2026-04-11T14:15:58.001Z</time></trkpt><trkpt lat="45.664537005478195" lon="9.900481911739702"><ele>260.0</ele><time>2026-04-11T14:15:59.001Z</time></trkpt><trkpt lat="45.664542557274565" lon="9.90058006873216"><ele>259.66666666666663</ele><time>2026-04-11T14:16:00.001Z</time></trkpt><trkpt lat="45.664562752635035" lon="9.90067945472365"><ele>259.3333333333333</ele><time>2026-04-11T14:16:02.001Z</time></trkpt><trkpt lat="45.664571187600004" lon="9.900805508630892"><ele>259.0</ele><time>2026-04-11T14:16:06.001Z</time></trkpt><trkpt lat="45.6645872581647" lon="9.900934638055652"><ele>258.8</ele><time>2026-04-11T14:16:09.001Z</time></trkpt><trkpt lat="45.66459592418836" lon="9.901065951486817"><ele>258.59999999999997</ele><time>2026-04-11T14:16:11.001Z</time></trkpt><trkpt lat="45.6645925994448" lon="9.901237968721572"><ele>258.4</ele><time>2026-04-11T14:16:13.001Z</time></trkpt><trkpt lat="45.664594000615686" lon="9.901351567454386"><ele>258.2</ele><time>2026-04-11T14:16:14.001Z</time></trkpt><trkpt lat="45.66459790414431" lon="9.9014908476892"><ele>258.0</ele><time>2026-04-11T14:16:15.001Z</time></trkpt><trkpt lat="45.66460407216193" lon="9.90163893939564"><ele>257.0</ele><time>2026-04-11T14:16:16.002Z</time></trkpt><trkpt lat="45.6646229341" lon="9.90177825974088"><ele>256.0</ele><time>2026-04-11T14:16:17.002Z</time></trkpt><trkpt lat="45.66463228577631" lon="9.901910491645651"><ele>255.0</ele><time>2026-04-11T14:16:18.002Z</time></trkpt><trkpt lat="45.66464438011492" lon="9.902054112197625"><ele>254.0</ele><time>2026-04-11T14:16:19.002Z</time></trkpt><trkpt lat="45.66463745433934" lon="9.902212685668184"><ele>253.0</ele><time>2026-04-11T14:16:20.002Z</time></trkpt><trkpt lat="45.6646521652565" lon="9.902371321646648"><ele>253.0</ele><time>2026-04-11T14:16:21.002Z</time></trkpt><trkpt lat="45.664663271680595" lon="9.902533883343688"><ele>253.0</ele><time>2026-04-11T14:16:22.002Z</time></trkpt><trkpt lat="45.66467742900296" lon="9.902692572658385"><ele>253.0</ele><time>2026-04-11T14:16:23.002Z</time></trkpt><trkpt lat="45.66470540167757" lon="9.902839974374809"><ele>253.0</ele><time>2026-04-11T14:16:24.002Z</time></trkpt><trkpt lat="45.664741326356285" lon="9.902979821533044"><ele>253.0</ele><time>2026-04-11T14:16:25.002Z</time></trkpt><trkpt lat="45.66477432349147" lon="9.903113620503694"><ele>252.4</ele><time>2026-04-11T14:16:26.002Z</time></trkpt><trkpt lat="45.66479331835459" lon="9.903260033284784"><ele>251.8</ele><time>2026-04-11T14:16:27.002Z</time></trkpt><trkpt lat="45.66481284545403" lon="9.903393932052651"><ele>251.2</ele><time>2026-04-11T14:16:28.002Z</time></trkpt><trkpt lat="45.66482418556321" lon="9.903527530076019"><ele>250.6</ele><time>2026-04-11T14:16:29.002Z</time></trkpt><trkpt lat="45.664835764365776" lon="9.90367020007596"><ele>250.0</ele><time>2026-04-11T14:16:30.002Z</time></trkpt><trkpt lat="45.66483854293173" lon="9.903816329317738"><ele>249.8</ele><time>2026-04-11T14:16:31.002Z</time></trkpt><trkpt lat="45.66484393193994" lon="9.903958689070876"><ele>249.6</ele><time>2026-04-11T14:16:32.002Z</time></trkpt><trkpt lat="45.6648513031953" lon="9.904086553497498"><ele>249.39999999999998</ele><time>2026-04-11T14:16:33.002Z</time></trkpt><trkpt lat="45.66485499437058" lon="9.904219468320711"><ele>249.2</ele><time>2026-04-11T14:16:34.002Z</time></trkpt><trkpt lat="45.664852679288586" lon="9.904365935465844"><ele>249.0</ele><time>2026-04-11T14:16:35.002Z</time></trkpt><trkpt lat="45.66484836664269" lon="9.904521750117937"><ele>249.0</ele><time>2026-04-11T14:16:36.002Z</time></trkpt><trkpt lat="45.6648417323801" lon="9.904675647398067"><ele>248.99999999999997</ele><time>2026-04-11T14:16:37.002Z</time></trkpt><trkpt lat="45.6648348782537" lon="9.904811462019852"><ele>248.99999999999997</ele><time>2026-04-11T14:16:38.002Z</time></trkpt><trkpt lat="45.664824958595666" lon="9.904934833345084"><ele>249.0</ele><time>2026-04-11T14:16:39.002Z</time></trkpt><trkpt lat="45.66481502462346" lon="9.905050299778736"><ele>249.0</ele><time>2026-04-11T14:16:40.002Z</time></trkpt><trkpt lat="45.66480271386972" lon="9.905164139265441"><ele>248.66666666666666</ele><time>2026-04-11T14:16:41.002Z</time></trkpt><trkpt lat="45.66479080119913" lon="9.905271656197831"><ele>248.33333333333331</ele><time>2026-04-11T14:16:42.002Z</time></trkpt><trkpt lat="45.66478254404795" lon="9.905374204351736"><ele>248.0</ele><time>2026-04-11T14:16:43.002Z</time></trkpt><trkpt lat="45.66478847817185" lon="9.905476494662137"><ele>247.66666666666666</ele><time>2026-04-11T14:16:44.002Z</time></trkpt><trkpt lat="45.66474901637983" lon="9.90558774004186"><ele>247.33333333333331</ele><time>2026-04-11T14:16:45.002Z</time></trkpt><trkpt lat="45.66475014907151" lon="9.905693614139421"><ele>247.0</ele><time>2026-04-11T14:16:46.002Z</time></trkpt><trkpt lat="45.66477713112921" lon="9.905816032027433"><ele>247.0</ele><time>2026-04-11T14:16:47.002Z</time></trkpt><trkpt lat="45.66480833785379" lon="9.905958723573782"><ele>247.0</ele><time>2026-04-11T14:16:48.002Z</time></trkpt><trkpt lat="45.664834313351705" lon="9.906095507873781"><ele>247.0</ele><time>2026-04-11T14:16:49.002Z</time></trkpt><trkpt lat="45.66487019261679" lon="9.906226753149769"><ele>247.0</ele><time>2026-04-11T14:16:50.002Z</time></trkpt><trkpt lat="45.66489478392314" lon="9.906350931025154"><ele>247.0</ele><time>2026-04-11T14:16:51.002Z</time></trkpt><trkpt lat="45.664916872746076" lon="9.906474469620346"><ele>246.99999999999997</ele><time>2026-04-11T14:16:52.002Z</time></trkpt><trkpt lat="45.664931924341104" lon="9.9065895000429"><ele>247.0</ele><time>2026-04-11T14:16:53.002Z</time></trkpt><trkpt lat="45.66495370383093" lon="9.906705267693367"><ele>247.0</ele><time>2026-04-11T14:16:54.003Z</time></trkpt><trkpt lat="45.664992328730655" lon="9.90682793757268"><ele>247.0</ele><time>2026-04-11T14:16:55.003Z</time></trkpt><trkpt lat="45.665016135678016" lon="9.906947218461097"><ele>246.99999999999997</ele><time>2026-04-11T14:16:56.003Z</time></trkpt><trkpt lat="45.66503620645343" lon="9.907072225566235"><ele>247.0</ele><time>2026-04-11T14:16:57.003Z</time></trkpt><trkpt lat="45.665061224876276" lon="9.907207868109065"><ele>247.0</ele><time>2026-04-11T14:16:58.003Z</time></trkpt><trkpt lat="45.665087720516276" lon="9.907346549228423"><ele>247.0</ele><time>2026-04-11T14:16:59.003Z</time></trkpt><trkpt lat="45.66511794598978" lon="9.90748761187777"><ele>247.0</ele><time>2026-04-11T14:17:00.003Z</time></trkpt><trkpt lat="45.66514555292513" lon="9.907621261914223"><ele>247.0</ele><time>2026-04-11T14:17:01.003Z</time></trkpt><trkpt lat="45.66517909249961" lon="9.907752522269195"><ele>247.0</ele><time>2026-04-11T14:17:02.003Z</time></trkpt><trkpt lat="45.6652151770546" lon="9.907886456674737"><ele>247.2</ele><time>2026-04-11T14:17:03.003Z</time></trkpt><trkpt lat="45.665240701931836" lon="9.9080238006894"><ele>247.39999999999998</ele><time>2026-04-11T14:17:04.003Z</time></trkpt><trkpt lat="45.66527624775928" lon="9.908152639070412"><ele>247.60000000000002</ele><time>2026-04-11T14:17:05.003Z</time></trkpt><trkpt lat="45.665339421261834" lon="9.908290685378022"><ele>247.8</ele><time>2026-04-11T14:17:06.003Z</time></trkpt><trkpt lat="45.66540260460039" lon="9.908426430045917"><ele>248.0</ele><time>2026-04-11T14:17:07.003Z</time></trkpt><trkpt lat="45.66547581661664" lon="9.908564449819046"><ele>246.75</ele><time>2026-04-11T14:17:08.003Z</time></trkpt><trkpt lat="45.665549480961104" lon="9.908704314345432"><ele>245.5</ele><time>2026-04-11T14:17:09.003Z</time></trkpt><trkpt lat="45.66562550297364" lon="9.908840621152237"><ele>244.25</ele><time>2026-04-11T14:17:10.003Z</time></trkpt><trkpt lat="45.66570479928424" lon="9.908980046063588"><ele>243.0</ele><time>2026-04-11T14:17:11.003Z</time></trkpt><trkpt lat="45.6657835075916" lon="9.909129490540696"><ele>243.0</ele><time>2026-04-11T14:17:12.003Z</time></trkpt><trkpt lat="45.66586765171148" lon="9.909269932829167"><ele>243.0</ele><time>2026-04-11T14:17:13.003Z</time></trkpt><trkpt lat="45.665951110257936" lon="9.909415903657225"><ele>243.0</ele><time>2026-04-11T14:17:14Z</time></trkpt><trkpt lat="45.66603728415094" lon="9.909576131745494"><ele>243.0</ele><time>2026-04-11T14:17:15Z</time></trkpt><trkpt lat="45.666124607564626" lon="9.909732622288141"><ele>244.0</ele><time>2026-04-11T14:17:16Z</time></trkpt><trkpt lat="45.666212967533546" lon="9.909891436698954"><ele>245.0</ele><time>2026-04-11T14:17:17Z</time></trkpt><trkpt lat="45.66630050922732" lon="9.910061550646239"><ele>246.0</ele><time>2026-04-11T14:17:18Z</time></trkpt><trkpt lat="45.666382321981835" lon="9.91024222116979"><ele>247.0</ele><time>2026-04-11T14:17:19Z</time></trkpt><trkpt lat="45.66646318957877" lon="9.910419730560523"><ele>247.5</ele><time>2026-04-11T14:17:20Z</time></trkpt><trkpt lat="45.66653543329975" lon="9.910591211336918"><ele>248.0</ele><time>2026-04-11T14:17:21Z</time></trkpt><trkpt lat="45.66660192938584" lon="9.9107525925811"><ele>248.5</ele><time>2026-04-11T14:17:22Z</time></trkpt><trkpt lat="45.666660938434426" lon="9.910902533495497"><ele>249.0</ele><time>2026-04-11T14:17:23Z</time></trkpt><trkpt lat="45.66670830550004" lon="9.911051947499999"><ele>249.79999999999998</ele><time>2026-04-11T14:17:24Z</time></trkpt><trkpt lat="45.66674487372413" lon="9.91120885986289"><ele>250.59999999999997</ele><time>2026-04-11T14:17:25Z</time></trkpt><trkpt lat="45.66678782137644" lon="9.911380605646574"><ele>251.4</ele><time>2026-04-11T14:17:26Z</time></trkpt><trkpt lat="45.666812107957156" lon="9.911516613661526"><ele>252.2</ele><time>2026-04-11T14:17:27Z</time></trkpt><trkpt lat="45.66684289548643" lon="9.911662346787997"><ele>253.0</ele><time>2026-04-11T14:17:28Z</time></trkpt><trkpt lat="45.66685947585005" lon="9.911772623847684"><ele>253.00000000000003</ele><time>2026-04-11T14:17:29Z</time></trkpt><trkpt lat="45.66686913238121" lon="9.911876036944479"><ele>253.0</ele><time>2026-04-11T14:17:30Z</time></trkpt><trkpt lat="45.66688693379504" lon="9.911969475825373"><ele>253.00000000000003</ele><time>2026-04-11T14:17:31Z</time></trkpt><trkpt lat="45.66690940871807" lon="9.912077071156933"><ele>253.00000000000003</ele><time>2026-04-11T14:17:32Z</time></trkpt><trkpt lat="45.66692942534747" lon="9.912171622274881"><ele>253.0</ele><time>2026-04-11T14:17:33Z</time></trkpt><trkpt lat="45.66694141807639" lon="9.912274548790746"><ele>253.00000000000003</ele><time>2026-04-11T14:17:34Z</time></trkpt><trkpt lat="45.66694326736159" lon="9.912368872258302"><ele>253.00000000000003</ele><time>2026-04-11T14:17:35Z</time></trkpt><trkpt lat="45.666937473376066" lon="9.912466569344051"><ele>252.99999999999997</ele><time>2026-04-11T14:17:36Z</time></trkpt><trkpt lat="45.666937446395124" lon="9.912564532188085"><ele>253.0</ele><time>2026-04-11T14:17:37Z</time></trkpt><trkpt lat="45.666938433660206" lon="9.91267313108558"><ele>253.0</ele><time>2026-04-11T14:17:38Z</time></trkpt><trkpt lat="45.66693929834397" lon="9.912790511541706"><ele>253.0</ele><time>2026-04-11T14:17:39Z</time></trkpt><trkpt lat="45.66692065571379" lon="9.912915352248948"><ele>252.99999999999997</ele><time>2026-04-11T14:17:40Z</time></trkpt><trkpt lat="45.66693429124699" lon="9.913054481728967"><ele>253.0</ele><time>2026-04-11T14:17:41Z</time></trkpt><trkpt lat="45.66693988833796" lon="9.913190924037453"><ele>252.75</ele><time>2026-04-11T14:17:42Z</time></trkpt><trkpt lat="45.66693230689104" lon="9.913348781032097"><ele>252.5</ele><time>2026-04-11T14:17:43Z</time></trkpt><trkpt lat="45.66694480832023" lon="9.913542958891457"><ele>252.25</ele><time>2026-04-11T14:17:44Z</time></trkpt><trkpt lat="45.666959051740406" lon="9.913746676883365"><ele>252.0</ele><time>2026-04-11T14:17:45Z</time></trkpt><trkpt lat="45.66698199067572" lon="9.913962489498639"><ele>251.66666666666669</ele><time>2026-04-11T14:17:46.001Z</time></trkpt><trkpt lat="45.666992300339416" lon="9.914190376129723"><ele>251.33333333333334</ele><time>2026-04-11T14:17:47.001Z</time></trkpt><trkpt lat="45.66701043641357" lon="9.914430454634225"><ele>251.0</ele><time>2026-04-11T14:17:48.001Z</time></trkpt><trkpt lat="45.66702953445735" lon="9.914662275833804"><ele>249.75</ele><time>2026-04-11T14:17:49.001Z</time></trkpt><trkpt lat="45.66705604618558" lon="9.914857495420978"><ele>248.5</ele><time>2026-04-11T14:17:50.001Z</time></trkpt><trkpt lat="45.667070835323884" lon="9.915031760735353"><ele>247.25</ele><time>2026-04-11T14:17:51.001Z</time></trkpt><trkpt lat="45.6670610616498" lon="9.915193576500453"><ele>246.0</ele><time>2026-04-11T14:17:52.001Z</time></trkpt><trkpt lat="45.66702937659049" lon="9.915327273167403"><ele>244.75</ele><time>2026-04-11T14:17:53.001Z</time></trkpt><trkpt lat="45.6669746242483" lon="9.915464782775393"><ele>243.5</ele><time>2026-04-11T14:17:54.001Z</time></trkpt><trkpt lat="45.66691293953475" lon="9.915605738195023"><ele>242.25</ele><time>2026-04-11T14:17:55.001Z</time></trkpt><trkpt lat="45.66686545662205" lon="9.915770545119399"><ele>241.0</ele><time>2026-04-11T14:17:56.001Z</time></trkpt><trkpt lat="45.66684930429456" lon="9.915959524543394"><ele>240.33333333333331</ele><time>2026-04-11T14:17:57.001Z</time></trkpt><trkpt lat="45.66683553155565" lon="9.91617023186254"><ele>239.66666666666669</ele><time>2026-04-11T14:17:58.001Z</time></trkpt><trkpt lat="45.666859263691954" lon="9.916405321515796"><ele>239.0</ele><time>2026-04-11T14:17:59.001Z</time></trkpt><trkpt lat="45.666905915346675" lon="9.916649482526562"><ele>238.33333333333334</ele><time>2026-04-11T14:18:00.001Z</time></trkpt><trkpt lat="45.666959984610834" lon="9.916888115700248"><ele>237.66666666666669</ele><time>2026-04-11T14:18:01.001Z</time></trkpt><trkpt lat="45.667023650511645" lon="9.917109111015247"><ele>237.0</ele><time>2026-04-11T14:18:02.001Z</time></trkpt><trkpt lat="45.66707121350292" lon="9.917345410112203"><ele>236.5</ele><time>2026-04-11T14:18:03.001Z</time></trkpt><trkpt lat="45.667117057242926" lon="9.917570263844182"><ele>236.0</ele><time>2026-04-11T14:18:04.001Z</time></trkpt><trkpt lat="45.66714139353063" lon="9.91777491435639"><ele>235.5</ele><time>2026-04-11T14:18:05.001Z</time></trkpt><trkpt lat="45.667146633814184" lon="9.917969752511036"><ele>235.0</ele><time>2026-04-11T14:18:06.001Z</time></trkpt><trkpt lat="45.66713274142826" lon="9.918159637469016"><ele>235.0</ele><time>2026-04-11T14:18:07.001Z</time></trkpt><trkpt lat="45.667095988083915" lon="9.918332282407665"><ele>235.0</ele><time>2026-04-11T14:18:08.001Z</time></trkpt><trkpt lat="45.667048720457906" lon="9.918479242872786"><ele>235.0</ele><time>2026-04-11T14:18:09.001Z</time></trkpt><trkpt lat="45.66699865306346" lon="9.918631074074323"><ele>235.0</ele><time>2026-04-11T14:18:10.001Z</time></trkpt><trkpt lat="45.66695110948782" lon="9.918814291487141"><ele>234.0</ele><time>2026-04-11T14:18:11.001Z</time></trkpt><trkpt lat="45.66690049110654" lon="9.919008816524837"><ele>233.0</ele><time>2026-04-11T14:18:12.001Z</time></trkpt><trkpt lat="45.666853275882076" lon="9.91920737544283"><ele>232.0</ele><time>2026-04-11T14:18:13.001Z</time></trkpt><trkpt lat="45.66681615652169" lon="9.91941442449661"><ele>231.0</ele><time>2026-04-11T14:18:14.001Z</time></trkpt><trkpt lat="45.66679320950338" lon="9.919625272936033"><ele>230.75</ele><time>2026-04-11T14:18:15.001Z</time></trkpt><trkpt lat="45.66677861622988" lon="9.919838988737114"><ele>230.5</ele><time>2026-04-11T14:18:16.001Z</time></trkpt><trkpt lat="45.66677640523038" lon="9.920042512544564"><ele>230.25</ele><time>2026-04-11T14:18:17.001Z</time></trkpt><trkpt lat="45.666770448104266" lon="9.92024038966451"><ele>230.0</ele><time>2026-04-11T14:18:18.001Z</time></trkpt><trkpt lat="45.66676759336266" lon="9.920427998724884"><ele>230.0</ele><time>2026-04-11T14:18:19.001Z</time></trkpt><trkpt lat="45.66676674224216" lon="9.920609342873602"><ele>230.0</ele><time>2026-04-11T14:18:20.001Z</time></trkpt><trkpt lat="45.66677057990297" lon="9.920784078773265"><ele>230.0</ele><time>2026-04-11T14:18:21.001Z</time></trkpt><trkpt lat="45.666768690713" lon="9.920956386767152"><ele>230.0</ele><time>2026-04-11T14:18:22.002Z</time></trkpt><trkpt lat="45.666772277416804" lon="9.92112822558879"><ele>229.0</ele><time>2026-04-11T14:18:23.002Z</time></trkpt><trkpt lat="45.66678317311561" lon="9.92130716346901"><ele>228.0</ele><time>2026-04-11T14:18:24.002Z</time></trkpt><trkpt lat="45.666803560716836" lon="9.92149742488971"><ele>227.0</ele><time>2026-04-11T14:18:25.002Z</time></trkpt><trkpt lat="45.66682823974266" lon="9.921700220968145"><ele>226.0</ele><time>2026-04-11T14:18:26.002Z</time></trkpt><trkpt lat="45.66684169838771" lon="9.921918464161664"><ele>225.33333333333331</ele><time>2026-04-11T14:18:27.002Z</time></trkpt><trkpt lat="45.666854571512" lon="9.922145051857191"><ele>224.66666666666669</ele><time>2026-04-11T14:18:28.002Z</time></trkpt><trkpt lat="45.666860776144546" lon="9.922377157634733"><ele>224.0</ele><time>2026-04-11T14:18:29.002Z</time></trkpt><trkpt lat="45.666840172381114" lon="9.92260555549085"><ele>224.0</ele><time>2026-04-11T14:18:30.002Z</time></trkpt><trkpt lat="45.666796393980576" lon="9.922832129652816"><ele>224.0</ele><time>2026-04-11T14:18:31.002Z</time></trkpt><trkpt lat="45.66674991450008" lon="9.923031910345792"><ele>224.0</ele><time>2026-04-11T14:18:32.002Z</time></trkpt><trkpt lat="45.66670518459421" lon="9.923185942275879"><ele>224.0</ele><time>2026-04-11T14:18:33.002Z</time></trkpt><trkpt lat="45.66666066534395" lon="9.923311213607736"><ele>224.0</ele><time>2026-04-11T14:18:34.002Z</time></trkpt><trkpt lat="45.666615388149" lon="9.923402459321265"><ele>223.99999999999997</ele><time>2026-04-11T14:18:35.002Z</time></trkpt><trkpt lat="45.666563709326184" lon="9.923485844383885"><ele>223.99999999999997</ele><time>2026-04-11T14:18:36.002Z</time></trkpt><trkpt lat="45.66648290244753" lon="9.923570143934922"><ele>224.0</ele><time>2026-04-11T14:18:37.002Z</time></trkpt><trkpt lat="45.666402123082484" lon="9.923675109381373"><ele>224.0</ele><time>2026-04-11T14:18:38.002Z</time></trkpt><trkpt lat="45.66631759148806" lon="9.923813754827162"><ele>224.0</ele><time>2026-04-11T14:18:39.002Z</time></trkpt><trkpt lat="45.6662055214139" lon="9.923951403612971"><ele>224.0</ele><time>2026-04-11T14:18:40.002Z</time></trkpt><trkpt lat="45.666063395324706" lon="9.924078593369083"><ele>224.0</ele><time>2026-04-11T14:18:41.002Z</time></trkpt><trkpt lat="45.66590973915325" lon="9.92419650049294"><ele>223.33333333333334</ele><time>2026-04-11T14:18:42.002Z</time></trkpt><trkpt lat="45.66577149734306" lon="9.92430968584761"><ele>222.66666666666669</ele><time>2026-04-11T14:18:43.002Z</time></trkpt><trkpt lat="45.66562788797258" lon="9.924414019579617"><ele>222.0</ele><time>2026-04-11T14:18:44.002Z</time></trkpt><trkpt lat="45.66548910327234" lon="9.924509236777137"><ele>222.0</ele><time>2026-04-11T14:18:45.002Z</time></trkpt><trkpt lat="45.665354521282495" lon="9.924603286234193"><ele>222.0</ele><time>2026-04-11T14:18:46.002Z</time></trkpt><trkpt lat="45.665209495655795" lon="9.924682753481111"><ele>222.0</ele><time>2026-04-11T14:18:47.002Z</time></trkpt><trkpt lat="45.66505915076395" lon="9.924753353150216"><ele>221.75</ele><time>2026-04-11T14:18:48.002Z</time></trkpt><trkpt lat="45.664916450201275" lon="9.92482051655009"><ele>221.5</ele><time>2026-04-11T14:18:49.002Z</time></trkpt><trkpt lat="45.66478534423212" lon="9.92489610606047"><ele>221.25</ele><time>2026-04-11T14:18:50.002Z</time></trkpt><trkpt lat="45.66467433292455" lon="9.924979629061083"><ele>221.0</ele><time>2026-04-11T14:18:51.002Z</time></trkpt><trkpt lat="45.66456274679402" lon="9.925094346827523"><ele>221.75</ele><time>2026-04-11T14:18:52.002Z</time></trkpt><trkpt lat="45.66444899914177" lon="9.925222186637987"><ele>222.5</ele><time>2026-04-11T14:18:53.002Z</time></trkpt><trkpt lat="45.6643381091712" lon="9.925364932940186"><ele>223.25</ele><time>2026-04-11T14:18:54.002Z</time></trkpt><trkpt lat="45.66422597863257" lon="9.925502769154157"><ele>224.0</ele><time>2026-04-11T14:18:55.002Z</time></trkpt><trkpt lat="45.66412432596181" lon="9.925625661692772"><ele>224.0</ele><time>2026-04-11T14:18:56.002Z</time></trkpt><trkpt lat="45.66402151404222" lon="9.9257331317827"><ele>224.0</ele><time>2026-04-11T14:18:57.002Z</time></trkpt><trkpt lat="45.66393243472025" lon="9.92583121139547"><ele>224.0</ele><time>2026-04-11T14:18:58.002Z</time></trkpt><trkpt lat="45.66386440600489" lon="9.925947331605272"><ele>224.0</ele><time>2026-04-11T14:18:59.003Z</time></trkpt><trkpt lat="45.663824922142155" lon="9.926085287605067"><ele>224.0</ele><time>2026-04-11T14:19:00.003Z</time></trkpt><trkpt lat="45.663838074266025" lon="9.926240260896703"><ele>224.0</ele><time>2026-04-11T14:19:01.003Z</time></trkpt><trkpt lat="45.663851672043684" lon="9.926400634202972"><ele>224.0</ele><time>2026-04-11T14:19:02.003Z</time></trkpt><trkpt lat="45.663848455468425" lon="9.926582836015003"><ele>224.0</ele><time>2026-04-11T14:19:03.003Z</time></trkpt><trkpt lat="45.66385873275873" lon="9.926799054243057"><ele>224.0</ele><time>2026-04-11T14:19:04.003Z</time></trkpt><trkpt lat="45.663871640631776" lon="9.927017999766866"><ele>224.0</ele><time>2026-04-11T14:19:05.003Z</time></trkpt><trkpt lat="45.663875804246366" lon="9.927231324289114"><ele>224.0</ele><time>2026-04-11T14:19:06.003Z</time></trkpt><trkpt lat="45.6638626203913" lon="9.927435575552437"><ele>224.0</ele><time>2026-04-11T14:19:07.003Z</time></trkpt><trkpt lat="45.66385128825602" lon="9.927635995296255"><ele>224.0</ele><time>2026-04-11T14:19:08.003Z</time></trkpt><trkpt lat="45.66384155919317" lon="9.927841319987584"><ele>224.0</ele><time>2026-04-11T14:19:09.003Z</time></trkpt><trkpt lat="45.66383834339544" lon="9.928056392849989"><ele>224.0</ele><time>2026-04-11T14:19:10.003Z</time></trkpt><trkpt lat="45.66384517666613" lon="9.928284410951886"><ele>224.33333333333334</ele><time>2026-04-11T14:19:11.003Z</time></trkpt><trkpt lat="45.66385376943408" lon="9.928520007710006"><ele>224.66666666666669</ele><time>2026-04-11T14:19:12.003Z</time></trkpt><trkpt lat="45.66384646407227" lon="9.92876024669034"><ele>225.0</ele><time>2026-04-11T14:19:13.003Z</time></trkpt><trkpt lat="45.66385852949937" lon="9.928988235552326"><ele>225.0</ele><time>2026-04-11T14:19:14.003Z</time></trkpt><trkpt lat="45.6638716930471" lon="9.929214943971623"><ele>225.0</ele><time>2026-04-11T14:19:15.003Z</time></trkpt><trkpt lat="45.663881937354766" lon="9.929432160106566"><ele>225.0</ele><time>2026-04-11T14:19:16.003Z</time></trkpt><trkpt lat="45.66387978583184" lon="9.929638672106652"><ele>225.4</ele><time>2026-04-11T14:19:17.003Z</time></trkpt><trkpt lat="45.66387038067182" lon="9.929823567866906"><ele>225.8</ele><time>2026-04-11T14:19:18.003Z</time></trkpt><trkpt lat="45.6638598632479" lon="9.929979895372538"><ele>226.2</ele><time>2026-04-11T14:19:19.003Z</time></trkpt><trkpt lat="45.663846260575426" lon="9.930114656935467"><ele>226.6</ele><time>2026-04-11T14:19:20Z</time></trkpt><trkpt lat="45.66384112686676" lon="9.930237338106755"><ele>227.0</ele><time>2026-04-11T14:19:21Z</time></trkpt><trkpt lat="45.663826353837756" lon="9.930332645709148"><ele>227.50000000000003</ele><time>2026-04-11T14:19:22Z</time></trkpt><trkpt lat="45.66381569520023" lon="9.93044203726504"><ele>228.0</ele><time>2026-04-11T14:19:23Z</time></trkpt><trkpt lat="45.66382152082287" lon="9.930536935317182"><ele>228.5</ele><time>2026-04-11T14:19:24Z</time></trkpt><trkpt lat="45.663835574178144" lon="9.93068729668683"><ele>229.0</ele><time>2026-04-11T14:19:26Z</time></trkpt><trkpt lat="45.663843918821385" lon="9.930782336376973"><ele>229.50000000000003</ele><time>2026-04-11T14:20:01.001Z</time></trkpt><trkpt lat="45.663860987038575" lon="9.930924043557479"><ele>230.0</ele><time>2026-04-11T14:20:25.001Z</time></trkpt><trkpt lat="45.664033927400446" lon="9.930958665461212"><ele>230.00000000000003</ele><time>2026-04-11T14:20:26.001Z</time></trkpt><trkpt lat="45.664136201199206" lon="9.930999350566836"><ele>230.0</ele><time>2026-04-11T14:20:27.001Z</time></trkpt><trkpt lat="45.66423553386371" lon="9.931021684950753"><ele>230.0</ele><time>2026-04-11T14:20:28.001Z</time></trkpt><trkpt lat="45.66432320055608" lon="9.931044995967824"><ele>230.0</ele><time>2026-04-11T14:20:29.001Z</time></trkpt><trkpt lat="45.66439787100977" lon="9.931068903345649"><ele>230.00000000000003</ele><time>2026-04-11T14:20:30.001Z</time></trkpt><trkpt lat="45.66446505743929" lon="9.931092134523922"><ele>230.0</ele><time>2026-04-11T14:20:31.002Z</time></trkpt><trkpt lat="45.66452926833351" lon="9.931121298692744"><ele>230.0</ele><time>2026-04-11T14:20:32.002Z</time></trkpt><trkpt lat="45.66463635955904" lon="9.93117777242166"><ele>230.0</ele><time>2026-04-11T14:20:34.002Z</time></trkpt><trkpt lat="45.66472157745066" lon="9.931253429015305"><ele>230.0</ele><time>2026-04-11T14:20:36.002Z</time></trkpt><trkpt lat="45.66478896823314" lon="9.931369558416028"><ele>230.0</ele><time>2026-04-11T14:20:38.002Z</time></trkpt><trkpt lat="45.66486886223791" lon="9.931492986747633"><ele>230.0</ele><time>2026-04-11T14:20:40.002Z</time></trkpt><trkpt lat="45.66493473851293" lon="9.931565426995025"><ele>230.0</ele><time>2026-04-11T14:20:41.002Z</time></trkpt><trkpt lat="45.665016308256064" lon="9.931667281692123"><ele>230.0</ele><time>2026-04-11T14:20:42.002Z</time></trkpt><trkpt lat="45.66510298590337" lon="9.931787599427468"><ele>230.0</ele><time>2026-04-11T14:20:43.002Z</time></trkpt><trkpt lat="45.66520606234356" lon="9.931934196135751"><ele>230.0</ele><time>2026-04-11T14:20:44.002Z</time></trkpt><trkpt lat="45.6653190800209" lon="9.932099163789529"><ele>229.75</ele><time>2026-04-11T14:20:45.002Z</time></trkpt><trkpt lat="45.66541587526611" lon="9.93224755046448"><ele>229.5</ele><time>2026-04-11T14:20:46.002Z</time></trkpt><trkpt lat="45.66550492856078" lon="9.932384481675827"><ele>229.25</ele><time>2026-04-11T14:20:47.002Z</time></trkpt><trkpt lat="45.66557996960097" lon="9.932509771851457"><ele>229.0</ele><time>2026-04-11T14:20:48.002Z</time></trkpt><trkpt lat="45.665653715956026" lon="9.93262475945427"><ele>229.0</ele><time>2026-04-11T14:20:49.002Z</time></trkpt><trkpt lat="45.66572930109886" lon="9.932742770137345"><ele>228.99999999999997</ele><time>2026-04-11T14:20:50.002Z</time></trkpt><trkpt lat="45.665802017306916" lon="9.93285688557122"><ele>228.99999999999997</ele><time>2026-04-11T14:20:51.002Z</time></trkpt><trkpt lat="45.665872438735974" lon="9.932967810708115"><ele>229.0</ele><time>2026-04-11T14:20:52.002Z</time></trkpt><trkpt lat="45.66593246496453" lon="9.933075063027822"><ele>229.0</ele><time>2026-04-11T14:20:53.002Z</time></trkpt><trkpt lat="45.66598945357772" lon="9.933169722239722"><ele>229.0</ele><time>2026-04-11T14:20:54.002Z</time></trkpt><trkpt lat="45.666044861091024" lon="9.93326556988713"><ele>228.99999999999997</ele><time>2026-04-11T14:20:55.002Z</time></trkpt><trkpt lat="45.6661033844865" lon="9.933364365629608"><ele>228.99999999999997</ele><time>2026-04-11T14:20:56.002Z</time></trkpt><trkpt lat="45.66617033136329" lon="9.933474433428922"><ele>229.0</ele><time>2026-04-11T14:20:57.002Z</time></trkpt><trkpt lat="45.66624304961801" lon="9.933586349716137"><ele>229.0</ele><time>2026-04-11T14:20:58.002Z</time></trkpt><trkpt lat="45.66633950402602" lon="9.933722930911536"><ele>229.5</ele><time>2026-04-11T14:20:59.002Z</time></trkpt><trkpt lat="45.666424738140876" lon="9.93385009833549"><ele>230.0</ele><time>2026-04-11T14:21:00.002Z</time></trkpt><trkpt lat="45.66650342035239" lon="9.933977243800765"><ele>230.5</ele><time>2026-04-11T14:21:01.002Z</time></trkpt><trkpt lat="45.66659243050868" lon="9.934101120701904"><ele>231.0</ele><time>2026-04-11T14:21:02.002Z</time></trkpt><trkpt lat="45.66666998931448" lon="9.934238608982913"><ele>231.0</ele><time>2026-04-11T14:21:03.002Z</time></trkpt><trkpt lat="45.66675715983072" lon="9.934375062352885"><ele>231.0</ele><time>2026-04-11T14:21:04.002Z</time></trkpt><trkpt lat="45.666862865910986" lon="9.93451665597627"><ele>231.0</ele><time>2026-04-11T14:21:05.002Z</time></trkpt><trkpt lat="45.66694505388578" lon="9.934663131060985"><ele>231.0</ele><time>2026-04-11T14:21:06.002Z</time></trkpt><trkpt lat="45.667025869559566" lon="9.934789356979723"><ele>231.16666666666666</ele><time>2026-04-11T14:21:07.003Z</time></trkpt><trkpt lat="45.66710097198408" lon="9.934904005326063"><ele>231.33333333333331</ele><time>2026-04-11T14:21:08.003Z</time></trkpt><trkpt lat="45.667159388024615" lon="9.934992064178578"><ele>231.5</ele><time>2026-04-11T14:21:09.003Z</time></trkpt><trkpt lat="45.66720611208664" lon="9.935063175470214"><ele>231.66666666666666</ele><time>2026-04-11T14:21:10.003Z</time></trkpt><trkpt lat="45.667251125014175" lon="9.935127207921019"><ele>231.83333333333331</ele><time>2026-04-11T14:21:11.003Z</time></trkpt><trkpt lat="45.667327239135304" lon="9.935261837008014"><ele>232.0</ele><time>2026-04-11T14:21:13.003Z</time></trkpt><trkpt lat="45.66739350834639" lon="9.93536862744102"><ele>231.99999999999997</ele><time>2026-04-11T14:21:15.003Z</time></trkpt><trkpt lat="45.667439788749064" lon="9.935436766548714"><ele>232.0</ele><time>2026-04-11T14:21:17.003Z</time></trkpt><trkpt lat="45.667500905316565" lon="9.935517780490624"><ele>232.0</ele><time>2026-04-11T14:21:21.003Z</time></trkpt><trkpt lat="45.66753468373666" lon="9.935599972530346"><ele>232.0</ele><time>2026-04-11T14:21:24.003Z</time></trkpt><trkpt lat="45.66757941006441" lon="9.935682258807596"><ele>231.99999999999997</ele><time>2026-04-11T14:21:27Z</time></trkpt><trkpt lat="45.66762569264269" lon="9.935775884922501"><ele>232.0</ele><time>2026-04-11T14:21:32Z</time></trkpt><trkpt lat="45.66767256875456" lon="9.935886350417668"><ele>231.83333333333331</ele><time>2026-04-11T14:21:35Z</time></trkpt><trkpt lat="45.66772077073234" lon="9.936007770088866"><ele>231.66666666666666</ele><time>2026-04-11T14:21:37Z</time></trkpt><trkpt lat="45.667729743182726" lon="9.936105901679449"><ele>231.5</ele><time>2026-04-11T14:21:38Z</time></trkpt><trkpt lat="45.66774856350074" lon="9.936204939223973"><ele>231.33333333333331</ele><time>2026-04-11T14:21:39Z</time></trkpt><trkpt lat="45.6677741514121" lon="9.936299682278428"><ele>231.16666666666666</ele><time>2026-04-11T14:21:40Z</time></trkpt><trkpt lat="45.66780574477263" lon="9.936388865775205"><ele>231.0</ele><time>2026-04-11T14:21:41Z</time></trkpt><trkpt lat="45.66783996158604" lon="9.936505102554815"><ele>231.4</ele><time>2026-04-11T14:21:43Z</time></trkpt><trkpt lat="45.6678786831253" lon="9.936635000020605"><ele>231.8</ele><time>2026-04-11T14:21:46Z</time></trkpt><trkpt lat="45.667925640444516" lon="9.936780897174359"><ele>232.20000000000002</ele><time>2026-04-11T14:21:48.001Z</time></trkpt><trkpt lat="45.667966668904384" lon="9.936889304840738"><ele>232.60000000000002</ele><time>2026-04-11T14:21:50.001Z</time></trkpt><trkpt lat="45.668005038297956" lon="9.937006371631552"><ele>233.0</ele><time>2026-04-11T14:21:52.001Z</time></trkpt><trkpt lat="45.66803286125665" lon="9.937108117217484"><ele>233.00000000000003</ele><time>2026-04-11T14:21:55.001Z</time></trkpt><trkpt lat="45.6680675858504" lon="9.937193898649761"><ele>233.0</ele><time>2026-04-11T14:21:58.001Z</time></trkpt><trkpt lat="45.6681108894025" lon="9.937317266375873"><ele>233.0</ele><time>2026-04-11T14:22:00.001Z</time></trkpt><trkpt lat="45.66813380600378" lon="9.937402361198055"><ele>233.0</ele><time>2026-04-11T14:22:01.001Z</time></trkpt><trkpt lat="45.668176058788795" lon="9.93755484448716"><ele>233.00000000000003</ele><time>2026-04-11T14:22:03.001Z</time></trkpt><trkpt lat="45.66821895055835" lon="9.937658314415772"><ele>233.0</ele><time>2026-04-11T14:22:05.001Z</time></trkpt><trkpt lat="45.66825382010797" lon="9.937766125416479"><ele>233.00000000000003</ele><time>2026-04-11T14:22:07.001Z</time></trkpt><trkpt lat="45.668289813072946" lon="9.937875615119738"><ele>233.0</ele><time>2026-04-11T14:22:09.001Z</time></trkpt><trkpt lat="45.66834751727689" lon="9.937993876146342"><ele>233.0</ele><time>2026-04-11T14:22:11.001Z</time></trkpt><trkpt lat="45.66838163880381" lon="9.93807208521703"><ele>233.0</ele><time>2026-04-11T14:22:12.001Z</time></trkpt><trkpt lat="45.668415109198754" lon="9.93816386778525"><ele>233.00000000000003</ele><time>2026-04-11T14:22:13.001Z</time></trkpt><trkpt lat="45.66844858504164" lon="9.938261799659275"><ele>233.0</ele><time>2026-04-11T14:22:14.001Z</time></trkpt><trkpt lat="45.6684696295025" lon="9.938366235414986"><ele>233.00000000000003</ele><time>2026-04-11T14:22:15.001Z</time></trkpt><trkpt lat="45.66851004733231" lon="9.938468574503355"><ele>233.0</ele><time>2026-04-11T14:22:16.001Z</time></trkpt><trkpt lat="45.6685464738325" lon="9.93856400518212"><ele>233.0</ele><time>2026-04-11T14:22:17.001Z</time></trkpt><trkpt lat="45.668569082259864" lon="9.938660848028393"><ele>233.0</ele><time>2026-04-11T14:22:18.001Z</time></trkpt><trkpt lat="45.66860535846602" lon="9.938765422688554"><ele>233.00000000000003</ele><time>2026-04-11T14:22:19.001Z</time></trkpt><trkpt lat="45.668642289626746" lon="9.938882264851452"><ele>233.0</ele><time>2026-04-11T14:22:20.001Z</time></trkpt><trkpt lat="45.66868055846588" lon="9.939001585311134"><ele>233.0</ele><time>2026-04-11T14:22:21.001Z</time></trkpt><trkpt lat="45.668714756728626" lon="9.93911017685024"><ele>233.0</ele><time>2026-04-11T14:22:22.001Z</time></trkpt><trkpt lat="45.668751634197356" lon="9.939209961301383"><ele>233.0</ele><time>2026-04-11T14:22:23.001Z</time></trkpt><trkpt lat="45.66881178497575" lon="9.939350277514974"><ele>233.0</ele><time>2026-04-11T14:22:25.001Z</time></trkpt><trkpt lat="45.66884695634028" lon="9.939479331922392"><ele>233.0</ele><time>2026-04-11T14:22:27.001Z</time></trkpt><trkpt lat="45.66887470132153" lon="9.939610541919594"><ele>232.8</ele><time>2026-04-11T14:22:29.002Z</time></trkpt><trkpt lat="45.66889414374119" lon="9.939730776233965"><ele>232.60000000000002</ele><time>2026-04-11T14:22:32.002Z</time></trkpt><trkpt lat="45.668912553305304" lon="9.93988823025767"><ele>232.39999999999998</ele><time>2026-04-11T14:22:34.002Z</time></trkpt><trkpt lat="45.66891807988067" lon="9.940033825861173"><ele>232.2</ele><time>2026-04-11T14:22:35.002Z</time></trkpt><trkpt lat="45.668910464971084" lon="9.940204479814957"><ele>232.0</ele><time>2026-04-11T14:22:36.002Z</time></trkpt><trkpt lat="45.66889874530806" lon="9.940373302039626"><ele>231.75</ele><time>2026-04-11T14:22:37.002Z</time></trkpt><trkpt lat="45.66888679607939" lon="9.940556534332428"><ele>231.5</ele><time>2026-04-11T14:22:38.002Z</time></trkpt><trkpt lat="45.66887825061394" lon="9.940763557580743"><ele>231.25</ele><time>2026-04-11T14:22:39.002Z</time></trkpt><trkpt lat="45.66886415804073" lon="9.940983384788952"><ele>231.0</ele><time>2026-04-11T14:22:40.002Z</time></trkpt><trkpt lat="45.66883786810382" lon="9.941192725470735"><ele>229.5</ele><time>2026-04-11T14:22:41.002Z</time></trkpt><trkpt lat="45.66883146559035" lon="9.941401524646214"><ele>228.0</ele><time>2026-04-11T14:22:42.002Z</time></trkpt><trkpt lat="45.66883087012017" lon="9.941601505567586"><ele>226.5</ele><time>2026-04-11T14:22:43.002Z</time></trkpt><trkpt lat="45.66885340795213" lon="9.941794151639344"><ele>225.0</ele><time>2026-04-11T14:22:44.002Z</time></trkpt><trkpt lat="45.66888478815756" lon="9.941966782541671"><ele>221.75</ele><time>2026-04-11T14:22:45.002Z</time></trkpt><trkpt lat="45.66895877616557" lon="9.942118829339766"><ele>218.5</ele><time>2026-04-11T14:22:46.002Z</time></trkpt><trkpt lat="45.669049922607314" lon="9.94225399436251"><ele>215.25</ele><time>2026-04-11T14:22:47.002Z</time></trkpt><trkpt lat="45.66913362927746" lon="9.942390270686808"><ele>212.0</ele><time>2026-04-11T14:22:48.002Z</time></trkpt><trkpt lat="45.669218803904805" lon="9.942536461120536"><ele>214.33333333333334</ele><time>2026-04-11T14:22:49.002Z</time></trkpt><trkpt lat="45.66931448135813" lon="9.942702460946387"><ele>216.66666666666669</ele><time>2026-04-11T14:22:50.002Z</time></trkpt><trkpt lat="45.669424949358906" lon="9.942866453162107"><ele>219.0</ele><time>2026-04-11T14:22:51.002Z</time></trkpt><trkpt lat="45.6695394820245" lon="9.943028288521957"><ele>219.0</ele><time>2026-04-11T14:22:52.002Z</time></trkpt><trkpt lat="45.66966202356567" lon="9.943177011132995"><ele>219.0</ele><time>2026-04-11T14:22:53.002Z</time></trkpt><trkpt lat="45.66979368302826" lon="9.943318907509134"><ele>219.0</ele><time>2026-04-11T14:22:54.002Z</time></trkpt><trkpt lat="45.66991163626998" lon="9.943439504633254"><ele>220.75</ele><time>2026-04-11T14:22:55.002Z</time></trkpt><trkpt lat="45.67003196946187" lon="9.943545635368714"><ele>222.5</ele><time>2026-04-11T14:22:56.002Z</time></trkpt><trkpt lat="45.67013625894762" lon="9.943671160929037"><ele>224.25</ele><time>2026-04-11T14:22:57.002Z</time></trkpt><trkpt lat="45.67024545742724" lon="9.943790810690334"><ele>226.0</ele><time>2026-04-11T14:22:58.002Z</time></trkpt><trkpt lat="45.67035056276099" lon="9.943902099306543"><ele>226.0</ele><time>2026-04-11T14:22:59.002Z</time></trkpt><trkpt lat="45.67043624460822" lon="9.944061538135525"><ele>226.0</ele><time>2026-04-11T14:23:00.002Z</time></trkpt><trkpt lat="45.670523675036186" lon="9.944241138588225"><ele>226.0</ele><time>2026-04-11T14:23:01.002Z</time></trkpt><trkpt lat="45.67059833788202" lon="9.944421128712934"><ele>226.0</ele><time>2026-04-11T14:23:02.002Z</time></trkpt><trkpt lat="45.6706689796181" lon="9.94458807971309"><ele>222.25</ele><time>2026-04-11T14:23:03.002Z</time></trkpt><trkpt lat="45.670743750427135" lon="9.944749144461767"><ele>218.5</ele><time>2026-04-11T14:23:04.002Z</time></trkpt><trkpt lat="45.67083165244666" lon="9.944906056261326"><ele>214.75</ele><time>2026-04-11T14:23:05.003Z</time></trkpt><trkpt lat="45.67094276102642" lon="9.945052335620574"><ele>211.0</ele><time>2026-04-11T14:23:06.003Z</time></trkpt><trkpt lat="45.67107366017882" lon="9.94516334383562"><ele>209.75</ele><time>2026-04-11T14:23:07.003Z</time></trkpt><trkpt lat="45.67119264313239" lon="9.945285634627181"><ele>208.5</ele><time>2026-04-11T14:23:08.003Z</time></trkpt><trkpt lat="45.67130707572243" lon="9.945375942118952"><ele>207.25</ele><time>2026-04-11T14:23:09.003Z</time></trkpt><trkpt lat="45.671408528066586" lon="9.94545600599284"><ele>206.0</ele><time>2026-04-11T14:23:10.003Z</time></trkpt><trkpt lat="45.671514210433656" lon="9.945515378982728"><ele>206.0</ele><time>2026-04-11T14:23:11.003Z</time></trkpt><trkpt lat="45.67159896649252" lon="9.945602151766622"><ele>206.0</ele><time>2026-04-11T14:23:12.003Z</time></trkpt><trkpt lat="45.67168265312151" lon="9.945666666255885"><ele>206.0</ele><time>2026-04-11T14:23:13.003Z</time></trkpt><trkpt lat="45.671768965574586" lon="9.945735894506905"><ele>206.0</ele><time>2026-04-11T14:23:14.003Z</time></trkpt><trkpt lat="45.671850742118366" lon="9.945836382413447"><ele>206.0</ele><time>2026-04-11T14:23:15.003Z</time></trkpt><trkpt lat="45.67191464066025" lon="9.945986912155414"><ele>205.5</ele><time>2026-04-11T14:23:16.003Z</time></trkpt><trkpt lat="45.67195203065008" lon="9.94616723491371"><ele>205.0</ele><time>2026-04-11T14:23:17.003Z</time></trkpt><trkpt lat="45.67194783231856" lon="9.946358605131554"><ele>204.5</ele><time>2026-04-11T14:23:18.003Z</time></trkpt><trkpt lat="45.67189584841291" lon="9.946527843691511"><ele>204.0</ele><time>2026-04-11T14:23:19.003Z</time></trkpt><trkpt lat="45.671815624005106" lon="9.946660010471719"><ele>204.6</ele><time>2026-04-11T14:23:20.003Z</time></trkpt><trkpt lat="45.671762427654855" lon="9.94680775211387"><ele>205.2</ele><time>2026-04-11T14:23:21.003Z</time></trkpt><trkpt lat="45.67168819578708" lon="9.946927487468528"><ele>205.79999999999998</ele><time>2026-04-11T14:23:22.003Z</time></trkpt><trkpt lat="45.671629288101805" lon="9.947050590766251"><ele>206.39999999999998</ele><time>2026-04-11T14:23:23.003Z</time></trkpt><trkpt lat="45.67157383987394" lon="9.947164813915672"><ele>207.0</ele><time>2026-04-11T14:23:24.003Z</time></trkpt><trkpt lat="45.67152632936245" lon="9.947273900630313"><ele>207.0</ele><time>2026-04-11T14:23:25.003Z</time></trkpt><trkpt lat="45.67147801303707" lon="9.947386702458171"><ele>207.0</ele><time>2026-04-11T14:23:26.003Z</time></trkpt><trkpt lat="45.67142770078149" lon="9.947503258333056"><ele>207.0</ele><time>2026-04-11T14:23:27.003Z</time></trkpt><trkpt lat="45.671385497103024" lon="9.94762587537067"><ele>207.0</ele><time>2026-04-11T14:23:28.003Z</time></trkpt><trkpt lat="45.67135314212631" lon="9.947758071458901"><ele>207.0</ele><time>2026-04-11T14:23:29.003Z</time></trkpt><trkpt lat="45.67132509348277" lon="9.947879934634628"><ele>206.8</ele><time>2026-04-11T14:23:30.003Z</time></trkpt><trkpt lat="45.67130092289005" lon="9.947997644728824"><ele>206.6</ele><time>2026-04-11T14:23:31.003Z</time></trkpt><trkpt lat="45.671277504461735" lon="9.948118562122968"><ele>206.4</ele><time>2026-04-11T14:23:32Z</time></trkpt><trkpt lat="45.67124955355148" lon="9.94824413417536"><ele>206.20000000000002</ele><time>2026-04-11T14:23:33Z</time></trkpt><trkpt lat="45.67121951696757" lon="9.948380990532824"><ele>206.0</ele><time>2026-04-11T14:23:34Z</time></trkpt><trkpt lat="45.6711865432945" lon="9.9485280424719"><ele>206.0</ele><time>2026-04-11T14:23:35Z</time></trkpt><trkpt lat="45.6711616771178" lon="9.9486870138668"><ele>206.0</ele><time>2026-04-11T14:23:36Z</time></trkpt><trkpt lat="45.67114268781026" lon="9.948850625018887"><ele>206.0</ele><time>2026-04-11T14:23:37Z</time></trkpt><trkpt lat="45.67112870272073" lon="9.949016323841983"><ele>206.0</ele><time>2026-04-11T14:23:38Z</time></trkpt><trkpt lat="45.67112347907964" lon="9.949186574868355"><ele>206.25</ele><time>2026-04-11T14:23:39Z</time></trkpt><trkpt lat="45.67111876991776" lon="9.949360443890715"><ele>206.5</ele><time>2026-04-11T14:23:40Z</time></trkpt><trkpt lat="45.671098280777024" lon="9.949531235346646"><ele>206.75</ele><time>2026-04-11T14:23:41Z</time></trkpt><trkpt lat="45.671093593634204" lon="9.949708290893172"><ele>207.0</ele><time>2026-04-11T14:23:42Z</time></trkpt><trkpt lat="45.67109613988596" lon="9.949903060474954"><ele>206.33333333333331</ele><time>2026-04-11T14:23:43Z</time></trkpt><trkpt lat="45.671095519473056" lon="9.950117585461822"><ele>205.66666666666666</ele><time>2026-04-11T14:23:44Z</time></trkpt><trkpt lat="45.67110685148488" lon="9.950332337915407"><ele>205.0</ele><time>2026-04-11T14:23:45Z</time></trkpt><trkpt lat="45.67110552408197" lon="9.950558113001039"><ele>205.0</ele><time>2026-04-11T14:23:46Z</time></trkpt><trkpt lat="45.67110705217101" lon="9.950791420821798"><ele>205.0</ele><time>2026-04-11T14:23:47Z</time></trkpt><trkpt lat="45.671104803244404" lon="9.951015613166796"><ele>205.0</ele><time>2026-04-11T14:23:48Z</time></trkpt><trkpt lat="45.671093997869505" lon="9.951201095504675"><ele>205.0</ele><time>2026-04-11T14:23:49Z</time></trkpt><trkpt lat="45.671084996016326" lon="9.951346949717253"><ele>205.0</ele><time>2026-04-11T14:23:50Z</time></trkpt><trkpt lat="45.67109080363505" lon="9.951487752863118"><ele>205.0</ele><time>2026-04-11T14:23:51Z</time></trkpt><trkpt lat="45.67109710418999" lon="9.951612392272304"><ele>205.0</ele><time>2026-04-11T14:23:52Z</time></trkpt><trkpt lat="45.67109982012406" lon="9.951715521003692"><ele>205.0</ele><time>2026-04-11T14:23:53Z</time></trkpt><trkpt lat="45.67109519252295" lon="9.951890635655353"><ele>205.2</ele><time>2026-04-11T14:23:55Z</time></trkpt><trkpt lat="45.67104809056596" lon="9.952015467778118"><ele>205.4</ele><time>2026-04-11T14:23:57Z</time></trkpt><trkpt lat="45.6709441162207" lon="9.95212850569048"><ele>205.60000000000002</ele><time>2026-04-11T14:23:59Z</time></trkpt><trkpt lat="45.670891294276885" lon="9.952189772484774"><ele>205.8</ele><time>2026-04-11T14:24:00Z</time></trkpt><trkpt lat="45.670905640487554" lon="9.952328539680678"><ele>206.0</ele><time>2026-04-11T14:24:01Z</time></trkpt><trkpt lat="45.67095464978931" lon="9.952417243242333"><ele>206.00000000000003</ele><time>2026-04-11T14:24:02Z</time></trkpt><trkpt lat="45.671015738219815" lon="9.952484938948087"><ele>206.0</ele><time>2026-04-11T14:24:03Z</time></trkpt><trkpt lat="45.67106188421481" lon="9.952567141280698"><ele>206.0</ele><time>2026-04-11T14:24:04Z</time></trkpt><trkpt lat="45.6710721801816" lon="9.952670819296415"><ele>206.0</ele><time>2026-04-11T14:24:05Z</time></trkpt><trkpt lat="45.671079493069804" lon="9.952808412731896"><ele>206.00000000000003</ele><time>2026-04-11T14:24:06Z</time></trkpt><trkpt lat="45.67107198884282" lon="9.952977874865223"><ele>206.0</ele><time>2026-04-11T14:24:07Z</time></trkpt><trkpt lat="45.671069066398985" lon="9.9531555086578"><ele>205.25</ele><time>2026-04-11T14:24:08.001Z</time></trkpt><trkpt lat="45.6710665332753" lon="9.953344201143201"><ele>204.5</ele><time>2026-04-11T14:24:09.001Z</time></trkpt><trkpt lat="45.67105250179142" lon="9.953539241041316"><ele>203.75</ele><time>2026-04-11T14:24:10.001Z</time></trkpt><trkpt lat="45.671041395167045" lon="9.953730350481992"><ele>203.0</ele><time>2026-04-11T14:24:11.001Z</time></trkpt><trkpt lat="45.67102507423331" lon="9.953910059690516"><ele>202.8</ele><time>2026-04-11T14:24:12.001Z</time></trkpt><trkpt lat="45.671009506250186" lon="9.954085195873196"><ele>202.60000000000002</ele><time>2026-04-11T14:24:13.001Z</time></trkpt><trkpt lat="45.67099162583259" lon="9.954246320316521"><ele>202.39999999999998</ele><time>2026-04-11T14:24:14.001Z</time></trkpt><trkpt lat="45.670975405768615" lon="9.954387468704095"><ele>202.2</ele><time>2026-04-11T14:24:15.001Z</time></trkpt><trkpt lat="45.67095568292242" lon="9.954507395530088"><ele>202.0</ele><time>2026-04-11T14:24:16.001Z</time></trkpt><trkpt lat="45.670939861266824" lon="9.95461623622796"><ele>202.0</ele><time>2026-04-11T14:24:17.001Z</time></trkpt><trkpt lat="45.67092494786516" lon="9.954726074503466"><ele>202.0</ele><time>2026-04-11T14:24:18.001Z</time></trkpt><trkpt lat="45.67090703592412" lon="9.954829084166045"><ele>202.0</ele><time>2026-04-11T14:24:19.001Z</time></trkpt><trkpt lat="45.670877604301644" lon="9.954910441634606"><ele>202.0</ele><time>2026-04-11T14:24:20.001Z</time></trkpt><trkpt lat="45.67083502420612" lon="9.954980266769427"><ele>202.0</ele><time>2026-04-11T14:24:21.001Z</time></trkpt><trkpt lat="45.67077570298241" lon="9.955044260284474"><ele>202.0</ele><time>2026-04-11T14:24:22.001Z</time></trkpt><trkpt lat="45.670705547420944" lon="9.955103856696697"><ele>202.0</ele><time>2026-04-11T14:24:23.001Z</time></trkpt><trkpt lat="45.670650209699424" lon="9.955176724423822"><ele>202.0</ele><time>2026-04-11T14:24:24.001Z</time></trkpt><trkpt lat="45.67062848071495" lon="9.955272708544287"><ele>202.0</ele><time>2026-04-11T14:24:25.001Z</time></trkpt><trkpt lat="45.670629119624465" lon="9.95537658050093"><ele>202.0</ele><time>2026-04-11T14:24:26.001Z</time></trkpt><trkpt lat="45.67066042393036" lon="9.955464433965487"><ele>202.0</ele><time>2026-04-11T14:24:27.001Z</time></trkpt><trkpt lat="45.67070625732014" lon="9.95553107139692"><ele>202.0</ele><time>2026-04-11T14:24:28.001Z</time></trkpt><trkpt lat="45.67075240219551" lon="9.955597549872714"><ele>202.0</ele><time>2026-04-11T14:24:29.001Z</time></trkpt><trkpt lat="45.670787897900475" lon="9.955697527034514"><ele>202.0</ele><time>2026-04-11T14:24:30.001Z</time></trkpt><trkpt lat="45.67079874565945" lon="9.955825976006997"><ele>202.0</ele><time>2026-04-11T14:24:31.001Z</time></trkpt><trkpt lat="45.67079591532944" lon="9.955968680352123"><ele>202.0</ele><time>2026-04-11T14:24:32.001Z</time></trkpt><trkpt lat="45.67078954081897" lon="9.956109601821552"><ele>202.0</ele><time>2026-04-11T14:24:33.001Z</time></trkpt><trkpt lat="45.670777992353536" lon="9.956270682240076"><ele>202.0</ele><time>2026-04-11T14:24:34.001Z</time></trkpt><trkpt lat="45.67074575941392" lon="9.956467694639937"><ele>202.0</ele><time>2026-04-11T14:24:35.001Z</time></trkpt><trkpt lat="45.67071964149058" lon="9.956695578637929"><ele>202.0</ele><time>2026-04-11T14:24:36.001Z</time></trkpt><trkpt lat="45.670709359913936" lon="9.956919373260074"><ele>202.0</ele><time>2026-04-11T14:24:37.001Z</time></trkpt><trkpt lat="45.67067788518554" lon="9.95711870463601"><ele>202.33333333333331</ele><time>2026-04-11T14:24:38.001Z</time></trkpt><trkpt lat="45.67064314038078" lon="9.957335815034321"><ele>202.66666666666669</ele><time>2026-04-11T14:24:39.001Z</time></trkpt><trkpt lat="45.670621806704794" lon="9.957570700250038"><ele>203.0</ele><time>2026-04-11T14:24:40.001Z</time></trkpt><trkpt lat="45.67061824306236" lon="9.957790486407601"><ele>203.0</ele><time>2026-04-11T14:24:41.001Z</time></trkpt><trkpt lat="45.670624652495526" lon="9.95800715722206"><ele>203.0</ele><time>2026-04-11T14:24:42.001Z</time></trkpt><trkpt lat="45.670638539510854" lon="9.958227807414266"><ele>203.0</ele><time>2026-04-11T14:24:43.001Z</time></trkpt><trkpt lat="45.670651681760674" lon="9.95843896941585"><ele>203.0</ele><time>2026-04-11T14:24:44.001Z</time></trkpt><trkpt lat="45.670663203364995" lon="9.95863961634071"><ele>203.0</ele><time>2026-04-11T14:24:45.002Z</time></trkpt><trkpt lat="45.67067562639532" lon="9.958837523916447"><ele>203.0</ele><time>2026-04-11T14:24:46.002Z</time></trkpt><trkpt lat="45.6706800969601" lon="9.959023516417584"><ele>203.0</ele><time>2026-04-11T14:24:47.002Z</time></trkpt><trkpt lat="45.67068545364579" lon="9.959198832336673"><ele>203.0</ele><time>2026-04-11T14:24:48.002Z</time></trkpt><trkpt lat="45.67069451695112" lon="9.95936940603001"><ele>203.0</ele><time>2026-04-11T14:24:49.002Z</time></trkpt><trkpt lat="45.67070213141165" lon="9.9595121803167"><ele>203.0</ele><time>2026-04-11T14:24:50.002Z</time></trkpt><trkpt lat="45.67070935605674" lon="9.95964764641522"><ele>203.0</ele><time>2026-04-11T14:24:51.002Z</time></trkpt><trkpt lat="45.670736789546275" lon="9.960126635779297"><ele>202.5</ele><time>2026-04-11T14:24:52.002Z</time></trkpt><trkpt lat="45.67074844885778" lon="9.960314346050753"><ele>202.0</ele><time>2026-04-11T14:24:53.002Z</time></trkpt><trkpt lat="45.67075696262738" lon="9.960507520993959"><ele>201.5</ele><time>2026-04-11T14:24:54.002Z</time></trkpt><trkpt lat="45.670770714605425" lon="9.96070418361321"><ele>201.0</ele><time>2026-04-11T14:24:55.002Z</time></trkpt><trkpt lat="45.67078653645649" lon="9.960898304797691"><ele>201.0</ele><time>2026-04-11T14:24:56.002Z</time></trkpt><trkpt lat="45.67079840789004" lon="9.961101814530055"><ele>201.0</ele><time>2026-04-11T14:24:57.002Z</time></trkpt><trkpt lat="45.67080798725821" lon="9.961311234437755"><ele>201.0</ele><time>2026-04-11T14:24:58.002Z</time></trkpt><trkpt lat="45.67082166236564" lon="9.961515906299445"><ele>201.0</ele><time>2026-04-11T14:24:59.002Z</time></trkpt><trkpt lat="45.67082133892043" lon="9.961717674729387"><ele>201.0</ele><time>2026-04-11T14:25:00.002Z</time></trkpt><trkpt lat="45.670822630591985" lon="9.961905152568983"><ele>201.0</ele><time>2026-04-11T14:25:01.002Z</time></trkpt><trkpt lat="45.67082035415865" lon="9.962078089954451"><ele>201.0</ele><time>2026-04-11T14:25:02.002Z</time></trkpt><trkpt lat="45.67083015684532" lon="9.96222841557327"><ele>201.0</ele><time>2026-04-11T14:25:03.002Z</time></trkpt><trkpt lat="45.6708277468047" lon="9.962354108976239"><ele>201.0</ele><time>2026-04-11T14:25:04.002Z</time></trkpt><trkpt lat="45.67078469948705" lon="9.962442087648393"><ele>201.0</ele><time>2026-04-11T14:25:05.002Z</time></trkpt><trkpt lat="45.67072008318416" lon="9.96251098129803"><ele>201.0</ele><time>2026-04-11T14:25:06.002Z</time></trkpt><trkpt lat="45.67067280723165" lon="9.962595453317006"><ele>201.0</ele><time>2026-04-11T14:25:07.002Z</time></trkpt><trkpt lat="45.67068246436509" lon="9.96268858582921"><ele>201.0</ele><time>2026-04-11T14:25:08.002Z</time></trkpt><trkpt lat="45.670722622250686" lon="9.962784219141025"><ele>201.0</ele><time>2026-04-11T14:25:09.002Z</time></trkpt><trkpt lat="45.67081951845596" lon="9.962847774024558"><ele>201.0</ele><time>2026-04-11T14:25:10.002Z</time></trkpt><trkpt lat="45.670890132675176" lon="9.962928895029176"><ele>201.5</ele><time>2026-04-11T14:25:11.002Z</time></trkpt><trkpt lat="45.67091991373987" lon="9.963072676533315"><ele>202.0</ele><time>2026-04-11T14:25:12.002Z</time></trkpt><trkpt lat="45.6709261241807" lon="9.96324827866361"><ele>202.5</ele><time>2026-04-11T14:25:13.002Z</time></trkpt><trkpt lat="45.67093811410885" lon="9.963457484641966"><ele>203.0</ele><time>2026-04-11T14:25:14.002Z</time></trkpt><trkpt lat="45.67096885565568" lon="9.963703479742165"><ele>203.0</ele><time>2026-04-11T14:25:15.002Z</time></trkpt><trkpt lat="45.671020356950365" lon="9.96394439351474"><ele>203.0</ele><time>2026-04-11T14:25:16.002Z</time></trkpt><trkpt lat="45.67106383005224" lon="9.964182544409812"><ele>203.0</ele><time>2026-04-11T14:25:17.002Z</time></trkpt><trkpt lat="45.671112422371905" lon="9.964434396503936"><ele>206.0</ele><time>2026-04-11T14:25:18.002Z</time></trkpt><trkpt lat="45.67116292598619" lon="9.9647051497019"><ele>209.0</ele><time>2026-04-11T14:25:19.002Z</time></trkpt><trkpt lat="45.67121237032482" lon="9.964989063591528"><ele>212.0</ele><time>2026-04-11T14:25:20.002Z</time></trkpt><trkpt lat="45.6712658569119" lon="9.965266801737764"><ele>212.0</ele><time>2026-04-11T14:25:21.003Z</time></trkpt><trkpt lat="45.671309479555845" lon="9.965540514789385"><ele>212.0</ele><time>2026-04-11T14:25:22.003Z</time></trkpt><trkpt lat="45.671357134677535" lon="9.965811514249909"><ele>212.0</ele><time>2026-04-11T14:25:23.003Z</time></trkpt><trkpt lat="45.67141444091269" lon="9.966090920856002"><ele>210.66666666666669</ele><time>2026-04-11T14:25:24.003Z</time></trkpt><trkpt lat="45.671445037107524" lon="9.96638137281919"><ele>209.33333333333331</ele><time>2026-04-11T14:25:25.003Z</time></trkpt><trkpt lat="45.67149319982241" lon="9.966660169950298"><ele>208.0</ele><time>2026-04-11T14:25:26.003Z</time></trkpt><trkpt lat="45.67155524637138" lon="9.966921238916434"><ele>206.0</ele><time>2026-04-11T14:25:27.003Z</time></trkpt><trkpt lat="45.671598992946706" lon="9.967200274631939"><ele>204.0</ele><time>2026-04-11T14:25:28.003Z</time></trkpt><trkpt lat="45.671644342485564" lon="9.96747236650813"><ele>202.0</ele><time>2026-04-11T14:25:29.003Z</time></trkpt><trkpt lat="45.67169048982176" lon="9.967738722193614"><ele>201.0</ele><time>2026-04-11T14:25:30.003Z</time></trkpt><trkpt lat="45.67173409508142" lon="9.968002731873858"><ele>200.0</ele><time>2026-04-11T14:25:31.003Z</time></trkpt><trkpt lat="45.671776435212095" lon="9.968246921813696"><ele>199.0</ele><time>2026-04-11T14:25:32.003Z</time></trkpt><trkpt lat="45.67181668063535" lon="9.968477796728202"><ele>198.0</ele><time>2026-04-11T14:25:33.003Z</time></trkpt><trkpt lat="45.67186398744438" lon="9.968703854609172"><ele>197.0</ele><time>2026-04-11T14:25:34.003Z</time></trkpt><trkpt lat="45.67191801363351" lon="9.96892378707533"><ele>196.0</ele><time>2026-04-11T14:25:35.003Z</time></trkpt><trkpt lat="45.671998528021355" lon="9.969158265824309"><ele>197.0</ele><time>2026-04-11T14:25:36.003Z</time></trkpt><trkpt lat="45.67208672454881" lon="9.969395963862736"><ele>198.0</ele><time>2026-04-11T14:25:37.003Z</time></trkpt><trkpt lat="45.672178988032904" lon="9.969640991340665"><ele>199.0</ele><time>2026-04-11T14:25:37.999Z</time></trkpt><trkpt lat="45.672276929795416" lon="9.969896033178179"><ele>196.0</ele><time>2026-04-11T14:25:38.999Z</time></trkpt><trkpt lat="45.67236435039121" lon="9.970150602657139"><ele>193.0</ele><time>2026-04-11T14:25:39.999Z</time></trkpt><trkpt lat="45.672451518057976" lon="9.970405424454508"><ele>190.0</ele><time>2026-04-11T14:25:40.999Z</time></trkpt><trkpt lat="45.67253499558993" lon="9.970658118245476"><ele>189.0</ele><time>2026-04-11T14:25:41.999Z</time></trkpt><trkpt lat="45.67261263578844" lon="9.970905144632265"><ele>188.0</ele><time>2026-04-11T14:25:42.999Z</time></trkpt><trkpt lat="45.672686142320735" lon="9.971156403741407"><ele>187.0</ele><time>2026-04-11T14:25:43.999Z</time></trkpt><trkpt lat="45.67276167189454" lon="9.971415715237322"><ele>190.0</ele><time>2026-04-11T14:25:44.999Z</time></trkpt><trkpt lat="45.67283822757228" lon="9.97167712524409"><ele>193.0</ele><time>2026-04-11T14:25:45.999Z</time></trkpt><trkpt lat="45.67290807594356" lon="9.971946137963561"><ele>196.0</ele><time>2026-04-11T14:25:46.999Z</time></trkpt><trkpt lat="45.67296740401852" lon="9.972216603636964"><ele>196.0</ele><time>2026-04-11T14:25:47.999Z</time></trkpt><trkpt lat="45.67300584536254" lon="9.972502400290466"><ele>196.0</ele><time>2026-04-11T14:25:48.999Z</time></trkpt><trkpt lat="45.67305775250517" lon="9.972789214887136"><ele>196.0</ele><time>2026-04-11T14:25:49.999Z</time></trkpt><trkpt lat="45.67306104114477" lon="9.97308669376348"><ele>194.33333333333331</ele><time>2026-04-11T14:25:50.999Z</time></trkpt><trkpt lat="45.67308433685308" lon="9.973364509346828"><ele>192.66666666666666</ele><time>2026-04-11T14:25:51.999Z</time></trkpt><trkpt lat="45.67314198889325" lon="9.973619955450154"><ele>191.0</ele><time>2026-04-11T14:25:52.999Z</time></trkpt><trkpt lat="45.67320640059315" lon="9.973874932344533"><ele>191.0</ele><time>2026-04-11T14:25:53.999Z</time></trkpt><trkpt lat="45.67327867423714" lon="9.974115700579418"><ele>191.0</ele><time>2026-04-11T14:25:54.999Z</time></trkpt><trkpt lat="45.67335747468677" lon="9.974349833285421"><ele>191.0</ele><time>2026-04-11T14:25:55.999Z</time></trkpt><trkpt lat="45.67344999829894" lon="9.97457205461313"><ele>191.0</ele><time>2026-04-11T14:25:56.999Z</time></trkpt><trkpt lat="45.67352412419216" lon="9.974786673484605"><ele>191.0</ele><time>2026-04-11T14:25:58Z</time></trkpt><trkpt lat="45.67359415876472" lon="9.97497539030044"><ele>191.0</ele><time>2026-04-11T14:25:59Z</time></trkpt><trkpt lat="45.67366647126366" lon="9.97516221918746"><ele>191.0</ele><time>2026-04-11T14:26:00Z</time></trkpt><trkpt lat="45.67373465723239" lon="9.975338352545974"><ele>191.0</ele><time>2026-04-11T14:26:01Z</time></trkpt><trkpt lat="45.673807038976264" lon="9.975510845960683"><ele>191.0</ele><time>2026-04-11T14:26:02Z</time></trkpt><trkpt lat="45.673891198087595" lon="9.975671831936975"><ele>191.0</ele><time>2026-04-11T14:26:03Z</time></trkpt><trkpt lat="45.673984526148026" lon="9.975834600604399"><ele>189.33333333333331</ele><time>2026-04-11T14:26:04Z</time></trkpt><trkpt lat="45.67408885350429" lon="9.97598952558906"><ele>187.66666666666666</ele><time>2026-04-11T14:26:05Z</time></trkpt><trkpt lat="45.67419440100581" lon="9.976145401054469"><ele>186.0</ele><time>2026-04-11T14:26:06Z</time></trkpt><trkpt lat="45.67431284450699" lon="9.97629872134244"><ele>186.0</ele><time>2026-04-11T14:26:07Z</time></trkpt><trkpt lat="45.67441828127292" lon="9.976447542650167"><ele>186.0</ele><time>2026-04-11T14:26:08Z</time></trkpt><trkpt lat="45.67452917182353" lon="9.976594449796147"><ele>186.0</ele><time>2026-04-11T14:26:09Z</time></trkpt><trkpt lat="45.674623669286795" lon="9.976740231626682"><ele>186.0</ele><time>2026-04-11T14:26:10Z</time></trkpt><trkpt lat="45.67472704046828" lon="9.976891735898281"><ele>186.25</ele><time>2026-04-11T14:26:11Z</time></trkpt><trkpt lat="45.67483773615165" lon="9.977029551847938"><ele>186.5</ele><time>2026-04-11T14:26:12Z</time></trkpt><trkpt lat="45.67493952854182" lon="9.977177679943784"><ele>186.75</ele><time>2026-04-11T14:26:13Z</time></trkpt><trkpt lat="45.675040320726936" lon="9.977336238009618"><ele>187.0</ele><time>2026-04-11T14:26:14Z</time></trkpt><trkpt lat="45.67513950709279" lon="9.977491696057722"><ele>186.66666666666669</ele><time>2026-04-11T14:26:15Z</time></trkpt><trkpt lat="45.67523518824292" lon="9.977659607386625"><ele>186.33333333333334</ele><time>2026-04-11T14:26:16Z</time></trkpt><trkpt lat="45.6753176116547" lon="9.977843317641598"><ele>186.0</ele><time>2026-04-11T14:26:17Z</time></trkpt><trkpt lat="45.675396957377814" lon="9.978047905801214"><ele>187.0</ele><time>2026-04-11T14:26:18Z</time></trkpt><trkpt lat="45.67546215456326" lon="9.978252470162529"><ele>188.0</ele><time>2026-04-11T14:26:19Z</time></trkpt><trkpt lat="45.67552915962071" lon="9.978463747082536"><ele>189.0</ele><time>2026-04-11T14:26:20Z</time></trkpt><trkpt lat="45.67559368341317" lon="9.978668997962565"><ele>189.0</ele><time>2026-04-11T14:26:21Z</time></trkpt><trkpt lat="45.67565175091098" lon="9.978856764570274"><ele>189.0</ele><time>2026-04-11T14:26:22Z</time></trkpt><trkpt lat="45.67569938442951" lon="9.979026871322024"><ele>189.0</ele><time>2026-04-11T14:26:23Z</time></trkpt><trkpt lat="45.67575391349676" lon="9.97920778584384"><ele>189.0</ele><time>2026-04-11T14:26:24.001Z</time></trkpt><trkpt lat="45.67581831800835" lon="9.97938506282961"><ele>187.66666666666666</ele><time>2026-04-11T14:26:25.001Z</time></trkpt><trkpt lat="45.67587900789785" lon="9.979576903673776"><ele>186.33333333333331</ele><time>2026-04-11T14:26:26.001Z</time></trkpt><trkpt lat="45.67594370317433" lon="9.979782509470422"><ele>185.0</ele><time>2026-04-11T14:26:27.001Z</time></trkpt><trkpt lat="45.67600604906988" lon="9.980005050581983"><ele>184.66666666666666</ele><time>2026-04-11T14:26:28.001Z</time></trkpt><trkpt lat="45.676078720559644" lon="9.980248192374004"><ele>184.33333333333334</ele><time>2026-04-11T14:26:29.001Z</time></trkpt><trkpt lat="45.67613921168076" lon="9.980515769219224"><ele>184.0</ele><time>2026-04-11T14:26:30.001Z</time></trkpt><trkpt lat="45.67618005749173" lon="9.980787978435027"><ele>186.66666666666669</ele><time>2026-04-11T14:26:31.001Z</time></trkpt><trkpt lat="45.67619043574836" lon="9.98106939355786"><ele>189.33333333333334</ele><time>2026-04-11T14:26:32.001Z</time></trkpt><trkpt lat="45.67618301000482" lon="9.981357470816258"><ele>192.0</ele><time>2026-04-11T14:26:33.001Z</time></trkpt><trkpt lat="45.676152603470044" lon="9.981642137617829"><ele>191.0</ele><time>2026-04-11T14:26:34.001Z</time></trkpt><trkpt lat="45.676138149380115" lon="9.981903598996318"><ele>190.0</ele><time>2026-04-11T14:26:35.001Z</time></trkpt><trkpt lat="45.67611726049724" lon="9.9821561824602"><ele>189.0</ele><time>2026-04-11T14:26:36.001Z</time></trkpt><trkpt lat="45.67609797201592" lon="9.98239517272155"><ele>189.33333333333334</ele><time>2026-04-11T14:26:37.001Z</time></trkpt><trkpt lat="45.67607781040967" lon="9.98262590770625"><ele>189.66666666666669</ele><time>2026-04-11T14:26:38.001Z</time></trkpt><trkpt lat="45.67609277001266" lon="9.982850390395418"><ele>190.0</ele><time>2026-04-11T14:26:39.001Z</time></trkpt><trkpt lat="45.67611148457318" lon="9.983079306813968"><ele>190.66666666666669</ele><time>2026-04-11T14:26:40.001Z</time></trkpt><trkpt lat="45.676143424787256" lon="9.983308844445832"><ele>191.33333333333334</ele><time>2026-04-11T14:26:41.001Z</time></trkpt><trkpt lat="45.676190097415365" lon="9.983536860471368"><ele>192.0</ele><time>2026-04-11T14:26:42.001Z</time></trkpt><trkpt lat="45.67625564124371" lon="9.983777936973107"><ele>192.0</ele><time>2026-04-11T14:26:43.001Z</time></trkpt><trkpt lat="45.676321113983555" lon="9.984035655492786"><ele>192.0</ele><time>2026-04-11T14:26:44.001Z</time></trkpt><trkpt lat="45.676386959707784" lon="9.984288804273836"><ele>192.0</ele><time>2026-04-11T14:26:45.001Z</time></trkpt><trkpt lat="45.67645711296529" lon="9.984556316683632"><ele>192.33333333333331</ele><time>2026-04-11T14:26:46.001Z</time></trkpt><trkpt lat="45.67652714595666" lon="9.984823513909042"><ele>192.66666666666666</ele><time>2026-04-11T14:26:47.001Z</time></trkpt><trkpt lat="45.6765978319248" lon="9.98508783403837"><ele>193.0</ele><time>2026-04-11T14:26:48.001Z</time></trkpt><trkpt lat="45.67666360928073" lon="9.985336912914638"><ele>193.66666666666666</ele><time>2026-04-11T14:26:49.001Z</time></trkpt><trkpt lat="45.67672457900106" lon="9.985560852397597"><ele>194.33333333333331</ele><time>2026-04-11T14:26:50.001Z</time></trkpt><trkpt lat="45.67676731773389" lon="9.985770114179868"><ele>195.0</ele><time>2026-04-11T14:26:51.001Z</time></trkpt><trkpt lat="45.67682921093571" lon="9.98595884182832"><ele>194.0</ele><time>2026-04-11T14:26:52.001Z</time></trkpt><trkpt lat="45.67687552978814" lon="9.986148560294321"><ele>193.0</ele><time>2026-04-11T14:26:53.001Z</time></trkpt><trkpt lat="45.67692102054787" lon="9.98631948717039"><ele>192.0</ele><time>2026-04-11T14:26:54.001Z</time></trkpt><trkpt lat="45.67695534348069" lon="9.98646772179973"><ele>191.0</ele><time>2026-04-11T14:26:55.001Z</time></trkpt><trkpt lat="45.67699454361812" lon="9.98662464173342"><ele>195.5</ele><time>2026-04-11T14:26:56.002Z</time></trkpt><trkpt lat="45.67703103875497" lon="9.986767948046232"><ele>200.0</ele><time>2026-04-11T14:26:57.002Z</time></trkpt><trkpt lat="45.677066744456596" lon="9.98691598075445"><ele>204.5</ele><time>2026-04-11T14:26:58.002Z</time></trkpt><trkpt lat="45.67710277755383" lon="9.987074949700151"><ele>209.0</ele><time>2026-04-11T14:26:59.002Z</time></trkpt><trkpt lat="45.67714048720596" lon="9.987243094740217"><ele>209.0</ele><time>2026-04-11T14:27:00.002Z</time></trkpt><trkpt lat="45.67718888233495" lon="9.987416933917174"><ele>209.0</ele><time>2026-04-11T14:27:01.002Z</time></trkpt><trkpt lat="45.67723404105748" lon="9.987592051456723"><ele>209.0</ele><time>2026-04-11T14:27:02.002Z</time></trkpt><trkpt lat="45.67727195238737" lon="9.987776393188835"><ele>209.0</ele><time>2026-04-11T14:27:03.002Z</time></trkpt><trkpt lat="45.6772750772924" lon="9.987971151476913"><ele>208.0</ele><time>2026-04-11T14:27:04.002Z</time></trkpt><trkpt lat="45.67730329772737" lon="9.988153230199066"><ele>207.0</ele><time>2026-04-11T14:27:05.002Z</time></trkpt><trkpt lat="45.677291511874564" lon="9.988338986487177"><ele>206.0</ele><time>2026-04-11T14:27:06.002Z</time></trkpt><trkpt lat="45.67727311711694" lon="9.98851223069235"><ele>205.0</ele><time>2026-04-11T14:27:07.002Z</time></trkpt><trkpt lat="45.677243346141644" lon="9.98868718929597"><ele>204.75</ele><time>2026-04-11T14:27:08.002Z</time></trkpt><trkpt lat="45.67720677618206" lon="9.988873328879436"><ele>204.5</ele><time>2026-04-11T14:27:09.002Z</time></trkpt><trkpt lat="45.67716581489413" lon="9.989056409618406"><ele>204.25</ele><time>2026-04-11T14:27:10.002Z</time></trkpt><trkpt lat="45.67711189576959" lon="9.989244317547035"><ele>204.0</ele><time>2026-04-11T14:27:11.002Z</time></trkpt><trkpt lat="45.67706459541807" lon="9.989432192872242"><ele>204.0</ele><time>2026-04-11T14:27:12.002Z</time></trkpt><trkpt lat="45.67701982536418" lon="9.989624169133158"><ele>204.0</ele><time>2026-04-11T14:27:13.002Z</time></trkpt><trkpt lat="45.676967252449735" lon="9.989813553929832"><ele>204.0</ele><time>2026-04-11T14:27:14.002Z</time></trkpt><trkpt lat="45.67692430224779" lon="9.989992291761336"><ele>204.0</ele><time>2026-04-11T14:27:15.002Z</time></trkpt><trkpt lat="45.67687927154353" lon="9.99019005608327"><ele>200.0</ele><time>2026-04-11T14:27:16.002Z</time></trkpt><trkpt lat="45.6768284355804" lon="9.990384204239657"><ele>196.0</ele><time>2026-04-11T14:27:17.002Z</time></trkpt><trkpt lat="45.67677059669493" lon="9.990575720392835"><ele>192.0</ele><time>2026-04-11T14:27:18.002Z</time></trkpt><trkpt lat="45.67672261254699" lon="9.990767063398403"><ele>188.0</ele><time>2026-04-11T14:27:19.002Z</time></trkpt><trkpt lat="45.67668774791557" lon="9.990966175900624"><ele>188.0</ele><time>2026-04-11T14:27:20.002Z</time></trkpt><trkpt lat="45.676675622003835" lon="9.991168094292592"><ele>188.0</ele><time>2026-04-11T14:27:21.002Z</time></trkpt><trkpt lat="45.67669388235863" lon="9.991362722915003"><ele>188.0</ele><time>2026-04-11T14:27:22.002Z</time></trkpt><trkpt lat="45.67673380820961" lon="9.991561111670245"><ele>188.0</ele><time>2026-04-11T14:27:23.002Z</time></trkpt><trkpt lat="45.676815519399405" lon="9.991740515332697"><ele>186.75</ele><time>2026-04-11T14:27:24.002Z</time></trkpt><trkpt lat="45.67688118309465" lon="9.99191837318135"><ele>185.5</ele><time>2026-04-11T14:27:25.002Z</time></trkpt><trkpt lat="45.676936967743785" lon="9.992094892937736"><ele>184.25</ele><time>2026-04-11T14:27:26.002Z</time></trkpt><trkpt lat="45.676983596252136" lon="9.992271523087148"><ele>183.0</ele><time>2026-04-11T14:27:27.002Z</time></trkpt><trkpt lat="45.67703603877237" lon="9.992447276853413"><ele>186.75</ele><time>2026-04-11T14:27:28.002Z</time></trkpt><trkpt lat="45.67709432967537" lon="9.992614754988557"><ele>190.5</ele><time>2026-04-11T14:27:29.003Z</time></trkpt><trkpt lat="45.67713963269386" lon="9.992795729175132"><ele>194.25</ele><time>2026-04-11T14:27:30.003Z</time></trkpt><trkpt lat="45.677186587126215" lon="9.9929875032396"><ele>198.0</ele><time>2026-04-11T14:27:31.003Z</time></trkpt><trkpt lat="45.67724049036914" lon="9.99318035554303"><ele>196.5</ele><time>2026-04-11T14:27:32.003Z</time></trkpt><trkpt lat="45.67728784294846" lon="9.993370270155484"><ele>195.0</ele><time>2026-04-11T14:27:33.003Z</time></trkpt><trkpt lat="45.67733138272631" lon="9.993586647742417"><ele>193.5</ele><time>2026-04-11T14:27:34.003Z</time></trkpt><trkpt lat="45.67737788927269" lon="9.993778698388601"><ele>192.0</ele><time>2026-04-11T14:27:35.003Z</time></trkpt><trkpt lat="45.67742118413364" lon="9.993975588193772"><ele>190.0</ele><time>2026-04-11T14:27:36.003Z</time></trkpt><trkpt lat="45.67746679229917" lon="9.994172641787667"><ele>188.0</ele><time>2026-04-11T14:27:37.003Z</time></trkpt><trkpt lat="45.67750216860045" lon="9.994400931180945"><ele>186.0</ele><time>2026-04-11T14:27:38.003Z</time></trkpt><trkpt lat="45.6775728644847" lon="9.994648898862758"><ele>186.0</ele><time>2026-04-11T14:27:39.003Z</time></trkpt><trkpt lat="45.677621605077654" lon="9.994887415736088"><ele>186.0</ele><time>2026-04-11T14:27:40.003Z</time></trkpt><trkpt lat="45.67766537661598" lon="9.995116146725557"><ele>186.0</ele><time>2026-04-11T14:27:41.003Z</time></trkpt><trkpt lat="45.67771107484141" lon="9.99532654991718"><ele>185.75</ele><time>2026-04-11T14:27:42.003Z</time></trkpt><trkpt lat="45.677755056034236" lon="9.995528058794646"><ele>185.5</ele><time>2026-04-11T14:27:43.003Z</time></trkpt><trkpt lat="45.677797201788664" lon="9.995723031632417"><ele>185.25</ele><time>2026-04-11T14:27:43.999Z</time></trkpt><trkpt lat="45.67782377553356" lon="9.995910094331473"><ele>185.0</ele><time>2026-04-11T14:27:44.999Z</time></trkpt><trkpt lat="45.67786044333949" lon="9.99608751552895"><ele>186.5</ele><time>2026-04-11T14:27:46Z</time></trkpt><trkpt lat="45.67789545596464" lon="9.996257832355408"><ele>188.0</ele><time>2026-04-11T14:27:47Z</time></trkpt><trkpt lat="45.67793834919363" lon="9.996407606423931"><ele>189.5</ele><time>2026-04-11T14:27:48Z</time></trkpt><trkpt lat="45.6779887239757" lon="9.996550335761867"><ele>191.0</ele><time>2026-04-11T14:27:49Z</time></trkpt><trkpt lat="45.678005675192466" lon="9.996697187439741"><ele>191.0</ele><time>2026-04-11T14:27:50Z</time></trkpt><trkpt lat="45.678036068356775" lon="9.996823826408251"><ele>191.0</ele><time>2026-04-11T14:27:51Z</time></trkpt><trkpt lat="45.67805941773589" lon="9.99692348459257"><ele>191.0</ele><time>2026-04-11T14:27:52Z</time></trkpt><trkpt lat="45.67808998975869" lon="9.99702565225015"><ele>191.0</ele><time>2026-04-11T14:27:53Z</time></trkpt><trkpt lat="45.67811431748586" lon="9.997152105747237"><ele>191.0</ele><time>2026-04-11T14:27:54Z</time></trkpt><trkpt lat="45.6781610380119" lon="9.997313904003999"><ele>190.75</ele><time>2026-04-11T14:27:55Z</time></trkpt><trkpt lat="45.67822120233862" lon="9.99750272027878"><ele>190.5</ele><time>2026-04-11T14:27:56Z</time></trkpt><trkpt lat="45.67825263383472" lon="9.997697529911237"><ele>190.25</ele><time>2026-04-11T14:27:57Z</time></trkpt><trkpt lat="45.67830399635777" lon="9.997885638393038"><ele>190.0</ele><time>2026-04-11T14:27:58Z</time></trkpt><trkpt lat="45.67835578919865" lon="9.99807820460488"><ele>190.0</ele><time>2026-04-11T14:27:59Z</time></trkpt><trkpt lat="45.678409705108265" lon="9.99826754049014"><ele>190.0</ele><time>2026-04-11T14:28:00Z</time></trkpt><trkpt lat="45.6784602688088" lon="9.998444590882839"><ele>190.0</ele><time>2026-04-11T14:28:01Z</time></trkpt><trkpt lat="45.678505723393556" lon="9.998605879665389"><ele>190.0</ele><time>2026-04-11T14:28:02Z</time></trkpt><trkpt lat="45.67854394351023" lon="9.998757928627882"><ele>189.75</ele><time>2026-04-11T14:28:03Z</time></trkpt><trkpt lat="45.6785832716828" lon="9.998916009165386"><ele>189.5</ele><time>2026-04-11T14:28:04Z</time></trkpt><trkpt lat="45.67862129845375" lon="9.99906972223289"><ele>189.25</ele><time>2026-04-11T14:28:05Z</time></trkpt><trkpt lat="45.67866587351283" lon="9.999223558475759"><ele>189.0</ele><time>2026-04-11T14:28:06Z</time></trkpt><trkpt lat="45.678710974949325" lon="9.999385042333099"><ele>190.5</ele><time>2026-04-11T14:28:07Z</time></trkpt><trkpt lat="45.67875244105666" lon="9.999545671583048"><ele>192.0</ele><time>2026-04-11T14:28:08Z</time></trkpt><trkpt lat="45.678797059984056" lon="9.99970639902935"><ele>193.5</ele><time>2026-04-11T14:28:09Z</time></trkpt><trkpt lat="45.678842107824906" lon="9.999867569892153"><ele>195.0</ele><time>2026-04-11T14:28:10Z</time></trkpt><trkpt lat="45.678879260503926" lon="10.000035416515814"><ele>195.0</ele><time>2026-04-11T14:28:11Z</time></trkpt><trkpt lat="45.67891505931392" lon="10.000198720260236"><ele>195.0</ele><time>2026-04-11T14:28:12Z</time></trkpt><trkpt lat="45.67895783453306" lon="10.000367017437588"><ele>195.0</ele><time>2026-04-11T14:28:13Z</time></trkpt><trkpt lat="45.67899870110312" lon="10.000539493851628"><ele>195.0</ele><time>2026-04-11T14:28:14Z</time></trkpt><trkpt lat="45.67903372835344" lon="10.00071475430606"><ele>194.0</ele><time>2026-04-11T14:28:15.001Z</time></trkpt><trkpt lat="45.67906223987621" lon="10.000892169057622"><ele>193.0</ele><time>2026-04-11T14:28:16.001Z</time></trkpt><trkpt lat="45.67908901928163" lon="10.00107585975021"><ele>192.0</ele><time>2026-04-11T14:28:17.001Z</time></trkpt><trkpt lat="45.679107337026394" lon="10.001261604572965"><ele>191.0</ele><time>2026-04-11T14:28:18.001Z</time></trkpt><trkpt lat="45.67911419501022" lon="10.001444879579713"><ele>191.0</ele><time>2026-04-11T14:28:19.001Z</time></trkpt><trkpt lat="45.679100846723024" lon="10.001640525926366"><ele>191.0</ele><time>2026-04-11T14:28:20.001Z</time></trkpt><trkpt lat="45.679097486214886" lon="10.001843241186076"><ele>191.0</ele><time>2026-04-11T14:28:21.001Z</time></trkpt><trkpt lat="45.679105716912446" lon="10.002055311679065"><ele>191.0</ele><time>2026-04-11T14:28:22.001Z</time></trkpt><trkpt lat="45.67911119913962" lon="10.002284258849613"><ele>189.66666666666666</ele><time>2026-04-11T14:28:23.001Z</time></trkpt><trkpt lat="45.67909226065365" lon="10.002521046644384"><ele>188.33333333333334</ele><time>2026-04-11T14:28:24.001Z</time></trkpt><trkpt lat="45.67908517212897" lon="10.002762250067079"><ele>187.0</ele><time>2026-04-11T14:28:25.001Z</time></trkpt><trkpt lat="45.67908116293216" lon="10.003011669839289"><ele>187.0</ele><time>2026-04-11T14:28:26.001Z</time></trkpt><trkpt lat="45.6790941106451" lon="10.003252601750315"><ele>187.0</ele><time>2026-04-11T14:28:27.001Z</time></trkpt><trkpt lat="45.679111749516636" lon="10.00347980160498"><ele>187.0</ele><time>2026-04-11T14:28:28.001Z</time></trkpt><trkpt lat="45.67912768924019" lon="10.003702068775661"><ele>186.66666666666669</ele><time>2026-04-11T14:28:29.001Z</time></trkpt><trkpt lat="45.6791383669555" lon="10.003928030749755"><ele>186.33333333333334</ele><time>2026-04-11T14:28:30.001Z</time></trkpt><trkpt lat="45.679158891126804" lon="10.00414899238699"><ele>186.0</ele><time>2026-04-11T14:28:31.001Z</time></trkpt><trkpt lat="45.67918097314614" lon="10.004372499783713"><ele>186.0</ele><time>2026-04-11T14:28:32.001Z</time></trkpt><trkpt lat="45.67921494267346" lon="10.004600863726699"><ele>186.0</ele><time>2026-04-11T14:28:33.001Z</time></trkpt><trkpt lat="45.67925208913894" lon="10.0048340764672"><ele>186.0</ele><time>2026-04-11T14:28:34.001Z</time></trkpt><trkpt lat="45.67928901385194" lon="10.005074162519385"><ele>185.66666666666666</ele><time>2026-04-11T14:28:35.001Z</time></trkpt><trkpt lat="45.67932706646663" lon="10.005313062032291"><ele>185.33333333333331</ele><time>2026-04-11T14:28:36.001Z</time></trkpt><trkpt lat="45.67937336109658" lon="10.005548553951193"><ele>185.0</ele><time>2026-04-11T14:28:37.001Z</time></trkpt><trkpt lat="45.67942346602485" lon="10.005792094350841"><ele>187.66666666666666</ele><time>2026-04-11T14:28:38.001Z</time></trkpt><trkpt lat="45.679475311703456" lon="10.006025774214946"><ele>190.33333333333331</ele><time>2026-04-11T14:28:39.001Z</time></trkpt><trkpt lat="45.679522964833" lon="10.006245365733708"><ele>193.0</ele><time>2026-04-11T14:28:40.001Z</time></trkpt><trkpt lat="45.67955660894752" lon="10.006473002195104"><ele>193.33333333333331</ele><time>2026-04-11T14:28:41.001Z</time></trkpt><trkpt lat="45.67961596082713" lon="10.006680743401068"><ele>193.66666666666669</ele><time>2026-04-11T14:28:42.001Z</time></trkpt><trkpt lat="45.67965348374737" lon="10.006894306183137"><ele>194.0</ele><time>2026-04-11T14:28:43.001Z</time></trkpt><trkpt lat="45.67970243042908" lon="10.007098233423099"><ele>194.0</ele><time>2026-04-11T14:28:44.001Z</time></trkpt><trkpt lat="45.67973778611187" lon="10.007305552153815"><ele>194.0</ele><time>2026-04-11T14:28:45.001Z</time></trkpt><trkpt lat="45.67978891433829" lon="10.007503073843955"><ele>194.0</ele><time>2026-04-11T14:28:46.002Z</time></trkpt><trkpt lat="45.67983673729486" lon="10.00769111507426"><ele>194.0</ele><time>2026-04-11T14:28:47.002Z</time></trkpt><trkpt lat="45.679882488009476" lon="10.007878582615406"><ele>193.25</ele><time>2026-04-11T14:28:48.002Z</time></trkpt><trkpt lat="45.67991151271234" lon="10.008065650496206"><ele>192.5</ele><time>2026-04-11T14:28:49.002Z</time></trkpt><trkpt lat="45.679923248661275" lon="10.00827298322846"><ele>191.75</ele><time>2026-04-11T14:28:50.002Z</time></trkpt><trkpt lat="45.67994067441239" lon="10.008457864058787"><ele>191.0</ele><time>2026-04-11T14:28:51.002Z</time></trkpt><trkpt lat="45.67995123468067" lon="10.00863620521272"><ele>190.20000000000002</ele><time>2026-04-11T14:28:52.002Z</time></trkpt><trkpt lat="45.679953147673956" lon="10.008794521288271"><ele>189.4</ele><time>2026-04-11T14:28:53.002Z</time></trkpt><trkpt lat="45.67995397589038" lon="10.008954551067882"><ele>188.6</ele><time>2026-04-11T14:28:54.002Z</time></trkpt><trkpt lat="45.67996286870095" lon="10.009098279385606"><ele>187.8</ele><time>2026-04-11T14:28:55.002Z</time></trkpt><trkpt lat="45.67997107987261" lon="10.009247104701894"><ele>187.0</ele><time>2026-04-11T14:28:56.002Z</time></trkpt><trkpt lat="45.68002907884484" lon="10.009572005301036"><ele>187.0</ele><time>2026-04-11T14:28:57.002Z</time></trkpt><trkpt lat="45.680051363229154" lon="10.009731701251907"><ele>187.0</ele><time>2026-04-11T14:28:58.002Z</time></trkpt><trkpt lat="45.680051253207296" lon="10.00987782245035"><ele>187.0</ele><time>2026-04-11T14:28:59.002Z</time></trkpt><trkpt lat="45.680052527397244" lon="10.010009354757683"><ele>187.0</ele><time>2026-04-11T14:29:00.002Z</time></trkpt><trkpt lat="45.68005630895118" lon="10.010138049504224"><ele>187.0</ele><time>2026-04-11T14:29:01.002Z</time></trkpt><trkpt lat="45.68006338193677" lon="10.010252171606584"><ele>187.39999999999998</ele><time>2026-04-11T14:29:02.002Z</time></trkpt><trkpt lat="45.68006872590622" lon="10.010353289043296"><ele>187.79999999999998</ele><time>2026-04-11T14:29:03.002Z</time></trkpt><trkpt lat="45.680067807887475" lon="10.010460398942358"><ele>188.2</ele><time>2026-04-11T14:29:04.002Z</time></trkpt><trkpt lat="45.680075939033394" lon="10.010593229053029"><ele>188.6</ele><time>2026-04-11T14:29:05.002Z</time></trkpt><trkpt lat="45.680099335876214" lon="10.010753832095155"><ele>189.0</ele><time>2026-04-11T14:29:06.002Z</time></trkpt><trkpt lat="45.68012928869974" lon="10.010928018273033"><ele>189.0</ele><time>2026-04-11T14:29:07.002Z</time></trkpt><trkpt lat="45.68016164400426" lon="10.011119324029798"><ele>189.0</ele><time>2026-04-11T14:29:08.002Z</time></trkpt><trkpt lat="45.68019246538335" lon="10.011322406432123"><ele>189.0</ele><time>2026-04-11T14:29:09.002Z</time></trkpt><trkpt lat="45.68022420358514" lon="10.011518875762281"><ele>189.0</ele><time>2026-04-11T14:29:10.002Z</time></trkpt><trkpt lat="45.68028113975999" lon="10.011702930390184"><ele>191.25</ele><time>2026-04-11T14:29:11.002Z</time></trkpt><trkpt lat="45.68035454971947" lon="10.01187378748036"><ele>193.5</ele><time>2026-04-11T14:29:12.002Z</time></trkpt><trkpt lat="45.680417380978604" lon="10.012055366456892"><ele>195.75</ele><time>2026-04-11T14:29:13.002Z</time></trkpt><trkpt lat="45.680481251666215" lon="10.012233254555326"><ele>198.0</ele><time>2026-04-11T14:29:14.002Z</time></trkpt><trkpt lat="45.68053129985997" lon="10.012425920582764"><ele>196.66666666666669</ele><time>2026-04-11T14:29:15.002Z</time></trkpt><trkpt lat="45.68053632820211" lon="10.012635415930143"><ele>195.33333333333334</ele><time>2026-04-11T14:29:16.002Z</time></trkpt><trkpt lat="45.68055089263162" lon="10.012852071865053"><ele>194.0</ele><time>2026-04-11T14:29:17.002Z</time></trkpt><trkpt lat="45.68056693021053" lon="10.01307738416103"><ele>194.0</ele><time>2026-04-11T14:29:18.003Z</time></trkpt><trkpt lat="45.68058089061442" lon="10.013316006341743"><ele>194.0</ele><time>2026-04-11T14:29:19.003Z</time></trkpt><trkpt lat="45.68058998567978" lon="10.013564865820294"><ele>194.0</ele><time>2026-04-11T14:29:20.003Z</time></trkpt><trkpt lat="45.68060172369445" lon="10.013808793836278"><ele>194.0</ele><time>2026-04-11T14:29:21.003Z</time></trkpt><trkpt lat="45.68059607739991" lon="10.014049657549442"><ele>194.0</ele><time>2026-04-11T14:29:22.003Z</time></trkpt><trkpt lat="45.68059505699704" lon="10.014291043458305"><ele>194.0</ele><time>2026-04-11T14:29:23.003Z</time></trkpt><trkpt lat="45.680595071782115" lon="10.014532363398953"><ele>193.66666666666669</ele><time>2026-04-11T14:29:24.003Z</time></trkpt><trkpt lat="45.6805780194239" lon="10.014765735293969"><ele>193.33333333333331</ele><time>2026-04-11T14:29:25.003Z</time></trkpt><trkpt lat="45.68058753127986" lon="10.015003604502137"><ele>193.0</ele><time>2026-04-11T14:29:26.003Z</time></trkpt><trkpt lat="45.68057750775707" lon="10.015222557693011"><ele>192.66666666666666</ele><time>2026-04-11T14:29:27.003Z</time></trkpt><trkpt lat="45.68057791239378" lon="10.015451759503446"><ele>192.33333333333331</ele><time>2026-04-11T14:29:28.003Z</time></trkpt><trkpt lat="45.68058680025727" lon="10.01568299860969"><ele>192.0</ele><time>2026-04-11T14:29:29.003Z</time></trkpt><trkpt lat="45.68059226996674" lon="10.015910307387768"><ele>192.0</ele><time>2026-04-11T14:29:30.003Z</time></trkpt><trkpt lat="45.68056683202673" lon="10.016136952237677"><ele>192.0</ele><time>2026-04-11T14:29:31.003Z</time></trkpt><trkpt lat="45.68057625964459" lon="10.016334721783643"><ele>192.0</ele><time>2026-04-11T14:29:32.003Z</time></trkpt><trkpt lat="45.68056828228028" lon="10.016500911093864"><ele>192.0</ele><time>2026-04-11T14:29:33.003Z</time></trkpt><trkpt lat="45.68056250074997" lon="10.01663466087416"><ele>192.2</ele><time>2026-04-11T14:29:34.003Z</time></trkpt><trkpt lat="45.68055427608098" lon="10.016753706860202"><ele>192.39999999999998</ele><time>2026-04-11T14:29:35.003Z</time></trkpt><trkpt lat="45.68054834915206" lon="10.016864080783398"><ele>192.60000000000002</ele><time>2026-04-11T14:29:36.003Z</time></trkpt><trkpt lat="45.680535553155636" lon="10.01699499842366"><ele>192.8</ele><time>2026-04-11T14:29:37.003Z</time></trkpt><trkpt lat="45.68051689876634" lon="10.017141077294069"><ele>193.0</ele><time>2026-04-11T14:29:38.003Z</time></trkpt><trkpt lat="45.68050742084761" lon="10.017307634658716"><ele>193.0</ele><time>2026-04-11T14:29:39.003Z</time></trkpt><trkpt lat="45.680494331374895" lon="10.017484629485855"><ele>193.0</ele><time>2026-04-11T14:29:40.003Z</time></trkpt><trkpt lat="45.68048020454748" lon="10.017661723102705"><ele>193.0</ele><time>2026-04-11T14:29:41.003Z</time></trkpt><trkpt lat="45.68046228221747" lon="10.017846875408159"><ele>193.0</ele><time>2026-04-11T14:29:42.003Z</time></trkpt><trkpt lat="45.68044598636801" lon="10.018044088200984"><ele>193.75</ele><time>2026-04-11T14:29:43.003Z</time></trkpt><trkpt lat="45.68043336400647" lon="10.018249938115197"><ele>194.5</ele><time>2026-04-11T14:29:44.003Z</time></trkpt><trkpt lat="45.6804202318766" lon="10.018448948724227"><ele>195.25</ele><time>2026-04-11T14:29:45.003Z</time></trkpt><trkpt lat="45.68041512827711" lon="10.018643574563326"><ele>196.0</ele><time>2026-04-11T14:29:46.003Z</time></trkpt><trkpt lat="45.68041849078093" lon="10.018818943907347"><ele>196.0</ele><time>2026-04-11T14:29:47.003Z</time></trkpt><trkpt lat="45.68043541165516" lon="10.018969536921684"><ele>196.0</ele><time>2026-04-11T14:29:48.003Z</time></trkpt><trkpt lat="45.68045267874712" lon="10.019107327498215"><ele>196.0</ele><time>2026-04-11T14:29:49.001Z</time></trkpt><trkpt lat="45.68046414260233" lon="10.019236383308064"><ele>196.0</ele><time>2026-04-11T14:29:50.001Z</time></trkpt><trkpt lat="45.68047897815425" lon="10.019352502863628"><ele>196.0</ele><time>2026-04-11T14:29:51.001Z</time></trkpt><trkpt lat="45.6804958328666" lon="10.019455166311694"><ele>195.83333333333331</ele><time>2026-04-11T14:29:52.001Z</time></trkpt><trkpt lat="45.680516395398726" lon="10.019610327186145"><ele>195.66666666666666</ele><time>2026-04-11T14:29:54.001Z</time></trkpt><trkpt lat="45.68053038324137" lon="10.019701224545429"><ele>195.5</ele><time>2026-04-11T14:29:55Z</time></trkpt><trkpt lat="45.68055029951841" lon="10.019813020475269"><ele>195.33333333333331</ele><time>2026-04-11T14:29:56Z</time></trkpt><trkpt lat="45.680564370857525" lon="10.019936288963985"><ele>195.16666666666666</ele><time>2026-04-11T14:29:57Z</time></trkpt><trkpt lat="45.680576854166326" lon="10.020073560322269"><ele>195.0</ele><time>2026-04-11T14:29:58Z</time></trkpt><trkpt lat="45.68059615061157" lon="10.020254473937962"><ele>195.0</ele><time>2026-04-11T14:29:59Z</time></trkpt><trkpt lat="45.680624132918204" lon="10.020438217061796"><ele>195.0</ele><time>2026-04-11T14:30:00Z</time></trkpt><trkpt lat="45.68065778908868" lon="10.020607056091206"><ele>195.0</ele><time>2026-04-11T14:30:01Z</time></trkpt><trkpt lat="45.68068683522164" lon="10.020789779471064"><ele>195.0</ele><time>2026-04-11T14:30:02Z</time></trkpt><trkpt lat="45.6807395077545" lon="10.020980869481594"><ele>194.66666666666669</ele><time>2026-04-11T14:30:03Z</time></trkpt><trkpt lat="45.680795497193856" lon="10.02118140454974"><ele>194.33333333333334</ele><time>2026-04-11T14:30:04Z</time></trkpt><trkpt lat="45.68086270477733" lon="10.021375881131897"><ele>194.0</ele><time>2026-04-11T14:30:05Z</time></trkpt><trkpt lat="45.68092344238379" lon="10.021573937604078"><ele>193.0</ele><time>2026-04-11T14:30:06Z</time></trkpt><trkpt lat="45.68098264646919" lon="10.021781327212858"><ele>192.0</ele><time>2026-04-11T14:30:07Z</time></trkpt><trkpt lat="45.681045485710456" lon="10.021994449433603"><ele>191.0</ele><time>2026-04-11T14:30:08Z</time></trkpt><trkpt lat="45.68111307517166" lon="10.02219959663816"><ele>192.5</ele><time>2026-04-11T14:30:09Z</time></trkpt><trkpt lat="45.681168374671785" lon="10.022379147078881"><ele>194.0</ele><time>2026-04-11T14:30:10Z</time></trkpt><trkpt lat="45.68122190571845" lon="10.022548927705019"><ele>195.5</ele><time>2026-04-11T14:30:11Z</time></trkpt><trkpt lat="45.681272804087826" lon="10.02271150151405"><ele>197.0</ele><time>2026-04-11T14:30:12Z</time></trkpt><trkpt lat="45.68131704839639" lon="10.02286862527822"><ele>197.0</ele><time>2026-04-11T14:30:13Z</time></trkpt><trkpt lat="45.68136240715511" lon="10.023032931123169"><ele>197.0</ele><time>2026-04-11T14:30:14Z</time></trkpt><trkpt lat="45.6814085976617" lon="10.02318373181816"><ele>197.0</ele><time>2026-04-11T14:30:15Z</time></trkpt><trkpt lat="45.68145457961699" lon="10.023343168892165"><ele>197.0</ele><time>2026-04-11T14:30:16Z</time></trkpt><trkpt lat="45.68149193638647" lon="10.0235060504376"><ele>196.0</ele><time>2026-04-11T14:30:17.001Z</time></trkpt><trkpt lat="45.681549338104055" lon="10.023671133746294"><ele>195.0</ele><time>2026-04-11T14:30:18.001Z</time></trkpt><trkpt lat="45.68160832688771" lon="10.0238410121109"><ele>194.0</ele><time>2026-04-11T14:30:19.001Z</time></trkpt><trkpt lat="45.681667809884715" lon="10.024026810658265"><ele>193.0</ele><time>2026-04-11T14:30:20.001Z</time></trkpt><trkpt lat="45.68172498385042" lon="10.024211971923647"><ele>192.25</ele><time>2026-04-11T14:30:21.001Z</time></trkpt><trkpt lat="45.681783788022955" lon="10.024391962555693"><ele>191.5</ele><time>2026-04-11T14:30:22.001Z</time></trkpt><trkpt lat="45.68183387409349" lon="10.024558586952717"><ele>190.75</ele><time>2026-04-11T14:30:23.001Z</time></trkpt><trkpt lat="45.68188313606713" lon="10.024730115418151"><ele>190.0</ele><time>2026-04-11T14:30:24.001Z</time></trkpt><trkpt lat="45.68193323267273" lon="10.024910224244264"><ele>192.25</ele><time>2026-04-11T14:30:25.001Z</time></trkpt><trkpt lat="45.681949295285655" lon="10.025105536312676"><ele>194.5</ele><time>2026-04-11T14:30:26.001Z</time></trkpt><trkpt lat="45.68195764190452" lon="10.025292999602053"><ele>196.75</ele><time>2026-04-11T14:30:27.001Z</time></trkpt><trkpt lat="45.68196581742764" lon="10.025468169814411"><ele>199.0</ele><time>2026-04-11T14:30:28.001Z</time></trkpt><trkpt lat="45.68197501402592" lon="10.025637453634493"><ele>199.0</ele><time>2026-04-11T14:30:29.001Z</time></trkpt><trkpt lat="45.68198293600342" lon="10.025786278019483"><ele>199.0</ele><time>2026-04-11T14:30:30.001Z</time></trkpt><trkpt lat="45.68199050336802" lon="10.025928441016697"><ele>199.0</ele><time>2026-04-11T14:30:31.001Z</time></trkpt><trkpt lat="45.68201408985732" lon="10.026066132693401"><ele>199.0</ele><time>2026-04-11T14:30:32.001Z</time></trkpt><trkpt lat="45.68202204686817" lon="10.026222527685837"><ele>199.0</ele><time>2026-04-11T14:30:33.001Z</time></trkpt><trkpt lat="45.68202771445265" lon="10.02638603289632"><ele>198.5</ele><time>2026-04-11T14:30:34.001Z</time></trkpt><trkpt lat="45.6820152167901" lon="10.026549066134075"><ele>198.0</ele><time>2026-04-11T14:30:35.001Z</time></trkpt><trkpt lat="45.681985466138805" lon="10.026729453948125"><ele>197.5</ele><time>2026-04-11T14:30:36.001Z</time></trkpt><trkpt lat="45.681960545879264" lon="10.026903742634937"><ele>197.0</ele><time>2026-04-11T14:30:37.001Z</time></trkpt><trkpt lat="45.6819388032753" lon="10.027066582926519"><ele>194.25</ele><time>2026-04-11T14:30:38.001Z</time></trkpt><trkpt lat="45.68191547242828" lon="10.027232638977654"><ele>191.5</ele><time>2026-04-11T14:30:39.001Z</time></trkpt><trkpt lat="45.68190134019233" lon="10.02740766427705"><ele>188.75</ele><time>2026-04-11T14:30:40.001Z</time></trkpt><trkpt lat="45.681899203645415" lon="10.027586034289286"><ele>186.0</ele><time>2026-04-11T14:30:41.001Z</time></trkpt><trkpt lat="45.681907369450364" lon="10.027768007143816"><ele>185.75</ele><time>2026-04-11T14:30:42.001Z</time></trkpt><trkpt lat="45.68191711450664" lon="10.027957154243282"><ele>185.5</ele><time>2026-04-11T14:30:43.001Z</time></trkpt><trkpt lat="45.681947377496556" lon="10.028151370554106"><ele>185.25</ele><time>2026-04-11T14:30:44.001Z</time></trkpt><trkpt lat="45.681984013915205" lon="10.02834851969572"><ele>185.0</ele><time>2026-04-11T14:30:45.001Z</time></trkpt><trkpt lat="45.68202601673783" lon="10.028537621795945"><ele>189.25</ele><time>2026-04-11T14:30:46.001Z</time></trkpt><trkpt lat="45.68206593133526" lon="10.028717004090181"><ele>193.5</ele><time>2026-04-11T14:30:47.001Z</time></trkpt><trkpt lat="45.68210869686708" lon="10.028895093146025"><ele>197.75</ele><time>2026-04-11T14:30:48.001Z</time></trkpt><trkpt lat="45.68214417233415" lon="10.029073944108042"><ele>202.0</ele><time>2026-04-11T14:30:49.001Z</time></trkpt><trkpt lat="45.68217662817216" lon="10.029254759845282"><ele>202.0</ele><time>2026-04-11T14:30:50.001Z</time></trkpt><trkpt lat="45.68221050186163" lon="10.02943763948145"><ele>202.0</ele><time>2026-04-11T14:30:51.001Z</time></trkpt><trkpt lat="45.682242889770656" lon="10.029617727411946"><ele>202.0</ele><time>2026-04-11T14:30:52.001Z</time></trkpt><trkpt lat="45.682270869230955" lon="10.029807095884605"><ele>202.0</ele><time>2026-04-11T14:30:53.001Z</time></trkpt><trkpt lat="45.68230043746291" lon="10.029997181206848"><ele>201.25</ele><time>2026-04-11T14:30:54.001Z</time></trkpt><trkpt lat="45.682333321828885" lon="10.03018714337532"><ele>200.5</ele><time>2026-04-11T14:30:55.001Z</time></trkpt><trkpt lat="45.68236170058466" lon="10.030369697827085"><ele>199.75</ele><time>2026-04-11T14:30:56.001Z</time></trkpt><trkpt lat="45.682392974918784" lon="10.030541255194864"><ele>199.0</ele><time>2026-04-11T14:30:57.001Z</time></trkpt><trkpt lat="45.682422871008974" lon="10.03069796144901"><ele>198.2</ele><time>2026-04-11T14:30:58.001Z</time></trkpt><trkpt lat="45.682432555362276" lon="10.030846888396225"><ele>197.39999999999998</ele><time>2026-04-11T14:30:59.001Z</time></trkpt><trkpt lat="45.682450691302236" lon="10.030981738148936"><ele>196.6</ele><time>2026-04-11T14:31:00.001Z</time></trkpt><trkpt lat="45.68246556022869" lon="10.03112787027951"><ele>195.8</ele><time>2026-04-11T14:31:01.002Z</time></trkpt><trkpt lat="45.682464192859314" lon="10.031271009496777"><ele>195.0</ele><time>2026-04-11T14:31:02.002Z</time></trkpt><trkpt lat="45.68245692365011" lon="10.031432965023448"><ele>195.0</ele><time>2026-04-11T14:31:03.002Z</time></trkpt><trkpt lat="45.68244499030796" lon="10.031609794759222"><ele>195.0</ele><time>2026-04-11T14:31:04.002Z</time></trkpt><trkpt lat="45.68244190432524" lon="10.031784953957997"><ele>195.0</ele><time>2026-04-11T14:31:05.002Z</time></trkpt><trkpt lat="45.68242767125702" lon="10.031973209084086"><ele>195.0</ele><time>2026-04-11T14:31:06.002Z</time></trkpt><trkpt lat="45.68241050498458" lon="10.032163245380552"><ele>195.25</ele><time>2026-04-11T14:31:07.002Z</time></trkpt><trkpt lat="45.68240462734794" lon="10.0323464514079"><ele>195.5</ele><time>2026-04-11T14:31:08.002Z</time></trkpt><trkpt lat="45.682412747077876" lon="10.032532385001108"><ele>195.75</ele><time>2026-04-11T14:31:09.002Z</time></trkpt><trkpt lat="45.68243459576135" lon="10.032715215551539"><ele>196.0</ele><time>2026-04-11T14:31:10.002Z</time></trkpt><trkpt lat="45.682478280397916" lon="10.032879019866689"><ele>195.0</ele><time>2026-04-11T14:31:11.002Z</time></trkpt><trkpt lat="45.682532790492374" lon="10.033039939926688"><ele>194.0</ele><time>2026-04-11T14:31:12.002Z</time></trkpt><trkpt lat="45.682590129864636" lon="10.0332028964047"><ele>193.0</ele><time>2026-04-11T14:31:13.002Z</time></trkpt><trkpt lat="45.68263583849454" lon="10.03336797858787"><ele>192.0</ele><time>2026-04-11T14:31:14.002Z</time></trkpt><trkpt lat="45.682673445946016" lon="10.033540022446186"><ele>191.75</ele><time>2026-04-11T14:31:15.002Z</time></trkpt><trkpt lat="45.68270353385664" lon="10.033712069420675"><ele>191.5</ele><time>2026-04-11T14:31:16.002Z</time></trkpt><trkpt lat="45.68270725442433" lon="10.03388774533636"><ele>191.25</ele><time>2026-04-11T14:31:17.002Z</time></trkpt><trkpt lat="45.68271848005355" lon="10.034062917569356"><ele>191.0</ele><time>2026-04-11T14:31:18.002Z</time></trkpt><trkpt lat="45.6827007085512" lon="10.034232486264802"><ele>189.5</ele><time>2026-04-11T14:31:19.002Z</time></trkpt><trkpt lat="45.682671251059794" lon="10.034403180046024"><ele>188.0</ele><time>2026-04-11T14:31:20.002Z</time></trkpt><trkpt lat="45.68264656111903" lon="10.034580381868361"><ele>186.5</ele><time>2026-04-11T14:31:21.002Z</time></trkpt><trkpt lat="45.68261626611158" lon="10.03472046416825"><ele>185.0</ele><time>2026-04-11T14:31:22.002Z</time></trkpt><trkpt lat="45.682604188299486" lon="10.03486466656285"><ele>186.0</ele><time>2026-04-11T14:31:23.002Z</time></trkpt><trkpt lat="45.682614463563034" lon="10.035015417976716"><ele>187.0</ele><time>2026-04-11T14:31:24.002Z</time></trkpt><trkpt lat="45.682643431159484" lon="10.035173553491491"><ele>188.0</ele><time>2026-04-11T14:31:25.002Z</time></trkpt><trkpt lat="45.68267089375859" lon="10.035328888651586"><ele>189.0</ele><time>2026-04-11T14:31:26.002Z</time></trkpt><trkpt lat="45.68270658636069" lon="10.035472658277813"><ele>190.0</ele><time>2026-04-11T14:31:27.002Z</time></trkpt><trkpt lat="45.68275811258367" lon="10.035610521064584"><ele>193.0</ele><time>2026-04-11T14:31:28.002Z</time></trkpt><trkpt lat="45.68283486511111" lon="10.03580361463162"><ele>196.0</ele><time>2026-04-11T14:31:29.002Z</time></trkpt><trkpt lat="45.682872932672375" lon="10.036028603106029"><ele>199.0</ele><time>2026-04-11T14:31:30.002Z</time></trkpt><trkpt lat="45.682892882280484" lon="10.036247617121159"><ele>199.0</ele><time>2026-04-11T14:31:31.002Z</time></trkpt><trkpt lat="45.68291112147467" lon="10.036510832635857"><ele>199.0</ele><time>2026-04-11T14:31:32.002Z</time></trkpt><trkpt lat="45.6829195419601" lon="10.03674883562219"><ele>199.0</ele><time>2026-04-11T14:31:33.002Z</time></trkpt><trkpt lat="45.68292095961292" lon="10.036989764656383"><ele>199.75</ele><time>2026-04-11T14:31:34.002Z</time></trkpt><trkpt lat="45.682928416002596" lon="10.037209404983088"><ele>200.5</ele><time>2026-04-11T14:31:35.002Z</time></trkpt><trkpt lat="45.68295142990896" lon="10.037415017649808"><ele>201.25</ele><time>2026-04-11T14:31:36.002Z</time></trkpt><trkpt lat="45.68294641876987" lon="10.037613416826318"><ele>202.0</ele><time>2026-04-11T14:31:37.002Z</time></trkpt><trkpt lat="45.68294734200211" lon="10.037826099720798"><ele>202.0</ele><time>2026-04-11T14:31:38.002Z</time></trkpt><trkpt lat="45.682938099608826" lon="10.03803968430465"><ele>202.0</ele><time>2026-04-11T14:31:39.002Z</time></trkpt><trkpt lat="45.682921197337585" lon="10.038252048708786"><ele>202.0</ele><time>2026-04-11T14:31:40.002Z</time></trkpt><trkpt lat="45.68290031997048" lon="10.038451217990119"><ele>202.0</ele><time>2026-04-11T14:31:41.003Z</time></trkpt><trkpt lat="45.68287188314661" lon="10.038638341813822"><ele>202.0</ele><time>2026-04-11T14:31:42.003Z</time></trkpt><trkpt lat="45.68285777775461" lon="10.038834391679952"><ele>202.0</ele><time>2026-04-11T14:31:43.003Z</time></trkpt><trkpt lat="45.68286997490299" lon="10.03902921804604"><ele>202.0</ele><time>2026-04-11T14:31:44.003Z</time></trkpt><trkpt lat="45.68290279090618" lon="10.039233856176137"><ele>202.0</ele><time>2026-04-11T14:31:45.003Z</time></trkpt><trkpt lat="45.68295386423813" lon="10.039445454956228"><ele>202.0</ele><time>2026-04-11T14:31:46.003Z</time></trkpt><trkpt lat="45.6830054881686" lon="10.039644775039834"><ele>202.0</ele><time>2026-04-11T14:31:47.003Z</time></trkpt><trkpt lat="45.68304552565215" lon="10.039846429488929"><ele>202.0</ele><time>2026-04-11T14:31:48.003Z</time></trkpt><trkpt lat="45.6830853802238" lon="10.04003857035104"><ele>202.0</ele><time>2026-04-11T14:31:49.003Z</time></trkpt><trkpt lat="45.68311105986078" lon="10.040229703905"><ele>202.0</ele><time>2026-04-11T14:31:50.003Z</time></trkpt><trkpt lat="45.683132054754836" lon="10.04039223940733"><ele>202.0</ele><time>2026-04-11T14:31:51.003Z</time></trkpt><trkpt lat="45.683139066214395" lon="10.040562883571061"><ele>202.0</ele><time>2026-04-11T14:31:52.003Z</time></trkpt><trkpt lat="45.68313118330282" lon="10.040737677444712"><ele>202.0</ele><time>2026-04-11T14:31:53.003Z</time></trkpt><trkpt lat="45.68313575818655" lon="10.04091740667796"><ele>202.25</ele><time>2026-04-11T14:31:54.003Z</time></trkpt><trkpt lat="45.68316964077055" lon="10.041099228885077"><ele>202.5</ele><time>2026-04-11T14:31:55Z</time></trkpt><trkpt lat="45.683217282960214" lon="10.041273435606668"><ele>202.75</ele><time>2026-04-11T14:31:56Z</time></trkpt><trkpt lat="45.68326367456832" lon="10.041448650922309"><ele>203.0</ele><time>2026-04-11T14:31:57Z</time></trkpt><trkpt lat="45.68327492514191" lon="10.04163043548922"><ele>197.75</ele><time>2026-04-11T14:31:58Z</time></trkpt><trkpt lat="45.683298220725796" lon="10.041813133684032"><ele>192.5</ele><time>2026-04-11T14:31:59Z</time></trkpt><trkpt lat="45.68330884627492" lon="10.04200189736352"><ele>187.25</ele><time>2026-04-11T14:32:00Z</time></trkpt><trkpt lat="45.683329728860414" lon="10.042196775532021"><ele>182.0</ele><time>2026-04-11T14:32:01Z</time></trkpt><trkpt lat="45.68335460695621" lon="10.042391244294702"><ele>182.0</ele><time>2026-04-11T14:32:02Z</time></trkpt><trkpt lat="45.68338461620818" lon="10.042578706573659"><ele>182.0</ele><time>2026-04-11T14:32:03Z</time></trkpt><trkpt lat="45.68342042137005" lon="10.042764623328127"><ele>182.0</ele><time>2026-04-11T14:32:04Z</time></trkpt><trkpt lat="45.68346289603562" lon="10.042951633702803"><ele>182.0</ele><time>2026-04-11T14:32:05Z</time></trkpt><trkpt lat="45.68349354131783" lon="10.043136925977617"><ele>182.0</ele><time>2026-04-11T14:32:06Z</time></trkpt><trkpt lat="45.68349983301643" lon="10.043320046463464"><ele>182.0</ele><time>2026-04-11T14:32:07Z</time></trkpt><trkpt lat="45.683493734020644" lon="10.043502147083544"><ele>182.0</ele><time>2026-04-11T14:32:08Z</time></trkpt><trkpt lat="45.6834896312495" lon="10.043674483030319"><ele>182.0</ele><time>2026-04-11T14:32:09Z</time></trkpt><trkpt lat="45.68351166908341" lon="10.043833905241524"><ele>182.0</ele><time>2026-04-11T14:32:10Z</time></trkpt><trkpt lat="45.683547029784066" lon="10.044005251920234"><ele>182.0</ele><time>2026-04-11T14:32:11Z</time></trkpt><trkpt lat="45.68359914810942" lon="10.044167994123853"><ele>182.0</ele><time>2026-04-11T14:32:12Z</time></trkpt><trkpt lat="45.683639447494215" lon="10.044343467522227"><ele>182.0</ele><time>2026-04-11T14:32:13Z</time></trkpt><trkpt lat="45.6837012231861" lon="10.044496790532481"><ele>182.0</ele><time>2026-04-11T14:32:14Z</time></trkpt><trkpt lat="45.683745906361715" lon="10.044660450681187"><ele>182.0</ele><time>2026-04-11T14:32:15Z</time></trkpt><trkpt lat="45.683786671798956" lon="10.044830441852682"><ele>182.0</ele><time>2026-04-11T14:32:16Z</time></trkpt><trkpt lat="45.683828519027315" lon="10.04499374976214"><ele>182.0</ele><time>2026-04-11T14:32:17Z</time></trkpt><trkpt lat="45.68383260403375" lon="10.045170975153258"><ele>182.0</ele><time>2026-04-11T14:32:18Z</time></trkpt><trkpt lat="45.68383714630229" lon="10.045345354933715"><ele>182.0</ele><time>2026-04-11T14:32:19Z</time></trkpt><trkpt lat="45.68385391968098" lon="10.045543339655891"><ele>182.0</ele><time>2026-04-11T14:32:20Z</time></trkpt><trkpt lat="45.68387176583238" lon="10.04575664664485"><ele>182.0</ele><time>2026-04-11T14:32:21Z</time></trkpt><trkpt lat="45.68390947944758" lon="10.045943013825461"><ele>182.0</ele><time>2026-04-11T14:32:22Z</time></trkpt><trkpt lat="45.6839329780472" lon="10.046123177627045"><ele>182.0</ele><time>2026-04-11T14:32:23Z</time></trkpt><trkpt lat="45.68397356165874" lon="10.04629108911843"><ele>182.0</ele><time>2026-04-11T14:32:24Z</time></trkpt><trkpt lat="45.6840085805401" lon="10.046441959278317"><ele>182.0</ele><time>2026-04-11T14:32:25Z</time></trkpt><trkpt lat="45.684050006286334" lon="10.046591249697265"><ele>182.0</ele><time>2026-04-11T14:32:26Z</time></trkpt><trkpt lat="45.68410208311747" lon="10.046744387878723"><ele>182.0</ele><time>2026-04-11T14:32:27Z</time></trkpt><trkpt lat="45.68414294836311" lon="10.046913471207864"><ele>182.0</ele><time>2026-04-11T14:32:28Z</time></trkpt><trkpt lat="45.684189829494365" lon="10.047074044416442"><ele>182.0</ele><time>2026-04-11T14:32:29.001Z</time></trkpt><trkpt lat="45.684230249774615" lon="10.04723101433162"><ele>182.0</ele><time>2026-04-11T14:32:30.001Z</time></trkpt><trkpt lat="45.68429735557943" lon="10.04737331722842"><ele>182.0</ele><time>2026-04-11T14:32:31.001Z</time></trkpt><trkpt lat="45.68436473902738" lon="10.047502669570974"><ele>182.0</ele><time>2026-04-11T14:32:32.001Z</time></trkpt><trkpt lat="45.68442146719939" lon="10.047643324697663"><ele>182.0</ele><time>2026-04-11T14:32:33.001Z</time></trkpt><trkpt lat="45.68448198316292" lon="10.04780221066486"><ele>182.0</ele><time>2026-04-11T14:32:34.001Z</time></trkpt><trkpt lat="45.68452222845424" lon="10.047972449160484"><ele>182.0</ele><time>2026-04-11T14:32:35.001Z</time></trkpt><trkpt lat="45.684562976119494" lon="10.048145746020639"><ele>182.0</ele><time>2026-04-11T14:32:36.001Z</time></trkpt><trkpt lat="45.68460656104332" lon="10.048315830015188"><ele>182.0</ele><time>2026-04-11T14:32:37.001Z</time></trkpt><trkpt lat="45.68466051837124" lon="10.048478064525183"><ele>182.0</ele><time>2026-04-11T14:32:38.001Z</time></trkpt><trkpt lat="45.68472931482922" lon="10.048637662338972"><ele>182.0</ele><time>2026-04-11T14:32:39.001Z</time></trkpt><trkpt lat="45.6848009314071" lon="10.048783671925543"><ele>182.0</ele><time>2026-04-11T14:32:40.001Z</time></trkpt><trkpt lat="45.68486199061632" lon="10.048935205716367"><ele>182.0</ele><time>2026-04-11T14:32:41.001Z</time></trkpt><trkpt lat="45.684921947614335" lon="10.049090980447247"><ele>182.0</ele><time>2026-04-11T14:32:42.001Z</time></trkpt><trkpt lat="45.68499196263061" lon="10.04923986322304"><ele>182.0</ele><time>2026-04-11T14:32:43.001Z</time></trkpt><trkpt lat="45.68506585462433" lon="10.049390957276163"><ele>182.0</ele><time>2026-04-11T14:32:44.001Z</time></trkpt><trkpt lat="45.68514245270267" lon="10.049548679674313"><ele>182.0</ele><time>2026-04-11T14:32:45.001Z</time></trkpt><trkpt lat="45.68522593114858" lon="10.049705891231806"><ele>182.0</ele><time>2026-04-11T14:32:46.014Z</time></trkpt><trkpt lat="45.68531010145361" lon="10.049871094561249"><ele>182.0</ele><time>2026-04-11T14:32:47.017Z</time></trkpt><trkpt lat="45.68540072804803" lon="10.050041550164869"><ele>182.0</ele><time>2026-04-11T14:32:48.022Z</time></trkpt><trkpt lat="45.685485338471075" lon="10.050212578351438"><ele>182.0</ele><time>2026-04-11T14:32:49.016Z</time></trkpt><trkpt lat="45.686423295488" lon="10.052582055189461"><ele>182.0</ele><time>2026-04-11T14:32:53.32Z</time></trkpt><trkpt lat="45.68656707745209" lon="10.053190908562296"><ele>182.0</ele><time>2026-04-11T14:32:54.321Z</time></trkpt><trkpt lat="45.686763944630194" lon="10.053763112720182"><ele>207.5</ele><time>2026-04-11T14:32:55.321Z</time></trkpt><trkpt lat="45.68706673623394" lon="10.054236799268557"><ele>233.0</ele><time>2026-04-11T14:32:56.322Z</time></trkpt><trkpt lat="45.68742453046291" lon="10.054623360518761"><ele>246.5</ele><time>2026-04-11T14:32:57.32Z</time></trkpt><trkpt lat="45.68779257198176" lon="10.054990807778164"><ele>260.0</ele><time>2026-04-11T14:32:58.318Z</time></trkpt><trkpt lat="45.6881620326977" lon="10.055356455478057"><ele>260.0</ele><time>2026-04-11T14:32:59.318Z</time></trkpt><trkpt lat="45.68855714853258" lon="10.055666574390271"><ele>240.0</ele><time>2026-04-11T14:33:00.321Z</time></trkpt><trkpt lat="45.688991933162406" lon="10.05582056889267"><ele>220.0</ele><time>2026-04-11T14:33:01.323Z</time></trkpt><trkpt lat="45.689440254871215" lon="10.055839395731343"><ele>210.0</ele><time>2026-04-11T14:33:02.32Z</time></trkpt><trkpt lat="45.68989002188753" lon="10.055793835146082"><ele>216.0</ele><time>2026-04-11T14:33:03.322Z</time></trkpt><trkpt lat="45.6901451" lon="10.0557616"><ele>222.0</ele><time>2026-04-11T14:33:04.323Z</time></trkpt><trkpt lat="45.690425117542674" lon="10.055655492479033"><ele>222.0</ele><time>2026-04-11T14:33:43.002Z</time></trkpt><trkpt lat="45.690535218877834" lon="10.05563513651334"><ele>222.0</ele><time>2026-04-11T14:33:44.002Z</time></trkpt><trkpt lat="45.690630918907196" lon="10.055641667255145"><ele>222.0</ele><time>2026-04-11T14:33:45.002Z</time></trkpt><trkpt lat="45.69073468924719" lon="10.055571633026048"><ele>222.0</ele><time>2026-04-11T14:33:46.002Z</time></trkpt><trkpt lat="45.690834356129585" lon="10.055486260858757"><ele>222.0</ele><time>2026-04-11T14:33:47.002Z</time></trkpt><trkpt lat="45.69092720115633" lon="10.05541754925042"><ele>222.0</ele><time>2026-04-11T14:33:48.003Z</time></trkpt><trkpt lat="45.69102546758947" lon="10.055328217790896"><ele>222.0</ele><time>2026-04-11T14:33:49.003Z</time></trkpt><trkpt lat="45.69112264172108" lon="10.055247573941998"><ele>222.0</ele><time>2026-04-11T14:33:50.003Z</time></trkpt><trkpt lat="45.69122462388779" lon="10.055171799751824"><ele>222.0</ele><time>2026-04-11T14:33:51.003Z</time></trkpt><trkpt lat="45.69133413674455" lon="10.055108001840697"><ele>218.0</ele><time>2026-04-11T14:33:52.003Z</time></trkpt><trkpt lat="45.69145494031965" lon="10.055074952680373"><ele>214.0</ele><time>2026-04-11T14:33:53.003Z</time></trkpt><trkpt lat="45.69157334118239" lon="10.055044071227385"><ele>210.0</ele><time>2026-04-11T14:33:54.003Z</time></trkpt><trkpt lat="45.691701992355455" lon="10.055032469968587"><ele>206.0</ele><time>2026-04-11T14:33:55.003Z</time></trkpt><trkpt lat="45.6918253961319" lon="10.055052822600686"><ele>205.5</ele><time>2026-04-11T14:33:56.003Z</time></trkpt><trkpt lat="45.6919429146238" lon="10.055106177373855"><ele>205.0</ele><time>2026-04-11T14:33:57.003Z</time></trkpt><trkpt lat="45.692060945724904" lon="10.055158990581909"><ele>204.5</ele><time>2026-04-11T14:33:58.003Z</time></trkpt><trkpt lat="45.692171471016366" lon="10.055215455575457"><ele>204.0</ele><time>2026-04-11T14:33:59.003Z</time></trkpt><trkpt lat="45.692291732168584" lon="10.055268534621176"><ele>204.0</ele><time>2026-04-11T14:34:00.003Z</time></trkpt><trkpt lat="45.69241380553241" lon="10.055311621490516"><ele>204.0</ele><time>2026-04-11T14:34:01Z</time></trkpt><trkpt lat="45.69253544021306" lon="10.055347931203345"><ele>204.0</ele><time>2026-04-11T14:34:02Z</time></trkpt><trkpt lat="45.69266081315499" lon="10.055346990428145"><ele>204.0</ele><time>2026-04-11T14:34:03Z</time></trkpt><trkpt lat="45.69278874382175" lon="10.05531451867308"><ele>199.66666666666666</ele><time>2026-04-11T14:34:04Z</time></trkpt><trkpt lat="45.69292360261423" lon="10.055245478964528"><ele>195.33333333333331</ele><time>2026-04-11T14:34:05Z</time></trkpt><trkpt lat="45.693075758643246" lon="10.055178104192022"><ele>191.0</ele><time>2026-04-11T14:34:06Z</time></trkpt><trkpt lat="45.693242184787316" lon="10.055075985402945"><ele>191.0</ele><time>2026-04-11T14:34:07Z</time></trkpt><trkpt lat="45.69341415474574" lon="10.054960225189562"><ele>191.0</ele><time>2026-04-11T14:34:08Z</time></trkpt><trkpt lat="45.69357576863841" lon="10.054856748092979"><ele>191.0</ele><time>2026-04-11T14:34:09Z</time></trkpt><trkpt lat="45.69374610609972" lon="10.054763409017927"><ele>195.33333333333331</ele><time>2026-04-11T14:34:10Z</time></trkpt><trkpt lat="45.693909227439725" lon="10.054662531133207"><ele>199.66666666666666</ele><time>2026-04-11T14:34:11Z</time></trkpt><trkpt lat="45.69407037702097" lon="10.054566200086928"><ele>204.0</ele><time>2026-04-11T14:34:12Z</time></trkpt><trkpt lat="45.69423652554719" lon="10.054501219148172"><ele>204.0</ele><time>2026-04-11T14:34:13Z</time></trkpt><trkpt lat="45.694401097006796" lon="10.054477643147118"><ele>204.0</ele><time>2026-04-11T14:34:14Z</time></trkpt><trkpt lat="45.69457234941959" lon="10.054475221559759"><ele>204.0</ele><time>2026-04-11T14:34:15Z</time></trkpt><trkpt lat="45.69473798476189" lon="10.0545071683118"><ele>201.75</ele><time>2026-04-11T14:34:16Z</time></trkpt><trkpt lat="45.694896665227816" lon="10.054562860805918"><ele>199.5</ele><time>2026-04-11T14:34:17Z</time></trkpt><trkpt lat="45.695046730455076" lon="10.054602858350039"><ele>197.25</ele><time>2026-04-11T14:34:18Z</time></trkpt><trkpt lat="45.695170739376806" lon="10.054640301162406"><ele>195.0</ele><time>2026-04-11T14:34:19Z</time></trkpt><trkpt lat="45.69529151866376" lon="10.054695452955322"><ele>195.0</ele><time>2026-04-11T14:34:20Z</time></trkpt><trkpt lat="45.69540626983525" lon="10.05474107422358"><ele>195.0</ele><time>2026-04-11T14:34:21Z</time></trkpt><trkpt lat="45.69551871593645" lon="10.054772126219746"><ele>195.0</ele><time>2026-04-11T14:34:22Z</time></trkpt><trkpt lat="45.6956345646484" lon="10.05478005448981"><ele>195.0</ele><time>2026-04-11T14:34:23Z</time></trkpt><trkpt lat="45.69575022194306" lon="10.054749288458606"><ele>195.0</ele><time>2026-04-11T14:34:24Z</time></trkpt><trkpt lat="45.69585989328845" lon="10.054692155668807"><ele>195.0</ele><time>2026-04-11T14:34:25.001Z</time></trkpt><trkpt lat="45.695961587100726" lon="10.054609007743595"><ele>195.0</ele><time>2026-04-11T14:34:26.001Z</time></trkpt><trkpt lat="45.69605663010605" lon="10.054498391523905"><ele>195.0</ele><time>2026-04-11T14:34:27.001Z</time></trkpt><trkpt lat="45.69616284201264" lon="10.054380599818742"><ele>193.0</ele><time>2026-04-11T14:34:28.001Z</time></trkpt><trkpt lat="45.69627773776994" lon="10.054269824235739"><ele>191.0</ele><time>2026-04-11T14:34:29.001Z</time></trkpt><trkpt lat="45.696392257112436" lon="10.054164578025688"><ele>189.0</ele><time>2026-04-11T14:34:30.001Z</time></trkpt><trkpt lat="45.69650004588813" lon="10.054041800987132"><ele>187.0</ele><time>2026-04-11T14:34:31.001Z</time></trkpt><trkpt lat="45.69661759449578" lon="10.053926761644897"><ele>187.33333333333334</ele><time>2026-04-11T14:34:32.001Z</time></trkpt><trkpt lat="45.69673906104356" lon="10.053823078798457"><ele>187.66666666666666</ele><time>2026-04-11T14:34:33.001Z</time></trkpt><trkpt lat="45.69687304103146" lon="10.053718483290236"><ele>188.0</ele><time>2026-04-11T14:34:34.001Z</time></trkpt><trkpt lat="45.69701474148543" lon="10.053608546733306"><ele>188.0</ele><time>2026-04-11T14:34:35.001Z</time></trkpt><trkpt lat="45.69715871637095" lon="10.053496461510221"><ele>188.0</ele><time>2026-04-11T14:34:36.001Z</time></trkpt><trkpt lat="45.69730210691595" lon="10.053393490346426"><ele>188.0</ele><time>2026-04-11T14:34:37.001Z</time></trkpt><trkpt lat="45.697446293933794" lon="10.053293913053894"><ele>190.0</ele><time>2026-04-11T14:34:38.001Z</time></trkpt><trkpt lat="45.69759118552528" lon="10.053186933449531"><ele>192.0</ele><time>2026-04-11T14:34:39.001Z</time></trkpt><trkpt lat="45.697734952952274" lon="10.053089335574215"><ele>194.0</ele><time>2026-04-11T14:34:40.001Z</time></trkpt><trkpt lat="45.69787179814233" lon="10.052984879868974"><ele>194.0</ele><time>2026-04-11T14:34:41.001Z</time></trkpt><trkpt lat="45.69800754777736" lon="10.052877949860532"><ele>194.0</ele><time>2026-04-11T14:34:42.001Z</time></trkpt><trkpt lat="45.6981484358681" lon="10.052781883928214"><ele>194.0</ele><time>2026-04-11T14:34:43.001Z</time></trkpt><trkpt lat="45.698289136176946" lon="10.052693563154168"><ele>194.0</ele><time>2026-04-11T14:34:44.001Z</time></trkpt><trkpt lat="45.69843107542526" lon="10.052628170629115"><ele>194.0</ele><time>2026-04-11T14:34:45.001Z</time></trkpt><trkpt lat="45.69857763347461" lon="10.052600435935874"><ele>194.0</ele><time>2026-04-11T14:34:46.001Z</time></trkpt><trkpt lat="45.698726136686105" lon="10.052590816416561"><ele>194.0</ele><time>2026-04-11T14:34:47.001Z</time></trkpt><trkpt lat="45.698882650132944" lon="10.052583425882005"><ele>192.5</ele><time>2026-04-11T14:34:48.001Z</time></trkpt><trkpt lat="45.699041367522035" lon="10.052580001908234"><ele>191.0</ele><time>2026-04-11T14:34:49.001Z</time></trkpt><trkpt lat="45.699180657628666" lon="10.052549403717055"><ele>189.5</ele><time>2026-04-11T14:34:50.001Z</time></trkpt><trkpt lat="45.69931443305902" lon="10.05249571746214"><ele>188.0</ele><time>2026-04-11T14:34:51.001Z</time></trkpt><trkpt lat="45.69944470274136" lon="10.052419415147996"><ele>192.0</ele><time>2026-04-11T14:34:52.001Z</time></trkpt><trkpt lat="45.69959408434842" lon="10.052332329727712"><ele>196.0</ele><time>2026-04-11T14:34:53.001Z</time></trkpt><trkpt lat="45.69974524501997" lon="10.052257532178135"><ele>200.0</ele><time>2026-04-11T14:34:54.001Z</time></trkpt><trkpt lat="45.699880331507586" lon="10.052189672390996"><ele>200.0</ele><time>2026-04-11T14:34:55.001Z</time></trkpt><trkpt lat="45.7000354775307" lon="10.052120488537271"><ele>200.0</ele><time>2026-04-11T14:34:56.001Z</time></trkpt><trkpt lat="45.70019013944253" lon="10.05205904237085"><ele>200.0</ele><time>2026-04-11T14:34:57.001Z</time></trkpt><trkpt lat="45.70033990308863" lon="10.052003819593455"><ele>197.33333333333334</ele><time>2026-04-11T14:34:58.001Z</time></trkpt><trkpt lat="45.700513030048405" lon="10.051941880587393"><ele>194.66666666666669</ele><time>2026-04-11T14:34:59.001Z</time></trkpt><trkpt lat="45.70069103050229" lon="10.051886134795431"><ele>192.0</ele><time>2026-04-11T14:35:00.001Z</time></trkpt><trkpt lat="45.70084359097785" lon="10.05186510188973"><ele>192.0</ele><time>2026-04-11T14:35:01.001Z</time></trkpt><trkpt lat="45.700998288993745" lon="10.051846854463896"><ele>192.0</ele><time>2026-04-11T14:35:02.001Z</time></trkpt><trkpt lat="45.70115208364348" lon="10.051821110307069"><ele>192.0</ele><time>2026-04-11T14:35:03.001Z</time></trkpt><trkpt lat="45.701300128981885" lon="10.051796067447944"><ele>190.5</ele><time>2026-04-11T14:35:04.001Z</time></trkpt><trkpt lat="45.70144330009252" lon="10.051748400849133"><ele>189.0</ele><time>2026-04-11T14:35:05.001Z</time></trkpt><trkpt lat="45.70158091478241" lon="10.051678565059364"><ele>187.5</ele><time>2026-04-11T14:35:06.001Z</time></trkpt><trkpt lat="45.70170882686145" lon="10.051568750339817"><ele>186.0</ele><time>2026-04-11T14:35:07.001Z</time></trkpt><trkpt lat="45.701844346062224" lon="10.05144843227424"><ele>186.0</ele><time>2026-04-11T14:35:08.002Z</time></trkpt><trkpt lat="45.70198370836674" lon="10.05132364697139"><ele>186.0</ele><time>2026-04-11T14:35:09.002Z</time></trkpt><trkpt lat="45.70212021100637" lon="10.051174926625723"><ele>186.0</ele><time>2026-04-11T14:35:10.002Z</time></trkpt><trkpt lat="45.70226344638955" lon="10.05103543005485"><ele>186.0</ele><time>2026-04-11T14:35:11.002Z</time></trkpt><trkpt lat="45.70239737433637" lon="10.05088732502603"><ele>186.0</ele><time>2026-04-11T14:35:12.002Z</time></trkpt><trkpt lat="45.70252497206517" lon="10.050742815063513"><ele>186.0</ele><time>2026-04-11T14:35:13.002Z</time></trkpt><trkpt lat="45.70264281626943" lon="10.05058771758324"><ele>186.33333333333334</ele><time>2026-04-11T14:35:14.002Z</time></trkpt><trkpt lat="45.70275717592559" lon="10.050441866513165"><ele>186.66666666666669</ele><time>2026-04-11T14:35:15.002Z</time></trkpt><trkpt lat="45.702865461620284" lon="10.050285925546687"><ele>187.0</ele><time>2026-04-11T14:35:16.002Z</time></trkpt><trkpt lat="45.70296804795576" lon="10.050126966048266"><ele>187.0</ele><time>2026-04-11T14:35:17.002Z</time></trkpt><trkpt lat="45.70307812415541" lon="10.04998911579604"><ele>187.0</ele><time>2026-04-11T14:35:18.002Z</time></trkpt><trkpt lat="45.703186763294134" lon="10.049866811244465"><ele>187.0</ele><time>2026-04-11T14:35:19.002Z</time></trkpt><trkpt lat="45.70328806050826" lon="10.04972968724491"><ele>187.0</ele><time>2026-04-11T14:35:20.002Z</time></trkpt><trkpt lat="45.70339187291689" lon="10.04958406310413"><ele>187.66666666666669</ele><time>2026-04-11T14:35:21.002Z</time></trkpt><trkpt lat="45.7035267840361" lon="10.049447884419315"><ele>188.33333333333334</ele><time>2026-04-11T14:35:22.002Z</time></trkpt><trkpt lat="45.70364594650848" lon="10.049312456483229"><ele>189.0</ele><time>2026-04-11T14:35:23.002Z</time></trkpt><trkpt lat="45.7037587588697" lon="10.04919428232084"><ele>200.33333333333331</ele><time>2026-04-11T14:35:24.002Z</time></trkpt><trkpt lat="45.70389357840326" lon="10.049087644532653"><ele>211.66666666666666</ele><time>2026-04-11T14:35:25.002Z</time></trkpt><trkpt lat="45.70403833337055" lon="10.04899772829033"><ele>223.0</ele><time>2026-04-11T14:35:26.002Z</time></trkpt><trkpt lat="45.70418981372357" lon="10.048906398374767"><ele>223.0</ele><time>2026-04-11T14:35:27.002Z</time></trkpt><trkpt lat="45.704339307564915" lon="10.048818491085207"><ele>223.0</ele><time>2026-04-11T14:35:28.002Z</time></trkpt><trkpt lat="45.70450266029892" lon="10.048724612597182"><ele>223.0</ele><time>2026-04-11T14:35:29.002Z</time></trkpt><trkpt lat="45.70466894895304" lon="10.04861687547209"><ele>215.0</ele><time>2026-04-11T14:35:30.002Z</time></trkpt><trkpt lat="45.70483775862826" lon="10.048526868079982"><ele>207.0</ele><time>2026-04-11T14:35:31.002Z</time></trkpt><trkpt lat="45.70500248975236" lon="10.04842972560074"><ele>199.0</ele><time>2026-04-11T14:35:32.002Z</time></trkpt><trkpt lat="45.705164006021064" lon="10.048330992738439"><ele>202.0</ele><time>2026-04-11T14:35:33.002Z</time></trkpt><trkpt lat="45.70532536001904" lon="10.048233086831926"><ele>205.0</ele><time>2026-04-11T14:35:34.002Z</time></trkpt><trkpt lat="45.70548624544884" lon="10.048141286838252"><ele>208.0</ele><time>2026-04-11T14:35:35.002Z</time></trkpt><trkpt lat="45.70564498420843" lon="10.048046912164605"><ele>208.0</ele><time>2026-04-11T14:35:36.002Z</time></trkpt><trkpt lat="45.70579742341072" lon="10.047956913724358"><ele>208.0</ele><time>2026-04-11T14:35:37.002Z</time></trkpt><trkpt lat="45.7059385271328" lon="10.047873903263866"><ele>208.0</ele><time>2026-04-11T14:35:38.002Z</time></trkpt><trkpt lat="45.70607708979227" lon="10.04780198675186"><ele>201.66666666666666</ele><time>2026-04-11T14:35:39.002Z</time></trkpt><trkpt lat="45.70622002479247" lon="10.04774766474321"><ele>195.33333333333331</ele><time>2026-04-11T14:35:40.002Z</time></trkpt><trkpt lat="45.70637448465196" lon="10.047698254453204"><ele>189.0</ele><time>2026-04-11T14:35:41.002Z</time></trkpt><trkpt lat="45.706525185118075" lon="10.047646400793237"><ele>189.0</ele><time>2026-04-11T14:35:42.002Z</time></trkpt><trkpt lat="45.706688571125135" lon="10.047590043062595"><ele>189.0</ele><time>2026-04-11T14:35:43.002Z</time></trkpt><trkpt lat="45.706891654871455" lon="10.047499477012913"><ele>189.0</ele><time>2026-04-11T14:35:44.002Z</time></trkpt><trkpt lat="45.707057634548114" lon="10.047422428059683"><ele>192.0</ele><time>2026-04-11T14:35:45.002Z</time></trkpt><trkpt lat="45.70725436045551" lon="10.04734422325214"><ele>195.0</ele><time>2026-04-11T14:35:46.002Z</time></trkpt><trkpt lat="45.70740690809045" lon="10.047244227817883"><ele>198.0</ele><time>2026-04-11T14:35:47.002Z</time></trkpt><trkpt lat="45.70758143285847" lon="10.047140667852"><ele>195.66666666666666</ele><time>2026-04-11T14:35:48.002Z</time></trkpt><trkpt lat="45.707752839586604" lon="10.047067422981474"><ele>193.33333333333331</ele><time>2026-04-11T14:35:49.003Z</time></trkpt><trkpt lat="45.70791357592605" lon="10.046991706564611"><ele>191.0</ele><time>2026-04-11T14:35:50.003Z</time></trkpt><trkpt lat="45.70805779615118" lon="10.046940851100707"><ele>191.0</ele><time>2026-04-11T14:35:51.003Z</time></trkpt><trkpt lat="45.708193230411844" lon="10.046892572067012"><ele>191.0</ele><time>2026-04-11T14:35:52.003Z</time></trkpt><trkpt lat="45.708340452642275" lon="10.046842931316181"><ele>191.0</ele><time>2026-04-11T14:35:53.003Z</time></trkpt><trkpt lat="45.70849011047839" lon="10.046807220908795"><ele>191.0</ele><time>2026-04-11T14:35:54.003Z</time></trkpt><trkpt lat="45.708637071600954" lon="10.046788725177432"><ele>192.20000000000002</ele><time>2026-04-11T14:35:55.003Z</time></trkpt><trkpt lat="45.7087474002287" lon="10.046776087501323"><ele>193.4</ele><time>2026-04-11T14:35:56.003Z</time></trkpt><trkpt lat="45.708857873278774" lon="10.046820253604977"><ele>194.6</ele><time>2026-04-11T14:35:57.003Z</time></trkpt><trkpt lat="45.70895976065847" lon="10.046879589721728"><ele>195.8</ele><time>2026-04-11T14:35:58.003Z</time></trkpt><trkpt lat="45.70903974762786" lon="10.046910971434576"><ele>197.0</ele><time>2026-04-11T14:35:59.003Z</time></trkpt><trkpt lat="45.709121971997995" lon="10.046968748174226"><ele>197.00000000000003</ele><time>2026-04-11T14:36:00.003Z</time></trkpt><trkpt lat="45.70919828393293" lon="10.047023382252485"><ele>197.0</ele><time>2026-04-11T14:36:01.003Z</time></trkpt><trkpt lat="45.709268615289766" lon="10.047063721908549"><ele>197.0</ele><time>2026-04-11T14:36:02.003Z</time></trkpt><trkpt lat="45.709344019629356" lon="10.047109253777432"><ele>197.0</ele><time>2026-04-11T14:36:03.003Z</time></trkpt><trkpt lat="45.70942060401547" lon="10.047174321025619"><ele>197.00000000000003</ele><time>2026-04-11T14:36:04.003Z</time></trkpt><trkpt lat="45.709499116182776" lon="10.047269615994036"><ele>197.0</ele><time>2026-04-11T14:36:05.003Z</time></trkpt><trkpt lat="45.709571946375945" lon="10.047395176409903"><ele>195.8</ele><time>2026-04-11T14:36:06.003Z</time></trkpt><trkpt lat="45.70964199500355" lon="10.047513195881377"><ele>194.6</ele><time>2026-04-11T14:36:07.001Z</time></trkpt><trkpt lat="45.70970731417" lon="10.047653017720128"><ele>193.4</ele><time>2026-04-11T14:36:08.001Z</time></trkpt><trkpt lat="45.709779309359696" lon="10.047776113344051"><ele>192.20000000000002</ele><time>2026-04-11T14:36:09.001Z</time></trkpt><trkpt lat="45.709861201842784" lon="10.047875460538918"><ele>191.0</ele><time>2026-04-11T14:36:10.001Z</time></trkpt><trkpt lat="45.70995555866032" lon="10.047944848976288"><ele>191.0</ele><time>2026-04-11T14:36:11.001Z</time></trkpt><trkpt lat="45.7100723265724" lon="10.0479852673839"><ele>191.0</ele><time>2026-04-11T14:36:12.001Z</time></trkpt><trkpt lat="45.71019613126657" lon="10.048008179099345"><ele>191.0</ele><time>2026-04-11T14:36:13.001Z</time></trkpt><trkpt lat="45.710318555894574" lon="10.048037692489784"><ele>191.0</ele><time>2026-04-11T14:36:14.001Z</time></trkpt><trkpt lat="45.71044226593975" lon="10.048076591167794"><ele>191.75</ele><time>2026-04-11T14:36:15.001Z</time></trkpt><trkpt lat="45.71055234388245" lon="10.048106697726594"><ele>192.5</ele><time>2026-04-11T14:36:16.001Z</time></trkpt><trkpt lat="45.71067518157419" lon="10.048127547953566"><ele>193.25</ele><time>2026-04-11T14:36:17.001Z</time></trkpt><trkpt lat="45.71080109999196" lon="10.048126492564515"><ele>194.0</ele><time>2026-04-11T14:36:18.001Z</time></trkpt><trkpt lat="45.71092344290525" lon="10.048084890551756"><ele>194.0</ele><time>2026-04-11T14:36:19.001Z</time></trkpt><trkpt lat="45.711041114679" lon="10.048030305640962"><ele>194.0</ele><time>2026-04-11T14:36:20.001Z</time></trkpt><trkpt lat="45.71116330006528" lon="10.047950575273127"><ele>194.0</ele><time>2026-04-11T14:36:21.001Z</time></trkpt><trkpt lat="45.711277020522495" lon="10.047841225199878"><ele>194.0</ele><time>2026-04-11T14:36:22.001Z</time></trkpt><trkpt lat="45.71137905790485" lon="10.047703290801719"><ele>194.0</ele><time>2026-04-11T14:36:23.001Z</time></trkpt><trkpt lat="45.71145776158107" lon="10.047523478301217"><ele>194.0</ele><time>2026-04-11T14:36:24.001Z</time></trkpt><trkpt lat="45.711546980156264" lon="10.0473510386167"><ele>194.0</ele><time>2026-04-11T14:36:25.001Z</time></trkpt><trkpt lat="45.71162970903769" lon="10.047187006879444"><ele>194.0</ele><time>2026-04-11T14:36:26.001Z</time></trkpt><trkpt lat="45.7117096603858" lon="10.047039248730094"><ele>194.0</ele><time>2026-04-11T14:36:27.001Z</time></trkpt><trkpt lat="45.711793972279025" lon="10.046888947736502"><ele>194.0</ele><time>2026-04-11T14:36:28.001Z</time></trkpt><trkpt lat="45.71186628299908" lon="10.046763328426573"><ele>194.0</ele><time>2026-04-11T14:36:29.001Z</time></trkpt><trkpt lat="45.71194845103747" lon="10.046648576751315"><ele>194.0</ele><time>2026-04-11T14:36:30.001Z</time></trkpt><trkpt lat="45.71204480415347" lon="10.046578826964808"><ele>196.25</ele><time>2026-04-11T14:36:31.001Z</time></trkpt><trkpt lat="45.71213812230008" lon="10.04658589063251"><ele>198.5</ele><time>2026-04-11T14:36:32.001Z</time></trkpt><trkpt lat="45.71224745416685" lon="10.046647148976719"><ele>200.75</ele><time>2026-04-11T14:36:33.001Z</time></trkpt><trkpt lat="45.712357376339284" lon="10.046722308504672"><ele>203.0</ele><time>2026-04-11T14:36:34.001Z</time></trkpt><trkpt lat="45.71248637443332" lon="10.046788610361716"><ele>203.0</ele><time>2026-04-11T14:36:35.001Z</time></trkpt><trkpt lat="45.71262272481962" lon="10.046861638691166"><ele>203.0</ele><time>2026-04-11T14:36:36.001Z</time></trkpt><trkpt lat="45.712767024626714" lon="10.04694086718759"><ele>203.0</ele><time>2026-04-11T14:36:37.001Z</time></trkpt><trkpt lat="45.712916591828474" lon="10.0470312001993"><ele>206.66666666666669</ele><time>2026-04-11T14:36:38.001Z</time></trkpt><trkpt lat="45.71307842710572" lon="10.047101549594117"><ele>210.33333333333331</ele><time>2026-04-11T14:36:39.001Z</time></trkpt><trkpt lat="45.71324489336103" lon="10.047153894292933"><ele>214.0</ele><time>2026-04-11T14:36:40.001Z</time></trkpt><trkpt lat="45.713419326840324" lon="10.047188715143395"><ele>213.33333333333331</ele><time>2026-04-11T14:36:41.001Z</time></trkpt><trkpt lat="45.713604819706056" lon="10.047236779405706"><ele>212.66666666666669</ele><time>2026-04-11T14:36:42.001Z</time></trkpt><trkpt lat="45.71376880757853" lon="10.04725675174879"><ele>212.0</ele><time>2026-04-11T14:36:43.001Z</time></trkpt><trkpt lat="45.71393735584769" lon="10.047285314747157"><ele>212.0</ele><time>2026-04-11T14:36:44.001Z</time></trkpt><trkpt lat="45.714099229758865" lon="10.04732551736726"><ele>212.0</ele><time>2026-04-11T14:36:45.001Z</time></trkpt><trkpt lat="45.714263403327045" lon="10.047366059112301"><ele>212.0</ele><time>2026-04-11T14:36:46.001Z</time></trkpt><trkpt lat="45.714418232819014" lon="10.04740483150604"><ele>205.33333333333334</ele><time>2026-04-11T14:36:47.001Z</time></trkpt><trkpt lat="45.714575085856005" lon="10.04746319578026"><ele>198.66666666666669</ele><time>2026-04-11T14:36:48.001Z</time></trkpt><trkpt lat="45.71473613092505" lon="10.04751197185517"><ele>192.0</ele><time>2026-04-11T14:36:49.001Z</time></trkpt><trkpt lat="45.714908693365025" lon="10.047554054549837"><ele>192.0</ele><time>2026-04-11T14:36:50.001Z</time></trkpt><trkpt lat="45.71508236284603" lon="10.04756957293056"><ele>192.0</ele><time>2026-04-11T14:36:51.001Z</time></trkpt><trkpt lat="45.71525797759821" lon="10.047560311846569"><ele>192.0</ele><time>2026-04-11T14:36:52.001Z</time></trkpt><trkpt lat="45.715435246783684" lon="10.047545994989877"><ele>193.66666666666669</ele><time>2026-04-11T14:36:53.001Z</time></trkpt><trkpt lat="45.71560972799257" lon="10.047539022954993"><ele>195.33333333333334</ele><time>2026-04-11T14:36:54.001Z</time></trkpt><trkpt lat="45.71578520173815" lon="10.04756441408871"><ele>197.0</ele><time>2026-04-11T14:36:55.001Z</time></trkpt><trkpt lat="45.71595244368401" lon="10.04760280930169"><ele>198.66666666666669</ele><time>2026-04-11T14:36:56.001Z</time></trkpt><trkpt lat="45.71611678068339" lon="10.047641488185098"><ele>200.33333333333331</ele><time>2026-04-11T14:36:57.001Z</time></trkpt><trkpt lat="45.71628898730628" lon="10.047683286387716"><ele>202.0</ele><time>2026-04-11T14:36:58.001Z</time></trkpt><trkpt lat="45.716442699991084" lon="10.04773060388086"><ele>202.0</ele><time>2026-04-11T14:36:59.001Z</time></trkpt><trkpt lat="45.716586737398934" lon="10.047810376811185"><ele>202.0</ele><time>2026-04-11T14:37:00.001Z</time></trkpt><trkpt lat="45.716736864487586" lon="10.047892026153232"><ele>202.0</ele><time>2026-04-11T14:37:01.001Z</time></trkpt><trkpt lat="45.716897496623126" lon="10.047952957190873"><ele>200.66666666666666</ele><time>2026-04-11T14:37:02.001Z</time></trkpt><trkpt lat="45.71706034807013" lon="10.047977844839075"><ele>199.33333333333331</ele><time>2026-04-11T14:37:03.001Z</time></trkpt><trkpt lat="45.71719654717067" lon="10.047940165566901"><ele>198.0</ele><time>2026-04-11T14:37:04.001Z</time></trkpt><trkpt lat="45.71734929262526" lon="10.047890323195546"><ele>198.0</ele><time>2026-04-11T14:37:05.001Z</time></trkpt><trkpt lat="45.717528459628035" lon="10.047880529193892"><ele>198.0</ele><time>2026-04-11T14:37:06.001Z</time></trkpt><trkpt lat="45.71770918910482" lon="10.04789143280902"><ele>198.0</ele><time>2026-04-11T14:37:07.001Z</time></trkpt><trkpt lat="45.71787085281929" lon="10.047934224541837"><ele>197.66666666666669</ele><time>2026-04-11T14:37:08.001Z</time></trkpt><trkpt lat="45.718035591144755" lon="10.047975646624062"><ele>197.33333333333334</ele><time>2026-04-11T14:37:09.001Z</time></trkpt><trkpt lat="45.71819677786656" lon="10.04802184416974"><ele>197.0</ele><time>2026-04-11T14:37:10.001Z</time></trkpt><trkpt lat="45.718337455164104" lon="10.048074680817896"><ele>197.0</ele><time>2026-04-11T14:37:11.001Z</time></trkpt><trkpt lat="45.71848038034012" lon="10.048054338475021"><ele>197.0</ele><time>2026-04-11T14:37:12.001Z</time></trkpt><trkpt lat="45.71860117108616" lon="10.048098316582541"><ele>197.0</ele><time>2026-04-11T14:37:13.001Z</time></trkpt><trkpt lat="45.718716220453445" lon="10.04814740008916"><ele>197.0</ele><time>2026-04-11T14:37:14.002Z</time></trkpt><trkpt lat="45.71881811552093" lon="10.048205430609448"><ele>200.2</ele><time>2026-04-11T14:37:15.002Z</time></trkpt><trkpt lat="45.71890854960971" lon="10.04823126466971"><ele>203.39999999999998</ele><time>2026-04-11T14:37:16.002Z</time></trkpt><trkpt lat="45.718978797760656" lon="10.04823174355385"><ele>206.60000000000002</ele><time>2026-04-11T14:37:17.002Z</time></trkpt><trkpt lat="45.71905121489758" lon="10.048248201925329"><ele>209.8</ele><time>2026-04-11T14:37:18.002Z</time></trkpt><trkpt lat="45.71916386052131" lon="10.048257805025372"><ele>213.0</ele><time>2026-04-11T14:37:20.002Z</time></trkpt><trkpt lat="45.71923169580808" lon="10.048049933624666"><ele>213.0</ele><time>2026-04-11T14:37:23.002Z</time></trkpt><trkpt lat="45.71922359592477" lon="10.047917493119293"><ele>213.0</ele><time>2026-04-11T14:37:24.002Z</time></trkpt><trkpt lat="45.71921419062314" lon="10.047806201053115"><ele>213.0</ele><time>2026-04-11T14:37:25.002Z</time></trkpt><trkpt lat="45.719205884389346" lon="10.047698115238601"><ele>213.0</ele><time>2026-04-11T14:37:26.002Z</time></trkpt><trkpt lat="45.7191641923084" lon="10.047601970068978"><ele>213.0</ele><time>2026-04-11T14:37:27.002Z</time></trkpt><trkpt lat="45.71908027060456" lon="10.04754845141753"><ele>213.0</ele><time>2026-04-11T14:37:28.002Z</time></trkpt><trkpt lat="45.71899672032083" lon="10.047510705271575"><ele>213.0</ele><time>2026-04-11T14:37:29.002Z</time></trkpt><trkpt lat="45.71890404753844" lon="10.04747212570489"><ele>213.0</ele><time>2026-04-11T14:37:30.002Z</time></trkpt><trkpt lat="45.718802661370255" lon="10.047407793748471"><ele>213.0</ele><time>2026-04-11T14:37:31.002Z</time></trkpt><trkpt lat="45.71869991118783" lon="10.047354238940718"><ele>213.0</ele><time>2026-04-11T14:37:32.002Z</time></trkpt><trkpt lat="45.7186052672896" lon="10.047345483768249"><ele>213.0</ele><time>2026-04-11T14:37:33.002Z</time></trkpt><trkpt lat="45.718513882801" lon="10.047322722681253"><ele>214.83333333333334</ele><time>2026-04-11T14:37:34.002Z</time></trkpt><trkpt lat="45.71842273865712" lon="10.047287433172265"><ele>216.66666666666669</ele><time>2026-04-11T14:37:35.002Z</time></trkpt><trkpt lat="45.71833770422482" lon="10.04727244098904"><ele>218.5</ele><time>2026-04-11T14:37:36.002Z</time></trkpt><trkpt lat="45.718260415585654" lon="10.047266185556653"><ele>220.33333333333334</ele><time>2026-04-11T14:37:37.002Z</time></trkpt><trkpt lat="45.718189670350604" lon="10.04725169211541"><ele>222.16666666666669</ele><time>2026-04-11T14:37:38.002Z</time></trkpt><trkpt lat="45.71812155868162" lon="10.04719766825157"><ele>224.0</ele><time>2026-04-11T14:37:39.002Z</time></trkpt><trkpt lat="45.7180881572521" lon="10.047099829280329"><ele>224.00000000000003</ele><time>2026-04-11T14:37:40.002Z</time></trkpt><trkpt lat="45.71814549789921" lon="10.047030311500631"><ele>224.0</ele><time>2026-04-11T14:37:41.002Z</time></trkpt><trkpt lat="45.718199618876504" lon="10.046955223345906"><ele>224.0</ele><time>2026-04-11T14:37:42.002Z</time></trkpt><trkpt lat="45.718290692585015" lon="10.047005492628049"><ele>224.0</ele><time>2026-04-11T14:37:43.002Z</time></trkpt><trkpt lat="45.7183786121069" lon="10.047054233306545"><ele>224.00000000000003</ele><time>2026-04-11T14:37:44.002Z</time></trkpt><trkpt lat="45.71847610848956" lon="10.047091738277567"><ele>224.0</ele><time>2026-04-11T14:37:45.002Z</time></trkpt><trkpt lat="45.71861070785938" lon="10.047110058742518"><ele>230.0</ele><time>2026-04-11T14:37:46.002Z</time></trkpt><trkpt lat="45.718732353582546" lon="10.047116149557565"><ele>236.0</ele><time>2026-04-11T14:37:47.002Z</time></trkpt><trkpt lat="45.7188509368291" lon="10.047139354618222"><ele>242.0</ele><time>2026-04-11T14:37:48.002Z</time></trkpt><trkpt lat="45.718959107341114" lon="10.047218371272487"><ele>248.0</ele><time>2026-04-11T14:37:49.002Z</time></trkpt><trkpt lat="45.71909476912352" lon="10.047269593945487"><ele>248.0</ele><time>2026-04-11T14:37:50.002Z</time></trkpt><trkpt lat="45.719200457431796" lon="10.047331006763018"><ele>248.0</ele><time>2026-04-11T14:37:51.002Z</time></trkpt><trkpt lat="45.71929047721363" lon="10.047418800360292"><ele>248.0</ele><time>2026-04-11T14:37:52.002Z</time></trkpt><trkpt lat="45.71937054443331" lon="10.047490649179279"><ele>248.0</ele><time>2026-04-11T14:37:53.002Z</time></trkpt><trkpt lat="45.719441954912554" lon="10.04755326361259"><ele>248.0</ele><time>2026-04-11T14:37:54.002Z</time></trkpt><trkpt lat="45.71949282751643" lon="10.047634337614213"><ele>248.66666666666669</ele><time>2026-04-11T14:37:55.002Z</time></trkpt><trkpt lat="45.719541636149835" lon="10.04771059781334"><ele>249.33333333333334</ele><time>2026-04-11T14:37:56.002Z</time></trkpt><trkpt lat="45.719601233058405" lon="10.047775395308536"><ele>250.0</ele><time>2026-04-11T14:37:57.002Z</time></trkpt><trkpt lat="45.719677101631916" lon="10.04782903750143"><ele>250.66666666666669</ele><time>2026-04-11T14:37:58.003Z</time></trkpt><trkpt lat="45.71975550708117" lon="10.047801433477424"><ele>251.33333333333334</ele><time>2026-04-11T14:37:59.003Z</time></trkpt><trkpt lat="45.71982721179561" lon="10.047763191202682"><ele>252.0</ele><time>2026-04-11T14:38:00.003Z</time></trkpt><trkpt lat="45.719845120520766" lon="10.047645972274536"><ele>252.0</ele><time>2026-04-11T14:38:01.003Z</time></trkpt><trkpt lat="45.719826134703084" lon="10.047519768910954"><ele>252.0</ele><time>2026-04-11T14:38:02.003Z</time></trkpt><trkpt lat="45.71976197188418" lon="10.047409677962259"><ele>252.0</ele><time>2026-04-11T14:38:03.003Z</time></trkpt><trkpt lat="45.719673768575674" lon="10.047344355725876"><ele>252.0</ele><time>2026-04-11T14:38:04.003Z</time></trkpt><trkpt lat="45.71957925597421" lon="10.047281149235493"><ele>252.0</ele><time>2026-04-11T14:38:05.003Z</time></trkpt><trkpt lat="45.719484774009345" lon="10.047207668200429"><ele>251.0</ele><time>2026-04-11T14:38:06.003Z</time></trkpt><trkpt lat="45.71938446725027" lon="10.047119112388906"><ele>250.0</ele><time>2026-04-11T14:38:07.003Z</time></trkpt><trkpt lat="45.71927612625236" lon="10.047018537920296"><ele>249.0</ele><time>2026-04-11T14:38:08.003Z</time></trkpt><trkpt lat="45.71918072427594" lon="10.046889155563568"><ele>248.0</ele><time>2026-04-11T14:38:09.003Z</time></trkpt><trkpt lat="45.719076612899215" lon="10.046788092292546"><ele>248.0</ele><time>2026-04-11T14:38:10.003Z</time></trkpt><trkpt lat="45.71895705805694" lon="10.046722095806974"><ele>248.0</ele><time>2026-04-11T14:38:11.003Z</time></trkpt><trkpt lat="45.71882585181696" lon="10.046726984814024"><ele>248.0</ele><time>2026-04-11T14:38:12.003Z</time></trkpt><trkpt lat="45.718702350825474" lon="10.046720381817357"><ele>248.0</ele><time>2026-04-11T14:38:13.001Z</time></trkpt><trkpt lat="45.718579182422346" lon="10.046674982844097"><ele>254.5</ele><time>2026-04-11T14:38:14.001Z</time></trkpt><trkpt lat="45.71844632309169" lon="10.046612665332821"><ele>261.0</ele><time>2026-04-11T14:38:15.001Z</time></trkpt><trkpt lat="45.718314489512835" lon="10.046545642678256"><ele>267.5</ele><time>2026-04-11T14:38:16.001Z</time></trkpt><trkpt lat="45.718192487514905" lon="10.046496384933233"><ele>274.0</ele><time>2026-04-11T14:38:17.001Z</time></trkpt><trkpt lat="45.718083179491614" lon="10.046434055851138"><ele>274.0</ele><time>2026-04-11T14:38:18.001Z</time></trkpt><trkpt lat="45.71798346189945" lon="10.046365745950697"><ele>274.0</ele><time>2026-04-11T14:38:19.001Z</time></trkpt><trkpt lat="45.717886987257025" lon="10.046284978168284"><ele>274.0</ele><time>2026-04-11T14:38:20.001Z</time></trkpt><trkpt lat="45.71779687708922" lon="10.046212613902947"><ele>274.0</ele><time>2026-04-11T14:38:21.001Z</time></trkpt><trkpt lat="45.71770505274358" lon="10.046133393924299"><ele>274.0</ele><time>2026-04-11T14:38:22.001Z</time></trkpt><trkpt lat="45.71761775200644" lon="10.046045590669168"><ele>277.5</ele><time>2026-04-11T14:38:23Z</time></trkpt><trkpt lat="45.71753096391392" lon="10.045932347904728"><ele>281.0</ele><time>2026-04-11T14:38:24Z</time></trkpt><trkpt lat="45.71744108615274" lon="10.04580346562683"><ele>284.5</ele><time>2026-04-11T14:38:25Z</time></trkpt><trkpt lat="45.71736720800473" lon="10.045632180757494"><ele>288.0</ele><time>2026-04-11T14:38:26Z</time></trkpt><trkpt lat="45.71731605945619" lon="10.045454816045424"><ele>288.0</ele><time>2026-04-11T14:38:27Z</time></trkpt><trkpt lat="45.71724798226978" lon="10.045294665998743"><ele>288.0</ele><time>2026-04-11T14:38:28Z</time></trkpt><trkpt lat="45.71716999637909" lon="10.045160952668086"><ele>288.0</ele><time>2026-04-11T14:38:29Z</time></trkpt><trkpt lat="45.71705809195018" lon="10.045067003530436"><ele>288.0</ele><time>2026-04-11T14:38:30Z</time></trkpt><trkpt lat="45.7169514879021" lon="10.044998459699167"><ele>283.0</ele><time>2026-04-11T14:38:31Z</time></trkpt><trkpt lat="45.71683575826374" lon="10.0449943896796"><ele>278.0</ele><time>2026-04-11T14:38:32Z</time></trkpt><trkpt lat="45.71670317666556" lon="10.045039165405045"><ele>273.0</ele><time>2026-04-11T14:38:33Z</time></trkpt><trkpt lat="45.71661845112318" lon="10.045094339126848"><ele>268.0</ele><time>2026-04-11T14:38:34.001Z</time></trkpt><trkpt lat="45.71655578743175" lon="10.045115819270716"><ele>263.0</ele><time>2026-04-11T14:38:35.001Z</time></trkpt><trkpt lat="45.71643450129801" lon="10.045107945727137"><ele>263.0</ele><time>2026-04-11T14:38:37.001Z</time></trkpt><trkpt lat="45.716384925348414" lon="10.044998431706558"><ele>263.0</ele><time>2026-04-11T14:38:38.001Z</time></trkpt><trkpt lat="45.71640049566014" lon="10.044888841996007"><ele>263.0</ele><time>2026-04-11T14:38:39.001Z</time></trkpt><trkpt lat="45.71644589184117" lon="10.044825701502905"><ele>263.0</ele><time>2026-04-11T14:38:40.001Z</time></trkpt><trkpt lat="45.71651973554203" lon="10.04486517914397"><ele>263.0</ele><time>2026-04-11T14:38:41.001Z</time></trkpt><trkpt lat="45.716657780413996" lon="10.044800362869529"><ele>269.25</ele><time>2026-04-11T14:38:43.001Z</time></trkpt><trkpt lat="45.716806689736366" lon="10.044803339548803"><ele>275.5</ele><time>2026-04-11T14:38:44.001Z</time></trkpt><trkpt lat="45.71695110185435" lon="10.04487746292814"><ele>281.75</ele><time>2026-04-11T14:38:45.001Z</time></trkpt><trkpt lat="45.717084941976246" lon="10.044951100761288"><ele>288.0</ele><time>2026-04-11T14:38:46.001Z</time></trkpt><trkpt lat="45.717200883413376" lon="10.045051997150857"><ele>288.0</ele><time>2026-04-11T14:38:47.001Z</time></trkpt><trkpt lat="45.71730442320008" lon="10.045163606629405"><ele>288.0</ele><time>2026-04-11T14:38:48.001Z</time></trkpt><trkpt lat="45.71739428468064" lon="10.045292174800238"><ele>288.0</ele><time>2026-04-11T14:38:49.001Z</time></trkpt><trkpt lat="45.7174861978836" lon="10.045417143715655"><ele>288.0</ele><time>2026-04-11T14:38:50.001Z</time></trkpt><trkpt lat="45.71758910647306" lon="10.04551752333306"><ele>288.0</ele><time>2026-04-11T14:38:51.001Z</time></trkpt><trkpt lat="45.717684673202285" lon="10.04562026748977"><ele>288.0</ele><time>2026-04-11T14:38:52.001Z</time></trkpt><trkpt lat="45.71779018940871" lon="10.04568248716339"><ele>288.0</ele><time>2026-04-11T14:38:53.001Z</time></trkpt><trkpt lat="45.7178980525839" lon="10.045732999120283"><ele>288.0</ele><time>2026-04-11T14:38:54.001Z</time></trkpt><trkpt lat="45.71801038817196" lon="10.045781718415109"><ele>284.5</ele><time>2026-04-11T14:38:55.001Z</time></trkpt><trkpt lat="45.718123857107926" lon="10.04581999597447"><ele>281.0</ele><time>2026-04-11T14:38:56.001Z</time></trkpt><trkpt lat="45.71823714375335" lon="10.045856731474782"><ele>277.5</ele><time>2026-04-11T14:38:57.001Z</time></trkpt><trkpt lat="45.71835519111723" lon="10.045895448542796"><ele>274.0</ele><time>2026-04-11T14:38:58.001Z</time></trkpt><trkpt lat="45.71847727583936" lon="10.04591695575754"><ele>282.0</ele><time>2026-04-11T14:38:59.001Z</time></trkpt><trkpt lat="45.71860370331463" lon="10.04591366407927"><ele>290.0</ele><time>2026-04-11T14:39:00.001Z</time></trkpt><trkpt lat="45.718738649208795" lon="10.04589928820031"><ele>298.0</ele><time>2026-04-11T14:39:01.001Z</time></trkpt><trkpt lat="45.71888750229404" lon="10.045903139680165"><ele>306.0</ele><time>2026-04-11T14:39:02.001Z</time></trkpt><trkpt lat="45.71902868873931" lon="10.04596182463292"><ele>306.0</ele><time>2026-04-11T14:39:03.001Z</time></trkpt><trkpt lat="45.719165395503914" lon="10.04601542975905"><ele>306.0</ele><time>2026-04-11T14:39:04.001Z</time></trkpt><trkpt lat="45.71929936459313" lon="10.04607867375347"><ele>306.0</ele><time>2026-04-11T14:39:05.001Z</time></trkpt><trkpt lat="45.71942795368685" lon="10.046139645525718"><ele>306.0</ele><time>2026-04-11T14:39:06.001Z</time></trkpt><trkpt lat="45.719560177988406" lon="10.046197196691802"><ele>314.3333333333333</ele><time>2026-04-11T14:39:07.001Z</time></trkpt><trkpt lat="45.71965896024577" lon="10.046227499621764"><ele>322.66666666666663</ele><time>2026-04-11T14:39:08.001Z</time></trkpt><trkpt lat="45.719780324281736" lon="10.046254350590935"><ele>331.0</ele><time>2026-04-11T14:39:09.001Z</time></trkpt><trkpt lat="45.7200382891595" lon="10.046291859222597"><ele>331.0</ele><time>2026-04-11T14:39:11.001Z</time></trkpt><trkpt lat="45.72016086225115" lon="10.046343210052415"><ele>331.0</ele><time>2026-04-11T14:39:12.001Z</time></trkpt><trkpt lat="45.72026080359454" lon="10.046375304303105"><ele>331.0</ele><time>2026-04-11T14:39:13.001Z</time></trkpt><trkpt lat="45.72035227185562" lon="10.046414866292839"><ele>331.0</ele><time>2026-04-11T14:39:14.001Z</time></trkpt><trkpt lat="45.72041297142367" lon="10.046459832710687"><ele>331.0</ele><time>2026-04-11T14:39:15.001Z</time></trkpt><trkpt lat="45.72045282759469" lon="10.046544096909932"><ele>330.16666666666663</ele><time>2026-04-11T14:39:16.001Z</time></trkpt><trkpt lat="45.720501841272196" lon="10.046655180972833"><ele>329.3333333333333</ele><time>2026-04-11T14:39:17.001Z</time></trkpt><trkpt lat="45.720521925698485" lon="10.046763146859586"><ele>328.5</ele><time>2026-04-11T14:39:18.001Z</time></trkpt><trkpt lat="45.7205426389041" lon="10.046880922063467"><ele>327.6666666666667</ele><time>2026-04-11T14:39:19.001Z</time></trkpt><trkpt lat="45.72057210707546" lon="10.047007161156923"><ele>326.83333333333337</ele><time>2026-04-11T14:39:20.001Z</time></trkpt><trkpt lat="45.72064149398422" lon="10.047043959262568"><ele>326.0</ele><time>2026-04-11T14:39:21.001Z</time></trkpt><trkpt lat="45.72072567839921" lon="10.047060244516285"><ele>326.0</ele><time>2026-04-11T14:39:22.001Z</time></trkpt><trkpt lat="45.720799591067966" lon="10.04702832404929"><ele>326.0</ele><time>2026-04-11T14:39:23.001Z</time></trkpt><trkpt lat="45.72087890105578" lon="10.04696206980085"><ele>326.0</ele><time>2026-04-11T14:39:25.001Z</time></trkpt><trkpt lat="45.72083285010758" lon="10.046743549463606"><ele>326.0</ele><time>2026-04-11T14:39:26.001Z</time></trkpt><trkpt lat="45.72079641081435" lon="10.046621320976953"><ele>326.0</ele><time>2026-04-11T14:39:27.001Z</time></trkpt><trkpt lat="45.72074762773319" lon="10.046464225618605"><ele>332.75</ele><time>2026-04-11T14:39:28.001Z</time></trkpt><trkpt lat="45.72070895899668" lon="10.046344947608894"><ele>339.5</ele><time>2026-04-11T14:39:29.002Z</time></trkpt><trkpt lat="45.720644777785566" lon="10.046196854751306"><ele>346.25</ele><time>2026-04-11T14:39:30.002Z</time></trkpt><trkpt lat="45.720522925255864" lon="10.046088707350728"><ele>353.0</ele><time>2026-04-11T14:39:31.002Z</time></trkpt><trkpt lat="45.72040567703607" lon="10.04606364531812"><ele>353.0</ele><time>2026-04-11T14:39:32.002Z</time></trkpt><trkpt lat="45.720288638139074" lon="10.046049271694296"><ele>353.0</ele><time>2026-04-11T14:39:33.002Z</time></trkpt><trkpt lat="45.72020412850226" lon="10.046046208047343"><ele>353.0</ele><time>2026-04-11T14:39:34.002Z</time></trkpt><trkpt lat="45.720102578372476" lon="10.046026032011481"><ele>353.0</ele><time>2026-04-11T14:39:35.002Z</time></trkpt><trkpt lat="45.72001091570581" lon="10.045985777736549"><ele>353.0</ele><time>2026-04-11T14:39:36.002Z</time></trkpt><trkpt lat="45.71991013984628" lon="10.045953555389646"><ele>348.59999999999997</ele><time>2026-04-11T14:39:37.002Z</time></trkpt><trkpt lat="45.71981811405322" lon="10.04590340590606"><ele>344.2</ele><time>2026-04-11T14:39:38.002Z</time></trkpt><trkpt lat="45.7197297613505" lon="10.045841353614271"><ele>339.8</ele><time>2026-04-11T14:39:39.002Z</time></trkpt><trkpt lat="45.71964984574787" lon="10.045775960169737"><ele>335.4</ele><time>2026-04-11T14:39:40.002Z</time></trkpt><trkpt lat="45.71957259191716" lon="10.04569533602661"><ele>331.0</ele><time>2026-04-11T14:39:41.002Z</time></trkpt><trkpt lat="45.71948186737629" lon="10.04559203561676"><ele>336.5</ele><time>2026-04-11T14:39:42.002Z</time></trkpt><trkpt lat="45.719376909829194" lon="10.045493617367441"><ele>342.0</ele><time>2026-04-11T14:39:43.002Z</time></trkpt><trkpt lat="45.719258673807076" lon="10.045429852091901"><ele>347.5</ele><time>2026-04-11T14:39:44.002Z</time></trkpt><trkpt lat="45.71914513724398" lon="10.045339395295558"><ele>353.0</ele><time>2026-04-11T14:39:45.002Z</time></trkpt><trkpt lat="45.71901954515008" lon="10.045256042241771"><ele>353.0</ele><time>2026-04-11T14:39:46.002Z</time></trkpt><trkpt lat="45.71888658968175" lon="10.045179526025239"><ele>353.0</ele><time>2026-04-11T14:39:47.002Z</time></trkpt><trkpt lat="45.718761338639816" lon="10.04507816202429"><ele>353.0</ele><time>2026-04-11T14:39:48.002Z</time></trkpt><trkpt lat="45.718627709843865" lon="10.044958439746878"><ele>353.0</ele><time>2026-04-11T14:39:49.002Z</time></trkpt><trkpt lat="45.71849186155303" lon="10.044829434019709"><ele>358.33333333333337</ele><time>2026-04-11T14:39:50.002Z</time></trkpt><trkpt lat="45.718351973783996" lon="10.044708546348636"><ele>363.6666666666667</ele><time>2026-04-11T14:39:51.002Z</time></trkpt><trkpt lat="45.718214846244145" lon="10.044602074473591"><ele>369.0</ele><time>2026-04-11T14:39:52.002Z</time></trkpt><trkpt lat="45.718098203346365" lon="10.044475878343711"><ele>369.0</ele><time>2026-04-11T14:39:53.002Z</time></trkpt><trkpt lat="45.71798038296369" lon="10.04437422664851"><ele>369.0</ele><time>2026-04-11T14:39:54.002Z</time></trkpt><trkpt lat="45.717866462638376" lon="10.0442818257523"><ele>369.0</ele><time>2026-04-11T14:39:55.002Z</time></trkpt><trkpt lat="45.71775184818808" lon="10.044187628305318"><ele>369.0</ele><time>2026-04-11T14:39:56.002Z</time></trkpt><trkpt lat="45.71762678705561" lon="10.044090414072414"><ele>371.0</ele><time>2026-04-11T14:39:57.002Z</time></trkpt><trkpt lat="45.71750155437225" lon="10.043993687465942"><ele>373.0</ele><time>2026-04-11T14:39:58.002Z</time></trkpt><trkpt lat="45.71737516206833" lon="10.043902619190021"><ele>375.0</ele><time>2026-04-11T14:39:59.002Z</time></trkpt><trkpt lat="45.717254914469386" lon="10.043814837150117"><ele>377.0</ele><time>2026-04-11T14:40:00.002Z</time></trkpt><trkpt lat="45.71713068686969" lon="10.043731135604117"><ele>377.0</ele><time>2026-04-11T14:40:01.002Z</time></trkpt><trkpt lat="45.717008044224535" lon="10.043637978866835"><ele>377.0</ele><time>2026-04-11T14:40:02.002Z</time></trkpt><trkpt lat="45.716878122426735" lon="10.04356479036308"><ele>377.0</ele><time>2026-04-11T14:40:03.002Z</time></trkpt><trkpt lat="45.71674654917193" lon="10.043500861158567"><ele>377.0</ele><time>2026-04-11T14:40:04.002Z</time></trkpt><trkpt lat="45.716619065736054" lon="10.043460025407592"><ele>374.25</ele><time>2026-04-11T14:40:05.002Z</time></trkpt><trkpt lat="45.71649532810145" lon="10.043441192038058"><ele>371.5</ele><time>2026-04-11T14:40:06.002Z</time></trkpt><trkpt lat="45.71637783941023" lon="10.043427441102654"><ele>368.75</ele><time>2026-04-11T14:40:07.002Z</time></trkpt><trkpt lat="45.7162390990773" lon="10.043462386419586"><ele>366.0</ele><time>2026-04-11T14:40:08.002Z</time></trkpt><trkpt lat="45.716122509938764" lon="10.04357218199266"><ele>367.75</ele><time>2026-04-11T14:40:09.002Z</time></trkpt><trkpt lat="45.716015155344294" lon="10.043684648131332"><ele>369.5</ele><time>2026-04-11T14:40:10.002Z</time></trkpt><trkpt lat="45.71591024431101" lon="10.043785739576538"><ele>371.25</ele><time>2026-04-11T14:40:11.002Z</time></trkpt><trkpt lat="45.715793400891485" lon="10.043897096476554"><ele>373.0</ele><time>2026-04-11T14:40:12.002Z</time></trkpt><trkpt lat="45.71568728630853" lon="10.04401014594962"><ele>373.0</ele><time>2026-04-11T14:40:13.002Z</time></trkpt><trkpt lat="45.71557743023507" lon="10.044066845841437"><ele>373.0</ele><time>2026-04-11T14:40:14.002Z</time></trkpt><trkpt lat="45.71547596761933" lon="10.044130379760619"><ele>373.0</ele><time>2026-04-11T14:40:15.002Z</time></trkpt><trkpt lat="45.71538743987221" lon="10.044195292058973"><ele>373.0</ele><time>2026-04-11T14:40:16.003Z</time></trkpt><trkpt lat="45.715296681423176" lon="10.044215970774415"><ele>373.0</ele><time>2026-04-11T14:40:17.003Z</time></trkpt><trkpt lat="45.71519924303375" lon="10.044210180101127"><ele>368.79999999999995</ele><time>2026-04-11T14:40:18.003Z</time></trkpt><trkpt lat="45.71512614545988" lon="10.044225883076562"><ele>364.6</ele><time>2026-04-11T14:40:19Z</time></trkpt><trkpt lat="45.71504805429664" lon="10.044235858499272"><ele>360.4</ele><time>2026-04-11T14:40:20Z</time></trkpt><trkpt lat="45.71495515184356" lon="10.044043295370003"><ele>356.20000000000005</ele><time>2026-04-11T14:40:21Z</time></trkpt><trkpt lat="45.71486003244098" lon="10.043952996359065"><ele>352.0</ele><time>2026-04-11T14:40:22Z</time></trkpt><trkpt lat="45.71476589631466" lon="10.043854982767998"><ele>352.0</ele><time>2026-04-11T14:40:23Z</time></trkpt><trkpt lat="45.71467768118197" lon="10.043754803617308"><ele>352.0</ele><time>2026-04-11T14:40:24Z</time></trkpt><trkpt lat="45.71457429812952" lon="10.04365687638974"><ele>352.0</ele><time>2026-04-11T14:40:25Z</time></trkpt><trkpt lat="45.71447132686469" lon="10.043553705472819"><ele>352.0</ele><time>2026-04-11T14:40:26Z</time></trkpt><trkpt lat="45.71438272916847" lon="10.043424845544912"><ele>351.75</ele><time>2026-04-11T14:40:27Z</time></trkpt><trkpt lat="45.71429371508322" lon="10.043298686033971"><ele>351.5</ele><time>2026-04-11T14:40:28Z</time></trkpt><trkpt lat="45.71419664324802" lon="10.043176833857888"><ele>351.25</ele><time>2026-04-11T14:40:29Z</time></trkpt><trkpt lat="45.714109420546094" lon="10.043063822588852"><ele>351.0</ele><time>2026-04-11T14:40:30Z</time></trkpt><trkpt lat="45.71402040851779" lon="10.042992996932108"><ele>351.0</ele><time>2026-04-11T14:40:31Z</time></trkpt><trkpt lat="45.71393160090038" lon="10.042944771519366"><ele>351.0</ele><time>2026-04-11T14:40:32Z</time></trkpt><trkpt lat="45.71386677310294" lon="10.042862650416238"><ele>351.0</ele><time>2026-04-11T14:40:33Z</time></trkpt><trkpt lat="45.71381524739333" lon="10.042755224627157"><ele>351.0</ele><time>2026-04-11T14:40:34Z</time></trkpt><trkpt lat="45.71378001220353" lon="10.042646768275674"><ele>351.0</ele><time>2026-04-11T14:40:35Z</time></trkpt><trkpt lat="45.71376105063743" lon="10.042518026570622"><ele>351.0</ele><time>2026-04-11T14:40:36Z</time></trkpt><trkpt lat="45.713733174487324" lon="10.042386821967591"><ele>350.8</ele><time>2026-04-11T14:40:37Z</time></trkpt><trkpt lat="45.71367212581776" lon="10.042274299541923"><ele>350.6</ele><time>2026-04-11T14:40:38Z</time></trkpt><trkpt lat="45.71360891634887" lon="10.042169442761761"><ele>350.4</ele><time>2026-04-11T14:40:39Z</time></trkpt><trkpt lat="45.713497812302116" lon="10.042168855632456"><ele>350.2</ele><time>2026-04-11T14:40:40Z</time></trkpt><trkpt lat="45.71340306755295" lon="10.04218738066472"><ele>350.0</ele><time>2026-04-11T14:40:41Z</time></trkpt><trkpt lat="45.71330851609051" lon="10.042149936742168"><ele>350.0</ele><time>2026-04-11T14:40:42Z</time></trkpt><trkpt lat="45.713221859408705" lon="10.042118986505095"><ele>350.0</ele><time>2026-04-11T14:40:43Z</time></trkpt><trkpt lat="45.713147213146456" lon="10.042065577847579"><ele>350.0</ele><time>2026-04-11T14:40:44Z</time></trkpt><trkpt lat="45.71307722365489" lon="10.041978666823189"><ele>350.0</ele><time>2026-04-11T14:40:45Z</time></trkpt><trkpt lat="45.71300095524878" lon="10.041855996670428"><ele>350.0</ele><time>2026-04-11T14:40:46Z</time></trkpt><trkpt lat="45.71291182691968" lon="10.041713909275332"><ele>349.75</ele><time>2026-04-11T14:40:47Z</time></trkpt><trkpt lat="45.712831544426265" lon="10.041580463964845"><ele>349.5</ele><time>2026-04-11T14:40:48Z</time></trkpt><trkpt lat="45.71275241982978" lon="10.0414511391097"><ele>349.25</ele><time>2026-04-11T14:40:49.001Z</time></trkpt><trkpt lat="45.712684614252446" lon="10.041345001382172"><ele>349.0</ele><time>2026-04-11T14:40:50.001Z</time></trkpt><trkpt lat="45.71260874404118" lon="10.041220597302022"><ele>349.0</ele><time>2026-04-11T14:40:51.001Z</time></trkpt><trkpt lat="45.71253193587344" lon="10.041106880908362"><ele>349.0</ele><time>2026-04-11T14:40:52.001Z</time></trkpt><trkpt lat="45.71247799735827" lon="10.040975344988421"><ele>349.0</ele><time>2026-04-11T14:40:53.001Z</time></trkpt><trkpt lat="45.712407742474674" lon="10.040859473901998"><ele>349.0</ele><time>2026-04-11T14:40:54.001Z</time></trkpt><trkpt lat="45.71235688803086" lon="10.040705028087622"><ele>349.0</ele><time>2026-04-11T14:40:55.001Z</time></trkpt><trkpt lat="45.7122986241305" lon="10.0405554080047"><ele>351.25</ele><time>2026-04-11T14:40:56.001Z</time></trkpt><trkpt lat="45.71222937135209" lon="10.040403412413518"><ele>353.5</ele><time>2026-04-11T14:40:57.001Z</time></trkpt><trkpt lat="45.712170376259714" lon="10.040227694874241"><ele>355.75</ele><time>2026-04-11T14:40:58.001Z</time></trkpt><trkpt lat="45.712111150480546" lon="10.040040950516055"><ele>358.0</ele><time>2026-04-11T14:40:59.001Z</time></trkpt><trkpt lat="45.712048982994325" lon="10.039849734132186"><ele>356.75</ele><time>2026-04-11T14:41:00.001Z</time></trkpt><trkpt lat="45.71198469781641" lon="10.039660499057263"><ele>355.5</ele><time>2026-04-11T14:41:01.001Z</time></trkpt><trkpt lat="45.7119297809755" lon="10.039475132839424"><ele>354.25</ele><time>2026-04-11T14:41:02.001Z</time></trkpt><trkpt lat="45.71186924412901" lon="10.039298235834028"><ele>353.0</ele><time>2026-04-11T14:41:03.001Z</time></trkpt><trkpt lat="45.7118116344107" lon="10.039132923500539"><ele>353.0</ele><time>2026-04-11T14:41:04.001Z</time></trkpt><trkpt lat="45.71175716887304" lon="10.03896097691353"><ele>353.0</ele><time>2026-04-11T14:41:05.001Z</time></trkpt><trkpt lat="45.711707965253936" lon="10.038810602188706"><ele>353.0</ele><time>2026-04-11T14:41:06.001Z</time></trkpt><trkpt lat="45.71167200471201" lon="10.038685966062179"><ele>353.0</ele><time>2026-04-11T14:41:07.001Z</time></trkpt><trkpt lat="45.711640046810366" lon="10.038585714059113"><ele>353.0</ele><time>2026-04-11T14:41:08.001Z</time></trkpt><trkpt lat="45.711633122098114" lon="10.038404210001994"><ele>353.0</ele><time>2026-04-11T14:41:10.001Z</time></trkpt><trkpt lat="45.71177271810303" lon="10.03829282642505"><ele>353.0</ele><time>2026-04-11T14:41:12.001Z</time></trkpt><trkpt lat="45.711846282478916" lon="10.038305907040103"><ele>353.0</ele><time>2026-04-11T14:41:13.001Z</time></trkpt><trkpt lat="45.711910268312" lon="10.038372030754923"><ele>353.0</ele><time>2026-04-11T14:41:14.001Z</time></trkpt><trkpt lat="45.71195324578495" lon="10.038473331747724"><ele>353.0</ele><time>2026-04-11T14:41:15.001Z</time></trkpt><trkpt lat="45.71200650768575" lon="10.038617483372757"><ele>359.25</ele><time>2026-04-11T14:41:16.001Z</time></trkpt><trkpt lat="45.71207252599165" lon="10.038761024234677"><ele>365.5</ele><time>2026-04-11T14:41:17.001Z</time></trkpt><trkpt lat="45.71216549014814" lon="10.038892432845147"><ele>371.75</ele><time>2026-04-11T14:41:18.001Z</time></trkpt><trkpt lat="45.71227680497452" lon="10.038994624644076"><ele>378.0</ele><time>2026-04-11T14:41:19.001Z</time></trkpt><trkpt lat="45.71238889037018" lon="10.0390957723648"><ele>380.0</ele><time>2026-04-11T14:41:20.001Z</time></trkpt><trkpt lat="45.71249011349111" lon="10.039209822889076"><ele>382.0</ele><time>2026-04-11T14:41:21.001Z</time></trkpt><trkpt lat="45.712565531649844" lon="10.039337924103085"><ele>384.0</ele><time>2026-04-11T14:41:22.001Z</time></trkpt><trkpt lat="45.71261759952577" lon="10.03945833138639"><ele>386.0</ele><time>2026-04-11T14:41:23.001Z</time></trkpt><trkpt lat="45.71268475434291" lon="10.039542308875543"><ele>388.0</ele><time>2026-04-11T14:41:24.001Z</time></trkpt><trkpt lat="45.71277591293281" lon="10.039564778889718"><ele>388.0</ele><time>2026-04-11T14:41:25.001Z</time></trkpt><trkpt lat="45.71288690519331" lon="10.039545913457102"><ele>388.0</ele><time>2026-04-11T14:41:26.001Z</time></trkpt><trkpt lat="45.71298300729118" lon="10.039477132507805"><ele>388.0</ele><time>2026-04-11T14:41:27.001Z</time></trkpt><trkpt lat="45.713072761312425" lon="10.039438700476705"><ele>388.0</ele><time>2026-04-11T14:41:28.001Z</time></trkpt><trkpt lat="45.713145292810104" lon="10.039462609299557"><ele>388.0</ele><time>2026-04-11T14:41:29.001Z</time></trkpt><trkpt lat="45.71318622512651" lon="10.03954350866434"><ele>388.0</ele><time>2026-04-11T14:41:30.001Z</time></trkpt><trkpt lat="45.71318220800077" lon="10.039675996882183"><ele>388.0</ele><time>2026-04-11T14:41:31.001Z</time></trkpt><trkpt lat="45.71319441818609" lon="10.039822314551762"><ele>388.0</ele><time>2026-04-11T14:41:32.001Z</time></trkpt><trkpt lat="45.71318567582224" lon="10.039950147877034"><ele>388.0</ele><time>2026-04-11T14:41:33.001Z</time></trkpt><trkpt lat="45.71317496737536" lon="10.040083109826119"><ele>388.0</ele><time>2026-04-11T14:41:34.001Z</time></trkpt><trkpt lat="45.71322739908166" lon="10.040213886603825"><ele>385.25</ele><time>2026-04-11T14:41:35.001Z</time></trkpt><trkpt lat="45.71331860708608" lon="10.040330005458673"><ele>382.5</ele><time>2026-04-11T14:41:36.001Z</time></trkpt><trkpt lat="45.7134157127746" lon="10.04044584578311"><ele>379.75</ele><time>2026-04-11T14:41:37.001Z</time></trkpt><trkpt lat="45.713495762046435" lon="10.040558669001564"><ele>377.0</ele><time>2026-04-11T14:41:38.001Z</time></trkpt><trkpt lat="45.71356412791089" lon="10.04065403077781"><ele>382.0</ele><time>2026-04-11T14:41:39.002Z</time></trkpt><trkpt lat="45.71361578407091" lon="10.04072369776335"><ele>387.0</ele><time>2026-04-11T14:41:40.002Z</time></trkpt><trkpt lat="45.71372342935931" lon="10.040744264292657"><ele>392.0</ele><time>2026-04-11T14:41:42.002Z</time></trkpt><trkpt lat="45.71377116428443" lon="10.0406712121496"><ele>397.0</ele><time>2026-04-11T14:41:43.002Z</time></trkpt><trkpt lat="45.71378715382366" lon="10.040565020213547"><ele>401.99999999999994</ele><time>2026-04-11T14:41:44.002Z</time></trkpt><trkpt lat="45.71376440149231" lon="10.040433131250463"><ele>407.0</ele><time>2026-04-11T14:41:45.002Z</time></trkpt><trkpt lat="45.71369246967306" lon="10.040321039079291"><ele>407.0</ele><time>2026-04-11T14:41:46.002Z</time></trkpt><trkpt lat="45.71364954106224" lon="10.040194217425205"><ele>407.0</ele><time>2026-04-11T14:41:47.002Z</time></trkpt><trkpt lat="45.71359070875328" lon="10.04007096967978"><ele>407.0</ele><time>2026-04-11T14:41:48.002Z</time></trkpt><trkpt lat="45.71354782150344" lon="10.039959994057938"><ele>407.0</ele><time>2026-04-11T14:41:49.002Z</time></trkpt><trkpt lat="45.713516073215764" lon="10.039852872250544"><ele>407.0</ele><time>2026-04-11T14:41:50.002Z</time></trkpt><trkpt lat="45.713516710147644" lon="10.039739800121481"><ele>408.6</ele><time>2026-04-11T14:41:51.002Z</time></trkpt><trkpt lat="45.71359952960742" lon="10.039580558446216"><ele>410.20000000000005</ele><time>2026-04-11T14:41:53.002Z</time></trkpt><trkpt lat="45.71363848616538" lon="10.039447514263694"><ele>411.8</ele><time>2026-04-11T14:41:54.002Z</time></trkpt><trkpt lat="45.71368025726319" lon="10.039341141334903"><ele>413.4</ele><time>2026-04-11T14:41:55.002Z</time></trkpt><trkpt lat="45.71368770693029" lon="10.039225713287367"><ele>415.0</ele><time>2026-04-11T14:41:56.002Z</time></trkpt><trkpt lat="45.71365210819346" lon="10.039109197575184"><ele>416.0</ele><time>2026-04-11T14:41:57.002Z</time></trkpt><trkpt lat="45.71358784963975" lon="10.039004534153717"><ele>417.0</ele><time>2026-04-11T14:41:58.002Z</time></trkpt><trkpt lat="45.71347619989686" lon="10.038957801365417"><ele>418.0</ele><time>2026-04-11T14:41:59.002Z</time></trkpt><trkpt lat="45.71337262378299" lon="10.03892128444033"><ele>419.0</ele><time>2026-04-11T14:42:00.002Z</time></trkpt><trkpt lat="45.71327706893658" lon="10.038895374361747"><ele>420.0</ele><time>2026-04-11T14:42:01.002Z</time></trkpt><trkpt lat="45.713188744914724" lon="10.038866320916748"><ele>418.5</ele><time>2026-04-11T14:42:02.002Z</time></trkpt><trkpt lat="45.7131144275128" lon="10.038817717491638"><ele>417.0</ele><time>2026-04-11T14:42:03.002Z</time></trkpt><trkpt lat="45.713062785761025" lon="10.03874573086476"><ele>415.5</ele><time>2026-04-11T14:42:04.002Z</time></trkpt><trkpt lat="45.71301879475531" lon="10.038593629646012"><ele>414.0</ele><time>2026-04-11T14:42:06.002Z</time></trkpt><trkpt lat="45.71301407823433" lon="10.038502818654292"><ele>412.5</ele><time>2026-04-11T14:42:07.002Z</time></trkpt><trkpt lat="45.71303033160474" lon="10.038400627043602"><ele>411.0</ele><time>2026-04-11T14:42:08.002Z</time></trkpt><trkpt lat="45.71305296010331" lon="10.03828669825891"><ele>411.0</ele><time>2026-04-11T14:42:09.002Z</time></trkpt><trkpt lat="45.713117805566256" lon="10.03819471314396"><ele>411.0</ele><time>2026-04-11T14:42:10.002Z</time></trkpt><trkpt lat="45.71320514844845" lon="10.038115627861737"><ele>411.0</ele><time>2026-04-11T14:42:11.002Z</time></trkpt><trkpt lat="45.71328353046875" lon="10.038025262503742"><ele>411.0</ele><time>2026-04-11T14:42:12.002Z</time></trkpt><trkpt lat="45.7133399438021" lon="10.03795859152125"><ele>411.0</ele><time>2026-04-11T14:42:13.002Z</time></trkpt><trkpt lat="45.71341776013355" lon="10.037807507180219"><ele>411.0</ele><time>2026-04-11T14:42:15.002Z</time></trkpt><trkpt lat="45.71339454892054" lon="10.037677627660463"><ele>411.0</ele><time>2026-04-11T14:42:16.002Z</time></trkpt><trkpt lat="45.71332440388764" lon="10.037592135070554"><ele>411.0</ele><time>2026-04-11T14:42:17.002Z</time></trkpt><trkpt lat="45.71323995327741" lon="10.037568892111015"><ele>411.0</ele><time>2026-04-11T14:42:18.002Z</time></trkpt><trkpt lat="45.71315390927804" lon="10.037572866615754"><ele>411.0</ele><time>2026-04-11T14:42:19.002Z</time></trkpt><trkpt lat="45.713064016955585" lon="10.037604911588854"><ele>411.0</ele><time>2026-04-11T14:42:20.002Z</time></trkpt><trkpt lat="45.71297305702401" lon="10.037646184642444"><ele>411.0</ele><time>2026-04-11T14:42:21.002Z</time></trkpt><trkpt lat="45.712876574002124" lon="10.037633170110862"><ele>411.0</ele><time>2026-04-11T14:42:22.002Z</time></trkpt><trkpt lat="45.71280030368969" lon="10.037633340518019"><ele>411.0</ele><time>2026-04-11T14:42:23.002Z</time></trkpt><trkpt lat="45.712682745541564" lon="10.037566356691553"><ele>411.0</ele><time>2026-04-11T14:42:25Z</time></trkpt><trkpt lat="45.712636923851015" lon="10.037482609480248"><ele>410.0</ele><time>2026-04-11T14:42:26Z</time></trkpt><trkpt lat="45.71259822881451" lon="10.037388595867359"><ele>409.0</ele><time>2026-04-11T14:42:27Z</time></trkpt><trkpt lat="45.712558330556526" lon="10.037296135416184"><ele>408.0</ele><time>2026-04-11T14:42:28Z</time></trkpt><trkpt lat="45.71256213306092" lon="10.037191217300531"><ele>407.0</ele><time>2026-04-11T14:42:29Z</time></trkpt><trkpt lat="45.7126687023611" lon="10.037103528574145"><ele>406.0</ele><time>2026-04-11T14:42:31Z</time></trkpt><trkpt lat="45.71272890690928" lon="10.037167292477193"><ele>405.0</ele><time>2026-04-11T14:42:32Z</time></trkpt><trkpt lat="45.71278396611621" lon="10.037259993692969"><ele>406.2</ele><time>2026-04-11T14:42:33Z</time></trkpt><trkpt lat="45.712853766218736" lon="10.037357077035752"><ele>407.4</ele><time>2026-04-11T14:42:34Z</time></trkpt><trkpt lat="45.71293474551127" lon="10.03743150859478"><ele>408.6</ele><time>2026-04-11T14:42:35Z</time></trkpt><trkpt lat="45.713025773765736" lon="10.037475612758831"><ele>409.8</ele><time>2026-04-11T14:42:36Z</time></trkpt><trkpt lat="45.71312329466192" lon="10.03747637395234"><ele>411.0</ele><time>2026-04-11T14:42:37Z</time></trkpt><trkpt lat="45.713237934254614" lon="10.037449330507235"><ele>413.8</ele><time>2026-04-11T14:42:38Z</time></trkpt><trkpt lat="45.71335014024912" lon="10.03741572658003"><ele>416.6</ele><time>2026-04-11T14:42:39Z</time></trkpt><trkpt lat="45.71345334610676" lon="10.037375984213227"><ele>419.4</ele><time>2026-04-11T14:42:40Z</time></trkpt><trkpt lat="45.71354010902142" lon="10.037345432416892"><ele>422.2</ele><time>2026-04-11T14:42:41Z</time></trkpt><trkpt lat="45.713610977291275" lon="10.037301551766593"><ele>425.0</ele><time>2026-04-11T14:42:42Z</time></trkpt><trkpt lat="45.713731153106764" lon="10.037254476487801"><ele>425.49999999999994</ele><time>2026-04-11T14:42:44Z</time></trkpt><trkpt lat="45.71380030253352" lon="10.037275534359546"><ele>426.0</ele><time>2026-04-11T14:42:45Z</time></trkpt><trkpt lat="45.713839540477814" lon="10.037361619610516"><ele>426.5</ele><time>2026-04-11T14:42:46Z</time></trkpt><trkpt lat="45.71382616658451" lon="10.037482794489579"><ele>427.0</ele><time>2026-04-11T14:42:47Z</time></trkpt><trkpt lat="45.7137896083662" lon="10.037605044583561"><ele>427.49999999999994</ele><time>2026-04-11T14:42:48Z</time></trkpt><trkpt lat="45.71373768547246" lon="10.037735722492776"><ele>428.0</ele><time>2026-04-11T14:42:49Z</time></trkpt><trkpt lat="45.71368798865809" lon="10.037842417526711"><ele>427.99999999999994</ele><time>2026-04-11T14:42:50Z</time></trkpt><trkpt lat="45.71363770268042" lon="10.037966475225602"><ele>428.0</ele><time>2026-04-11T14:42:51Z</time></trkpt><trkpt lat="45.71357105951446" lon="10.038090810260442"><ele>428.0</ele><time>2026-04-11T14:42:52Z</time></trkpt><trkpt lat="45.713502106332825" lon="10.038182647807979"><ele>428.0</ele><time>2026-04-11T14:42:53Z</time></trkpt><trkpt lat="45.713456409486795" lon="10.038272513779186"><ele>427.99999999999994</ele><time>2026-04-11T14:42:54Z</time></trkpt><trkpt lat="45.71344486601728" lon="10.038365784872605"><ele>428.0</ele><time>2026-04-11T14:42:55Z</time></trkpt><trkpt lat="45.713564102123215" lon="10.03847138995455"><ele>428.0</ele><time>2026-04-11T14:42:57.001Z</time></trkpt><trkpt lat="45.7136402114107" lon="10.038429535815764"><ele>427.99999999999994</ele><time>2026-04-11T14:42:58.001Z</time></trkpt><trkpt lat="45.71373567288583" lon="10.038361333431475"><ele>427.99999999999994</ele><time>2026-04-11T14:42:59.001Z</time></trkpt><trkpt lat="45.713828210240585" lon="10.03829139220732"><ele>428.0</ele><time>2026-04-11T14:43:00.001Z</time></trkpt><trkpt lat="45.713939503306406" lon="10.0382104620475"><ele>428.0</ele><time>2026-04-11T14:43:01.001Z</time></trkpt><trkpt lat="45.71404676366593" lon="10.038139173963868"><ele>428.0</ele><time>2026-04-11T14:43:02.001Z</time></trkpt><trkpt lat="45.71415997270312" lon="10.038093473694849"><ele>427.99999999999994</ele><time>2026-04-11T14:43:03.001Z</time></trkpt><trkpt lat="45.71427207585902" lon="10.038073030921895"><ele>427.99999999999994</ele><time>2026-04-11T14:43:04.001Z</time></trkpt><trkpt lat="45.71437420043037" lon="10.038049855440356"><ele>428.0</ele><time>2026-04-11T14:43:05.001Z</time></trkpt><trkpt lat="45.714470363978954" lon="10.038050508261515"><ele>428.0</ele><time>2026-04-11T14:43:06.001Z</time></trkpt><trkpt lat="45.71454284132834" lon="10.038038436411195"><ele>431.3333333333333</ele><time>2026-04-11T14:43:07.001Z</time></trkpt><trkpt lat="45.714601269239" lon="10.038104103559073"><ele>434.66666666666663</ele><time>2026-04-11T14:43:08.001Z</time></trkpt><trkpt lat="45.7146577355835" lon="10.038176935935795"><ele>438.0</ele><time>2026-04-11T14:43:09.001Z</time></trkpt><trkpt lat="45.71468084765001" lon="10.038285045888722"><ele>441.33333333333337</ele><time>2026-04-11T14:43:10.001Z</time></trkpt><trkpt lat="45.71467832066369" lon="10.038399252639937"><ele>444.6666666666667</ele><time>2026-04-11T14:43:11.001Z</time></trkpt><trkpt lat="45.71465204900931" lon="10.038524530914083"><ele>448.0</ele><time>2026-04-11T14:43:12.001Z</time></trkpt><trkpt lat="45.7146089215039" lon="10.038665236902641"><ele>448.0</ele><time>2026-04-11T14:43:13.001Z</time></trkpt><trkpt lat="45.71456122921736" lon="10.038806476755877"><ele>447.99999999999994</ele><time>2026-04-11T14:43:14.001Z</time></trkpt><trkpt lat="45.71452536539938" lon="10.03895208246314"><ele>447.99999999999994</ele><time>2026-04-11T14:43:15.001Z</time></trkpt><trkpt lat="45.714491456152025" lon="10.039090791462286"><ele>448.0</ele><time>2026-04-11T14:43:16.001Z</time></trkpt><trkpt lat="45.71445782584283" lon="10.039209495449759"><ele>448.0</ele><time>2026-04-11T14:43:17.001Z</time></trkpt><trkpt lat="45.7144295408778" lon="10.039318604643158"><ele>447.6666666666667</ele><time>2026-04-11T14:43:18.001Z</time></trkpt><trkpt lat="45.71441030269177" lon="10.039426517659972"><ele>447.33333333333337</ele><time>2026-04-11T14:43:19.001Z</time></trkpt><trkpt lat="45.71441273136282" lon="10.039536219459299"><ele>447.0</ele><time>2026-04-11T14:43:20.001Z</time></trkpt><trkpt lat="45.71445361853707" lon="10.039644326327116"><ele>446.66666666666663</ele><time>2026-04-11T14:43:21.001Z</time></trkpt><trkpt lat="45.71452242076793" lon="10.039737248256971"><ele>446.3333333333333</ele><time>2026-04-11T14:43:22.001Z</time></trkpt><trkpt lat="45.714569906324094" lon="10.039839276728607"><ele>446.0</ele><time>2026-04-11T14:43:23.001Z</time></trkpt><trkpt lat="45.71460434543318" lon="10.039959436087862"><ele>445.99999999999994</ele><time>2026-04-11T14:43:24.001Z</time></trkpt><trkpt lat="45.71463683594153" lon="10.040064311306011"><ele>446.0</ele><time>2026-04-11T14:43:25.001Z</time></trkpt><trkpt lat="45.71469328569563" lon="10.040135283378609"><ele>446.0</ele><time>2026-04-11T14:43:26.001Z</time></trkpt><trkpt lat="45.71476355724976" lon="10.040151066941625"><ele>446.0</ele><time>2026-04-11T14:43:27.001Z</time></trkpt><trkpt lat="45.71482362514705" lon="10.040096421778605"><ele>445.99999999999994</ele><time>2026-04-11T14:43:28.001Z</time></trkpt><trkpt lat="45.71484765864553" lon="10.039997834028942"><ele>446.0</ele><time>2026-04-11T14:43:29.001Z</time></trkpt><trkpt lat="45.7148196610428" lon="10.039863344558979"><ele>446.0</ele><time>2026-04-11T14:43:30.001Z</time></trkpt><trkpt lat="45.71476458805716" lon="10.039757763304312"><ele>446.0</ele><time>2026-04-11T14:43:31.001Z</time></trkpt><trkpt lat="45.71471344169981" lon="10.039640193728198"><ele>446.0</ele><time>2026-04-11T14:43:32.001Z</time></trkpt><trkpt lat="45.71466471917723" lon="10.039527579139946"><ele>446.0</ele><time>2026-04-11T14:43:33.001Z</time></trkpt><trkpt lat="45.71462255815971" lon="10.039416892526942"><ele>446.0</ele><time>2026-04-11T14:43:34.001Z</time></trkpt><trkpt lat="45.71459456627378" lon="10.039298865960506"><ele>445.99999999999994</ele><time>2026-04-11T14:43:35.001Z</time></trkpt><trkpt lat="45.71459054367885" lon="10.03918288122633"><ele>446.0</ele><time>2026-04-11T14:43:36.001Z</time></trkpt><trkpt lat="45.714608404403236" lon="10.039076257926814"><ele>446.0</ele><time>2026-04-11T14:43:37.001Z</time></trkpt><trkpt lat="45.714632986765025" lon="10.038968738724378"><ele>446.0</ele><time>2026-04-11T14:43:38.001Z</time></trkpt><trkpt lat="45.71465406626253" lon="10.03883584895138"><ele>445.99999999999994</ele><time>2026-04-11T14:43:39.001Z</time></trkpt><trkpt lat="45.714702209449875" lon="10.038684073326852"><ele>446.0</ele><time>2026-04-11T14:43:40.001Z</time></trkpt><trkpt lat="45.71476878360695" lon="10.03853339662279"><ele>446.4</ele><time>2026-04-11T14:43:41.001Z</time></trkpt><trkpt lat="45.71480884355866" lon="10.0383744114776"><ele>446.8</ele><time>2026-04-11T14:43:42.001Z</time></trkpt><trkpt lat="45.714856514018976" lon="10.03823319674116"><ele>447.19999999999993</ele><time>2026-04-11T14:43:43.001Z</time></trkpt><trkpt lat="45.71490321842008" lon="10.038115976114112"><ele>447.59999999999997</ele><time>2026-04-11T14:43:44.001Z</time></trkpt><trkpt lat="45.71491897702888" lon="10.037998406366178"><ele>448.0</ele><time>2026-04-11T14:43:45.001Z</time></trkpt><trkpt lat="45.714871547771885" lon="10.037920369227116"><ele>450.2</ele><time>2026-04-11T14:43:46.001Z</time></trkpt><trkpt lat="45.71480467764714" lon="10.037825060457934"><ele>452.4</ele><time>2026-04-11T14:43:47.001Z</time></trkpt><trkpt lat="45.71471947435867" lon="10.03775751353131"><ele>454.59999999999997</ele><time>2026-04-11T14:43:48.002Z</time></trkpt><trkpt lat="45.71461395745256" lon="10.037762992500864"><ele>456.79999999999995</ele><time>2026-04-11T14:43:49.002Z</time></trkpt><trkpt lat="45.714516920027506" lon="10.03772971361432"><ele>459.0</ele><time>2026-04-11T14:43:50.002Z</time></trkpt><trkpt lat="45.714423196039775" lon="10.037722723147509"><ele>455.3333333333333</ele><time>2026-04-11T14:43:51.002Z</time></trkpt><trkpt lat="45.714345327112824" lon="10.037701512281963"><ele>451.66666666666663</ele><time>2026-04-11T14:43:52.002Z</time></trkpt><trkpt lat="45.71427494089309" lon="10.037654647521675"><ele>448.0</ele><time>2026-04-11T14:43:53.002Z</time></trkpt><trkpt lat="45.7142668032022" lon="10.037557628203121"><ele>444.3333333333333</ele><time>2026-04-11T14:43:54.002Z</time></trkpt><trkpt lat="45.71427919901887" lon="10.037468163743535"><ele>440.66666666666663</ele><time>2026-04-11T14:43:55.002Z</time></trkpt><trkpt lat="45.714338470631304" lon="10.037364053204401"><ele>437.0</ele><time>2026-04-11T14:43:57.002Z</time></trkpt><trkpt lat="45.714380700734985" lon="10.03728803597437"><ele>444.0</ele><time>2026-04-11T14:43:58.002Z</time></trkpt><trkpt lat="45.71443052232405" lon="10.037175946282636"><ele>451.00000000000006</ele><time>2026-04-11T14:43:59.002Z</time></trkpt><trkpt lat="45.714504864031014" lon="10.03707529266443"><ele>458.00000000000006</ele><time>2026-04-11T14:44:00.002Z</time></trkpt><trkpt lat="45.71457425128428" lon="10.036975199244063"><ele>465.0</ele><time>2026-04-11T14:44:01.002Z</time></trkpt><trkpt lat="45.7146331242643" lon="10.036870205761934"><ele>472.0</ele><time>2026-04-11T14:44:02.002Z</time></trkpt><trkpt lat="45.714656171990605" lon="10.03676335745748"><ele>472.0</ele><time>2026-04-11T14:44:03.002Z</time></trkpt><trkpt lat="45.71466439324186" lon="10.036645501253886"><ele>472.00000000000006</ele><time>2026-04-11T14:44:04.002Z</time></trkpt><trkpt lat="45.71460397883848" lon="10.03653461628007"><ele>472.00000000000006</ele><time>2026-04-11T14:44:05.002Z</time></trkpt><trkpt lat="45.714560197003685" lon="10.036413584489878"><ele>472.0</ele><time>2026-04-11T14:44:06.002Z</time></trkpt><trkpt lat="45.71449426639854" lon="10.036319286316049"><ele>472.0</ele><time>2026-04-11T14:44:07.002Z</time></trkpt><trkpt lat="45.71444442881629" lon="10.03620126588445"><ele>471.40000000000003</ele><time>2026-04-11T14:44:08.002Z</time></trkpt><trkpt lat="45.71442021522993" lon="10.036090547928229"><ele>470.80000000000007</ele><time>2026-04-11T14:44:09.002Z</time></trkpt><trkpt lat="45.71440981688628" lon="10.035974214785362"><ele>470.2</ele><time>2026-04-11T14:44:10.002Z</time></trkpt><trkpt lat="45.71439290999612" lon="10.035831603771346"><ele>469.6</ele><time>2026-04-11T14:44:11.002Z</time></trkpt><trkpt lat="45.714346648916276" lon="10.03570369122627"><ele>469.0</ele><time>2026-04-11T14:44:12.002Z</time></trkpt><trkpt lat="45.71425534009037" lon="10.035603653250927"><ele>469.0</ele><time>2026-04-11T14:44:13.002Z</time></trkpt><trkpt lat="45.714155779311824" lon="10.035524567654527"><ele>469.0</ele><time>2026-04-11T14:44:14.002Z</time></trkpt><trkpt lat="45.714056410021016" lon="10.035486772407092"><ele>469.0</ele><time>2026-04-11T14:44:15.002Z</time></trkpt><trkpt lat="45.71397444894026" lon="10.035455184519058"><ele>469.0</ele><time>2026-04-11T14:44:16.002Z</time></trkpt><trkpt lat="45.71389841171634" lon="10.035410724265619"><ele>469.0</ele><time>2026-04-11T14:44:17.002Z</time></trkpt><trkpt lat="45.71379593077123" lon="10.035315700696133"><ele>469.0</ele><time>2026-04-11T14:44:19.002Z</time></trkpt><trkpt lat="45.7137436410391" lon="10.03521676914141"><ele>469.0</ele><time>2026-04-11T14:44:20.002Z</time></trkpt><trkpt lat="45.71377128877943" lon="10.035056989218308"><ele>469.0</ele><time>2026-04-11T14:44:21.002Z</time></trkpt><trkpt lat="45.71381342399167" lon="10.034957024489184"><ele>469.0</ele><time>2026-04-11T14:44:22.002Z</time></trkpt><trkpt lat="45.71384420097089" lon="10.034804493397475"><ele>469.0</ele><time>2026-04-11T14:44:23.002Z</time></trkpt><trkpt lat="45.71384579229428" lon="10.034650904193429"><ele>467.1666666666667</ele><time>2026-04-11T14:44:24.002Z</time></trkpt><trkpt lat="45.713790354484246" lon="10.034570077685554"><ele>465.33333333333337</ele><time>2026-04-11T14:44:25.002Z</time></trkpt><trkpt lat="45.713710825027114" lon="10.034539676472402"><ele>463.5</ele><time>2026-04-11T14:44:26.002Z</time></trkpt><trkpt lat="45.71362432791402" lon="10.034518412401363"><ele>461.66666666666663</ele><time>2026-04-11T14:44:27.002Z</time></trkpt><trkpt lat="45.71352511929985" lon="10.034470225010196"><ele>459.8333333333333</ele><time>2026-04-11T14:44:28.002Z</time></trkpt><trkpt lat="45.71343695731517" lon="10.03442596752326"><ele>458.0</ele><time>2026-04-11T14:44:29.002Z</time></trkpt><trkpt lat="45.713358950945434" lon="10.034366945885859"><ele>458.0</ele><time>2026-04-11T14:44:30.002Z</time></trkpt><trkpt lat="45.71329030353993" lon="10.034300194597376"><ele>457.99999999999994</ele><time>2026-04-11T14:44:31Z</time></trkpt><trkpt lat="45.71323720672732" lon="10.034229567009996"><ele>457.99999999999994</ele><time>2026-04-11T14:44:32Z</time></trkpt><trkpt lat="45.71322832186804" lon="10.034092947715466"><ele>458.0</ele><time>2026-04-11T14:44:34Z</time></trkpt><trkpt lat="45.71335564308099" lon="10.034021272829058"><ele>458.0</ele><time>2026-04-11T14:44:35Z</time></trkpt><trkpt lat="45.713437219833" lon="10.034095044306515"><ele>458.0</ele><time>2026-04-11T14:44:36Z</time></trkpt><trkpt lat="45.713526710781395" lon="10.034157781787945"><ele>458.0</ele><time>2026-04-11T14:44:37Z</time></trkpt><trkpt lat="45.713611660507524" lon="10.034248446730144"><ele>458.0</ele><time>2026-04-11T14:44:38Z</time></trkpt><trkpt lat="45.71371774233203" lon="10.034340176462525"><ele>458.0</ele><time>2026-04-11T14:44:39Z</time></trkpt><trkpt lat="45.71382835006897" lon="10.034415268377604"><ele>460.2</ele><time>2026-04-11T14:44:40Z</time></trkpt><trkpt lat="45.71393019006446" lon="10.034492718479868"><ele>462.4</ele><time>2026-04-11T14:44:41Z</time></trkpt><trkpt lat="45.71401803276598" lon="10.034599885302372"><ele>464.59999999999997</ele><time>2026-04-11T14:44:42Z</time></trkpt><trkpt lat="45.71407154096848" lon="10.034735955953163"><ele>466.79999999999995</ele><time>2026-04-11T14:44:43Z</time></trkpt><trkpt lat="45.71410767404805" lon="10.034880004050153"><ele>469.0</ele><time>2026-04-11T14:44:44Z</time></trkpt><trkpt lat="45.71412484759333" lon="10.03497292746696"><ele>469.00000000000006</ele><time>2026-04-11T14:44:45Z</time></trkpt><trkpt lat="45.71416920148065" lon="10.035120877590323"><ele>469.0</ele><time>2026-04-11T14:44:47Z</time></trkpt><trkpt lat="45.714226914587805" lon="10.035167560189866"><ele>469.0</ele><time>2026-04-11T14:44:48Z</time></trkpt><trkpt lat="45.71430489554424" lon="10.035179645018104"><ele>469.0</ele><time>2026-04-11T14:44:49Z</time></trkpt><trkpt lat="45.714386028130555" lon="10.035161138417772"><ele>469.00000000000006</ele><time>2026-04-11T14:44:50Z</time></trkpt><trkpt lat="45.71447662427261" lon="10.035135376594798"><ele>469.0</ele><time>2026-04-11T14:44:51Z</time></trkpt><trkpt lat="45.714572542961456" lon="10.035157992772925"><ele>475.2</ele><time>2026-04-11T14:44:52Z</time></trkpt><trkpt lat="45.71465692260426" lon="10.0352053061434"><ele>481.4</ele><time>2026-04-11T14:44:53Z</time></trkpt><trkpt lat="45.71472282918028" lon="10.035276181056329"><ele>487.6</ele><time>2026-04-11T14:44:54Z</time></trkpt><trkpt lat="45.71476559083357" lon="10.035396011270727"><ele>493.8</ele><time>2026-04-11T14:44:55Z</time></trkpt><trkpt lat="45.71480640443188" lon="10.035507067842863"><ele>500.0</ele><time>2026-04-11T14:44:56Z</time></trkpt><trkpt lat="45.71483890575186" lon="10.035672831772594"><ele>496.75</ele><time>2026-04-11T14:44:57Z</time></trkpt><trkpt lat="45.71489477168268" lon="10.035835090485643"><ele>493.5</ele><time>2026-04-11T14:44:58Z</time></trkpt><trkpt lat="45.7149657777282" lon="10.035985776302072"><ele>490.25</ele><time>2026-04-11T14:44:59Z</time></trkpt><trkpt lat="45.71503151691381" lon="10.036138949720323"><ele>487.0</ele><time>2026-04-11T14:45:00Z</time></trkpt><trkpt lat="45.715105122771796" lon="10.036277943497128"><ele>487.0</ele><time>2026-04-11T14:45:01Z</time></trkpt><trkpt lat="45.71518048729544" lon="10.036393700530677"><ele>487.0</ele><time>2026-04-11T14:45:02Z</time></trkpt><trkpt lat="45.71527306344135" lon="10.036519833721977"><ele>487.0</ele><time>2026-04-11T14:45:03Z</time></trkpt><trkpt lat="45.71535313149934" lon="10.036665342529595"><ele>487.0</ele><time>2026-04-11T14:45:04Z</time></trkpt><trkpt lat="45.71542294411406" lon="10.036823544464871"><ele>490.5</ele><time>2026-04-11T14:45:05Z</time></trkpt><trkpt lat="45.71546025385568" lon="10.036987981083485"><ele>494.0</ele><time>2026-04-11T14:45:06Z</time></trkpt><trkpt lat="45.715485325634376" lon="10.037158315751123"><ele>497.5</ele><time>2026-04-11T14:45:07Z</time></trkpt><trkpt lat="45.71552807750126" lon="10.03731648996196"><ele>501.0</ele><time>2026-04-11T14:45:08Z</time></trkpt><trkpt lat="45.71558986070943" lon="10.037470123318625"><ele>501.0</ele><time>2026-04-11T14:45:09Z</time></trkpt><trkpt lat="45.71566992306206" lon="10.037602265469175"><ele>501.0</ele><time>2026-04-11T14:45:10.001Z</time></trkpt><trkpt lat="45.71574736872492" lon="10.037723043044634"><ele>501.0</ele><time>2026-04-11T14:45:11.001Z</time></trkpt><trkpt lat="45.71580910715974" lon="10.03786599175594"><ele>501.0</ele><time>2026-04-11T14:45:12.001Z</time></trkpt><trkpt lat="45.71578568043721" lon="10.03803696744975"><ele>501.0</ele><time>2026-04-11T14:45:13.001Z</time></trkpt><trkpt lat="45.715770342338324" lon="10.038207637096772"><ele>501.0</ele><time>2026-04-11T14:45:14.001Z</time></trkpt><trkpt lat="45.71576240007673" lon="10.038371382845847"><ele>501.0</ele><time>2026-04-11T14:45:15.001Z</time></trkpt><trkpt lat="45.71575217129688" lon="10.038536188002524"><ele>501.0</ele><time>2026-04-11T14:45:16.001Z</time></trkpt><trkpt lat="45.71574369920775" lon="10.038686110639755"><ele>499.3333333333333</ele><time>2026-04-11T14:45:17.001Z</time></trkpt><trkpt lat="45.715736962644634" lon="10.038798189549475"><ele>497.66666666666663</ele><time>2026-04-11T14:45:18.001Z</time></trkpt><trkpt lat="45.7157473223782" lon="10.038958606693894"><ele>496.0</ele><time>2026-04-11T14:45:20.001Z</time></trkpt><trkpt lat="45.71583692008967" lon="10.039043661223621"><ele>494.3333333333333</ele><time>2026-04-11T14:45:22.001Z</time></trkpt><trkpt lat="45.71589931467548" lon="10.039073933603218"><ele>492.66666666666663</ele><time>2026-04-11T14:45:23.001Z</time></trkpt><trkpt lat="45.715964413611445" lon="10.039096456956278"><ele>491.0</ele><time>2026-04-11T14:45:24.001Z</time></trkpt><trkpt lat="45.71602995724516" lon="10.039073023674094"><ele>494.66666666666663</ele><time>2026-04-11T14:45:25.001Z</time></trkpt><trkpt lat="45.71609972557586" lon="10.03903962236254"><ele>498.3333333333333</ele><time>2026-04-11T14:45:26.001Z</time></trkpt><trkpt lat="45.71617842882319" lon="10.039015531386065"><ele>502.0</ele><time>2026-04-11T14:45:27.001Z</time></trkpt><trkpt lat="45.7162569991254" lon="10.039025008297854"><ele>505.66666666666663</ele><time>2026-04-11T14:45:28.001Z</time></trkpt><trkpt lat="45.71634250029093" lon="10.039047962352372"><ele>509.3333333333333</ele><time>2026-04-11T14:45:29.001Z</time></trkpt><trkpt lat="45.716424521424244" lon="10.039101071987163"><ele>513.0</ele><time>2026-04-11T14:45:30.001Z</time></trkpt><trkpt lat="45.71647617841081" lon="10.039187015865627"><ele>513.0</ele><time>2026-04-11T14:45:31.001Z</time></trkpt><trkpt lat="45.71652174462409" lon="10.039312800138687"><ele>513.0</ele><time>2026-04-11T14:45:32.001Z</time></trkpt><trkpt lat="45.71653845922366" lon="10.039439532728114"><ele>513.0</ele><time>2026-04-11T14:45:33.001Z</time></trkpt><trkpt lat="45.7165530409698" lon="10.039568697446605"><ele>513.0</ele><time>2026-04-11T14:45:34.001Z</time></trkpt><trkpt lat="45.71659786938544" lon="10.039668573269275"><ele>513.0</ele><time>2026-04-11T14:45:35.001Z</time></trkpt><trkpt lat="45.716682546462366" lon="10.039716365201002"><ele>513.0</ele><time>2026-04-11T14:45:36.001Z</time></trkpt><trkpt lat="45.71678814255603" lon="10.039725374229283"><ele>513.0</ele><time>2026-04-11T14:45:37.001Z</time></trkpt><trkpt lat="45.71689468046105" lon="10.039729103725623"><ele>513.0</ele><time>2026-04-11T14:45:38.001Z</time></trkpt><trkpt lat="45.71700707021215" lon="10.039761913669798"><ele>513.0</ele><time>2026-04-11T14:45:39.001Z</time></trkpt><trkpt lat="45.71711960549397" lon="10.039820604727149"><ele>513.0</ele><time>2026-04-11T14:45:40.001Z</time></trkpt><trkpt lat="45.71722139490223" lon="10.039892121809228"><ele>515.5</ele><time>2026-04-11T14:45:41.001Z</time></trkpt><trkpt lat="45.717292703917146" lon="10.04003344896934"><ele>518.0</ele><time>2026-04-11T14:45:42.001Z</time></trkpt><trkpt lat="45.71738811276759" lon="10.040151077188764"><ele>520.5</ele><time>2026-04-11T14:45:43.001Z</time></trkpt><trkpt lat="45.717469558971544" lon="10.040302325551197"><ele>523.0</ele><time>2026-04-11T14:45:44.001Z</time></trkpt><trkpt lat="45.71756301000497" lon="10.040428702601254"><ele>523.0</ele><time>2026-04-11T14:45:45.001Z</time></trkpt><trkpt lat="45.71766593605278" lon="10.040538764403045"><ele>523.0</ele><time>2026-04-11T14:45:46.001Z</time></trkpt><trkpt lat="45.717767794119176" lon="10.040655009295518"><ele>523.0</ele><time>2026-04-11T14:45:47.001Z</time></trkpt><trkpt lat="45.717850209971985" lon="10.040765688906204"><ele>523.0</ele><time>2026-04-11T14:45:48.001Z</time></trkpt><trkpt lat="45.71790385580568" lon="10.0408826026147"><ele>524.6666666666667</ele><time>2026-04-11T14:45:49.001Z</time></trkpt><trkpt lat="45.717931193860885" lon="10.040987010217725"><ele>526.3333333333334</ele><time>2026-04-11T14:45:50.001Z</time></trkpt><trkpt lat="45.71792725448413" lon="10.041081395901411"><ele>528.0</ele><time>2026-04-11T14:45:51.001Z</time></trkpt><trkpt lat="45.71795841812953" lon="10.04116194326551"><ele>529.6666666666666</ele><time>2026-04-11T14:45:52.001Z</time></trkpt><trkpt lat="45.71802512495069" lon="10.041188171339007"><ele>531.3333333333333</ele><time>2026-04-11T14:45:53.001Z</time></trkpt><trkpt lat="45.71810299286369" lon="10.041130137566533"><ele>533.0</ele><time>2026-04-11T14:45:54.001Z</time></trkpt><trkpt lat="45.71809321884034" lon="10.04083266120991"><ele>538.25</ele><time>2026-04-11T14:45:56.001Z</time></trkpt><trkpt lat="45.71802283157901" lon="10.040706553354628"><ele>543.5</ele><time>2026-04-11T14:45:57.001Z</time></trkpt><trkpt lat="45.71794758393566" lon="10.040582923695275"><ele>548.75</ele><time>2026-04-11T14:45:58.001Z</time></trkpt><trkpt lat="45.71785813907882" lon="10.04047456642107"><ele>554.0</ele><time>2026-04-11T14:45:59.001Z</time></trkpt><trkpt lat="45.717788641322485" lon="10.040344989908066"><ele>552.0</ele><time>2026-04-11T14:46:00.001Z</time></trkpt><trkpt lat="45.7177043828113" lon="10.040223936173145"><ele>550.0</ele><time>2026-04-11T14:46:01.002Z</time></trkpt><trkpt lat="45.71765178531377" lon="10.04008835145528"><ele>548.0</ele><time>2026-04-11T14:46:02.002Z</time></trkpt><trkpt lat="45.71760141450995" lon="10.039946924320477"><ele>546.0</ele><time>2026-04-11T14:46:03.002Z</time></trkpt><trkpt lat="45.71753695317829" lon="10.0398100267605"><ele>546.0</ele><time>2026-04-11T14:46:04.002Z</time></trkpt><trkpt lat="45.71748210360772" lon="10.03966536285338"><ele>546.0</ele><time>2026-04-11T14:46:05.002Z</time></trkpt><trkpt lat="45.717391803138625" lon="10.039565839976332"><ele>546.0</ele><time>2026-04-11T14:46:06.002Z</time></trkpt><trkpt lat="45.71730247249156" lon="10.039483245982622"><ele>546.0</ele><time>2026-04-11T14:46:07.002Z</time></trkpt><trkpt lat="45.7172313860318" lon="10.039419449682986"><ele>546.0</ele><time>2026-04-11T14:46:08.002Z</time></trkpt><trkpt lat="45.71718941502791" lon="10.039351007660773"><ele>546.0</ele><time>2026-04-11T14:46:09.002Z</time></trkpt><trkpt lat="45.71712633499564" lon="10.039236035569868"><ele>546.0</ele><time>2026-04-11T14:46:11.002Z</time></trkpt><trkpt lat="45.71711502364648" lon="10.03911928015851"><ele>546.0</ele><time>2026-04-11T14:46:12.002Z</time></trkpt><trkpt lat="45.717100215018725" lon="10.038914759344541"><ele>546.0</ele><time>2026-04-11T14:46:13.002Z</time></trkpt><trkpt lat="45.71707739524368" lon="10.038729209745684"><ele>545.5</ele><time>2026-04-11T14:46:14.002Z</time></trkpt><trkpt lat="45.71704379610993" lon="10.038585035112662"><ele>545.0</ele><time>2026-04-11T14:46:15.002Z</time></trkpt><trkpt lat="45.71701918497094" lon="10.038408108347772"><ele>544.5</ele><time>2026-04-11T14:46:16.002Z</time></trkpt><trkpt lat="45.716961460206484" lon="10.038242271924243"><ele>544.0</ele><time>2026-04-11T14:46:17.002Z</time></trkpt><trkpt lat="45.7168644146475" lon="10.038109232383386"><ele>544.0</ele><time>2026-04-11T14:46:18.002Z</time></trkpt><trkpt lat="45.71678527458762" lon="10.037987385867572"><ele>544.0</ele><time>2026-04-11T14:46:19.002Z</time></trkpt><trkpt lat="45.71671383527352" lon="10.037851939095113"><ele>544.0</ele><time>2026-04-11T14:46:20.002Z</time></trkpt><trkpt lat="45.7166618809742" lon="10.037698123500045"><ele>544.0</ele><time>2026-04-11T14:46:21.002Z</time></trkpt><trkpt lat="45.71660520404815" lon="10.03753582761857"><ele>547.75</ele><time>2026-04-11T14:46:22.002Z</time></trkpt><trkpt lat="45.71658845583761" lon="10.037363671297905"><ele>551.5</ele><time>2026-04-11T14:46:23.002Z</time></trkpt><trkpt lat="45.71655296265511" lon="10.037209815683331"><ele>555.25</ele><time>2026-04-11T14:46:24.002Z</time></trkpt><trkpt lat="45.71649386004519" lon="10.037071665325948"><ele>559.0</ele><time>2026-04-11T14:46:25.002Z</time></trkpt><trkpt lat="45.71644680224568" lon="10.036933502145583"><ele>559.0</ele><time>2026-04-11T14:46:26.002Z</time></trkpt><trkpt lat="45.7163932540517" lon="10.03679006455073"><ele>559.0</ele><time>2026-04-11T14:46:27.002Z</time></trkpt><trkpt lat="45.71635491876318" lon="10.036663935579247"><ele>559.0</ele><time>2026-04-11T14:46:28.002Z</time></trkpt><trkpt lat="45.716359299237354" lon="10.03654697596554"><ele>559.0</ele><time>2026-04-11T14:46:29.002Z</time></trkpt><trkpt lat="45.71635922387605" lon="10.036410734604985"><ele>559.0</ele><time>2026-04-11T14:46:30.002Z</time></trkpt><trkpt lat="45.71632252156084" lon="10.036257092885458"><ele>555.4</ele><time>2026-04-11T14:46:31.002Z</time></trkpt><trkpt lat="45.71624824428187" lon="10.036122423916858"><ele>551.8</ele><time>2026-04-11T14:46:32.002Z</time></trkpt><trkpt lat="45.71618837535711" lon="10.036037294377914"><ele>548.2</ele><time>2026-04-11T14:46:33.002Z</time></trkpt><trkpt lat="45.716106786485675" lon="10.035921280450573"><ele>544.6</ele><time>2026-04-11T14:46:34.002Z</time></trkpt><trkpt lat="45.71605174684462" lon="10.035820827529605"><ele>541.0</ele><time>2026-04-11T14:46:35.002Z</time></trkpt><trkpt lat="45.71599647356984" lon="10.035701452276525"><ele>541.0</ele><time>2026-04-11T14:46:36.002Z</time></trkpt><trkpt lat="45.715973759273666" lon="10.035538471292595"><ele>541.0</ele><time>2026-04-11T14:46:37Z</time></trkpt><trkpt lat="45.71595583688414" lon="10.035366810031455"><ele>541.0</ele><time>2026-04-11T14:46:38Z</time></trkpt><trkpt lat="45.71593930637935" lon="10.035215695982398"><ele>541.0</ele><time>2026-04-11T14:46:39Z</time></trkpt><trkpt lat="45.71597312369287" lon="10.035069725063071"><ele>543.4</ele><time>2026-04-11T14:46:40Z</time></trkpt><trkpt lat="45.71599973145031" lon="10.034919473579892"><ele>545.8</ele><time>2026-04-11T14:46:41Z</time></trkpt><trkpt lat="45.71601233692767" lon="10.034775423571656"><ele>548.1999999999999</ele><time>2026-04-11T14:46:42Z</time></trkpt><trkpt lat="45.71601070302607" lon="10.03463149040646"><ele>550.6</ele><time>2026-04-11T14:46:43Z</time></trkpt><trkpt lat="45.71595410357099" lon="10.034471401341575"><ele>553.0</ele><time>2026-04-11T14:46:44Z</time></trkpt><trkpt lat="45.71587079570419" lon="10.034344371970864"><ele>553.0</ele><time>2026-04-11T14:46:45Z</time></trkpt><trkpt lat="45.71579143947372" lon="10.034219884192934"><ele>553.0</ele><time>2026-04-11T14:46:46Z</time></trkpt><trkpt lat="45.715720952662295" lon="10.034104333797808"><ele>553.0</ele><time>2026-04-11T14:46:47Z</time></trkpt><trkpt lat="45.7156716327937" lon="10.034002528419979"><ele>553.0</ele><time>2026-04-11T14:46:48Z</time></trkpt><trkpt lat="45.715634552819935" lon="10.033926226122595"><ele>553.0</ele><time>2026-04-11T14:46:49Z</time></trkpt><trkpt lat="45.71564724422771" lon="10.033833654282747"><ele>553.0</ele><time>2026-04-11T14:46:50Z</time></trkpt><trkpt lat="45.715695762876166" lon="10.033760342372192"><ele>551.1999999999999</ele><time>2026-04-11T14:46:51Z</time></trkpt><trkpt lat="45.71577069523394" lon="10.033711824245245"><ele>549.4</ele><time>2026-04-11T14:46:52Z</time></trkpt><trkpt lat="45.71586447905236" lon="10.03365702869782"><ele>547.5999999999999</ele><time>2026-04-11T14:46:53Z</time></trkpt><trkpt lat="45.715972570165874" lon="10.033590380270937"><ele>545.8</ele><time>2026-04-11T14:46:54Z</time></trkpt><trkpt lat="45.71610273325928" lon="10.033550363070562"><ele>544.0</ele><time>2026-04-11T14:46:55Z</time></trkpt><trkpt lat="45.71620907126385" lon="10.033504823091405"><ele>549.4</ele><time>2026-04-11T14:46:56Z</time></trkpt><trkpt lat="45.71630937151398" lon="10.033457413953128"><ele>554.8</ele><time>2026-04-11T14:46:57Z</time></trkpt><trkpt lat="45.7163902373812" lon="10.033383942239752"><ele>560.2</ele><time>2026-04-11T14:46:58Z</time></trkpt><trkpt lat="45.71647180888831" lon="10.033310861743177"><ele>565.6</ele><time>2026-04-11T14:46:59Z</time></trkpt><trkpt lat="45.716547083472676" lon="10.033214664939157"><ele>571.0</ele><time>2026-04-11T14:47:00Z</time></trkpt><trkpt lat="45.716558984023294" lon="10.033061461308176"><ele>572.6</ele><time>2026-04-11T14:47:01Z</time></trkpt><trkpt lat="45.716535835895066" lon="10.03293524254065"><ele>574.2</ele><time>2026-04-11T14:47:02Z</time></trkpt><trkpt lat="45.716479341218104" lon="10.03279951575736"><ele>575.8</ele><time>2026-04-11T14:47:03Z</time></trkpt><trkpt lat="45.71641388971083" lon="10.032665564675371"><ele>577.4</ele><time>2026-04-11T14:47:04Z</time></trkpt><trkpt lat="45.71634109736377" lon="10.03252521681658"><ele>579.0</ele><time>2026-04-11T14:47:05Z</time></trkpt><trkpt lat="45.716270461270604" lon="10.03238042990989"><ele>575.5</ele><time>2026-04-11T14:47:06Z</time></trkpt><trkpt lat="45.716192136518615" lon="10.032232757416486"><ele>572.0</ele><time>2026-04-11T14:47:07Z</time></trkpt><trkpt lat="45.71610580974178" lon="10.03207706384382"><ele>568.5</ele><time>2026-04-11T14:47:08Z</time></trkpt><trkpt lat="45.71602513431925" lon="10.031934426666895"><ele>565.0</ele><time>2026-04-11T14:47:09Z</time></trkpt><trkpt lat="45.715936255217954" lon="10.031797387584424"><ele>565.0</ele><time>2026-04-11T14:47:10Z</time></trkpt><trkpt lat="45.71586559541475" lon="10.03167922926831"><ele>565.0</ele><time>2026-04-11T14:47:11Z</time></trkpt><trkpt lat="45.71580128608564" lon="10.031531134019707"><ele>565.0</ele><time>2026-04-11T14:47:12Z</time></trkpt><trkpt lat="45.715737800097756" lon="10.031376219507523"><ele>565.0</ele><time>2026-04-11T14:47:13Z</time></trkpt><trkpt lat="45.715657281303514" lon="10.031237532934993"><ele>569.75</ele><time>2026-04-11T14:47:14Z</time></trkpt><trkpt lat="45.71557922340069" lon="10.03109994908034"><ele>574.5</ele><time>2026-04-11T14:47:15Z</time></trkpt><trkpt lat="45.71551830829117" lon="10.030956277944458"><ele>579.25</ele><time>2026-04-11T14:47:16Z</time></trkpt><trkpt lat="45.71546026323277" lon="10.030814647474273"><ele>584.0</ele><time>2026-04-11T14:47:17Z</time></trkpt><trkpt lat="45.71541067119116" lon="10.03068266546658"><ele>585.0</ele><time>2026-04-11T14:47:18Z</time></trkpt><trkpt lat="45.71537913056919" lon="10.030555146287867"><ele>586.0</ele><time>2026-04-11T14:47:19Z</time></trkpt><trkpt lat="45.71538299383664" lon="10.03041454549765"><ele>587.0</ele><time>2026-04-11T14:47:20.001Z</time></trkpt><trkpt lat="45.71539141087445" lon="10.030276564468734"><ele>588.0</ele><time>2026-04-11T14:47:21.001Z</time></trkpt><trkpt lat="45.715438731749714" lon="10.030157650050267"><ele>589.0</ele><time>2026-04-11T14:47:22.001Z</time></trkpt><trkpt lat="45.71549302043967" lon="10.030035677342157"><ele>589.2</ele><time>2026-04-11T14:47:23.001Z</time></trkpt><trkpt lat="45.71553740491533" lon="10.029907096220327"><ele>589.4</ele><time>2026-04-11T14:47:24.001Z</time></trkpt><trkpt lat="45.715579822674556" lon="10.029771210862059"><ele>589.6</ele><time>2026-04-11T14:47:25.001Z</time></trkpt><trkpt lat="45.715586520623766" lon="10.029618750341404"><ele>589.8</ele><time>2026-04-11T14:47:26.001Z</time></trkpt><trkpt lat="45.715548763115166" lon="10.029470813773372"><ele>590.0</ele><time>2026-04-11T14:47:27.001Z</time></trkpt><trkpt lat="45.715509757812775" lon="10.029323605825711"><ele>590.0</ele><time>2026-04-11T14:47:28.001Z</time></trkpt><trkpt lat="45.715455593676005" lon="10.029188288464129"><ele>590.0</ele><time>2026-04-11T14:47:29.001Z</time></trkpt><trkpt lat="45.715408648630955" lon="10.02904599206582"><ele>590.0</ele><time>2026-04-11T14:47:30.001Z</time></trkpt><trkpt lat="45.71538825296345" lon="10.028878922662564"><ele>590.0</ele><time>2026-04-11T14:47:31.001Z</time></trkpt><trkpt lat="45.715389816769054" lon="10.028709428704609"><ele>590.4</ele><time>2026-04-11T14:47:32.001Z</time></trkpt><trkpt lat="45.71538800767963" lon="10.028545881853487"><ele>590.8</ele><time>2026-04-11T14:47:33.001Z</time></trkpt><trkpt lat="45.7153914717578" lon="10.028393861184806"><ele>591.2</ele><time>2026-04-11T14:47:34.001Z</time></trkpt><trkpt lat="45.71540084282217" lon="10.02824553727864"><ele>591.6</ele><time>2026-04-11T14:47:35.001Z</time></trkpt><trkpt lat="45.715413562285434" lon="10.028075434443565"><ele>592.0</ele><time>2026-04-11T14:47:36.001Z</time></trkpt><trkpt lat="45.7154446566343" lon="10.027967621880373"><ele>590.4</ele><time>2026-04-11T14:47:37.001Z</time></trkpt><trkpt lat="45.715544593694304" lon="10.027807878722793"><ele>588.8000000000001</ele><time>2026-04-11T14:47:39.001Z</time></trkpt><trkpt lat="45.715618793095466" lon="10.027741979251433"><ele>587.2</ele><time>2026-04-11T14:47:40.001Z</time></trkpt><trkpt lat="45.71571402375262" lon="10.027719990433193"><ele>585.6</ele><time>2026-04-11T14:47:41.001Z</time></trkpt><trkpt lat="45.71581770909373" lon="10.027722783702"><ele>584.0</ele><time>2026-04-11T14:47:42.001Z</time></trkpt><trkpt lat="45.71591938229569" lon="10.02769838979589"><ele>584.0</ele><time>2026-04-11T14:47:43.001Z</time></trkpt><trkpt lat="45.71601865112627" lon="10.027610610045295"><ele>584.0</ele><time>2026-04-11T14:47:44.001Z</time></trkpt><trkpt lat="45.71611490658071" lon="10.027491104194917"><ele>584.0</ele><time>2026-04-11T14:47:45.001Z</time></trkpt><trkpt lat="45.716200506957016" lon="10.027369859895845"><ele>584.0</ele><time>2026-04-11T14:47:46.001Z</time></trkpt><trkpt lat="45.716270642331416" lon="10.02723090868041"><ele>588.75</ele><time>2026-04-11T14:47:47.001Z</time></trkpt><trkpt lat="45.71631866881984" lon="10.027058036378913"><ele>593.5</ele><time>2026-04-11T14:47:48.001Z</time></trkpt><trkpt lat="45.71635836411934" lon="10.026895437600713"><ele>598.25</ele><time>2026-04-11T14:47:49.001Z</time></trkpt><trkpt lat="45.71638784246316" lon="10.026726588876343"><ele>603.0</ele><time>2026-04-11T14:47:50.001Z</time></trkpt><trkpt lat="45.716388485043325" lon="10.026565501264542"><ele>603.0</ele><time>2026-04-11T14:47:51.001Z</time></trkpt><trkpt lat="45.716374833305544" lon="10.026430236600657"><ele>603.0</ele><time>2026-04-11T14:47:52.001Z</time></trkpt><trkpt lat="45.716418494202834" lon="10.026305553403823"><ele>603.0</ele><time>2026-04-11T14:47:53.001Z</time></trkpt><trkpt lat="45.71648645330785" lon="10.02619200038116"><ele>603.0</ele><time>2026-04-11T14:47:54.001Z</time></trkpt><trkpt lat="45.71656530787649" lon="10.026082850263432"><ele>603.0</ele><time>2026-04-11T14:47:55.001Z</time></trkpt><trkpt lat="45.71662277688831" lon="10.025950875875662"><ele>603.6</ele><time>2026-04-11T14:47:56.001Z</time></trkpt><trkpt lat="45.71665215295789" lon="10.025791741208478"><ele>604.1999999999999</ele><time>2026-04-11T14:47:57.001Z</time></trkpt><trkpt lat="45.71662785807975" lon="10.02562845577279"><ele>604.8</ele><time>2026-04-11T14:47:58.001Z</time></trkpt><trkpt lat="45.71663885741844" lon="10.025495286553944"><ele>605.4</ele><time>2026-04-11T14:47:59.001Z</time></trkpt><trkpt lat="45.71668866798316" lon="10.025393153833253"><ele>606.0</ele><time>2026-04-11T14:48:00.001Z</time></trkpt><trkpt lat="45.71672574494686" lon="10.025280052493722"><ele>606.0</ele><time>2026-04-11T14:48:01.001Z</time></trkpt><trkpt lat="45.716760372719385" lon="10.025199094558225"><ele>606.0</ele><time>2026-04-11T14:48:02.001Z</time></trkpt><trkpt lat="45.716793243240026" lon="10.025071507845245"><ele>606.0</ele><time>2026-04-11T14:48:04.001Z</time></trkpt><trkpt lat="45.716750333500805" lon="10.024910707586859"><ele>606.0</ele><time>2026-04-11T14:48:05.001Z</time></trkpt><trkpt lat="45.7166413434301" lon="10.02480348769476"><ele>606.0</ele><time>2026-04-11T14:48:06.001Z</time></trkpt><trkpt lat="45.71654885248211" lon="10.024735692643855"><ele>610.4</ele><time>2026-04-11T14:48:07.001Z</time></trkpt><trkpt lat="45.71645390593386" lon="10.024671244262622"><ele>614.8</ele><time>2026-04-11T14:48:08.002Z</time></trkpt><trkpt lat="45.71634203231892" lon="10.024609518950227"><ele>619.1999999999999</ele><time>2026-04-11T14:48:09.002Z</time></trkpt><trkpt lat="45.71624120336228" lon="10.024576060315093"><ele>623.6</ele><time>2026-04-11T14:48:10.002Z</time></trkpt><trkpt lat="45.71617413292155" lon="10.02455529421845"><ele>628.0</ele><time>2026-04-11T14:48:11.002Z</time></trkpt><trkpt lat="45.71611455752219" lon="10.024526035014436"><ele>624.4</ele><time>2026-04-11T14:48:12.002Z</time></trkpt><trkpt lat="45.71605247510984" lon="10.024430891507695"><ele>620.8</ele><time>2026-04-11T14:48:14.002Z</time></trkpt><trkpt lat="45.71600141387067" lon="10.024284511183902"><ele>617.2</ele><time>2026-04-11T14:48:16.002Z</time></trkpt><trkpt lat="45.71597146329287" lon="10.024176027148323"><ele>613.6</ele><time>2026-04-11T14:48:17.002Z</time></trkpt><trkpt lat="45.7159304687324" lon="10.024046988536963"><ele>610.0</ele><time>2026-04-11T14:48:18.002Z</time></trkpt><trkpt lat="45.71593593937544" lon="10.023880417620989"><ele>610.0</ele><time>2026-04-11T14:48:19.002Z</time></trkpt><trkpt lat="45.71592372348137" lon="10.023757598464234"><ele>610.0</ele><time>2026-04-11T14:48:20.002Z</time></trkpt><trkpt lat="45.71590561320521" lon="10.02364589606132"><ele>610.0</ele><time>2026-04-11T14:48:21.002Z</time></trkpt><trkpt lat="45.715924366848" lon="10.023534703007666"><ele>610.0</ele><time>2026-04-11T14:48:22.002Z</time></trkpt><trkpt lat="45.715940481968794" lon="10.023415254713154"><ele>610.0</ele><time>2026-04-11T14:48:23.002Z</time></trkpt><trkpt lat="45.71597433297568" lon="10.023267783053607"><ele>610.0</ele><time>2026-04-11T14:48:24.002Z</time></trkpt><trkpt lat="45.71601906107781" lon="10.023125821031726"><ele>610.0</ele><time>2026-04-11T14:48:25.002Z</time></trkpt><trkpt lat="45.716069235217326" lon="10.02297210597235"><ele>610.0</ele><time>2026-04-11T14:48:26.002Z</time></trkpt><trkpt lat="45.71610604368624" lon="10.022822675398407"><ele>610.0</ele><time>2026-04-11T14:48:27.002Z</time></trkpt><trkpt lat="45.716158274021254" lon="10.022700701041076"><ele>610.0</ele><time>2026-04-11T14:48:28.002Z</time></trkpt><trkpt lat="45.71619835452381" lon="10.022560418958216"><ele>610.0</ele><time>2026-04-11T14:48:29.002Z</time></trkpt><trkpt lat="45.71622679469042" lon="10.022465848241325"><ele>611.6</ele><time>2026-04-11T14:48:34.002Z</time></trkpt><trkpt lat="45.71626719254422" lon="10.022300443049385"><ele>613.2</ele><time>2026-04-11T14:48:36.002Z</time></trkpt><trkpt lat="45.71630650514851" lon="10.022217304920813"><ele>614.8</ele><time>2026-04-11T14:48:37.002Z</time></trkpt><trkpt lat="45.71634756641013" lon="10.02203197784506"><ele>616.4</ele><time>2026-04-11T14:48:39.002Z</time></trkpt><trkpt lat="45.71639098557553" lon="10.021959156518955"><ele>618.0</ele><time>2026-04-11T14:48:40.002Z</time></trkpt><trkpt lat="45.7164384267568" lon="10.021851088957346"><ele>618.0</ele><time>2026-04-11T14:48:42.002Z</time></trkpt><trkpt lat="45.71640260493702" lon="10.02193264597562"><ele>618.0</ele><time>2026-04-11T14:49:02Z</time></trkpt><trkpt lat="45.7163630135361" lon="10.022035970002328"><ele>618.0</ele><time>2026-04-11T14:49:05Z</time></trkpt><trkpt lat="45.716331584315625" lon="10.022129763287703"><ele>618.0</ele><time>2026-04-11T14:49:08Z</time></trkpt><trkpt lat="45.716310293632" lon="10.021941230989055"><ele>618.0</ele><time>2026-04-11T14:51:11.253Z</time></trkpt><trkpt lat="45.71643386971738" lon="10.021868878984844"><ele>618.0</ele><time>2026-04-11T14:51:13.729Z</time></trkpt><trkpt lat="45.71643646810736" lon="10.021706772977506"><ele>618.0</ele><time>2026-04-11T14:51:14.854Z</time></trkpt><trkpt lat="45.71691725407328" lon="10.021308632576858"><ele>617.3333333333334</ele><time>2026-04-11T14:51:24.847Z</time></trkpt><trkpt lat="45.7169372995032" lon="10.021218303724892"><ele>616.6666666666667</ele><time>2026-04-11T14:51:25.84Z</time></trkpt><trkpt lat="45.71681749296073" lon="10.021363635294291"><ele>616.0</ele><time>2026-04-11T14:51:26.001Z</time></trkpt><trkpt lat="45.71701963902052" lon="10.02091736533681"><ele>623.4</ele><time>2026-04-11T14:51:28.001Z</time></trkpt><trkpt lat="45.717010871906275" lon="10.020760798526235"><ele>630.8</ele><time>2026-04-11T14:51:29.001Z</time></trkpt><trkpt lat="45.717020238590486" lon="10.020609835896204"><ele>638.1999999999999</ele><time>2026-04-11T14:51:30.001Z</time></trkpt><trkpt lat="45.71700886086219" lon="10.020459755491695"><ele>645.6</ele><time>2026-04-11T14:51:31.001Z</time></trkpt><trkpt lat="45.716995130925724" lon="10.020303621386855"><ele>653.0</ele><time>2026-04-11T14:51:32.001Z</time></trkpt><trkpt lat="45.71697011168559" lon="10.020152526900661"><ele>653.0</ele><time>2026-04-11T14:51:33.001Z</time></trkpt><trkpt lat="45.71695198379501" lon="10.0199872271464"><ele>653.0</ele><time>2026-04-11T14:51:34.001Z</time></trkpt><trkpt lat="45.71691500320441" lon="10.0198275247239"><ele>653.0</ele><time>2026-04-11T14:51:35.001Z</time></trkpt><trkpt lat="45.71690986843649" lon="10.019667824092243"><ele>653.0</ele><time>2026-04-11T14:51:36.001Z</time></trkpt><trkpt lat="45.71688148654492" lon="10.019545539741529"><ele>653.0</ele><time>2026-04-11T14:51:37.001Z</time></trkpt><trkpt lat="45.71688470279543" lon="10.019403633759625"><ele>652.8</ele><time>2026-04-11T14:51:38.001Z</time></trkpt><trkpt lat="45.71687857541214" lon="10.019264254557"><ele>652.5999999999999</ele><time>2026-04-11T14:51:39.001Z</time></trkpt><trkpt lat="45.716867189764855" lon="10.019111351805915"><ele>652.4000000000001</ele><time>2026-04-11T14:51:40.001Z</time></trkpt><trkpt lat="45.71689068175355" lon="10.018950943783596"><ele>652.2</ele><time>2026-04-11T14:51:41.001Z</time></trkpt><trkpt lat="45.716904612234266" lon="10.018807695126036"><ele>652.0</ele><time>2026-04-11T14:51:42.001Z</time></trkpt><trkpt lat="45.71693207601034" lon="10.018687688221068"><ele>652.0</ele><time>2026-04-11T14:51:43.001Z</time></trkpt><trkpt lat="45.71696603246979" lon="10.018548274741141"><ele>652.0</ele><time>2026-04-11T14:51:44.001Z</time></trkpt><trkpt lat="45.71701309909503" lon="10.01839114965132"><ele>652.0</ele><time>2026-04-11T14:51:45.001Z</time></trkpt><trkpt lat="45.717058917845534" lon="10.018225161287187"><ele>652.0</ele><time>2026-04-11T14:51:46.001Z</time></trkpt><trkpt lat="45.71710225751258" lon="10.018087755429654"><ele>648.6</ele><time>2026-04-11T14:51:47.002Z</time></trkpt><trkpt lat="45.717139336036745" lon="10.017962357001762"><ele>645.2</ele><time>2026-04-11T14:51:48.002Z</time></trkpt><trkpt lat="45.717165825710325" lon="10.01785208691133"><ele>641.8</ele><time>2026-04-11T14:51:49.002Z</time></trkpt><trkpt lat="45.7172342963566" lon="10.01776851161236"><ele>638.4</ele><time>2026-04-11T14:51:51.002Z</time></trkpt><trkpt lat="45.71729766041595" lon="10.017911539065743"><ele>635.0</ele><time>2026-04-11T14:51:53.002Z</time></trkpt><trkpt lat="45.717242028519706" lon="10.01814261093592"><ele>635.0</ele><time>2026-04-11T14:51:55.002Z</time></trkpt><trkpt lat="45.71721469409249" lon="10.01828404277287"><ele>635.0</ele><time>2026-04-11T14:51:56.002Z</time></trkpt><trkpt lat="45.71719099773866" lon="10.01844253806036"><ele>635.0</ele><time>2026-04-11T14:51:57.002Z</time></trkpt><trkpt lat="45.71717115623404" lon="10.018596716517042"><ele>635.0</ele><time>2026-04-11T14:51:58.002Z</time></trkpt><trkpt lat="45.717155864744626" lon="10.018747529818194"><ele>635.0</ele><time>2026-04-11T14:51:59.002Z</time></trkpt><trkpt lat="45.71715065619702" lon="10.018891178311135"><ele>638.4</ele><time>2026-04-11T14:52:00.002Z</time></trkpt><trkpt lat="45.71715194516961" lon="10.01903224658055"><ele>641.8</ele><time>2026-04-11T14:52:01.002Z</time></trkpt><trkpt lat="45.71716520288978" lon="10.019149131693547"><ele>645.2</ele><time>2026-04-11T14:52:02.002Z</time></trkpt><trkpt lat="45.71719312777494" lon="10.019282399689386"><ele>648.6</ele><time>2026-04-11T14:52:03.002Z</time></trkpt><trkpt lat="45.71726706819772" lon="10.019371927014365"><ele>652.0</ele><time>2026-04-11T14:52:04.002Z</time></trkpt><trkpt lat="45.717334766569095" lon="10.019469765920956"><ele>652.2</ele><time>2026-04-11T14:52:05.002Z</time></trkpt><trkpt lat="45.71737830945444" lon="10.01958435849818"><ele>652.4000000000001</ele><time>2026-04-11T14:52:06.002Z</time></trkpt><trkpt lat="45.717410054688415" lon="10.019711375556984"><ele>652.5999999999999</ele><time>2026-04-11T14:52:07.002Z</time></trkpt><trkpt lat="45.717457749715415" lon="10.01982245892427"><ele>652.8</ele><time>2026-04-11T14:52:08.002Z</time></trkpt><trkpt lat="45.717527939876675" lon="10.019923151703686"><ele>653.0</ele><time>2026-04-11T14:52:09.002Z</time></trkpt><trkpt lat="45.71760987290915" lon="10.019992424382838"><ele>653.0</ele><time>2026-04-11T14:52:10.002Z</time></trkpt><trkpt lat="45.71767788422532" lon="10.020071864535044"><ele>653.0</ele><time>2026-04-11T14:52:11.002Z</time></trkpt><trkpt lat="45.71771570884045" lon="10.020178805307012"><ele>653.0</ele><time>2026-04-11T14:52:12.002Z</time></trkpt><trkpt lat="45.71769257734446" lon="10.020306747284893"><ele>653.0</ele><time>2026-04-11T14:52:13.002Z</time></trkpt><trkpt lat="45.7176424417313" lon="10.020416252083622"><ele>653.0</ele><time>2026-04-11T14:52:14.002Z</time></trkpt><trkpt lat="45.71761222823601" lon="10.020519083801307"><ele>653.0</ele><time>2026-04-11T14:52:15.002Z</time></trkpt><trkpt lat="45.7176106208987" lon="10.020630697019017"><ele>653.0</ele><time>2026-04-11T14:52:16.002Z</time></trkpt><trkpt lat="45.71764350304762" lon="10.020752759411314"><ele>653.0</ele><time>2026-04-11T14:52:17.002Z</time></trkpt><trkpt lat="45.71770192002646" lon="10.020871674029477"><ele>653.0</ele><time>2026-04-11T14:52:18.002Z</time></trkpt><trkpt lat="45.71775327737562" lon="10.02100722178593"><ele>653.0</ele><time>2026-04-11T14:52:19.002Z</time></trkpt><trkpt lat="45.717818961091886" lon="10.021154268049115"><ele>653.0</ele><time>2026-04-11T14:52:20.002Z</time></trkpt><trkpt lat="45.71786739294329" lon="10.021311365840626"><ele>659.75</ele><time>2026-04-11T14:52:21.002Z</time></trkpt><trkpt lat="45.71791573503181" lon="10.0214678052987"><ele>666.5</ele><time>2026-04-11T14:52:22.002Z</time></trkpt><trkpt lat="45.717973073764206" lon="10.02161891393734"><ele>673.25</ele><time>2026-04-11T14:52:23.002Z</time></trkpt><trkpt lat="45.71804610659391" lon="10.021762966897581"><ele>680.0</ele><time>2026-04-11T14:52:24.002Z</time></trkpt><trkpt lat="45.71812568193137" lon="10.021895071045734"><ele>680.0</ele><time>2026-04-11T14:52:25.002Z</time></trkpt><trkpt lat="45.71819270092717" lon="10.022018628383234"><ele>680.0</ele><time>2026-04-11T14:52:26.002Z</time></trkpt><trkpt lat="45.71825376997524" lon="10.022138876884327"><ele>680.0</ele><time>2026-04-11T14:52:27.002Z</time></trkpt><trkpt lat="45.71828676828553" lon="10.022278397413018"><ele>680.0</ele><time>2026-04-11T14:52:28.002Z</time></trkpt><trkpt lat="45.71828246629669" lon="10.022409848751549"><ele>680.0</ele><time>2026-04-11T14:52:29.002Z</time></trkpt><trkpt lat="45.71825391389861" lon="10.022537761394043"><ele>678.6666666666666</ele><time>2026-04-11T14:52:30.002Z</time></trkpt><trkpt lat="45.71822532994758" lon="10.022660762133066"><ele>677.3333333333333</ele><time>2026-04-11T14:52:31.002Z</time></trkpt><trkpt lat="45.71820767083351" lon="10.022777482329529"><ele>676.0</ele><time>2026-04-11T14:52:32.002Z</time></trkpt><trkpt lat="45.718208041087266" lon="10.022888300929402"><ele>674.6666666666666</ele><time>2026-04-11T14:52:33.002Z</time></trkpt><trkpt lat="45.71822600649182" lon="10.022975487434703"><ele>673.3333333333334</ele><time>2026-04-11T14:52:34.002Z</time></trkpt><trkpt lat="45.71830752828663" lon="10.023077471674988"><ele>672.0</ele><time>2026-04-11T14:52:36.002Z</time></trkpt><trkpt lat="45.71838970527111" lon="10.023027933757266"><ele>672.0</ele><time>2026-04-11T14:52:37.002Z</time></trkpt><trkpt lat="45.718434242515926" lon="10.02291150243397"><ele>672.0</ele><time>2026-04-11T14:52:38.002Z</time></trkpt><trkpt lat="45.71842366543677" lon="10.02274231559147"><ele>672.0</ele><time>2026-04-11T14:52:39.002Z</time></trkpt><trkpt lat="45.71842122371632" lon="10.02259706098742"><ele>672.0</ele><time>2026-04-11T14:52:40.002Z</time></trkpt><trkpt lat="45.718418681778104" lon="10.022439126529534"><ele>672.0</ele><time>2026-04-11T14:52:41.002Z</time></trkpt><trkpt lat="45.71842080125862" lon="10.022280397380296"><ele>673.6</ele><time>2026-04-11T14:52:42.002Z</time></trkpt><trkpt lat="45.718436486154815" lon="10.022132393961483"><ele>675.2</ele><time>2026-04-11T14:52:43.002Z</time></trkpt><trkpt lat="45.718472789025896" lon="10.021985536181147"><ele>676.8</ele><time>2026-04-11T14:52:44.002Z</time></trkpt><trkpt lat="45.71849313714562" lon="10.021839703286721"><ele>678.4</ele><time>2026-04-11T14:52:45.003Z</time></trkpt><trkpt lat="45.718492943023975" lon="10.021678989460026"><ele>680.0</ele><time>2026-04-11T14:52:46.003Z</time></trkpt><trkpt lat="45.71845578012979" lon="10.021529574045173"><ele>681.6</ele><time>2026-04-11T14:52:47.003Z</time></trkpt><trkpt lat="45.718430020802046" lon="10.021411423210221"><ele>683.2</ele><time>2026-04-11T14:52:48.003Z</time></trkpt><trkpt lat="45.71840715091197" lon="10.021282226179128"><ele>684.8</ele><time>2026-04-11T14:52:49.003Z</time></trkpt><trkpt lat="45.71838290806869" lon="10.02113506397165"><ele>686.4</ele><time>2026-04-11T14:52:50.003Z</time></trkpt><trkpt lat="45.718360874898984" lon="10.020994172332845"><ele>688.0</ele><time>2026-04-11T14:52:51.003Z</time></trkpt><trkpt lat="45.71834155874964" lon="10.020854071168776"><ele>686.8</ele><time>2026-04-11T14:52:52.003Z</time></trkpt><trkpt lat="45.71833162909927" lon="10.020716719625065"><ele>685.5999999999999</ele><time>2026-04-11T14:52:53.003Z</time></trkpt><trkpt lat="45.71832631499828" lon="10.020572829621571"><ele>684.4000000000001</ele><time>2026-04-11T14:52:54.003Z</time></trkpt><trkpt lat="45.71833012747278" lon="10.02042914583929"><ele>683.2</ele><time>2026-04-11T14:52:55.003Z</time></trkpt><trkpt lat="45.71834232422381" lon="10.020283809390802"><ele>682.0</ele><time>2026-04-11T14:52:56.003Z</time></trkpt><trkpt lat="45.718361714298645" lon="10.020135610168447"><ele>681.0</ele><time>2026-04-11T14:52:57.003Z</time></trkpt><trkpt lat="45.71838983889286" lon="10.019971500583559"><ele>680.0</ele><time>2026-04-11T14:52:58.003Z</time></trkpt><trkpt lat="45.718413961535255" lon="10.019798716328083"><ele>679.0</ele><time>2026-04-11T14:52:59.003Z</time></trkpt><trkpt lat="45.7184460674253" lon="10.01962801978646"><ele>678.0</ele><time>2026-04-11T14:53:00.003Z</time></trkpt><trkpt lat="45.718483641255254" lon="10.01946685635571"><ele>678.0</ele><time>2026-04-11T14:53:01.003Z</time></trkpt><trkpt lat="45.71853171965849" lon="10.019322737446872"><ele>678.0</ele><time>2026-04-11T14:53:02.003Z</time></trkpt><trkpt lat="45.718565908680354" lon="10.019188056065357"><ele>678.0</ele><time>2026-04-11T14:53:03.003Z</time></trkpt><trkpt lat="45.71860265901447" lon="10.019061301944644"><ele>678.0</ele><time>2026-04-11T14:53:04.003Z</time></trkpt><trkpt lat="45.71864091066467" lon="10.018953349601325"><ele>678.0</ele><time>2026-04-11T14:53:05.003Z</time></trkpt><trkpt lat="45.71869683211135" lon="10.018857987754387"><ele>681.8</ele><time>2026-04-11T14:53:06.003Z</time></trkpt><trkpt lat="45.7187745344466" lon="10.018793084286758"><ele>685.5999999999999</ele><time>2026-04-11T14:53:07.003Z</time></trkpt><trkpt lat="45.718864812349196" lon="10.018733483809763"><ele>689.4000000000001</ele><time>2026-04-11T14:53:08.003Z</time></trkpt><trkpt lat="45.71896424608133" lon="10.018661940926565"><ele>693.2</ele><time>2026-04-11T14:53:09.003Z</time></trkpt><trkpt lat="45.7190570707877" lon="10.018556541803859"><ele>697.0</ele><time>2026-04-11T14:53:10.003Z</time></trkpt><trkpt lat="45.71911418683631" lon="10.018383027502964"><ele>693.25</ele><time>2026-04-11T14:53:11.003Z</time></trkpt><trkpt lat="45.719201988222075" lon="10.01824277440505"><ele>689.5</ele><time>2026-04-11T14:53:12.003Z</time></trkpt><trkpt lat="45.71928726786047" lon="10.01809584852049"><ele>685.75</ele><time>2026-04-11T14:53:13.003Z</time></trkpt><trkpt lat="45.719376856864315" lon="10.017953213277247"><ele>682.0</ele><time>2026-04-11T14:53:14.003Z</time></trkpt><trkpt lat="45.719474807082555" lon="10.017791654080861"><ele>689.0</ele><time>2026-04-11T14:53:15.003Z</time></trkpt><trkpt lat="45.71958099403988" lon="10.017639340672002"><ele>696.0</ele><time>2026-04-11T14:53:16.003Z</time></trkpt><trkpt lat="45.719678938287835" lon="10.017461018724337"><ele>703.0</ele><time>2026-04-11T14:53:17.003Z</time></trkpt><trkpt lat="45.7197796158328" lon="10.017298387622304"><ele>703.0</ele><time>2026-04-11T14:53:18.003Z</time></trkpt><trkpt lat="45.71987944482594" lon="10.017135007474872"><ele>703.0</ele><time>2026-04-11T14:53:19.003Z</time></trkpt><trkpt lat="45.719986558823614" lon="10.016986353907058"><ele>703.0</ele><time>2026-04-11T14:53:20.003Z</time></trkpt><trkpt lat="45.720076555865205" lon="10.016817197642675"><ele>703.0</ele><time>2026-04-11T14:53:21.003Z</time></trkpt><trkpt lat="45.72015370492746" lon="10.016668242248612"><ele>702.4</ele><time>2026-04-11T14:53:22.003Z</time></trkpt><trkpt lat="45.72021600515433" lon="10.016535136205228"><ele>701.8</ele><time>2026-04-11T14:53:23.003Z</time></trkpt><trkpt lat="45.720261481686734" lon="10.0164072952413"><ele>701.2</ele><time>2026-04-11T14:53:24.003Z</time></trkpt><trkpt lat="45.72028915680437" lon="10.016271251779214"><ele>700.6</ele><time>2026-04-11T14:53:25.003Z</time></trkpt><trkpt lat="45.720287075970155" lon="10.016163969281696"><ele>700.0</ele><time>2026-04-11T14:53:26.001Z</time></trkpt><trkpt lat="45.72027313477646" lon="10.016062721875095"><ele>700.5</ele><time>2026-04-11T14:53:27.001Z</time></trkpt><trkpt lat="45.720282955094106" lon="10.015916089318134"><ele>701.0</ele><time>2026-04-11T14:53:29.001Z</time></trkpt><trkpt lat="45.720325308944155" lon="10.015787646382652"><ele>701.5</ele><time>2026-04-11T14:53:30.001Z</time></trkpt><trkpt lat="45.72037515616595" lon="10.015702424329005"><ele>702.0</ele><time>2026-04-11T14:53:31.001Z</time></trkpt><trkpt lat="45.720437170544706" lon="10.015634980661677"><ele>702.5</ele><time>2026-04-11T14:53:32.001Z</time></trkpt><trkpt lat="45.72050883048502" lon="10.015587435891769"><ele>703.0</ele><time>2026-04-11T14:53:33.001Z</time></trkpt><trkpt lat="45.720578733976026" lon="10.015566212652185"><ele>703.0</ele><time>2026-04-11T14:53:34.001Z</time></trkpt><trkpt lat="45.72064832621251" lon="10.015554805906033"><ele>703.0</ele><time>2026-04-11T14:53:35.001Z</time></trkpt><trkpt lat="45.72072536657748" lon="10.015540770601845"><ele>703.0</ele><time>2026-04-11T14:53:36.001Z</time></trkpt><trkpt lat="45.7208083336662" lon="10.015516965468318"><ele>703.0</ele><time>2026-04-11T14:53:37.001Z</time></trkpt><trkpt lat="45.72089200189852" lon="10.015460052555845"><ele>703.0</ele><time>2026-04-11T14:53:38.001Z</time></trkpt><trkpt lat="45.720980694321476" lon="10.015380366290458"><ele>703.0</ele><time>2026-04-11T14:53:39.001Z</time></trkpt><trkpt lat="45.721079849015666" lon="10.015314357309439"><ele>701.5999999999999</ele><time>2026-04-11T14:53:40.001Z</time></trkpt><trkpt lat="45.72116987885576" lon="10.0152458043605"><ele>700.1999999999999</ele><time>2026-04-11T14:53:41.001Z</time></trkpt><trkpt lat="45.721264099803" lon="10.015176777937494"><ele>698.8</ele><time>2026-04-11T14:53:42.001Z</time></trkpt><trkpt lat="45.721360310253345" lon="10.015082159250031"><ele>697.4</ele><time>2026-04-11T14:53:43.001Z</time></trkpt><trkpt lat="45.721471606336735" lon="10.015043764046027"><ele>696.0</ele><time>2026-04-11T14:53:44.001Z</time></trkpt><trkpt lat="45.7215732308085" lon="10.014961974316561"><ele>696.0</ele><time>2026-04-11T14:53:45.001Z</time></trkpt><trkpt lat="45.721677797671965" lon="10.014868173447713"><ele>696.0</ele><time>2026-04-11T14:53:46.001Z</time></trkpt><trkpt lat="45.72178268789235" lon="10.014796600429223"><ele>696.0</ele><time>2026-04-11T14:53:47.001Z</time></trkpt><trkpt lat="45.72188659918065" lon="10.01473209446826"><ele>696.0</ele><time>2026-04-11T14:53:48.001Z</time></trkpt><trkpt lat="45.72197773116737" lon="10.01468567852751"><ele>701.5</ele><time>2026-04-11T14:53:49.001Z</time></trkpt><trkpt lat="45.72209643592131" lon="10.014704826634244"><ele>707.0</ele><time>2026-04-11T14:53:50.001Z</time></trkpt><trkpt lat="45.72221233852672" lon="10.014682476098466"><ele>712.5</ele><time>2026-04-11T14:53:51.001Z</time></trkpt><trkpt lat="45.72232131757356" lon="10.014636654984832"><ele>718.0</ele><time>2026-04-11T14:53:52.001Z</time></trkpt><trkpt lat="45.72241749611408" lon="10.0145516018217"><ele>718.0</ele><time>2026-04-11T14:53:53.001Z</time></trkpt><trkpt lat="45.72252633975179" lon="10.014512542613955"><ele>718.0</ele><time>2026-04-11T14:53:54.001Z</time></trkpt><trkpt lat="45.72261805941124" lon="10.01445587727388"><ele>718.0</ele><time>2026-04-11T14:53:55.001Z</time></trkpt><trkpt lat="45.72271264348792" lon="10.014411244990614"><ele>718.0</ele><time>2026-04-11T14:53:56.001Z</time></trkpt><trkpt lat="45.72280147800319" lon="10.014367374192304"><ele>718.0</ele><time>2026-04-11T14:53:57.001Z</time></trkpt><trkpt lat="45.722869377445654" lon="10.014326224791452"><ele>724.6666666666667</ele><time>2026-04-11T14:53:58.001Z</time></trkpt><trkpt lat="45.722914700562576" lon="10.014225598017255"><ele>731.3333333333334</ele><time>2026-04-11T14:53:59.001Z</time></trkpt><trkpt lat="45.72293125833129" lon="10.014090988171198"><ele>738.0</ele><time>2026-04-11T14:54:00.001Z</time></trkpt><trkpt lat="45.72290925134875" lon="10.01396502055914"><ele>744.6666666666666</ele><time>2026-04-11T14:54:01.001Z</time></trkpt><trkpt lat="45.722873445950604" lon="10.013842617824093"><ele>751.3333333333333</ele><time>2026-04-11T14:54:02.001Z</time></trkpt><trkpt lat="45.722826283577334" lon="10.013749880075135"><ele>758.0</ele><time>2026-04-11T14:54:03.001Z</time></trkpt><trkpt lat="45.72280385147989" lon="10.013642473563669"><ele>758.0</ele><time>2026-04-11T14:54:04.001Z</time></trkpt><trkpt lat="45.7227987843769" lon="10.013539107731871"><ele>758.0</ele><time>2026-04-11T14:54:05.001Z</time></trkpt><trkpt lat="45.72281423943243" lon="10.013414643138088"><ele>758.0</ele><time>2026-04-11T14:54:06.001Z</time></trkpt><trkpt lat="45.72284080120405" lon="10.013284107480322"><ele>758.0</ele><time>2026-04-11T14:54:07.001Z</time></trkpt><trkpt lat="45.72285361466929" lon="10.013132340267079"><ele>758.0</ele><time>2026-04-11T14:54:08.001Z</time></trkpt><trkpt lat="45.72284307302823" lon="10.012989027177786"><ele>759.2</ele><time>2026-04-11T14:54:09.001Z</time></trkpt><trkpt lat="45.72283567386583" lon="10.012849842056934"><ele>760.4</ele><time>2026-04-11T14:54:10.001Z</time></trkpt><trkpt lat="45.72281904669203" lon="10.012705658986532"><ele>761.6</ele><time>2026-04-11T14:54:11.001Z</time></trkpt><trkpt lat="45.72278543934915" lon="10.0125697750662"><ele>762.8000000000001</ele><time>2026-04-11T14:54:12.001Z</time></trkpt><trkpt lat="45.72273379991965" lon="10.01244414848567"><ele>764.0</ele><time>2026-04-11T14:54:13.001Z</time></trkpt><trkpt lat="45.722668018792696" lon="10.012334373130567"><ele>759.1666666666666</ele><time>2026-04-11T14:54:14.001Z</time></trkpt><trkpt lat="45.72260723271675" lon="10.012239484100066"><ele>754.3333333333333</ele><time>2026-04-11T14:54:15.001Z</time></trkpt><trkpt lat="45.72255254425913" lon="10.012143672433293"><ele>749.5</ele><time>2026-04-11T14:54:16.001Z</time></trkpt><trkpt lat="45.72251648441402" lon="10.01203883716873"><ele>744.6666666666666</ele><time>2026-04-11T14:54:17.001Z</time></trkpt><trkpt lat="45.72250885908644" lon="10.011936416309718"><ele>739.8333333333334</ele><time>2026-04-11T14:54:18.001Z</time></trkpt><trkpt lat="45.72253086106257" lon="10.011847154524709"><ele>735.0</ele><time>2026-04-11T14:54:19.001Z</time></trkpt><trkpt lat="45.722568860050906" lon="10.011759374643603"><ele>735.0</ele><time>2026-04-11T14:54:20.001Z</time></trkpt><trkpt lat="45.72262447103321" lon="10.011668093697688"><ele>735.0</ele><time>2026-04-11T14:54:21.001Z</time></trkpt><trkpt lat="45.722702209110984" lon="10.011578761755239"><ele>735.0</ele><time>2026-04-11T14:54:22.001Z</time></trkpt><trkpt lat="45.72277726397267" lon="10.011472963326822"><ele>735.0</ele><time>2026-04-11T14:54:23.001Z</time></trkpt><trkpt lat="45.722848923456226" lon="10.01136319401612"><ele>735.0</ele><time>2026-04-11T14:54:24.001Z</time></trkpt><trkpt lat="45.72291439966535" lon="10.011224864000472"><ele>738.0</ele><time>2026-04-11T14:54:25.001Z</time></trkpt><trkpt lat="45.72296596927512" lon="10.011059686703907"><ele>741.0</ele><time>2026-04-11T14:54:26.001Z</time></trkpt><trkpt lat="45.722996739281534" lon="10.010893130808018"><ele>744.0</ele><time>2026-04-11T14:54:27.001Z</time></trkpt><trkpt lat="45.72307139626065" lon="10.01076100244301"><ele>747.0</ele><time>2026-04-11T14:54:28.001Z</time></trkpt><trkpt lat="45.72313461064119" lon="10.010608377019738"><ele>747.0</ele><time>2026-04-11T14:54:29.001Z</time></trkpt><trkpt lat="45.723224462287924" lon="10.010454977397853"><ele>747.0</ele><time>2026-04-11T14:54:30.001Z</time></trkpt><trkpt lat="45.72331202018413" lon="10.010294217177554"><ele>747.0</ele><time>2026-04-11T14:54:31.001Z</time></trkpt><trkpt lat="45.72339068078495" lon="10.01014209262873"><ele>747.0</ele><time>2026-04-11T14:54:32.001Z</time></trkpt><trkpt lat="45.72347085317721" lon="10.009997135104786"><ele>749.5</ele><time>2026-04-11T14:54:33.001Z</time></trkpt><trkpt lat="45.72355816581568" lon="10.009863144347761"><ele>752.0</ele><time>2026-04-11T14:54:34.001Z</time></trkpt><trkpt lat="45.723648286556696" lon="10.009741024827932"><ele>754.5</ele><time>2026-04-11T14:54:35.001Z</time></trkpt><trkpt lat="45.72373205121338" lon="10.009627891734768"><ele>757.0</ele><time>2026-04-11T14:54:36.001Z</time></trkpt><trkpt lat="45.72380370872718" lon="10.009526181875064"><ele>757.0</ele><time>2026-04-11T14:54:37.001Z</time></trkpt><trkpt lat="45.72386622135008" lon="10.009440915812291"><ele>757.0</ele><time>2026-04-11T14:54:38.001Z</time></trkpt><trkpt lat="45.72393519548422" lon="10.009367923963042"><ele>757.0</ele><time>2026-04-11T14:54:39.001Z</time></trkpt><trkpt lat="45.724015001837195" lon="10.009315699185905"><ele>757.0</ele><time>2026-04-11T14:54:40.001Z</time></trkpt><trkpt lat="45.7240989297769" lon="10.009290009334046"><ele>757.0</ele><time>2026-04-11T14:54:41.001Z</time></trkpt><trkpt lat="45.72418828699237" lon="10.009285918304423"><ele>757.0</ele><time>2026-04-11T14:54:42.001Z</time></trkpt><trkpt lat="45.724278687786736" lon="10.00929641423073"><ele>757.0</ele><time>2026-04-11T14:54:43.001Z</time></trkpt><trkpt lat="45.72436255291215" lon="10.009297829997255"><ele>757.0</ele><time>2026-04-11T14:54:44.001Z</time></trkpt><trkpt lat="45.72444521849239" lon="10.009298361051309"><ele>757.0</ele><time>2026-04-11T14:54:45.001Z</time></trkpt><trkpt lat="45.72452328874717" lon="10.009293932534385"><ele>757.0</ele><time>2026-04-11T14:54:46.001Z</time></trkpt><trkpt lat="45.724608445870075" lon="10.009289947742456"><ele>757.0</ele><time>2026-04-11T14:54:47.001Z</time></trkpt><trkpt lat="45.724687034099006" lon="10.009298642115088"><ele>757.0</ele><time>2026-04-11T14:54:48.001Z</time></trkpt><trkpt lat="45.72477083537856" lon="10.009347996614023"><ele>756.6</ele><time>2026-04-11T14:54:49.001Z</time></trkpt><trkpt lat="45.724855760726605" lon="10.009400927761018"><ele>756.2</ele><time>2026-04-11T14:54:50.001Z</time></trkpt><trkpt lat="45.72494990771819" lon="10.009467462723938"><ele>755.8</ele><time>2026-04-11T14:54:51.001Z</time></trkpt><trkpt lat="45.72505111365187" lon="10.009549176010054"><ele>755.4</ele><time>2026-04-11T14:54:52.001Z</time></trkpt><trkpt lat="45.72515525548584" lon="10.009637086159977"><ele>755.0</ele><time>2026-04-11T14:54:53.001Z</time></trkpt><trkpt lat="45.72525927252803" lon="10.009726476497104"><ele>755.2</ele><time>2026-04-11T14:54:54.001Z</time></trkpt><trkpt lat="45.725349735496565" lon="10.00979572729759"><ele>755.4</ele><time>2026-04-11T14:54:55.001Z</time></trkpt><trkpt lat="45.72541349392082" lon="10.009844537462925"><ele>755.5999999999999</ele><time>2026-04-11T14:54:56.001Z</time></trkpt><trkpt lat="45.72548149349635" lon="10.009898166211553"><ele>755.8</ele><time>2026-04-11T14:54:57.001Z</time></trkpt><trkpt lat="45.7255608700706" lon="10.009963919805843"><ele>756.0</ele><time>2026-04-11T14:54:59.001Z</time></trkpt><trkpt lat="45.72566172253595" lon="10.01005983675494"><ele>756.0</ele><time>2026-04-11T14:55:01.001Z</time></trkpt><trkpt lat="45.725724418421976" lon="10.010136271015986"><ele>756.0</ele><time>2026-04-11T14:55:02.001Z</time></trkpt><trkpt lat="45.725778654938665" lon="10.010234684236714"><ele>756.0</ele><time>2026-04-11T14:55:03.002Z</time></trkpt><trkpt lat="45.72583495519569" lon="10.010341723670013"><ele>756.0</ele><time>2026-04-11T14:55:04.002Z</time></trkpt><trkpt lat="45.72587623127592" lon="10.010452501873385"><ele>756.0</ele><time>2026-04-11T14:55:05.002Z</time></trkpt><trkpt lat="45.72590434481175" lon="10.010572620263828"><ele>756.0</ele><time>2026-04-11T14:55:06.002Z</time></trkpt><trkpt lat="45.725936514185854" lon="10.010685776869163"><ele>756.0</ele><time>2026-04-11T14:55:07.002Z</time></trkpt><trkpt lat="45.725944586254165" lon="10.010797378797232"><ele>756.0</ele><time>2026-04-11T14:55:08.002Z</time></trkpt><trkpt lat="45.72595925315275" lon="10.010894601569252"><ele>756.0</ele><time>2026-04-11T14:55:09.002Z</time></trkpt><trkpt lat="45.72603346823004" lon="10.011010248236568"><ele>756.0</ele><time>2026-04-11T14:55:11.002Z</time></trkpt><trkpt lat="45.72610803864732" lon="10.010980971627571"><ele>756.0</ele><time>2026-04-11T14:55:12.002Z</time></trkpt><trkpt lat="45.72617166413272" lon="10.01098313776422"><ele>756.0</ele><time>2026-04-11T14:55:13.002Z</time></trkpt><trkpt lat="45.72621310502" lon="10.010811721245224"><ele>757.1999999999999</ele><time>2026-04-11T14:55:14.002Z</time></trkpt><trkpt lat="45.72624744309457" lon="10.010690753243106"><ele>758.4</ele><time>2026-04-11T14:55:15.002Z</time></trkpt><trkpt lat="45.72630597227563" lon="10.010570167036697"><ele>759.6</ele><time>2026-04-11T14:55:16.002Z</time></trkpt><trkpt lat="45.72637484740515" lon="10.010441007062312"><ele>760.8</ele><time>2026-04-11T14:55:17.002Z</time></trkpt><trkpt lat="45.72643787847488" lon="10.01030036349028"><ele>762.0</ele><time>2026-04-11T14:55:18.002Z</time></trkpt><trkpt lat="45.726500908106864" lon="10.01014589050787"><ele>760.25</ele><time>2026-04-11T14:55:19.002Z</time></trkpt><trkpt lat="45.726559722364314" lon="10.009977582331286"><ele>758.5</ele><time>2026-04-11T14:55:20.002Z</time></trkpt><trkpt lat="45.72661390961582" lon="10.009806408347869"><ele>756.75</ele><time>2026-04-11T14:55:21.002Z</time></trkpt><trkpt lat="45.726628443044575" lon="10.00963183483828"><ele>755.0</ele><time>2026-04-11T14:55:22.002Z</time></trkpt><trkpt lat="45.726658263466106" lon="10.009454838317783"><ele>755.0</ele><time>2026-04-11T14:55:23.002Z</time></trkpt><trkpt lat="45.72668428253904" lon="10.009294765518145"><ele>755.0</ele><time>2026-04-11T14:55:24.002Z</time></trkpt><trkpt lat="45.726701953031984" lon="10.009143534332097"><ele>755.0</ele><time>2026-04-11T14:55:25.002Z</time></trkpt><trkpt lat="45.72671358000319" lon="10.009001713449274"><ele>755.0</ele><time>2026-04-11T14:55:26.002Z</time></trkpt><trkpt lat="45.726724267356325" lon="10.00886983381348"><ele>755.0</ele><time>2026-04-11T14:55:27.002Z</time></trkpt><trkpt lat="45.726745808980105" lon="10.008742531279534"><ele>756.6</ele><time>2026-04-11T14:55:28.002Z</time></trkpt><trkpt lat="45.726777728035046" lon="10.008606086592692"><ele>758.2</ele><time>2026-04-11T14:55:29.002Z</time></trkpt><trkpt lat="45.72682595268812" lon="10.008470431040914"><ele>759.8</ele><time>2026-04-11T14:55:30.002Z</time></trkpt><trkpt lat="45.726868781736385" lon="10.008341310972735"><ele>761.4</ele><time>2026-04-11T14:55:31.002Z</time></trkpt><trkpt lat="45.726914831075405" lon="10.008192060485225"><ele>763.0</ele><time>2026-04-11T14:55:32Z</time></trkpt><trkpt lat="45.72695852521205" lon="10.008046984392184"><ele>763.0</ele><time>2026-04-11T14:55:33Z</time></trkpt><trkpt lat="45.72699728101418" lon="10.007897020256808"><ele>763.0</ele><time>2026-04-11T14:55:34Z</time></trkpt><trkpt lat="45.72703728304643" lon="10.007750461658988"><ele>763.0</ele><time>2026-04-11T14:55:35Z</time></trkpt><trkpt lat="45.727090207645965" lon="10.007599327087396"><ele>763.0</ele><time>2026-04-11T14:55:36Z</time></trkpt><trkpt lat="45.727134448540426" lon="10.00748454805172"><ele>763.0</ele><time>2026-04-11T14:55:37Z</time></trkpt><trkpt lat="45.72718602401226" lon="10.007364650402677"><ele>759.4</ele><time>2026-04-11T14:55:38Z</time></trkpt><trkpt lat="45.72724807676326" lon="10.00724797323738"><ele>755.8</ele><time>2026-04-11T14:55:39Z</time></trkpt><trkpt lat="45.727314916799834" lon="10.00714037642841"><ele>752.2</ele><time>2026-04-11T14:55:40Z</time></trkpt><trkpt lat="45.72739023102619" lon="10.00704711924488"><ele>748.6</ele><time>2026-04-11T14:55:41Z</time></trkpt><trkpt lat="45.72747800729005" lon="10.00696427146422"><ele>745.0</ele><time>2026-04-11T14:55:42Z</time></trkpt><trkpt lat="45.72757472759872" lon="10.006873055253276"><ele>745.0</ele><time>2026-04-11T14:55:43Z</time></trkpt><trkpt lat="45.72766473160844" lon="10.006784498625256"><ele>745.0</ele><time>2026-04-11T14:55:44Z</time></trkpt><trkpt lat="45.72775734107715" lon="10.006686905470298"><ele>745.0</ele><time>2026-04-11T14:55:45Z</time></trkpt><trkpt lat="45.72785301200108" lon="10.006583217541017"><ele>745.0</ele><time>2026-04-11T14:55:46Z</time></trkpt><trkpt lat="45.72794662405673" lon="10.006488224218437"><ele>744.6</ele><time>2026-04-11T14:55:47Z</time></trkpt><trkpt lat="45.72803871854175" lon="10.006392374142706"><ele>744.2</ele><time>2026-04-11T14:55:48Z</time></trkpt><trkpt lat="45.728124697713" lon="10.006299207349652"><ele>743.8</ele><time>2026-04-11T14:55:49Z</time></trkpt><trkpt lat="45.728215351799655" lon="10.006238522721976"><ele>743.4</ele><time>2026-04-11T14:55:50Z</time></trkpt><trkpt lat="45.72828939931145" lon="10.006149042105434"><ele>743.0</ele><time>2026-04-11T14:55:51Z</time></trkpt><trkpt lat="45.72837405331163" lon="10.006094066563643"><ele>743.0</ele><time>2026-04-11T14:55:52Z</time></trkpt><trkpt lat="45.72846414745523" lon="10.006054449128811"><ele>743.0</ele><time>2026-04-11T14:55:53Z</time></trkpt><trkpt lat="45.72856382395804" lon="10.006026926127738"><ele>743.0</ele><time>2026-04-11T14:55:54Z</time></trkpt><trkpt lat="45.72866907792931" lon="10.006011011827178"><ele>743.0</ele><time>2026-04-11T14:55:55Z</time></trkpt><trkpt lat="45.72878270289014" lon="10.005986768702137"><ele>743.0</ele><time>2026-04-11T14:55:56Z</time></trkpt><trkpt lat="45.728891589823974" lon="10.005958945164831"><ele>745.0</ele><time>2026-04-11T14:55:57Z</time></trkpt><trkpt lat="45.729012266999526" lon="10.005901948386109"><ele>747.0</ele><time>2026-04-11T14:55:58Z</time></trkpt><trkpt lat="45.72912646674171" lon="10.005845376153687"><ele>749.0</ele><time>2026-04-11T14:55:59.001Z</time></trkpt><trkpt lat="45.729239105976966" lon="10.005798050808044"><ele>751.0</ele><time>2026-04-11T14:56:00.001Z</time></trkpt><trkpt lat="45.729363748503395" lon="10.00577653011005"><ele>746.75</ele><time>2026-04-11T14:56:01.001Z</time></trkpt><trkpt lat="45.72948814565417" lon="10.00573128822375"><ele>742.5</ele><time>2026-04-11T14:56:02.001Z</time></trkpt><trkpt lat="45.72960619091991" lon="10.005688174404861"><ele>738.25</ele><time>2026-04-11T14:56:03.001Z</time></trkpt><trkpt lat="45.7297180523263" lon="10.005645180288964"><ele>734.0</ele><time>2026-04-11T14:56:04.001Z</time></trkpt><trkpt lat="45.72982122295818" lon="10.005597512864062"><ele>734.0</ele><time>2026-04-11T14:56:05.001Z</time></trkpt><trkpt lat="45.729970701717896" lon="10.005568175771055"><ele>734.0</ele><time>2026-04-11T14:56:06.001Z</time></trkpt><trkpt lat="45.73007381195054" lon="10.005512195057019"><ele>734.0</ele><time>2026-04-11T14:56:07.001Z</time></trkpt><trkpt lat="45.730177061369915" lon="10.005459427674877"><ele>734.0</ele><time>2026-04-11T14:56:08.001Z</time></trkpt><trkpt lat="45.730273815282054" lon="10.005409747271713"><ele>735.0</ele><time>2026-04-11T14:56:09.001Z</time></trkpt><trkpt lat="45.73036451252762" lon="10.00535508288046"><ele>736.0</ele><time>2026-04-11T14:56:10.001Z</time></trkpt><trkpt lat="45.730455034881004" lon="10.00531070105165"><ele>737.0</ele><time>2026-04-11T14:56:11.001Z</time></trkpt><trkpt lat="45.73055541558076" lon="10.005274887063845"><ele>738.0</ele><time>2026-04-11T14:56:12.001Z</time></trkpt><trkpt lat="45.73065952101423" lon="10.005254892466652"><ele>739.0</ele><time>2026-04-11T14:56:13.001Z</time></trkpt><trkpt lat="45.73076860798871" lon="10.00524562087107"><ele>739.0</ele><time>2026-04-11T14:56:14.001Z</time></trkpt><trkpt lat="45.73088131614723" lon="10.005239086699664"><ele>739.0</ele><time>2026-04-11T14:56:15.001Z</time></trkpt><trkpt lat="45.73100294179856" lon="10.005235691202895"><ele>739.0</ele><time>2026-04-11T14:56:16.001Z</time></trkpt><trkpt lat="45.731135364011124" lon="10.00523084816016"><ele>739.0</ele><time>2026-04-11T14:56:17.001Z</time></trkpt><trkpt lat="45.73127389174971" lon="10.005231223827847"><ele>737.5</ele><time>2026-04-11T14:56:18.001Z</time></trkpt><trkpt lat="45.73141483008542" lon="10.00522977767686"><ele>736.0</ele><time>2026-04-11T14:56:19.001Z</time></trkpt><trkpt lat="45.73156065416097" lon="10.005234322638543"><ele>734.5</ele><time>2026-04-11T14:56:20.001Z</time></trkpt><trkpt lat="45.731701896275176" lon="10.005238794290047"><ele>733.0</ele><time>2026-04-11T14:56:21.001Z</time></trkpt><trkpt lat="45.73184600338674" lon="10.005243202165335"><ele>732.75</ele><time>2026-04-11T14:56:22.001Z</time></trkpt><trkpt lat="45.73198497571887" lon="10.005242184217884"><ele>732.5</ele><time>2026-04-11T14:56:23.001Z</time></trkpt><trkpt lat="45.73212231299191" lon="10.005234859616833"><ele>732.25</ele><time>2026-04-11T14:56:24.001Z</time></trkpt><trkpt lat="45.73225315313969" lon="10.005231718574056"><ele>732.0</ele><time>2026-04-11T14:56:25.001Z</time></trkpt><trkpt lat="45.7323765817944" lon="10.00523671463092"><ele>732.0</ele><time>2026-04-11T14:56:26.001Z</time></trkpt><trkpt lat="45.732496373386994" lon="10.005255805922056"><ele>732.0</ele><time>2026-04-11T14:56:27.001Z</time></trkpt><trkpt lat="45.73260256753646" lon="10.005292465314657"><ele>732.0</ele><time>2026-04-11T14:56:28.001Z</time></trkpt><trkpt lat="45.73270519240982" lon="10.005361450707728"><ele>732.0</ele><time>2026-04-11T14:56:29.001Z</time></trkpt><trkpt lat="45.7327936600866" lon="10.005369874402014"><ele>732.0</ele><time>2026-04-11T14:56:30.001Z</time></trkpt><trkpt lat="45.732876717597776" lon="10.005351161071108"><ele>733.6</ele><time>2026-04-11T14:56:31.001Z</time></trkpt><trkpt lat="45.732962624985554" lon="10.005302364182134"><ele>735.2</ele><time>2026-04-11T14:56:32.001Z</time></trkpt><trkpt lat="45.7330487952057" lon="10.005250075761587"><ele>736.8</ele><time>2026-04-11T14:56:33.001Z</time></trkpt><trkpt lat="45.73313233939444" lon="10.005203978500457"><ele>738.4</ele><time>2026-04-11T14:56:34.001Z</time></trkpt><trkpt lat="45.733216113835965" lon="10.005190655198573"><ele>740.0</ele><time>2026-04-11T14:56:35.001Z</time></trkpt><trkpt lat="45.733308252030426" lon="10.005213950207915"><ele>740.0</ele><time>2026-04-11T14:56:36.001Z</time></trkpt><trkpt lat="45.73339617719424" lon="10.005254393955425"><ele>740.0</ele><time>2026-04-11T14:56:37.001Z</time></trkpt><trkpt lat="45.733489448463054" lon="10.00531597660835"><ele>740.0</ele><time>2026-04-11T14:56:38.001Z</time></trkpt><trkpt lat="45.733586634934284" lon="10.005390751823713"><ele>740.0</ele><time>2026-04-11T14:56:39.001Z</time></trkpt><trkpt lat="45.73368236728179" lon="10.005478246886327"><ele>740.0</ele><time>2026-04-11T14:56:40.001Z</time></trkpt><trkpt lat="45.733785815898365" lon="10.005563755312664"><ele>740.0</ele><time>2026-04-11T14:56:41.001Z</time></trkpt><trkpt lat="45.73388896598525" lon="10.005640410383423"><ele>740.0</ele><time>2026-04-11T14:56:42.001Z</time></trkpt><trkpt lat="45.733992545109956" lon="10.005702157627791"><ele>740.0</ele><time>2026-04-11T14:56:43.001Z</time></trkpt><trkpt lat="45.73408987054112" lon="10.005765510268882"><ele>740.0</ele><time>2026-04-11T14:56:44.001Z</time></trkpt><trkpt lat="45.73417222368522" lon="10.005850549124862"><ele>740.0</ele><time>2026-04-11T14:56:45.001Z</time></trkpt><trkpt lat="45.734236329784856" lon="10.005945969450202"><ele>741.8571428571428</ele><time>2026-04-11T14:56:46.001Z</time></trkpt><trkpt lat="45.73428600309882" lon="10.006046451192253"><ele>743.7142857142857</ele><time>2026-04-11T14:56:47.001Z</time></trkpt><trkpt lat="45.734322256426076" lon="10.006136486868566"><ele>745.5714285714286</ele><time>2026-04-11T14:56:48.001Z</time></trkpt><trkpt lat="45.73436545479776" lon="10.006204245108744"><ele>747.4285714285713</ele><time>2026-04-11T14:56:49.001Z</time></trkpt><trkpt lat="45.734422485308535" lon="10.006245928417352"><ele>749.2857142857143</ele><time>2026-04-11T14:56:50.001Z</time></trkpt><trkpt lat="45.73448439811584" lon="10.006224990094848"><ele>751.1428571428571</ele><time>2026-04-11T14:56:51.001Z</time></trkpt><trkpt lat="45.73454220620944" lon="10.006151417718057"><ele>753.0</ele><time>2026-04-11T14:56:52.001Z</time></trkpt><trkpt lat="45.734605069854524" lon="10.005985112109084"><ele>754.0</ele><time>2026-04-11T14:56:54.001Z</time></trkpt><trkpt lat="45.734613943401975" lon="10.005875965098982"><ele>755.0</ele><time>2026-04-11T14:56:55.001Z</time></trkpt><trkpt lat="45.734623870092115" lon="10.005772501771636"><ele>756.0</ele><time>2026-04-11T14:56:56.001Z</time></trkpt><trkpt lat="45.73464609971555" lon="10.00568350312622"><ele>757.0</ele><time>2026-04-11T14:56:57.001Z</time></trkpt><trkpt lat="45.73470064913312" lon="10.005616558037055"><ele>758.0</ele><time>2026-04-11T14:56:58.001Z</time></trkpt><trkpt lat="45.73476903930588" lon="10.005590206127286"><ele>759.0</ele><time>2026-04-11T14:56:59.001Z</time></trkpt><trkpt lat="45.734856423753584" lon="10.005561526779047"><ele>760.0</ele><time>2026-04-11T14:57:00.001Z</time></trkpt><trkpt lat="45.73494993148939" lon="10.005517280857383"><ele>760.0</ele><time>2026-04-11T14:57:01.001Z</time></trkpt><trkpt lat="45.73503989920414" lon="10.005445056635876"><ele>760.0</ele><time>2026-04-11T14:57:02.001Z</time></trkpt><trkpt lat="45.73510651643202" lon="10.005338585326353"><ele>760.0</ele><time>2026-04-11T14:57:03.001Z</time></trkpt><trkpt lat="45.73514823957766" lon="10.005212926760903"><ele>760.0</ele><time>2026-04-11T14:57:04.001Z</time></trkpt><trkpt lat="45.73518095203235" lon="10.0050810877202"><ele>760.0</ele><time>2026-04-11T14:57:05.001Z</time></trkpt><trkpt lat="45.73523058914097" lon="10.004966095778236"><ele>763.2</ele><time>2026-04-11T14:57:06.001Z</time></trkpt><trkpt lat="45.73530692332273" lon="10.004854211885428"><ele>766.4</ele><time>2026-04-11T14:57:07.001Z</time></trkpt><trkpt lat="45.73539299933946" lon="10.00475066074988"><ele>769.5999999999999</ele><time>2026-04-11T14:57:08.001Z</time></trkpt><trkpt lat="45.735476767554786" lon="10.004639790200562"><ele>772.8</ele><time>2026-04-11T14:57:09.001Z</time></trkpt><trkpt lat="45.735555505397905" lon="10.004527023248192"><ele>776.0</ele><time>2026-04-11T14:57:10.001Z</time></trkpt><trkpt lat="45.73564301446994" lon="10.004434416619828"><ele>776.0</ele><time>2026-04-11T14:57:11.001Z</time></trkpt><trkpt lat="45.735736393035424" lon="10.004358223869579"><ele>776.0</ele><time>2026-04-11T14:57:12.001Z</time></trkpt><trkpt lat="45.735834530829706" lon="10.004291499072568"><ele>776.0</ele><time>2026-04-11T14:57:13.002Z</time></trkpt><trkpt lat="45.73593254959846" lon="10.004224655387322"><ele>776.0</ele><time>2026-04-11T14:57:14.002Z</time></trkpt><trkpt lat="45.736028323336605" lon="10.00414872702942"><ele>776.0</ele><time>2026-04-11T14:57:15.002Z</time></trkpt><trkpt lat="45.736113301902485" lon="10.004037676044252"><ele>777.0</ele><time>2026-04-11T14:57:16.002Z</time></trkpt><trkpt lat="45.736183080408004" lon="10.003901000372636"><ele>778.0</ele><time>2026-04-11T14:57:17.002Z</time></trkpt><trkpt lat="45.73624568857055" lon="10.003764150749378"><ele>779.0</ele><time>2026-04-11T14:57:18.002Z</time></trkpt><trkpt lat="45.736307599457945" lon="10.003641381807181"><ele>780.0</ele><time>2026-04-11T14:57:19.002Z</time></trkpt><trkpt lat="45.73638685290643" lon="10.00351780959346"><ele>780.0</ele><time>2026-04-11T14:57:20.002Z</time></trkpt><trkpt lat="45.73646539151178" lon="10.003390878174706"><ele>780.0</ele><time>2026-04-11T14:57:21.002Z</time></trkpt><trkpt lat="45.73654590466107" lon="10.003274079632224"><ele>780.0</ele><time>2026-04-11T14:57:22.002Z</time></trkpt><trkpt lat="45.73661646577039" lon="10.003150840225732"><ele>780.0</ele><time>2026-04-11T14:57:23.002Z</time></trkpt><trkpt lat="45.73668508595536" lon="10.00302877846806"><ele>779.4</ele><time>2026-04-11T14:57:24.002Z</time></trkpt><trkpt lat="45.736751719119376" lon="10.002903445840404"><ele>778.8</ele><time>2026-04-11T14:57:25.002Z</time></trkpt><trkpt lat="45.73681684137748" lon="10.002775510506765"><ele>778.2</ele><time>2026-04-11T14:57:26.002Z</time></trkpt><trkpt lat="45.73688323160521" lon="10.002651804267822"><ele>777.6</ele><time>2026-04-11T14:57:27.002Z</time></trkpt><trkpt lat="45.73694720611341" lon="10.002537297043773"><ele>777.0</ele><time>2026-04-11T14:57:28.002Z</time></trkpt><trkpt lat="45.73700945071689" lon="10.002427889828976"><ele>777.0</ele><time>2026-04-11T14:57:29.002Z</time></trkpt><trkpt lat="45.7370596891162" lon="10.002331037718944"><ele>777.0</ele><time>2026-04-11T14:57:30.002Z</time></trkpt><trkpt lat="45.73710666319678" lon="10.002245509407725"><ele>777.0</ele><time>2026-04-11T14:57:31.002Z</time></trkpt><trkpt lat="45.73714986346632" lon="10.002169494906772"><ele>777.0</ele><time>2026-04-11T14:57:32.002Z</time></trkpt><trkpt lat="45.73719521255766" lon="10.002086577669978"><ele>777.0</ele><time>2026-04-11T14:57:33.002Z</time></trkpt><trkpt lat="45.737241400699155" lon="10.00200649146583"><ele>777.0</ele><time>2026-04-11T14:57:34.002Z</time></trkpt><trkpt lat="45.73729695087966" lon="10.00193302294901"><ele>777.0</ele><time>2026-04-11T14:57:35.002Z</time></trkpt><trkpt lat="45.73735916148404" lon="10.001865545249936"><ele>777.0</ele><time>2026-04-11T14:57:36.002Z</time></trkpt><trkpt lat="45.73743033614965" lon="10.001806113597887"><ele>777.0</ele><time>2026-04-11T14:57:37.002Z</time></trkpt><trkpt lat="45.73750543504216" lon="10.001745535284995"><ele>777.0</ele><time>2026-04-11T14:57:38.001Z</time></trkpt><trkpt lat="45.73757858931909" lon="10.00169552827423"><ele>777.0</ele><time>2026-04-11T14:57:39.001Z</time></trkpt><trkpt lat="45.73763998226634" lon="10.001662773109823"><ele>777.0</ele><time>2026-04-11T14:57:40.001Z</time></trkpt><trkpt lat="45.737723993229" lon="10.001597976129357"><ele>779.2857142857143</ele><time>2026-04-11T14:57:42.001Z</time></trkpt><trkpt lat="45.73768295887513" lon="10.001540016648923"><ele>781.5714285714286</ele><time>2026-04-11T14:59:49Z</time></trkpt><trkpt lat="45.73761831746598" lon="10.00159404415248"><ele>783.8571428571429</ele><time>2026-04-11T14:59:53Z</time></trkpt><trkpt lat="45.73755996409605" lon="10.001657720595736"><ele>786.1428571428571</ele><time>2026-04-11T14:59:56Z</time></trkpt><trkpt lat="45.7374820799282" lon="10.00162063098079"><ele>788.4285714285714</ele><time>2026-04-11T14:59:59Z</time></trkpt><trkpt lat="45.73742605791746" lon="10.001522374811453"><ele>790.7142857142858</ele><time>2026-04-11T15:00:01Z</time></trkpt><trkpt lat="45.737359410506414" lon="10.001522496507885"><ele>793.0</ele><time>2026-04-11T15:00:02Z</time></trkpt><trkpt lat="45.73728288345925" lon="10.001534843117648"><ele>792.9999999999999</ele><time>2026-04-11T15:00:03Z</time></trkpt><trkpt lat="45.73720838245569" lon="10.00152662317567"><ele>793.0</ele><time>2026-04-11T15:00:04Z</time></trkpt><trkpt lat="45.73713377842098" lon="10.001512485157722"><ele>793.0</ele><time>2026-04-11T15:00:05Z</time></trkpt><trkpt lat="45.73705278287768" lon="10.001492296208488"><ele>793.0</ele><time>2026-04-11T15:00:06Z</time></trkpt><trkpt lat="45.73697124872789" lon="10.001479702300566"><ele>792.9999999999999</ele><time>2026-04-11T15:00:07Z</time></trkpt><trkpt lat="45.73688079994899" lon="10.001484697669968"><ele>793.0</ele><time>2026-04-11T15:00:08Z</time></trkpt><trkpt lat="45.73679128857807" lon="10.001506729981298"><ele>794.2</ele><time>2026-04-11T15:00:09Z</time></trkpt><trkpt lat="45.73670473274965" lon="10.001531751962872"><ele>795.4</ele><time>2026-04-11T15:00:10Z</time></trkpt><trkpt lat="45.736611772111374" lon="10.001560218151964"><ele>796.6</ele><time>2026-04-11T15:00:11Z</time></trkpt><trkpt lat="45.73651836294387" lon="10.00159545354832"><ele>797.8000000000001</ele><time>2026-04-11T15:00:12Z</time></trkpt><trkpt lat="45.73642481081825" lon="10.00162186767099"><ele>799.0</ele><time>2026-04-11T15:00:13Z</time></trkpt><trkpt lat="45.73632760854159" lon="10.001635199332986"><ele>799.0</ele><time>2026-04-11T15:00:14Z</time></trkpt><trkpt lat="45.73622197618366" lon="10.00164258580574"><ele>799.0</ele><time>2026-04-11T15:00:15Z</time></trkpt><trkpt lat="45.73611440899019" lon="10.001638647888297"><ele>799.0</ele><time>2026-04-11T15:00:16Z</time></trkpt><trkpt lat="45.73600656893963" lon="10.001631885476524"><ele>799.0</ele><time>2026-04-11T15:00:17Z</time></trkpt><trkpt lat="45.7359030803249" lon="10.001637880293128"><ele>799.0</ele><time>2026-04-11T15:00:18Z</time></trkpt><trkpt lat="45.73580551366074" lon="10.00165399748879"><ele>795.6666666666666</ele><time>2026-04-11T15:00:19Z</time></trkpt><trkpt lat="45.73571635494124" lon="10.001681382677727"><ele>792.3333333333333</ele><time>2026-04-11T15:00:20Z</time></trkpt><trkpt lat="45.735633149270825" lon="10.001698611040016"><ele>789.0</ele><time>2026-04-11T15:00:21Z</time></trkpt><trkpt lat="45.735552934305446" lon="10.001706831577156"><ele>785.6666666666667</ele><time>2026-04-11T15:00:22Z</time></trkpt><trkpt lat="45.73547686390317" lon="10.001710872464118"><ele>782.3333333333334</ele><time>2026-04-11T15:00:23Z</time></trkpt><trkpt lat="45.735403303419524" lon="10.001714622862508"><ele>779.0</ele><time>2026-04-11T15:00:24Z</time></trkpt><trkpt lat="45.73532838318061" lon="10.001715801384286"><ele>779.0000000000001</ele><time>2026-04-11T15:00:25Z</time></trkpt><trkpt lat="45.735251133249385" lon="10.001707290789732"><ele>779.0</ele><time>2026-04-11T15:00:26Z</time></trkpt><trkpt lat="45.73517231338633" lon="10.001693210958791"><ele>779.0</ele><time>2026-04-11T15:00:27Z</time></trkpt><trkpt lat="45.73508636665471" lon="10.00166471705564"><ele>779.0</ele><time>2026-04-11T15:00:28Z</time></trkpt><trkpt lat="45.73500146054581" lon="10.00163436889344"><ele>779.0000000000001</ele><time>2026-04-11T15:00:29Z</time></trkpt><trkpt lat="45.734918513884175" lon="10.001603399760173"><ele>779.0</ele><time>2026-04-11T15:00:30Z</time></trkpt><trkpt lat="45.7348335858413" lon="10.001568406485195"><ele>788.0</ele><time>2026-04-11T15:00:31Z</time></trkpt><trkpt lat="45.73474942497782" lon="10.001527189448218"><ele>797.0</ele><time>2026-04-11T15:00:32Z</time></trkpt><trkpt lat="45.73466196619256" lon="10.001478960632356"><ele>806.0</ele><time>2026-04-11T15:00:33Z</time></trkpt><trkpt lat="45.73457300233617" lon="10.00142155418573"><ele>815.0</ele><time>2026-04-11T15:00:34Z</time></trkpt><trkpt lat="45.734488548058145" lon="10.001360974649467"><ele>824.0</ele><time>2026-04-11T15:00:35Z</time></trkpt><trkpt lat="45.73440780755925" lon="10.001301195231129"><ele>822.1666666666667</ele><time>2026-04-11T15:00:36Z</time></trkpt><trkpt lat="45.734336430086806" lon="10.001244156310278"><ele>820.3333333333334</ele><time>2026-04-11T15:00:37Z</time></trkpt><trkpt lat="45.734264562845624" lon="10.001186627881971"><ele>818.5</ele><time>2026-04-11T15:00:38Z</time></trkpt><trkpt lat="45.734200832244355" lon="10.001124947526673"><ele>816.6666666666667</ele><time>2026-04-11T15:00:39Z</time></trkpt><trkpt lat="45.73413074307749" lon="10.001069102311222"><ele>814.8333333333334</ele><time>2026-04-11T15:00:40Z</time></trkpt><trkpt lat="45.73406298481089" lon="10.001005330245071"><ele>813.0</ele><time>2026-04-11T15:00:41Z</time></trkpt><trkpt lat="45.733989399375815" lon="10.000930892621492"><ele>813.0</ele><time>2026-04-11T15:00:42Z</time></trkpt><trkpt lat="45.73391630751609" lon="10.000853929889821"><ele>813.0</ele><time>2026-04-11T15:00:43Z</time></trkpt><trkpt lat="45.733845013217696" lon="10.00077692773475"><ele>813.0</ele><time>2026-04-11T15:00:44Z</time></trkpt><trkpt lat="45.733779145827086" lon="10.000701816726801"><ele>813.0</ele><time>2026-04-11T15:00:45Z</time></trkpt><trkpt lat="45.73371347111602" lon="10.000626677363961"><ele>813.0</ele><time>2026-04-11T15:00:46Z</time></trkpt><trkpt lat="45.73366057848379" lon="10.0005460104145"><ele>813.0</ele><time>2026-04-11T15:00:47Z</time></trkpt><trkpt lat="45.733600109067055" lon="10.000470407832655"><ele>814.2857142857143</ele><time>2026-04-11T15:00:48Z</time></trkpt><trkpt lat="45.73354881075401" lon="10.000396481264364"><ele>815.5714285714286</ele><time>2026-04-11T15:00:49Z</time></trkpt><trkpt lat="45.733494071822854" lon="10.000328586920084"><ele>816.8571428571429</ele><time>2026-04-11T15:00:50Z</time></trkpt><trkpt lat="45.73344285200283" lon="10.000260958391864"><ele>818.1428571428571</ele><time>2026-04-11T15:00:51Z</time></trkpt><trkpt lat="45.733392533827896" lon="10.000184415219616"><ele>819.4285714285713</ele><time>2026-04-11T15:00:52Z</time></trkpt><trkpt lat="45.733342051536425" lon="10.00010833088565"><ele>820.7142857142857</ele><time>2026-04-11T15:00:53Z</time></trkpt><trkpt lat="45.733298869025596" lon="10.000025887569494"><ele>822.0</ele><time>2026-04-11T15:00:54Z</time></trkpt><trkpt lat="45.73326157577509" lon="9.999937534499917"><ele>822.0</ele><time>2026-04-11T15:00:55.001Z</time></trkpt><trkpt lat="45.73323449639715" lon="9.999841102651796"><ele>822.0</ele><time>2026-04-11T15:00:56.001Z</time></trkpt><trkpt lat="45.733214101822156" lon="9.999741060566034"><ele>822.0</ele><time>2026-04-11T15:00:57.001Z</time></trkpt><trkpt lat="45.73320213035631" lon="9.999636601985332"><ele>822.0</ele><time>2026-04-11T15:00:58.001Z</time></trkpt><trkpt lat="45.73319558645151" lon="9.999532419414136"><ele>822.0</ele><time>2026-04-11T15:00:59.001Z</time></trkpt><trkpt lat="45.7331950774631" lon="9.999420686231218"><ele>822.0</ele><time>2026-04-11T15:01:00.001Z</time></trkpt><trkpt lat="45.73320305194437" lon="9.999308412657344"><ele>822.0</ele><time>2026-04-11T15:01:01.001Z</time></trkpt><trkpt lat="45.73321482694592" lon="9.999190884888302"><ele>824.5</ele><time>2026-04-11T15:01:02.001Z</time></trkpt><trkpt lat="45.733228382207045" lon="9.999068885693008"><ele>827.0</ele><time>2026-04-11T15:01:03.001Z</time></trkpt><trkpt lat="45.73323935155791" lon="9.998952111078632"><ele>829.5</ele><time>2026-04-11T15:01:04.001Z</time></trkpt><trkpt lat="45.733250494380975" lon="9.998831021226966"><ele>832.0</ele><time>2026-04-11T15:01:05.001Z</time></trkpt><trkpt lat="45.73326951590968" lon="9.99871838551573"><ele>834.5</ele><time>2026-04-11T15:01:06.001Z</time></trkpt><trkpt lat="45.73329698122778" lon="9.99861186564185"><ele>837.0</ele><time>2026-04-11T15:01:07.001Z</time></trkpt><trkpt lat="45.73332112551749" lon="9.998496279209348"><ele>837.0</ele><time>2026-04-11T15:01:08.001Z</time></trkpt><trkpt lat="45.73334594666978" lon="9.998372525555487"><ele>837.0</ele><time>2026-04-11T15:01:09.001Z</time></trkpt><trkpt lat="45.733367319019486" lon="9.998244674058784"><ele>837.0</ele><time>2026-04-11T15:01:10.001Z</time></trkpt><trkpt lat="45.73339036503451" lon="9.998119468340429"><ele>837.0</ele><time>2026-04-11T15:01:11.001Z</time></trkpt><trkpt lat="45.73341138185167" lon="9.99800042743043"><ele>837.0</ele><time>2026-04-11T15:01:12.001Z</time></trkpt><trkpt lat="45.73343238324214" lon="9.997888215889951"><ele>837.0</ele><time>2026-04-11T15:01:13.001Z</time></trkpt><trkpt lat="45.73344983632301" lon="9.997782558560816"><ele>837.0</ele><time>2026-04-11T15:01:14.001Z</time></trkpt><trkpt lat="45.733469897415034" lon="9.997676668480613"><ele>837.0</ele><time>2026-04-11T15:01:15.001Z</time></trkpt><trkpt lat="45.733487040163226" lon="9.997584923456468"><ele>837.0</ele><time>2026-04-11T15:01:16.001Z</time></trkpt><trkpt lat="45.733501155392" lon="9.997487817393573"><ele>837.0</ele><time>2026-04-11T15:01:17.001Z</time></trkpt><trkpt lat="45.733515881013986" lon="9.99738255164053"><ele>837.0</ele><time>2026-04-11T15:01:18.001Z</time></trkpt><trkpt lat="45.733532516361215" lon="9.997265058475769"><ele>837.0</ele><time>2026-04-11T15:01:19.001Z</time></trkpt><trkpt lat="45.73355008294988" lon="9.997135620490953"><ele>848.4000000000001</ele><time>2026-04-11T15:01:20.001Z</time></trkpt><trkpt lat="45.73356649086372" lon="9.997006789495629"><ele>859.8000000000001</ele><time>2026-04-11T15:01:21.001Z</time></trkpt><trkpt lat="45.733578241171976" lon="9.996864488352376"><ele>871.2</ele><time>2026-04-11T15:01:22.001Z</time></trkpt><trkpt lat="45.73358209976075" lon="9.996719231754359"><ele>882.6</ele><time>2026-04-11T15:01:23.001Z</time></trkpt><trkpt lat="45.73358253798484" lon="9.9965696506871"><ele>894.0</ele><time>2026-04-11T15:01:24.001Z</time></trkpt><trkpt lat="45.73357688682657" lon="9.996423914790304"><ele>894.0</ele><time>2026-04-11T15:01:25.001Z</time></trkpt><trkpt lat="45.73357687257819" lon="9.996276798775456"><ele>894.0000000000001</ele><time>2026-04-11T15:01:26.001Z</time></trkpt><trkpt lat="45.733581907052184" lon="9.996130049400234"><ele>894.0000000000001</ele><time>2026-04-11T15:01:27.001Z</time></trkpt><trkpt lat="45.73358721733608" lon="9.996000546784405"><ele>894.0</ele><time>2026-04-11T15:01:28.001Z</time></trkpt><trkpt lat="45.73359717230086" lon="9.99588419397259"><ele>894.0</ele><time>2026-04-11T15:01:29.001Z</time></trkpt><trkpt lat="45.733585853019235" lon="9.995716545397999"><ele>894.4000000000001</ele><time>2026-04-11T15:01:31.001Z</time></trkpt><trkpt lat="45.73356155152398" lon="9.995554784612299"><ele>894.8000000000001</ele><time>2026-04-11T15:01:33.001Z</time></trkpt><trkpt lat="45.73354894375751" lon="9.99538528413471"><ele>895.1999999999999</ele><time>2026-04-11T15:01:35.001Z</time></trkpt><trkpt lat="45.733543959596524" lon="9.995291549776125"><ele>895.5999999999999</ele><time>2026-04-11T15:01:36.001Z</time></trkpt><trkpt lat="45.73354454988136" lon="9.995120775521704"><ele>896.0</ele><time>2026-04-11T15:01:38.001Z</time></trkpt><trkpt lat="45.733567268435834" lon="9.994966601136518"><ele>892.0000000000001</ele><time>2026-04-11T15:01:40.001Z</time></trkpt><trkpt lat="45.733522194156265" lon="9.994829541686688"><ele>888.0</ele><time>2026-04-11T15:01:42.001Z</time></trkpt><trkpt lat="45.733429886676454" lon="9.99479093517004"><ele>884.0</ele><time>2026-04-11T15:01:44.001Z</time></trkpt><trkpt lat="45.733365034012344" lon="9.99482289194198"><ele>880.0</ele><time>2026-04-11T15:01:45.001Z</time></trkpt><trkpt lat="45.7333071645162" lon="9.994858886271675"><ele>876.0000000000001</ele><time>2026-04-11T15:01:46.001Z</time></trkpt><trkpt lat="45.73324444381266" lon="9.994902057906481"><ele>872.0</ele><time>2026-04-11T15:01:47.001Z</time></trkpt><trkpt lat="45.73317871335822" lon="9.994953263749052"><ele>872.0</ele><time>2026-04-11T15:01:48.001Z</time></trkpt><trkpt lat="45.73309247515837" lon="9.99497328512296"><ele>872.0</ele><time>2026-04-11T15:01:49.001Z</time></trkpt><trkpt lat="45.73300579638306" lon="9.995038376195872"><ele>872.0</ele><time>2026-04-11T15:01:50Z</time></trkpt><trkpt lat="45.732932993755576" lon="9.9950910342156"><ele>872.0</ele><time>2026-04-11T15:01:51Z</time></trkpt><trkpt lat="45.73284490370648" lon="9.995147211898823"><ele>872.0</ele><time>2026-04-11T15:01:52Z</time></trkpt><trkpt lat="45.732747944699355" lon="9.995204872582192"><ele>867.0</ele><time>2026-04-11T15:01:53Z</time></trkpt><trkpt lat="45.73264587814681" lon="9.995261950855555"><ele>862.0</ele><time>2026-04-11T15:01:54Z</time></trkpt><trkpt lat="45.732539614409575" lon="9.995319872616083"><ele>857.0</ele><time>2026-04-11T15:01:55Z</time></trkpt><trkpt lat="45.73242775725454" lon="9.99539571053436"><ele>852.0</ele><time>2026-04-11T15:01:56Z</time></trkpt><trkpt lat="45.73231256712141" lon="9.995452140106527"><ele>852.0</ele><time>2026-04-11T15:01:57Z</time></trkpt><trkpt lat="45.73219597125585" lon="9.995503832991492"><ele>852.0</ele><time>2026-04-11T15:01:58Z</time></trkpt><trkpt lat="45.73208031594854" lon="9.99554926276465"><ele>852.0</ele><time>2026-04-11T15:01:59Z</time></trkpt><trkpt lat="45.731963804349704" lon="9.995586160337018"><ele>852.0</ele><time>2026-04-11T15:02:00Z</time></trkpt><trkpt lat="45.731847103130264" lon="9.995615229678574"><ele>855.25</ele><time>2026-04-11T15:02:01Z</time></trkpt><trkpt lat="45.73172746748921" lon="9.995649578375385"><ele>858.5</ele><time>2026-04-11T15:02:02Z</time></trkpt><trkpt lat="45.73160742353553" lon="9.995680417402575"><ele>861.75</ele><time>2026-04-11T15:02:03Z</time></trkpt><trkpt lat="45.73149250144703" lon="9.995714440904484"><ele>865.0</ele><time>2026-04-11T15:02:04Z</time></trkpt><trkpt lat="45.73138018985721" lon="9.995762044648185"><ele>865.0</ele><time>2026-04-11T15:02:05Z</time></trkpt><trkpt lat="45.73126599651013" lon="9.995819120340764"><ele>865.0</ele><time>2026-04-11T15:02:06Z</time></trkpt><trkpt lat="45.73115122646201" lon="9.995875475202837"><ele>865.0</ele><time>2026-04-11T15:02:07Z</time></trkpt><trkpt lat="45.73104469943201" lon="9.995927691223068"><ele>865.0</ele><time>2026-04-11T15:02:08Z</time></trkpt><trkpt lat="45.73095180019312" lon="9.995970193590779"><ele>862.6666666666666</ele><time>2026-04-11T15:02:09Z</time></trkpt><trkpt lat="45.7308642384103" lon="9.99601206652794"><ele>860.3333333333333</ele><time>2026-04-11T15:02:10Z</time></trkpt><trkpt lat="45.730775686022156" lon="9.996019442843634"><ele>858.0</ele><time>2026-04-11T15:02:11Z</time></trkpt><trkpt lat="45.73070303199283" lon="9.996061016573671"><ele>855.6666666666667</ele><time>2026-04-11T15:02:12Z</time></trkpt><trkpt lat="45.73063120678187" lon="9.996052661309077"><ele>853.3333333333334</ele><time>2026-04-11T15:02:13Z</time></trkpt><trkpt lat="45.7305581292687" lon="9.996028385925841"><ele>851.0</ele><time>2026-04-11T15:02:14Z</time></trkpt><trkpt lat="45.7304898265324" lon="9.995992278277871"><ele>851.0000000000001</ele><time>2026-04-11T15:02:15Z</time></trkpt><trkpt lat="45.730437464208386" lon="9.995926728326598"><ele>851.0</ele><time>2026-04-11T15:02:16Z</time></trkpt><trkpt lat="45.730390920056415" lon="9.995838476318765"><ele>851.0</ele><time>2026-04-11T15:02:17Z</time></trkpt><trkpt lat="45.730352645500304" lon="9.99574018527903"><ele>851.0</ele><time>2026-04-11T15:02:18Z</time></trkpt><trkpt lat="45.730323238423196" lon="9.995639900352009"><ele>851.0000000000001</ele><time>2026-04-11T15:02:19Z</time></trkpt><trkpt lat="45.73030322418856" lon="9.99552687641405"><ele>851.0</ele><time>2026-04-11T15:02:20Z</time></trkpt><trkpt lat="45.7302891311118" lon="9.995403256080078"><ele>852.5999999999999</ele><time>2026-04-11T15:02:21Z</time></trkpt><trkpt lat="45.73026968500901" lon="9.995266605431436"><ele>854.2</ele><time>2026-04-11T15:02:22Z</time></trkpt><trkpt lat="45.73021951010772" lon="9.995161113649392"><ele>855.8000000000001</ele><time>2026-04-11T15:02:23Z</time></trkpt><trkpt lat="45.7301790537912" lon="9.995036868906757"><ele>857.4000000000001</ele><time>2026-04-11T15:02:24Z</time></trkpt><trkpt lat="45.730141588977276" lon="9.994911425463275"><ele>859.0</ele><time>2026-04-11T15:02:25Z</time></trkpt><trkpt lat="45.730103217576385" lon="9.994778985723887"><ele>862.8000000000001</ele><time>2026-04-11T15:02:26Z</time></trkpt><trkpt lat="45.730065462446355" lon="9.994643505760855"><ele>866.6000000000001</ele><time>2026-04-11T15:02:27Z</time></trkpt><trkpt lat="45.7300200563797" lon="9.994509097574653"><ele>870.4</ele><time>2026-04-11T15:02:28Z</time></trkpt><trkpt lat="45.729974235827" lon="9.994395247687452"><ele>874.2</ele><time>2026-04-11T15:02:29Z</time></trkpt><trkpt lat="45.7299301280757" lon="9.994278031312996"><ele>878.0</ele><time>2026-04-11T15:02:30Z</time></trkpt><trkpt lat="45.72987976048302" lon="9.99418070968023"><ele>880.5000000000001</ele><time>2026-04-11T15:02:31Z</time></trkpt><trkpt lat="45.729828188320155" lon="9.9940871414832"><ele>883.0</ele><time>2026-04-11T15:02:32Z</time></trkpt><trkpt lat="45.729786466725926" lon="9.993977263675209"><ele>885.5</ele><time>2026-04-11T15:02:33Z</time></trkpt><trkpt lat="45.72974026416176" lon="9.993874362056696"><ele>888.0</ele><time>2026-04-11T15:02:34Z</time></trkpt><trkpt lat="45.7297016039927" lon="9.993752384079894"><ele>890.5000000000001</ele><time>2026-04-11T15:02:35Z</time></trkpt><trkpt lat="45.7296761570219" lon="9.993626933133406"><ele>893.0</ele><time>2026-04-11T15:02:36Z</time></trkpt><trkpt lat="45.729659963753" lon="9.993494056628707"><ele>893.0000000000001</ele><time>2026-04-11T15:02:37Z</time></trkpt><trkpt lat="45.72964007208961" lon="9.993363659725818"><ele>893.0</ele><time>2026-04-11T15:02:38Z</time></trkpt><trkpt lat="45.72962792027764" lon="9.99323738914062"><ele>893.0</ele><time>2026-04-11T15:02:39.001Z</time></trkpt><trkpt lat="45.72961724394852" lon="9.99311343894472"><ele>893.0</ele><time>2026-04-11T15:02:40.001Z</time></trkpt><trkpt lat="45.729608526708866" lon="9.99300124541736"><ele>893.0000000000001</ele><time>2026-04-11T15:02:41.001Z</time></trkpt><trkpt lat="45.72959907579136" lon="9.992905655508615"><ele>893.0</ele><time>2026-04-11T15:02:42.001Z</time></trkpt><trkpt lat="45.729612372608806" lon="9.992809154968944"><ele>892.8333333333334</ele><time>2026-04-11T15:02:44.001Z</time></trkpt><trkpt lat="45.72958928954809" lon="9.992712128250977"><ele>892.6666666666667</ele><time>2026-04-11T15:02:47.001Z</time></trkpt><trkpt lat="45.7295159608459" lon="9.99255621723392"><ele>892.5</ele><time>2026-04-11T15:02:49.001Z</time></trkpt><trkpt lat="45.72948413272391" lon="9.99245514003989"><ele>892.3333333333333</ele><time>2026-04-11T15:02:50.001Z</time></trkpt><trkpt lat="45.72943725538867" lon="9.992361134927885"><ele>892.1666666666666</ele><time>2026-04-11T15:02:51.001Z</time></trkpt><trkpt lat="45.72939010890288" lon="9.992269690799452"><ele>892.0</ele><time>2026-04-11T15:02:52.001Z</time></trkpt><trkpt lat="45.72932461113879" lon="9.992187021387307"><ele>892.0</ele><time>2026-04-11T15:02:53.001Z</time></trkpt><trkpt lat="45.72927124086076" lon="9.992047469584879"><ele>892.0</ele><time>2026-04-11T15:02:54.001Z</time></trkpt><trkpt lat="45.72921291803114" lon="9.99194364499058"><ele>892.0</ele><time>2026-04-11T15:02:55.001Z</time></trkpt><trkpt lat="45.729151056858264" lon="9.99182617205561"><ele>892.0</ele><time>2026-04-11T15:02:56.001Z</time></trkpt><trkpt lat="45.7290851294423" lon="9.991724134935003"><ele>892.0</ele><time>2026-04-11T15:02:57.001Z</time></trkpt><trkpt lat="45.72901851959694" lon="9.991616411113064"><ele>897.6</ele><time>2026-04-11T15:02:58.001Z</time></trkpt><trkpt lat="45.72894803584735" lon="9.991528755811132"><ele>903.2</ele><time>2026-04-11T15:02:59.001Z</time></trkpt><trkpt lat="45.728870557711424" lon="9.991442277382255"><ele>908.8</ele><time>2026-04-11T15:03:00.001Z</time></trkpt><trkpt lat="45.728785099894196" lon="9.991370567498004"><ele>914.4</ele><time>2026-04-11T15:03:01.001Z</time></trkpt><trkpt lat="45.728699952950606" lon="9.991303738874464"><ele>920.0</ele><time>2026-04-11T15:03:02.001Z</time></trkpt><trkpt lat="45.72859985273785" lon="9.991298729928738"><ele>917.4</ele><time>2026-04-11T15:03:03.001Z</time></trkpt><trkpt lat="45.72848925197812" lon="9.991291549961158"><ele>914.8</ele><time>2026-04-11T15:03:04.001Z</time></trkpt><trkpt lat="45.728378379866655" lon="9.991300207899382"><ele>912.2</ele><time>2026-04-11T15:03:05.001Z</time></trkpt><trkpt lat="45.728263348791195" lon="9.991282154284914"><ele>909.6</ele><time>2026-04-11T15:03:06.001Z</time></trkpt><trkpt lat="45.728156308576516" lon="9.991306421506595"><ele>907.0</ele><time>2026-04-11T15:03:07.001Z</time></trkpt><trkpt lat="45.72802502133792" lon="9.991316453165085"><ele>907.0</ele><time>2026-04-11T15:03:08.001Z</time></trkpt><trkpt lat="45.72790616673007" lon="9.991365938820639"><ele>907.0</ele><time>2026-04-11T15:03:09.001Z</time></trkpt><trkpt lat="45.727779057163275" lon="9.991393916588153"><ele>907.0</ele><time>2026-04-11T15:03:10.001Z</time></trkpt><trkpt lat="45.72766451159413" lon="9.99144105441016"><ele>907.0</ele><time>2026-04-11T15:03:11.001Z</time></trkpt><trkpt lat="45.72753781031504" lon="9.991497258560857"><ele>909.75</ele><time>2026-04-11T15:03:12.001Z</time></trkpt><trkpt lat="45.72741312565038" lon="9.99155393708498"><ele>912.5</ele><time>2026-04-11T15:03:13.001Z</time></trkpt><trkpt lat="45.72728651534292" lon="9.991610214888581"><ele>915.25</ele><time>2026-04-11T15:03:14.001Z</time></trkpt><trkpt lat="45.72715869278594" lon="9.991660315884626"><ele>918.0</ele><time>2026-04-11T15:03:15.001Z</time></trkpt><trkpt lat="45.72702874686734" lon="9.991704747822011"><ele>916.5</ele><time>2026-04-11T15:03:16.001Z</time></trkpt><trkpt lat="45.72690314941352" lon="9.991750182574377"><ele>915.0</ele><time>2026-04-11T15:03:17.001Z</time></trkpt><trkpt lat="45.72677720574175" lon="9.991784629867261"><ele>913.5</ele><time>2026-04-11T15:03:18.001Z</time></trkpt><trkpt lat="45.72666389437144" lon="9.991822805614607"><ele>912.0</ele><time>2026-04-11T15:03:19.001Z</time></trkpt><trkpt lat="45.726555400418576" lon="9.991849234481768"><ele>912.0</ele><time>2026-04-11T15:03:20.001Z</time></trkpt><trkpt lat="45.72644634201743" lon="9.99184953235848"><ele>912.0</ele><time>2026-04-11T15:03:21.001Z</time></trkpt><trkpt lat="45.726346616145925" lon="9.99186621717802"><ele>912.0</ele><time>2026-04-11T15:03:22.001Z</time></trkpt><trkpt lat="45.726244640342145" lon="9.991871970435719"><ele>912.0</ele><time>2026-04-11T15:03:23.001Z</time></trkpt><trkpt lat="45.72615435083799" lon="9.991869895303578"><ele>912.0</ele><time>2026-04-11T15:03:24.001Z</time></trkpt><trkpt lat="45.726081695029414" lon="9.991832177320195"><ele>914.0</ele><time>2026-04-11T15:03:25.001Z</time></trkpt><trkpt lat="45.72596997999652" lon="9.991785950891591"><ele>916.0</ele><time>2026-04-11T15:03:27.001Z</time></trkpt><trkpt lat="45.725853984566484" lon="9.991701841554258"><ele>918.0</ele><time>2026-04-11T15:03:29.001Z</time></trkpt><trkpt lat="45.725813718356854" lon="9.991603533224604"><ele>920.0</ele><time>2026-04-11T15:03:30.001Z</time></trkpt><trkpt lat="45.72579337505947" lon="9.991512875722181"><ele>922.0</ele><time>2026-04-11T15:03:31.001Z</time></trkpt><trkpt lat="45.725771078659506" lon="9.991407511123828"><ele>927.6</ele><time>2026-04-11T15:03:32.001Z</time></trkpt><trkpt lat="45.72573359621597" lon="9.991276245255115"><ele>933.2</ele><time>2026-04-11T15:03:33.001Z</time></trkpt><trkpt lat="45.72571968076777" lon="9.991139194027447"><ele>938.8</ele><time>2026-04-11T15:03:34.001Z</time></trkpt><trkpt lat="45.725695844919166" lon="9.99100875143042"><ele>944.4</ele><time>2026-04-11T15:03:35.001Z</time></trkpt><trkpt lat="45.7256530732472" lon="9.990883822618086"><ele>950.0</ele><time>2026-04-11T15:03:36.001Z</time></trkpt><trkpt lat="45.72560973651086" lon="9.99075295303828"><ele>952.6</ele><time>2026-04-11T15:03:37.001Z</time></trkpt><trkpt lat="45.72559300177903" lon="9.99061582190071"><ele>955.2</ele><time>2026-04-11T15:03:38.001Z</time></trkpt><trkpt lat="45.7255659467449" lon="9.990486293999313"><ele>957.8</ele><time>2026-04-11T15:03:39.001Z</time></trkpt><trkpt lat="45.72552716862768" lon="9.990360783274953"><ele>960.4</ele><time>2026-04-11T15:03:40.001Z</time></trkpt><trkpt lat="45.725507533890635" lon="9.99021153822679"><ele>963.0</ele><time>2026-04-11T15:03:41.001Z</time></trkpt><trkpt lat="45.725478628562094" lon="9.990080964609701"><ele>966.0</ele><time>2026-04-11T15:03:42.001Z</time></trkpt><trkpt lat="45.725443442589444" lon="9.989939234649345"><ele>969.0</ele><time>2026-04-11T15:03:43.001Z</time></trkpt><trkpt lat="45.725401351219936" lon="9.98980181689836"><ele>972.0</ele><time>2026-04-11T15:03:44.001Z</time></trkpt><trkpt lat="45.72535829226915" lon="9.98968191696834"><ele>975.0</ele><time>2026-04-11T15:03:45.001Z</time></trkpt><trkpt lat="45.725314099416465" lon="9.989550298910212"><ele>978.0</ele><time>2026-04-11T15:03:46.001Z</time></trkpt><trkpt lat="45.72526079235423" lon="9.989421996179038"><ele>976.4</ele><time>2026-04-11T15:03:47.001Z</time></trkpt><trkpt lat="45.72520132684173" lon="9.989290163357463"><ele>974.8</ele><time>2026-04-11T15:03:48.001Z</time></trkpt><trkpt lat="45.7251289741733" lon="9.989166854762166"><ele>973.2</ele><time>2026-04-11T15:03:49.001Z</time></trkpt><trkpt lat="45.72506821399802" lon="9.989041790495822"><ele>971.6</ele><time>2026-04-11T15:03:50.001Z</time></trkpt><trkpt lat="45.72502527198431" lon="9.988908668828506"><ele>970.0</ele><time>2026-04-11T15:03:51.001Z</time></trkpt><trkpt lat="45.72496953186371" lon="9.988797311985401"><ele>969.9999999999999</ele><time>2026-04-11T15:03:52.002Z</time></trkpt><trkpt lat="45.72490529233667" lon="9.988710806092106"><ele>970.0</ele><time>2026-04-11T15:03:53.002Z</time></trkpt><trkpt lat="45.72485954341335" lon="9.988614776660098"><ele>970.0</ele><time>2026-04-11T15:03:54.002Z</time></trkpt><trkpt lat="45.72479862442785" lon="9.988541026303174"><ele>970.0</ele><time>2026-04-11T15:03:55.002Z</time></trkpt><trkpt lat="45.72474042516874" lon="9.988476620214653"><ele>969.9999999999999</ele><time>2026-04-11T15:03:56.001Z</time></trkpt><trkpt lat="45.724649376278926" lon="9.988356261150772"><ele>970.0</ele><time>2026-04-11T15:03:58.001Z</time></trkpt><trkpt lat="45.72459738863484" lon="9.988291234700618"><ele>969.6666666666666</ele><time>2026-04-11T15:03:59.001Z</time></trkpt><trkpt lat="45.724542299370015" lon="9.988216741277142"><ele>969.3333333333333</ele><time>2026-04-11T15:04:00.001Z</time></trkpt><trkpt lat="45.72449205774886" lon="9.988143857868243"><ele>969.0</ele><time>2026-04-11T15:04:01.001Z</time></trkpt><trkpt lat="45.724419291965965" lon="9.988036250383761"><ele>968.6666666666667</ele><time>2026-04-11T15:04:03.001Z</time></trkpt><trkpt lat="45.72436011504559" lon="9.987953004242835"><ele>968.3333333333334</ele><time>2026-04-11T15:04:05.001Z</time></trkpt><trkpt lat="45.724370142902295" lon="9.98784282699955"><ele>968.0</ele><time>2026-04-11T15:04:07.001Z</time></trkpt><trkpt lat="45.72447145632638" lon="9.987876987398076"><ele>971.8333333333334</ele><time>2026-04-11T15:04:09.001Z</time></trkpt><trkpt lat="45.72458974579838" lon="9.98791716611083"><ele>975.6666666666667</ele><time>2026-04-11T15:04:11.001Z</time></trkpt><trkpt lat="45.724658056087215" lon="9.987930853196383"><ele>979.5</ele><time>2026-04-11T15:04:12.001Z</time></trkpt><trkpt lat="45.72474406461238" lon="9.987942614471246"><ele>983.3333333333333</ele><time>2026-04-11T15:04:13.001Z</time></trkpt><trkpt lat="45.72482948273943" lon="9.987962831747923"><ele>987.1666666666666</ele><time>2026-04-11T15:04:14.001Z</time></trkpt><trkpt lat="45.724911316924384" lon="9.987990027503887"><ele>991.0</ele><time>2026-04-11T15:04:15.001Z</time></trkpt><trkpt lat="45.724995485536766" lon="9.988014096034457"><ele>990.9999999999999</ele><time>2026-04-11T15:04:16.001Z</time></trkpt><trkpt lat="45.72508059414714" lon="9.98803714685198"><ele>991.0</ele><time>2026-04-11T15:04:17.001Z</time></trkpt><trkpt lat="45.72516441399064" lon="9.988063311442177"><ele>991.0</ele><time>2026-04-11T15:04:18.001Z</time></trkpt><trkpt lat="45.72524492955193" lon="9.988093393617113"><ele>991.0</ele><time>2026-04-11T15:04:19.001Z</time></trkpt><trkpt lat="45.725322007703554" lon="9.988123895803328"><ele>990.9999999999999</ele><time>2026-04-11T15:04:20.001Z</time></trkpt><trkpt lat="45.72539894187285" lon="9.98814789834234"><ele>991.0</ele><time>2026-04-11T15:04:21.001Z</time></trkpt><trkpt lat="45.725465743056546" lon="9.988204175442233"><ele>991.8333333333333</ele><time>2026-04-11T15:04:22.001Z</time></trkpt><trkpt lat="45.72553505950932" lon="9.988226639605134"><ele>992.6666666666666</ele><time>2026-04-11T15:04:23.001Z</time></trkpt><trkpt lat="45.72559835220281" lon="9.98827162053982"><ele>993.5</ele><time>2026-04-11T15:04:24.001Z</time></trkpt><trkpt lat="45.72567576035449" lon="9.988315905162127"><ele>994.3333333333333</ele><time>2026-04-11T15:04:25.001Z</time></trkpt><trkpt lat="45.725770658985404" lon="9.988367753543265"><ele>995.1666666666666</ele><time>2026-04-11T15:04:26.001Z</time></trkpt><trkpt lat="45.72585639727168" lon="9.988408944658916"><ele>996.0</ele><time>2026-04-11T15:04:27.001Z</time></trkpt><trkpt lat="45.72593778933837" lon="9.988459079244885"><ele>996.0</ele><time>2026-04-11T15:04:28.001Z</time></trkpt><trkpt lat="45.72601195025662" lon="9.988516991513778"><ele>996.0</ele><time>2026-04-11T15:04:29.001Z</time></trkpt><trkpt lat="45.72608378091336" lon="9.98857400510126"><ele>996.0</ele><time>2026-04-11T15:04:30.001Z</time></trkpt><trkpt lat="45.72615507030492" lon="9.988636291317945"><ele>996.0</ele><time>2026-04-11T15:04:31.001Z</time></trkpt><trkpt lat="45.72622911325328" lon="9.988696569127672"><ele>996.0</ele><time>2026-04-11T15:04:32.001Z</time></trkpt><trkpt lat="45.72630288816933" lon="9.988763273438012"><ele>996.0</ele><time>2026-04-11T15:04:33.001Z</time></trkpt><trkpt lat="45.72637327958664" lon="9.988834470121636"><ele>997.6666666666666</ele><time>2026-04-11T15:04:34.001Z</time></trkpt><trkpt lat="45.726433508595875" lon="9.98890080054415"><ele>999.3333333333333</ele><time>2026-04-11T15:04:35.001Z</time></trkpt><trkpt lat="45.7264896036756" lon="9.988964563557419"><ele>1001.0</ele><time>2026-04-11T15:04:36.001Z</time></trkpt><trkpt lat="45.72654458307862" lon="9.989032235318488"><ele>1002.6666666666666</ele><time>2026-04-11T15:04:37.001Z</time></trkpt><trkpt lat="45.72659966445172" lon="9.989112510012896"><ele>1004.3333333333333</ele><time>2026-04-11T15:04:38.001Z</time></trkpt><trkpt lat="45.72665442554688" lon="9.98918843792363"><ele>1006.0</ele><time>2026-04-11T15:04:39.001Z</time></trkpt><trkpt lat="45.72669971200008" lon="9.989283853201826"><ele>1005.9999999999999</ele><time>2026-04-11T15:04:40.001Z</time></trkpt><trkpt lat="45.726747939101976" lon="9.989367596306455"><ele>1006.0</ele><time>2026-04-11T15:04:41.001Z</time></trkpt><trkpt lat="45.72679815329662" lon="9.989442393043612"><ele>1006.0</ele><time>2026-04-11T15:04:42.001Z</time></trkpt><trkpt lat="45.72686694743306" lon="9.989506025266726"><ele>1006.0</ele><time>2026-04-11T15:04:43.001Z</time></trkpt><trkpt lat="45.72693996378868" lon="9.989546936846782"><ele>1005.9999999999999</ele><time>2026-04-11T15:04:44.001Z</time></trkpt><trkpt lat="45.72701746489433" lon="9.9895516889293"><ele>1006.0</ele><time>2026-04-11T15:04:45.001Z</time></trkpt><trkpt lat="45.72709549564721" lon="9.989545020409409"><ele>1005.8</ele><time>2026-04-11T15:04:46.001Z</time></trkpt><trkpt lat="45.72717413531956" lon="9.989537723073818"><ele>1005.5999999999999</ele><time>2026-04-11T15:04:47.001Z</time></trkpt><trkpt lat="45.727265110974415" lon="9.989493670839098"><ele>1005.4</ele><time>2026-04-11T15:04:48.001Z</time></trkpt><trkpt lat="45.7273490414679" lon="9.989455862672976"><ele>1005.2</ele><time>2026-04-11T15:04:49.001Z</time></trkpt><trkpt lat="45.7274345804213" lon="9.989407390122341"><ele>1005.0</ele><time>2026-04-11T15:04:50.001Z</time></trkpt><trkpt lat="45.727525398156665" lon="9.9893618920151"><ele>1005.0</ele><time>2026-04-11T15:04:51.001Z</time></trkpt><trkpt lat="45.72761748542911" lon="9.989295732491213"><ele>1005.0</ele><time>2026-04-11T15:04:52.001Z</time></trkpt><trkpt lat="45.72771941369736" lon="9.989242989740964"><ele>1005.0</ele><time>2026-04-11T15:04:53.001Z</time></trkpt><trkpt lat="45.727819011307226" lon="9.989164527950235"><ele>1005.0</ele><time>2026-04-11T15:04:54.001Z</time></trkpt><trkpt lat="45.72791172341549" lon="9.98908364934521"><ele>1005.0</ele><time>2026-04-11T15:04:55.001Z</time></trkpt><trkpt lat="45.72801509426601" lon="9.989012649732558"><ele>1007.0</ele><time>2026-04-11T15:04:56.001Z</time></trkpt><trkpt lat="45.72810844876496" lon="9.988975077528444"><ele>1009.0</ele><time>2026-04-11T15:04:57.001Z</time></trkpt><trkpt lat="45.7281898400543" lon="9.988915919965429"><ele>1011.0</ele><time>2026-04-11T15:04:58.001Z</time></trkpt><trkpt lat="45.7282725158642" lon="9.98889030385093"><ele>1013.0</ele><time>2026-04-11T15:04:59.001Z</time></trkpt><trkpt lat="45.728350280566325" lon="9.988883696506608"><ele>1015.0</ele><time>2026-04-11T15:05:00.001Z</time></trkpt><trkpt lat="45.728432079252485" lon="9.988878817060556"><ele>1017.0</ele><time>2026-04-11T15:05:01.001Z</time></trkpt><trkpt lat="45.72850966859649" lon="9.988879607849743"><ele>1017.0</ele><time>2026-04-11T15:05:02.001Z</time></trkpt><trkpt lat="45.72860539371615" lon="9.988856302135483"><ele>1017.0</ele><time>2026-04-11T15:05:03.001Z</time></trkpt><trkpt lat="45.72869772365721" lon="9.988845150587291"><ele>1017.0</ele><time>2026-04-11T15:05:04.001Z</time></trkpt><trkpt lat="45.72879124970153" lon="9.988834195635942"><ele>1017.0</ele><time>2026-04-11T15:05:05.001Z</time></trkpt><trkpt lat="45.72887864815188" lon="9.988822774522937"><ele>1017.0</ele><time>2026-04-11T15:05:06.001Z</time></trkpt><trkpt lat="45.72896896697139" lon="9.988816198703155"><ele>1017.0</ele><time>2026-04-11T15:05:07.001Z</time></trkpt><trkpt lat="45.72905495767063" lon="9.988817142331149"><ele>1017.0</ele><time>2026-04-11T15:05:08.001Z</time></trkpt><trkpt lat="45.729146781564154" lon="9.988820128643244"><ele>1017.0</ele><time>2026-04-11T15:05:09.001Z</time></trkpt><trkpt lat="45.72924147701825" lon="9.988835172749383"><ele>1017.0</ele><time>2026-04-11T15:05:10.001Z</time></trkpt><trkpt lat="45.729336206707934" lon="9.988859840686743"><ele>1017.0</ele><time>2026-04-11T15:05:11.001Z</time></trkpt><trkpt lat="45.72942877449411" lon="9.988893111480998"><ele>1022.2</ele><time>2026-04-11T15:05:12.001Z</time></trkpt><trkpt lat="45.72952277781249" lon="9.988929687448714"><ele>1027.4</ele><time>2026-04-11T15:05:13.001Z</time></trkpt><trkpt lat="45.729611715335345" lon="9.988974998387834"><ele>1032.6</ele><time>2026-04-11T15:05:14.001Z</time></trkpt><trkpt lat="45.729702044912855" lon="9.989027805575708"><ele>1037.8</ele><time>2026-04-11T15:05:15.001Z</time></trkpt><trkpt lat="45.729793531318705" lon="9.989087519883302"><ele>1043.0</ele><time>2026-04-11T15:05:16.001Z</time></trkpt><trkpt lat="45.72988820985275" lon="9.989151779994483"><ele>1045.6</ele><time>2026-04-11T15:05:17.001Z</time></trkpt><trkpt lat="45.72998285986154" lon="9.989224114381178"><ele>1048.1999999999998</ele><time>2026-04-11T15:05:18.001Z</time></trkpt><trkpt lat="45.73008045774934" lon="9.989303163881061"><ele>1050.8</ele><time>2026-04-11T15:05:19.001Z</time></trkpt><trkpt lat="45.73017000504893" lon="9.989393769677529"><ele>1053.3999999999999</ele><time>2026-04-11T15:05:20.001Z</time></trkpt><trkpt lat="45.73026368691292" lon="9.989475430796587"><ele>1056.0</ele><time>2026-04-11T15:05:21.001Z</time></trkpt><trkpt lat="45.73035267923942" lon="9.98955977404064"><ele>1056.0</ele><time>2026-04-11T15:05:22.001Z</time></trkpt><trkpt lat="45.730433406386176" lon="9.989650404380017"><ele>1056.0</ele><time>2026-04-11T15:05:23.001Z</time></trkpt><trkpt lat="45.73051915615378" lon="9.989731513455897"><ele>1056.0</ele><time>2026-04-11T15:05:24.001Z</time></trkpt><trkpt lat="45.73059762560755" lon="9.989829166939403"><ele>1056.0</ele><time>2026-04-11T15:05:25.001Z</time></trkpt><trkpt lat="45.730689079501545" lon="9.989912415446783"><ele>1056.0</ele><time>2026-04-11T15:05:26.001Z</time></trkpt><trkpt lat="45.73078593439389" lon="9.989979780097013"><ele>1055.75</ele><time>2026-04-11T15:05:27.001Z</time></trkpt><trkpt lat="45.73088498525854" lon="9.99005057218782"><ele>1055.5</ele><time>2026-04-11T15:05:28.001Z</time></trkpt><trkpt lat="45.73099165182606" lon="9.990114699553688"><ele>1055.25</ele><time>2026-04-11T15:05:29.001Z</time></trkpt><trkpt lat="45.731094446168385" lon="9.99018067491158"><ele>1055.0</ele><time>2026-04-11T15:05:30.001Z</time></trkpt><trkpt lat="45.73120043684891" lon="9.990234344619083"><ele>1055.0</ele><time>2026-04-11T15:05:31.001Z</time></trkpt><trkpt lat="45.73130619930145" lon="9.990286938946536"><ele>1055.0</ele><time>2026-04-11T15:05:32.001Z</time></trkpt><trkpt lat="45.73140205727038" lon="9.99034518991353"><ele>1055.0</ele><time>2026-04-11T15:05:33.001Z</time></trkpt><trkpt lat="45.731495354448" lon="9.990413911426668"><ele>1055.0</ele><time>2026-04-11T15:05:34.001Z</time></trkpt><trkpt lat="45.73158121871181" lon="9.990499586456941"><ele>1055.0</ele><time>2026-04-11T15:05:35.001Z</time></trkpt><trkpt lat="45.73165883646832" lon="9.99059869035761"><ele>1055.0</ele><time>2026-04-11T15:05:36.001Z</time></trkpt><trkpt lat="45.73173564891146" lon="9.990690861100123"><ele>1055.0</ele><time>2026-04-11T15:05:37.001Z</time></trkpt><trkpt lat="45.7317940825307" lon="9.990809401175996"><ele>1055.0</ele><time>2026-04-11T15:05:38.001Z</time></trkpt><trkpt lat="45.7318406766141" lon="9.99093139349168"><ele>1055.0</ele><time>2026-04-11T15:05:39.001Z</time></trkpt><trkpt lat="45.731889002755004" lon="9.991020092684419"><ele>1055.0</ele><time>2026-04-11T15:05:40.001Z</time></trkpt><trkpt lat="45.73195332493135" lon="9.99110651236546"><ele>1054.0</ele><time>2026-04-11T15:05:42.001Z</time></trkpt><trkpt lat="45.732069400960846" lon="9.99105936148418"><ele>1053.0</ele><time>2026-04-11T15:05:44.001Z</time></trkpt><trkpt lat="45.73212237064893" lon="9.990998330010171"><ele>1052.0</ele><time>2026-04-11T15:05:45.001Z</time></trkpt><trkpt lat="45.732184806531095" lon="9.990934030725047"><ele>1051.0</ele><time>2026-04-11T15:05:46.001Z</time></trkpt><trkpt lat="45.732265577519385" lon="9.990852152117888"><ele>1050.0</ele><time>2026-04-11T15:05:47.001Z</time></trkpt><trkpt lat="45.73234456875637" lon="9.990780678266153"><ele>1050.0</ele><time>2026-04-11T15:05:48.001Z</time></trkpt><trkpt lat="45.732433873662075" lon="9.990686183124977"><ele>1050.0</ele><time>2026-04-11T15:05:49.001Z</time></trkpt><trkpt lat="45.73252594480305" lon="9.990609759475491"><ele>1050.0</ele><time>2026-04-11T15:05:50.001Z</time></trkpt><trkpt lat="45.73264466528031" lon="9.990532106069661"><ele>1050.0</ele><time>2026-04-11T15:05:51.001Z</time></trkpt><trkpt lat="45.7327444495165" lon="9.990448501789572"><ele>1047.0</ele><time>2026-04-11T15:05:52.001Z</time></trkpt><trkpt lat="45.73284402736384" lon="9.990361277257604"><ele>1044.0</ele><time>2026-04-11T15:05:53.001Z</time></trkpt><trkpt lat="45.73293857266982" lon="9.990304857181501"><ele>1041.0</ele><time>2026-04-11T15:05:54.001Z</time></trkpt><trkpt lat="45.73301600457582" lon="9.990214065914438"><ele>1038.0</ele><time>2026-04-11T15:05:55.002Z</time></trkpt><trkpt lat="45.73309016031115" lon="9.990179681472759"><ele>1035.0</ele><time>2026-04-11T15:05:56.002Z</time></trkpt><trkpt lat="45.73314945999777" lon="9.990107287081395"><ele>1035.0</ele><time>2026-04-11T15:05:57.002Z</time></trkpt><trkpt lat="45.733243964743075" lon="9.99005656228304"><ele>1035.0</ele><time>2026-04-11T15:05:59.002Z</time></trkpt><trkpt lat="45.73329123849065" lon="9.989977783849083"><ele>1035.0</ele><time>2026-04-11T15:06:01.002Z</time></trkpt><trkpt lat="45.733230763743926" lon="9.989875768250117"><ele>1035.0</ele><time>2026-04-11T15:06:03.001Z</time></trkpt><trkpt lat="45.73315886287027" lon="9.989924570167004"><ele>1035.0</ele><time>2026-04-11T15:06:04.001Z</time></trkpt><trkpt lat="45.733056559393" lon="9.990011596031948"><ele>1035.0</ele><time>2026-04-11T15:06:06.001Z</time></trkpt><trkpt lat="45.73299493486159" lon="9.990044076468337"><ele>1035.0</ele><time>2026-04-11T15:06:07.001Z</time></trkpt><trkpt lat="45.73292353511832" lon="9.990063346651356"><ele>1035.0</ele><time>2026-04-11T15:06:08.001Z</time></trkpt><trkpt lat="45.73282657243992" lon="9.990101905538461"><ele>1035.0</ele><time>2026-04-11T15:06:09.001Z</time></trkpt><trkpt lat="45.73272697647413" lon="9.990152078719417"><ele>1035.0</ele><time>2026-04-11T15:06:10.001Z</time></trkpt><trkpt lat="45.73263641530991" lon="9.990176724459499"><ele>1035.0</ele><time>2026-04-11T15:06:11.001Z</time></trkpt><trkpt lat="45.73251404222669" lon="9.990210077995263"><ele>1037.5</ele><time>2026-04-11T15:06:12.001Z</time></trkpt><trkpt lat="45.73241842767051" lon="9.99021869046157"><ele>1040.0</ele><time>2026-04-11T15:06:13.001Z</time></trkpt><trkpt lat="45.732328105276174" lon="9.99023467659761"><ele>1042.5</ele><time>2026-04-11T15:06:14.001Z</time></trkpt><trkpt lat="45.73225483024957" lon="9.990238667059861"><ele>1045.0</ele><time>2026-04-11T15:06:15.001Z</time></trkpt><trkpt lat="45.7321850267042" lon="9.990227234475599"><ele>1047.5</ele><time>2026-04-11T15:06:16.001Z</time></trkpt><trkpt lat="45.73212193790728" lon="9.990180662093902"><ele>1050.0</ele><time>2026-04-11T15:06:18.001Z</time></trkpt><trkpt lat="45.732046375102726" lon="9.990143802181157"><ele>1050.0</ele><time>2026-04-11T15:06:20.001Z</time></trkpt><trkpt lat="45.7320334787663" lon="9.990033222666641"><ele>1050.0</ele><time>2026-04-11T15:06:22.001Z</time></trkpt><trkpt lat="45.732194122126934" lon="9.990076662164618"><ele>1050.0</ele><time>2026-04-11T15:06:25.001Z</time></trkpt><trkpt lat="45.732257439575584" lon="9.99004065724358"><ele>1050.0</ele><time>2026-04-11T15:06:26.001Z</time></trkpt><trkpt lat="45.73231436053916" lon="9.989999995712695"><ele>1050.0</ele><time>2026-04-11T15:06:27.001Z</time></trkpt><trkpt lat="45.7324419515963" lon="9.989904135978684"><ele>1056.6</ele><time>2026-04-11T15:06:29.001Z</time></trkpt><trkpt lat="45.73252556089652" lon="9.989886191596796"><ele>1063.2</ele><time>2026-04-11T15:06:30.001Z</time></trkpt><trkpt lat="45.73261879101269" lon="9.989824500546677"><ele>1069.8</ele><time>2026-04-11T15:06:31.001Z</time></trkpt><trkpt lat="45.732710074439424" lon="9.989769595986457"><ele>1076.4</ele><time>2026-04-11T15:06:32.001Z</time></trkpt><trkpt lat="45.732801573998685" lon="9.989699127817433"><ele>1083.0</ele><time>2026-04-11T15:06:33.001Z</time></trkpt><trkpt lat="45.732908785942406" lon="9.989598707496455"><ele>1083.0</ele><time>2026-04-11T15:06:34.001Z</time></trkpt><trkpt lat="45.733003269264486" lon="9.989542473079124"><ele>1083.0</ele><time>2026-04-11T15:06:35.001Z</time></trkpt><trkpt lat="45.73310043926228" lon="9.989461747817906"><ele>1083.0</ele><time>2026-04-11T15:06:36.001Z</time></trkpt><trkpt lat="45.73320116404796" lon="9.989394154303925"><ele>1083.0</ele><time>2026-04-11T15:06:37.001Z</time></trkpt><trkpt lat="45.73330872970005" lon="9.98937984081513"><ele>1083.0</ele><time>2026-04-11T15:06:38.001Z</time></trkpt><trkpt lat="45.73340650791988" lon="9.98936355980575"><ele>1083.0</ele><time>2026-04-11T15:06:39.001Z</time></trkpt><trkpt lat="45.73352464212344" lon="9.989336999781752"><ele>1083.0</ele><time>2026-04-11T15:06:40.001Z</time></trkpt><trkpt lat="45.73363744127448" lon="9.989329651142596"><ele>1083.0</ele><time>2026-04-11T15:06:41.001Z</time></trkpt><trkpt lat="45.73378011596365" lon="9.989337129878614"><ele>1083.0</ele><time>2026-04-11T15:06:42.001Z</time></trkpt><trkpt lat="45.73389988393405" lon="9.989353076705013"><ele>1083.5</ele><time>2026-04-11T15:06:43.001Z</time></trkpt><trkpt lat="45.73403184793743" lon="9.989368122231129"><ele>1084.0</ele><time>2026-04-11T15:06:44.001Z</time></trkpt><trkpt lat="45.73416077416675" lon="9.989382455424083"><ele>1084.5</ele><time>2026-04-11T15:06:45.001Z</time></trkpt><trkpt lat="45.734292645295426" lon="9.989403954103862"><ele>1085.0</ele><time>2026-04-11T15:06:46.001Z</time></trkpt><trkpt lat="45.73441596255169" lon="9.989435485561815"><ele>1087.75</ele><time>2026-04-11T15:06:47.001Z</time></trkpt><trkpt lat="45.73453282787134" lon="9.989480985634586"><ele>1090.5</ele><time>2026-04-11T15:06:48.001Z</time></trkpt><trkpt lat="45.73464403339613" lon="9.989512377502113"><ele>1093.25</ele><time>2026-04-11T15:06:49.001Z</time></trkpt><trkpt lat="45.734764259357775" lon="9.989516843748563"><ele>1096.0</ele><time>2026-04-11T15:06:50.001Z</time></trkpt><trkpt lat="45.73487774354112" lon="9.989524838065947"><ele>1096.0</ele><time>2026-04-11T15:06:51.001Z</time></trkpt><trkpt lat="45.735009425859104" lon="9.989538746806401"><ele>1096.0</ele><time>2026-04-11T15:06:52.001Z</time></trkpt><trkpt lat="45.73514131944418" lon="9.989551316449834"><ele>1096.0</ele><time>2026-04-11T15:06:53.001Z</time></trkpt><trkpt lat="45.73527436116384" lon="9.989565730087314"><ele>1096.0</ele><time>2026-04-11T15:06:54.001Z</time></trkpt><trkpt lat="45.73540780756917" lon="9.989583495972013"><ele>1100.25</ele><time>2026-04-11T15:06:55.001Z</time></trkpt><trkpt lat="45.73553766968267" lon="9.989609954189737"><ele>1104.5</ele><time>2026-04-11T15:06:56.001Z</time></trkpt><trkpt lat="45.73567616045284" lon="9.989651125014468"><ele>1108.75</ele><time>2026-04-11T15:06:57.001Z</time></trkpt><trkpt lat="45.7358049819029" lon="9.989693779047805"><ele>1113.0</ele><time>2026-04-11T15:06:58.001Z</time></trkpt><trkpt lat="45.73593347638746" lon="9.989721645840806"><ele>1113.0</ele><time>2026-04-11T15:06:59.001Z</time></trkpt><trkpt lat="45.73605264015549" lon="9.989770620748553"><ele>1113.0</ele><time>2026-04-11T15:07:00.001Z</time></trkpt><trkpt lat="45.7361573168405" lon="9.989822116021221"><ele>1113.0</ele><time>2026-04-11T15:07:01.001Z</time></trkpt><trkpt lat="45.73624043561316" lon="9.989869547418445"><ele>1113.0</ele><time>2026-04-11T15:07:02.001Z</time></trkpt><trkpt lat="45.73630704177865" lon="9.989907314779146"><ele>1113.0</ele><time>2026-04-11T15:07:03.001Z</time></trkpt><trkpt lat="45.73637092302856" lon="9.989925315813387"><ele>1114.2</ele><time>2026-04-11T15:07:04.001Z</time></trkpt><trkpt lat="45.736439860127824" lon="9.98989322223208"><ele>1115.4</ele><time>2026-04-11T15:07:05.001Z</time></trkpt><trkpt lat="45.736505565893026" lon="9.989832920295648"><ele>1116.6000000000001</ele><time>2026-04-11T15:07:06.001Z</time></trkpt><trkpt lat="45.736590705437585" lon="9.989754213614248"><ele>1117.8</ele><time>2026-04-11T15:07:07.001Z</time></trkpt><trkpt lat="45.73668217862203" lon="9.98967791181376"><ele>1119.0</ele><time>2026-04-11T15:07:08.001Z</time></trkpt><trkpt lat="45.73678472622414" lon="9.989593921975997"><ele>1115.5</ele><time>2026-04-11T15:07:09.001Z</time></trkpt><trkpt lat="45.73689162636356" lon="9.989504273827842"><ele>1112.0</ele><time>2026-04-11T15:07:10.001Z</time></trkpt><trkpt lat="45.736999105498576" lon="9.98943163057328"><ele>1108.5</ele><time>2026-04-11T15:07:11.001Z</time></trkpt><trkpt lat="45.73710887146274" lon="9.989364334316889"><ele>1105.0</ele><time>2026-04-11T15:07:12.001Z</time></trkpt><trkpt lat="45.73723195863279" lon="9.98931167338695"><ele>1105.0</ele><time>2026-04-11T15:07:13.001Z</time></trkpt><trkpt lat="45.73736034267028" lon="9.989254494357281"><ele>1105.0</ele><time>2026-04-11T15:07:14.001Z</time></trkpt><trkpt lat="45.737484148274596" lon="9.989206272199421"><ele>1105.0</ele><time>2026-04-11T15:07:15.001Z</time></trkpt><trkpt lat="45.737593160589576" lon="9.989166484323654"><ele>1105.0</ele><time>2026-04-11T15:07:16.001Z</time></trkpt><trkpt lat="45.7376960627095" lon="9.989128340511977"><ele>1109.0</ele><time>2026-04-11T15:07:17.001Z</time></trkpt><trkpt lat="45.73777432773405" lon="9.989076532399297"><ele>1113.0</ele><time>2026-04-11T15:07:18.001Z</time></trkpt><trkpt lat="45.737850091498835" lon="9.989026563371034"><ele>1117.0</ele><time>2026-04-11T15:07:19.001Z</time></trkpt><trkpt lat="45.7379135080729" lon="9.98895856632607"><ele>1121.0</ele><time>2026-04-11T15:07:20.001Z</time></trkpt><trkpt lat="45.73797087107643" lon="9.988898199578372"><ele>1125.0</ele><time>2026-04-11T15:07:21.001Z</time></trkpt><trkpt lat="45.73802606196988" lon="9.988837207383593"><ele>1129.0</ele><time>2026-04-11T15:07:22.001Z</time></trkpt><trkpt lat="45.73810074132523" lon="9.98875997632803"><ele>1129.0</ele><time>2026-04-11T15:07:23.001Z</time></trkpt><trkpt lat="45.73816020932782" lon="9.988689165910863"><ele>1129.0</ele><time>2026-04-11T15:07:24.001Z</time></trkpt><trkpt lat="45.73821032309051" lon="9.988629493889912"><ele>1129.0</ele><time>2026-04-11T15:07:25.001Z</time></trkpt><trkpt lat="45.738267160025195" lon="9.98856353285627"><ele>1129.0</ele><time>2026-04-11T15:07:26.001Z</time></trkpt><trkpt lat="45.73834120086521" lon="9.988502754378539"><ele>1129.0</ele><time>2026-04-11T15:07:27.001Z</time></trkpt><trkpt lat="45.73840193275032" lon="9.988404657125992"><ele>1129.0</ele><time>2026-04-11T15:07:28.001Z</time></trkpt><trkpt lat="45.738473135977735" lon="9.988325915744038"><ele>1132.0</ele><time>2026-04-11T15:07:29.001Z</time></trkpt><trkpt lat="45.73853577017692" lon="9.988227513784693"><ele>1135.0</ele><time>2026-04-11T15:07:30.001Z</time></trkpt><trkpt lat="45.738626769443414" lon="9.988116654559533"><ele>1138.0</ele><time>2026-04-11T15:07:31.001Z</time></trkpt><trkpt lat="45.738717419973554" lon="9.988037060341094"><ele>1141.0</ele><time>2026-04-11T15:07:32.001Z</time></trkpt><trkpt lat="45.73878951114308" lon="9.98795060304626"><ele>1144.0</ele><time>2026-04-11T15:07:33.001Z</time></trkpt><trkpt lat="45.7388448201564" lon="9.987854542938425"><ele>1144.0</ele><time>2026-04-11T15:07:34.001Z</time></trkpt><trkpt lat="45.7389600021256" lon="9.987800979904696"><ele>1144.0</ele><time>2026-04-11T15:07:36.001Z</time></trkpt><trkpt lat="45.73904900325238" lon="9.9877771249209"><ele>1144.0</ele><time>2026-04-11T15:07:38.001Z</time></trkpt><trkpt lat="45.73913640347458" lon="9.987777136679428"><ele>1144.0</ele><time>2026-04-11T15:07:40.001Z</time></trkpt><trkpt lat="45.73922476826325" lon="9.987777176853246"><ele>1144.0</ele><time>2026-04-11T15:07:42.001Z</time></trkpt><trkpt lat="45.73933422099102" lon="9.98777046226697"><ele>1144.2</ele><time>2026-04-11T15:07:44.001Z</time></trkpt><trkpt lat="45.73944777368367" lon="9.987761176561845"><ele>1144.4</ele><time>2026-04-11T15:07:46.001Z</time></trkpt><trkpt lat="45.73954771855099" lon="9.987747647560921"><ele>1144.6</ele><time>2026-04-11T15:07:48.001Z</time></trkpt><trkpt lat="45.73965099260713" lon="9.987735835105331"><ele>1144.8</ele><time>2026-04-11T15:07:50.001Z</time></trkpt><trkpt lat="45.739764720290395" lon="9.987685124493524"><ele>1145.0</ele><time>2026-04-11T15:07:52.001Z</time></trkpt><trkpt lat="45.73987836919838" lon="9.987584250381936"><ele>1145.0</ele><time>2026-04-11T15:07:54.001Z</time></trkpt><trkpt lat="45.73993927933779" lon="9.987535166782262"><ele>1145.0</ele><time>2026-04-11T15:07:55.001Z</time></trkpt><trkpt lat="45.73998821259674" lon="9.987475056709043"><ele>1145.0</ele><time>2026-04-11T15:07:56.001Z</time></trkpt><trkpt lat="45.74005918433024" lon="9.987388819724236"><ele>1145.0</ele><time>2026-04-11T15:07:57.001Z</time></trkpt><trkpt lat="45.74014874478424" lon="9.987301293383782"><ele>1145.0</ele><time>2026-04-11T15:07:58.001Z</time></trkpt><trkpt lat="45.740216475120846" lon="9.987200777870866"><ele>1145.0</ele><time>2026-04-11T15:07:59.001Z</time></trkpt><trkpt lat="45.74027831016846" lon="9.98707307934929"><ele>1148.3333333333335</ele><time>2026-04-11T15:08:00.001Z</time></trkpt><trkpt lat="45.7403410856008" lon="9.986959452882656"><ele>1151.6666666666667</ele><time>2026-04-11T15:08:01.001Z</time></trkpt><trkpt lat="45.7403900001201" lon="9.986857519945952"><ele>1155.0</ele><time>2026-04-11T15:08:02.001Z</time></trkpt><trkpt lat="45.740448272485224" lon="9.986762156546362"><ele>1158.3333333333333</ele><time>2026-04-11T15:08:03.001Z</time></trkpt><trkpt lat="45.74050747789278" lon="9.986683191798345"><ele>1161.6666666666665</ele><time>2026-04-11T15:08:04.001Z</time></trkpt><trkpt lat="45.74055644223835" lon="9.986590235857626"><ele>1165.0</ele><time>2026-04-11T15:08:05.001Z</time></trkpt><trkpt lat="45.74062469980853" lon="9.98652931973618"><ele>1164.9999999999998</ele><time>2026-04-11T15:08:06.001Z</time></trkpt><trkpt lat="45.74068551072876" lon="9.98646252448542"><ele>1165.0</ele><time>2026-04-11T15:08:07.001Z</time></trkpt><trkpt lat="45.74074486488304" lon="9.986409565184685"><ele>1165.0</ele><time>2026-04-11T15:08:08.001Z</time></trkpt><trkpt lat="45.740813817232514" lon="9.986371304127665"><ele>1165.0</ele><time>2026-04-11T15:08:09.001Z</time></trkpt><trkpt lat="45.74088238476965" lon="9.986346526909507"><ele>1165.0</ele><time>2026-04-11T15:08:10.001Z</time></trkpt><trkpt lat="45.7409440133145" lon="9.986320220358577"><ele>1164.9999999999998</ele><time>2026-04-11T15:08:11.001Z</time></trkpt><trkpt lat="45.74102584166541" lon="9.986287076267331"><ele>1165.0</ele><time>2026-04-11T15:08:12.001Z</time></trkpt><trkpt lat="45.74110148203725" lon="9.986248752839774"><ele>1169.8</ele><time>2026-04-11T15:08:13.001Z</time></trkpt><trkpt lat="45.7411834099552" lon="9.986208658318247"><ele>1174.6</ele><time>2026-04-11T15:08:14.001Z</time></trkpt><trkpt lat="45.74125970202582" lon="9.986143280777595"><ele>1179.4</ele><time>2026-04-11T15:08:15.001Z</time></trkpt><trkpt lat="45.741337486228524" lon="9.986082238282739"><ele>1184.2</ele><time>2026-04-11T15:08:16.001Z</time></trkpt><trkpt lat="45.74139144575877" lon="9.985986235289213"><ele>1189.0</ele><time>2026-04-11T15:08:17.001Z</time></trkpt><trkpt lat="45.741462648821454" lon="9.985880719634837"><ele>1185.5</ele><time>2026-04-11T15:08:18.001Z</time></trkpt><trkpt lat="45.74153506306084" lon="9.985776793169784"><ele>1182.0</ele><time>2026-04-11T15:08:19.001Z</time></trkpt><trkpt lat="45.741612948504596" lon="9.985700606825896"><ele>1178.5</ele><time>2026-04-11T15:08:20.001Z</time></trkpt><trkpt lat="45.741654532065006" lon="9.98558904261864"><ele>1175.0</ele><time>2026-04-11T15:08:21.001Z</time></trkpt><trkpt lat="45.74170040757023" lon="9.985501912115378"><ele>1171.5</ele><time>2026-04-11T15:08:22.001Z</time></trkpt><trkpt lat="45.74176806999282" lon="9.985429795072035"><ele>1168.0</ele><time>2026-04-11T15:08:23.001Z</time></trkpt><trkpt lat="45.74181438334027" lon="9.98533315966149"><ele>1171.8</ele><time>2026-04-11T15:08:24.001Z</time></trkpt><trkpt lat="45.741902304063686" lon="9.985232910633279"><ele>1175.6</ele><time>2026-04-11T15:08:26.001Z</time></trkpt><trkpt lat="45.741956193470166" lon="9.985105323098287"><ele>1179.4</ele><time>2026-04-11T15:08:28.001Z</time></trkpt><trkpt lat="45.74200194341875" lon="9.984933217514643"><ele>1183.2</ele><time>2026-04-11T15:08:30.001Z</time></trkpt><trkpt lat="45.74202099355936" lon="9.984843969727214"><ele>1187.0</ele><time>2026-04-11T15:08:31.001Z</time></trkpt><trkpt lat="45.742025162081354" lon="9.984700950155556"><ele>1187.0</ele><time>2026-04-11T15:08:32.001Z</time></trkpt><trkpt lat="45.74203881863678" lon="9.98458728412119"><ele>1187.0</ele><time>2026-04-11T15:08:33.001Z</time></trkpt><trkpt lat="45.74205610105136" lon="9.984473341138674"><ele>1187.0</ele><time>2026-04-11T15:08:34.001Z</time></trkpt><trkpt lat="45.74206688711656" lon="9.98437405414795"><ele>1187.0</ele><time>2026-04-11T15:08:35.001Z</time></trkpt><trkpt lat="45.74208891535307" lon="9.98425428787975"><ele>1187.0</ele><time>2026-04-11T15:08:36.001Z</time></trkpt><trkpt lat="45.74210184531083" lon="9.98414986413882"><ele>1187.0</ele><time>2026-04-11T15:08:37.001Z</time></trkpt><trkpt lat="45.74212435803525" lon="9.984043858793939"><ele>1185.5</ele><time>2026-04-11T15:08:38.001Z</time></trkpt><trkpt lat="45.742152781222785" lon="9.98393540459094"><ele>1184.0</ele><time>2026-04-11T15:08:39.001Z</time></trkpt><trkpt lat="45.7421975487854" lon="9.983828482749969"><ele>1182.5</ele><time>2026-04-11T15:08:40.001Z</time></trkpt><trkpt lat="45.742237128056225" lon="9.983730886962396"><ele>1181.0</ele><time>2026-04-11T15:08:41.001Z</time></trkpt><trkpt lat="45.74226720509861" lon="9.98361337475425"><ele>1179.5</ele><time>2026-04-11T15:08:42.001Z</time></trkpt><trkpt lat="45.74230147304034" lon="9.983509473433616"><ele>1178.0</ele><time>2026-04-11T15:08:43.001Z</time></trkpt><trkpt lat="45.74233027747414" lon="9.98340681301519"><ele>1176.4285714285713</ele><time>2026-04-11T15:08:44.001Z</time></trkpt><trkpt lat="45.742353753243684" lon="9.98331028760602"><ele>1174.8571428571427</ele><time>2026-04-11T15:08:45.001Z</time></trkpt><trkpt lat="45.74237069681243" lon="9.983208285106658"><ele>1173.2857142857142</ele><time>2026-04-11T15:08:46.001Z</time></trkpt><trkpt lat="45.74237704049675" lon="9.983112014327112"><ele>1171.7142857142858</ele><time>2026-04-11T15:08:47.001Z</time></trkpt><trkpt lat="45.74237308848677" lon="9.983017649290096"><ele>1170.1428571428573</ele><time>2026-04-11T15:08:48.001Z</time></trkpt><trkpt lat="45.74237095744757" lon="9.982911513342493"><ele>1168.5714285714287</ele><time>2026-04-11T15:08:49.001Z</time></trkpt><trkpt lat="45.74235089976773" lon="9.982790566319885"><ele>1167.0</ele><time>2026-04-11T15:08:50.001Z</time></trkpt><trkpt lat="45.74232202783461" lon="9.982668445691147"><ele>1167.0</ele><time>2026-04-11T15:08:51.001Z</time></trkpt><trkpt lat="45.74228532128632" lon="9.982531354954086"><ele>1167.0</ele><time>2026-04-11T15:08:52.001Z</time></trkpt><trkpt lat="45.742249530896" lon="9.982387499890752"><ele>1167.0</ele><time>2026-04-11T15:08:53.001Z</time></trkpt><trkpt lat="45.74221993634252" lon="9.982239341835749"><ele>1167.0</ele><time>2026-04-11T15:08:54.001Z</time></trkpt><trkpt lat="45.742180934065594" lon="9.982094414215855"><ele>1167.0</ele><time>2026-04-11T15:08:55.001Z</time></trkpt><trkpt lat="45.74214180656328" lon="9.98196748762312"><ele>1168.0</ele><time>2026-04-11T15:08:56.001Z</time></trkpt><trkpt lat="45.74210636524509" lon="9.981849090012776"><ele>1169.0</ele><time>2026-04-11T15:08:57.001Z</time></trkpt><trkpt lat="45.74207957086534" lon="9.98171071696228"><ele>1170.0</ele><time>2026-04-11T15:08:58.001Z</time></trkpt><trkpt lat="45.7420504078245" lon="9.98156349200974"><ele>1171.0</ele><time>2026-04-11T15:08:59.001Z</time></trkpt><trkpt lat="45.74203581127758" lon="9.981411275221728"><ele>1172.0</ele><time>2026-04-11T15:09:00.001Z</time></trkpt><trkpt lat="45.74202603249025" lon="9.981266891977878"><ele>1170.6666666666667</ele><time>2026-04-11T15:09:01.001Z</time></trkpt><trkpt lat="45.74200936041745" lon="9.981147846570039"><ele>1169.3333333333335</ele><time>2026-04-11T15:09:02.001Z</time></trkpt><trkpt lat="45.741999649864646" lon="9.981049014402991"><ele>1168.0</ele><time>2026-04-11T15:09:03.001Z</time></trkpt><trkpt lat="45.74200610125146" lon="9.98090021540024"><ele>1166.6666666666667</ele><time>2026-04-11T15:09:05.001Z</time></trkpt><trkpt lat="45.74209615011857" lon="9.980813075238778"><ele>1165.3333333333333</ele><time>2026-04-11T15:09:07.001Z</time></trkpt><trkpt lat="45.74215729300382" lon="9.98086209244735"><ele>1164.0</ele><time>2026-04-11T15:09:08.001Z</time></trkpt><trkpt lat="45.742221609236275" lon="9.980861363215379"><ele>1164.0</ele><time>2026-04-11T15:09:09.001Z</time></trkpt><trkpt lat="45.7422918323796" lon="9.98085653441177"><ele>1164.0</ele><time>2026-04-11T15:09:10.001Z</time></trkpt><trkpt lat="45.742370762832316" lon="9.980847877259995"><ele>1164.0</ele><time>2026-04-11T15:09:11.001Z</time></trkpt><trkpt lat="45.74246546964682" lon="9.980828966721035"><ele>1164.0</ele><time>2026-04-11T15:09:12.001Z</time></trkpt><trkpt lat="45.74257718645184" lon="9.980783693821358"><ele>1164.0</ele><time>2026-04-11T15:09:13.001Z</time></trkpt><trkpt lat="45.74267440655039" lon="9.98073265341387"><ele>1164.1666666666667</ele><time>2026-04-11T15:09:14.001Z</time></trkpt><trkpt lat="45.74276152160756" lon="9.980688290796499"><ele>1164.3333333333333</ele><time>2026-04-11T15:09:15.001Z</time></trkpt><trkpt lat="45.74284918607314" lon="9.980652319331176"><ele>1164.5</ele><time>2026-04-11T15:09:16.001Z</time></trkpt><trkpt lat="45.74292370113521" lon="9.980628504168836"><ele>1164.6666666666665</ele><time>2026-04-11T15:09:17.001Z</time></trkpt><trkpt lat="45.742986827315676" lon="9.98061460394225"><ele>1164.8333333333333</ele><time>2026-04-11T15:09:18.001Z</time></trkpt><trkpt lat="45.74309603812265" lon="9.980614828923922"><ele>1165.0</ele><time>2026-04-11T15:09:20.001Z</time></trkpt><trkpt lat="45.74316638943751" lon="9.980629034472827"><ele>1165.0</ele><time>2026-04-11T15:09:21.001Z</time></trkpt><trkpt lat="45.74324992795061" lon="9.980654921777639"><ele>1165.0</ele><time>2026-04-11T15:09:22.001Z</time></trkpt><trkpt lat="45.743347959172965" lon="9.980683334603096"><ele>1165.0</ele><time>2026-04-11T15:09:23.001Z</time></trkpt><trkpt lat="45.74344682147955" lon="9.980713597455118"><ele>1165.0</ele><time>2026-04-11T15:09:24.001Z</time></trkpt><trkpt lat="45.74354934434899" lon="9.98072336842442"><ele>1165.0</ele><time>2026-04-11T15:09:25.001Z</time></trkpt><trkpt lat="45.74364165077567" lon="9.98072223802192"><ele>1162.3333333333333</ele><time>2026-04-11T15:09:26.001Z</time></trkpt><trkpt lat="45.743734820253515" lon="9.980708557567867"><ele>1159.6666666666665</ele><time>2026-04-11T15:09:27.001Z</time></trkpt><trkpt lat="45.74382613831068" lon="9.980682379687448"><ele>1157.0</ele><time>2026-04-11T15:09:28.001Z</time></trkpt><trkpt lat="45.74390394538929" lon="9.980647875936866"><ele>1154.3333333333333</ele><time>2026-04-11T15:09:29.001Z</time></trkpt><trkpt lat="45.74396756746615" lon="9.980601448547839"><ele>1151.6666666666667</ele><time>2026-04-11T15:09:30.001Z</time></trkpt><trkpt lat="45.74406933408448" lon="9.980571014321148"><ele>1149.0</ele><time>2026-04-11T15:09:32.001Z</time></trkpt><trkpt lat="45.74416409647196" lon="9.980541939645699"><ele>1149.0</ele><time>2026-04-11T15:09:34.001Z</time></trkpt><trkpt lat="45.74422862233116" lon="9.980521249552899"><ele>1149.0</ele><time>2026-04-11T15:09:37.001Z</time></trkpt><trkpt lat="45.74430076594286" lon="9.98048800750914"><ele>1149.0</ele><time>2026-04-11T15:09:41.001Z</time></trkpt><trkpt lat="45.744375168350984" lon="9.98041224519148"><ele>1149.0</ele><time>2026-04-11T15:10:10.001Z</time></trkpt><trkpt lat="45.74446565362232" lon="9.980355372596337"><ele>1149.0</ele><time>2026-04-11T15:10:12.001Z</time></trkpt><trkpt lat="45.744520459938116" lon="9.980224548352878"><ele>1149.0</ele><time>2026-04-11T15:10:14.001Z</time></trkpt><trkpt lat="45.74458620272685" lon="9.980145661460519"><ele>1148.4</ele><time>2026-04-11T15:10:16.001Z</time></trkpt><trkpt lat="45.744660323397476" lon="9.98003321462057"><ele>1147.8000000000002</ele><time>2026-04-11T15:10:18.001Z</time></trkpt><trkpt lat="45.744738610754645" lon="9.97990433209597"><ele>1147.1999999999998</ele><time>2026-04-11T15:10:20.001Z</time></trkpt><trkpt lat="45.74481912056978" lon="9.9797644809546"><ele>1146.6</ele><time>2026-04-11T15:10:22.001Z</time></trkpt><trkpt lat="45.744865343512764" lon="9.979680368603548"><ele>1146.0</ele><time>2026-04-11T15:10:23.001Z</time></trkpt><trkpt lat="45.744913684066866" lon="9.979611643097453"><ele>1146.0</ele><time>2026-04-11T15:10:24.001Z</time></trkpt><trkpt lat="45.744974816761335" lon="9.97954229505123"><ele>1146.0</ele><time>2026-04-11T15:10:25.001Z</time></trkpt><trkpt lat="45.74504140808799" lon="9.97947510217668"><ele>1146.0</ele><time>2026-04-11T15:10:26.001Z</time></trkpt><trkpt lat="45.74510218860329" lon="9.979414018877867"><ele>1146.0</ele><time>2026-04-11T15:10:27.001Z</time></trkpt><trkpt lat="45.7451653583598" lon="9.979361163137952"><ele>1146.0</ele><time>2026-04-11T15:10:28.001Z</time></trkpt><trkpt lat="45.74522839686055" lon="9.979307526659598"><ele>1146.0</ele><time>2026-04-11T15:10:29.001Z</time></trkpt><trkpt lat="45.745303173166754" lon="9.979244758826677"><ele>1147.2</ele><time>2026-04-11T15:10:30.001Z</time></trkpt><trkpt lat="45.74539152048862" lon="9.979182048861704"><ele>1148.3999999999999</ele><time>2026-04-11T15:10:31.001Z</time></trkpt><trkpt lat="45.74547005552512" lon="9.97913266819347"><ele>1149.6</ele><time>2026-04-11T15:10:32.001Z</time></trkpt><trkpt lat="45.74557312908589" lon="9.979061677829158"><ele>1150.8</ele><time>2026-04-11T15:10:34.001Z</time></trkpt><trkpt lat="45.745675120229166" lon="9.978985240301752"><ele>1152.0</ele><time>2026-04-11T15:10:36.001Z</time></trkpt><trkpt lat="45.74578384305421" lon="9.978879628273685"><ele>1152.0</ele><time>2026-04-11T15:10:38.001Z</time></trkpt><trkpt lat="45.74590115747601" lon="9.978789936325564"><ele>1152.0</ele><time>2026-04-11T15:10:40.001Z</time></trkpt><trkpt lat="45.74597428049623" lon="9.978745708269908"><ele>1152.0</ele><time>2026-04-11T15:10:41.001Z</time></trkpt><trkpt lat="45.746032339997804" lon="9.97870060631062"><ele>1152.0</ele><time>2026-04-11T15:10:42.001Z</time></trkpt><trkpt lat="45.74609707149548" lon="9.978641876088108"><ele>1152.0</ele><time>2026-04-11T15:10:43.001Z</time></trkpt><trkpt lat="45.74616259778099" lon="9.978596210437724"><ele>1152.0</ele><time>2026-04-11T15:10:44.001Z</time></trkpt><trkpt lat="45.746232398582585" lon="9.97855845071289"><ele>1154.1666666666667</ele><time>2026-04-11T15:10:45.001Z</time></trkpt><trkpt lat="45.746299338689944" lon="9.97852720037934"><ele>1156.3333333333333</ele><time>2026-04-11T15:10:46.001Z</time></trkpt><trkpt lat="45.74636865167154" lon="9.978501358601141"><ele>1158.5</ele><time>2026-04-11T15:10:47.001Z</time></trkpt><trkpt lat="45.746440512829025" lon="9.978461187688247"><ele>1160.6666666666665</ele><time>2026-04-11T15:10:48.001Z</time></trkpt><trkpt lat="45.74649907272483" lon="9.978412788574149"><ele>1162.8333333333333</ele><time>2026-04-11T15:10:49.001Z</time></trkpt><trkpt lat="45.746557999522246" lon="9.978364064303946"><ele>1165.0</ele><time>2026-04-11T15:10:50.001Z</time></trkpt><trkpt lat="45.74664704056687" lon="9.978279918942274"><ele>1165.0</ele><time>2026-04-11T15:10:52.001Z</time></trkpt><trkpt lat="45.746719489052445" lon="9.978203355280852"><ele>1165.0</ele><time>2026-04-11T15:10:54.001Z</time></trkpt><trkpt lat="45.74681281909031" lon="9.978082616785002"><ele>1165.0</ele><time>2026-04-11T15:10:56.001Z</time></trkpt><trkpt lat="45.74687535006503" lon="9.97802213136316"><ele>1165.0</ele><time>2026-04-11T15:10:57.001Z</time></trkpt><trkpt lat="45.74692783695893" lon="9.977967911522326"><ele>1165.0</ele><time>2026-04-11T15:10:58.001Z</time></trkpt><trkpt lat="45.74701154395678" lon="9.977882640351607"><ele>1161.0</ele><time>2026-04-11T15:11:00.001Z</time></trkpt><trkpt lat="45.747106563277775" lon="9.977804420618792"><ele>1157.0</ele><time>2026-04-11T15:11:02.001Z</time></trkpt><trkpt lat="45.747212819271056" lon="9.97769886609327"><ele>1153.0</ele><time>2026-04-11T15:11:04.001Z</time></trkpt><trkpt lat="45.747280063599824" lon="9.977654725792906"><ele>1149.0</ele><time>2026-04-11T15:11:05.001Z</time></trkpt><trkpt lat="45.74735966313468" lon="9.977612744785626"><ele>1145.0</ele><time>2026-04-11T15:11:06.001Z</time></trkpt><trkpt lat="45.747437726221754" lon="9.977575111785011"><ele>1145.0</ele><time>2026-04-11T15:11:07.001Z</time></trkpt><trkpt lat="45.74753272908721" lon="9.977541705877723"><ele>1145.0</ele><time>2026-04-11T15:11:08.001Z</time></trkpt><trkpt lat="45.747659805850034" lon="9.977495701134123"><ele>1145.0</ele><time>2026-04-11T15:11:09.001Z</time></trkpt><trkpt lat="45.74777549187748" lon="9.977428809704165"><ele>1145.0</ele><time>2026-04-11T15:11:10.001Z</time></trkpt><trkpt lat="45.74788341816532" lon="9.977363973782044"><ele>1148.5</ele><time>2026-04-11T15:11:11.001Z</time></trkpt><trkpt lat="45.7479938236162" lon="9.977305582034134"><ele>1152.0</ele><time>2026-04-11T15:11:12.001Z</time></trkpt><trkpt lat="45.74810341496071" lon="9.977243467827085"><ele>1155.5</ele><time>2026-04-11T15:11:13.001Z</time></trkpt><trkpt lat="45.74820757043607" lon="9.977185767380096"><ele>1159.0</ele><time>2026-04-11T15:11:14.001Z</time></trkpt><trkpt lat="45.748305434573915" lon="9.977116062203883"><ele>1159.0</ele><time>2026-04-11T15:11:15.001Z</time></trkpt><trkpt lat="45.748402031799046" lon="9.977038486584595"><ele>1159.0</ele><time>2026-04-11T15:11:16.001Z</time></trkpt><trkpt lat="45.748502194093646" lon="9.976964554789983"><ele>1159.0</ele><time>2026-04-11T15:11:17.001Z</time></trkpt><trkpt lat="45.748605496519254" lon="9.976888563763769"><ele>1159.0</ele><time>2026-04-11T15:11:18.001Z</time></trkpt><trkpt lat="45.74871124241939" lon="9.976807992037076"><ele>1159.5</ele><time>2026-04-11T15:11:19.001Z</time></trkpt><trkpt lat="45.74881829831016" lon="9.976727695137141"><ele>1160.0</ele><time>2026-04-11T15:11:20.001Z</time></trkpt><trkpt lat="45.74892554927833" lon="9.97664156503335"><ele>1160.5</ele><time>2026-04-11T15:11:21.001Z</time></trkpt><trkpt lat="45.74902642515714" lon="9.9765575400163"><ele>1161.0</ele><time>2026-04-11T15:11:22.001Z</time></trkpt><trkpt lat="45.74912359602973" lon="9.97648335239308"><ele>1162.8333333333333</ele><time>2026-04-11T15:11:23.001Z</time></trkpt><trkpt lat="45.74919375059684" lon="9.976442511062334"><ele>1164.6666666666667</ele><time>2026-04-11T15:11:24.001Z</time></trkpt><trkpt lat="45.749254684382606" lon="9.976399282420132"><ele>1166.5</ele><time>2026-04-11T15:11:25.001Z</time></trkpt><trkpt lat="45.74932588507659" lon="9.976325820240376"><ele>1168.3333333333335</ele><time>2026-04-11T15:11:26.001Z</time></trkpt><trkpt lat="45.74940097497573" lon="9.976230374047367"><ele>1170.1666666666667</ele><time>2026-04-11T15:11:27.001Z</time></trkpt><trkpt lat="45.749480926359546" lon="9.976121400755554"><ele>1172.0</ele><time>2026-04-11T15:11:28.001Z</time></trkpt><trkpt lat="45.749563841756746" lon="9.975996492918258"><ele>1173.5</ele><time>2026-04-11T15:11:29.001Z</time></trkpt><trkpt lat="45.74964013150267" lon="9.975863323020414"><ele>1175.0</ele><time>2026-04-11T15:11:30.001Z</time></trkpt><trkpt lat="45.749716594629575" lon="9.975730932033823"><ele>1176.5</ele><time>2026-04-11T15:11:31.001Z</time></trkpt><trkpt lat="45.749790345285156" lon="9.97560249543664"><ele>1178.0</ele><time>2026-04-11T15:11:32.001Z</time></trkpt><trkpt lat="45.749863054858004" lon="9.975476821734013"><ele>1178.0</ele><time>2026-04-11T15:11:33.001Z</time></trkpt><trkpt lat="45.74992150268755" lon="9.97534574659271"><ele>1178.0</ele><time>2026-04-11T15:11:34.001Z</time></trkpt><trkpt lat="45.749987623763715" lon="9.975207095739819"><ele>1178.0</ele><time>2026-04-11T15:11:35.001Z</time></trkpt><trkpt lat="45.750038019315866" lon="9.975044842114338"><ele>1178.0</ele><time>2026-04-11T15:11:36.001Z</time></trkpt><trkpt lat="45.750077944868174" lon="9.974891375319373"><ele>1181.5</ele><time>2026-04-11T15:11:37.001Z</time></trkpt><trkpt lat="45.75011682620223" lon="9.974715310055092"><ele>1185.0</ele><time>2026-04-11T15:11:38.001Z</time></trkpt><trkpt lat="45.750130529623846" lon="9.974532630870877"><ele>1188.5</ele><time>2026-04-11T15:11:39.001Z</time></trkpt><trkpt lat="45.750166239736956" lon="9.97434810983011"><ele>1192.0</ele><time>2026-04-11T15:11:40.001Z</time></trkpt><trkpt lat="45.75017696892992" lon="9.974187522130832"><ele>1192.6</ele><time>2026-04-11T15:11:41.001Z</time></trkpt><trkpt lat="45.75018833048252" lon="9.97404363250297"><ele>1193.2</ele><time>2026-04-11T15:11:42.001Z</time></trkpt><trkpt lat="45.75020506197757" lon="9.97392704381718"><ele>1193.8</ele><time>2026-04-11T15:11:43.001Z</time></trkpt><trkpt lat="45.75022003982499" lon="9.973834270761607"><ele>1194.4</ele><time>2026-04-11T15:11:44.001Z</time></trkpt><trkpt lat="45.75025258429176" lon="9.973698086815398"><ele>1195.0</ele><time>2026-04-11T15:11:46.001Z</time></trkpt><trkpt lat="45.750324116945734" lon="9.97353623232139"><ele>1200.4</ele><time>2026-04-11T15:11:48.001Z</time></trkpt><trkpt lat="45.75037173398176" lon="9.973443778478323"><ele>1205.8</ele><time>2026-04-11T15:11:49.001Z</time></trkpt><trkpt lat="45.75043227386288" lon="9.973351705297945"><ele>1211.2</ele><time>2026-04-11T15:11:50.001Z</time></trkpt><trkpt lat="45.75050436721291" lon="9.973255209509466"><ele>1216.6</ele><time>2026-04-11T15:11:51.001Z</time></trkpt><trkpt lat="45.75059051273104" lon="9.97314793844449"><ele>1222.0</ele><time>2026-04-11T15:11:52.001Z</time></trkpt><trkpt lat="45.75067919153228" lon="9.973048809808983"><ele>1222.5</ele><time>2026-04-11T15:11:53.001Z</time></trkpt><trkpt lat="45.7507638487651" lon="9.972932211716197"><ele>1223.0</ele><time>2026-04-11T15:11:54.001Z</time></trkpt><trkpt lat="45.75087318780001" lon="9.972857207964559"><ele>1223.5</ele><time>2026-04-11T15:11:55.001Z</time></trkpt><trkpt lat="45.75097332743557" lon="9.972745926387356"><ele>1224.0</ele><time>2026-04-11T15:11:56.001Z</time></trkpt><trkpt lat="45.751080509706924" lon="9.972651367462369"><ele>1228.0</ele><time>2026-04-11T15:11:57.001Z</time></trkpt><trkpt lat="45.75117304864922" lon="9.972518840314608"><ele>1232.0</ele><time>2026-04-11T15:11:58.001Z</time></trkpt><trkpt lat="45.75128800161856" lon="9.972405682169816"><ele>1236.0</ele><time>2026-04-11T15:11:59.001Z</time></trkpt><trkpt lat="45.75139443144064" lon="9.972269861048265"><ele>1240.0</ele><time>2026-04-11T15:12:00.001Z</time></trkpt><trkpt lat="45.75150348542034" lon="9.972133541732678"><ele>1240.0</ele><time>2026-04-11T15:12:01.001Z</time></trkpt><trkpt lat="45.75161765430824" lon="9.97200923990443"><ele>1240.0</ele><time>2026-04-11T15:12:02.001Z</time></trkpt><trkpt lat="45.75172264187727" lon="9.971869401175523"><ele>1240.0</ele><time>2026-04-11T15:12:03.001Z</time></trkpt><trkpt lat="45.75183066361148" lon="9.971747494752528"><ele>1240.0</ele><time>2026-04-11T15:12:04.001Z</time></trkpt><trkpt lat="45.75193787814999" lon="9.971630923257614"><ele>1240.25</ele><time>2026-04-11T15:12:05.001Z</time></trkpt><trkpt lat="45.75204357203095" lon="9.971509430965446"><ele>1240.5</ele><time>2026-04-11T15:12:06.001Z</time></trkpt><trkpt lat="45.75214643741076" lon="9.971402849658757"><ele>1240.75</ele><time>2026-04-11T15:12:07.001Z</time></trkpt><trkpt lat="45.7522346556886" lon="9.971301499753336"><ele>1241.0</ele><time>2026-04-11T15:12:08.001Z</time></trkpt><trkpt lat="45.75231787588138" lon="9.971169351914149"><ele>1241.0</ele><time>2026-04-11T15:12:09.001Z</time></trkpt><trkpt lat="45.752417790196034" lon="9.971025474179019"><ele>1241.0</ele><time>2026-04-11T15:12:10.001Z</time></trkpt><trkpt lat="45.752526550513124" lon="9.970913429433978"><ele>1241.0</ele><time>2026-04-11T15:12:11.001Z</time></trkpt><trkpt lat="45.75259898087018" lon="9.97071413272234"><ele>1241.0</ele><time>2026-04-11T15:12:12.001Z</time></trkpt><trkpt lat="45.75267613312544" lon="9.970534237880244"><ele>1239.0</ele><time>2026-04-11T15:12:13.001Z</time></trkpt><trkpt lat="45.75274140544812" lon="9.970361137559484"><ele>1237.0</ele><time>2026-04-11T15:12:14.001Z</time></trkpt><trkpt lat="45.752735506904656" lon="9.97023263480772"><ele>1235.0</ele><time>2026-04-11T15:12:15.001Z</time></trkpt><trkpt lat="45.75275712350643" lon="9.970079314134592"><ele>1233.0</ele><time>2026-04-11T15:12:16.001Z</time></trkpt><trkpt lat="45.75276948211714" lon="9.969944662925785"><ele>1231.0</ele><time>2026-04-11T15:12:17.001Z</time></trkpt><trkpt lat="45.75277385309568" lon="9.969803420512093"><ele>1231.0</ele><time>2026-04-11T15:12:18.001Z</time></trkpt><trkpt lat="45.75279894779352" lon="9.96963731162377"><ele>1231.0</ele><time>2026-04-11T15:12:19.001Z</time></trkpt><trkpt lat="45.75281262730288" lon="9.969432430541058"><ele>1231.0</ele><time>2026-04-11T15:12:20.001Z</time></trkpt><trkpt lat="45.75280539743604" lon="9.969246796372541"><ele>1231.0</ele><time>2026-04-11T15:12:21.001Z</time></trkpt><trkpt lat="45.752789347040405" lon="9.96905684297915"><ele>1231.25</ele><time>2026-04-11T15:12:22.001Z</time></trkpt><trkpt lat="45.75277060290847" lon="9.968867912117418"><ele>1231.5</ele><time>2026-04-11T15:12:23.001Z</time></trkpt><trkpt lat="45.75274018221289" lon="9.968690323286447"><ele>1231.75</ele><time>2026-04-11T15:12:24.001Z</time></trkpt><trkpt lat="45.75270283167114" lon="9.968523131733484"><ele>1232.0</ele><time>2026-04-11T15:12:25.001Z</time></trkpt><trkpt lat="45.752656501667964" lon="9.968359738833867"><ele>1232.0</ele><time>2026-04-11T15:12:26.001Z</time></trkpt><trkpt lat="45.75260393945921" lon="9.968188904149216"><ele>1232.0</ele><time>2026-04-11T15:12:27.001Z</time></trkpt><trkpt lat="45.752546767550555" lon="9.968013294408449"><ele>1232.0</ele><time>2026-04-11T15:12:28.001Z</time></trkpt><trkpt lat="45.752498257590474" lon="9.96782876552368"><ele>1232.0</ele><time>2026-04-11T15:12:29.001Z</time></trkpt><trkpt lat="45.75245686123657" lon="9.967647039239463"><ele>1234.25</ele><time>2026-04-11T15:12:30.001Z</time></trkpt><trkpt lat="45.75242137069825" lon="9.96746722051445"><ele>1236.5</ele><time>2026-04-11T15:12:31.001Z</time></trkpt><trkpt lat="45.75239425272821" lon="9.967288965929592"><ele>1238.75</ele><time>2026-04-11T15:12:32.001Z</time></trkpt><trkpt lat="45.75237281268744" lon="9.967106888863318"><ele>1241.0</ele><time>2026-04-11T15:12:33.001Z</time></trkpt><trkpt lat="45.752351873233124" lon="9.966928021401879"><ele>1241.0</ele><time>2026-04-11T15:12:34.001Z</time></trkpt><trkpt lat="45.7523313069818" lon="9.966752055762262"><ele>1241.0</ele><time>2026-04-11T15:12:35.001Z</time></trkpt><trkpt lat="45.75231047444804" lon="9.96658306783027"><ele>1241.0</ele><time>2026-04-11T15:12:36Z</time></trkpt><trkpt lat="45.752289817575374" lon="9.966420280746245"><ele>1241.0</ele><time>2026-04-11T15:12:37Z</time></trkpt><trkpt lat="45.75226745393417" lon="9.966267441307096"><ele>1241.3333333333335</ele><time>2026-04-11T15:12:38Z</time></trkpt><trkpt lat="45.752244056660935" lon="9.966130212661973"><ele>1241.6666666666667</ele><time>2026-04-11T15:12:39Z</time></trkpt><trkpt lat="45.75221679679905" lon="9.966007839292608"><ele>1242.0</ele><time>2026-04-11T15:12:40Z</time></trkpt><trkpt lat="45.75219493414653" lon="9.965917916586932"><ele>1242.3333333333333</ele><time>2026-04-11T15:12:41Z</time></trkpt><trkpt lat="45.75216328519054" lon="9.965822899537844"><ele>1242.6666666666665</ele><time>2026-04-11T15:12:44Z</time></trkpt><trkpt lat="45.75226855780281" lon="9.965853560716022"><ele>1243.0</ele><time>2026-04-11T15:13:14Z</time></trkpt><trkpt lat="45.752327101428115" lon="9.965910785458941"><ele>1244.1666666666665</ele><time>2026-04-11T15:13:15Z</time></trkpt><trkpt lat="45.75239946031635" lon="9.96596549483707"><ele>1245.3333333333333</ele><time>2026-04-11T15:13:16Z</time></trkpt><trkpt lat="45.75248155183337" lon="9.966000223649074"><ele>1246.5</ele><time>2026-04-11T15:13:17Z</time></trkpt><trkpt lat="45.75256377590457" lon="9.966039358389494"><ele>1247.6666666666667</ele><time>2026-04-11T15:13:18Z</time></trkpt><trkpt lat="45.75265057097906" lon="9.966074082597984"><ele>1248.8333333333335</ele><time>2026-04-11T15:13:19Z</time></trkpt><trkpt lat="45.75274205981458" lon="9.966114427949782"><ele>1250.0</ele><time>2026-04-11T15:13:20Z</time></trkpt><trkpt lat="45.75284470188544" lon="9.966157861421202"><ele>1253.6</ele><time>2026-04-11T15:13:21Z</time></trkpt><trkpt lat="45.7529428837764" lon="9.96619588652375"><ele>1257.2</ele><time>2026-04-11T15:13:22Z</time></trkpt><trkpt lat="45.7530509881956" lon="9.966232195471312"><ele>1260.8</ele><time>2026-04-11T15:13:23Z</time></trkpt><trkpt lat="45.75316368752449" lon="9.966264217205303"><ele>1264.4</ele><time>2026-04-11T15:13:24Z</time></trkpt><trkpt lat="45.75328245701261" lon="9.966294204623985"><ele>1268.0</ele><time>2026-04-11T15:13:25Z</time></trkpt><trkpt lat="45.753398471063726" lon="9.96632965817905"><ele>1268.0</ele><time>2026-04-11T15:13:26Z</time></trkpt><trkpt lat="45.753503222309604" lon="9.966365034096205"><ele>1268.0</ele><time>2026-04-11T15:13:27Z</time></trkpt><trkpt lat="45.753610898297524" lon="9.966402780676669"><ele>1268.0</ele><time>2026-04-11T15:13:28Z</time></trkpt><trkpt lat="45.75371543545937" lon="9.966442702729067"><ele>1268.0</ele><time>2026-04-11T15:13:29Z</time></trkpt><trkpt lat="45.75381292142005" lon="9.96648930104891"><ele>1268.0</ele><time>2026-04-11T15:13:30Z</time></trkpt><trkpt lat="45.75390657912926" lon="9.966533617511539"><ele>1267.8333333333335</ele><time>2026-04-11T15:13:31.001Z</time></trkpt><trkpt lat="45.75399357435901" lon="9.966575871525045"><ele>1267.6666666666667</ele><time>2026-04-11T15:13:32.001Z</time></trkpt><trkpt lat="45.75407723312401" lon="9.96660752423066"><ele>1267.5</ele><time>2026-04-11T15:13:33.001Z</time></trkpt><trkpt lat="45.7541610135262" lon="9.966631692396298"><ele>1267.3333333333333</ele><time>2026-04-11T15:13:34.001Z</time></trkpt><trkpt lat="45.7542484895955" lon="9.966643420144015"><ele>1267.1666666666665</ele><time>2026-04-11T15:13:35.001Z</time></trkpt><trkpt lat="45.75434473141412" lon="9.966644455304808"><ele>1267.0</ele><time>2026-04-11T15:13:36.001Z</time></trkpt><trkpt lat="45.75444917023271" lon="9.966624607649724"><ele>1268.3333333333333</ele><time>2026-04-11T15:13:37.001Z</time></trkpt><trkpt lat="45.754546112815454" lon="9.966609355851892"><ele>1269.6666666666665</ele><time>2026-04-11T15:13:38.001Z</time></trkpt><trkpt lat="45.75463555636282" lon="9.966599480257528"><ele>1271.0</ele><time>2026-04-11T15:13:39.001Z</time></trkpt><trkpt lat="45.75472180644886" lon="9.96659822870871"><ele>1272.3333333333333</ele><time>2026-04-11T15:13:40.001Z</time></trkpt><trkpt lat="45.754790672309184" lon="9.966601882902648"><ele>1273.6666666666667</ele><time>2026-04-11T15:13:41.001Z</time></trkpt><trkpt lat="45.75489490644762" lon="9.966616673909204"><ele>1275.0</ele><time>2026-04-11T15:13:43.001Z</time></trkpt><trkpt lat="45.75499672813678" lon="9.966632705517217"><ele>1275.0</ele><time>2026-04-11T15:13:45.001Z</time></trkpt><trkpt lat="45.755114260490664" lon="9.966664785706058"><ele>1275.0</ele><time>2026-04-11T15:13:47.001Z</time></trkpt><trkpt lat="45.75518283717276" lon="9.966683986184583"><ele>1275.0</ele><time>2026-04-11T15:13:48.001Z</time></trkpt><trkpt lat="45.755252443285386" lon="9.96671322415137"><ele>1275.0</ele><time>2026-04-11T15:13:49.001Z</time></trkpt><trkpt lat="45.75533480823096" lon="9.966727381747868"><ele>1275.0</ele><time>2026-04-11T15:13:50.001Z</time></trkpt><trkpt lat="45.75540253808743" lon="9.96675661512109"><ele>1275.0</ele><time>2026-04-11T15:13:51.001Z</time></trkpt><trkpt lat="45.75547457333049" lon="9.966790211552206"><ele>1272.8333333333333</ele><time>2026-04-11T15:13:52.001Z</time></trkpt><trkpt lat="45.755537521706756" lon="9.96681380915196"><ele>1270.6666666666667</ele><time>2026-04-11T15:13:53.001Z</time></trkpt><trkpt lat="45.755600128330805" lon="9.966839537213259"><ele>1268.5</ele><time>2026-04-11T15:13:54.001Z</time></trkpt><trkpt lat="45.75570777730811" lon="9.966885873041134"><ele>1266.3333333333335</ele><time>2026-04-11T15:13:56.001Z</time></trkpt><trkpt lat="45.75580264472739" lon="9.966929024649046"><ele>1264.1666666666667</ele><time>2026-04-11T15:13:58.001Z</time></trkpt><trkpt lat="45.755877864370106" lon="9.96696184625404"><ele>1262.0</ele><time>2026-04-11T15:14:00.001Z</time></trkpt><trkpt lat="45.755943468949795" lon="9.96699776712963"><ele>1262.0</ele><time>2026-04-11T15:14:07.001Z</time></trkpt><trkpt lat="45.7560042203874" lon="9.967021637383901"><ele>1262.0</ele><time>2026-04-11T15:14:10.001Z</time></trkpt><trkpt lat="45.756097646128474" lon="9.967064541771121"><ele>1262.0</ele><time>2026-04-11T15:14:22.001Z</time></trkpt><trkpt lat="45.75618137483066" lon="9.967077648392054"><ele>1262.0</ele><time>2026-04-11T15:14:25Z</time></trkpt><trkpt lat="45.75625005330109" lon="9.967080585588626"><ele>1262.0</ele><time>2026-04-11T15:14:30Z</time></trkpt><trkpt lat="45.75633171111907" lon="9.967132630738288"><ele>1262.0</ele><time>2026-04-11T15:14:33Z</time></trkpt><trkpt lat="45.756416391017176" lon="9.967212599694676"><ele>1259.4</ele><time>2026-04-11T15:14:35Z</time></trkpt><trkpt lat="45.75653189937911" lon="9.967304034435099"><ele>1256.8000000000002</ele><time>2026-04-11T15:14:37Z</time></trkpt><trkpt lat="45.75660532516983" lon="9.967351158144067"><ele>1254.2</ele><time>2026-04-11T15:14:38Z</time></trkpt><trkpt lat="45.75668049316356" lon="9.9674155038553"><ele>1251.6000000000001</ele><time>2026-04-11T15:14:39Z</time></trkpt><trkpt lat="45.756758345952846" lon="9.967484262494965"><ele>1249.0</ele><time>2026-04-11T15:14:40Z</time></trkpt><trkpt lat="45.75685486575732" lon="9.967543344202635"><ele>1255.0</ele><time>2026-04-11T15:14:41Z</time></trkpt><trkpt lat="45.75694087565103" lon="9.96759788297463"><ele>1261.0</ele><time>2026-04-11T15:14:42Z</time></trkpt><trkpt lat="45.75701866251091" lon="9.967659130560595"><ele>1267.0</ele><time>2026-04-11T15:14:43Z</time></trkpt><trkpt lat="45.75709042973704" lon="9.967730195991619"><ele>1273.0</ele><time>2026-04-11T15:14:44Z</time></trkpt><trkpt lat="45.757165726601905" lon="9.967804800519868"><ele>1279.0</ele><time>2026-04-11T15:14:45Z</time></trkpt><trkpt lat="45.75724793385856" lon="9.96788023818143"><ele>1279.0</ele><time>2026-04-11T15:14:46Z</time></trkpt><trkpt lat="45.75732809425244" lon="9.96797067455784"><ele>1279.0</ele><time>2026-04-11T15:14:47Z</time></trkpt><trkpt lat="45.757403771306485" lon="9.968068021031169"><ele>1279.0</ele><time>2026-04-11T15:14:48Z</time></trkpt><trkpt lat="45.757489561508514" lon="9.968152423330624"><ele>1279.0</ele><time>2026-04-11T15:14:49Z</time></trkpt><trkpt lat="45.75757926442521" lon="9.968234231424383"><ele>1279.0</ele><time>2026-04-11T15:14:50Z</time></trkpt><trkpt lat="45.75766626478398" lon="9.968306629841189"><ele>1277.0</ele><time>2026-04-11T15:14:51Z</time></trkpt><trkpt lat="45.757767592171625" lon="9.968385319446362"><ele>1275.0</ele><time>2026-04-11T15:14:52Z</time></trkpt><trkpt lat="45.75787378508702" lon="9.968458805387304"><ele>1273.0</ele><time>2026-04-11T15:14:53Z</time></trkpt><trkpt lat="45.75797954468688" lon="9.968516672076037"><ele>1271.0</ele><time>2026-04-11T15:14:54Z</time></trkpt><trkpt lat="45.758095391309496" lon="9.96857635096877"><ele>1271.0</ele><time>2026-04-11T15:14:55Z</time></trkpt><trkpt lat="45.75821042793832" lon="9.968631476248042"><ele>1271.0</ele><time>2026-04-11T15:14:56Z</time></trkpt><trkpt lat="45.75833037669043" lon="9.9686772491596"><ele>1271.0</ele><time>2026-04-11T15:14:57Z</time></trkpt><trkpt lat="45.75844893411394" lon="9.96871656953851"><ele>1271.0</ele><time>2026-04-11T15:14:58Z</time></trkpt><trkpt lat="45.7585768706647" lon="9.968768337532774"><ele>1275.0</ele><time>2026-04-11T15:14:59Z</time></trkpt><trkpt lat="45.75870514077915" lon="9.968815672337895"><ele>1279.0</ele><time>2026-04-11T15:15:00Z</time></trkpt><trkpt lat="45.75882922584693" lon="9.968856585831098"><ele>1283.0</ele><time>2026-04-11T15:15:01Z</time></trkpt><trkpt lat="45.75895573672778" lon="9.968910129358116"><ele>1287.0</ele><time>2026-04-11T15:15:02Z</time></trkpt><trkpt lat="45.75907420832811" lon="9.968956353119262"><ele>1287.0</ele><time>2026-04-11T15:15:03Z</time></trkpt><trkpt lat="45.75918485324028" lon="9.968985891083243"><ele>1287.0</ele><time>2026-04-11T15:15:04Z</time></trkpt><trkpt lat="45.75929887456995" lon="9.969047003416867"><ele>1287.0</ele><time>2026-04-11T15:15:05Z</time></trkpt><trkpt lat="45.75940849907479" lon="9.969109003331646"><ele>1287.0</ele><time>2026-04-11T15:15:06Z</time></trkpt><trkpt lat="45.75953226031163" lon="9.96916982929778"><ele>1285.25</ele><time>2026-04-11T15:15:07Z</time></trkpt><trkpt lat="45.75966229117123" lon="9.96924269999107"><ele>1283.5</ele><time>2026-04-11T15:15:08Z</time></trkpt><trkpt lat="45.75979094034123" lon="9.969304659679667"><ele>1281.75</ele><time>2026-04-11T15:15:09Z</time></trkpt><trkpt lat="45.75991584394405" lon="9.969370836875775"><ele>1280.0</ele><time>2026-04-11T15:15:10Z</time></trkpt><trkpt lat="45.760035538373316" lon="9.969425052562283"><ele>1280.0</ele><time>2026-04-11T15:15:11Z</time></trkpt><trkpt lat="45.760154453386995" lon="9.96947277067296"><ele>1280.0</ele><time>2026-04-11T15:15:12Z</time></trkpt><trkpt lat="45.76027748451077" lon="9.969520725434156"><ele>1280.0</ele><time>2026-04-11T15:15:13Z</time></trkpt><trkpt lat="45.760390641986795" lon="9.969572945201548"><ele>1280.0</ele><time>2026-04-11T15:15:14Z</time></trkpt><trkpt lat="45.76048752350113" lon="9.969632288270883"><ele>1284.8</ele><time>2026-04-11T15:15:15Z</time></trkpt><trkpt lat="45.760572975622445" lon="9.969689253047385"><ele>1289.6</ele><time>2026-04-11T15:15:16Z</time></trkpt><trkpt lat="45.76065522207222" lon="9.969755419417236"><ele>1294.4</ele><time>2026-04-11T15:15:17Z</time></trkpt><trkpt lat="45.76074321798935" lon="9.969834361525592"><ele>1299.2</ele><time>2026-04-11T15:15:18Z</time></trkpt><trkpt lat="45.76081414675847" lon="9.969932633643012"><ele>1304.0</ele><time>2026-04-11T15:15:19Z</time></trkpt><trkpt lat="45.76088210568853" lon="9.970012385598126"><ele>1304.0</ele><time>2026-04-11T15:15:20Z</time></trkpt><trkpt lat="45.760931638357576" lon="9.970069655595733"><ele>1304.0</ele><time>2026-04-11T15:15:21Z</time></trkpt><trkpt lat="45.760997086932484" lon="9.970131577950442"><ele>1304.0</ele><time>2026-04-11T15:15:23Z</time></trkpt><trkpt lat="45.76104544679911" lon="9.970197920322665"><ele>1304.0</ele><time>2026-04-11T15:15:27Z</time></trkpt><trkpt lat="45.76101907299583" lon="9.970114709415896"><ele>1304.0</ele><time>2026-04-11T15:15:39Z</time></trkpt><trkpt lat="45.7609495916675" lon="9.970065894420294"><ele>1304.0</ele><time>2026-04-11T15:15:41Z</time></trkpt><trkpt lat="45.76088625249836" lon="9.969992792901111"><ele>1304.0</ele><time>2026-04-11T15:15:43Z</time></trkpt><trkpt lat="45.760794999443156" lon="9.96989689808793"><ele>1304.0</ele><time>2026-04-11T15:15:45Z</time></trkpt><trkpt lat="45.76070757660758" lon="9.969799276734431"><ele>1304.0</ele><time>2026-04-11T15:15:47Z</time></trkpt><trkpt lat="45.76062527924832" lon="9.96970744927027"><ele>1304.0</ele><time>2026-04-11T15:15:49Z</time></trkpt><trkpt lat="45.760533782774026" lon="9.969640624102983"><ele>1304.0</ele><time>2026-04-11T15:15:51Z</time></trkpt><trkpt lat="45.760443251002435" lon="9.969580498119818"><ele>1304.0</ele><time>2026-04-11T15:15:53Z</time></trkpt><trkpt lat="45.76032980859585" lon="9.969518760397182"><ele>1304.0</ele><time>2026-04-11T15:15:55Z</time></trkpt><trkpt lat="45.76026871814042" lon="9.969495810122602"><ele>1304.0</ele><time>2026-04-11T15:15:56Z</time></trkpt><trkpt lat="45.76013651560152" lon="9.9694363375387"><ele>1304.0</ele><time>2026-04-11T15:15:57Z</time></trkpt><trkpt lat="45.760055427984014" lon="9.969400646775203"><ele>1304.0</ele><time>2026-04-11T15:15:58Z</time></trkpt><trkpt lat="45.75997493336209" lon="9.96936137145327"><ele>1304.0</ele><time>2026-04-11T15:15:59Z</time></trkpt><trkpt lat="45.75989851760716" lon="9.969326485185453"><ele>1304.3333333333335</ele><time>2026-04-11T15:16:00Z</time></trkpt><trkpt lat="45.75981666084317" lon="9.969289360627593"><ele>1304.6666666666667</ele><time>2026-04-11T15:16:01Z</time></trkpt><trkpt lat="45.75972704191984" lon="9.96924493627137"><ele>1305.0</ele><time>2026-04-11T15:16:02Z</time></trkpt><trkpt lat="45.75963820363188" lon="9.96919934360839"><ele>1305.3333333333333</ele><time>2026-04-11T15:16:03Z</time></trkpt><trkpt lat="45.759555890333615" lon="9.969158926009118"><ele>1305.6666666666665</ele><time>2026-04-11T15:16:04Z</time></trkpt><trkpt lat="45.75948094588114" lon="9.969129321509563"><ele>1306.0</ele><time>2026-04-11T15:16:05Z</time></trkpt><trkpt lat="45.75939634925247" lon="9.969091615939456"><ele>1302.1999999999998</ele><time>2026-04-11T15:16:06Z</time></trkpt><trkpt lat="45.75931007059043" lon="9.969048518949794"><ele>1298.3999999999999</ele><time>2026-04-11T15:16:07Z</time></trkpt><trkpt lat="45.759221615281035" lon="9.969001312164119"><ele>1294.6</ele><time>2026-04-11T15:16:08Z</time></trkpt><trkpt lat="45.75912727440338" lon="9.968955348852763"><ele>1290.8</ele><time>2026-04-11T15:16:09Z</time></trkpt><trkpt lat="45.75902483491729" lon="9.968908552566079"><ele>1287.0</ele><time>2026-04-11T15:16:10Z</time></trkpt><trkpt lat="45.758916671033724" lon="9.968864817900025"><ele>1287.0</ele><time>2026-04-11T15:16:11Z</time></trkpt><trkpt lat="45.758813321347276" lon="9.968827566556968"><ele>1287.0</ele><time>2026-04-11T15:16:12Z</time></trkpt><trkpt lat="45.75871254982631" lon="9.968787773742626"><ele>1287.0</ele><time>2026-04-11T15:16:13Z</time></trkpt><trkpt lat="45.75861526437911" lon="9.968749602977015"><ele>1287.0</ele><time>2026-04-11T15:16:14Z</time></trkpt><trkpt lat="45.758517378116274" lon="9.968711559416588"><ele>1287.0</ele><time>2026-04-11T15:16:15Z</time></trkpt><trkpt lat="45.75842002765132" lon="9.968679974819795"><ele>1283.8</ele><time>2026-04-11T15:16:16Z</time></trkpt><trkpt lat="45.75832259082053" lon="9.968645469756696"><ele>1280.6</ele><time>2026-04-11T15:16:17Z</time></trkpt><trkpt lat="45.75822285937472" lon="9.9686135587792"><ele>1277.3999999999999</ele><time>2026-04-11T15:16:18Z</time></trkpt><trkpt lat="45.758119597543235" lon="9.968575093677908"><ele>1274.1999999999998</ele><time>2026-04-11T15:16:19Z</time></trkpt><trkpt lat="45.75802118218233" lon="9.96852218506864"><ele>1271.0</ele><time>2026-04-11T15:16:20Z</time></trkpt><trkpt lat="45.75791962821876" lon="9.968465792623338"><ele>1271.0</ele><time>2026-04-11T15:16:21Z</time></trkpt><trkpt lat="45.757823136568895" lon="9.968396918022524"><ele>1271.0</ele><time>2026-04-11T15:16:22Z</time></trkpt><trkpt lat="45.757722512358356" lon="9.968322955263254"><ele>1271.0</ele><time>2026-04-11T15:16:23Z</time></trkpt><trkpt lat="45.75762641461308" lon="9.968250165374354"><ele>1271.0</ele><time>2026-04-11T15:16:24Z</time></trkpt><trkpt lat="45.75752848252702" lon="9.968168648727218"><ele>1271.0</ele><time>2026-04-11T15:16:25Z</time></trkpt><trkpt lat="45.757433780876084" lon="9.968074646705759"><ele>1273.0</ele><time>2026-04-11T15:16:26Z</time></trkpt><trkpt lat="45.75734225045675" lon="9.967970143244031"><ele>1275.0</ele><time>2026-04-11T15:16:27Z</time></trkpt><trkpt lat="45.75725498172349" lon="9.967866503758431"><ele>1277.0</ele><time>2026-04-11T15:16:28Z</time></trkpt><trkpt lat="45.75717494648384" lon="9.967766362798098"><ele>1279.0</ele><time>2026-04-11T15:16:29Z</time></trkpt><trkpt lat="45.757081543442446" lon="9.967673421436043"><ele>1279.0</ele><time>2026-04-11T15:16:30Z</time></trkpt><trkpt lat="45.75698698542472" lon="9.967592402961163"><ele>1279.0</ele><time>2026-04-11T15:16:31Z</time></trkpt><trkpt lat="45.75688886361796" lon="9.967520262201795"><ele>1279.0</ele><time>2026-04-11T15:16:32Z</time></trkpt><trkpt lat="45.75678950417044" lon="9.967454028233778"><ele>1279.0</ele><time>2026-04-11T15:16:33Z</time></trkpt><trkpt lat="45.75670195223709" lon="9.967388122912318"><ele>1279.0</ele><time>2026-04-11T15:16:34Z</time></trkpt><trkpt lat="45.75662186426738" lon="9.96733050517258"><ele>1279.0</ele><time>2026-04-11T15:16:35Z</time></trkpt><trkpt lat="45.756555121054035" lon="9.967280062293568"><ele>1279.0</ele><time>2026-04-11T15:16:36Z</time></trkpt><trkpt lat="45.756496747521155" lon="9.967228353210166"><ele>1279.0</ele><time>2026-04-11T15:16:37Z</time></trkpt><trkpt lat="45.75642351042652" lon="9.96715892620356"><ele>1279.0</ele><time>2026-04-11T15:16:39Z</time></trkpt><trkpt lat="45.75636594444557" lon="9.967112823916663"><ele>1279.0</ele><time>2026-04-11T15:16:42Z</time></trkpt><trkpt lat="45.75630217194449" lon="9.967058054794956"><ele>1279.0</ele><time>2026-04-11T15:16:55Z</time></trkpt><trkpt lat="45.75622561300247" lon="9.96702532986749"><ele>1279.0</ele><time>2026-04-11T15:17:06Z</time></trkpt><trkpt lat="45.75613094059518" lon="9.967013042505911"><ele>1279.0</ele><time>2026-04-11T15:17:08Z</time></trkpt><trkpt lat="45.75602515062536" lon="9.966992796575335"><ele>1279.0</ele><time>2026-04-11T15:17:10Z</time></trkpt><trkpt lat="45.75596399706433" lon="9.966964662518803"><ele>1279.0</ele><time>2026-04-11T15:17:11Z</time></trkpt><trkpt lat="45.7559003968975" lon="9.966932901536605"><ele>1279.0</ele><time>2026-04-11T15:17:12Z</time></trkpt><trkpt lat="45.75583191538301" lon="9.966901676729334"><ele>1279.0</ele><time>2026-04-11T15:17:13Z</time></trkpt><trkpt lat="45.75574981671509" lon="9.966867095775553"><ele>1281.4</ele><time>2026-04-11T15:17:14Z</time></trkpt><trkpt lat="45.755667676503684" lon="9.9668329999678"><ele>1283.8000000000002</ele><time>2026-04-11T15:17:15Z</time></trkpt><trkpt lat="45.75556486105252" lon="9.96679364479851"><ele>1286.1999999999998</ele><time>2026-04-11T15:17:16Z</time></trkpt><trkpt lat="45.75546511467477" lon="9.9667521952111"><ele>1288.6</ele><time>2026-04-11T15:17:17Z</time></trkpt><trkpt lat="45.7553705596281" lon="9.966720527122877"><ele>1291.0</ele><time>2026-04-11T15:17:18Z</time></trkpt><trkpt lat="45.75527808404183" lon="9.96668622951065"><ele>1288.3333333333333</ele><time>2026-04-11T15:17:19Z</time></trkpt><trkpt lat="45.75520086516226" lon="9.966651446577444"><ele>1285.6666666666665</ele><time>2026-04-11T15:17:20Z</time></trkpt><trkpt lat="45.755128535988135" lon="9.966628366320716"><ele>1283.0</ele><time>2026-04-11T15:17:21Z</time></trkpt><trkpt lat="45.75501467889995" lon="9.966599800853812"><ele>1280.3333333333333</ele><time>2026-04-11T15:17:23Z</time></trkpt><trkpt lat="45.7549233224196" lon="9.96660597761764"><ele>1277.6666666666667</ele><time>2026-04-11T15:17:26Z</time></trkpt><trkpt lat="45.75485593454581" lon="9.96659639509043"><ele>1275.0</ele><time>2026-04-11T15:17:27Z</time></trkpt><trkpt lat="45.7547859058344" lon="9.966588756140588"><ele>1275.0</ele><time>2026-04-11T15:17:28Z</time></trkpt><trkpt lat="45.75472158951841" lon="9.966582404530223"><ele>1275.0</ele><time>2026-04-11T15:17:29Z</time></trkpt><trkpt lat="45.75459873354321" lon="9.966580039772147"><ele>1275.0</ele><time>2026-04-11T15:17:31Z</time></trkpt><trkpt lat="45.75452930724814" lon="9.966600185154649"><ele>1275.0</ele><time>2026-04-11T15:17:32Z</time></trkpt><trkpt lat="45.75442641077657" lon="9.966620042350126"><ele>1275.0</ele><time>2026-04-11T15:17:33Z</time></trkpt><trkpt lat="45.75433125455815" lon="9.966623457431524"><ele>1273.6666666666667</ele><time>2026-04-11T15:17:34Z</time></trkpt><trkpt lat="45.754246314212494" lon="9.966623984917083"><ele>1272.3333333333333</ele><time>2026-04-11T15:17:35Z</time></trkpt><trkpt lat="45.75415742202013" lon="9.966608088727977"><ele>1271.0</ele><time>2026-04-11T15:17:36Z</time></trkpt><trkpt lat="45.754069216369835" lon="9.9665775617536"><ele>1269.6666666666665</ele><time>2026-04-11T15:17:37Z</time></trkpt><trkpt lat="45.7539806590778" lon="9.966539902410199"><ele>1268.3333333333333</ele><time>2026-04-11T15:17:38Z</time></trkpt><trkpt lat="45.75389599868006" lon="9.966510460230806"><ele>1267.0</ele><time>2026-04-11T15:17:39Z</time></trkpt><trkpt lat="45.75380523296934" lon="9.966471370117748"><ele>1267.0</ele><time>2026-04-11T15:17:40Z</time></trkpt><trkpt lat="45.75371060152109" lon="9.966428077335582"><ele>1267.0</ele><time>2026-04-11T15:17:41Z</time></trkpt><trkpt lat="45.753624397006675" lon="9.966386843474503"><ele>1267.0</ele><time>2026-04-11T15:17:42Z</time></trkpt><trkpt lat="45.75353553008563" lon="9.96635331460319"><ele>1267.0</ele><time>2026-04-11T15:17:43Z</time></trkpt><trkpt lat="45.7534471832494" lon="9.966329419836384"><ele>1267.0</ele><time>2026-04-11T15:17:44Z</time></trkpt><trkpt lat="45.75336020543854" lon="9.966301943296692"><ele>1267.1666666666665</ele><time>2026-04-11T15:17:45Z</time></trkpt><trkpt lat="45.75327330354699" lon="9.966275478861956"><ele>1267.3333333333333</ele><time>2026-04-11T15:17:46Z</time></trkpt><trkpt lat="45.753181898001856" lon="9.96624867125772"><ele>1267.5</ele><time>2026-04-11T15:17:47Z</time></trkpt><trkpt lat="45.753098614296725" lon="9.966229918808034"><ele>1267.6666666666667</ele><time>2026-04-11T15:17:48Z</time></trkpt><trkpt lat="45.75301390820784" lon="9.966208708130159"><ele>1267.8333333333335</ele><time>2026-04-11T15:17:49Z</time></trkpt><trkpt lat="45.75292360164467" lon="9.966180459515959"><ele>1268.0</ele><time>2026-04-11T15:17:50Z</time></trkpt><trkpt lat="45.752831635553335" lon="9.966144170607597"><ele>1268.0</ele><time>2026-04-11T15:17:51Z</time></trkpt><trkpt lat="45.75274151620027" lon="9.96610452372481"><ele>1268.0</ele><time>2026-04-11T15:17:52Z</time></trkpt><trkpt lat="45.75265480687449" lon="9.9660662448284"><ele>1268.0</ele><time>2026-04-11T15:17:53Z</time></trkpt><trkpt lat="45.75257169559218" lon="9.96603016712319"><ele>1268.0</ele><time>2026-04-11T15:17:54Z</time></trkpt><trkpt lat="45.752493527774554" lon="9.96599481487889"><ele>1268.0</ele><time>2026-04-11T15:17:55Z</time></trkpt><trkpt lat="45.752424908815875" lon="9.96595910458928"><ele>1268.0</ele><time>2026-04-11T15:17:56Z</time></trkpt><trkpt lat="45.75235768096048" lon="9.965912519951136"><ele>1265.0</ele><time>2026-04-11T15:17:57Z</time></trkpt><trkpt lat="45.752295257372786" lon="9.96586303431732"><ele>1262.0</ele><time>2026-04-11T15:17:58Z</time></trkpt><trkpt lat="45.75223386915455" lon="9.965800392421894"><ele>1259.0</ele><time>2026-04-11T15:17:59Z</time></trkpt><trkpt lat="45.75217165646122" lon="9.965728641082643"><ele>1256.0</ele><time>2026-04-11T15:18:00Z</time></trkpt><trkpt lat="45.75210586262576" lon="9.96565072969859"><ele>1253.0</ele><time>2026-04-11T15:18:01Z</time></trkpt><trkpt lat="45.75203428705318" lon="9.965563060223728"><ele>1250.0</ele><time>2026-04-11T15:18:02Z</time></trkpt><trkpt lat="45.75196124458629" lon="9.965468809526854"><ele>1248.6</ele><time>2026-04-11T15:18:03Z</time></trkpt><trkpt lat="45.75188713567972" lon="9.965376891402617"><ele>1247.2</ele><time>2026-04-11T15:18:04Z</time></trkpt><trkpt lat="45.751805406495144" lon="9.965284276972746"><ele>1245.8</ele><time>2026-04-11T15:18:05Z</time></trkpt><trkpt lat="45.751714799903716" lon="9.965203628150334"><ele>1244.4</ele><time>2026-04-11T15:18:06Z</time></trkpt><trkpt lat="45.75161514929645" lon="9.965120015451552"><ele>1243.0</ele><time>2026-04-11T15:18:07Z</time></trkpt><trkpt lat="45.75151197935143" lon="9.965037221486766"><ele>1242.0</ele><time>2026-04-11T15:18:08Z</time></trkpt><trkpt lat="45.75140788296647" lon="9.964956328609683"><ele>1241.0</ele><time>2026-04-11T15:18:09Z</time></trkpt><trkpt lat="45.751311064143835" lon="9.964879601098861"><ele>1240.0</ele><time>2026-04-11T15:18:10Z</time></trkpt><trkpt lat="45.75121599637261" lon="9.964802761750905"><ele>1239.0</ele><time>2026-04-11T15:18:11Z</time></trkpt><trkpt lat="45.75112309038445" lon="9.964715412484301"><ele>1238.0</ele><time>2026-04-11T15:18:12Z</time></trkpt><trkpt lat="45.7510265205274" lon="9.96462109899839"><ele>1232.25</ele><time>2026-04-11T15:18:13Z</time></trkpt><trkpt lat="45.750926889302434" lon="9.964528322899877"><ele>1226.5</ele><time>2026-04-11T15:18:14Z</time></trkpt><trkpt lat="45.75082053218886" lon="9.964439531182745"><ele>1220.75</ele><time>2026-04-11T15:18:15Z</time></trkpt><trkpt lat="45.75071430769123" lon="9.96434798073011"><ele>1215.0</ele><time>2026-04-11T15:18:16Z</time></trkpt><trkpt lat="45.750606889713005" lon="9.964264734776107"><ele>1215.5</ele><time>2026-04-11T15:18:17Z</time></trkpt><trkpt lat="45.75049533378666" lon="9.964184337158919"><ele>1216.0</ele><time>2026-04-11T15:18:18Z</time></trkpt><trkpt lat="45.750381623694494" lon="9.964107729888225"><ele>1216.5</ele><time>2026-04-11T15:18:19Z</time></trkpt><trkpt lat="45.750260169521425" lon="9.964042823071479"><ele>1217.0</ele><time>2026-04-11T15:18:20Z</time></trkpt><trkpt lat="45.75013161054436" lon="9.963997822828334"><ele>1217.0</ele><time>2026-04-11T15:18:21Z</time></trkpt><trkpt lat="45.75000259964122" lon="9.963959596575041"><ele>1217.0</ele><time>2026-04-11T15:18:22Z</time></trkpt><trkpt lat="45.74987481981302" lon="9.963927870914455"><ele>1217.0</ele><time>2026-04-11T15:18:23Z</time></trkpt><trkpt lat="45.74975481477258" lon="9.963899712314646"><ele>1217.0</ele><time>2026-04-11T15:18:24Z</time></trkpt><trkpt lat="45.74964225848388" lon="9.963883293602777"><ele>1217.0</ele><time>2026-04-11T15:18:25Z</time></trkpt><trkpt lat="45.749538095465624" lon="9.963880399121708"><ele>1217.0</ele><time>2026-04-11T15:18:26Z</time></trkpt><trkpt lat="45.74943344606613" lon="9.963871953022311"><ele>1217.0</ele><time>2026-04-11T15:18:27Z</time></trkpt><trkpt lat="45.74932830174408" lon="9.963853897692495"><ele>1217.0</ele><time>2026-04-11T15:18:28Z</time></trkpt><trkpt lat="45.749233212877854" lon="9.963827860018018"><ele>1217.0</ele><time>2026-04-11T15:18:29Z</time></trkpt><trkpt lat="45.74913464755748" lon="9.963792099211634"><ele>1213.6</ele><time>2026-04-11T15:18:30Z</time></trkpt><trkpt lat="45.74902872947938" lon="9.963747802910053"><ele>1210.2</ele><time>2026-04-11T15:18:31Z</time></trkpt><trkpt lat="45.74892439056159" lon="9.963697272464342"><ele>1206.8</ele><time>2026-04-11T15:18:32Z</time></trkpt><trkpt lat="45.74881978073301" lon="9.96364414814997"><ele>1203.4</ele><time>2026-04-11T15:18:33Z</time></trkpt><trkpt lat="45.748715306105574" lon="9.963584845763748"><ele>1200.0</ele><time>2026-04-11T15:18:34Z</time></trkpt><trkpt lat="45.748620773692664" lon="9.963521979787675"><ele>1202.6</ele><time>2026-04-11T15:18:35Z</time></trkpt><trkpt lat="45.74853450621991" lon="9.963461049986918"><ele>1205.2</ele><time>2026-04-11T15:18:36Z</time></trkpt><trkpt lat="45.74845030891409" lon="9.963408855154237"><ele>1207.8</ele><time>2026-04-11T15:18:37Z</time></trkpt><trkpt lat="45.748357969050744" lon="9.963373671378596"><ele>1210.4</ele><time>2026-04-11T15:18:38Z</time></trkpt><trkpt lat="45.74825972430573" lon="9.963348707872255"><ele>1213.0</ele><time>2026-04-11T15:18:39Z</time></trkpt><trkpt lat="45.74815764918419" lon="9.963348970943441"><ele>1213.0</ele><time>2026-04-11T15:18:40Z</time></trkpt><trkpt lat="45.748045922817184" lon="9.963355256729097"><ele>1213.0</ele><time>2026-04-11T15:18:41Z</time></trkpt><trkpt lat="45.7479292710229" lon="9.963371471531369"><ele>1213.0</ele><time>2026-04-11T15:18:42Z</time></trkpt><trkpt lat="45.747805647062805" lon="9.96338630608727"><ele>1213.0</ele><time>2026-04-11T15:18:43Z</time></trkpt><trkpt lat="45.74768392317371" lon="9.963398239596758"><ele>1204.5</ele><time>2026-04-11T15:18:44Z</time></trkpt><trkpt lat="45.74755181896367" lon="9.96340286528542"><ele>1196.0</ele><time>2026-04-11T15:18:45Z</time></trkpt><trkpt lat="45.747418293257866" lon="9.9634117061876"><ele>1187.5</ele><time>2026-04-11T15:18:46Z</time></trkpt><trkpt lat="45.74729112348929" lon="9.963423563871652"><ele>1179.0</ele><time>2026-04-11T15:18:47Z</time></trkpt><trkpt lat="45.747169347453784" lon="9.963434650575326"><ele>1179.0</ele><time>2026-04-11T15:18:48Z</time></trkpt><trkpt lat="45.747044593489036" lon="9.9634368513246"><ele>1179.0</ele><time>2026-04-11T15:18:49Z</time></trkpt><trkpt lat="45.74692374439689" lon="9.963436399244854"><ele>1179.0</ele><time>2026-04-11T15:18:50Z</time></trkpt><trkpt lat="45.74680583181638" lon="9.963437127359509"><ele>1179.0</ele><time>2026-04-11T15:18:51Z</time></trkpt><trkpt lat="45.746690147630666" lon="9.96343854713017"><ele>1177.75</ele><time>2026-04-11T15:18:52Z</time></trkpt><trkpt lat="45.74657418237197" lon="9.963435388236467"><ele>1176.5</ele><time>2026-04-11T15:18:53Z</time></trkpt><trkpt lat="45.74645935666597" lon="9.963418463031896"><ele>1175.25</ele><time>2026-04-11T15:18:54Z</time></trkpt><trkpt lat="45.74634001634339" lon="9.963397406331376"><ele>1174.0</ele><time>2026-04-11T15:18:55Z</time></trkpt><trkpt lat="45.746216413069384" lon="9.963370470659934"><ele>1179.0</ele><time>2026-04-11T15:18:56Z</time></trkpt><trkpt lat="45.74609706715789" lon="9.963345434018402"><ele>1184.0</ele><time>2026-04-11T15:18:57Z</time></trkpt><trkpt lat="45.74597990053033" lon="9.963317621240522"><ele>1189.0</ele><time>2026-04-11T15:18:58Z</time></trkpt><trkpt lat="45.7458712063707" lon="9.963294721856617"><ele>1194.0</ele><time>2026-04-11T15:18:59Z</time></trkpt><trkpt lat="45.74576450244439" lon="9.963274605748738"><ele>1194.0</ele><time>2026-04-11T15:19:00Z</time></trkpt><trkpt lat="45.74566286847057" lon="9.96325180623848"><ele>1194.0</ele><time>2026-04-11T15:19:01Z</time></trkpt><trkpt lat="45.74556278167788" lon="9.963218540434491"><ele>1194.0</ele><time>2026-04-11T15:19:02Z</time></trkpt><trkpt lat="45.74545759189579" lon="9.963169198489146"><ele>1194.0</ele><time>2026-04-11T15:19:03Z</time></trkpt><trkpt lat="45.74534955672446" lon="9.963106577264405"><ele>1194.0</ele><time>2026-04-11T15:19:04Z</time></trkpt><trkpt lat="45.74523950987556" lon="9.963036551969086"><ele>1188.5</ele><time>2026-04-11T15:19:05Z</time></trkpt><trkpt lat="45.74513165077522" lon="9.962960656946514"><ele>1183.0</ele><time>2026-04-11T15:19:06Z</time></trkpt><trkpt lat="45.745027156313036" lon="9.962874062153341"><ele>1177.5</ele><time>2026-04-11T15:19:07Z</time></trkpt><trkpt lat="45.74492970847506" lon="9.962789301210401"><ele>1172.0</ele><time>2026-04-11T15:19:08Z</time></trkpt><trkpt lat="45.74483720766319" lon="9.962704766369962"><ele>1172.0</ele><time>2026-04-11T15:19:09Z</time></trkpt><trkpt lat="45.74475437726405" lon="9.962612069891115"><ele>1172.0</ele><time>2026-04-11T15:19:10Z</time></trkpt><trkpt lat="45.744668011150935" lon="9.962525947115074"><ele>1172.0</ele><time>2026-04-11T15:19:11Z</time></trkpt><trkpt lat="45.74458394011689" lon="9.962443540583745"><ele>1172.0</ele><time>2026-04-11T15:19:12Z</time></trkpt><trkpt lat="45.74450153132948" lon="9.96237117747283"><ele>1172.0</ele><time>2026-04-11T15:19:13Z</time></trkpt><trkpt lat="45.74442475603004" lon="9.962300168889222"><ele>1172.9999999999998</ele><time>2026-04-11T15:19:14Z</time></trkpt><trkpt lat="45.74436204141067" lon="9.962233397124459"><ele>1174.0</ele><time>2026-04-11T15:19:15Z</time></trkpt><trkpt lat="45.74430257652599" lon="9.962167616797199"><ele>1175.0</ele><time>2026-04-11T15:19:16Z</time></trkpt><trkpt lat="45.74425486313832" lon="9.962096420683128"><ele>1176.0</ele><time>2026-04-11T15:19:17Z</time></trkpt><trkpt lat="45.744211372778146" lon="9.962021755126198"><ele>1177.0</ele><time>2026-04-11T15:19:18Z</time></trkpt><trkpt lat="45.74416969864019" lon="9.961934454424387"><ele>1177.9999999999998</ele><time>2026-04-11T15:19:19Z</time></trkpt><trkpt lat="45.74413785475091" lon="9.961832492523689"><ele>1179.0</ele><time>2026-04-11T15:19:20Z</time></trkpt><trkpt lat="45.74410588799689" lon="9.961720463999574"><ele>1179.8333333333333</ele><time>2026-04-11T15:19:21Z</time></trkpt><trkpt lat="45.744075944612675" lon="9.961612333623963"><ele>1180.6666666666667</ele><time>2026-04-11T15:19:22Z</time></trkpt><trkpt lat="45.74404668224742" lon="9.961502595181415"><ele>1181.5</ele><time>2026-04-11T15:19:23Z</time></trkpt><trkpt lat="45.74401806643189" lon="9.96140839962111"><ele>1182.3333333333335</ele><time>2026-04-11T15:19:24Z</time></trkpt><trkpt lat="45.743971768306515" lon="9.961300436786711"><ele>1183.1666666666667</ele><time>2026-04-11T15:19:26Z</time></trkpt><trkpt lat="45.743912341230896" lon="9.96125743744529"><ele>1184.0</ele><time>2026-04-11T15:19:40Z</time></trkpt><trkpt lat="45.743822112698815" lon="9.96136461626768"><ele>1184.0</ele><time>2026-04-11T15:19:43Z</time></trkpt><trkpt lat="45.74375213805439" lon="9.96147292185613"><ele>1184.0</ele><time>2026-04-11T15:19:45Z</time></trkpt><trkpt lat="45.743684574102396" lon="9.961593997467467"><ele>1184.0</ele><time>2026-04-11T15:19:47Z</time></trkpt><trkpt lat="45.743605771379684" lon="9.961703079734866"><ele>1184.0</ele><time>2026-04-11T15:19:49Z</time></trkpt><trkpt lat="45.74349283553587" lon="9.961721426675853"><ele>1184.0</ele><time>2026-04-11T15:19:51Z</time></trkpt><trkpt lat="45.74342335409783" lon="9.961673816609649"><ele>1181.8</ele><time>2026-04-11T15:19:52Z</time></trkpt><trkpt lat="45.74334848627269" lon="9.96161507990551"><ele>1179.6000000000001</ele><time>2026-04-11T15:19:53Z</time></trkpt><trkpt lat="45.74326343655446" lon="9.96156418111264"><ele>1177.4</ele><time>2026-04-11T15:19:54Z</time></trkpt><trkpt lat="45.743168024740605" lon="9.961522729365962"><ele>1175.2</ele><time>2026-04-11T15:19:55Z</time></trkpt><trkpt lat="45.743074354706145" lon="9.96149153796288"><ele>1173.0</ele><time>2026-04-11T15:19:56Z</time></trkpt><trkpt lat="45.7429871356204" lon="9.961466531155923"><ele>1173.0</ele><time>2026-04-11T15:19:57Z</time></trkpt><trkpt lat="45.74291899878714" lon="9.961444645586708"><ele>1173.0</ele><time>2026-04-11T15:19:58Z</time></trkpt><trkpt lat="45.74281706228589" lon="9.961454320112896"><ele>1173.0</ele><time>2026-04-11T15:20:00Z</time></trkpt><trkpt lat="45.742806795261714" lon="9.96161950640219"><ele>1173.0</ele><time>2026-04-11T15:20:02Z</time></trkpt><trkpt lat="45.74284437281155" lon="9.961729330923987"><ele>1173.0</ele><time>2026-04-11T15:20:03Z</time></trkpt><trkpt lat="45.74288547598121" lon="9.961855602053985"><ele>1171.6</ele><time>2026-04-11T15:20:04Z</time></trkpt><trkpt lat="45.74289019383405" lon="9.962004444880124"><ele>1170.1999999999998</ele><time>2026-04-11T15:20:05Z</time></trkpt><trkpt lat="45.74286884006889" lon="9.962151770124375"><ele>1168.8</ele><time>2026-04-11T15:20:06Z</time></trkpt><trkpt lat="45.74283090400573" lon="9.962284994087087"><ele>1167.3999999999999</ele><time>2026-04-11T15:20:07Z</time></trkpt><trkpt lat="45.74278453829389" lon="9.96240533037261"><ele>1166.0</ele><time>2026-04-11T15:20:08Z</time></trkpt><trkpt lat="45.74273528900992" lon="9.962522182041322"><ele>1162.4285714285716</ele><time>2026-04-11T15:20:09Z</time></trkpt><trkpt lat="45.74268916136377" lon="9.962630893918458"><ele>1158.857142857143</ele><time>2026-04-11T15:20:10Z</time></trkpt><trkpt lat="45.74265419604586" lon="9.962724189769183"><ele>1155.2857142857142</ele><time>2026-04-11T15:20:11Z</time></trkpt><trkpt lat="45.74261158141541" lon="9.962792851380492"><ele>1151.7142857142858</ele><time>2026-04-11T15:20:12Z</time></trkpt><trkpt lat="45.74254853257809" lon="9.962814618337845"><ele>1148.142857142857</ele><time>2026-04-11T15:20:13Z</time></trkpt><trkpt lat="45.742487271896046" lon="9.962775690311698"><ele>1144.5714285714287</ele><time>2026-04-11T15:20:14Z</time></trkpt><trkpt lat="45.742439967686835" lon="9.96268787017999"><ele>1141.0</ele><time>2026-04-11T15:20:15Z</time></trkpt><trkpt lat="45.742413479121446" lon="9.962586663002124"><ele>1142.3999999999999</ele><time>2026-04-11T15:20:16Z</time></trkpt><trkpt lat="45.7423531439511" lon="9.96248090171083"><ele>1143.8</ele><time>2026-04-11T15:20:17Z</time></trkpt><trkpt lat="45.74227333539964" lon="9.962384012627059"><ele>1145.1999999999998</ele><time>2026-04-11T15:20:18Z</time></trkpt><trkpt lat="45.74219190443379" lon="9.962294896001255"><ele>1146.6</ele><time>2026-04-11T15:20:19Z</time></trkpt><trkpt lat="45.742114079025775" lon="9.962207496374907"><ele>1148.0</ele><time>2026-04-11T15:20:20Z</time></trkpt><trkpt lat="45.74203899895595" lon="9.96212751318922"><ele>1148.0</ele><time>2026-04-11T15:20:21Z</time></trkpt><trkpt lat="45.7419772138431" lon="9.962048086236134"><ele>1148.0</ele><time>2026-04-11T15:20:22Z</time></trkpt><trkpt lat="45.74192803191942" lon="9.961983032611823"><ele>1148.0</ele><time>2026-04-11T15:20:23Z</time></trkpt><trkpt lat="45.74180453387848" lon="9.961948283944496"><ele>1148.0</ele><time>2026-04-11T15:20:25Z</time></trkpt><trkpt lat="45.74175706019041" lon="9.96201114732584"><ele>1148.0</ele><time>2026-04-11T15:20:26Z</time></trkpt><trkpt lat="45.741826531038505" lon="9.962099130567708"><ele>1148.0</ele><time>2026-04-11T15:20:27Z</time></trkpt><trkpt lat="45.74184422564438" lon="9.962224660111035"><ele>1148.0</ele><time>2026-04-11T15:20:29Z</time></trkpt><trkpt lat="45.7418628771589" lon="9.962344785288153"><ele>1148.0</ele><time>2026-04-11T15:20:31Z</time></trkpt><trkpt lat="45.741896891145046" lon="9.962492395820655"><ele>1148.0</ele><time>2026-04-11T15:20:33Z</time></trkpt><trkpt lat="45.74194155952919" lon="9.962563922096047"><ele>1148.0</ele><time>2026-04-11T15:20:34Z</time></trkpt><trkpt lat="45.74200073113782" lon="9.962629057547304"><ele>1148.0</ele><time>2026-04-11T15:20:35Z</time></trkpt><trkpt lat="45.74194367369955" lon="9.962725717762664"><ele>1148.0</ele><time>2026-04-11T15:20:37Z</time></trkpt><trkpt lat="45.74188094435353" lon="9.962714993070868"><ele>1144.4285714285713</ele><time>2026-04-11T15:20:38Z</time></trkpt><trkpt lat="45.741817196523336" lon="9.962684765369676"><ele>1140.857142857143</ele><time>2026-04-11T15:20:39Z</time></trkpt><trkpt lat="45.741751533384374" lon="9.962650050973298"><ele>1137.2857142857142</ele><time>2026-04-11T15:20:40Z</time></trkpt><trkpt lat="45.741681861117094" lon="9.962613714589667"><ele>1133.7142857142858</ele><time>2026-04-11T15:20:41Z</time></trkpt><trkpt lat="45.74161961507748" lon="9.962567943493637"><ele>1130.142857142857</ele><time>2026-04-11T15:20:42Z</time></trkpt><trkpt lat="45.7415653108997" lon="9.962501221062343"><ele>1126.5714285714284</ele><time>2026-04-11T15:20:43Z</time></trkpt><trkpt lat="45.74152747867226" lon="9.962428643816187"><ele>1123.0</ele><time>2026-04-11T15:20:44Z</time></trkpt><trkpt lat="45.741471402444766" lon="9.962307072921218"><ele>1123.0</ele><time>2026-04-11T15:20:46Z</time></trkpt><trkpt lat="45.741376454918914" lon="9.962336647065827"><ele>1123.0</ele><time>2026-04-11T15:20:48Z</time></trkpt><trkpt lat="45.74133947591221" lon="9.96241339285926"><ele>1123.0</ele><time>2026-04-11T15:20:49Z</time></trkpt><trkpt lat="45.74133201133147" lon="9.962522430901375"><ele>1123.0</ele><time>2026-04-11T15:20:50Z</time></trkpt><trkpt lat="45.74132785442399" lon="9.96262358919871"><ele>1123.0</ele><time>2026-04-11T15:20:51Z</time></trkpt><trkpt lat="45.74132841894694" lon="9.962746025835889"><ele>1123.0</ele><time>2026-04-11T15:20:52Z</time></trkpt><trkpt lat="45.74134221446703" lon="9.962863554727265"><ele>1121.4</ele><time>2026-04-11T15:20:53Z</time></trkpt><trkpt lat="45.74137186640496" lon="9.962963193927393"><ele>1119.8</ele><time>2026-04-11T15:20:54Z</time></trkpt><trkpt lat="45.74139529485589" lon="9.963108948688433"><ele>1118.2</ele><time>2026-04-11T15:20:56Z</time></trkpt><trkpt lat="45.741316224497666" lon="9.963252308574795"><ele>1116.6</ele><time>2026-04-11T15:20:58Z</time></trkpt><trkpt lat="45.741199199739576" lon="9.963184496890387"><ele>1115.0</ele><time>2026-04-11T15:21:00Z</time></trkpt><trkpt lat="45.741153846045094" lon="9.963110443108913"><ele>1115.0</ele><time>2026-04-11T15:21:01Z</time></trkpt><trkpt lat="45.741102566838954" lon="9.963040106308657"><ele>1115.0</ele><time>2026-04-11T15:21:02Z</time></trkpt><trkpt lat="45.741038841822814" lon="9.962981661516505"><ele>1115.0</ele><time>2026-04-11T15:21:03Z</time></trkpt><trkpt lat="45.74096916357423" lon="9.962924704351778"><ele>1115.0</ele><time>2026-04-11T15:21:04Z</time></trkpt><trkpt lat="45.74091551591308" lon="9.962848947914411"><ele>1115.0</ele><time>2026-04-11T15:21:05Z</time></trkpt><trkpt lat="45.74086721619233" lon="9.962760876785255"><ele>1115.0</ele><time>2026-04-11T15:21:06Z</time></trkpt><trkpt lat="45.74084573569635" lon="9.962655904718451"><ele>1111.7142857142858</ele><time>2026-04-11T15:21:07Z</time></trkpt><trkpt lat="45.7408403167811" lon="9.962564015073253"><ele>1108.4285714285713</ele><time>2026-04-11T15:21:08Z</time></trkpt><trkpt lat="45.74084713334663" lon="9.96245709148151"><ele>1105.142857142857</ele><time>2026-04-11T15:21:09Z</time></trkpt><trkpt lat="45.740862792309535" lon="9.96234951947168"><ele>1101.857142857143</ele><time>2026-04-11T15:21:10Z</time></trkpt><trkpt lat="45.74087477952545" lon="9.962239661134399"><ele>1098.5714285714284</ele><time>2026-04-11T15:21:11Z</time></trkpt><trkpt lat="45.74089836344545" lon="9.962140881627658"><ele>1095.2857142857142</ele><time>2026-04-11T15:21:12Z</time></trkpt><trkpt lat="45.74091539120378" lon="9.962051529299552"><ele>1092.0</ele><time>2026-04-11T15:21:13Z</time></trkpt><trkpt lat="45.74093705683924" lon="9.961965356714682"><ele>1091.8</ele><time>2026-04-11T15:21:14Z</time></trkpt><trkpt lat="45.74098041093504" lon="9.961853530051835"><ele>1091.6</ele><time>2026-04-11T15:21:15Z</time></trkpt><trkpt lat="45.74104133823781" lon="9.961737389826714"><ele>1091.3999999999999</ele><time>2026-04-11T15:21:16Z</time></trkpt><trkpt lat="45.741101725456865" lon="9.961623235511988"><ele>1091.2</ele><time>2026-04-11T15:21:17Z</time></trkpt><trkpt lat="45.74115057880455" lon="9.961516057520825"><ele>1091.0</ele><time>2026-04-11T15:21:18Z</time></trkpt><trkpt lat="45.74119638265432" lon="9.961424163255936"><ele>1095.1666666666667</ele><time>2026-04-11T15:21:19Z</time></trkpt><trkpt lat="45.74125577197633" lon="9.961336591206436"><ele>1099.3333333333335</ele><time>2026-04-11T15:21:20Z</time></trkpt><trkpt lat="45.741316445843495" lon="9.961261372817061"><ele>1103.5</ele><time>2026-04-11T15:21:21Z</time></trkpt><trkpt lat="45.7413719175738" lon="9.961187514129174"><ele>1107.6666666666667</ele><time>2026-04-11T15:21:22Z</time></trkpt><trkpt lat="45.74142446099575" lon="9.961115081298065"><ele>1111.8333333333333</ele><time>2026-04-11T15:21:23Z</time></trkpt><trkpt lat="45.741475340263825" lon="9.96101933730576"><ele>1116.0</ele><time>2026-04-11T15:21:25Z</time></trkpt><trkpt lat="45.74146086617976" lon="9.960915344866045"><ele>1116.0</ele><time>2026-04-11T15:21:29Z</time></trkpt><trkpt lat="45.74137870267211" lon="9.96088208239419"><ele>1116.0</ele><time>2026-04-11T15:21:33Z</time></trkpt><trkpt lat="45.74130292604344" lon="9.960971656667367"><ele>1116.0</ele><time>2026-04-11T15:21:34Z</time></trkpt><trkpt lat="45.741253222404566" lon="9.961082478923501"><ele>1116.0</ele><time>2026-04-11T15:21:35Z</time></trkpt><trkpt lat="45.74119931960554" lon="9.961163202124892"><ele>1116.0</ele><time>2026-04-11T15:21:36Z</time></trkpt><trkpt lat="45.74113723165772" lon="9.961238286491826"><ele>1116.0</ele><time>2026-04-11T15:21:37Z</time></trkpt><trkpt lat="45.74106717968914" lon="9.961317666951807"><ele>1111.0</ele><time>2026-04-11T15:21:38Z</time></trkpt><trkpt lat="45.74098888217889" lon="9.961397477303253"><ele>1106.0</ele><time>2026-04-11T15:21:39Z</time></trkpt><trkpt lat="45.7409054105642" lon="9.961478217739257"><ele>1101.0</ele><time>2026-04-11T15:21:40Z</time></trkpt><trkpt lat="45.74082518244648" lon="9.961570325651746"><ele>1096.0</ele><time>2026-04-11T15:21:41Z</time></trkpt><trkpt lat="45.74074046874681" lon="9.961666517076356"><ele>1091.0</ele><time>2026-04-11T15:21:42Z</time></trkpt><trkpt lat="45.740664608238696" lon="9.961771913511436"><ele>1091.0</ele><time>2026-04-11T15:21:43Z</time></trkpt><trkpt lat="45.740594098189305" lon="9.961878131264312"><ele>1091.0</ele><time>2026-04-11T15:21:44Z</time></trkpt><trkpt lat="45.740524660415936" lon="9.961998032836851"><ele>1091.0</ele><time>2026-04-11T15:21:45Z</time></trkpt><trkpt lat="45.7404667877082" lon="9.96213345205083"><ele>1091.0</ele><time>2026-04-11T15:21:46Z</time></trkpt><trkpt lat="45.74042068237274" lon="9.96228103534365"><ele>1091.0</ele><time>2026-04-11T15:21:47Z</time></trkpt><trkpt lat="45.74038022821434" lon="9.962426004259614"><ele>1091.1666666666667</ele><time>2026-04-11T15:21:48Z</time></trkpt><trkpt lat="45.740349188133486" lon="9.962565120937066"><ele>1091.3333333333335</ele><time>2026-04-11T15:21:49Z</time></trkpt><trkpt lat="45.740324417162775" lon="9.96269774582246"><ele>1091.5</ele><time>2026-04-11T15:21:50Z</time></trkpt><trkpt lat="45.74030691063885" lon="9.962818283938093"><ele>1091.6666666666667</ele><time>2026-04-11T15:21:51Z</time></trkpt><trkpt lat="45.74030946824882" lon="9.962932432647737"><ele>1091.8333333333333</ele><time>2026-04-11T15:21:52Z</time></trkpt><trkpt lat="45.740324569533456" lon="9.96303617373224"><ele>1092.0</ele><time>2026-04-11T15:21:53Z</time></trkpt><trkpt lat="45.74033340293639" lon="9.963134660946093"><ele>1092.0</ele><time>2026-04-11T15:21:54Z</time></trkpt><trkpt lat="45.740329379558766" lon="9.96323150106924"><ele>1092.0</ele><time>2026-04-11T15:21:55Z</time></trkpt><trkpt lat="45.74031359445229" lon="9.963332261943505"><ele>1092.0</ele><time>2026-04-11T15:21:56Z</time></trkpt><trkpt lat="45.74028550750479" lon="9.963413674097925"><ele>1092.0</ele><time>2026-04-11T15:21:57Z</time></trkpt><trkpt lat="45.740202407513436" lon="9.963523948349424"><ele>1092.0</ele><time>2026-04-11T15:21:59Z</time></trkpt><trkpt lat="45.74014426336852" lon="9.963607543585848"><ele>1092.0</ele><time>2026-04-11T15:22:02Z</time></trkpt><trkpt lat="45.740185660529185" lon="9.963524759453453"><ele>1092.0</ele><time>2026-04-11T15:22:22Z</time></trkpt><trkpt lat="45.74025238172647" lon="9.9634884473887"><ele>1092.0</ele><time>2026-04-11T15:22:24Z</time></trkpt><trkpt lat="45.740307892570094" lon="9.963341514043623"><ele>1092.0</ele><time>2026-04-11T15:22:26Z</time></trkpt><trkpt lat="45.74033107132385" lon="9.963250685390582"><ele>1092.0</ele><time>2026-04-11T15:22:27Z</time></trkpt><trkpt lat="45.74032448220873" lon="9.963077864728971"><ele>1092.0</ele><time>2026-04-11T15:22:28Z</time></trkpt><trkpt lat="45.74032383259091" lon="9.962933004209376"><ele>1092.0</ele><time>2026-04-11T15:22:29Z</time></trkpt><trkpt lat="45.74032700182506" lon="9.962795474481892"><ele>1092.0</ele><time>2026-04-11T15:22:30Z</time></trkpt><trkpt lat="45.74035502290797" lon="9.962647778251823"><ele>1092.0</ele><time>2026-04-11T15:22:31Z</time></trkpt><trkpt lat="45.74039121313081" lon="9.962497981589879"><ele>1092.0</ele><time>2026-04-11T15:22:32Z</time></trkpt><trkpt lat="45.740429693700975" lon="9.962343874417419"><ele>1092.0</ele><time>2026-04-11T15:22:33Z</time></trkpt><trkpt lat="45.7404798005284" lon="9.96218486797825"><ele>1091.75</ele><time>2026-04-11T15:22:34Z</time></trkpt><trkpt lat="45.74054170919766" lon="9.962033828443737"><ele>1091.5</ele><time>2026-04-11T15:22:35Z</time></trkpt><trkpt lat="45.74062197538858" lon="9.961892073083904"><ele>1091.25</ele><time>2026-04-11T15:22:36Z</time></trkpt><trkpt lat="45.740707457349544" lon="9.961758840169326"><ele>1091.0</ele><time>2026-04-11T15:22:37Z</time></trkpt><trkpt lat="45.740807555605606" lon="9.961633421866768"><ele>1088.0</ele><time>2026-04-11T15:22:38Z</time></trkpt><trkpt lat="45.740913888106206" lon="9.961521068584558"><ele>1085.0</ele><time>2026-04-11T15:22:39Z</time></trkpt><trkpt lat="45.741024348913946" lon="9.961407055863122"><ele>1082.0</ele><time>2026-04-11T15:22:40Z</time></trkpt><trkpt lat="45.741133297297296" lon="9.961284650942778"><ele>1079.0</ele><time>2026-04-11T15:22:41Z</time></trkpt><trkpt lat="45.74123170030349" lon="9.961160695057762"><ele>1084.0</ele><time>2026-04-11T15:22:42Z</time></trkpt><trkpt lat="45.74132034091752" lon="9.961011246044267"><ele>1089.0</ele><time>2026-04-11T15:22:43Z</time></trkpt><trkpt lat="45.74140597891189" lon="9.960862492876732"><ele>1094.0</ele><time>2026-04-11T15:22:44Z</time></trkpt><trkpt lat="45.74147923627513" lon="9.960699618379177"><ele>1099.0</ele><time>2026-04-11T15:22:45Z</time></trkpt><trkpt lat="45.741543701504625" lon="9.960546554855569"><ele>1099.0</ele><time>2026-04-11T15:22:46Z</time></trkpt><trkpt lat="45.74160505087178" lon="9.960417796754607"><ele>1099.0</ele><time>2026-04-11T15:22:47Z</time></trkpt><trkpt lat="45.74165834473806" lon="9.960312046378302"><ele>1099.0</ele><time>2026-04-11T15:22:48Z</time></trkpt><trkpt lat="45.741701630605355" lon="9.96022268140856"><ele>1099.0</ele><time>2026-04-11T15:22:49Z</time></trkpt><trkpt lat="45.741721167921035" lon="9.960134166513017"><ele>1099.0</ele><time>2026-04-11T15:22:50Z</time></trkpt><trkpt lat="45.7417006955896" lon="9.96004168005776"><ele>1099.0</ele><time>2026-04-11T15:22:51Z</time></trkpt><trkpt lat="45.74163983816533" lon="9.959950894445717"><ele>1098.2</ele><time>2026-04-11T15:22:52Z</time></trkpt><trkpt lat="45.74156873286809" lon="9.959878860681272"><ele>1097.4</ele><time>2026-04-11T15:22:53Z</time></trkpt><trkpt lat="45.741492353204734" lon="9.959777128505259"><ele>1096.6</ele><time>2026-04-11T15:22:54Z</time></trkpt><trkpt lat="45.74142106475058" lon="9.959664229285004"><ele>1095.8</ele><time>2026-04-11T15:22:55Z</time></trkpt><trkpt lat="45.74136317902553" lon="9.95952622883147"><ele>1095.0</ele><time>2026-04-11T15:22:56Z</time></trkpt><trkpt lat="45.741319305985705" lon="9.95937295367378"><ele>1095.0</ele><time>2026-04-11T15:22:57Z</time></trkpt><trkpt lat="45.741294092674444" lon="9.959201608442273"><ele>1095.0</ele><time>2026-04-11T15:22:58Z</time></trkpt><trkpt lat="45.74130120829768" lon="9.959016875469104"><ele>1095.0</ele><time>2026-04-11T15:22:59Z</time></trkpt><trkpt lat="45.74132428145206" lon="9.958831309787314"><ele>1095.0</ele><time>2026-04-11T15:23:00Z</time></trkpt><trkpt lat="45.74134409620015" lon="9.958669720008354"><ele>1097.2</ele><time>2026-04-11T15:23:01Z</time></trkpt><trkpt lat="45.741366123728305" lon="9.958515189637408"><ele>1099.4</ele><time>2026-04-11T15:23:02Z</time></trkpt><trkpt lat="45.7413804513147" lon="9.958358052398776"><ele>1101.6</ele><time>2026-04-11T15:23:03Z</time></trkpt><trkpt lat="45.741331901011485" lon="9.958231728312555"><ele>1103.8</ele><time>2026-04-11T15:23:04Z</time></trkpt><trkpt lat="45.74124175991782" lon="9.958105108336893"><ele>1106.0</ele><time>2026-04-11T15:23:05Z</time></trkpt><trkpt lat="45.74112233418312" lon="9.958035695908086"><ele>1098.5</ele><time>2026-04-11T15:23:06Z</time></trkpt><trkpt lat="45.74098557047853" lon="9.957970013555046"><ele>1091.0</ele><time>2026-04-11T15:23:07Z</time></trkpt><trkpt lat="45.74084633796142" lon="9.957885747838144"><ele>1083.5</ele><time>2026-04-11T15:23:08Z</time></trkpt><trkpt lat="45.740743590203536" lon="9.95783624551138"><ele>1076.0</ele><time>2026-04-11T15:23:09Z</time></trkpt><trkpt lat="45.74062479570234" lon="9.957745153974448"><ele>1076.0</ele><time>2026-04-11T15:23:10Z</time></trkpt><trkpt lat="45.74051483053626" lon="9.957635103912787"><ele>1076.0</ele><time>2026-04-11T15:23:11Z</time></trkpt><trkpt lat="45.740420728424795" lon="9.957504506577667"><ele>1076.0</ele><time>2026-04-11T15:23:12Z</time></trkpt><trkpt lat="45.74032789679402" lon="9.957357893962175"><ele>1076.0</ele><time>2026-04-11T15:23:13Z</time></trkpt><trkpt lat="45.740264154893325" lon="9.957178254450753"><ele>1074.8</ele><time>2026-04-11T15:23:14Z</time></trkpt><trkpt lat="45.74023894677358" lon="9.957043340787473"><ele>1073.6</ele><time>2026-04-11T15:23:15Z</time></trkpt><trkpt lat="45.74019985106824" lon="9.956877712893194"><ele>1072.4</ele><time>2026-04-11T15:23:16Z</time></trkpt><trkpt lat="45.740149347686604" lon="9.956735025668992"><ele>1071.2</ele><time>2026-04-11T15:23:17Z</time></trkpt><trkpt lat="45.74006689122674" lon="9.956638752026729"><ele>1070.0</ele><time>2026-04-11T15:23:18Z</time></trkpt><trkpt lat="45.739943745252106" lon="9.956582575179418"><ele>1075.5</ele><time>2026-04-11T15:23:19Z</time></trkpt><trkpt lat="45.73981502070504" lon="9.956543705261065"><ele>1081.0</ele><time>2026-04-11T15:23:20Z</time></trkpt><trkpt lat="45.7396756362382" lon="9.956498277064311"><ele>1086.5</ele><time>2026-04-11T15:23:21Z</time></trkpt><trkpt lat="45.73952021825128" lon="9.95642512169283"><ele>1092.0</ele><time>2026-04-11T15:23:22Z</time></trkpt><trkpt lat="45.73939617535121" lon="9.956321788581858"><ele>1086.5</ele><time>2026-04-11T15:23:23Z</time></trkpt><trkpt lat="45.73928304561202" lon="9.95624176159334"><ele>1081.0</ele><time>2026-04-11T15:23:24Z</time></trkpt><trkpt lat="45.739168232984724" lon="9.956193676464414"><ele>1075.5</ele><time>2026-04-11T15:23:25Z</time></trkpt><trkpt lat="45.73906275588434" lon="9.95612966492372"><ele>1070.0</ele><time>2026-04-11T15:23:26Z</time></trkpt><trkpt lat="45.738953859141134" lon="9.956075149565688"><ele>1070.0</ele><time>2026-04-11T15:23:27Z</time></trkpt><trkpt lat="45.73885347150457" lon="9.95600690385963"><ele>1070.0</ele><time>2026-04-11T15:23:28Z</time></trkpt><trkpt lat="45.73874544338717" lon="9.955953674181432"><ele>1070.0</ele><time>2026-04-11T15:23:29Z</time></trkpt><trkpt lat="45.73863187243132" lon="9.955914428694301"><ele>1070.0</ele><time>2026-04-11T15:23:30Z</time></trkpt><trkpt lat="45.738510045053765" lon="9.955870037120084"><ele>1072.25</ele><time>2026-04-11T15:23:31Z</time></trkpt><trkpt lat="45.73839538592763" lon="9.955789151176353"><ele>1074.5</ele><time>2026-04-11T15:23:32Z</time></trkpt><trkpt lat="45.7382732609113" lon="9.955714074216502"><ele>1076.75</ele><time>2026-04-11T15:23:33Z</time></trkpt><trkpt lat="45.73814226238422" lon="9.955636651615213"><ele>1079.0</ele><time>2026-04-11T15:23:34Z</time></trkpt><trkpt lat="45.738012801425015" lon="9.955552926196026"><ele>1079.0</ele><time>2026-04-11T15:23:35Z</time></trkpt><trkpt lat="45.737878879980364" lon="9.955461728679369"><ele>1079.0</ele><time>2026-04-11T15:23:36Z</time></trkpt><trkpt lat="45.73774292076742" lon="9.955371445156723"><ele>1079.0</ele><time>2026-04-11T15:23:37Z</time></trkpt><trkpt lat="45.737606285446894" lon="9.955288151415663"><ele>1079.0</ele><time>2026-04-11T15:23:38Z</time></trkpt><trkpt lat="45.737468410600314" lon="9.955190764874105"><ele>1082.0</ele><time>2026-04-11T15:23:39Z</time></trkpt><trkpt lat="45.73732853075931" lon="9.955110738692488"><ele>1085.0</ele><time>2026-04-11T15:23:40Z</time></trkpt><trkpt lat="45.737197090488344" lon="9.955024387461613"><ele>1088.0</ele><time>2026-04-11T15:23:41Z</time></trkpt><trkpt lat="45.73706149828665" lon="9.954951137111264"><ele>1091.0</ele><time>2026-04-11T15:23:42Z</time></trkpt><trkpt lat="45.7369285247424" lon="9.954875639171357"><ele>1084.6666666666667</ele><time>2026-04-11T15:23:43Z</time></trkpt><trkpt lat="45.73678262349485" lon="9.954829786490969"><ele>1078.3333333333333</ele><time>2026-04-11T15:23:44Z</time></trkpt><trkpt lat="45.736627802042555" lon="9.95480420325894"><ele>1072.0</ele><time>2026-04-11T15:23:45Z</time></trkpt><trkpt lat="45.73647057932752" lon="9.95479832056806"><ele>1072.0</ele><time>2026-04-11T15:23:46Z</time></trkpt><trkpt lat="45.73631626663844" lon="9.954805926714759"><ele>1072.0</ele><time>2026-04-11T15:23:47Z</time></trkpt><trkpt lat="45.73615842792998" lon="9.954822775666619"><ele>1072.0</ele><time>2026-04-11T15:23:48Z</time></trkpt><trkpt lat="45.73599533504874" lon="9.954848162831604"><ele>1071.6666666666665</ele><time>2026-04-11T15:23:49Z</time></trkpt><trkpt lat="45.735833193877625" lon="9.954896788381154"><ele>1071.3333333333333</ele><time>2026-04-11T15:23:50Z</time></trkpt><trkpt lat="45.735674772547206" lon="9.954950201691634"><ele>1071.0</ele><time>2026-04-11T15:23:51Z</time></trkpt><trkpt lat="45.73552433775207" lon="9.955022123259102"><ele>1065.0</ele><time>2026-04-11T15:23:52Z</time></trkpt><trkpt lat="45.735355188891255" lon="9.95509219469977"><ele>1059.0</ele><time>2026-04-11T15:23:53Z</time></trkpt><trkpt lat="45.73522498373593" lon="9.955141004917653"><ele>1053.0</ele><time>2026-04-11T15:23:54Z</time></trkpt><trkpt lat="45.73507648201581" lon="9.955230388253058"><ele>1053.0</ele><time>2026-04-11T15:23:55Z</time></trkpt><trkpt lat="45.73492158730564" lon="9.955322710041967"><ele>1053.0</ele><time>2026-04-11T15:23:56Z</time></trkpt><trkpt lat="45.73477263370279" lon="9.955401023365425"><ele>1053.0</ele><time>2026-04-11T15:23:57Z</time></trkpt><trkpt lat="45.73463445122522" lon="9.955469611642998"><ele>1053.0</ele><time>2026-04-11T15:23:58Z</time></trkpt><trkpt lat="45.734511723390455" lon="9.955532472435554"><ele>1053.0</ele><time>2026-04-11T15:23:59Z</time></trkpt><trkpt lat="45.73438855469585" lon="9.955569779518338"><ele>1053.0</ele><time>2026-04-11T15:24:00Z</time></trkpt><trkpt lat="45.73425009944541" lon="9.955580944136344"><ele>1053.0</ele><time>2026-04-11T15:24:01Z</time></trkpt><trkpt lat="45.73410380364767" lon="9.955572462262417"><ele>1053.75</ele><time>2026-04-11T15:24:02Z</time></trkpt><trkpt lat="45.73396175645868" lon="9.955572045490939"><ele>1054.5</ele><time>2026-04-11T15:24:03Z</time></trkpt><trkpt lat="45.73382659639142" lon="9.955576537051986"><ele>1055.25</ele><time>2026-04-11T15:24:04Z</time></trkpt><trkpt lat="45.73369624064234" lon="9.955569072839065"><ele>1056.0</ele><time>2026-04-11T15:24:05Z</time></trkpt><trkpt lat="45.7335755314981" lon="9.955540599571401"><ele>1056.0</ele><time>2026-04-11T15:24:06Z</time></trkpt><trkpt lat="45.73347613915742" lon="9.955514259768472"><ele>1056.0</ele><time>2026-04-11T15:24:07Z</time></trkpt><trkpt lat="45.733397747091196" lon="9.955496095989067"><ele>1056.0</ele><time>2026-04-11T15:24:08Z</time></trkpt><trkpt lat="45.73332881807049" lon="9.955470291709759"><ele>1056.0</ele><time>2026-04-11T15:24:09Z</time></trkpt><trkpt lat="45.73324391425427" lon="9.955419065641829"><ele>1056.0</ele><time>2026-04-11T15:24:11Z</time></trkpt><trkpt lat="45.733229204602644" lon="9.955322968092993"><ele>1056.0</ele><time>2026-04-11T15:24:13Z</time></trkpt><trkpt lat="45.73327351057296" lon="9.955204547020882"><ele>1056.0</ele><time>2026-04-11T15:24:15Z</time></trkpt><trkpt lat="45.73334341648087" lon="9.955135474393574"><ele>1056.0</ele><time>2026-04-11T15:24:16Z</time></trkpt><trkpt lat="45.733403784876096" lon="9.955092921315881"><ele>1056.0</ele><time>2026-04-11T15:24:17Z</time></trkpt><trkpt lat="45.733468692792854" lon="9.955035222523847"><ele>1056.0</ele><time>2026-04-11T15:24:18Z</time></trkpt><trkpt lat="45.733520324365365" lon="9.954978411849064"><ele>1056.0</ele><time>2026-04-11T15:24:19Z</time></trkpt><trkpt lat="45.73361207913178" lon="9.954904793693748"><ele>1056.0</ele><time>2026-04-11T15:24:21Z</time></trkpt><trkpt lat="45.73369393519464" lon="9.954835267368077"><ele>1056.0</ele><time>2026-04-11T15:24:23Z</time></trkpt><trkpt lat="45.73374464778996" lon="9.954770217444615"><ele>1056.0</ele><time>2026-04-11T15:24:25Z</time></trkpt><trkpt lat="45.733679904976945" lon="9.954722229239183"><ele>1056.0</ele><time>2026-04-11T15:24:30Z</time></trkpt><trkpt lat="45.733619990357155" lon="9.954788749252208"><ele>1056.0</ele><time>2026-04-11T15:24:32Z</time></trkpt><trkpt lat="45.73353593045269" lon="9.954934347399215"><ele>1056.0</ele><time>2026-04-11T15:24:34Z</time></trkpt><trkpt lat="45.73344583862981" lon="9.955038388185356"><ele>1056.0</ele><time>2026-04-11T15:24:36Z</time></trkpt><trkpt lat="45.733363741872495" lon="9.955107491326343"><ele>1056.0</ele><time>2026-04-11T15:24:38Z</time></trkpt><trkpt lat="45.733300480439375" lon="9.955160404805131"><ele>1056.0</ele><time>2026-04-11T15:24:40Z</time></trkpt><trkpt lat="45.73321733679908" lon="9.95522113288865"><ele>1056.0</ele><time>2026-04-11T15:24:43Z</time></trkpt><trkpt lat="45.73312780548312" lon="9.955256367965635"><ele>1056.0</ele><time>2026-04-11T15:24:46Z</time></trkpt><trkpt lat="45.733051233317425" lon="9.955236863571432"><ele>1056.0</ele><time>2026-04-11T15:24:54Z</time></trkpt><trkpt lat="45.73296736501333" lon="9.955123781514397"><ele>1057.6666666666667</ele><time>2026-04-11T15:24:56Z</time></trkpt><trkpt lat="45.732947789819214" lon="9.955031281077027"><ele>1059.3333333333333</ele><time>2026-04-11T15:24:57Z</time></trkpt><trkpt lat="45.73298073339364" lon="9.954906354828482"><ele>1061.0</ele><time>2026-04-11T15:24:58Z</time></trkpt><trkpt lat="45.73304435424692" lon="9.954805805585256"><ele>1062.6666666666665</ele><time>2026-04-11T15:24:59Z</time></trkpt><trkpt lat="45.733121187614294" lon="9.954715735495274"><ele>1064.3333333333333</ele><time>2026-04-11T15:25:00Z</time></trkpt><trkpt lat="45.733188738903394" lon="9.954634506546475"><ele>1066.0</ele><time>2026-04-11T15:25:01Z</time></trkpt><trkpt lat="45.73324670205096" lon="9.954552057507948"><ele>1066.0</ele><time>2026-04-11T15:25:02Z</time></trkpt><trkpt lat="45.73329555318807" lon="9.954459543604035"><ele>1066.0</ele><time>2026-04-11T15:25:03Z</time></trkpt><trkpt lat="45.733334496863506" lon="9.954371930781477"><ele>1066.0</ele><time>2026-04-11T15:25:04Z</time></trkpt><trkpt lat="45.73337264016099" lon="9.954278582490756"><ele>1066.0</ele><time>2026-04-11T15:25:05Z</time></trkpt><trkpt lat="45.73341618746171" lon="9.954186639631358"><ele>1066.0</ele><time>2026-04-11T15:25:06Z</time></trkpt><trkpt lat="45.73345847847107" lon="9.95410314740164"><ele>1066.0</ele><time>2026-04-11T15:25:07Z</time></trkpt><trkpt lat="45.73349616930329" lon="9.954022792028644"><ele>1066.0</ele><time>2026-04-11T15:25:08Z</time></trkpt><trkpt lat="45.73354961657548" lon="9.953893100233826"><ele>1064.1666666666665</ele><time>2026-04-11T15:25:10Z</time></trkpt><trkpt lat="45.7335876856787" lon="9.953797087836179"><ele>1062.3333333333333</ele><time>2026-04-11T15:25:12Z</time></trkpt><trkpt lat="45.733533865935186" lon="9.953719046317703"><ele>1060.5</ele><time>2026-04-11T15:25:15Z</time></trkpt><trkpt lat="45.733469007549225" lon="9.953776569164347"><ele>1058.6666666666667</ele><time>2026-04-11T15:25:19Z</time></trkpt><trkpt lat="45.733438645166466" lon="9.953865192317432"><ele>1056.8333333333335</ele><time>2026-04-11T15:25:21Z</time></trkpt><trkpt lat="45.73339678940205" lon="9.953981309498788"><ele>1055.0</ele><time>2026-04-11T15:25:23Z</time></trkpt><trkpt lat="45.73335263359974" lon="9.954079796640562"><ele>1055.0</ele><time>2026-04-11T15:25:25Z</time></trkpt><trkpt lat="45.733296166778864" lon="9.9541397971121"><ele>1055.0</ele><time>2026-04-11T15:25:28Z</time></trkpt><trkpt lat="45.73331195992023" lon="9.954220249375663"><ele>1055.0</ele><time>2026-04-11T15:27:49Z</time></trkpt><trkpt lat="45.7333443866902" lon="9.954106166312515"><ele>1055.0</ele><time>2026-04-11T15:27:53Z</time></trkpt><trkpt lat="45.733376988305615" lon="9.954021052884155"><ele>1055.0</ele><time>2026-04-11T15:27:55Z</time></trkpt><trkpt lat="45.73342477076188" lon="9.95394415205839"><ele>1055.0</ele><time>2026-04-11T15:27:57Z</time></trkpt><trkpt lat="45.733475307619614" lon="9.953868943834713"><ele>1055.0</ele><time>2026-04-11T15:27:59Z</time></trkpt><trkpt lat="45.73351831896077" lon="9.953792885216354"><ele>1057.2</ele><time>2026-04-11T15:28:02Z</time></trkpt><trkpt lat="45.73355617030195" lon="9.953717839282907"><ele>1059.4</ele><time>2026-04-11T15:28:15Z</time></trkpt><trkpt lat="45.73365628852239" lon="9.953655796144576"><ele>1061.6</ele><time>2026-04-11T15:28:18Z</time></trkpt><trkpt lat="45.73370231805237" lon="9.953502174477943"><ele>1063.8</ele><time>2026-04-11T15:28:20Z</time></trkpt><trkpt lat="45.73365526421058" lon="9.953368568643278"><ele>1066.0</ele><time>2026-04-11T15:28:22Z</time></trkpt><trkpt lat="45.7335812718327" lon="9.953362088329376"><ele>1063.8</ele><time>2026-04-11T15:28:23Z</time></trkpt><trkpt lat="45.73350335726846" lon="9.95340133004704"><ele>1061.6</ele><time>2026-04-11T15:28:24Z</time></trkpt><trkpt lat="45.73341742820596" lon="9.953484014095688"><ele>1059.4</ele><time>2026-04-11T15:28:25Z</time></trkpt><trkpt lat="45.73333088732073" lon="9.953576745792121"><ele>1057.2</ele><time>2026-04-11T15:28:26Z</time></trkpt><trkpt lat="45.73324005341798" lon="9.95368035894912"><ele>1055.0</ele><time>2026-04-11T15:28:27Z</time></trkpt><trkpt lat="45.73314741647066" lon="9.953795936117682"><ele>1055.0</ele><time>2026-04-11T15:28:28Z</time></trkpt><trkpt lat="45.73305409621685" lon="9.953914226912154"><ele>1055.0</ele><time>2026-04-11T15:28:29Z</time></trkpt><trkpt lat="45.73296037292074" lon="9.954035991083355"><ele>1055.0</ele><time>2026-04-11T15:28:30Z</time></trkpt><trkpt lat="45.73286591228162" lon="9.954143833849553"><ele>1055.0</ele><time>2026-04-11T15:28:31Z</time></trkpt><trkpt lat="45.73277234641795" lon="9.954231371208243"><ele>1054.2</ele><time>2026-04-11T15:28:32Z</time></trkpt><trkpt lat="45.73268394919279" lon="9.954306704448435"><ele>1053.4</ele><time>2026-04-11T15:28:33Z</time></trkpt><trkpt lat="45.7326111475821" lon="9.954372086590576"><ele>1052.6</ele><time>2026-04-11T15:28:34Z</time></trkpt><trkpt lat="45.73255375272586" lon="9.95442821642873"><ele>1051.8</ele><time>2026-04-11T15:28:35Z</time></trkpt><trkpt lat="45.73245160826969" lon="9.95449595065713"><ele>1051.0</ele><time>2026-04-11T15:28:37Z</time></trkpt><trkpt lat="45.732405451918794" lon="9.954338190207341"><ele>1051.0</ele><time>2026-04-11T15:28:39Z</time></trkpt><trkpt lat="45.73245328309028" lon="9.954254945870685"><ele>1051.0</ele><time>2026-04-11T15:28:40Z</time></trkpt><trkpt lat="45.73253407955741" lon="9.954210214917563"><ele>1051.0</ele><time>2026-04-11T15:28:41Z</time></trkpt><trkpt lat="45.73261781602754" lon="9.954161555010911"><ele>1051.0</ele><time>2026-04-11T15:28:42Z</time></trkpt><trkpt lat="45.732705084403015" lon="9.954063247774446"><ele>1051.0</ele><time>2026-04-11T15:28:43Z</time></trkpt><trkpt lat="45.73278333982842" lon="9.953946654852098"><ele>1052.0</ele><time>2026-04-11T15:28:44Z</time></trkpt><trkpt lat="45.732848040222876" lon="9.953805907484513"><ele>1053.0</ele><time>2026-04-11T15:28:45Z</time></trkpt><trkpt lat="45.7328948511708" lon="9.953637617308408"><ele>1054.0</ele><time>2026-04-11T15:28:46Z</time></trkpt><trkpt lat="45.73292034608554" lon="9.953470790437413"><ele>1055.0</ele><time>2026-04-11T15:28:47Z</time></trkpt><trkpt lat="45.732948321578675" lon="9.953328673912246"><ele>1053.0</ele><time>2026-04-11T15:28:48Z</time></trkpt><trkpt lat="45.73298964893106" lon="9.953208670549225"><ele>1051.0</ele><time>2026-04-11T15:28:49Z</time></trkpt><trkpt lat="45.73303779335167" lon="9.953106859530386"><ele>1049.0</ele><time>2026-04-11T15:28:50Z</time></trkpt><trkpt lat="45.733079895497276" lon="9.95301936270432"><ele>1047.0</ele><time>2026-04-11T15:28:51Z</time></trkpt><trkpt lat="45.733088014457906" lon="9.952919600914333"><ele>1045.0</ele><time>2026-04-11T15:28:52Z</time></trkpt><trkpt lat="45.73303974882257" lon="9.95284012091271"><ele>1043.0</ele><time>2026-04-11T15:28:53Z</time></trkpt><trkpt lat="45.7329615662775" lon="9.952818900432012"><ele>1043.0</ele><time>2026-04-11T15:28:54Z</time></trkpt><trkpt lat="45.732884026736855" lon="9.952884826251587"><ele>1043.0</ele><time>2026-04-11T15:28:55Z</time></trkpt><trkpt lat="45.732823128138534" lon="9.952998747112755"><ele>1043.0</ele><time>2026-04-11T15:28:56Z</time></trkpt><trkpt lat="45.73277543682066" lon="9.95314497642891"><ele>1043.0</ele><time>2026-04-11T15:28:57Z</time></trkpt><trkpt lat="45.73272875603853" lon="9.953305728021588"><ele>1043.0</ele><time>2026-04-11T15:28:58Z</time></trkpt><trkpt lat="45.73268823237117" lon="9.953452204367588"><ele>1041.4</ele><time>2026-04-11T15:28:59Z</time></trkpt><trkpt lat="45.732640544196194" lon="9.953583858574108"><ele>1039.8</ele><time>2026-04-11T15:29:00Z</time></trkpt><trkpt lat="45.73256499631736" lon="9.953668927001889"><ele>1038.2</ele><time>2026-04-11T15:29:01Z</time></trkpt><trkpt lat="45.73246365326501" lon="9.953694847089036"><ele>1036.6</ele><time>2026-04-11T15:29:02Z</time></trkpt><trkpt lat="45.732354823205995" lon="9.953645730946869"><ele>1035.0</ele><time>2026-04-11T15:29:03Z</time></trkpt><trkpt lat="45.73226008951888" lon="9.953591037191222"><ele>1035.0</ele><time>2026-04-11T15:29:04Z</time></trkpt><trkpt lat="45.73216906660963" lon="9.953581799449939"><ele>1035.0</ele><time>2026-04-11T15:29:05Z</time></trkpt><trkpt lat="45.73209190189465" lon="9.953616711019533"><ele>1035.0</ele><time>2026-04-11T15:29:06Z</time></trkpt><trkpt lat="45.732022012751926" lon="9.953635718303513"><ele>1035.0</ele><time>2026-04-11T15:29:07Z</time></trkpt><trkpt lat="45.73197363931662" lon="9.953490204684783"><ele>1035.0</ele><time>2026-04-11T15:29:09Z</time></trkpt><trkpt lat="45.732035742532766" lon="9.95342873009604"><ele>1035.0</ele><time>2026-04-11T15:29:10Z</time></trkpt><trkpt lat="45.732122343212374" lon="9.953404167165603"><ele>1035.0</ele><time>2026-04-11T15:29:11Z</time></trkpt><trkpt lat="45.732217546624256" lon="9.9534202929349"><ele>1035.0</ele><time>2026-04-11T15:29:12Z</time></trkpt><trkpt lat="45.73231909224228" lon="9.953441805299727"><ele>1035.0</ele><time>2026-04-11T15:29:13Z</time></trkpt><trkpt lat="45.73241120006838" lon="9.953435146952776"><ele>1035.0</ele><time>2026-04-11T15:29:14Z</time></trkpt><trkpt lat="45.732482405817386" lon="9.953367615165108"><ele>1035.0</ele><time>2026-04-11T15:29:15Z</time></trkpt><trkpt lat="45.7325145705345" lon="9.953235588813135"><ele>1031.0</ele><time>2026-04-11T15:29:16Z</time></trkpt><trkpt lat="45.73250123618302" lon="9.953078376163088"><ele>1027.0</ele><time>2026-04-11T15:29:17Z</time></trkpt><trkpt lat="45.7324583825401" lon="9.952917339212332"><ele>1023.0</ele><time>2026-04-11T15:29:18Z</time></trkpt><trkpt lat="45.732420410151505" lon="9.952754981490797"><ele>1019.0</ele><time>2026-04-11T15:29:19Z</time></trkpt><trkpt lat="45.73239086188885" lon="9.95260752518223"><ele>1016.6666666666667</ele><time>2026-04-11T15:29:20Z</time></trkpt><trkpt lat="45.73237322595879" lon="9.952465582988166"><ele>1014.3333333333334</ele><time>2026-04-11T15:29:21Z</time></trkpt><trkpt lat="45.73239008424078" lon="9.952329029319507"><ele>1012.0</ele><time>2026-04-11T15:29:22Z</time></trkpt><trkpt lat="45.73243201115813" lon="9.952205245995582"><ele>1009.6666666666667</ele><time>2026-04-11T15:29:23Z</time></trkpt><trkpt lat="45.73249106791227" lon="9.952114331817166"><ele>1007.3333333333334</ele><time>2026-04-11T15:29:24Z</time></trkpt><trkpt lat="45.73251483141498" lon="9.952022011288015"><ele>1005.0</ele><time>2026-04-11T15:29:25Z</time></trkpt><trkpt lat="45.73248322156863" lon="9.951929596417989"><ele>1005.0</ele><time>2026-04-11T15:29:26Z</time></trkpt><trkpt lat="45.73240657210936" lon="9.951884451752537"><ele>1005.0</ele><time>2026-04-11T15:29:27Z</time></trkpt><trkpt lat="45.732315346996764" lon="9.951905777652643"><ele>1005.0</ele><time>2026-04-11T15:29:28Z</time></trkpt><trkpt lat="45.73222099594154" lon="9.95195364368642"><ele>1005.0</ele><time>2026-04-11T15:29:29Z</time></trkpt><trkpt lat="45.73213159042697" lon="9.952014516054561"><ele>1005.0</ele><time>2026-04-11T15:29:30Z</time></trkpt><trkpt lat="45.732059234824455" lon="9.952116789035154"><ele>1005.0</ele><time>2026-04-11T15:29:31Z</time></trkpt><trkpt lat="45.732029765739526" lon="9.952256017881169"><ele>1005.0</ele><time>2026-04-11T15:29:32Z</time></trkpt><trkpt lat="45.73204039897552" lon="9.952409872806863"><ele>1005.0</ele><time>2026-04-11T15:29:33Z</time></trkpt><trkpt lat="45.732037428951585" lon="9.952550152159917"><ele>1005.0</ele><time>2026-04-11T15:29:34Z</time></trkpt><trkpt lat="45.73196962070637" lon="9.952655559654042"><ele>1005.0</ele><time>2026-04-11T15:29:35Z</time></trkpt><trkpt lat="45.731861087260256" lon="9.952698960250581"><ele>1004.2</ele><time>2026-04-11T15:29:36Z</time></trkpt><trkpt lat="45.731754555658995" lon="9.952727742945296"><ele>1003.4</ele><time>2026-04-11T15:29:37Z</time></trkpt><trkpt lat="45.73165484878642" lon="9.952779186688543"><ele>1002.5999999999999</ele><time>2026-04-11T15:29:38Z</time></trkpt><trkpt lat="45.73156194164677" lon="9.952856122291095"><ele>1001.8</ele><time>2026-04-11T15:29:39Z</time></trkpt><trkpt lat="45.731480348623265" lon="9.952962203008767"><ele>1001.0</ele><time>2026-04-11T15:29:40Z</time></trkpt><trkpt lat="45.7314118599625" lon="9.953087988391369"><ele>1001.0</ele><time>2026-04-11T15:29:41Z</time></trkpt><trkpt lat="45.7313551236126" lon="9.953219314486661"><ele>1000.9999999999999</ele><time>2026-04-11T15:29:42Z</time></trkpt><trkpt lat="45.731315635414866" lon="9.953352600115375"><ele>1000.9999999999999</ele><time>2026-04-11T15:29:43Z</time></trkpt><trkpt lat="45.7312974117074" lon="9.953479839820236"><ele>1001.0</ele><time>2026-04-11T15:29:44Z</time></trkpt><trkpt lat="45.73127627132805" lon="9.953597529629805"><ele>1001.0</ele><time>2026-04-11T15:29:45Z</time></trkpt><trkpt lat="45.73122696134496" lon="9.953685378793086"><ele>1000.8</ele><time>2026-04-11T15:29:46Z</time></trkpt><trkpt lat="45.731134153512116" lon="9.953707321794644"><ele>1000.5999999999999</ele><time>2026-04-11T15:29:47Z</time></trkpt><trkpt lat="45.73104127059789" lon="9.953659126896149"><ele>1000.4</ele><time>2026-04-11T15:29:48Z</time></trkpt><trkpt lat="45.730947245377045" lon="9.953579200294689"><ele>1000.2</ele><time>2026-04-11T15:29:49Z</time></trkpt><trkpt lat="45.73085928430639" lon="9.95352734638338"><ele>1000.0</ele><time>2026-04-11T15:29:50Z</time></trkpt><trkpt lat="45.73077533531757" lon="9.95350479940566"><ele>1000.0</ele><time>2026-04-11T15:29:51Z</time></trkpt><trkpt lat="45.73071040753338" lon="9.953484320238234"><ele>1000.0</ele><time>2026-04-11T15:29:52Z</time></trkpt><trkpt lat="45.73069163391467" lon="9.95329893698251"><ele>1000.0</ele><time>2026-04-11T15:29:54Z</time></trkpt><trkpt lat="45.73076694660761" lon="9.953238336716408"><ele>1000.0</ele><time>2026-04-11T15:29:55Z</time></trkpt><trkpt lat="45.73085380168739" lon="9.953218761656021"><ele>1000.0</ele><time>2026-04-11T15:29:56Z</time></trkpt><trkpt lat="45.73093592738949" lon="9.953187668960286"><ele>997.8</ele><time>2026-04-11T15:29:57Z</time></trkpt><trkpt lat="45.730998786931295" lon="9.953092398677372"><ele>995.6</ele><time>2026-04-11T15:29:58Z</time></trkpt><trkpt lat="45.7310149746018" lon="9.952935688950356"><ele>993.4000000000001</ele><time>2026-04-11T15:29:59Z</time></trkpt><trkpt lat="45.73102298623095" lon="9.952767546180585"><ele>991.2</ele><time>2026-04-11T15:30:00Z</time></trkpt><trkpt lat="45.73103785452354" lon="9.952603620353795"><ele>989.0</ele><time>2026-04-11T15:30:01Z</time></trkpt><trkpt lat="45.73107726707466" lon="9.952454576274478"><ele>988.6</ele><time>2026-04-11T15:30:02Z</time></trkpt><trkpt lat="45.731136644304065" lon="9.952329488127974"><ele>988.2</ele><time>2026-04-11T15:30:03Z</time></trkpt><trkpt lat="45.73121383990041" lon="9.952239979669505"><ele>987.8000000000001</ele><time>2026-04-11T15:30:04Z</time></trkpt><trkpt lat="45.731308645726585" lon="9.95220293141165"><ele>987.4000000000001</ele><time>2026-04-11T15:30:05Z</time></trkpt><trkpt lat="45.73140237048303" lon="9.952222236625198"><ele>987.0</ele><time>2026-04-11T15:30:06Z</time></trkpt><trkpt lat="45.73148697237977" lon="9.952236100195446"><ele>987.0</ele><time>2026-04-11T15:30:07Z</time></trkpt><trkpt lat="45.731565943507896" lon="9.952178905926049"><ele>987.0</ele><time>2026-04-11T15:30:08Z</time></trkpt><trkpt lat="45.731601035107786" lon="9.952057692293517"><ele>987.0</ele><time>2026-04-11T15:30:09Z</time></trkpt><trkpt lat="45.73158938468381" lon="9.951912351752659"><ele>987.0</ele><time>2026-04-11T15:30:10Z</time></trkpt><trkpt lat="45.73156106516524" lon="9.951773866369283"><ele>987.0</ele><time>2026-04-11T15:30:11Z</time></trkpt><trkpt lat="45.731547357213636" lon="9.951632375061765"><ele>985.25</ele><time>2026-04-11T15:30:12Z</time></trkpt><trkpt lat="45.73155526249063" lon="9.95148281828534"><ele>983.5</ele><time>2026-04-11T15:30:13Z</time></trkpt><trkpt lat="45.73158508487538" lon="9.95132433659774"><ele>981.75</ele><time>2026-04-11T15:30:14Z</time></trkpt><trkpt lat="45.73163577167373" lon="9.951175639579958"><ele>980.0</ele><time>2026-04-11T15:30:15Z</time></trkpt><trkpt lat="45.731721942500535" lon="9.95105789597392"><ele>980.0</ele><time>2026-04-11T15:30:16Z</time></trkpt><trkpt lat="45.73181303027602" lon="9.95094686120536"><ele>980.0</ele><time>2026-04-11T15:30:17Z</time></trkpt><trkpt lat="45.73191998137081" lon="9.95087324088384"><ele>980.0</ele><time>2026-04-11T15:30:18Z</time></trkpt><trkpt lat="45.73203384083041" lon="9.950840735774348"><ele>980.0</ele><time>2026-04-11T15:30:19Z</time></trkpt><trkpt lat="45.73213833786457" lon="9.950842952892119"><ele>978.6</ele><time>2026-04-11T15:30:20Z</time></trkpt><trkpt lat="45.732238615601645" lon="9.95087417471166"><ele>977.2</ele><time>2026-04-11T15:30:21Z</time></trkpt><trkpt lat="45.73233444057956" lon="9.950928377122342"><ele>975.8</ele><time>2026-04-11T15:30:22Z</time></trkpt><trkpt lat="45.73242120620889" lon="9.951000188372685"><ele>974.4</ele><time>2026-04-11T15:30:23Z</time></trkpt><trkpt lat="45.732493692221574" lon="9.951062588587394"><ele>973.0</ele><time>2026-04-11T15:30:24Z</time></trkpt><trkpt lat="45.732574270105985" lon="9.951078040248241"><ele>973.0</ele><time>2026-04-11T15:30:25Z</time></trkpt><trkpt lat="45.732646809513795" lon="9.951014739625505"><ele>973.0</ele><time>2026-04-11T15:30:26Z</time></trkpt><trkpt lat="45.73267628363479" lon="9.950895647198791"><ele>973.0</ele><time>2026-04-11T15:30:27Z</time></trkpt><trkpt lat="45.7326616771865" lon="9.950745490813503"><ele>973.0</ele><time>2026-04-11T15:30:28Z</time></trkpt><trkpt lat="45.73262711364254" lon="9.950597956684263"><ele>973.0</ele><time>2026-04-11T15:30:29Z</time></trkpt><trkpt lat="45.732601245222426" lon="9.950434787276418"><ele>973.0</ele><time>2026-04-11T15:30:30Z</time></trkpt><trkpt lat="45.73259347981846" lon="9.950260943151399"><ele>973.0</ele><time>2026-04-11T15:30:31Z</time></trkpt><trkpt lat="45.73259912010459" lon="9.950081344547874"><ele>973.0</ele><time>2026-04-11T15:30:32Z</time></trkpt><trkpt lat="45.73262721759107" lon="9.949912780863773"><ele>973.0</ele><time>2026-04-11T15:30:33Z</time></trkpt><trkpt lat="45.73268695006406" lon="9.949765663478887"><ele>974.0</ele><time>2026-04-11T15:30:34Z</time></trkpt><trkpt lat="45.7327756793456" lon="9.949641212427917"><ele>975.0</ele><time>2026-04-11T15:30:35Z</time></trkpt><trkpt lat="45.73287757545328" lon="9.949535131625192"><ele>976.0</ele><time>2026-04-11T15:30:36Z</time></trkpt><trkpt lat="45.732986533096934" lon="9.949458548507746"><ele>977.0</ele><time>2026-04-11T15:30:37Z</time></trkpt><trkpt lat="45.73310173152028" lon="9.949417487298064"><ele>977.0</ele><time>2026-04-11T15:30:38Z</time></trkpt><trkpt lat="45.733216281929444" lon="9.949392873248572"><ele>977.0</ele><time>2026-04-11T15:30:39Z</time></trkpt><trkpt lat="45.73331877240736" lon="9.949327371488128"><ele>977.0</ele><time>2026-04-11T15:30:40Z</time></trkpt><trkpt lat="45.73339864293972" lon="9.949218646249761"><ele>977.0</ele><time>2026-04-11T15:30:41Z</time></trkpt><trkpt lat="45.733441005408814" lon="9.94908749683111"><ele>977.0</ele><time>2026-04-11T15:30:42Z</time></trkpt><trkpt lat="45.73343347620306" lon="9.948950831937255"><ele>974.0</ele><time>2026-04-11T15:30:43Z</time></trkpt><trkpt lat="45.73337423708631" lon="9.948839674617805"><ele>971.0</ele><time>2026-04-11T15:30:44Z</time></trkpt><trkpt lat="45.733298775751955" lon="9.9487372940496"><ele>968.0</ele><time>2026-04-11T15:30:45Z</time></trkpt><trkpt lat="45.73322593884935" lon="9.9486155670527"><ele>965.0</ele><time>2026-04-11T15:30:46Z</time></trkpt><trkpt lat="45.733175247452984" lon="9.948465193390486"><ele>962.0</ele><time>2026-04-11T15:30:47Z</time></trkpt><trkpt lat="45.7331481191645" lon="9.948295102965249"><ele>960.5</ele><time>2026-04-11T15:30:48Z</time></trkpt><trkpt lat="45.73314569698387" lon="9.948105382428189"><ele>959.0</ele><time>2026-04-11T15:30:49Z</time></trkpt><trkpt lat="45.73315934844901" lon="9.947907368233095"><ele>957.5</ele><time>2026-04-11T15:30:50Z</time></trkpt><trkpt lat="45.73318719741181" lon="9.947708034824318"><ele>956.0</ele><time>2026-04-11T15:30:51Z</time></trkpt><trkpt lat="45.7332026784794" lon="9.947497783356942"><ele>953.75</ele><time>2026-04-11T15:30:52Z</time></trkpt><trkpt lat="45.73320824940937" lon="9.947277083755095"><ele>951.5</ele><time>2026-04-11T15:30:53Z</time></trkpt><trkpt lat="45.73320908082323" lon="9.94707625729249"><ele>949.25</ele><time>2026-04-11T15:30:54Z</time></trkpt><trkpt lat="45.73321639669324" lon="9.946885151225702"><ele>947.0</ele><time>2026-04-11T15:30:55Z</time></trkpt><trkpt lat="45.73323302265362" lon="9.946721392139331"><ele>945.2</ele><time>2026-04-11T15:30:56Z</time></trkpt><trkpt lat="45.73325394796819" lon="9.946574558122403"><ele>943.4000000000001</ele><time>2026-04-11T15:30:57Z</time></trkpt><trkpt lat="45.7332842648262" lon="9.94645097881349"><ele>941.5999999999999</ele><time>2026-04-11T15:30:58Z</time></trkpt><trkpt lat="45.73328817163771" lon="9.946359002383453"><ele>939.8</ele><time>2026-04-11T15:30:59Z</time></trkpt><trkpt lat="45.73324780476858" lon="9.946286346016203"><ele>938.0</ele><time>2026-04-11T15:31:00Z</time></trkpt><trkpt lat="45.733118952426935" lon="9.946266936529607"><ele>938.0</ele><time>2026-04-11T15:31:02Z</time></trkpt><trkpt lat="45.73306749126016" lon="9.946361589521295"><ele>938.0</ele><time>2026-04-11T15:31:03Z</time></trkpt><trkpt lat="45.73303865503843" lon="9.946494881093857"><ele>938.0</ele><time>2026-04-11T15:31:04Z</time></trkpt><trkpt lat="45.733011743345145" lon="9.9466492541471"><ele>938.0</ele><time>2026-04-11T15:31:05Z</time></trkpt><trkpt lat="45.7329847865779" lon="9.946817195794026"><ele>938.0</ele><time>2026-04-11T15:31:06Z</time></trkpt><trkpt lat="45.73295729276207" lon="9.946981228464708"><ele>939.8</ele><time>2026-04-11T15:31:07Z</time></trkpt><trkpt lat="45.73293587780701" lon="9.947127995008348"><ele>941.5999999999999</ele><time>2026-04-11T15:31:08Z</time></trkpt><trkpt lat="45.73290924489487" lon="9.947257769974563"><ele>943.4000000000001</ele><time>2026-04-11T15:31:09Z</time></trkpt><trkpt lat="45.732894524496196" lon="9.947370667371807"><ele>945.2</ele><time>2026-04-11T15:31:10Z</time></trkpt><trkpt lat="45.732865417593" lon="9.94745914170027"><ele>947.0</ele><time>2026-04-11T15:31:11Z</time></trkpt><trkpt lat="45.73275858104088" lon="9.94739077279706"><ele>947.0</ele><time>2026-04-11T15:31:13Z</time></trkpt><trkpt lat="45.732728937177754" lon="9.947272004907056"><ele>947.0</ele><time>2026-04-11T15:31:14Z</time></trkpt><trkpt lat="45.732730206963595" lon="9.947105482748123"><ele>947.0</ele><time>2026-04-11T15:31:15Z</time></trkpt><trkpt lat="45.73272716395071" lon="9.946914713050163"><ele>947.0</ele><time>2026-04-11T15:31:16Z</time></trkpt><trkpt lat="45.732713524338" lon="9.946708709141763"><ele>936.0</ele><time>2026-04-11T15:31:17Z</time></trkpt><trkpt lat="45.73268248686573" lon="9.946493800666262"><ele>925.0</ele><time>2026-04-11T15:31:18Z</time></trkpt><trkpt lat="45.73266471057261" lon="9.946270687590259"><ele>914.0</ele><time>2026-04-11T15:31:19Z</time></trkpt><trkpt lat="45.73263609194987" lon="9.94604955304782"><ele>912.25</ele><time>2026-04-11T15:31:20Z</time></trkpt><trkpt lat="45.732608119657584" lon="9.945854090473235"><ele>910.5</ele><time>2026-04-11T15:31:21Z</time></trkpt><trkpt lat="45.7325894869975" lon="9.945681045510792"><ele>908.75</ele><time>2026-04-11T15:31:22Z</time></trkpt><trkpt lat="45.732576484658665" lon="9.94553002821862"><ele>907.0</ele><time>2026-04-11T15:31:23Z</time></trkpt><trkpt lat="45.732583208727014" lon="9.945398311399774"><ele>906.9999999999999</ele><time>2026-04-11T15:31:24Z</time></trkpt><trkpt lat="45.73262407921161" lon="9.945283730118117"><ele>907.0</ele><time>2026-04-11T15:31:25Z</time></trkpt><trkpt lat="45.73270189028692" lon="9.945213624871087"><ele>907.0</ele><time>2026-04-11T15:31:26Z</time></trkpt><trkpt lat="45.732792886594446" lon="9.945208546784517"><ele>907.0</ele><time>2026-04-11T15:31:27Z</time></trkpt><trkpt lat="45.73287713059619" lon="9.945262795803982"><ele>906.9999999999999</ele><time>2026-04-11T15:31:28Z</time></trkpt><trkpt lat="45.73292986359773" lon="9.945318870061104"><ele>907.0</ele><time>2026-04-11T15:31:29Z</time></trkpt><trkpt lat="45.73301530625504" lon="9.945349466685887"><ele>909.9999999999999</ele><time>2026-04-11T15:31:30Z</time></trkpt><trkpt lat="45.733099917394846" lon="9.945399376395304"><ele>913.0</ele><time>2026-04-11T15:31:31Z</time></trkpt><trkpt lat="45.733185585369895" lon="9.945441512459471"><ele>916.0</ele><time>2026-04-11T15:31:32Z</time></trkpt><trkpt lat="45.73326766838213" lon="9.94545795425693"><ele>919.0</ele><time>2026-04-11T15:31:33Z</time></trkpt><trkpt lat="45.73333213914596" lon="9.94540957488605"><ele>921.9999999999999</ele><time>2026-04-11T15:31:34Z</time></trkpt><trkpt lat="45.733360382863005" lon="9.945311179227541"><ele>925.0</ele><time>2026-04-11T15:31:35Z</time></trkpt><trkpt lat="45.733340336259474" lon="9.945183985638732"><ele>925.0</ele><time>2026-04-11T15:31:36Z</time></trkpt><trkpt lat="45.733299778932555" lon="9.945082462420764"><ele>925.0</ele><time>2026-04-11T15:31:37Z</time></trkpt><trkpt lat="45.73327621767386" lon="9.944953381201637"><ele>925.0</ele><time>2026-04-11T15:31:38Z</time></trkpt><trkpt lat="45.73327513097016" lon="9.944800789372964"><ele>925.0</ele><time>2026-04-11T15:31:39Z</time></trkpt><trkpt lat="45.73329305303295" lon="9.944625026493066"><ele>925.0</ele><time>2026-04-11T15:31:40Z</time></trkpt><trkpt lat="45.733314879634634" lon="9.944450182258045"><ele>924.0</ele><time>2026-04-11T15:31:41Z</time></trkpt><trkpt lat="45.73335194919858" lon="9.944272763253268"><ele>923.0</ele><time>2026-04-11T15:31:42Z</time></trkpt><trkpt lat="45.73339185003769" lon="9.944114805228223"><ele>922.0</ele><time>2026-04-11T15:31:43Z</time></trkpt><trkpt lat="45.733448947036365" lon="9.944001617101739"><ele>921.0</ele><time>2026-04-11T15:31:44Z</time></trkpt><trkpt lat="45.73352251072499" lon="9.943917340625633"><ele>920.0</ele><time>2026-04-11T15:31:45Z</time></trkpt><trkpt lat="45.73360425134849" lon="9.943887546694652"><ele>920.0000000000001</ele><time>2026-04-11T15:31:46Z</time></trkpt><trkpt lat="45.73368500799934" lon="9.943904141522822"><ele>920.0</ele><time>2026-04-11T15:31:47Z</time></trkpt><trkpt lat="45.73376254952438" lon="9.943909045424434"><ele>920.0</ele><time>2026-04-11T15:31:48Z</time></trkpt><trkpt lat="45.73382666863264" lon="9.943849188859943"><ele>920.0</ele><time>2026-04-11T15:31:49Z</time></trkpt><trkpt lat="45.73385569219136" lon="9.943733459781248"><ele>920.0000000000001</ele><time>2026-04-11T15:31:50Z</time></trkpt><trkpt lat="45.73382541472988" lon="9.943615482987152"><ele>920.0</ele><time>2026-04-11T15:31:51Z</time></trkpt><trkpt lat="45.73376695382951" lon="9.943564410330051"><ele>920.0</ele><time>2026-04-11T15:31:52Z</time></trkpt><trkpt lat="45.73370280171225" lon="9.943437483401238"><ele>920.0</ele><time>2026-04-11T15:31:53Z</time></trkpt><trkpt lat="45.73364384485826" lon="9.943292125439578"><ele>920.0</ele><time>2026-04-11T15:31:54Z</time></trkpt><trkpt lat="45.73359268160925" lon="9.943123499018718"><ele>920.0</ele><time>2026-04-11T15:31:55Z</time></trkpt><trkpt lat="45.733551958079694" lon="9.94294843691803"><ele>918.25</ele><time>2026-04-11T15:31:56Z</time></trkpt><trkpt lat="45.733544869570885" lon="9.942780949536578"><ele>916.5</ele><time>2026-04-11T15:31:57Z</time></trkpt><trkpt lat="45.733569573498436" lon="9.942623372600336"><ele>914.75</ele><time>2026-04-11T15:31:58Z</time></trkpt><trkpt lat="45.73362267356104" lon="9.942450456907412"><ele>913.0</ele><time>2026-04-11T15:31:59Z</time></trkpt><trkpt lat="45.733656946245034" lon="9.942260962059196"><ele>912.0</ele><time>2026-04-11T15:32:00Z</time></trkpt><trkpt lat="45.73369519499493" lon="9.942080069657827"><ele>911.0</ele><time>2026-04-11T15:32:01Z</time></trkpt><trkpt lat="45.73373890830721" lon="9.941909122516265"><ele>910.0</ele><time>2026-04-11T15:32:02Z</time></trkpt><trkpt lat="45.73379320449593" lon="9.941761721260653"><ele>909.0</ele><time>2026-04-11T15:32:03Z</time></trkpt><trkpt lat="45.73385665133679" lon="9.941647281075571"><ele>905.8000000000001</ele><time>2026-04-11T15:32:04Z</time></trkpt><trkpt lat="45.73392328203419" lon="9.941564664600982"><ele>902.6000000000001</ele><time>2026-04-11T15:32:05Z</time></trkpt><trkpt lat="45.73396619581759" lon="9.941492776665218"><ele>899.4</ele><time>2026-04-11T15:32:06Z</time></trkpt><trkpt lat="45.73402292594078" lon="9.94127360897524"><ele>896.2</ele><time>2026-04-11T15:32:08Z</time></trkpt><trkpt lat="45.73397234182266" lon="9.9411659641544"><ele>893.0</ele><time>2026-04-11T15:32:09Z</time></trkpt><trkpt lat="45.73389544608014" lon="9.941153212964059"><ele>893.0</ele><time>2026-04-11T15:32:10Z</time></trkpt><trkpt lat="45.73381497501886" lon="9.941205446079088"><ele>893.0</ele><time>2026-04-11T15:32:11Z</time></trkpt><trkpt lat="45.73374615095778" lon="9.94130890859905"><ele>893.0</ele><time>2026-04-11T15:32:12Z</time></trkpt><trkpt lat="45.7336798127445" lon="9.941415627857223"><ele>893.0</ele><time>2026-04-11T15:32:13Z</time></trkpt><trkpt lat="45.733609264750065" lon="9.94152193768447"><ele>893.0</ele><time>2026-04-11T15:32:14Z</time></trkpt><trkpt lat="45.733562681532696" lon="9.941643246810445"><ele>890.8333333333334</ele><time>2026-04-11T15:32:15Z</time></trkpt><trkpt lat="45.7335375952826" lon="9.941765078435163"><ele>888.6666666666667</ele><time>2026-04-11T15:32:16Z</time></trkpt><trkpt lat="45.73351360783732" lon="9.941872873393931"><ele>886.5</ele><time>2026-04-11T15:32:17Z</time></trkpt><trkpt lat="45.73349025409662" lon="9.941983208520732"><ele>884.3333333333333</ele><time>2026-04-11T15:32:18Z</time></trkpt><trkpt lat="45.7334580564325" lon="9.942092760027993"><ele>882.1666666666666</ele><time>2026-04-11T15:32:19Z</time></trkpt><trkpt lat="45.73340393674783" lon="9.942175692215026"><ele>880.0</ele><time>2026-04-11T15:32:20Z</time></trkpt><trkpt lat="45.73332512006476" lon="9.942181893151723"><ele>880.0</ele><time>2026-04-11T15:32:21Z</time></trkpt><trkpt lat="45.73327792951642" lon="9.942099728383063"><ele>880.0</ele><time>2026-04-11T15:32:22Z</time></trkpt><trkpt lat="45.73328601368349" lon="9.941987884311096"><ele>880.0</ele><time>2026-04-11T15:32:23Z</time></trkpt><trkpt lat="45.73331746768587" lon="9.941848311791967"><ele>880.0</ele><time>2026-04-11T15:32:24Z</time></trkpt><trkpt lat="45.73333747987849" lon="9.941673485155754"><ele>880.0</ele><time>2026-04-11T15:32:25Z</time></trkpt><trkpt lat="45.73335100239327" lon="9.941481398234128"><ele>878.0</ele><time>2026-04-11T15:32:26Z</time></trkpt><trkpt lat="45.73337371683764" lon="9.941296792118408"><ele>876.0</ele><time>2026-04-11T15:32:27Z</time></trkpt><trkpt lat="45.73340386616101" lon="9.941123382143521"><ele>874.0</ele><time>2026-04-11T15:32:28Z</time></trkpt><trkpt lat="45.73343296967649" lon="9.940964764153485"><ele>872.0</ele><time>2026-04-11T15:32:29Z</time></trkpt><trkpt lat="45.73347094810864" lon="9.940819542380288"><ele>869.6666666666667</ele><time>2026-04-11T15:32:30Z</time></trkpt><trkpt lat="45.73350296197283" lon="9.940698839089814"><ele>867.3333333333334</ele><time>2026-04-11T15:32:31Z</time></trkpt><trkpt lat="45.73350070389881" lon="9.940594572033861"><ele>865.0</ele><time>2026-04-11T15:32:32Z</time></trkpt><trkpt lat="45.73344386905" lon="9.940513300179783"><ele>862.6666666666667</ele><time>2026-04-11T15:32:33Z</time></trkpt><trkpt lat="45.733367684537505" lon="9.940477998509722"><ele>860.3333333333334</ele><time>2026-04-11T15:32:34Z</time></trkpt><trkpt lat="45.73329080907313" lon="9.940518202262968"><ele>858.0</ele><time>2026-04-11T15:32:35Z</time></trkpt><trkpt lat="45.73323899872572" lon="9.940626862421384"><ele>858.0</ele><time>2026-04-11T15:32:36Z</time></trkpt><trkpt lat="45.7332261438635" lon="9.94076176086555"><ele>858.0</ele><time>2026-04-11T15:32:37Z</time></trkpt><trkpt lat="45.73324201378053" lon="9.940897709474907"><ele>858.0</ele><time>2026-04-11T15:32:38Z</time></trkpt><trkpt lat="45.733247785301884" lon="9.941006006333435"><ele>858.0</ele><time>2026-04-11T15:32:39Z</time></trkpt><trkpt lat="45.733153386423304" lon="9.941085052478728"><ele>858.0</ele><time>2026-04-11T15:32:41Z</time></trkpt><trkpt lat="45.73309278415851" lon="9.941027208082096"><ele>858.0</ele><time>2026-04-11T15:32:42Z</time></trkpt><trkpt lat="45.73306443545938" lon="9.940904151378394"><ele>858.0</ele><time>2026-04-11T15:32:43Z</time></trkpt><trkpt lat="45.733048118095645" lon="9.94076438665704"><ele>858.0</ele><time>2026-04-11T15:32:44Z</time></trkpt><trkpt lat="45.7330174396234" lon="9.940602391697446"><ele>858.0</ele><time>2026-04-11T15:32:45Z</time></trkpt><trkpt lat="45.732986706264896" lon="9.940430772618624"><ele>858.0</ele><time>2026-04-11T15:32:46Z</time></trkpt><trkpt lat="45.73295626828226" lon="9.940264011991255"><ele>858.0</ele><time>2026-04-11T15:32:47Z</time></trkpt><trkpt lat="45.73293954810419" lon="9.940108657068084"><ele>858.0</ele><time>2026-04-11T15:32:48Z</time></trkpt><trkpt lat="45.732947074548306" lon="9.93995537424363"><ele>858.0</ele><time>2026-04-11T15:32:49Z</time></trkpt><trkpt lat="45.73297654605484" lon="9.939828269971938"><ele>858.0</ele><time>2026-04-11T15:32:50Z</time></trkpt><trkpt lat="45.733010296429285" lon="9.93973308196936"><ele>858.0</ele><time>2026-04-11T15:32:51Z</time></trkpt><trkpt lat="45.732965455351305" lon="9.939564231212092"><ele>854.5999999999999</ele><time>2026-04-11T15:32:53Z</time></trkpt><trkpt lat="45.73288745122092" lon="9.939541445350526"><ele>851.1999999999999</ele><time>2026-04-11T15:32:54Z</time></trkpt><trkpt lat="45.73281442782025" lon="9.939594617179274"><ele>847.8</ele><time>2026-04-11T15:32:55Z</time></trkpt><trkpt lat="45.73276314345206" lon="9.93970515234352"><ele>844.4</ele><time>2026-04-11T15:32:56Z</time></trkpt><trkpt lat="45.7327086126031" lon="9.939824163467886"><ele>841.0</ele><time>2026-04-11T15:32:57Z</time></trkpt><trkpt lat="45.732657261659654" lon="9.939959501375144"><ele>840.5</ele><time>2026-04-11T15:32:58Z</time></trkpt><trkpt lat="45.73263304498385" lon="9.940116718458972"><ele>840.0</ele><time>2026-04-11T15:32:59Z</time></trkpt><trkpt lat="45.73264341679475" lon="9.940287233816637"><ele>839.5</ele><time>2026-04-11T15:33:00Z</time></trkpt><trkpt lat="45.73265772404274" lon="9.94045790111408"><ele>839.0</ele><time>2026-04-11T15:33:01Z</time></trkpt><trkpt lat="45.732679639260105" lon="9.940619123314072"><ele>839.0</ele><time>2026-04-11T15:33:02Z</time></trkpt><trkpt lat="45.73270185423187" lon="9.940773615004444"><ele>839.0</ele><time>2026-04-11T15:33:03Z</time></trkpt><trkpt lat="45.732722227414065" lon="9.94091151589535"><ele>839.0</ele><time>2026-04-11T15:33:04Z</time></trkpt><trkpt lat="45.732733472043755" lon="9.941023819101153"><ele>839.0</ele><time>2026-04-11T15:33:05Z</time></trkpt><trkpt lat="45.73268074215202" lon="9.941175244736012"><ele>839.0</ele><time>2026-04-11T15:33:07Z</time></trkpt><trkpt lat="45.73260860916404" lon="9.941174580242555"><ele>839.0</ele><time>2026-04-11T15:33:08Z</time></trkpt><trkpt lat="45.73254011832757" lon="9.94109558805676"><ele>839.0</ele><time>2026-04-11T15:33:09Z</time></trkpt><trkpt lat="45.7324987489741" lon="9.940954462472089"><ele>839.0</ele><time>2026-04-11T15:33:10Z</time></trkpt><trkpt lat="45.732422166225625" lon="9.940814213003593"><ele>839.0</ele><time>2026-04-11T15:33:11Z</time></trkpt><trkpt lat="45.7323052759456" lon="9.940662780444125"><ele>839.0</ele><time>2026-04-11T15:33:12Z</time></trkpt><trkpt lat="45.73218012646284" lon="9.940513757476985"><ele>839.0</ele><time>2026-04-11T15:33:13Z</time></trkpt><trkpt lat="45.7320604633703" lon="9.9403994643577"><ele>839.0</ele><time>2026-04-11T15:33:14Z</time></trkpt><trkpt lat="45.731950771688936" lon="9.94030941536215"><ele>839.0</ele><time>2026-04-11T15:33:15Z</time></trkpt><trkpt lat="45.731844596911266" lon="9.940245158722707"><ele>834.25</ele><time>2026-04-11T15:33:16Z</time></trkpt><trkpt lat="45.73173226240341" lon="9.940219146916716"><ele>829.5</ele><time>2026-04-11T15:33:17Z</time></trkpt><trkpt lat="45.731620088606114" lon="9.94023318781254"><ele>824.75</ele><time>2026-04-11T15:33:18Z</time></trkpt><trkpt lat="45.73151153779018" lon="9.940297084164733"><ele>820.0</ele><time>2026-04-11T15:33:19Z</time></trkpt><trkpt lat="45.73139850154375" lon="9.940404298446923"><ele>820.0</ele><time>2026-04-11T15:33:20Z</time></trkpt><trkpt lat="45.73130204902483" lon="9.940526076963152"><ele>820.0</ele><time>2026-04-11T15:33:21Z</time></trkpt><trkpt lat="45.73122092803891" lon="9.940655894129758"><ele>820.0</ele><time>2026-04-11T15:33:22Z</time></trkpt><trkpt lat="45.73115806748816" lon="9.940795259026217"><ele>820.0</ele><time>2026-04-11T15:33:23Z</time></trkpt><trkpt lat="45.73110273945357" lon="9.940932214416925"><ele>821.6666666666666</ele><time>2026-04-11T15:33:24Z</time></trkpt><trkpt lat="45.73106461240322" lon="9.941037070755266"><ele>823.3333333333333</ele><time>2026-04-11T15:33:25Z</time></trkpt><trkpt lat="45.73102275310482" lon="9.941127089247098"><ele>825.0</ele><time>2026-04-11T15:33:26Z</time></trkpt><trkpt lat="45.7309602008817" lon="9.941153138533778"><ele>826.6666666666667</ele><time>2026-04-11T15:33:27Z</time></trkpt><trkpt lat="45.7308980648468" lon="9.941084416796032"><ele>828.3333333333334</ele><time>2026-04-11T15:33:28Z</time></trkpt><trkpt lat="45.730876130502516" lon="9.940957917452732"><ele>830.0</ele><time>2026-04-11T15:33:29Z</time></trkpt><trkpt lat="45.73089758842078" lon="9.940809464076933"><ele>822.5</ele><time>2026-04-11T15:33:30Z</time></trkpt><trkpt lat="45.73093542056114" lon="9.940618864628457"><ele>815.0</ele><time>2026-04-11T15:33:31Z</time></trkpt><trkpt lat="45.73095363117944" lon="9.940409295697124"><ele>807.5</ele><time>2026-04-11T15:33:32Z</time></trkpt><trkpt lat="45.730972482443725" lon="9.940199893313723"><ele>800.0</ele><time>2026-04-11T15:33:33Z</time></trkpt><trkpt lat="45.73098844530839" lon="9.940006979000627"><ele>801.4</ele><time>2026-04-11T15:33:34Z</time></trkpt><trkpt lat="45.73100603022868" lon="9.93982988446198"><ele>802.8</ele><time>2026-04-11T15:33:35Z</time></trkpt><trkpt lat="45.73102420585894" lon="9.939675010951749"><ele>804.2</ele><time>2026-04-11T15:33:36Z</time></trkpt><trkpt lat="45.73105542452383" lon="9.939540422435085"><ele>805.6</ele><time>2026-04-11T15:33:37Z</time></trkpt><trkpt lat="45.73111333034607" lon="9.939439725280286"><ele>807.0</ele><time>2026-04-11T15:33:38Z</time></trkpt><trkpt lat="45.73120409005313" lon="9.939384076263378"><ele>807.0</ele><time>2026-04-11T15:33:39Z</time></trkpt><trkpt lat="45.731301531604586" lon="9.939383961867373"><ele>807.0</ele><time>2026-04-11T15:33:40Z</time></trkpt><trkpt lat="45.7313771176157" lon="9.939388604935184"><ele>807.0</ele><time>2026-04-11T15:33:41Z</time></trkpt><trkpt lat="45.73143420125971" lon="9.939327384499656"><ele>807.0</ele><time>2026-04-11T15:33:42Z</time></trkpt><trkpt lat="45.73145419515702" lon="9.939233231907197"><ele>807.0</ele><time>2026-04-11T15:33:43Z</time></trkpt><trkpt lat="45.73142251659068" lon="9.939149000607257"><ele>807.0</ele><time>2026-04-11T15:33:44Z</time></trkpt><trkpt lat="45.73133937837603" lon="9.939095407076643"><ele>804.8</ele><time>2026-04-11T15:33:45Z</time></trkpt><trkpt lat="45.73124253360133" lon="9.939048822621741"><ele>802.6</ele><time>2026-04-11T15:33:46Z</time></trkpt><trkpt lat="45.7311394011158" lon="9.938957964577252"><ele>800.4</ele><time>2026-04-11T15:33:47Z</time></trkpt><trkpt lat="45.731048718586266" lon="9.938862999308771"><ele>798.1999999999999</ele><time>2026-04-11T15:33:48Z</time></trkpt><trkpt lat="45.73096483100444" lon="9.938774347226085"><ele>796.0</ele><time>2026-04-11T15:33:49Z</time></trkpt><trkpt lat="45.73088489612603" lon="9.938689765909285"><ele>793.8333333333333</ele><time>2026-04-11T15:33:50Z</time></trkpt><trkpt lat="45.73081172881955" lon="9.938614486064955"><ele>791.6666666666666</ele><time>2026-04-11T15:33:51Z</time></trkpt><trkpt lat="45.730748661066634" lon="9.938574157691487"><ele>789.5</ele><time>2026-04-11T15:33:52Z</time></trkpt><trkpt lat="45.730687538151656" lon="9.938599906896826"><ele>787.3333333333333</ele><time>2026-04-11T15:33:53Z</time></trkpt><trkpt lat="45.730635685500665" lon="9.938675185305003"><ele>785.1666666666666</ele><time>2026-04-11T15:33:54Z</time></trkpt><trkpt lat="45.73057889535329" lon="9.93876106170671"><ele>783.0</ele><time>2026-04-11T15:33:55Z</time></trkpt><trkpt lat="45.730521921542916" lon="9.938856446318734"><ele>783.0</ele><time>2026-04-11T15:33:56Z</time></trkpt><trkpt lat="45.73047117104501" lon="9.93894210020149"><ele>783.0</ele><time>2026-04-11T15:33:57Z</time></trkpt><trkpt lat="45.73044798845689" lon="9.939050939976742"><ele>783.0</ele><time>2026-04-11T15:33:58Z</time></trkpt><trkpt lat="45.730428270487735" lon="9.939153577784738"><ele>783.0</ele><time>2026-04-11T15:33:59Z</time></trkpt><trkpt lat="45.73039441463397" lon="9.939250952108166"><ele>783.0</ele><time>2026-04-11T15:34:00Z</time></trkpt><trkpt lat="45.73034602227456" lon="9.939362920476722"><ele>783.0</ele><time>2026-04-11T15:34:01Z</time></trkpt><trkpt lat="45.730332931572484" lon="9.93950641506693"><ele>782.0</ele><time>2026-04-11T15:34:02Z</time></trkpt><trkpt lat="45.73032397928506" lon="9.939648627656842"><ele>781.0</ele><time>2026-04-11T15:34:03Z</time></trkpt><trkpt lat="45.73031139371717" lon="9.939785858691964"><ele>780.0</ele><time>2026-04-11T15:34:04Z</time></trkpt><trkpt lat="45.73030030459016" lon="9.939904207989686"><ele>779.0</ele><time>2026-04-11T15:34:05Z</time></trkpt><trkpt lat="45.73027648838381" lon="9.939995482117512"><ele>778.0</ele><time>2026-04-11T15:34:06Z</time></trkpt><trkpt lat="45.730214504506925" lon="9.940047555023751"><ele>777.0</ele><time>2026-04-11T15:34:07Z</time></trkpt><trkpt lat="45.730154461162385" lon="9.940007001823863"><ele>777.0</ele><time>2026-04-11T15:34:08Z</time></trkpt><trkpt lat="45.73011519834953" lon="9.939918300603225"><ele>777.0</ele><time>2026-04-11T15:34:09Z</time></trkpt><trkpt lat="45.73008106814903" lon="9.939803256454034"><ele>777.0</ele><time>2026-04-11T15:34:10Z</time></trkpt><trkpt lat="45.73001940373114" lon="9.939694313255426"><ele>777.0</ele><time>2026-04-11T15:34:11Z</time></trkpt><trkpt lat="45.7299406809842" lon="9.93959021748785"><ele>777.0</ele><time>2026-04-11T15:34:12Z</time></trkpt><trkpt lat="45.729861721179994" lon="9.939510310088057"><ele>777.0</ele><time>2026-04-11T15:34:13Z</time></trkpt><trkpt lat="45.72977164697633" lon="9.939444607717446"><ele>777.0</ele><time>2026-04-11T15:34:14Z</time></trkpt><trkpt lat="45.72968736709104" lon="9.9393899851698"><ele>777.0</ele><time>2026-04-11T15:34:15Z</time></trkpt><trkpt lat="45.729609982653706" lon="9.939328936314476"><ele>777.0</ele><time>2026-04-11T15:34:16Z</time></trkpt><trkpt lat="45.7295456288986" lon="9.939245269278457"><ele>777.0</ele><time>2026-04-11T15:34:17Z</time></trkpt><trkpt lat="45.72951748552872" lon="9.93913539044338"><ele>775.0</ele><time>2026-04-11T15:34:18Z</time></trkpt><trkpt lat="45.72953849237367" lon="9.938985212348554"><ele>773.0</ele><time>2026-04-11T15:34:19Z</time></trkpt><trkpt lat="45.72957606951514" lon="9.9388375048753"><ele>771.0</ele><time>2026-04-11T15:34:20Z</time></trkpt><trkpt lat="45.72959151537885" lon="9.938685381702953"><ele>769.0</ele><time>2026-04-11T15:34:21Z</time></trkpt><trkpt lat="45.72951901537494" lon="9.938452925491179"><ele>768.6666666666666</ele><time>2026-04-11T15:34:22Z</time></trkpt><trkpt lat="45.72944059000954" lon="9.93821073089362"><ele>768.3333333333333</ele><time>2026-04-11T15:34:23Z</time></trkpt><trkpt lat="45.72936460285735" lon="9.93795632971454"><ele>768.0</ele><time>2026-04-11T15:34:24Z</time></trkpt><trkpt lat="45.72929860331208" lon="9.937737613791263"><ele>765.25</ele><time>2026-04-11T15:34:25Z</time></trkpt><trkpt lat="45.729243688839674" lon="9.937536773538435"><ele>762.5</ele><time>2026-04-11T15:34:26Z</time></trkpt><trkpt lat="45.72918974189061" lon="9.93734001185536"><ele>759.75</ele><time>2026-04-11T15:34:27Z</time></trkpt><trkpt lat="45.729148551577154" lon="9.937134581129877"><ele>757.0</ele><time>2026-04-11T15:34:28Z</time></trkpt><trkpt lat="45.72913021895124" lon="9.936920877559691"><ele>752.6666666666667</ele><time>2026-04-11T15:34:29Z</time></trkpt><trkpt lat="45.72913349927461" lon="9.936688711849534"><ele>748.3333333333334</ele><time>2026-04-11T15:34:30Z</time></trkpt><trkpt lat="45.729150005417594" lon="9.936436131298025"><ele>744.0</ele><time>2026-04-11T15:34:31Z</time></trkpt><trkpt lat="45.729151618993605" lon="9.936179019973858"><ele>744.0</ele><time>2026-04-11T15:34:32Z</time></trkpt><trkpt lat="45.72912552926802" lon="9.93592932185766"><ele>744.0</ele><time>2026-04-11T15:34:33Z</time></trkpt><trkpt lat="45.72909585415019" lon="9.935678775368046"><ele>744.0</ele><time>2026-04-11T15:34:34Z</time></trkpt><trkpt lat="45.729064463323425" lon="9.935431485407396"><ele>742.0</ele><time>2026-04-11T15:34:35Z</time></trkpt><trkpt lat="45.729043481536664" lon="9.935185447662256"><ele>740.0</ele><time>2026-04-11T15:34:36Z</time></trkpt><trkpt lat="45.7290460795322" lon="9.934940877982596"><ele>738.0</ele><time>2026-04-11T15:34:37Z</time></trkpt><trkpt lat="45.729074029953885" lon="9.934718503621516"><ele>737.0</ele><time>2026-04-11T15:34:38Z</time></trkpt><trkpt lat="45.72910918602829" lon="9.93450701772597"><ele>736.0</ele><time>2026-04-11T15:34:39Z</time></trkpt><trkpt lat="45.729139463198386" lon="9.934302826334097"><ele>735.0</ele><time>2026-04-11T15:34:40Z</time></trkpt><trkpt lat="45.72915884805001" lon="9.934105988272252"><ele>734.0</ele><time>2026-04-11T15:34:41Z</time></trkpt><trkpt lat="45.72917290007297" lon="9.933900380652323"><ele>733.5</ele><time>2026-04-11T15:34:42Z</time></trkpt><trkpt lat="45.72919567297846" lon="9.93371487365502"><ele>733.0</ele><time>2026-04-11T15:34:43Z</time></trkpt><trkpt lat="45.7292119756927" lon="9.933553284868028"><ele>732.5</ele><time>2026-04-11T15:34:44Z</time></trkpt><trkpt lat="45.7292101427223" lon="9.933397404051554"><ele>732.0</ele><time>2026-04-11T15:34:45Z</time></trkpt><trkpt lat="45.729178264583105" lon="9.93325103591267"><ele>730.0</ele><time>2026-04-11T15:34:46Z</time></trkpt><trkpt lat="45.7291166647155" lon="9.933123396787915"><ele>728.0</ele><time>2026-04-11T15:34:47Z</time></trkpt><trkpt lat="45.72903111543216" lon="9.933032657112962"><ele>726.0</ele><time>2026-04-11T15:34:48Z</time></trkpt><trkpt lat="45.72895940167346" lon="9.932972447543946"><ele>724.0</ele><time>2026-04-11T15:34:49Z</time></trkpt><trkpt lat="45.728914702899374" lon="9.932818060282141"><ele>722.0</ele><time>2026-04-11T15:34:51Z</time></trkpt><trkpt lat="45.728948835002434" lon="9.932673319406804"><ele>719.0</ele><time>2026-04-11T15:34:52Z</time></trkpt><trkpt lat="45.72899730444506" lon="9.93254381090529"><ele>716.0</ele><time>2026-04-11T15:34:53Z</time></trkpt><trkpt lat="45.72903328591794" lon="9.932397654376139"><ele>713.0</ele><time>2026-04-11T15:34:54Z</time></trkpt><trkpt lat="45.72907520607051" lon="9.932242897839345"><ele>710.0</ele><time>2026-04-11T15:34:55Z</time></trkpt><trkpt lat="45.72912308965302" lon="9.932087152965261"><ele>707.0</ele><time>2026-04-11T15:34:56Z</time></trkpt><trkpt lat="45.72915531196074" lon="9.931938279192423"><ele>707.0</ele><time>2026-04-11T15:34:57Z</time></trkpt><trkpt lat="45.729152995656754" lon="9.931790574750838"><ele>707.0</ele><time>2026-04-11T15:34:58Z</time></trkpt><trkpt lat="45.729094594713544" lon="9.931645868054638"><ele>707.0</ele><time>2026-04-11T15:34:59Z</time></trkpt><trkpt lat="45.72900014898768" lon="9.931522691334138"><ele>707.0</ele><time>2026-04-11T15:35:00Z</time></trkpt><trkpt lat="45.728891653718904" lon="9.931397256823063"><ele>704.75</ele><time>2026-04-11T15:35:01Z</time></trkpt><trkpt lat="45.72879516501524" lon="9.931256356753739"><ele>702.5</ele><time>2026-04-11T15:35:02Z</time></trkpt><trkpt lat="45.728688032942664" lon="9.931105851990731"><ele>700.25</ele><time>2026-04-11T15:35:03Z</time></trkpt><trkpt lat="45.72856227093568" lon="9.93096977373276"><ele>698.0</ele><time>2026-04-11T15:35:04Z</time></trkpt><trkpt lat="45.728412691044255" lon="9.93085758766701"><ele>695.0</ele><time>2026-04-11T15:35:05Z</time></trkpt><trkpt lat="45.7282601231147" lon="9.930750826353748"><ele>692.0</ele><time>2026-04-11T15:35:06Z</time></trkpt><trkpt lat="45.72810271116294" lon="9.930644251812405"><ele>689.0</ele><time>2026-04-11T15:35:07Z</time></trkpt><trkpt lat="45.7279421761913" lon="9.930540014502728"><ele>689.0</ele><time>2026-04-11T15:35:08Z</time></trkpt><trkpt lat="45.727784351684285" lon="9.930435769905367"><ele>689.0</ele><time>2026-04-11T15:35:09Z</time></trkpt><trkpt lat="45.72763222113747" lon="9.930340720848621"><ele>689.0</ele><time>2026-04-11T15:35:10Z</time></trkpt><trkpt lat="45.72748462927604" lon="9.930249171119804"><ele>685.3333333333333</ele><time>2026-04-11T15:35:11Z</time></trkpt><trkpt lat="45.727341637590726" lon="9.930145996876865"><ele>681.6666666666666</ele><time>2026-04-11T15:35:12Z</time></trkpt><trkpt lat="45.72720047937469" lon="9.93003155812168"><ele>678.0</ele><time>2026-04-11T15:35:13Z</time></trkpt><trkpt lat="45.72706781693816" lon="9.929909044868971"><ele>678.0</ele><time>2026-04-11T15:35:14Z</time></trkpt><trkpt lat="45.72695348295146" lon="9.929794257704856"><ele>678.0</ele><time>2026-04-11T15:35:15Z</time></trkpt><trkpt lat="45.726862326475356" lon="9.929683096699012"><ele>678.0</ele><time>2026-04-11T15:35:16Z</time></trkpt><trkpt lat="45.72678227824757" lon="9.929546000754053"><ele>678.0</ele><time>2026-04-11T15:35:17Z</time></trkpt><trkpt lat="45.726723301956376" lon="9.929392432243642"><ele>673.8</ele><time>2026-04-11T15:35:18Z</time></trkpt><trkpt lat="45.72666367556378" lon="9.929222940978446"><ele>669.5999999999999</ele><time>2026-04-11T15:35:19Z</time></trkpt><trkpt lat="45.72660165687002" lon="9.929078745140671"><ele>665.4000000000001</ele><time>2026-04-11T15:35:20Z</time></trkpt><trkpt lat="45.72653923110581" lon="9.928962733705065"><ele>661.2</ele><time>2026-04-11T15:35:21Z</time></trkpt><trkpt lat="45.72648776678363" lon="9.928867430741574"><ele>657.0</ele><time>2026-04-11T15:35:22Z</time></trkpt><trkpt lat="45.72645434000529" lon="9.928758695064847"><ele>657.0</ele><time>2026-04-11T15:35:23Z</time></trkpt><trkpt lat="45.72645031355714" lon="9.928619288034202"><ele>657.0</ele><time>2026-04-11T15:35:24Z</time></trkpt><trkpt lat="45.726469905926045" lon="9.928522469989769"><ele>657.0</ele><time>2026-04-11T15:35:25Z</time></trkpt><trkpt lat="45.7265064962696" lon="9.928442991173167"><ele>657.0</ele><time>2026-04-11T15:35:26Z</time></trkpt><trkpt lat="45.72644946505792" lon="9.928385153184635"><ele>657.0</ele><time>2026-04-11T15:35:28Z</time></trkpt><trkpt lat="45.72637538794095" lon="9.928445258986933"><ele>657.0</ele><time>2026-04-11T15:35:29Z</time></trkpt><trkpt lat="45.72632390487891" lon="9.928549922443237"><ele>657.0</ele><time>2026-04-11T15:35:30Z</time></trkpt><trkpt lat="45.7262621544292" lon="9.928644762445224"><ele>657.0</ele><time>2026-04-11T15:35:31Z</time></trkpt><trkpt lat="45.726175208854464" lon="9.928780922677644"><ele>657.0</ele><time>2026-04-11T15:35:32Z</time></trkpt><trkpt lat="45.72609234233303" lon="9.928866816928517"><ele>657.0</ele><time>2026-04-11T15:35:33Z</time></trkpt><trkpt lat="45.72603445561127" lon="9.929044821260291"><ele>655.8</ele><time>2026-04-11T15:35:35Z</time></trkpt><trkpt lat="45.72599336937994" lon="9.929180692627952"><ele>654.6</ele><time>2026-04-11T15:35:36Z</time></trkpt><trkpt lat="45.72592894409313" lon="9.929283118902857"><ele>653.4</ele><time>2026-04-11T15:35:37Z</time></trkpt><trkpt lat="45.72584236151448" lon="9.929333940035761"><ele>652.1999999999999</ele><time>2026-04-11T15:35:38Z</time></trkpt><trkpt lat="45.72574500860155" lon="9.929348980371085"><ele>651.0</ele><time>2026-04-11T15:35:39Z</time></trkpt><trkpt lat="45.72564154320439" lon="9.929317924924044"><ele>647.75</ele><time>2026-04-11T15:35:40Z</time></trkpt><trkpt lat="45.725548851435384" lon="9.929216224835223"><ele>644.5</ele><time>2026-04-11T15:35:41Z</time></trkpt><trkpt lat="45.725461090750265" lon="9.929092134000266"><ele>641.25</ele><time>2026-04-11T15:35:42Z</time></trkpt><trkpt lat="45.725358299152845" lon="9.928941964513925"><ele>638.0</ele><time>2026-04-11T15:35:43Z</time></trkpt><trkpt lat="45.72528040094156" lon="9.928765948666815"><ele>637.0</ele><time>2026-04-11T15:35:44Z</time></trkpt><trkpt lat="45.72521300261192" lon="9.928589975788205"><ele>636.0</ele><time>2026-04-11T15:35:45Z</time></trkpt><trkpt lat="45.72515209125212" lon="9.928420601578715"><ele>635.0</ele><time>2026-04-11T15:35:46Z</time></trkpt><trkpt lat="45.72507313118884" lon="9.928267050898912"><ele>634.0</ele><time>2026-04-11T15:35:47Z</time></trkpt><trkpt lat="45.724959292928496" lon="9.928114827191248"><ele>634.0</ele><time>2026-04-11T15:35:48Z</time></trkpt><trkpt lat="45.72487826770996" lon="9.927958910377757"><ele>634.0</ele><time>2026-04-11T15:35:49Z</time></trkpt><trkpt lat="45.72474969341242" lon="9.927799821115059"><ele>634.0</ele><time>2026-04-11T15:35:50Z</time></trkpt><trkpt lat="45.72461397284836" lon="9.927641272481987"><ele>632.6666666666667</ele><time>2026-04-11T15:35:51Z</time></trkpt><trkpt lat="45.724482753495664" lon="9.927480038890062"><ele>631.3333333333334</ele><time>2026-04-11T15:35:52Z</time></trkpt><trkpt lat="45.72435982370264" lon="9.927314347784913"><ele>630.0</ele><time>2026-04-11T15:35:53Z</time></trkpt><trkpt lat="45.72424416292196" lon="9.927135870398226"><ele>630.0</ele><time>2026-04-11T15:35:54Z</time></trkpt><trkpt lat="45.724129885355765" lon="9.926942360387056"><ele>630.0</ele><time>2026-04-11T15:35:55Z</time></trkpt><trkpt lat="45.72400523538929" lon="9.92675795415042"><ele>630.0</ele><time>2026-04-11T15:35:56Z</time></trkpt><trkpt lat="45.72387547192248" lon="9.92659595386572"><ele>630.0</ele><time>2026-04-11T15:35:57Z</time></trkpt><trkpt lat="45.72373202701334" lon="9.926441907281989"><ele>630.0</ele><time>2026-04-11T15:35:58Z</time></trkpt><trkpt lat="45.723597423958246" lon="9.926273819366777"><ele>630.0</ele><time>2026-04-11T15:35:59Z</time></trkpt><trkpt lat="45.723486332935444" lon="9.926069584745484"><ele>624.0</ele><time>2026-04-11T15:36:00Z</time></trkpt><trkpt lat="45.7233911031393" lon="9.925846664669688"><ele>618.0</ele><time>2026-04-11T15:36:01Z</time></trkpt><trkpt lat="45.72333888274461" lon="9.925634938382599"><ele>612.0</ele><time>2026-04-11T15:36:02Z</time></trkpt><trkpt lat="45.72332122940603" lon="9.925484490706527"><ele>606.0</ele><time>2026-04-11T15:36:03Z</time></trkpt><trkpt lat="45.723318682726166" lon="9.925348972646947"><ele>606.0</ele><time>2026-04-11T15:36:04Z</time></trkpt><trkpt lat="45.72334550262481" lon="9.925130815502516"><ele>606.0</ele><time>2026-04-11T15:36:05Z</time></trkpt><trkpt lat="45.72337733751193" lon="9.924907209499501"><ele>606.0</ele><time>2026-04-11T15:36:06Z</time></trkpt><trkpt lat="45.72341120983596" lon="9.92470901571861"><ele>601.0</ele><time>2026-04-11T15:36:07Z</time></trkpt><trkpt lat="45.72345703831349" lon="9.924518425488335"><ele>596.0</ele><time>2026-04-11T15:36:08Z</time></trkpt><trkpt lat="45.72347612120799" lon="9.924305528489237"><ele>591.0</ele><time>2026-04-11T15:36:09Z</time></trkpt><trkpt lat="45.723476419246616" lon="9.92407181435203"><ele>589.75</ele><time>2026-04-11T15:36:10Z</time></trkpt><trkpt lat="45.7234561831884" lon="9.923849054694186"><ele>588.5</ele><time>2026-04-11T15:36:11Z</time></trkpt><trkpt lat="45.72342619022253" lon="9.923665594734842"><ele>587.25</ele><time>2026-04-11T15:36:12Z</time></trkpt><trkpt lat="45.72340377901178" lon="9.92346629751226"><ele>586.0</ele><time>2026-04-11T15:36:13Z</time></trkpt><trkpt lat="45.72340839013686" lon="9.923288321589306"><ele>583.5</ele><time>2026-04-11T15:36:14Z</time></trkpt><trkpt lat="45.7234082151591" lon="9.923122023411047"><ele>581.0</ele><time>2026-04-11T15:36:15Z</time></trkpt><trkpt lat="45.72336569378116" lon="9.92299001477486"><ele>578.5</ele><time>2026-04-11T15:36:16Z</time></trkpt><trkpt lat="45.723280434549906" lon="9.922854259306602"><ele>576.0</ele><time>2026-04-11T15:36:17Z</time></trkpt><trkpt lat="45.723212111038244" lon="9.922712085908243"><ele>571.25</ele><time>2026-04-11T15:36:18Z</time></trkpt><trkpt lat="45.723181938186606" lon="9.922545708954567"><ele>566.5</ele><time>2026-04-11T15:36:19Z</time></trkpt><trkpt lat="45.723189796670134" lon="9.922387237388438"><ele>561.75</ele><time>2026-04-11T15:36:20Z</time></trkpt><trkpt lat="45.72320935406723" lon="9.922219271388348"><ele>557.0</ele><time>2026-04-11T15:36:21Z</time></trkpt><trkpt lat="45.723246794016106" lon="9.92206510905275"><ele>557.0</ele><time>2026-04-11T15:36:22Z</time></trkpt><trkpt lat="45.72326464598114" lon="9.921898451936235"><ele>557.0</ele><time>2026-04-11T15:36:23Z</time></trkpt><trkpt lat="45.723270900516646" lon="9.921729619044607"><ele>557.0</ele><time>2026-04-11T15:36:24Z</time></trkpt><trkpt lat="45.72325566166147" lon="9.921575759243739"><ele>557.0</ele><time>2026-04-11T15:36:25Z</time></trkpt><trkpt lat="45.7232294378592" lon="9.921470576155421"><ele>557.0</ele><time>2026-04-11T15:36:26Z</time></trkpt><trkpt lat="45.72317048555248" lon="9.921383994679749"><ele>552.6</ele><time>2026-04-11T15:36:27Z</time></trkpt><trkpt lat="45.723079092554975" lon="9.9213653901187"><ele>548.2</ele><time>2026-04-11T15:36:28Z</time></trkpt><trkpt lat="45.72295264867649" lon="9.921385925452212"><ele>543.8</ele><time>2026-04-11T15:36:29Z</time></trkpt><trkpt lat="45.72286012961572" lon="9.921355768613198"><ele>539.4</ele><time>2026-04-11T15:36:30Z</time></trkpt><trkpt lat="45.72278284876208" lon="9.921243551312308"><ele>535.0</ele><time>2026-04-11T15:36:31Z</time></trkpt><trkpt lat="45.72278493076912" lon="9.92109544901606"><ele>535.0</ele><time>2026-04-11T15:36:32Z</time></trkpt><trkpt lat="45.72278141508003" lon="9.920943681016437"><ele>535.0</ele><time>2026-04-11T15:36:33Z</time></trkpt><trkpt lat="45.722809373919745" lon="9.920723314355516"><ele>535.0</ele><time>2026-04-11T15:36:34Z</time></trkpt><trkpt lat="45.72282349335908" lon="9.920532111353557"><ele>535.0</ele><time>2026-04-11T15:36:35Z</time></trkpt><trkpt lat="45.72286078708268" lon="9.920370670404637"><ele>531.6</ele><time>2026-04-11T15:36:36Z</time></trkpt><trkpt lat="45.72292006487977" lon="9.920216998751888"><ele>528.2</ele><time>2026-04-11T15:36:37Z</time></trkpt><trkpt lat="45.72298346869072" lon="9.920085303047237"><ele>524.8</ele><time>2026-04-11T15:36:38Z</time></trkpt><trkpt lat="45.72304472890515" lon="9.919953647827661"><ele>521.4</ele><time>2026-04-11T15:36:39Z</time></trkpt><trkpt lat="45.72309039291599" lon="9.919825552594679"><ele>518.0</ele><time>2026-04-11T15:36:40Z</time></trkpt><trkpt lat="45.72311323627203" lon="9.919666376834472"><ele>513.75</ele><time>2026-04-11T15:36:41Z</time></trkpt><trkpt lat="45.723103418188074" lon="9.919471199311303"><ele>509.5</ele><time>2026-04-11T15:36:42Z</time></trkpt><trkpt lat="45.72309092382252" lon="9.919262905371927"><ele>505.25</ele><time>2026-04-11T15:36:43Z</time></trkpt><trkpt lat="45.72308888575034" lon="9.919050262658821"><ele>501.0</ele><time>2026-04-11T15:36:44Z</time></trkpt><trkpt lat="45.72307768132214" lon="9.918863867911247"><ele>499.20000000000005</ele><time>2026-04-11T15:36:45Z</time></trkpt><trkpt lat="45.72306950617825" lon="9.918741140072711"><ele>497.40000000000003</ele><time>2026-04-11T15:36:46Z</time></trkpt><trkpt lat="45.72308543346292" lon="9.918644188500993"><ele>495.6</ele><time>2026-04-11T15:36:47Z</time></trkpt><trkpt lat="45.72313626650975" lon="9.9185421096123"><ele>493.8</ele><time>2026-04-11T15:36:49Z</time></trkpt><trkpt lat="45.72321210357875" lon="9.918671824948353"><ele>492.0</ele><time>2026-04-11T15:36:51Z</time></trkpt><trkpt lat="45.7232265887745" lon="9.91886013337707"><ele>492.0</ele><time>2026-04-11T15:36:52Z</time></trkpt><trkpt lat="45.72327046993427" lon="9.918972795651506"><ele>492.0</ele><time>2026-04-11T15:36:53Z</time></trkpt><trkpt lat="45.7233174301639" lon="9.919098723672647"><ele>492.0</ele><time>2026-04-11T15:36:54Z</time></trkpt><trkpt lat="45.723319948572545" lon="9.91921504756649"><ele>492.0</ele><time>2026-04-11T15:36:55Z</time></trkpt><trkpt lat="45.72331337617008" lon="9.919309614897509"><ele>492.0</ele><time>2026-04-11T15:36:56Z</time></trkpt><trkpt lat="45.72331779608569" lon="9.919413059403785"><ele>492.0</ele><time>2026-04-11T15:36:57Z</time></trkpt><trkpt lat="45.72336715750203" lon="9.919501505511695"><ele>492.0</ele><time>2026-04-11T15:36:59Z</time></trkpt><trkpt lat="45.72346108905586" lon="9.919470812049493"><ele>492.00000000000006</ele><time>2026-04-11T15:37:00Z</time></trkpt><trkpt lat="45.7234936246066" lon="9.91936049545148"><ele>492.00000000000006</ele><time>2026-04-11T15:37:01Z</time></trkpt><trkpt lat="45.723480167552964" lon="9.919237838953576"><ele>492.0</ele><time>2026-04-11T15:37:02Z</time></trkpt><trkpt lat="45.723478388188816" lon="9.919099667722945"><ele>492.0</ele><time>2026-04-11T15:37:03Z</time></trkpt><trkpt lat="45.7234842959116" lon="9.918957068916606"><ele>492.0</ele><time>2026-04-11T15:37:04Z</time></trkpt><trkpt lat="45.72348442454401" lon="9.918811652461516"><ele>492.00000000000006</ele><time>2026-04-11T15:37:05Z</time></trkpt><trkpt lat="45.72346316221538" lon="9.918677886752223"><ele>492.00000000000006</ele><time>2026-04-11T15:37:06Z</time></trkpt><trkpt lat="45.72342951299967" lon="9.918542403073515"><ele>492.0</ele><time>2026-04-11T15:37:07Z</time></trkpt><trkpt lat="45.723385305129646" lon="9.918448551921339"><ele>492.0</ele><time>2026-04-11T15:37:08Z</time></trkpt><trkpt lat="45.72345985384073" lon="9.918484346988015"><ele>492.0</ele><time>2026-04-11T15:37:11Z</time></trkpt><trkpt lat="45.723533209406675" lon="9.91865152115575"><ele>492.00000000000006</ele><time>2026-04-11T15:37:13Z</time></trkpt><trkpt lat="45.72358449945858" lon="9.918776630550736"><ele>492.00000000000006</ele><time>2026-04-11T15:37:14Z</time></trkpt><trkpt lat="45.72362287566493" lon="9.918899853777699"><ele>492.0</ele><time>2026-04-11T15:37:15Z</time></trkpt><trkpt lat="45.72366057518309" lon="9.919016850384342"><ele>492.0</ele><time>2026-04-11T15:37:16Z</time></trkpt><trkpt lat="45.72367980549617" lon="9.919148485693448"><ele>486.6</ele><time>2026-04-11T15:37:17Z</time></trkpt><trkpt lat="45.7236869702064" lon="9.919273646818338"><ele>481.20000000000005</ele><time>2026-04-11T15:37:18Z</time></trkpt><trkpt lat="45.72367736694552" lon="9.919380880611246"><ele>475.8</ele><time>2026-04-11T15:37:19Z</time></trkpt><trkpt lat="45.72371304699227" lon="9.919537485018312"><ele>470.4</ele><time>2026-04-11T15:37:21Z</time></trkpt><trkpt lat="45.72378049012029" lon="9.919502690750182"><ele>465.0</ele><time>2026-04-11T15:37:22Z</time></trkpt><trkpt lat="45.72385642271024" lon="9.9193699555848"><ele>462.4</ele><time>2026-04-11T15:37:24Z</time></trkpt><trkpt lat="45.72385233123958" lon="9.919222847017775"><ele>459.8</ele><time>2026-04-11T15:37:25Z</time></trkpt><trkpt lat="45.72385691829796" lon="9.919050418094999"><ele>457.20000000000005</ele><time>2026-04-11T15:37:26Z</time></trkpt><trkpt lat="45.72386764214785" lon="9.918884503071114"><ele>454.6</ele><time>2026-04-11T15:37:27Z</time></trkpt><trkpt lat="45.723865691270404" lon="9.91872772573858"><ele>452.0</ele><time>2026-04-11T15:37:28Z</time></trkpt><trkpt lat="45.72384041269696" lon="9.91860186864893"><ele>451.99999999999994</ele><time>2026-04-11T15:37:29Z</time></trkpt><trkpt lat="45.72381196367892" lon="9.91851430097725"><ele>452.0</ele><time>2026-04-11T15:37:30Z</time></trkpt><trkpt lat="45.72381782345092" lon="9.918409335236746"><ele>452.0</ele><time>2026-04-11T15:37:32Z</time></trkpt><trkpt lat="45.723910646446065" lon="9.918525620516208"><ele>452.0</ele><time>2026-04-11T15:37:34Z</time></trkpt><trkpt lat="45.72394386351359" lon="9.918642521847568"><ele>451.99999999999994</ele><time>2026-04-11T15:37:35Z</time></trkpt><trkpt lat="45.72398771893283" lon="9.918753694643636"><ele>452.0</ele><time>2026-04-11T15:37:36Z</time></trkpt><trkpt lat="45.72402851872133" lon="9.918897971137834"><ele>451.99999999999994</ele><time>2026-04-11T15:37:36.999Z</time></trkpt><trkpt lat="45.72403534801464" lon="9.919021710431798"><ele>452.0</ele><time>2026-04-11T15:37:37.999Z</time></trkpt><trkpt lat="45.72403273273409" lon="9.91911743556965"><ele>452.0</ele><time>2026-04-11T15:37:38.999Z</time></trkpt><trkpt lat="45.72413804861586" lon="9.919167262153897"><ele>452.0</ele><time>2026-04-11T15:37:40.999Z</time></trkpt><trkpt lat="45.7241862249745" lon="9.919106512301108"><ele>451.99999999999994</ele><time>2026-04-11T15:37:41.999Z</time></trkpt><trkpt lat="45.724180800168575" lon="9.91894944126772"><ele>452.0</ele><time>2026-04-11T15:37:42.999Z</time></trkpt><trkpt lat="45.724194145117345" lon="9.918814311184864"><ele>452.0</ele><time>2026-04-11T15:37:43.999Z</time></trkpt><trkpt lat="45.72421395260121" lon="9.918665021352007"><ele>452.00000000000006</ele><time>2026-04-11T15:37:44.999Z</time></trkpt><trkpt lat="45.72420194166266" lon="9.918517698100176"><ele>452.00000000000006</ele><time>2026-04-11T15:37:45.999Z</time></trkpt><trkpt lat="45.72415167468729" lon="9.918388398048632"><ele>452.0</ele><time>2026-04-11T15:37:46.999Z</time></trkpt><trkpt lat="45.724115038619196" lon="9.918314761288968"><ele>452.0</ele><time>2026-04-11T15:37:47.999Z</time></trkpt><trkpt lat="45.72419719417895" lon="9.918230918948728"><ele>451.99999999999994</ele><time>2026-04-11T15:37:49.999Z</time></trkpt><trkpt lat="45.72425056995833" lon="9.918279300841197"><ele>452.0</ele><time>2026-04-11T15:37:50.999Z</time></trkpt><trkpt lat="45.72428900522866" lon="9.918363031249084"><ele>452.0</ele><time>2026-04-11T15:37:51.999Z</time></trkpt><trkpt lat="45.72433653670445" lon="9.918495764856537"><ele>452.0</ele><time>2026-04-11T15:37:53Z</time></trkpt><trkpt lat="45.72435017092749" lon="9.918668383106443"><ele>451.99999999999994</ele><time>2026-04-11T15:37:54Z</time></trkpt><trkpt lat="45.724379289225766" lon="9.918773104367368"><ele>452.0</ele><time>2026-04-11T15:37:55Z</time></trkpt><trkpt lat="45.72448984192973" lon="9.918826995710207"><ele>451.6</ele><time>2026-04-11T15:37:57Z</time></trkpt><trkpt lat="45.72452482035174" lon="9.918669839216939"><ele>451.20000000000005</ele><time>2026-04-11T15:37:58Z</time></trkpt><trkpt lat="45.724515210136616" lon="9.918576578309134"><ele>450.8</ele><time>2026-04-11T15:37:59Z</time></trkpt><trkpt lat="45.724487736317585" lon="9.918447601720692"><ele>450.4</ele><time>2026-04-11T15:38:00Z</time></trkpt><trkpt lat="45.72448622916298" lon="9.918305052362884"><ele>450.0</ele><time>2026-04-11T15:38:01Z</time></trkpt><trkpt lat="45.72446727687558" lon="9.91815186050707"><ele>449.5</ele><time>2026-04-11T15:38:02Z</time></trkpt><trkpt lat="45.72446692005811" lon="9.917981811904665"><ele>449.0</ele><time>2026-04-11T15:38:03Z</time></trkpt><trkpt lat="45.72444889890805" lon="9.917803680423305"><ele>448.5</ele><time>2026-04-11T15:38:04Z</time></trkpt><trkpt lat="45.724417742101195" lon="9.917637399318352"><ele>448.0</ele><time>2026-04-11T15:38:05Z</time></trkpt><trkpt lat="45.724376290683274" lon="9.917474498473169"><ele>442.25</ele><time>2026-04-11T15:38:06Z</time></trkpt><trkpt lat="45.724314919019406" lon="9.917313561588369"><ele>436.5</ele><time>2026-04-11T15:38:07Z</time></trkpt><trkpt lat="45.72423010733687" lon="9.917159859363943"><ele>430.75</ele><time>2026-04-11T15:38:08Z</time></trkpt><trkpt lat="45.72416447521768" lon="9.917017987118264"><ele>425.0</ele><time>2026-04-11T15:38:09Z</time></trkpt><trkpt lat="45.72411611221571" lon="9.916869111102141"><ele>423.2</ele><time>2026-04-11T15:38:10Z</time></trkpt><trkpt lat="45.72406893520888" lon="9.91671606390077"><ele>421.4</ele><time>2026-04-11T15:38:11Z</time></trkpt><trkpt lat="45.72401085358795" lon="9.916575583611099"><ele>419.6</ele><time>2026-04-11T15:38:12Z</time></trkpt><trkpt lat="45.72395279293989" lon="9.916444721989013"><ele>417.8</ele><time>2026-04-11T15:38:13Z</time></trkpt><trkpt lat="45.72391115128049" lon="9.916329563579614"><ele>416.0</ele><time>2026-04-11T15:38:14Z</time></trkpt><trkpt lat="45.723886022610735" lon="9.916207817701386"><ele>416.0</ele><time>2026-04-11T15:38:15Z</time></trkpt><trkpt lat="45.72391076909078" lon="9.91606866641402"><ele>416.0</ele><time>2026-04-11T15:38:16Z</time></trkpt><trkpt lat="45.72397811970587" lon="9.915962080691136"><ele>416.0</ele><time>2026-04-11T15:38:17Z</time></trkpt><trkpt lat="45.72410536257424" lon="9.915887037722467"><ele>416.0</ele><time>2026-04-11T15:38:18Z</time></trkpt><trkpt lat="45.72421178345038" lon="9.915783585954529"><ele>412.0</ele><time>2026-04-11T15:38:19Z</time></trkpt><trkpt lat="45.7243081426585" lon="9.915611478254315"><ele>408.0</ele><time>2026-04-11T15:38:20Z</time></trkpt><trkpt lat="45.72441007920505" lon="9.915440170785205"><ele>404.0</ele><time>2026-04-11T15:38:21Z</time></trkpt><trkpt lat="45.724507455915095" lon="9.915257344582571"><ele>409.3333333333333</ele><time>2026-04-11T15:38:22Z</time></trkpt><trkpt lat="45.724582351240976" lon="9.915043581165843"><ele>414.66666666666663</ele><time>2026-04-11T15:38:23Z</time></trkpt><trkpt lat="45.72465348956736" lon="9.914823771527177"><ele>420.0</ele><time>2026-04-11T15:38:24Z</time></trkpt><trkpt lat="45.72472500803443" lon="9.914611407067321"><ele>420.0</ele><time>2026-04-11T15:38:25Z</time></trkpt><trkpt lat="45.72483594809366" lon="9.914408934715139"><ele>420.0</ele><time>2026-04-11T15:38:26Z</time></trkpt><trkpt lat="45.724941095838524" lon="9.914217486632973"><ele>420.0</ele><time>2026-04-11T15:38:27Z</time></trkpt><trkpt lat="45.72502569885432" lon="9.914033398794002"><ele>415.25</ele><time>2026-04-11T15:38:28Z</time></trkpt><trkpt lat="45.72508865224032" lon="9.913838790224224"><ele>410.5</ele><time>2026-04-11T15:38:29Z</time></trkpt><trkpt lat="45.72513927886793" lon="9.913644979483925"><ele>405.75</ele><time>2026-04-11T15:38:30Z</time></trkpt><trkpt lat="45.72517625590452" lon="9.91346891056715"><ele>401.0</ele><time>2026-04-11T15:38:31Z</time></trkpt><trkpt lat="45.72522451592709" lon="9.913296112555145"><ele>404.0</ele><time>2026-04-11T15:38:32Z</time></trkpt><trkpt lat="45.72527655602133" lon="9.913131856983878"><ele>407.0</ele><time>2026-04-11T15:38:33Z</time></trkpt><trkpt lat="45.72533446150833" lon="9.91297150653219"><ele>410.0</ele><time>2026-04-11T15:38:34Z</time></trkpt><trkpt lat="45.725398587512224" lon="9.912817462700207"><ele>413.0</ele><time>2026-04-11T15:38:35Z</time></trkpt><trkpt lat="45.72548954291787" lon="9.91264668504692"><ele>407.75</ele><time>2026-04-11T15:38:36Z</time></trkpt><trkpt lat="45.725547785090825" lon="9.912503468547293"><ele>402.5</ele><time>2026-04-11T15:38:37Z</time></trkpt><trkpt lat="45.725618552322516" lon="9.912365040512046"><ele>397.25</ele><time>2026-04-11T15:38:38Z</time></trkpt><trkpt lat="45.72569294856416" lon="9.912250852801096"><ele>392.0</ele><time>2026-04-11T15:38:39Z</time></trkpt><trkpt lat="45.72580110813464" lon="9.91216460081228"><ele>392.0</ele><time>2026-04-11T15:38:40Z</time></trkpt><trkpt lat="45.72591465285526" lon="9.91212167098412"><ele>392.0</ele><time>2026-04-11T15:38:41Z</time></trkpt><trkpt lat="45.72602876190104" lon="9.91209604223747"><ele>392.0</ele><time>2026-04-11T15:38:42Z</time></trkpt><trkpt lat="45.72614961511302" lon="9.912072792428074"><ele>392.0</ele><time>2026-04-11T15:38:43Z</time></trkpt><trkpt lat="45.726295191658444" lon="9.912031228189345"><ele>393.0</ele><time>2026-04-11T15:38:44Z</time></trkpt><trkpt lat="45.72643844141634" lon="9.912018287067472"><ele>394.0</ele><time>2026-04-11T15:38:45Z</time></trkpt><trkpt lat="45.72656707653558" lon="9.912019138335712"><ele>395.0</ele><time>2026-04-11T15:38:46Z</time></trkpt><trkpt lat="45.726673252135065" lon="9.912011044219511"><ele>396.0</ele><time>2026-04-11T15:38:47Z</time></trkpt><trkpt lat="45.72677335088772" lon="9.911976723308362"><ele>396.0</ele><time>2026-04-11T15:38:48Z</time></trkpt><trkpt lat="45.726850392504765" lon="9.911916936333828"><ele>396.0</ele><time>2026-04-11T15:38:49Z</time></trkpt><trkpt lat="45.72692580583282" lon="9.911811403405547"><ele>396.0</ele><time>2026-04-11T15:38:50Z</time></trkpt><trkpt lat="45.726968266674774" lon="9.911656907415322"><ele>396.0</ele><time>2026-04-11T15:38:51Z</time></trkpt><trkpt lat="45.72700494872948" lon="9.911495666177585"><ele>396.0</ele><time>2026-04-11T15:38:52Z</time></trkpt><trkpt lat="45.72706092324532" lon="9.911340800021991"><ele>394.6</ele><time>2026-04-11T15:38:53Z</time></trkpt><trkpt lat="45.72713223308251" lon="9.911194025650499"><ele>393.20000000000005</ele><time>2026-04-11T15:38:54Z</time></trkpt><trkpt lat="45.72718502457474" lon="9.911051952219157"><ele>391.79999999999995</ele><time>2026-04-11T15:38:55Z</time></trkpt><trkpt lat="45.727222451762366" lon="9.91092485139614"><ele>390.4</ele><time>2026-04-11T15:38:56Z</time></trkpt><trkpt lat="45.727255012959866" lon="9.910833674820445"><ele>389.0</ele><time>2026-04-11T15:38:57Z</time></trkpt><trkpt lat="45.72729243470296" lon="9.910749050623004"><ele>388.3333333333333</ele><time>2026-04-11T15:38:58Z</time></trkpt><trkpt lat="45.72734375890288" lon="9.91069192208219"><ele>387.66666666666663</ele><time>2026-04-11T15:38:59Z</time></trkpt><trkpt lat="45.72742196568434" lon="9.910653801024475"><ele>387.0</ele><time>2026-04-11T15:39:06Z</time></trkpt><trkpt lat="45.727474845327215" lon="9.910574714785618"><ele>386.33333333333337</ele><time>2026-04-11T15:39:08Z</time></trkpt><trkpt lat="45.727548322927774" lon="9.910544537033719"><ele>385.6666666666667</ele><time>2026-04-11T15:39:10Z</time></trkpt><trkpt lat="45.727656834205234" lon="9.910633464329917"><ele>385.0</ele><time>2026-04-11T15:39:12Z</time></trkpt><trkpt lat="45.72771790572179" lon="9.910692671590255"><ele>385.2</ele><time>2026-04-11T15:39:13Z</time></trkpt><trkpt lat="45.72777500605933" lon="9.910754012537426"><ele>385.4</ele><time>2026-04-11T15:39:14Z</time></trkpt><trkpt lat="45.72786360149734" lon="9.910868453026303"><ele>385.6</ele><time>2026-04-11T15:39:16Z</time></trkpt><trkpt lat="45.72795598484492" lon="9.910981546842388"><ele>385.8</ele><time>2026-04-11T15:39:18Z</time></trkpt><trkpt lat="45.72801151936857" lon="9.911038506818475"><ele>386.0</ele><time>2026-04-11T15:39:19Z</time></trkpt><trkpt lat="45.728067523130925" lon="9.911103398325759"><ele>385.99999999999994</ele><time>2026-04-11T15:39:20Z</time></trkpt><trkpt lat="45.72812925379993" lon="9.911169196004696"><ele>386.0</ele><time>2026-04-11T15:39:21Z</time></trkpt><trkpt lat="45.72819119408361" lon="9.911250871475069"><ele>386.0</ele><time>2026-04-11T15:39:23Z</time></trkpt><trkpt lat="45.728264267985864" lon="9.911289271946496"><ele>386.0</ele><time>2026-04-11T15:39:24Z</time></trkpt><trkpt lat="45.72833399718909" lon="9.911355875094003"><ele>385.99999999999994</ele><time>2026-04-11T15:39:25Z</time></trkpt><trkpt lat="45.72840786978503" lon="9.911432519764066"><ele>386.0</ele><time>2026-04-11T15:39:26Z</time></trkpt><trkpt lat="45.728473005806634" lon="9.911500005381706"><ele>386.0</ele><time>2026-04-11T15:39:27Z</time></trkpt><trkpt lat="45.72853498137314" lon="9.911574161147817"><ele>386.0</ele><time>2026-04-11T15:39:28Z</time></trkpt><trkpt lat="45.7286379811862" lon="9.911589479114173"><ele>386.0</ele><time>2026-04-11T15:39:30Z</time></trkpt><trkpt lat="45.72868032017042" lon="9.911440086289705"><ele>386.0</ele><time>2026-04-11T15:39:32Z</time></trkpt><trkpt lat="45.728622589715414" lon="9.911344668892566"><ele>386.0</ele><time>2026-04-11T15:39:33Z</time></trkpt><trkpt lat="45.7285183355175" lon="9.911250929925238"><ele>386.0</ele><time>2026-04-11T15:39:34Z</time></trkpt><trkpt lat="45.72841953807745" lon="9.911152990488954"><ele>386.0</ele><time>2026-04-11T15:39:35Z</time></trkpt><trkpt lat="45.728328449744446" lon="9.911014045300075"><ele>386.0</ele><time>2026-04-11T15:39:36Z</time></trkpt><trkpt lat="45.72826331684557" lon="9.910813698006107"><ele>386.0</ele><time>2026-04-11T15:39:37Z</time></trkpt><trkpt lat="45.72820580228337" lon="9.91063248720939"><ele>381.25</ele><time>2026-04-11T15:39:38Z</time></trkpt><trkpt lat="45.72812919778907" lon="9.910463128430093"><ele>376.5</ele><time>2026-04-11T15:39:39Z</time></trkpt><trkpt lat="45.728072173729075" lon="9.910295404186268"><ele>371.75</ele><time>2026-04-11T15:39:40Z</time></trkpt><trkpt lat="45.72800820120058" lon="9.910134535332732"><ele>367.0</ele><time>2026-04-11T15:39:41Z</time></trkpt><trkpt lat="45.72794427637474" lon="9.909973564020802"><ele>368.75</ele><time>2026-04-11T15:39:42Z</time></trkpt><trkpt lat="45.72788418830251" lon="9.909822691333815"><ele>370.5</ele><time>2026-04-11T15:39:42.999Z</time></trkpt><trkpt lat="45.7278092795832" lon="9.909688019882338"><ele>372.25</ele><time>2026-04-11T15:39:43.999Z</time></trkpt><trkpt lat="45.72774368977378" lon="9.909553737647196"><ele>374.0</ele><time>2026-04-11T15:39:44.999Z</time></trkpt><trkpt lat="45.72767965379611" lon="9.909426232037971"><ele>374.0</ele><time>2026-04-11T15:39:45.999Z</time></trkpt><trkpt lat="45.72762578956947" lon="9.909313634619894"><ele>374.0</ele><time>2026-04-11T15:39:46.999Z</time></trkpt><trkpt lat="45.72756875679625" lon="9.909214238461972"><ele>374.0</ele><time>2026-04-11T15:39:47.999Z</time></trkpt><trkpt lat="45.72750544604363" lon="9.909106199404217"><ele>374.0</ele><time>2026-04-11T15:39:48.999Z</time></trkpt><trkpt lat="45.72744300307133" lon="9.909014953364613"><ele>374.0</ele><time>2026-04-11T15:39:49.999Z</time></trkpt><trkpt lat="45.72739060662444" lon="9.908910757765144"><ele>369.79999999999995</ele><time>2026-04-11T15:39:50.999Z</time></trkpt><trkpt lat="45.72732879200785" lon="9.908790979480798"><ele>365.59999999999997</ele><time>2026-04-11T15:39:51.999Z</time></trkpt><trkpt lat="45.727265818415795" lon="9.908658175540824"><ele>361.4</ele><time>2026-04-11T15:39:52.999Z</time></trkpt><trkpt lat="45.72720303678878" lon="9.908530472587545"><ele>357.2</ele><time>2026-04-11T15:39:53.999Z</time></trkpt><trkpt lat="45.72719340128487" lon="9.908380300280328"><ele>353.0</ele><time>2026-04-11T15:39:54.999Z</time></trkpt><trkpt lat="45.72719928634988" lon="9.908234188888704"><ele>350.4</ele><time>2026-04-11T15:39:55.999Z</time></trkpt><trkpt lat="45.72720831817995" lon="9.908086502396818"><ele>347.79999999999995</ele><time>2026-04-11T15:39:56.999Z</time></trkpt><trkpt lat="45.72722370172323" lon="9.907938437465496"><ele>345.2</ele><time>2026-04-11T15:39:57.999Z</time></trkpt><trkpt lat="45.727203942125904" lon="9.907800369451152"><ele>342.6</ele><time>2026-04-11T15:39:58.999Z</time></trkpt><trkpt lat="45.72716207373283" lon="9.907666507558817"><ele>340.0</ele><time>2026-04-11T15:39:59.999Z</time></trkpt><trkpt lat="45.72711253088953" lon="9.907519108749469"><ele>338.8</ele><time>2026-04-11T15:40:00.999Z</time></trkpt><trkpt lat="45.72705279800888" lon="9.907372241786998"><ele>337.6</ele><time>2026-04-11T15:40:01.999Z</time></trkpt><trkpt lat="45.726985887357195" lon="9.907239136480985"><ele>336.4</ele><time>2026-04-11T15:40:02.999Z</time></trkpt><trkpt lat="45.7269098306329" lon="9.90712211348775"><ele>335.2</ele><time>2026-04-11T15:40:03.999Z</time></trkpt><trkpt lat="45.726847435258" lon="9.907035657130837"><ele>334.0</ele><time>2026-04-11T15:40:04.999Z</time></trkpt><trkpt lat="45.726787655082674" lon="9.906975311015144"><ele>333.4</ele><time>2026-04-11T15:40:05.999Z</time></trkpt><trkpt lat="45.72668862102635" lon="9.906913294656702"><ele>332.79999999999995</ele><time>2026-04-11T15:40:08Z</time></trkpt><trkpt lat="45.72663702541111" lon="9.906846785486914"><ele>332.20000000000005</ele><time>2026-04-11T15:40:10Z</time></trkpt><trkpt lat="45.72673236692043" lon="9.906750399304745"><ele>331.6</ele><time>2026-04-11T15:40:12Z</time></trkpt><trkpt lat="45.72681570670201" lon="9.906734444227283"><ele>331.0</ele><time>2026-04-11T15:40:14Z</time></trkpt><trkpt lat="45.72703018746176" lon="9.906735891062857"><ele>332.0</ele><time>2026-04-11T15:42:09Z</time></trkpt><trkpt lat="45.72709825186965" lon="9.906778746946024"><ele>333.0</ele><time>2026-04-11T15:42:11Z</time></trkpt><trkpt lat="45.72720591794501" lon="9.90682792185186"><ele>334.0</ele><time>2026-04-11T15:42:13Z</time></trkpt><trkpt lat="45.72714248843812" lon="9.906329380940859"><ele>331.66666666666663</ele><time>2026-04-11T15:42:14Z</time></trkpt><trkpt lat="45.72719527683859" lon="9.90619684730375"><ele>329.3333333333333</ele><time>2026-04-11T15:42:15Z</time></trkpt><trkpt lat="45.7272571449496" lon="9.906037856657733"><ele>327.0</ele><time>2026-04-11T15:42:16Z</time></trkpt><trkpt lat="45.727436828237515" lon="9.905333988573453"><ele>325.6</ele><time>2026-04-11T15:42:18Z</time></trkpt><trkpt lat="45.727423164865264" lon="9.905184509157095"><ele>324.20000000000005</ele><time>2026-04-11T15:42:19Z</time></trkpt><trkpt lat="45.72739387983163" lon="9.905041870203222"><ele>322.8</ele><time>2026-04-11T15:42:20Z</time></trkpt><trkpt lat="45.7273290903534" lon="9.904930934195342"><ele>321.4</ele><time>2026-04-11T15:42:21Z</time></trkpt><trkpt lat="45.727227297846326" lon="9.904833651215512"><ele>320.0</ele><time>2026-04-11T15:42:22Z</time></trkpt><trkpt lat="45.72711025814272" lon="9.904746289656487"><ele>319.75</ele><time>2026-04-11T15:42:23Z</time></trkpt><trkpt lat="45.72698341361466" lon="9.904644869162745"><ele>319.5</ele><time>2026-04-11T15:42:24Z</time></trkpt><trkpt lat="45.726863791623714" lon="9.904558447577468"><ele>319.25</ele><time>2026-04-11T15:42:25Z</time></trkpt><trkpt lat="45.72676295132533" lon="9.904452536354507"><ele>319.0</ele><time>2026-04-11T15:42:26Z</time></trkpt><trkpt lat="45.72668074621172" lon="9.904319784155481"><ele>318.25</ele><time>2026-04-11T15:42:27Z</time></trkpt><trkpt lat="45.72663366466215" lon="9.904193557516068"><ele>317.5</ele><time>2026-04-11T15:42:28Z</time></trkpt><trkpt lat="45.7265974188592" lon="9.904040497885138"><ele>316.75</ele><time>2026-04-11T15:42:29Z</time></trkpt><trkpt lat="45.726548912516826" lon="9.90387928807706"><ele>316.0</ele><time>2026-04-11T15:42:30Z</time></trkpt><trkpt lat="45.72648126275486" lon="9.903726602349671"><ele>316.0</ele><time>2026-04-11T15:42:31Z</time></trkpt><trkpt lat="45.726405397855075" lon="9.903572424674632"><ele>316.0</ele><time>2026-04-11T15:42:32Z</time></trkpt><trkpt lat="45.72632653230149" lon="9.903416874698834"><ele>316.0</ele><time>2026-04-11T15:42:33Z</time></trkpt><trkpt lat="45.7262392580705" lon="9.903261878592943"><ele>316.0</ele><time>2026-04-11T15:42:34Z</time></trkpt><trkpt lat="45.72616069111707" lon="9.903106382834654"><ele>316.25</ele><time>2026-04-11T15:42:35Z</time></trkpt><trkpt lat="45.7260780688908" lon="9.902958537296639"><ele>316.5</ele><time>2026-04-11T15:42:36Z</time></trkpt><trkpt lat="45.725992807522786" lon="9.902814017110849"><ele>316.75</ele><time>2026-04-11T15:42:37Z</time></trkpt><trkpt lat="45.72591049600169" lon="9.902669615556974"><ele>317.0</ele><time>2026-04-11T15:42:38Z</time></trkpt><trkpt lat="45.72582815060285" lon="9.902515967204968"><ele>315.0</ele><time>2026-04-11T15:42:39Z</time></trkpt><trkpt lat="45.725719371613465" lon="9.90237558760132"><ele>313.0</ele><time>2026-04-11T15:42:40Z</time></trkpt><trkpt lat="45.725615273547305" lon="9.90223643202563"><ele>311.0</ele><time>2026-04-11T15:42:41Z</time></trkpt><trkpt lat="45.72552208766273" lon="9.90209186055151"><ele>309.0</ele><time>2026-04-11T15:42:42Z</time></trkpt><trkpt lat="45.72543159053066" lon="9.90194346607911"><ele>309.0</ele><time>2026-04-11T15:42:43Z</time></trkpt><trkpt lat="45.725344561461576" lon="9.901807453902558"><ele>309.0</ele><time>2026-04-11T15:42:44Z</time></trkpt><trkpt lat="45.72525100481965" lon="9.90170358114199"><ele>309.0</ele><time>2026-04-11T15:42:45Z</time></trkpt><trkpt lat="45.7252011066753" lon="9.901574246276946"><ele>309.0</ele><time>2026-04-11T15:42:46Z</time></trkpt><trkpt lat="45.72517306049958" lon="9.901478514539109"><ele>309.0</ele><time>2026-04-11T15:42:47Z</time></trkpt><trkpt lat="45.72518395914177" lon="9.901298127163393"><ele>309.0</ele><time>2026-04-11T15:42:49Z</time></trkpt><trkpt lat="45.72521027712737" lon="9.90115864281469"><ele>309.0</ele><time>2026-04-11T15:42:51Z</time></trkpt><trkpt lat="45.7252730929199" lon="9.901092766190732"><ele>309.0</ele><time>2026-04-11T15:43:11.001Z</time></trkpt><trkpt lat="45.725448346938244" lon="9.901109301731019"><ele>309.0</ele><time>2026-04-11T15:44:09Z</time></trkpt><trkpt lat="45.72556637703479" lon="9.901223348935181"><ele>309.0</ele><time>2026-04-11T15:44:10Z</time></trkpt><trkpt lat="45.72565358859465" lon="9.901315356480659"><ele>309.0</ele><time>2026-04-11T15:44:11Z</time></trkpt><trkpt lat="45.72575070432503" lon="9.901403503357773"><ele>309.0</ele><time>2026-04-11T15:44:12Z</time></trkpt><trkpt lat="45.72586748034512" lon="9.901480672715346"><ele>309.0</ele><time>2026-04-11T15:44:13Z</time></trkpt><trkpt lat="45.726002413395236" lon="9.90153523124626"><ele>311.0</ele><time>2026-04-11T15:44:14Z</time></trkpt><trkpt lat="45.726139485268384" lon="9.901583859816826"><ele>313.0</ele><time>2026-04-11T15:44:15Z</time></trkpt><trkpt lat="45.72629367280108" lon="9.901616160323663"><ele>315.0</ele><time>2026-04-11T15:44:16Z</time></trkpt><trkpt lat="45.726453652889724" lon="9.901657855126825"><ele>315.0</ele><time>2026-04-11T15:44:17Z</time></trkpt><trkpt lat="45.72662042133224" lon="9.90170377258473"><ele>315.0</ele><time>2026-04-11T15:44:18Z</time></trkpt><trkpt lat="45.72679366040401" lon="9.901755674097314"><ele>315.0</ele><time>2026-04-11T15:44:19Z</time></trkpt><trkpt lat="45.726952591759634" lon="9.901833538797343"><ele>314.6666666666667</ele><time>2026-04-11T15:44:20Z</time></trkpt><trkpt lat="45.72710679477673" lon="9.90194199248506"><ele>314.33333333333337</ele><time>2026-04-11T15:44:21Z</time></trkpt><trkpt lat="45.72725703913246" lon="9.902079281267872"><ele>314.0</ele><time>2026-04-11T15:44:22Z</time></trkpt><trkpt lat="45.72741298672882" lon="9.902223389181948"><ele>314.0</ele><time>2026-04-11T15:44:23Z</time></trkpt><trkpt lat="45.72756705066509" lon="9.902360229419898"><ele>314.0</ele><time>2026-04-11T15:44:24Z</time></trkpt><trkpt lat="45.72772562849954" lon="9.902497717355367"><ele>314.0</ele><time>2026-04-11T15:44:25Z</time></trkpt><trkpt lat="45.72787977649276" lon="9.9026336858733"><ele>315.6666666666667</ele><time>2026-04-11T15:44:26Z</time></trkpt><trkpt lat="45.72803218068709" lon="9.902761689667656"><ele>317.3333333333333</ele><time>2026-04-11T15:44:27Z</time></trkpt><trkpt lat="45.728178457916115" lon="9.902885624479472"><ele>319.0</ele><time>2026-04-11T15:44:28Z</time></trkpt><trkpt lat="45.72831561046367" lon="9.903004858728668"><ele>319.0</ele><time>2026-04-11T15:44:29Z</time></trkpt><trkpt lat="45.7284466065186" lon="9.903126546233205"><ele>319.0</ele><time>2026-04-11T15:44:30Z</time></trkpt><trkpt lat="45.728565094089845" lon="9.90327634193434"><ele>319.0</ele><time>2026-04-11T15:44:31Z</time></trkpt><trkpt lat="45.728674741215045" lon="9.903455060016164"><ele>318.0</ele><time>2026-04-11T15:44:32Z</time></trkpt><trkpt lat="45.72879270599193" lon="9.903639304901297"><ele>317.0</ele><time>2026-04-11T15:44:33Z</time></trkpt><trkpt lat="45.72891166048937" lon="9.903814208883439"><ele>316.0</ele><time>2026-04-11T15:44:34Z</time></trkpt><trkpt lat="45.729036812152664" lon="9.904042909829608"><ele>316.0</ele><time>2026-04-11T15:44:35Z</time></trkpt><trkpt lat="45.72915763561165" lon="9.904240715382407"><ele>316.0</ele><time>2026-04-11T15:44:36Z</time></trkpt><trkpt lat="45.729288192125225" lon="9.904446127951871"><ele>316.0</ele><time>2026-04-11T15:44:37Z</time></trkpt><trkpt lat="45.729417943650695" lon="9.904649181048525"><ele>314.66666666666663</ele><time>2026-04-11T15:44:38Z</time></trkpt><trkpt lat="45.72955729013744" lon="9.904863261310936"><ele>313.3333333333333</ele><time>2026-04-11T15:44:39Z</time></trkpt><trkpt lat="45.729693334784095" lon="9.905078679129709"><ele>312.0</ele><time>2026-04-11T15:44:40Z</time></trkpt><trkpt lat="45.72982693491724" lon="9.905286891599742"><ele>311.6666666666667</ele><time>2026-04-11T15:44:41Z</time></trkpt><trkpt lat="45.72995799525835" lon="9.905494394438225"><ele>311.33333333333337</ele><time>2026-04-11T15:44:42Z</time></trkpt><trkpt lat="45.73008863179927" lon="9.905703472907806"><ele>311.0</ele><time>2026-04-11T15:44:43Z</time></trkpt><trkpt lat="45.73021700988267" lon="9.905910029771803"><ele>311.33333333333337</ele><time>2026-04-11T15:44:44Z</time></trkpt><trkpt lat="45.73034337583105" lon="9.906112382512426"><ele>311.6666666666667</ele><time>2026-04-11T15:44:45Z</time></trkpt><trkpt lat="45.7304755759329" lon="9.906309943557755"><ele>312.0</ele><time>2026-04-11T15:44:46Z</time></trkpt><trkpt lat="45.73060784183801" lon="9.906488798789768"><ele>312.0</ele><time>2026-04-11T15:44:47Z</time></trkpt><trkpt lat="45.730757737348036" lon="9.906644997045612"><ele>312.0</ele><time>2026-04-11T15:44:48Z</time></trkpt><trkpt lat="45.73091457821849" lon="9.906779356846664"><ele>312.0</ele><time>2026-04-11T15:44:49Z</time></trkpt><trkpt lat="45.73108186925049" lon="9.90687656228188"><ele>312.0</ele><time>2026-04-11T15:44:50Z</time></trkpt><trkpt lat="45.7312563178307" lon="9.906951476385215"><ele>312.0</ele><time>2026-04-11T15:44:51Z</time></trkpt><trkpt lat="45.7314375169093" lon="9.907009254582631"><ele>312.0</ele><time>2026-04-11T15:44:52Z</time></trkpt><trkpt lat="45.73162352114526" lon="9.90704417966734"><ele>312.0</ele><time>2026-04-11T15:44:53Z</time></trkpt><trkpt lat="45.73181696486667" lon="9.90706667415297"><ele>312.0</ele><time>2026-04-11T15:44:54Z</time></trkpt><trkpt lat="45.732019990774766" lon="9.90708849558694"><ele>312.0</ele><time>2026-04-11T15:44:55Z</time></trkpt><trkpt lat="45.73222213816291" lon="9.907110799710658"><ele>312.0</ele><time>2026-04-11T15:44:56Z</time></trkpt><trkpt lat="45.732416138122375" lon="9.907138163007406"><ele>312.0</ele><time>2026-04-11T15:44:57Z</time></trkpt><trkpt lat="45.73259715157506" lon="9.907157036332208"><ele>312.0</ele><time>2026-04-11T15:44:58Z</time></trkpt><trkpt lat="45.73277230308276" lon="9.907174722152172"><ele>312.3333333333333</ele><time>2026-04-11T15:44:59Z</time></trkpt><trkpt lat="45.732949057502566" lon="9.907191868082455"><ele>312.66666666666663</ele><time>2026-04-11T15:45:00Z</time></trkpt><trkpt lat="45.73311611399092" lon="9.907209951040166"><ele>313.0</ele><time>2026-04-11T15:45:01Z</time></trkpt><trkpt lat="45.73329342355019" lon="9.907217017862536"><ele>313.0</ele><time>2026-04-11T15:45:02Z</time></trkpt><trkpt lat="45.73346513049287" lon="9.907244676017056"><ele>313.0</ele><time>2026-04-11T15:45:03Z</time></trkpt><trkpt lat="45.73363451431568" lon="9.907271376298599"><ele>313.0</ele><time>2026-04-11T15:45:04Z</time></trkpt><trkpt lat="45.733801643080064" lon="9.90728822843003"><ele>314.0</ele><time>2026-04-11T15:45:05Z</time></trkpt><trkpt lat="45.733973261994166" lon="9.9072757768252"><ele>315.0</ele><time>2026-04-11T15:45:06Z</time></trkpt><trkpt lat="45.73414172604868" lon="9.907236393950958"><ele>316.0</ele><time>2026-04-11T15:45:07Z</time></trkpt><trkpt lat="45.7343179415795" lon="9.907172864011466"><ele>315.3333333333333</ele><time>2026-04-11T15:45:08Z</time></trkpt><trkpt lat="45.73448569660097" lon="9.907089204539645"><ele>314.6666666666667</ele><time>2026-04-11T15:45:09Z</time></trkpt><trkpt lat="45.73464696985057" lon="9.90697944041597"><ele>314.0</ele><time>2026-04-11T15:45:10.001Z</time></trkpt><trkpt lat="45.734795660084366" lon="9.906827090297192"><ele>314.6666666666667</ele><time>2026-04-11T15:45:11.001Z</time></trkpt><trkpt lat="45.73492286800762" lon="9.906672668120697"><ele>315.3333333333333</ele><time>2026-04-11T15:45:12.001Z</time></trkpt><trkpt lat="45.735051914382176" lon="9.906514013438805"><ele>316.0</ele><time>2026-04-11T15:45:13.001Z</time></trkpt><trkpt lat="45.735164864022515" lon="9.906403997473067"><ele>316.5</ele><time>2026-04-11T15:45:14.001Z</time></trkpt><trkpt lat="45.735252965156654" lon="9.90628059079005"><ele>317.0</ele><time>2026-04-11T15:45:15.001Z</time></trkpt><trkpt lat="45.73536636259383" lon="9.906200669395364"><ele>317.5</ele><time>2026-04-11T15:45:16.001Z</time></trkpt><trkpt lat="45.73551720444624" lon="9.906120216424322"><ele>318.0</ele><time>2026-04-11T15:45:17.001Z</time></trkpt><trkpt lat="45.735706864307716" lon="9.906110838831953"><ele>318.0</ele><time>2026-04-11T15:45:18.001Z</time></trkpt><trkpt lat="45.73586644592665" lon="9.906106000834173"><ele>318.0</ele><time>2026-04-11T15:45:19.001Z</time></trkpt><trkpt lat="45.736043323678985" lon="9.906110711401235"><ele>318.0</ele><time>2026-04-11T15:45:20.001Z</time></trkpt><trkpt lat="45.73623523763102" lon="9.90611759086637"><ele>318.3333333333333</ele><time>2026-04-11T15:45:21.001Z</time></trkpt><trkpt lat="45.73644624113824" lon="9.906079934274873"><ele>318.66666666666663</ele><time>2026-04-11T15:45:22.001Z</time></trkpt><trkpt lat="45.736619116632994" lon="9.906081513819377"><ele>319.0</ele><time>2026-04-11T15:45:23.001Z</time></trkpt><trkpt lat="45.73677857434843" lon="9.906082024420087"><ele>318.75</ele><time>2026-04-11T15:45:24.001Z</time></trkpt><trkpt lat="45.73693382723396" lon="9.906080519543783"><ele>318.5</ele><time>2026-04-11T15:45:25.001Z</time></trkpt><trkpt lat="45.73707032954253" lon="9.906090754522241"><ele>318.25</ele><time>2026-04-11T15:45:26.001Z</time></trkpt><trkpt lat="45.7372045498471" lon="9.906106382483038"><ele>318.0</ele><time>2026-04-11T15:45:27.001Z</time></trkpt><trkpt lat="45.73734657677729" lon="9.906106872461276"><ele>318.0</ele><time>2026-04-11T15:45:28.001Z</time></trkpt><trkpt lat="45.73748763506673" lon="9.90611540188965"><ele>318.0</ele><time>2026-04-11T15:45:29.001Z</time></trkpt><trkpt lat="45.73764387161028" lon="9.906126962069232"><ele>318.0</ele><time>2026-04-11T15:45:30.001Z</time></trkpt><trkpt lat="45.737792331567114" lon="9.90613790082672"><ele>318.0</ele><time>2026-04-11T15:45:31.001Z</time></trkpt><trkpt lat="45.737938580756655" lon="9.906149165524345"><ele>318.5</ele><time>2026-04-11T15:45:32.001Z</time></trkpt><trkpt lat="45.73806149003224" lon="9.906183664182478"><ele>319.0</ele><time>2026-04-11T15:45:33.001Z</time></trkpt><trkpt lat="45.73820699579462" lon="9.90621489315123"><ele>319.5</ele><time>2026-04-11T15:45:34.001Z</time></trkpt><trkpt lat="45.73834143212053" lon="9.906253434768027"><ele>320.0</ele><time>2026-04-11T15:45:35.001Z</time></trkpt><trkpt lat="45.73846547318476" lon="9.906298342873894"><ele>319.75</ele><time>2026-04-11T15:45:36.001Z</time></trkpt><trkpt lat="45.738579308390115" lon="9.906353807312776"><ele>319.5</ele><time>2026-04-11T15:45:37.001Z</time></trkpt><trkpt lat="45.73869738364567" lon="9.906425835985317"><ele>319.25</ele><time>2026-04-11T15:45:38.001Z</time></trkpt><trkpt lat="45.73881129163542" lon="9.906502418811518"><ele>319.0</ele><time>2026-04-11T15:45:39.001Z</time></trkpt><trkpt lat="45.738914365273054" lon="9.906561011115508"><ele>319.0</ele><time>2026-04-11T15:45:40.001Z</time></trkpt><trkpt lat="45.73902754444712" lon="9.906619564475816"><ele>319.0</ele><time>2026-04-11T15:45:41.001Z</time></trkpt><trkpt lat="45.73913149979492" lon="9.906683299504595"><ele>319.0</ele><time>2026-04-11T15:45:42.001Z</time></trkpt><trkpt lat="45.739221131142465" lon="9.906756674008376"><ele>319.0</ele><time>2026-04-11T15:45:43.001Z</time></trkpt><trkpt lat="45.739315751369105" lon="9.906805637670418"><ele>319.0</ele><time>2026-04-11T15:45:44.001Z</time></trkpt><trkpt lat="45.73940939550601" lon="9.906857439030482"><ele>319.42857142857144</ele><time>2026-04-11T15:45:45.001Z</time></trkpt><trkpt lat="45.73948525737513" lon="9.906913426980958"><ele>319.85714285714283</ele><time>2026-04-11T15:45:46.001Z</time></trkpt><trkpt lat="45.73953746505057" lon="9.906965985682717"><ele>320.2857142857143</ele><time>2026-04-11T15:45:47.001Z</time></trkpt><trkpt lat="45.739588051514126" lon="9.907022707832445"><ele>320.7142857142857</ele><time>2026-04-11T15:45:48.001Z</time></trkpt><trkpt lat="45.7396246303137" lon="9.907116686288074"><ele>321.1428571428571</ele><time>2026-04-11T15:45:49.001Z</time></trkpt><trkpt lat="45.73967756896177" lon="9.907197185043369"><ele>321.57142857142856</ele><time>2026-04-11T15:45:50.001Z</time></trkpt><trkpt lat="45.73974368638327" lon="9.90721491680377"><ele>322.0</ele><time>2026-04-11T15:45:51.001Z</time></trkpt><trkpt lat="45.7398227050343" lon="9.907190278717788"><ele>322.0</ele><time>2026-04-11T15:45:52.001Z</time></trkpt><trkpt lat="45.73992054060008" lon="9.907177707471963"><ele>322.0</ele><time>2026-04-11T15:45:53.001Z</time></trkpt><trkpt lat="45.740036212181266" lon="9.907214231502358"><ele>322.0</ele><time>2026-04-11T15:45:54.001Z</time></trkpt><trkpt lat="45.74013548623739" lon="9.907274913603366"><ele>322.0</ele><time>2026-04-11T15:45:55.001Z</time></trkpt><trkpt lat="45.740239436225885" lon="9.907344098225325"><ele>322.0</ele><time>2026-04-11T15:45:56.001Z</time></trkpt><trkpt lat="45.74034678554842" lon="9.907412957583455"><ele>322.0</ele><time>2026-04-11T15:45:57.001Z</time></trkpt><trkpt lat="45.740456705741884" lon="9.907486614605702"><ele>322.0</ele><time>2026-04-11T15:45:58.001Z</time></trkpt><trkpt lat="45.740564615458716" lon="9.907568271162932"><ele>322.0</ele><time>2026-04-11T15:45:59.001Z</time></trkpt><trkpt lat="45.74067335140118" lon="9.907636647284244"><ele>322.0</ele><time>2026-04-11T15:46:00.001Z</time></trkpt><trkpt lat="45.74078929695651" lon="9.90770195000158"><ele>322.25</ele><time>2026-04-11T15:46:00.999Z</time></trkpt><trkpt lat="45.740905273542836" lon="9.90777666745024"><ele>322.5</ele><time>2026-04-11T15:46:01.999Z</time></trkpt><trkpt lat="45.74103186336045" lon="9.907850499578599"><ele>322.75</ele><time>2026-04-11T15:46:03Z</time></trkpt><trkpt lat="45.741167365340466" lon="9.90791967779112"><ele>323.0</ele><time>2026-04-11T15:46:04Z</time></trkpt><trkpt lat="45.74130732691835" lon="9.907975957352203"><ele>323.33333333333337</ele><time>2026-04-11T15:46:05Z</time></trkpt><trkpt lat="45.74144563220738" lon="9.908029935972916"><ele>323.6666666666667</ele><time>2026-04-11T15:46:06Z</time></trkpt><trkpt lat="45.741593220186765" lon="9.908093517842032"><ele>324.0</ele><time>2026-04-11T15:46:07Z</time></trkpt><trkpt lat="45.74174071740042" lon="9.908148926209833"><ele>324.3333333333333</ele><time>2026-04-11T15:46:08Z</time></trkpt><trkpt lat="45.74188960228527" lon="9.908208035782543"><ele>324.66666666666663</ele><time>2026-04-11T15:46:09Z</time></trkpt><trkpt lat="45.742033567575405" lon="9.908273894660478"><ele>325.0</ele><time>2026-04-11T15:46:10Z</time></trkpt><trkpt lat="45.74218832046319" lon="9.908328322777102"><ele>325.0</ele><time>2026-04-11T15:46:11Z</time></trkpt><trkpt lat="45.742326598978366" lon="9.90837620171126"><ele>325.0</ele><time>2026-04-11T15:46:12Z</time></trkpt><trkpt lat="45.74250588621334" lon="9.908447666501262"><ele>325.0</ele><time>2026-04-11T15:46:13Z</time></trkpt><trkpt lat="45.74267713648854" lon="9.908501124798644"><ele>325.66666666666663</ele><time>2026-04-11T15:46:14Z</time></trkpt><trkpt lat="45.74282492534926" lon="9.908552055761024"><ele>326.3333333333333</ele><time>2026-04-11T15:46:15Z</time></trkpt><trkpt lat="45.74297731882162" lon="9.908598739494836"><ele>327.0</ele><time>2026-04-11T15:46:16Z</time></trkpt><trkpt lat="45.7431203324982" lon="9.908666827449636"><ele>327.0</ele><time>2026-04-11T15:46:17Z</time></trkpt><trkpt lat="45.74326843112626" lon="9.908708231427367"><ele>327.0</ele><time>2026-04-11T15:46:18Z</time></trkpt><trkpt lat="45.74341931380482" lon="9.908751536266065"><ele>327.0</ele><time>2026-04-11T15:46:19Z</time></trkpt><trkpt lat="45.743548303914636" lon="9.908828399025845"><ele>327.0</ele><time>2026-04-11T15:46:20Z</time></trkpt><trkpt lat="45.74368707596473" lon="9.908861145274887"><ele>327.0</ele><time>2026-04-11T15:46:21Z</time></trkpt><trkpt lat="45.743819121627915" lon="9.908913842173193"><ele>327.0</ele><time>2026-04-11T15:46:22Z</time></trkpt><trkpt lat="45.743954364926736" lon="9.908967486397104"><ele>327.0</ele><time>2026-04-11T15:46:23Z</time></trkpt><trkpt lat="45.74409366958395" lon="9.909021302748746"><ele>327.0</ele><time>2026-04-11T15:46:24Z</time></trkpt><trkpt lat="45.74424800258899" lon="9.909079467386382"><ele>328.0</ele><time>2026-04-11T15:46:25Z</time></trkpt><trkpt lat="45.74440311938291" lon="9.90911985789186"><ele>329.0</ele><time>2026-04-11T15:46:26Z</time></trkpt><trkpt lat="45.74456635237597" lon="9.909141090261283"><ele>330.0</ele><time>2026-04-11T15:46:27Z</time></trkpt><trkpt lat="45.74472727305589" lon="9.909155483866817"><ele>330.0</ele><time>2026-04-11T15:46:28Z</time></trkpt><trkpt lat="45.744884746800395" lon="9.909161998292321"><ele>330.0</ele><time>2026-04-11T15:46:29Z</time></trkpt><trkpt lat="45.74504974406874" lon="9.909159008629318"><ele>330.0</ele><time>2026-04-11T15:46:30Z</time></trkpt><trkpt lat="45.745212831604" lon="9.90913534011656"><ele>330.3333333333333</ele><time>2026-04-11T15:46:31Z</time></trkpt><trkpt lat="45.74536679597292" lon="9.909096100510709"><ele>330.66666666666663</ele><time>2026-04-11T15:46:32Z</time></trkpt><trkpt lat="45.745514728668105" lon="9.909049669110026"><ele>331.0</ele><time>2026-04-11T15:46:33Z</time></trkpt><trkpt lat="45.745651761646926" lon="9.908990530030264"><ele>331.0</ele><time>2026-04-11T15:46:34Z</time></trkpt><trkpt lat="45.7457889015414" lon="9.908932287872368"><ele>331.0</ele><time>2026-04-11T15:46:35Z</time></trkpt><trkpt lat="45.74592028628124" lon="9.908860102949392"><ele>331.0</ele><time>2026-04-11T15:46:36Z</time></trkpt><trkpt lat="45.746022656382465" lon="9.908811632221292"><ele>331.0</ele><time>2026-04-11T15:46:37Z</time></trkpt><trkpt lat="45.74615526935233" lon="9.908757769987208"><ele>331.0</ele><time>2026-04-11T15:46:38Z</time></trkpt><trkpt lat="45.74628520608244" lon="9.908701360186924"><ele>331.0</ele><time>2026-04-11T15:46:39Z</time></trkpt><trkpt lat="45.74639134680497" lon="9.908641536325014"><ele>331.0</ele><time>2026-04-11T15:46:40Z</time></trkpt><trkpt lat="45.746514725234924" lon="9.908589246546232"><ele>331.0</ele><time>2026-04-11T15:46:41Z</time></trkpt><trkpt lat="45.74663914308714" lon="9.908535917716124"><ele>331.0</ele><time>2026-04-11T15:46:42Z</time></trkpt><trkpt lat="45.746764970661694" lon="9.908464404295302"><ele>331.0</ele><time>2026-04-11T15:46:43Z</time></trkpt><trkpt lat="45.746892310746496" lon="9.90839420303509"><ele>331.0</ele><time>2026-04-11T15:46:44Z</time></trkpt><trkpt lat="45.747029561700664" lon="9.908337956584994"><ele>331.0</ele><time>2026-04-11T15:46:45Z</time></trkpt><trkpt lat="45.7471708199126" lon="9.90828863297632"><ele>331.5</ele><time>2026-04-11T15:46:46Z</time></trkpt><trkpt lat="45.7473056589948" lon="9.908250666147296"><ele>332.0</ele><time>2026-04-11T15:46:47Z</time></trkpt><trkpt lat="45.74742776915252" lon="9.908233416100629"><ele>332.5</ele><time>2026-04-11T15:46:48Z</time></trkpt><trkpt lat="45.74754974387881" lon="9.908233767288772"><ele>333.0</ele><time>2026-04-11T15:46:49Z</time></trkpt><trkpt lat="45.74766027260773" lon="9.90823022296689"><ele>333.4</ele><time>2026-04-11T15:46:50Z</time></trkpt><trkpt lat="45.74777084516121" lon="9.90823594282196"><ele>333.79999999999995</ele><time>2026-04-11T15:46:51Z</time></trkpt><trkpt lat="45.74787329510381" lon="9.908244649331905"><ele>334.2</ele><time>2026-04-11T15:46:52Z</time></trkpt><trkpt lat="45.747980488448476" lon="9.9082488366046"><ele>334.6</ele><time>2026-04-11T15:46:53Z</time></trkpt><trkpt lat="45.74808268456192" lon="9.908246562057501"><ele>335.0</ele><time>2026-04-11T15:46:54Z</time></trkpt><trkpt lat="45.748178544219805" lon="9.908251896059552"><ele>335.0</ele><time>2026-04-11T15:46:55Z</time></trkpt><trkpt lat="45.74827606384183" lon="9.90825683472491"><ele>335.0</ele><time>2026-04-11T15:46:56Z</time></trkpt><trkpt lat="45.74837030444301" lon="9.908255616307683"><ele>335.0</ele><time>2026-04-11T15:46:57Z</time></trkpt><trkpt lat="45.748457513605096" lon="9.908250900869929"><ele>335.0</ele><time>2026-04-11T15:46:58Z</time></trkpt><trkpt lat="45.74855250617603" lon="9.9082498470329"><ele>335.0</ele><time>2026-04-11T15:46:59Z</time></trkpt><trkpt lat="45.7486472619591" lon="9.908251662039236"><ele>335.4</ele><time>2026-04-11T15:47:00Z</time></trkpt><trkpt lat="45.74873434740352" lon="9.908253267908659"><ele>335.8</ele><time>2026-04-11T15:47:01Z</time></trkpt><trkpt lat="45.74881620182963" lon="9.908264040164001"><ele>336.20000000000005</ele><time>2026-04-11T15:47:02Z</time></trkpt><trkpt lat="45.748887358652375" lon="9.90827545259036"><ele>336.6</ele><time>2026-04-11T15:47:03Z</time></trkpt><trkpt lat="45.74900195620518" lon="9.908283479310294"><ele>337.0</ele><time>2026-04-11T15:47:05Z</time></trkpt><trkpt lat="45.74910977697206" lon="9.908300214411618"><ele>337.0</ele><time>2026-04-11T15:47:07Z</time></trkpt><trkpt lat="45.74922313970841" lon="9.908309898390508"><ele>337.0</ele><time>2026-04-11T15:47:09Z</time></trkpt><trkpt lat="45.749310946967256" lon="9.908327693166717"><ele>337.0</ele><time>2026-04-11T15:47:11Z</time></trkpt><trkpt lat="45.74938630045605" lon="9.908358440171178"><ele>337.0</ele><time>2026-04-11T15:47:14Z</time></trkpt><trkpt lat="45.749463035873674" lon="9.908379084913625"><ele>337.0</ele><time>2026-04-11T15:47:16.001Z</time></trkpt><trkpt lat="45.74958031662512" lon="9.908405712700088"><ele>337.16666666666663</ele><time>2026-04-11T15:47:18.001Z</time></trkpt><trkpt lat="45.74965320078949" lon="9.908417812759298"><ele>337.3333333333333</ele><time>2026-04-11T15:47:19.001Z</time></trkpt><trkpt lat="45.74971712125807" lon="9.908435260605458"><ele>337.5</ele><time>2026-04-11T15:47:20.001Z</time></trkpt><trkpt lat="45.74982806885343" lon="9.908472084183487"><ele>337.6666666666667</ele><time>2026-04-11T15:47:22.001Z</time></trkpt><trkpt lat="45.74989016329732" lon="9.908490814144482"><ele>337.83333333333337</ele><time>2026-04-11T15:47:23.001Z</time></trkpt><trkpt lat="45.750006497623744" lon="9.908533028308936"><ele>338.0</ele><time>2026-04-11T15:47:25.001Z</time></trkpt><trkpt lat="45.75013848196165" lon="9.908583449743272"><ele>338.0</ele><time>2026-04-11T15:47:27.001Z</time></trkpt><trkpt lat="45.750211666978856" lon="9.908607811941103"><ele>338.0</ele><time>2026-04-11T15:47:28.001Z</time></trkpt><trkpt lat="45.750288102083914" lon="9.908626628792828"><ele>338.0</ele><time>2026-04-11T15:47:29.001Z</time></trkpt><trkpt lat="45.75035412651002" lon="9.908654638542155"><ele>338.0</ele><time>2026-04-11T15:47:30.001Z</time></trkpt><trkpt lat="45.750428236852876" lon="9.908683627547463"><ele>338.0</ele><time>2026-04-11T15:47:31.001Z</time></trkpt><trkpt lat="45.75049750709399" lon="9.908715001477987"><ele>338.0</ele><time>2026-04-11T15:47:32.001Z</time></trkpt><trkpt lat="45.75058045107718" lon="9.908734430047781"><ele>338.0</ele><time>2026-04-11T15:47:33.001Z</time></trkpt><trkpt lat="45.75065293108813" lon="9.908754948614098"><ele>338.0</ele><time>2026-04-11T15:47:34.001Z</time></trkpt><trkpt lat="45.750754716433356" lon="9.908794384372888"><ele>338.0</ele><time>2026-04-11T15:47:36.001Z</time></trkpt><trkpt lat="45.750821427452436" lon="9.908815392506408"><ele>338.0</ele><time>2026-04-11T15:47:39.001Z</time></trkpt><trkpt lat="45.75094514544475" lon="9.908837141638243"><ele>338.0</ele><time>2026-04-11T15:48:19Z</time></trkpt><trkpt lat="45.751045170100255" lon="9.908871701923525"><ele>337.75</ele><time>2026-04-11T15:48:20Z</time></trkpt><trkpt lat="45.751156460674814" lon="9.908912734138674"><ele>337.5</ele><time>2026-04-11T15:48:21Z</time></trkpt><trkpt lat="45.751286340585985" lon="9.90896895696687"><ele>337.25</ele><time>2026-04-11T15:48:22Z</time></trkpt><trkpt lat="45.75143202922997" lon="9.909029621981555"><ele>337.0</ele><time>2026-04-11T15:48:23Z</time></trkpt><trkpt lat="45.75158632042572" lon="9.909085537091052"><ele>337.0</ele><time>2026-04-11T15:48:24Z</time></trkpt><trkpt lat="45.75174792684437" lon="9.909157970764111"><ele>337.0</ele><time>2026-04-11T15:48:25Z</time></trkpt><trkpt lat="45.75193053792412" lon="9.909193308353172"><ele>337.0</ele><time>2026-04-11T15:48:26Z</time></trkpt><trkpt lat="45.75210440173551" lon="9.909263058042244"><ele>336.66666666666663</ele><time>2026-04-11T15:48:27Z</time></trkpt><trkpt lat="45.75228771595912" lon="9.909334230103719"><ele>336.3333333333333</ele><time>2026-04-11T15:48:28Z</time></trkpt><trkpt lat="45.752473569936086" lon="9.909419386331708"><ele>336.0</ele><time>2026-04-11T15:48:29Z</time></trkpt><trkpt lat="45.75265825336637" lon="9.90952522537"><ele>335.6666666666667</ele><time>2026-04-11T15:48:30Z</time></trkpt><trkpt lat="45.752835906868" lon="9.909652296541537"><ele>335.33333333333337</ele><time>2026-04-11T15:48:31Z</time></trkpt><trkpt lat="45.753007632897194" lon="9.90980951816608"><ele>335.0</ele><time>2026-04-11T15:48:32Z</time></trkpt><trkpt lat="45.753169601846366" lon="9.909999230022185"><ele>335.0</ele><time>2026-04-11T15:48:33Z</time></trkpt><trkpt lat="45.753334394451876" lon="9.910185124604308"><ele>335.0</ele><time>2026-04-11T15:48:34Z</time></trkpt><trkpt lat="45.753502900841234" lon="9.910375035908308"><ele>335.0</ele><time>2026-04-11T15:48:35Z</time></trkpt><trkpt lat="45.75367187752898" lon="9.910555623348547"><ele>335.0</ele><time>2026-04-11T15:48:36Z</time></trkpt><trkpt lat="45.753836901894175" lon="9.910733865236796"><ele>335.0</ele><time>2026-04-11T15:48:37Z</time></trkpt><trkpt lat="45.75399652893967" lon="9.910928433903674"><ele>335.0</ele><time>2026-04-11T15:48:38Z</time></trkpt><trkpt lat="45.75414484202247" lon="9.91108770516766"><ele>335.0</ele><time>2026-04-11T15:48:39Z</time></trkpt><trkpt lat="45.754297826691904" lon="9.911264484600043"><ele>335.0</ele><time>2026-04-11T15:48:40Z</time></trkpt><trkpt lat="45.75444327021454" lon="9.911424378466316"><ele>335.0</ele><time>2026-04-11T15:48:41Z</time></trkpt><trkpt lat="45.75459062254718" lon="9.911588868601916"><ele>335.33333333333337</ele><time>2026-04-11T15:48:42Z</time></trkpt><trkpt lat="45.754739617887836" lon="9.911732843718509"><ele>335.6666666666667</ele><time>2026-04-11T15:48:43Z</time></trkpt><trkpt lat="45.754890381107465" lon="9.911861391889197"><ele>336.0</ele><time>2026-04-11T15:48:44Z</time></trkpt><trkpt lat="45.75504384098825" lon="9.911980285312309"><ele>336.3333333333333</ele><time>2026-04-11T15:48:45Z</time></trkpt><trkpt lat="45.75520737070531" lon="9.912088945131517"><ele>336.66666666666663</ele><time>2026-04-11T15:48:46Z</time></trkpt><trkpt lat="45.755406830250436" lon="9.912191607439665"><ele>337.0</ele><time>2026-04-11T15:48:47Z</time></trkpt><trkpt lat="45.75560441598593" lon="9.912283275198462"><ele>337.0</ele><time>2026-04-11T15:48:48Z</time></trkpt><trkpt lat="45.75581683137989" lon="9.912349650520039"><ele>337.0</ele><time>2026-04-11T15:48:49Z</time></trkpt><trkpt lat="45.75601653725253" lon="9.912401627305918"><ele>337.0</ele><time>2026-04-11T15:48:50Z</time></trkpt><trkpt lat="45.756214264976336" lon="9.912474715027958"><ele>337.0</ele><time>2026-04-11T15:48:51Z</time></trkpt><trkpt lat="45.75641128032604" lon="9.912545413534332"><ele>337.0</ele><time>2026-04-11T15:48:52Z</time></trkpt><trkpt lat="45.75660173297228" lon="9.912616272893114"><ele>337.0</ele><time>2026-04-11T15:48:53Z</time></trkpt><trkpt lat="45.756782591725745" lon="9.91271014656179"><ele>336.3333333333333</ele><time>2026-04-11T15:48:54Z</time></trkpt><trkpt lat="45.756970303324614" lon="9.912833050445244"><ele>335.6666666666667</ele><time>2026-04-11T15:48:55Z</time></trkpt><trkpt lat="45.75716191750713" lon="9.912963703443815"><ele>335.0</ele><time>2026-04-11T15:48:56Z</time></trkpt><trkpt lat="45.75734740897607" lon="9.913112709575335"><ele>335.0</ele><time>2026-04-11T15:48:57Z</time></trkpt><trkpt lat="45.75752098268862" lon="9.913278164029654"><ele>335.0</ele><time>2026-04-11T15:48:58Z</time></trkpt><trkpt lat="45.757688986976106" lon="9.913437759969879"><ele>335.0</ele><time>2026-04-11T15:48:59Z</time></trkpt><trkpt lat="45.75783925062527" lon="9.913615837942988"><ele>335.33333333333337</ele><time>2026-04-11T15:49:00Z</time></trkpt><trkpt lat="45.75798304840185" lon="9.913811575090394"><ele>335.6666666666667</ele><time>2026-04-11T15:49:01Z</time></trkpt><trkpt lat="45.75812269852762" lon="9.914021409178412"><ele>336.0</ele><time>2026-04-11T15:49:02Z</time></trkpt><trkpt lat="45.7582576144288" lon="9.914249788100655"><ele>336.0</ele><time>2026-04-11T15:49:03Z</time></trkpt><trkpt lat="45.75838123168501" lon="9.914492877986765"><ele>336.0</ele><time>2026-04-11T15:49:04Z</time></trkpt><trkpt lat="45.758491493347655" lon="9.914742998462376"><ele>336.0</ele><time>2026-04-11T15:49:05Z</time></trkpt><trkpt lat="45.758593174170244" lon="9.914988748215205"><ele>336.6666666666667</ele><time>2026-04-11T15:49:06Z</time></trkpt><trkpt lat="45.75869259680361" lon="9.915253753753687"><ele>337.33333333333337</ele><time>2026-04-11T15:49:07Z</time></trkpt><trkpt lat="45.75879354336994" lon="9.915531817725165"><ele>338.0</ele><time>2026-04-11T15:49:08.001Z</time></trkpt><trkpt lat="45.758894453446125" lon="9.915787755693467"><ele>338.0</ele><time>2026-04-11T15:49:09.001Z</time></trkpt><trkpt lat="45.75898448215298" lon="9.916032989763453"><ele>338.0</ele><time>2026-04-11T15:49:10.001Z</time></trkpt><trkpt lat="45.75907207322096" lon="9.916260459875126"><ele>338.0</ele><time>2026-04-11T15:49:11.001Z</time></trkpt><trkpt lat="45.759154399123545" lon="9.916489359915724"><ele>338.0</ele><time>2026-04-11T15:49:12.001Z</time></trkpt><trkpt lat="45.75921893386764" lon="9.9167060104179"><ele>338.0</ele><time>2026-04-11T15:49:13.001Z</time></trkpt><trkpt lat="45.75930328837882" lon="9.916864390708227"><ele>338.0</ele><time>2026-04-11T15:49:14.001Z</time></trkpt><trkpt lat="45.75937601818018" lon="9.917052081483373"><ele>338.75</ele><time>2026-04-11T15:49:15.001Z</time></trkpt><trkpt lat="45.75944069171595" lon="9.9172249327811"><ele>339.5</ele><time>2026-04-11T15:49:16.001Z</time></trkpt><trkpt lat="45.7595106784711" lon="9.917397068221545"><ele>340.25</ele><time>2026-04-11T15:49:17.001Z</time></trkpt><trkpt lat="45.75959307322239" lon="9.917554570600672"><ele>341.0</ele><time>2026-04-11T15:49:18.001Z</time></trkpt><trkpt lat="45.75969642178261" lon="9.917700513470429"><ele>341.25</ele><time>2026-04-11T15:49:19.001Z</time></trkpt><trkpt lat="45.75981767865901" lon="9.917821810574456"><ele>341.5</ele><time>2026-04-11T15:49:20.001Z</time></trkpt><trkpt lat="45.75994798385763" lon="9.917911194013715"><ele>341.75</ele><time>2026-04-11T15:49:21.001Z</time></trkpt><trkpt lat="45.76008132533669" lon="9.917992077561154"><ele>342.0</ele><time>2026-04-11T15:49:22.001Z</time></trkpt><trkpt lat="45.76022818532533" lon="9.91806954986876"><ele>342.0</ele><time>2026-04-11T15:49:23.001Z</time></trkpt><trkpt lat="45.76037061399678" lon="9.91815169592543"><ele>342.0</ele><time>2026-04-11T15:49:24.001Z</time></trkpt><trkpt lat="45.7605040856597" lon="9.918232901987846"><ele>342.0</ele><time>2026-04-11T15:49:25.001Z</time></trkpt><trkpt lat="45.76062281285371" lon="9.918291069979917"><ele>342.0</ele><time>2026-04-11T15:49:26.001Z</time></trkpt><trkpt lat="45.76072810422057" lon="9.918348807018047"><ele>342.20000000000005</ele><time>2026-04-11T15:49:27.001Z</time></trkpt><trkpt lat="45.76080384235696" lon="9.918423275675279"><ele>342.4</ele><time>2026-04-11T15:49:28.001Z</time></trkpt><trkpt lat="45.760856646959255" lon="9.918517214093276"><ele>342.6</ele><time>2026-04-11T15:49:29.001Z</time></trkpt><trkpt lat="45.7609326604364" lon="9.918580680850237"><ele>342.79999999999995</ele><time>2026-04-11T15:49:30.001Z</time></trkpt><trkpt lat="45.761037419447135" lon="9.918580447395621"><ele>343.0</ele><time>2026-04-11T15:49:31.001Z</time></trkpt><trkpt lat="45.76114440900872" lon="9.918580539420997"><ele>343.0</ele><time>2026-04-11T15:49:32.001Z</time></trkpt><trkpt lat="45.76126189261959" lon="9.918646403486749"><ele>343.0</ele><time>2026-04-11T15:49:33.001Z</time></trkpt><trkpt lat="45.76137113942119" lon="9.91874805098409"><ele>343.0</ele><time>2026-04-11T15:49:34.001Z</time></trkpt><trkpt lat="45.76147695558469" lon="9.91885978428682"><ele>343.0</ele><time>2026-04-11T15:49:35.001Z</time></trkpt><trkpt lat="45.76161063457064" lon="9.918983616837837"><ele>343.0</ele><time>2026-04-11T15:49:36.001Z</time></trkpt><trkpt lat="45.76171477488288" lon="9.919114998858333"><ele>343.0</ele><time>2026-04-11T15:49:37.001Z</time></trkpt><trkpt lat="45.76180009774791" lon="9.91924503787526"><ele>343.0</ele><time>2026-04-11T15:49:38.001Z</time></trkpt><trkpt lat="45.761870551571846" lon="9.919377376696952"><ele>343.0</ele><time>2026-04-11T15:49:39.001Z</time></trkpt><trkpt lat="45.76194033347132" lon="9.919507474538165"><ele>343.5</ele><time>2026-04-11T15:49:40.001Z</time></trkpt><trkpt lat="45.76201091020088" lon="9.919641644440825"><ele>344.0</ele><time>2026-04-11T15:49:41.001Z</time></trkpt><trkpt lat="45.76207922769384" lon="9.919771660274991"><ele>344.5</ele><time>2026-04-11T15:49:42.001Z</time></trkpt><trkpt lat="45.76214845731051" lon="9.919908384010158"><ele>345.0</ele><time>2026-04-11T15:49:43.001Z</time></trkpt><trkpt lat="45.76221355143094" lon="9.920043662051032"><ele>344.6</ele><time>2026-04-11T15:49:44.001Z</time></trkpt><trkpt lat="45.76227079540933" lon="9.920171994555366"><ele>344.2</ele><time>2026-04-11T15:49:45.001Z</time></trkpt><trkpt lat="45.76232634628674" lon="9.920282653689192"><ele>343.79999999999995</ele><time>2026-04-11T15:49:46.001Z</time></trkpt><trkpt lat="45.76237762568308" lon="9.920389417327309"><ele>343.4</ele><time>2026-04-11T15:49:47.001Z</time></trkpt><trkpt lat="45.7624297113204" lon="9.920505288485021"><ele>343.0</ele><time>2026-04-11T15:49:48.001Z</time></trkpt><trkpt lat="45.762488040741395" lon="9.92063705898593"><ele>343.0</ele><time>2026-04-11T15:49:49.001Z</time></trkpt><trkpt lat="45.76254553126152" lon="9.92076820467767"><ele>343.0</ele><time>2026-04-11T15:49:50.001Z</time></trkpt><trkpt lat="45.76260889618257" lon="9.920878447010379"><ele>343.0</ele><time>2026-04-11T15:49:51.001Z</time></trkpt><trkpt lat="45.762670470379355" lon="9.920986355527"><ele>343.0</ele><time>2026-04-11T15:49:52.001Z</time></trkpt><trkpt lat="45.76272847935926" lon="9.921069781588598"><ele>343.0</ele><time>2026-04-11T15:49:53.001Z</time></trkpt><trkpt lat="45.76278087205515" lon="9.921142215010628"><ele>342.8333333333333</ele><time>2026-04-11T15:49:54.001Z</time></trkpt><trkpt lat="45.76283811122294" lon="9.921226999465226"><ele>342.66666666666663</ele><time>2026-04-11T15:49:55.001Z</time></trkpt><trkpt lat="45.76288505157156" lon="9.921302077821522"><ele>342.5</ele><time>2026-04-11T15:49:56.001Z</time></trkpt><trkpt lat="45.76294282031327" lon="9.921386070981642"><ele>342.3333333333333</ele><time>2026-04-11T15:49:57.001Z</time></trkpt><trkpt lat="45.76300306863854" lon="9.921467641462685"><ele>342.1666666666667</ele><time>2026-04-11T15:49:58.001Z</time></trkpt><trkpt lat="45.76306241970447" lon="9.921542016815478"><ele>342.0</ele><time>2026-04-11T15:49:59.001Z</time></trkpt><trkpt lat="45.76312620258958" lon="9.92161737870376"><ele>342.0</ele><time>2026-04-11T15:50:00.001Z</time></trkpt><trkpt lat="45.76318646070763" lon="9.921700552852343"><ele>342.0</ele><time>2026-04-11T15:50:01.001Z</time></trkpt><trkpt lat="45.76324974629187" lon="9.921786707391261"><ele>342.0</ele><time>2026-04-11T15:50:02.001Z</time></trkpt><trkpt lat="45.76331499160837" lon="9.921877243760282"><ele>342.0</ele><time>2026-04-11T15:50:03.001Z</time></trkpt><trkpt lat="45.76338676151036" lon="9.921965328960946"><ele>342.0</ele><time>2026-04-11T15:50:04.001Z</time></trkpt><trkpt lat="45.763460814212614" lon="9.922056827040343"><ele>342.25</ele><time>2026-04-11T15:50:05.001Z</time></trkpt><trkpt lat="45.76354096712561" lon="9.922168692933527"><ele>342.5</ele><time>2026-04-11T15:50:06.001Z</time></trkpt><trkpt lat="45.763621089874704" lon="9.922275329854246"><ele>342.75</ele><time>2026-04-11T15:50:07.001Z</time></trkpt><trkpt lat="45.76370922602706" lon="9.92240025339824"><ele>343.0</ele><time>2026-04-11T15:50:08.001Z</time></trkpt><trkpt lat="45.76380440459857" lon="9.92252579161392"><ele>342.0</ele><time>2026-04-11T15:50:09.001Z</time></trkpt><trkpt lat="45.763901629495294" lon="9.922638207181466"><ele>341.0</ele><time>2026-04-11T15:50:10.001Z</time></trkpt><trkpt lat="45.76398805445262" lon="9.922763258086276"><ele>340.0</ele><time>2026-04-11T15:50:11.001Z</time></trkpt><trkpt lat="45.7640793339626" lon="9.922882844763095"><ele>339.0</ele><time>2026-04-11T15:50:12.001Z</time></trkpt><trkpt lat="45.7641884859774" lon="9.92299994514664"><ele>339.0</ele><time>2026-04-11T15:50:13Z</time></trkpt><trkpt lat="45.76428178251524" lon="9.923128484769775"><ele>339.0</ele><time>2026-04-11T15:50:14Z</time></trkpt><trkpt lat="45.76437698676822" lon="9.92326611513159"><ele>339.0</ele><time>2026-04-11T15:50:15Z</time></trkpt><trkpt lat="45.76447831445517" lon="9.923407530346617"><ele>339.0</ele><time>2026-04-11T15:50:16Z</time></trkpt><trkpt lat="45.76458382205484" lon="9.923542879011398"><ele>338.25</ele><time>2026-04-11T15:50:17Z</time></trkpt><trkpt lat="45.764685372872364" lon="9.923666081616604"><ele>337.5</ele><time>2026-04-11T15:50:18Z</time></trkpt><trkpt lat="45.76478091562068" lon="9.923790077763911"><ele>336.75</ele><time>2026-04-11T15:50:19Z</time></trkpt><trkpt lat="45.76486706164616" lon="9.923911337393948"><ele>336.0</ele><time>2026-04-11T15:50:20Z</time></trkpt><trkpt lat="45.764959469509236" lon="9.924036008923176"><ele>336.0</ele><time>2026-04-11T15:50:21Z</time></trkpt><trkpt lat="45.76506544106205" lon="9.924144727490956"><ele>336.0</ele><time>2026-04-11T15:50:22Z</time></trkpt><trkpt lat="45.765154006383014" lon="9.924286561461777"><ele>336.0</ele><time>2026-04-11T15:50:23Z</time></trkpt><trkpt lat="45.765251049886345" lon="9.924403120936041"><ele>336.0</ele><time>2026-04-11T15:50:24Z</time></trkpt><trkpt lat="45.76535273962896" lon="9.924532586042467"><ele>336.75</ele><time>2026-04-11T15:50:25Z</time></trkpt><trkpt lat="45.76543656684022" lon="9.92467585450552"><ele>337.5</ele><time>2026-04-11T15:50:26Z</time></trkpt><trkpt lat="45.76550455252454" lon="9.924828594443207"><ele>338.25</ele><time>2026-04-11T15:50:27Z</time></trkpt><trkpt lat="45.765556641369535" lon="9.924987087115253"><ele>339.0</ele><time>2026-04-11T15:50:28Z</time></trkpt><trkpt lat="45.765602442559796" lon="9.925146184232295"><ele>339.0</ele><time>2026-04-11T15:50:29Z</time></trkpt><trkpt lat="45.76563984965667" lon="9.925311238541143"><ele>339.0</ele><time>2026-04-11T15:50:30Z</time></trkpt><trkpt lat="45.765674410231796" lon="9.925471826758175"><ele>339.0</ele><time>2026-04-11T15:50:31Z</time></trkpt><trkpt lat="45.76570775152085" lon="9.925621085941668"><ele>339.0</ele><time>2026-04-11T15:50:32Z</time></trkpt><trkpt lat="45.765748139211645" lon="9.925768274003097"><ele>339.2</ele><time>2026-04-11T15:50:33Z</time></trkpt><trkpt lat="45.76579924488776" lon="9.92591333257492"><ele>339.4</ele><time>2026-04-11T15:50:34Z</time></trkpt><trkpt lat="45.76586455710165" lon="9.926049325068027"><ele>339.6</ele><time>2026-04-11T15:50:35Z</time></trkpt><trkpt lat="45.765936360865815" lon="9.926170538918281"><ele>339.8</ele><time>2026-04-11T15:50:36Z</time></trkpt><trkpt lat="45.76601775702714" lon="9.926275913429105"><ele>340.0</ele><time>2026-04-11T15:50:37Z</time></trkpt><trkpt lat="45.76611726089061" lon="9.926372301073888"><ele>340.0</ele><time>2026-04-11T15:50:38Z</time></trkpt><trkpt lat="45.76619851152842" lon="9.926436915327253"><ele>340.0</ele><time>2026-04-11T15:50:39Z</time></trkpt><trkpt lat="45.76631111644607" lon="9.92651319537263"><ele>340.0</ele><time>2026-04-11T15:50:40Z</time></trkpt><trkpt lat="45.7664202080837" lon="9.926592631097792"><ele>340.0</ele><time>2026-04-11T15:50:41Z</time></trkpt><trkpt lat="45.766543836154774" lon="9.926681884580875"><ele>339.5</ele><time>2026-04-11T15:50:42Z</time></trkpt><trkpt lat="45.76667570051487" lon="9.926748681675663"><ele>339.0</ele><time>2026-04-11T15:50:43Z</time></trkpt><trkpt lat="45.76681237135695" lon="9.926810930632971"><ele>338.5</ele><time>2026-04-11T15:50:44Z</time></trkpt><trkpt lat="45.76693444254561" lon="9.926851487502125"><ele>338.0</ele><time>2026-04-11T15:50:45Z</time></trkpt><trkpt lat="45.767044518599114" lon="9.926912933923063"><ele>338.0</ele><time>2026-04-11T15:50:46Z</time></trkpt><trkpt lat="45.76715760602752" lon="9.926981216601417"><ele>338.0</ele><time>2026-04-11T15:50:47Z</time></trkpt><trkpt lat="45.76726661526949" lon="9.92704551455802"><ele>338.0</ele><time>2026-04-11T15:50:48Z</time></trkpt><trkpt lat="45.76737311424871" lon="9.927097734618224"><ele>338.0</ele><time>2026-04-11T15:50:49Z</time></trkpt><trkpt lat="45.76747479129828" lon="9.927153590738966"><ele>338.0</ele><time>2026-04-11T15:50:50Z</time></trkpt><trkpt lat="45.76758499180406" lon="9.927220903481679"><ele>338.0</ele><time>2026-04-11T15:50:51Z</time></trkpt><trkpt lat="45.76769533516246" lon="9.927274305981955"><ele>338.0</ele><time>2026-04-11T15:50:52Z</time></trkpt><trkpt lat="45.767802279347386" lon="9.927334594211118"><ele>338.0</ele><time>2026-04-11T15:50:53Z</time></trkpt><trkpt lat="45.7679135153757" lon="9.927408684866165"><ele>337.0</ele><time>2026-04-11T15:50:54Z</time></trkpt><trkpt lat="45.76804281688327" lon="9.92750041120966"><ele>336.0</ele><time>2026-04-11T15:50:55Z</time></trkpt><trkpt lat="45.768175492529565" lon="9.927619773589983"><ele>335.0</ele><time>2026-04-11T15:50:56Z</time></trkpt><trkpt lat="45.768302490444945" lon="9.927757644816385"><ele>335.0</ele><time>2026-04-11T15:50:57Z</time></trkpt><trkpt lat="45.76842092989902" lon="9.92789240177059"><ele>335.0</ele><time>2026-04-11T15:50:58Z</time></trkpt><trkpt lat="45.76853602606471" lon="9.928045283091421"><ele>335.0</ele><time>2026-04-11T15:50:59Z</time></trkpt><trkpt lat="45.76863978038925" lon="9.928192104055752"><ele>335.75</ele><time>2026-04-11T15:51:00Z</time></trkpt><trkpt lat="45.768731642150186" lon="9.928348699682623"><ele>336.5</ele><time>2026-04-11T15:51:01Z</time></trkpt><trkpt lat="45.7688196469415" lon="9.928502152506473"><ele>337.25</ele><time>2026-04-11T15:51:02Z</time></trkpt><trkpt lat="45.768912604745736" lon="9.928648775789853"><ele>338.0</ele><time>2026-04-11T15:51:03Z</time></trkpt><trkpt lat="45.76900664562884" lon="9.928805824431231"><ele>338.0</ele><time>2026-04-11T15:51:04Z</time></trkpt><trkpt lat="45.76909485275259" lon="9.928960875948809"><ele>338.0</ele><time>2026-04-11T15:51:05Z</time></trkpt><trkpt lat="45.76918767272887" lon="9.929121913715555"><ele>338.0</ele><time>2026-04-11T15:51:06Z</time></trkpt><trkpt lat="45.76928487620658" lon="9.929278636867839"><ele>338.0</ele><time>2026-04-11T15:51:07Z</time></trkpt><trkpt lat="45.76938738434987" lon="9.929441705007187"><ele>338.0</ele><time>2026-04-11T15:51:08Z</time></trkpt><trkpt lat="45.7694841522739" lon="9.929601252837779"><ele>338.0</ele><time>2026-04-11T15:51:09Z</time></trkpt><trkpt lat="45.769573042536635" lon="9.929765277977987"><ele>338.0</ele><time>2026-04-11T15:51:10Z</time></trkpt><trkpt lat="45.76965393129477" lon="9.929938054820347"><ele>338.0</ele><time>2026-04-11T15:51:11Z</time></trkpt><trkpt lat="45.76971939514638" lon="9.930119914324559"><ele>338.0</ele><time>2026-04-11T15:51:12Z</time></trkpt><trkpt lat="45.769784651897766" lon="9.930295227705331"><ele>338.0</ele><time>2026-04-11T15:51:13Z</time></trkpt><trkpt lat="45.76984131327625" lon="9.930477356478939"><ele>338.0</ele><time>2026-04-11T15:51:14Z</time></trkpt><trkpt lat="45.76989992845007" lon="9.930664281909356"><ele>338.0</ele><time>2026-04-11T15:51:15Z</time></trkpt><trkpt lat="45.76995151081327" lon="9.930855945998966"><ele>338.75</ele><time>2026-04-11T15:51:16Z</time></trkpt><trkpt lat="45.770007626240634" lon="9.931057011444098"><ele>339.5</ele><time>2026-04-11T15:51:17Z</time></trkpt><trkpt lat="45.77005502089465" lon="9.93122502059869"><ele>340.25</ele><time>2026-04-11T15:51:18Z</time></trkpt><trkpt lat="45.770125676601666" lon="9.931404370595526"><ele>341.0</ele><time>2026-04-11T15:51:19Z</time></trkpt><trkpt lat="45.770198636314426" lon="9.93160261264154"><ele>339.33333333333337</ele><time>2026-04-11T15:51:20Z</time></trkpt><trkpt lat="45.770283027415815" lon="9.931777625509064"><ele>337.6666666666667</ele><time>2026-04-11T15:51:21.001Z</time></trkpt><trkpt lat="45.77037868526641" lon="9.931945351182595"><ele>336.0</ele><time>2026-04-11T15:51:22.001Z</time></trkpt><trkpt lat="45.77049478430541" lon="9.932119770316538"><ele>336.0</ele><time>2026-04-11T15:51:23.001Z</time></trkpt><trkpt lat="45.77062886355289" lon="9.932286857443529"><ele>336.0</ele><time>2026-04-11T15:51:24.001Z</time></trkpt><trkpt lat="45.77078900579837" lon="9.932452400874052"><ele>336.0</ele><time>2026-04-11T15:51:25.001Z</time></trkpt><trkpt lat="45.77095581806019" lon="9.932601498307863"><ele>336.3333333333333</ele><time>2026-04-11T15:51:26.001Z</time></trkpt><trkpt lat="45.77114348306697" lon="9.932710515502343"><ele>336.66666666666663</ele><time>2026-04-11T15:51:27.001Z</time></trkpt><trkpt lat="45.77133623227732" lon="9.932792645582065"><ele>337.0</ele><time>2026-04-11T15:51:28.001Z</time></trkpt><trkpt lat="45.7715138736371" lon="9.932881184854141"><ele>337.0</ele><time>2026-04-11T15:51:29.001Z</time></trkpt><trkpt lat="45.77168017413366" lon="9.93297920145514"><ele>337.0</ele><time>2026-04-11T15:51:30.001Z</time></trkpt><trkpt lat="45.77184310568192" lon="9.933075659301464"><ele>337.0</ele><time>2026-04-11T15:51:31.001Z</time></trkpt><trkpt lat="45.77200389569353" lon="9.933168690347047"><ele>337.0</ele><time>2026-04-11T15:51:32.001Z</time></trkpt><trkpt lat="45.77216742149734" lon="9.93324705384718"><ele>337.0</ele><time>2026-04-11T15:51:33.001Z</time></trkpt><trkpt lat="45.772322594207395" lon="9.933335189935802"><ele>337.0</ele><time>2026-04-11T15:51:34.001Z</time></trkpt><trkpt lat="45.772474075745485" lon="9.933440680929229"><ele>337.0</ele><time>2026-04-11T15:51:35.001Z</time></trkpt><trkpt lat="45.77262055081979" lon="9.933560211811258"><ele>337.0</ele><time>2026-04-11T15:51:36.001Z</time></trkpt><trkpt lat="45.77276122709766" lon="9.93369777185883"><ele>337.0</ele><time>2026-04-11T15:51:37.001Z</time></trkpt><trkpt lat="45.77289746616641" lon="9.933853057549468"><ele>337.3333333333333</ele><time>2026-04-11T15:51:38.001Z</time></trkpt><trkpt lat="45.773021085287546" lon="9.93403254794682"><ele>337.6666666666667</ele><time>2026-04-11T15:51:39.001Z</time></trkpt><trkpt lat="45.773120973681955" lon="9.934239373108596"><ele>338.0</ele><time>2026-04-11T15:51:40.001Z</time></trkpt><trkpt lat="45.77320726358417" lon="9.934450472591687"><ele>338.0</ele><time>2026-04-11T15:51:41.001Z</time></trkpt><trkpt lat="45.773286544667464" lon="9.93465500876574"><ele>338.0</ele><time>2026-04-11T15:51:42.001Z</time></trkpt><trkpt lat="45.77334913093611" lon="9.934843664994487"><ele>338.0</ele><time>2026-04-11T15:51:43.001Z</time></trkpt><trkpt lat="45.773386613102794" lon="9.935033558943557"><ele>338.0</ele><time>2026-04-11T15:51:44.001Z</time></trkpt><trkpt lat="45.773423727514974" lon="9.935216995882621"><ele>338.25</ele><time>2026-04-11T15:51:45.001Z</time></trkpt><trkpt lat="45.77346400235228" lon="9.935385328578128"><ele>338.5</ele><time>2026-04-11T15:51:46.001Z</time></trkpt><trkpt lat="45.77350208519581" lon="9.935569032159188"><ele>338.75</ele><time>2026-04-11T15:51:47.001Z</time></trkpt><trkpt lat="45.77354443155232" lon="9.935763529381683"><ele>339.0</ele><time>2026-04-11T15:51:48.001Z</time></trkpt><trkpt lat="45.77359719938416" lon="9.93596348488083"><ele>339.0</ele><time>2026-04-11T15:51:49.001Z</time></trkpt><trkpt lat="45.773671719549625" lon="9.936170316543995"><ele>339.0</ele><time>2026-04-11T15:51:50.001Z</time></trkpt><trkpt lat="45.773761623568824" lon="9.936359389083426"><ele>339.0</ele><time>2026-04-11T15:51:51.001Z</time></trkpt><trkpt lat="45.77387914430839" lon="9.936524301814293"><ele>339.0</ele><time>2026-04-11T15:51:52.001Z</time></trkpt><trkpt lat="45.77400123772475" lon="9.936672160256432"><ele>339.0</ele><time>2026-04-11T15:51:53.001Z</time></trkpt><trkpt lat="45.774153147233214" lon="9.936800519788491"><ele>339.0</ele><time>2026-04-11T15:51:54.001Z</time></trkpt><trkpt lat="45.77432657440051" lon="9.936898785997071"><ele>338.0</ele><time>2026-04-11T15:51:55.001Z</time></trkpt><trkpt lat="45.77451878792292" lon="9.936897805659292"><ele>337.0</ele><time>2026-04-11T15:51:56.001Z</time></trkpt><trkpt lat="45.77469500542905" lon="9.936915195151336"><ele>336.0</ele><time>2026-04-11T15:51:57.001Z</time></trkpt><trkpt lat="45.774876216158326" lon="9.936894408814414"><ele>336.0</ele><time>2026-04-11T15:51:58.001Z</time></trkpt><trkpt lat="45.77508338857762" lon="9.93682012259149"><ele>336.0</ele><time>2026-04-11T15:51:59.001Z</time></trkpt><trkpt lat="45.77526963201437" lon="9.936767445960243"><ele>336.0</ele><time>2026-04-11T15:52:00.001Z</time></trkpt><trkpt lat="45.775458017831795" lon="9.936727154290306"><ele>337.0</ele><time>2026-04-11T15:52:01.001Z</time></trkpt><trkpt lat="45.775636835621945" lon="9.936699115657836"><ele>338.0</ele><time>2026-04-11T15:52:02.001Z</time></trkpt><trkpt lat="45.775807423172644" lon="9.936691570278699"><ele>339.0</ele><time>2026-04-11T15:52:03.001Z</time></trkpt><trkpt lat="45.775965312756036" lon="9.936710888489785"><ele>336.6666666666667</ele><time>2026-04-11T15:52:04.001Z</time></trkpt><trkpt lat="45.77612786649224" lon="9.936746056889431"><ele>334.33333333333337</ele><time>2026-04-11T15:52:05.001Z</time></trkpt><trkpt lat="45.77628832808391" lon="9.936771912491526"><ele>332.0</ele><time>2026-04-11T15:52:06.001Z</time></trkpt><trkpt lat="45.776445802199376" lon="9.936786412474259"><ele>332.0</ele><time>2026-04-11T15:52:07.001Z</time></trkpt><trkpt lat="45.77660195979386" lon="9.936772480278982"><ele>332.0</ele><time>2026-04-11T15:52:08.001Z</time></trkpt><trkpt lat="45.77675534803719" lon="9.936747041629312"><ele>332.0</ele><time>2026-04-11T15:52:09.001Z</time></trkpt><trkpt lat="45.77689586557516" lon="9.936696193317875"><ele>333.33333333333337</ele><time>2026-04-11T15:52:10.001Z</time></trkpt><trkpt lat="45.77704670245512" lon="9.936631710227417"><ele>334.6666666666667</ele><time>2026-04-11T15:52:11.001Z</time></trkpt><trkpt lat="45.777180673017824" lon="9.936552891028812"><ele>336.0</ele><time>2026-04-11T15:52:12.001Z</time></trkpt><trkpt lat="45.77732019086986" lon="9.936475853027696"><ele>336.0</ele><time>2026-04-11T15:52:13.001Z</time></trkpt><trkpt lat="45.777451149932745" lon="9.936393269566144"><ele>336.0</ele><time>2026-04-11T15:52:14.001Z</time></trkpt><trkpt lat="45.777569165285136" lon="9.936298529383974"><ele>336.0</ele><time>2026-04-11T15:52:15.001Z</time></trkpt><trkpt lat="45.77769768200892" lon="9.936212109537282"><ele>336.0</ele><time>2026-04-11T15:52:16.001Z</time></trkpt><trkpt lat="45.77783427536903" lon="9.936120413550404"><ele>335.6666666666667</ele><time>2026-04-11T15:52:17.001Z</time></trkpt><trkpt lat="45.77798965105329" lon="9.936029194006483"><ele>335.33333333333337</ele><time>2026-04-11T15:52:18.001Z</time></trkpt><trkpt lat="45.778146605623" lon="9.935949037575076"><ele>335.0</ele><time>2026-04-11T15:52:19Z</time></trkpt><trkpt lat="45.77830969344857" lon="9.93589064747671"><ele>336.33333333333337</ele><time>2026-04-11T15:52:20Z</time></trkpt><trkpt lat="45.77846392131362" lon="9.935842883245508"><ele>337.6666666666667</ele><time>2026-04-11T15:52:21Z</time></trkpt><trkpt lat="45.778622232661476" lon="9.935796810885764"><ele>339.0</ele><time>2026-04-11T15:52:22Z</time></trkpt><trkpt lat="45.77879212181722" lon="9.935751126918134"><ele>339.0</ele><time>2026-04-11T15:52:23Z</time></trkpt><trkpt lat="45.778967533023355" lon="9.935688383573865"><ele>339.0</ele><time>2026-04-11T15:52:24Z</time></trkpt><trkpt lat="45.77912978166354" lon="9.93566026823015"><ele>339.0</ele><time>2026-04-11T15:52:25Z</time></trkpt><trkpt lat="45.77927893027909" lon="9.935602590365795"><ele>338.0</ele><time>2026-04-11T15:52:26Z</time></trkpt><trkpt lat="45.77941589621685" lon="9.935551445186741"><ele>337.0</ele><time>2026-04-11T15:52:27Z</time></trkpt><trkpt lat="45.779551402359004" lon="9.935524520325885"><ele>336.0</ele><time>2026-04-11T15:52:28Z</time></trkpt><trkpt lat="45.77968049590713" lon="9.935494109175076"><ele>335.0</ele><time>2026-04-11T15:52:29Z</time></trkpt><trkpt lat="45.77980863555772" lon="9.935461308279288"><ele>335.0</ele><time>2026-04-11T15:52:30Z</time></trkpt><trkpt lat="45.779951860819715" lon="9.935438168397946"><ele>335.0</ele><time>2026-04-11T15:52:31Z</time></trkpt><trkpt lat="45.780089645626916" lon="9.935442258018949"><ele>335.0</ele><time>2026-04-11T15:52:32Z</time></trkpt><trkpt lat="45.78024068517088" lon="9.935424311999512"><ele>335.0</ele><time>2026-04-11T15:52:33Z</time></trkpt><trkpt lat="45.78040212642566" lon="9.935454063681705"><ele>335.5</ele><time>2026-04-11T15:52:34Z</time></trkpt><trkpt lat="45.78054079074983" lon="9.935486356626082"><ele>336.0</ele><time>2026-04-11T15:52:35Z</time></trkpt><trkpt lat="45.78067399088533" lon="9.935560030019717"><ele>336.5</ele><time>2026-04-11T15:52:36Z</time></trkpt><trkpt lat="45.78080125561402" lon="9.93565729515556"><ele>337.0</ele><time>2026-04-11T15:52:37Z</time></trkpt><trkpt lat="45.78092136700612" lon="9.935773947009437"><ele>337.5</ele><time>2026-04-11T15:52:38Z</time></trkpt><trkpt lat="45.78103487631899" lon="9.935894778094168"><ele>338.0</ele><time>2026-04-11T15:52:39Z</time></trkpt><trkpt lat="45.78113299678916" lon="9.936051914982464"><ele>338.5</ele><time>2026-04-11T15:52:40Z</time></trkpt><trkpt lat="45.78124471248986" lon="9.93620653188948"><ele>339.0</ele><time>2026-04-11T15:52:41Z</time></trkpt><trkpt lat="45.78135730536056" lon="9.936367922966811"><ele>339.0</ele><time>2026-04-11T15:52:42Z</time></trkpt><trkpt lat="45.781480622710625" lon="9.93654501905064"><ele>339.0</ele><time>2026-04-11T15:52:43Z</time></trkpt><trkpt lat="45.78161553996925" lon="9.936714054802911"><ele>339.0</ele><time>2026-04-11T15:52:44Z</time></trkpt><trkpt lat="45.78174279417958" lon="9.936886008423889"><ele>339.3333333333333</ele><time>2026-04-11T15:52:45Z</time></trkpt><trkpt lat="45.781892633557014" lon="9.937009282700572"><ele>339.66666666666663</ele><time>2026-04-11T15:52:46Z</time></trkpt><trkpt lat="45.782035806812644" lon="9.93716657059876"><ele>340.0</ele><time>2026-04-11T15:52:47Z</time></trkpt><trkpt lat="45.7821766008073" lon="9.937303624481016"><ele>340.0</ele><time>2026-04-11T15:52:48Z</time></trkpt><trkpt lat="45.78231299578629" lon="9.937423650351862"><ele>340.0</ele><time>2026-04-11T15:52:49Z</time></trkpt><trkpt lat="45.78244430241604" lon="9.937522387403508"><ele>340.0</ele><time>2026-04-11T15:52:50Z</time></trkpt><trkpt lat="45.78257543523566" lon="9.93759944967106"><ele>339.75</ele><time>2026-04-11T15:52:51Z</time></trkpt><trkpt lat="45.78273462057094" lon="9.937695744572252"><ele>339.5</ele><time>2026-04-11T15:52:52Z</time></trkpt><trkpt lat="45.78283590395404" lon="9.937773517277238"><ele>339.25</ele><time>2026-04-11T15:52:53Z</time></trkpt><trkpt lat="45.782989897257444" lon="9.937830768198733"><ele>339.0</ele><time>2026-04-11T15:52:54Z</time></trkpt><trkpt lat="45.78312814049464" lon="9.937898027072533"><ele>339.0</ele><time>2026-04-11T15:52:55Z</time></trkpt><trkpt lat="45.78325775968736" lon="9.938001177350808"><ele>339.0</ele><time>2026-04-11T15:52:56Z</time></trkpt><trkpt lat="45.78338819812357" lon="9.938135430895402"><ele>339.0</ele><time>2026-04-11T15:52:57Z</time></trkpt><trkpt lat="45.78352451000364" lon="9.938286636488849"><ele>339.3333333333333</ele><time>2026-04-11T15:52:58Z</time></trkpt><trkpt lat="45.78366681960431" lon="9.938443048692394"><ele>339.66666666666663</ele><time>2026-04-11T15:52:59Z</time></trkpt><trkpt lat="45.783809199468585" lon="9.938601484579063"><ele>340.0</ele><time>2026-04-11T15:53:00Z</time></trkpt><trkpt lat="45.783952207242955" lon="9.938758389589818"><ele>340.0</ele><time>2026-04-11T15:53:01Z</time></trkpt><trkpt lat="45.784094722738054" lon="9.938917995410876"><ele>340.0</ele><time>2026-04-11T15:53:02Z</time></trkpt><trkpt lat="45.78422659159418" lon="9.939072761945724"><ele>340.0</ele><time>2026-04-11T15:53:03Z</time></trkpt><trkpt lat="45.784354449800944" lon="9.939259301979996"><ele>341.0</ele><time>2026-04-11T15:53:04Z</time></trkpt><trkpt lat="45.78446999852062" lon="9.939444597085146"><ele>342.0</ele><time>2026-04-11T15:53:05Z</time></trkpt><trkpt lat="45.78457688320079" lon="9.93963619051683"><ele>343.0</ele><time>2026-04-11T15:53:06Z</time></trkpt><trkpt lat="45.78469229470886" lon="9.939821516226775"><ele>343.0</ele><time>2026-04-11T15:53:07Z</time></trkpt><trkpt lat="45.7848084741194" lon="9.939986566400398"><ele>343.0</ele><time>2026-04-11T15:53:08Z</time></trkpt><trkpt lat="45.784918183326354" lon="9.940168204486405"><ele>343.0</ele><time>2026-04-11T15:53:09Z</time></trkpt><trkpt lat="45.78502694955113" lon="9.94032922167186"><ele>342.25</ele><time>2026-04-11T15:53:10Z</time></trkpt><trkpt lat="45.78513146391949" lon="9.940485060618878"><ele>341.5</ele><time>2026-04-11T15:53:11Z</time></trkpt><trkpt lat="45.78523359259558" lon="9.940629174581927"><ele>340.75</ele><time>2026-04-11T15:53:12.001Z</time></trkpt><trkpt lat="45.78531843955588" lon="9.940772215571485"><ele>340.0</ele><time>2026-04-11T15:53:13.001Z</time></trkpt><trkpt lat="45.78540331249526" lon="9.940908367592806"><ele>342.25</ele><time>2026-04-11T15:53:14.001Z</time></trkpt><trkpt lat="45.78545945555429" lon="9.941079012512432"><ele>344.5</ele><time>2026-04-11T15:53:15.001Z</time></trkpt><trkpt lat="45.78550355382802" lon="9.941279494853811"><ele>346.75</ele><time>2026-04-11T15:53:16.001Z</time></trkpt><trkpt lat="45.78554051950178" lon="9.94148698050841"><ele>349.0</ele><time>2026-04-11T15:53:17.001Z</time></trkpt><trkpt lat="45.78555581649767" lon="9.941705020711169"><ele>347.0</ele><time>2026-04-11T15:53:18.001Z</time></trkpt><trkpt lat="45.78553797838615" lon="9.941931114561918"><ele>345.0</ele><time>2026-04-11T15:53:19.001Z</time></trkpt><trkpt lat="45.78549535444672" lon="9.94219040643918"><ele>343.0</ele><time>2026-04-11T15:53:20.001Z</time></trkpt><trkpt lat="45.785466776150024" lon="9.942438630375072"><ele>342.66666666666663</ele><time>2026-04-11T15:53:21.001Z</time></trkpt><trkpt lat="45.785452608386564" lon="9.942677697993458"><ele>342.3333333333333</ele><time>2026-04-11T15:53:22.001Z</time></trkpt><trkpt lat="45.785449894773116" lon="9.942898853789155"><ele>342.0</ele><time>2026-04-11T15:53:23.001Z</time></trkpt><trkpt lat="45.7854682743008" lon="9.943112690203764"><ele>342.0</ele><time>2026-04-11T15:53:24.001Z</time></trkpt><trkpt lat="45.78550540314997" lon="9.943332130345512"><ele>342.0</ele><time>2026-04-11T15:53:25.001Z</time></trkpt><trkpt lat="45.78553805307925" lon="9.943546537981847"><ele>342.0</ele><time>2026-04-11T15:53:26.001Z</time></trkpt><trkpt lat="45.785577420316706" lon="9.943757375669326"><ele>341.25</ele><time>2026-04-11T15:53:27.001Z</time></trkpt><trkpt lat="45.78561787694719" lon="9.943953273031179"><ele>340.5</ele><time>2026-04-11T15:53:28.001Z</time></trkpt><trkpt lat="45.78565769276275" lon="9.944133997877751"><ele>339.75</ele><time>2026-04-11T15:53:29.001Z</time></trkpt><trkpt lat="45.785706341032544" lon="9.944281123703183"><ele>339.0</ele><time>2026-04-11T15:53:30.001Z</time></trkpt><trkpt lat="45.78577548483445" lon="9.944445845872279"><ele>339.0</ele><time>2026-04-11T15:53:31.001Z</time></trkpt><trkpt lat="45.785867208246096" lon="9.944604540259459"><ele>339.0</ele><time>2026-04-11T15:53:32.001Z</time></trkpt><trkpt lat="45.78596775114138" lon="9.944775579208114"><ele>339.0</ele><time>2026-04-11T15:53:33.001Z</time></trkpt><trkpt lat="45.786085993572584" lon="9.944962006450904"><ele>338.0</ele><time>2026-04-11T15:53:34.001Z</time></trkpt><trkpt lat="45.78621673682601" lon="9.945156106741578"><ele>337.0</ele><time>2026-04-11T15:53:35.001Z</time></trkpt><trkpt lat="45.786354555893396" lon="9.945338262938177"><ele>336.0</ele><time>2026-04-11T15:53:36.001Z</time></trkpt><trkpt lat="45.78648917936147" lon="9.945503873329047"><ele>336.0</ele><time>2026-04-11T15:53:37.001Z</time></trkpt><trkpt lat="45.78661558189416" lon="9.945661721848342"><ele>336.0</ele><time>2026-04-11T15:53:38.001Z</time></trkpt><trkpt lat="45.78673828687745" lon="9.945809584442873"><ele>336.0</ele><time>2026-04-11T15:53:39.001Z</time></trkpt><trkpt lat="45.78686074738815" lon="9.945936825471128"><ele>336.0</ele><time>2026-04-11T15:53:40.001Z</time></trkpt><trkpt lat="45.78698805350541" lon="9.946054248834232"><ele>336.0</ele><time>2026-04-11T15:53:41.001Z</time></trkpt><trkpt lat="45.78711090025268" lon="9.946167676330333"><ele>336.0</ele><time>2026-04-11T15:53:42.001Z</time></trkpt><trkpt lat="45.78722740414434" lon="9.94628978043981"><ele>336.0</ele><time>2026-04-11T15:53:43.001Z</time></trkpt><trkpt lat="45.787338849887185" lon="9.946409143619407"><ele>336.0</ele><time>2026-04-11T15:53:44.001Z</time></trkpt><trkpt lat="45.787443398623644" lon="9.946515127080652"><ele>336.0</ele><time>2026-04-11T15:53:45.001Z</time></trkpt><trkpt lat="45.78754339001436" lon="9.946613791806376"><ele>336.0</ele><time>2026-04-11T15:53:46.001Z</time></trkpt><trkpt lat="45.787642538039975" lon="9.946714043418416"><ele>336.0</ele><time>2026-04-11T15:53:47.001Z</time></trkpt><trkpt lat="45.787739083531065" lon="9.946818682075014"><ele>335.75</ele><time>2026-04-11T15:53:48.001Z</time></trkpt><trkpt lat="45.78783542260666" lon="9.946931769011615"><ele>335.5</ele><time>2026-04-11T15:53:49.001Z</time></trkpt><trkpt lat="45.78794419852189" lon="9.94705222946674"><ele>335.25</ele><time>2026-04-11T15:53:50.001Z</time></trkpt><trkpt lat="45.78805308821185" lon="9.947133798015104"><ele>335.0</ele><time>2026-04-11T15:53:51.001Z</time></trkpt><trkpt lat="45.788171202161564" lon="9.947213907736135"><ele>335.0</ele><time>2026-04-11T15:53:52.001Z</time></trkpt><trkpt lat="45.78829606756352" lon="9.947279765520845"><ele>335.0</ele><time>2026-04-11T15:53:53.001Z</time></trkpt><trkpt lat="45.78841782576553" lon="9.947329078148622"><ele>335.0</ele><time>2026-04-11T15:53:54.001Z</time></trkpt><trkpt lat="45.788542833336784" lon="9.947375897510602"><ele>335.0</ele><time>2026-04-11T15:53:55.001Z</time></trkpt><trkpt lat="45.78867077909882" lon="9.94741464887652"><ele>335.25</ele><time>2026-04-11T15:53:56.001Z</time></trkpt><trkpt lat="45.78879402151022" lon="9.947446246489939"><ele>335.5</ele><time>2026-04-11T15:53:57.001Z</time></trkpt><trkpt lat="45.78891286146577" lon="9.94750062906902"><ele>335.75</ele><time>2026-04-11T15:53:58.001Z</time></trkpt><trkpt lat="45.78902989301501" lon="9.947590535484087"><ele>336.0</ele><time>2026-04-11T15:53:59.001Z</time></trkpt><trkpt lat="45.78913904702631" lon="9.947701285352686"><ele>336.0</ele><time>2026-04-11T15:54:00.001Z</time></trkpt><trkpt lat="45.78924107451087" lon="9.947839394649266"><ele>336.0</ele><time>2026-04-11T15:54:01.001Z</time></trkpt><trkpt lat="45.78932554263608" lon="9.948007462148295"><ele>336.0</ele><time>2026-04-11T15:54:02.001Z</time></trkpt><trkpt lat="45.789392206687" lon="9.948202228784325"><ele>336.0</ele><time>2026-04-11T15:54:03.001Z</time></trkpt><trkpt lat="45.78947186945318" lon="9.948385284861416"><ele>338.0</ele><time>2026-04-11T15:54:04.001Z</time></trkpt><trkpt lat="45.789532849262955" lon="9.94858388869376"><ele>340.0</ele><time>2026-04-11T15:54:05.001Z</time></trkpt><trkpt lat="45.78959466674515" lon="9.948773566644999"><ele>342.0</ele><time>2026-04-11T15:54:06.001Z</time></trkpt><trkpt lat="45.78965917801323" lon="9.94895870222814"><ele>344.0</ele><time>2026-04-11T15:54:07.001Z</time></trkpt><trkpt lat="45.78972523284685" lon="9.94914280885363"><ele>342.5</ele><time>2026-04-11T15:54:08.001Z</time></trkpt><trkpt lat="45.789792837401826" lon="9.94933285925019"><ele>341.0</ele><time>2026-04-11T15:54:09.001Z</time></trkpt><trkpt lat="45.78985441332995" lon="9.949526905356457"><ele>339.5</ele><time>2026-04-11T15:54:10.001Z</time></trkpt><trkpt lat="45.789913714171895" lon="9.94972109262453"><ele>338.0</ele><time>2026-04-11T15:54:11.001Z</time></trkpt><trkpt lat="45.78997814389627" lon="9.949905529657629"><ele>337.5</ele><time>2026-04-11T15:54:12.001Z</time></trkpt><trkpt lat="45.79003913269276" lon="9.9500757137589"><ele>337.0</ele><time>2026-04-11T15:54:13.001Z</time></trkpt><trkpt lat="45.79010132481468" lon="9.95024240021284"><ele>336.5</ele><time>2026-04-11T15:54:14.001Z</time></trkpt><trkpt lat="45.79017015129452" lon="9.950417448738333"><ele>336.0</ele><time>2026-04-11T15:54:15.001Z</time></trkpt><trkpt lat="45.79024169188482" lon="9.950595533348235"><ele>336.5</ele><time>2026-04-11T15:54:16.001Z</time></trkpt><trkpt lat="45.790326100503876" lon="9.950750154744728"><ele>337.0</ele><time>2026-04-11T15:54:17.001Z</time></trkpt><trkpt lat="45.79041981560956" lon="9.950920217898162"><ele>337.5</ele><time>2026-04-11T15:54:18.001Z</time></trkpt><trkpt lat="45.790506731986476" lon="9.951071392647249"><ele>338.0</ele><time>2026-04-11T15:54:19.001Z</time></trkpt><trkpt lat="45.790594993135905" lon="9.951225308150741"><ele>338.0</ele><time>2026-04-11T15:54:20.001Z</time></trkpt><trkpt lat="45.79068286005283" lon="9.951373372517631"><ele>338.0</ele><time>2026-04-11T15:54:21.001Z</time></trkpt><trkpt lat="45.790766031029264" lon="9.951515390095274"><ele>338.0</ele><time>2026-04-11T15:54:22.001Z</time></trkpt><trkpt lat="45.790852180699446" lon="9.951661451071619"><ele>338.0</ele><time>2026-04-11T15:54:23.001Z</time></trkpt><trkpt lat="45.79094126718825" lon="9.951813135290646"><ele>341.0</ele><time>2026-04-11T15:54:24.001Z</time></trkpt><trkpt lat="45.79102367202351" lon="9.95197212818375"><ele>344.0</ele><time>2026-04-11T15:54:25Z</time></trkpt><trkpt lat="45.79108860519964" lon="9.95214400422487"><ele>347.0</ele><time>2026-04-11T15:54:26Z</time></trkpt><trkpt lat="45.79113812017709" lon="9.952317507751586"><ele>350.0</ele><time>2026-04-11T15:54:27Z</time></trkpt><trkpt lat="45.79115966177251" lon="9.952483939008046"><ele>349.6</ele><time>2026-04-11T15:54:28Z</time></trkpt><trkpt lat="45.791168847292894" lon="9.952639035387708"><ele>349.2</ele><time>2026-04-11T15:54:29Z</time></trkpt><trkpt lat="45.79117169864362" lon="9.95279431011101"><ele>348.79999999999995</ele><time>2026-04-11T15:54:30Z</time></trkpt><trkpt lat="45.791174328140485" lon="9.95292672223951"><ele>348.4</ele><time>2026-04-11T15:54:31Z</time></trkpt><trkpt lat="45.79117056241792" lon="9.953059078596151"><ele>348.0</ele><time>2026-04-11T15:54:32Z</time></trkpt><trkpt lat="45.791172902953214" lon="9.95319475984062"><ele>348.0</ele><time>2026-04-11T15:54:33Z</time></trkpt><trkpt lat="45.791179966984544" lon="9.953335109568961"><ele>348.0</ele><time>2026-04-11T15:54:34Z</time></trkpt><trkpt lat="45.791180616848756" lon="9.953486373292373"><ele>348.0</ele><time>2026-04-11T15:54:35Z</time></trkpt><trkpt lat="45.79118995478013" lon="9.953638452407827"><ele>348.0</ele><time>2026-04-11T15:54:36Z</time></trkpt><trkpt lat="45.79119410882334" lon="9.95381311406684"><ele>348.0</ele><time>2026-04-11T15:54:37Z</time></trkpt><trkpt lat="45.79119036242972" lon="9.953984995800266"><ele>347.25</ele><time>2026-04-11T15:54:38Z</time></trkpt><trkpt lat="45.791196601287446" lon="9.954160871982204"><ele>346.5</ele><time>2026-04-11T15:54:39Z</time></trkpt><trkpt lat="45.79121012686017" lon="9.954334404158802"><ele>345.75</ele><time>2026-04-11T15:54:40Z</time></trkpt><trkpt lat="45.791229313589696" lon="9.95448052750219"><ele>345.0</ele><time>2026-04-11T15:54:41Z</time></trkpt><trkpt lat="45.791263111999314" lon="9.954636468991849"><ele>344.2</ele><time>2026-04-11T15:54:42Z</time></trkpt><trkpt lat="45.7913026387587" lon="9.954785146694066"><ele>343.4</ele><time>2026-04-11T15:54:43Z</time></trkpt><trkpt lat="45.791350915639335" lon="9.954932624465355"><ele>342.6</ele><time>2026-04-11T15:54:44Z</time></trkpt><trkpt lat="45.79140393397286" lon="9.955080741839199"><ele>341.8</ele><time>2026-04-11T15:54:45Z</time></trkpt><trkpt lat="45.79145834391698" lon="9.955204287680944"><ele>341.0</ele><time>2026-04-11T15:54:46Z</time></trkpt><trkpt lat="45.79150891164083" lon="9.955326450110228"><ele>340.4</ele><time>2026-04-11T15:54:47Z</time></trkpt><trkpt lat="45.79157635220142" lon="9.95546202307081"><ele>339.8</ele><time>2026-04-11T15:54:48Z</time></trkpt><trkpt lat="45.79162228488065" lon="9.955572275077117"><ele>339.2</ele><time>2026-04-11T15:54:49Z</time></trkpt><trkpt lat="45.79168053356755" lon="9.955700132670936"><ele>338.59999999999997</ele><time>2026-04-11T15:54:50Z</time></trkpt><trkpt lat="45.79174033304463" lon="9.955843188138951"><ele>338.0</ele><time>2026-04-11T15:54:51Z</time></trkpt><trkpt lat="45.791813220054536" lon="9.956001212633193"><ele>341.33333333333337</ele><time>2026-04-11T15:54:52Z</time></trkpt><trkpt lat="45.79188444547622" lon="9.9561658541651"><ele>344.6666666666667</ele><time>2026-04-11T15:54:53Z</time></trkpt><trkpt lat="45.791966198590686" lon="9.956357091309464"><ele>348.0</ele><time>2026-04-11T15:54:54Z</time></trkpt><trkpt lat="45.79202073304153" lon="9.956581779421183"><ele>347.6666666666667</ele><time>2026-04-11T15:54:55Z</time></trkpt><trkpt lat="45.79206243210079" lon="9.956791779315045"><ele>347.33333333333337</ele><time>2026-04-11T15:54:56Z</time></trkpt><trkpt lat="45.79209765516599" lon="9.957010890319152"><ele>347.0</ele><time>2026-04-11T15:54:57Z</time></trkpt><trkpt lat="45.79211221829982" lon="9.957237119137467"><ele>347.0</ele><time>2026-04-11T15:54:58Z</time></trkpt><trkpt lat="45.792114219314236" lon="9.957465207745082"><ele>347.0</ele><time>2026-04-11T15:54:59Z</time></trkpt><trkpt lat="45.79209679567119" lon="9.95768861441137"><ele>347.0</ele><time>2026-04-11T15:55:00Z</time></trkpt><trkpt lat="45.79207459896382" lon="9.957904478326874"><ele>347.25</ele><time>2026-04-11T15:55:01Z</time></trkpt><trkpt lat="45.792053893231184" lon="9.958117815586867"><ele>347.5</ele><time>2026-04-11T15:55:02Z</time></trkpt><trkpt lat="45.79204086232755" lon="9.95833252326815"><ele>347.75</ele><time>2026-04-11T15:55:03Z</time></trkpt><trkpt lat="45.79201949401569" lon="9.95853417730471"><ele>348.0</ele><time>2026-04-11T15:55:04Z</time></trkpt><trkpt lat="45.79201491997896" lon="9.958734208714985"><ele>348.0</ele><time>2026-04-11T15:55:05Z</time></trkpt><trkpt lat="45.79198675461111" lon="9.958932853849292"><ele>348.0</ele><time>2026-04-11T15:55:06Z</time></trkpt><trkpt lat="45.79193259646813" lon="9.95915220825019"><ele>348.0</ele><time>2026-04-11T15:55:07Z</time></trkpt><trkpt lat="45.791881638815305" lon="9.959372914702628"><ele>345.0</ele><time>2026-04-11T15:55:08Z</time></trkpt><trkpt lat="45.79182961577757" lon="9.959572905001659"><ele>342.0</ele><time>2026-04-11T15:55:09Z</time></trkpt><trkpt lat="45.791758109054754" lon="9.959791685150837"><ele>339.0</ele><time>2026-04-11T15:55:10Z</time></trkpt><trkpt lat="45.791682853554946" lon="9.959982448577383"><ele>341.25</ele><time>2026-04-11T15:55:11Z</time></trkpt><trkpt lat="45.79159570876185" lon="9.96017083394238"><ele>343.5</ele><time>2026-04-11T15:55:12Z</time></trkpt><trkpt lat="45.791506104356955" lon="9.960339116438043"><ele>345.75</ele><time>2026-04-11T15:55:13Z</time></trkpt><trkpt lat="45.79142613384954" lon="9.96048953304496"><ele>348.0</ele><time>2026-04-11T15:55:14Z</time></trkpt><trkpt lat="45.79134679260688" lon="9.960633341705051"><ele>348.0</ele><time>2026-04-11T15:55:15.001Z</time></trkpt><trkpt lat="45.79127271073432" lon="9.96077405450117"><ele>348.0</ele><time>2026-04-11T15:55:16.001Z</time></trkpt><trkpt lat="45.791205834516404" lon="9.960908406333742"><ele>348.0</ele><time>2026-04-11T15:55:17.001Z</time></trkpt><trkpt lat="45.79113641977487" lon="9.961041945177831"><ele>348.0</ele><time>2026-04-11T15:55:18.001Z</time></trkpt><trkpt lat="45.79105691894456" lon="9.96119269408022"><ele>345.6666666666667</ele><time>2026-04-11T15:55:19.001Z</time></trkpt><trkpt lat="45.79096842313883" lon="9.961370510399666"><ele>343.33333333333337</ele><time>2026-04-11T15:55:20.001Z</time></trkpt><trkpt lat="45.790879751892184" lon="9.961559215482339"><ele>341.0</ele><time>2026-04-11T15:55:21.001Z</time></trkpt><trkpt lat="45.79078355035168" lon="9.961772545448508"><ele>341.0</ele><time>2026-04-11T15:55:22.001Z</time></trkpt><trkpt lat="45.790689868846506" lon="9.961983547157473"><ele>341.0</ele><time>2026-04-11T15:55:23.001Z</time></trkpt><trkpt lat="45.79063167626303" lon="9.962219028272935"><ele>341.0</ele><time>2026-04-11T15:55:24.001Z</time></trkpt><trkpt lat="45.790599782230466" lon="9.962453423563314"><ele>342.33333333333337</ele><time>2026-04-11T15:55:25.001Z</time></trkpt><trkpt lat="45.790570717998285" lon="9.96269838530355"><ele>343.6666666666667</ele><time>2026-04-11T15:55:26.001Z</time></trkpt><trkpt lat="45.79055188355229" lon="9.962960062131652"><ele>345.0</ele><time>2026-04-11T15:55:27.001Z</time></trkpt><trkpt lat="45.79054107700173" lon="9.963213754208741"><ele>345.0</ele><time>2026-04-11T15:55:28.001Z</time></trkpt><trkpt lat="45.79052967456144" lon="9.963460564993989"><ele>345.0</ele><time>2026-04-11T15:55:29.001Z</time></trkpt><trkpt lat="45.79052936588811" lon="9.963710305439765"><ele>345.0</ele><time>2026-04-11T15:55:30.001Z</time></trkpt><trkpt lat="45.79051534549532" lon="9.96395808777165"><ele>345.0</ele><time>2026-04-11T15:55:31.001Z</time></trkpt><trkpt lat="45.79051366107544" lon="9.964166422463993"><ele>345.0</ele><time>2026-04-11T15:55:32.001Z</time></trkpt><trkpt lat="45.790505413272825" lon="9.964368312072908"><ele>345.0</ele><time>2026-04-11T15:55:33.001Z</time></trkpt><trkpt lat="45.79050963655624" lon="9.964566647480245"><ele>345.0</ele><time>2026-04-11T15:55:34.001Z</time></trkpt><trkpt lat="45.79051515139381" lon="9.964768127868792"><ele>344.0</ele><time>2026-04-11T15:55:35.001Z</time></trkpt><trkpt lat="45.79050744125508" lon="9.964974029464628"><ele>343.0</ele><time>2026-04-11T15:55:36.001Z</time></trkpt><trkpt lat="45.79050881705451" lon="9.965198045398493"><ele>342.0</ele><time>2026-04-11T15:55:37.001Z</time></trkpt><trkpt lat="45.79051151482656" lon="9.965428533980175"><ele>342.0</ele><time>2026-04-11T15:55:38.001Z</time></trkpt><trkpt lat="45.79050405629263" lon="9.965650882332445"><ele>342.0</ele><time>2026-04-11T15:55:39.001Z</time></trkpt><trkpt lat="45.79050078964016" lon="9.965875799014398"><ele>342.0</ele><time>2026-04-11T15:55:40.001Z</time></trkpt><trkpt lat="45.79049875236419" lon="9.966093216131558"><ele>342.5</ele><time>2026-04-11T15:55:41.001Z</time></trkpt><trkpt lat="45.790493003822284" lon="9.966288712188351"><ele>343.0</ele><time>2026-04-11T15:55:42.001Z</time></trkpt><trkpt lat="45.79048917780751" lon="9.96647666967236"><ele>343.5</ele><time>2026-04-11T15:55:43.001Z</time></trkpt><trkpt lat="45.79049102631331" lon="9.966697215274314"><ele>344.0</ele><time>2026-04-11T15:55:44.001Z</time></trkpt><trkpt lat="45.79048545022245" lon="9.96693441561906"><ele>344.33333333333337</ele><time>2026-04-11T15:55:45.001Z</time></trkpt><trkpt lat="45.79049072179636" lon="9.967169064454966"><ele>344.6666666666667</ele><time>2026-04-11T15:55:46.001Z</time></trkpt><trkpt lat="45.79048785151001" lon="9.967411538861969"><ele>345.0</ele><time>2026-04-11T15:55:47.001Z</time></trkpt><trkpt lat="45.79048965673158" lon="9.96767607577341"><ele>345.3333333333333</ele><time>2026-04-11T15:55:48.001Z</time></trkpt><trkpt lat="45.79048434800977" lon="9.967930727956496"><ele>345.66666666666663</ele><time>2026-04-11T15:55:49.001Z</time></trkpt><trkpt lat="45.79049017205145" lon="9.968212043234235"><ele>346.0</ele><time>2026-04-11T15:55:50.001Z</time></trkpt><trkpt lat="45.79049505053747" lon="9.968489485412665"><ele>346.0</ele><time>2026-04-11T15:55:51.001Z</time></trkpt><trkpt lat="45.79048236289231" lon="9.968752227082925"><ele>346.0</ele><time>2026-04-11T15:55:52.001Z</time></trkpt><trkpt lat="45.79047414564414" lon="9.969002751421616"><ele>346.0</ele><time>2026-04-11T15:55:53.001Z</time></trkpt><trkpt lat="45.79046899496134" lon="9.969128453762494"><ele>346.0</ele><time>2026-04-11T15:55:55.001Z</time></trkpt><trkpt lat="45.79046530285484" lon="9.969337016209508"><ele>346.0</ele><time>2026-04-11T15:55:56.001Z</time></trkpt><trkpt lat="45.79046185444682" lon="9.969561423277883"><ele>346.0</ele><time>2026-04-11T15:55:57.001Z</time></trkpt><trkpt lat="45.79045606415387" lon="9.969780920230498"><ele>346.0</ele><time>2026-04-11T15:55:58.001Z</time></trkpt><trkpt lat="45.790452897826626" lon="9.969996270782152"><ele>346.5</ele><time>2026-04-11T15:55:59.001Z</time></trkpt><trkpt lat="45.79045352099102" lon="9.970209906604994"><ele>347.0</ele><time>2026-04-11T15:56:00.001Z</time></trkpt><trkpt lat="45.7904517961776" lon="9.970399491860924"><ele>347.5</ele><time>2026-04-11T15:56:01.001Z</time></trkpt><trkpt lat="45.79044991596647" lon="9.970597947835305"><ele>348.0</ele><time>2026-04-11T15:56:02.001Z</time></trkpt><trkpt lat="45.79044560954548" lon="9.970796275240883"><ele>347.25</ele><time>2026-04-11T15:56:03.001Z</time></trkpt><trkpt lat="45.79044542920082" lon="9.971006240859627"><ele>346.5</ele><time>2026-04-11T15:56:04.001Z</time></trkpt><trkpt lat="45.7904513693179" lon="9.971221212450166"><ele>345.75</ele><time>2026-04-11T15:56:05.001Z</time></trkpt><trkpt lat="45.79045817519545" lon="9.971435669011472"><ele>345.0</ele><time>2026-04-11T15:56:06.001Z</time></trkpt><trkpt lat="45.79046571715732" lon="9.971647071727944"><ele>344.75</ele><time>2026-04-11T15:56:07.001Z</time></trkpt><trkpt lat="45.79047488190013" lon="9.971859733087431"><ele>344.5</ele><time>2026-04-11T15:56:08.001Z</time></trkpt><trkpt lat="45.790481405683295" lon="9.97206178139861"><ele>344.25</ele><time>2026-04-11T15:56:09.001Z</time></trkpt><trkpt lat="45.79048916222136" lon="9.972253120202149"><ele>344.0</ele><time>2026-04-11T15:56:10.001Z</time></trkpt><trkpt lat="45.79050143715924" lon="9.972435903490299"><ele>344.2</ele><time>2026-04-11T15:56:11.001Z</time></trkpt><trkpt lat="45.79050475543697" lon="9.972611737384842"><ele>344.4</ele><time>2026-04-11T15:56:12.001Z</time></trkpt><trkpt lat="45.79050897080563" lon="9.972773217254426"><ele>344.6</ele><time>2026-04-11T15:56:13.001Z</time></trkpt><trkpt lat="45.79050948164177" lon="9.972901482657653"><ele>344.8</ele><time>2026-04-11T15:56:14.001Z</time></trkpt><trkpt lat="45.790515257624634" lon="9.972999593565454"><ele>345.0</ele><time>2026-04-11T15:56:15.001Z</time></trkpt><trkpt lat="45.79049812014662" lon="9.973100332800614"><ele>345.0</ele><time>2026-04-11T15:56:18.001Z</time></trkpt><trkpt lat="45.79038857178264" lon="9.973081316829637"><ele>345.0</ele><time>2026-04-11T15:56:24.001Z</time></trkpt><trkpt lat="45.790441407638745" lon="9.973016040736207"><ele>345.0</ele><time>2026-04-11T15:56:27.001Z</time></trkpt><trkpt lat="45.79051906603228" lon="9.973083409080635"><ele>345.0</ele><time>2026-04-11T15:56:31Z</time></trkpt><trkpt lat="45.79053546126317" lon="9.972981622750044"><ele>345.0</ele><time>2026-04-11T15:56:45Z</time></trkpt><trkpt lat="45.79050755077071" lon="9.972838720001375"><ele>345.0</ele><time>2026-04-11T15:56:47Z</time></trkpt><trkpt lat="45.79044291967694" lon="9.972823681583241"><ele>345.0</ele><time>2026-04-11T15:56:49Z</time></trkpt><trkpt lat="45.79037802161582" lon="9.972818542826452"><ele>345.0</ele><time>2026-04-11T15:56:52Z</time></trkpt><trkpt lat="45.7903117665652" lon="9.972851054146824"><ele>345.0</ele><time>2026-04-11T15:56:54Z</time></trkpt><trkpt lat="45.790227510437" lon="9.972871075772433"><ele>345.0</ele><time>2026-04-11T15:56:56Z</time></trkpt><trkpt lat="45.79014009306988" lon="9.972865566752796"><ele>345.0</ele><time>2026-04-11T15:56:58Z</time></trkpt><trkpt lat="45.790041882940606" lon="9.972876530639509"><ele>345.0</ele><time>2026-04-11T15:57:00Z</time></trkpt><trkpt lat="45.789947931522015" lon="9.972871114533323"><ele>343.5</ele><time>2026-04-11T15:57:02Z</time></trkpt><trkpt lat="45.789869765388566" lon="9.972862930810134"><ele>342.0</ele><time>2026-04-11T15:57:04Z</time></trkpt><trkpt lat="45.78979434620343" lon="9.972843638435352"><ele>340.5</ele><time>2026-04-11T15:57:06Z</time></trkpt><trkpt lat="45.78972314415649" lon="9.972810846178625"><ele>339.0</ele><time>2026-04-11T15:57:10Z</time></trkpt><trkpt lat="45.789689437441076" lon="9.972715599485312"><ele>337.5</ele><time>2026-04-11T15:57:15Z</time></trkpt><trkpt lat="45.789714080193285" lon="9.972606767503146"><ele>336.0</ele><time>2026-04-11T15:57:21Z</time></trkpt><trkpt lat="45.78971715979941" lon="9.972746723817409"><ele>336.0</ele><time>2026-04-11T15:57:27Z</time></trkpt><trkpt lat="45.78975958319261" lon="9.972823850961076"><ele>336.0</ele><time>2026-04-11T15:57:29Z</time></trkpt><trkpt lat="45.78981675531174" lon="9.97294205386141"><ele>336.0</ele><time>2026-04-11T15:57:31Z</time></trkpt><trkpt lat="45.78992911864355" lon="9.972913248188924"><ele>336.0</ele><time>2026-04-11T15:57:33Z</time></trkpt><trkpt lat="45.79001298264825" lon="9.972911530549746"><ele>336.0</ele><time>2026-04-11T15:57:34Z</time></trkpt><trkpt lat="45.790089011534484" lon="9.972908823683312"><ele>336.0</ele><time>2026-04-11T15:57:35Z</time></trkpt><trkpt lat="45.790170385797516" lon="9.972895467403315"><ele>337.5</ele><time>2026-04-11T15:57:36Z</time></trkpt><trkpt lat="45.79024452672445" lon="9.972895297579207"><ele>339.0</ele><time>2026-04-11T15:57:37.001Z</time></trkpt><trkpt lat="45.790318664790554" lon="9.972890118843445"><ele>340.5</ele><time>2026-04-11T15:57:38.001Z</time></trkpt><trkpt lat="45.790421230280096" lon="9.972897303692637"><ele>342.0</ele><time>2026-04-11T15:57:40.001Z</time></trkpt><trkpt lat="45.79049070633155" lon="9.972879709805833"><ele>343.5</ele><time>2026-04-11T15:57:44.001Z</time></trkpt><trkpt lat="45.790546489765326" lon="9.973038306769176"><ele>345.0</ele><time>2026-04-11T15:57:58.001Z</time></trkpt><trkpt lat="45.79053595158209" lon="9.973172870844534"><ele>345.0</ele><time>2026-04-11T15:57:59.001Z</time></trkpt><trkpt lat="45.79052888856259" lon="9.973304291033436"><ele>345.0</ele><time>2026-04-11T15:58:00.001Z</time></trkpt><trkpt lat="45.790533437591115" lon="9.973453344108897"><ele>345.0</ele><time>2026-04-11T15:58:01.001Z</time></trkpt><trkpt lat="45.790534977377156" lon="9.973619164635336"><ele>345.0</ele><time>2026-04-11T15:58:02.001Z</time></trkpt><trkpt lat="45.79052767035166" lon="9.973791251546064"><ele>345.0</ele><time>2026-04-11T15:58:03.001Z</time></trkpt><trkpt lat="45.79053016244497" lon="9.973980067183424"><ele>347.25</ele><time>2026-04-11T15:58:04.001Z</time></trkpt><trkpt lat="45.79052780633888" lon="9.974174828792432"><ele>349.5</ele><time>2026-04-11T15:58:05.001Z</time></trkpt><trkpt lat="45.790521969249475" lon="9.974387334969803"><ele>351.75</ele><time>2026-04-11T15:58:06.001Z</time></trkpt><trkpt lat="45.79051578342605" lon="9.974611464902617"><ele>354.0</ele><time>2026-04-11T15:58:07.001Z</time></trkpt><trkpt lat="45.79049800367731" lon="9.97484478120162"><ele>353.0</ele><time>2026-04-11T15:58:08.001Z</time></trkpt><trkpt lat="45.79050015235928" lon="9.975081018868968"><ele>352.0</ele><time>2026-04-11T15:58:09.001Z</time></trkpt><trkpt lat="45.79050680460342" lon="9.975328690045984"><ele>351.0</ele><time>2026-04-11T15:58:10.001Z</time></trkpt><trkpt lat="45.79052179342802" lon="9.975581084332731"><ele>351.0</ele><time>2026-04-11T15:58:11.001Z</time></trkpt><trkpt lat="45.790537939224436" lon="9.975834966855523"><ele>351.0</ele><time>2026-04-11T15:58:12.001Z</time></trkpt><trkpt lat="45.79054772985442" lon="9.976073525098032"><ele>351.0</ele><time>2026-04-11T15:58:13.001Z</time></trkpt><trkpt lat="45.79056154489128" lon="9.976307320384285"><ele>350.3333333333333</ele><time>2026-04-11T15:58:14.001Z</time></trkpt><trkpt lat="45.79056482851001" lon="9.97655655028618"><ele>349.66666666666663</ele><time>2026-04-11T15:58:15.001Z</time></trkpt><trkpt lat="45.79057852179217" lon="9.976803417570608"><ele>349.0</ele><time>2026-04-11T15:58:16.001Z</time></trkpt><trkpt lat="45.790579102979414" lon="9.977069701650619"><ele>349.0</ele><time>2026-04-11T15:58:17.001Z</time></trkpt><trkpt lat="45.79058498301841" lon="9.977327917360546"><ele>349.0</ele><time>2026-04-11T15:58:18.001Z</time></trkpt><trkpt lat="45.790574680238386" lon="9.977599243238055"><ele>349.0</ele><time>2026-04-11T15:58:19.001Z</time></trkpt><trkpt lat="45.79056015408047" lon="9.977863921530162"><ele>349.3333333333333</ele><time>2026-04-11T15:58:20.001Z</time></trkpt><trkpt lat="45.79054786786045" lon="9.978132129281041"><ele>349.6666666666667</ele><time>2026-04-11T15:58:21.001Z</time></trkpt><trkpt lat="45.79054628987307" lon="9.978396625479963"><ele>350.0</ele><time>2026-04-11T15:58:22.001Z</time></trkpt><trkpt lat="45.79054363343461" lon="9.978641934198839"><ele>349.6</ele><time>2026-04-11T15:58:23.001Z</time></trkpt><trkpt lat="45.79053231910691" lon="9.978846064026605"><ele>349.2</ele><time>2026-04-11T15:58:24.001Z</time></trkpt><trkpt lat="45.790519706565206" lon="9.979020979201032"><ele>348.79999999999995</ele><time>2026-04-11T15:58:25.001Z</time></trkpt><trkpt lat="45.79051074995336" lon="9.97917524145978"><ele>348.4</ele><time>2026-04-11T15:58:26.001Z</time></trkpt><trkpt lat="45.790492168373426" lon="9.979278948845238"><ele>348.0</ele><time>2026-04-11T15:58:27.001Z</time></trkpt><trkpt lat="45.79047019086631" lon="9.979381758696917"><ele>349.0</ele><time>2026-04-11T15:58:28.001Z</time></trkpt><trkpt lat="45.79041887462944" lon="9.979450797509603"><ele>350.0</ele><time>2026-04-11T15:58:29.001Z</time></trkpt><trkpt lat="45.79031040495934" lon="9.979611719725163"><ele>351.0</ele><time>2026-04-11T15:58:31.001Z</time></trkpt><trkpt lat="45.79022943598704" lon="9.97972341740341"><ele>352.0</ele><time>2026-04-11T15:58:32.001Z</time></trkpt><trkpt lat="45.79014722449584" lon="9.979845469326118"><ele>349.5</ele><time>2026-04-11T15:58:33.001Z</time></trkpt><trkpt lat="45.79006199293626" lon="9.979981271547489"><ele>347.0</ele><time>2026-04-11T15:58:34.001Z</time></trkpt><trkpt lat="45.78997002150393" lon="9.980117344393726"><ele>344.5</ele><time>2026-04-11T15:58:35.001Z</time></trkpt><trkpt lat="45.78986188597362" lon="9.980253283741103"><ele>342.0</ele><time>2026-04-11T15:58:36.001Z</time></trkpt><trkpt lat="45.789745169177266" lon="9.980377663865994"><ele>342.0</ele><time>2026-04-11T15:58:37Z</time></trkpt><trkpt lat="45.78961837649956" lon="9.980468086344588"><ele>342.0</ele><time>2026-04-11T15:58:38Z</time></trkpt><trkpt lat="45.78949723101917" lon="9.980593290947114"><ele>342.0</ele><time>2026-04-11T15:58:39Z</time></trkpt><trkpt lat="45.789356075726545" lon="9.980679494473211"><ele>342.0</ele><time>2026-04-11T15:58:40Z</time></trkpt><trkpt lat="45.78921888131526" lon="9.980769678606483"><ele>341.25</ele><time>2026-04-11T15:58:41Z</time></trkpt><trkpt lat="45.78910062890754" lon="9.980871166302409"><ele>340.5</ele><time>2026-04-11T15:58:42Z</time></trkpt><trkpt lat="45.78899367986455" lon="9.98095790664851"><ele>339.75</ele><time>2026-04-11T15:58:43Z</time></trkpt><trkpt lat="45.788891139558125" lon="9.981025798215072"><ele>339.0</ele><time>2026-04-11T15:58:44Z</time></trkpt><trkpt lat="45.78878205049863" lon="9.981090586706484"><ele>339.0</ele><time>2026-04-11T15:58:45Z</time></trkpt><trkpt lat="45.78869514240013" lon="9.981161594459152"><ele>339.0</ele><time>2026-04-11T15:58:46Z</time></trkpt><trkpt lat="45.78861353984579" lon="9.98123302506814"><ele>339.0</ele><time>2026-04-11T15:58:47Z</time></trkpt><trkpt lat="45.78853153045249" lon="9.98129630150279"><ele>339.0</ele><time>2026-04-11T15:58:48Z</time></trkpt><trkpt lat="45.78844703160665" lon="9.981356151640066"><ele>339.0</ele><time>2026-04-11T15:58:49Z</time></trkpt><trkpt lat="45.78836514605669" lon="9.981403031438246"><ele>339.1666666666667</ele><time>2026-04-11T15:58:50Z</time></trkpt><trkpt lat="45.78827784196695" lon="9.98138730863028"><ele>339.3333333333333</ele><time>2026-04-11T15:58:51Z</time></trkpt><trkpt lat="45.78819386740475" lon="9.981381278904454"><ele>339.5</ele><time>2026-04-11T15:58:52Z</time></trkpt><trkpt lat="45.78811207206785" lon="9.981347876262118"><ele>339.66666666666663</ele><time>2026-04-11T15:58:53Z</time></trkpt><trkpt lat="45.78804065637765" lon="9.981268559084002"><ele>339.8333333333333</ele><time>2026-04-11T15:58:54Z</time></trkpt><trkpt lat="45.787978913659565" lon="9.981192537435778"><ele>340.0</ele><time>2026-04-11T15:58:55Z</time></trkpt><trkpt lat="45.787903699680996" lon="9.981110690878294"><ele>340.0</ele><time>2026-04-11T15:58:56Z</time></trkpt><trkpt lat="45.78783718041916" lon="9.981002440308849"><ele>340.0</ele><time>2026-04-11T15:58:57Z</time></trkpt><trkpt lat="45.78778614252558" lon="9.980859606795534"><ele>340.0</ele><time>2026-04-11T15:58:58Z</time></trkpt><trkpt lat="45.7877371090081" lon="9.980712189142245"><ele>340.0</ele><time>2026-04-11T15:58:59Z</time></trkpt><trkpt lat="45.78769728347807" lon="9.980565012423368"><ele>340.0</ele><time>2026-04-11T15:59:00Z</time></trkpt><trkpt lat="45.787649571184474" lon="9.980405484823546"><ele>339.75</ele><time>2026-04-11T15:59:01Z</time></trkpt><trkpt lat="45.787635364489795" lon="9.98024477410154"><ele>339.5</ele><time>2026-04-11T15:59:02Z</time></trkpt><trkpt lat="45.7875959592198" lon="9.980108089998213"><ele>339.25</ele><time>2026-04-11T15:59:03Z</time></trkpt><trkpt lat="45.78756884027651" lon="9.979939235006638"><ele>339.0</ele><time>2026-04-11T15:59:04Z</time></trkpt><trkpt lat="45.7875404441344" lon="9.979753634385377"><ele>338.75</ele><time>2026-04-11T15:59:05Z</time></trkpt><trkpt lat="45.787505364680165" lon="9.979581136997108"><ele>338.5</ele><time>2026-04-11T15:59:06Z</time></trkpt><trkpt lat="45.787457852194336" lon="9.979403380985485"><ele>338.25</ele><time>2026-04-11T15:59:07Z</time></trkpt><trkpt lat="45.787425414891494" lon="9.979202504082059"><ele>338.0</ele><time>2026-04-11T15:59:08Z</time></trkpt><trkpt lat="45.78738448456962" lon="9.979007403225895"><ele>338.0</ele><time>2026-04-11T15:59:09Z</time></trkpt><trkpt lat="45.78734558050078" lon="9.97881145909552"><ele>338.0</ele><time>2026-04-11T15:59:10Z</time></trkpt><trkpt lat="45.787308306292694" lon="9.978622431968445"><ele>338.0</ele><time>2026-04-11T15:59:11Z</time></trkpt><trkpt lat="45.78726582872069" lon="9.978427913775914"><ele>338.0</ele><time>2026-04-11T15:59:12Z</time></trkpt><trkpt lat="45.787228622674476" lon="9.978233990094768"><ele>338.0</ele><time>2026-04-11T15:59:13Z</time></trkpt><trkpt lat="45.78719456698594" lon="9.978051742945912"><ele>338.0</ele><time>2026-04-11T15:59:14Z</time></trkpt><trkpt lat="45.7871598734289" lon="9.977864944567932"><ele>338.0</ele><time>2026-04-11T15:59:15Z</time></trkpt><trkpt lat="45.78712321488286" lon="9.977682036889428"><ele>338.0</ele><time>2026-04-11T15:59:16Z</time></trkpt><trkpt lat="45.78708743905939" lon="9.977508152075451"><ele>337.75</ele><time>2026-04-11T15:59:17Z</time></trkpt><trkpt lat="45.7870401082179" lon="9.977334647302209"><ele>337.5</ele><time>2026-04-11T15:59:18Z</time></trkpt><trkpt lat="45.78698696370781" lon="9.977168916196854"><ele>337.25</ele><time>2026-04-11T15:59:19Z</time></trkpt><trkpt lat="45.78693195950161" lon="9.977018505971783"><ele>337.0</ele><time>2026-04-11T15:59:20Z</time></trkpt><trkpt lat="45.786882904351145" lon="9.976871978615673"><ele>337.0</ele><time>2026-04-11T15:59:21Z</time></trkpt><trkpt lat="45.78683545899568" lon="9.976731672550686"><ele>337.0</ele><time>2026-04-11T15:59:22Z</time></trkpt><trkpt lat="45.7867907218232" lon="9.97659165442125"><ele>337.0</ele><time>2026-04-11T15:59:23Z</time></trkpt><trkpt lat="45.786746804034024" lon="9.976452546337278"><ele>337.0</ele><time>2026-04-11T15:59:24Z</time></trkpt><trkpt lat="45.7867015358333" lon="9.976311059945637"><ele>337.0</ele><time>2026-04-11T15:59:25Z</time></trkpt><trkpt lat="45.786664418276786" lon="9.976168217462085"><ele>337.0</ele><time>2026-04-11T15:59:26Z</time></trkpt><trkpt lat="45.78662208190886" lon="9.976014444127088"><ele>337.0</ele><time>2026-04-11T15:59:27Z</time></trkpt><trkpt lat="45.78657113319437" lon="9.975839506502965"><ele>337.0</ele><time>2026-04-11T15:59:28Z</time></trkpt><trkpt lat="45.786519701465345" lon="9.975651335189136"><ele>337.0</ele><time>2026-04-11T15:59:29Z</time></trkpt><trkpt lat="45.78646461144485" lon="9.975449461009733"><ele>336.75</ele><time>2026-04-11T15:59:30Z</time></trkpt><trkpt lat="45.786409954263796" lon="9.975251697744433"><ele>336.5</ele><time>2026-04-11T15:59:31Z</time></trkpt><trkpt lat="45.786361478790354" lon="9.975056083003377"><ele>336.25</ele><time>2026-04-11T15:59:32Z</time></trkpt><trkpt lat="45.78632603061135" lon="9.974859620094133"><ele>336.0</ele><time>2026-04-11T15:59:33Z</time></trkpt><trkpt lat="45.78628316296525" lon="9.974670365455673"><ele>336.0</ele><time>2026-04-11T15:59:34Z</time></trkpt><trkpt lat="45.7862496790488" lon="9.974496249863371"><ele>336.0</ele><time>2026-04-11T15:59:35Z</time></trkpt><trkpt lat="45.78621410689439" lon="9.974355906344929"><ele>336.0</ele><time>2026-04-11T15:59:36Z</time></trkpt><trkpt lat="45.78617519107892" lon="9.974207181772984"><ele>336.0</ele><time>2026-04-11T15:59:37Z</time></trkpt><trkpt lat="45.78612709818823" lon="9.974066550856588"><ele>335.8</ele><time>2026-04-11T15:59:38Z</time></trkpt><trkpt lat="45.78608013530282" lon="9.973925753907467"><ele>335.6</ele><time>2026-04-11T15:59:39Z</time></trkpt><trkpt lat="45.786028938789784" lon="9.973788475361037"><ele>335.4</ele><time>2026-04-11T15:59:40Z</time></trkpt><trkpt lat="45.78597631830264" lon="9.973653765996259"><ele>335.2</ele><time>2026-04-11T15:59:41Z</time></trkpt><trkpt lat="45.78592542449276" lon="9.973518267882932"><ele>335.0</ele><time>2026-04-11T15:59:42Z</time></trkpt><trkpt lat="45.78587983710309" lon="9.97337517539559"><ele>335.5</ele><time>2026-04-11T15:59:43Z</time></trkpt><trkpt lat="45.78582659257194" lon="9.973233023414194"><ele>336.0</ele><time>2026-04-11T15:59:44Z</time></trkpt><trkpt lat="45.785779604470335" lon="9.973068517290628"><ele>336.5</ele><time>2026-04-11T15:59:45Z</time></trkpt><trkpt lat="45.785748081440296" lon="9.972882757635778"><ele>337.0</ele><time>2026-04-11T15:59:46Z</time></trkpt><trkpt lat="45.7857340848941" lon="9.97269121309607"><ele>337.25</ele><time>2026-04-11T15:59:47.001Z</time></trkpt><trkpt lat="45.78574268928146" lon="9.972488522443"><ele>337.5</ele><time>2026-04-11T15:59:48.001Z</time></trkpt><trkpt lat="45.78576652444627" lon="9.972280905874886"><ele>337.75</ele><time>2026-04-11T15:59:49.001Z</time></trkpt><trkpt lat="45.78578680853505" lon="9.972084563455683"><ele>338.0</ele><time>2026-04-11T15:59:50.001Z</time></trkpt><trkpt lat="45.78580955065965" lon="9.971878779525884"><ele>338.75</ele><time>2026-04-11T15:59:51.001Z</time></trkpt><trkpt lat="45.78582191926601" lon="9.971684363311724"><ele>339.5</ele><time>2026-04-11T15:59:52.001Z</time></trkpt><trkpt lat="45.78583319292685" lon="9.971502335212717"><ele>340.25</ele><time>2026-04-11T15:59:53.001Z</time></trkpt><trkpt lat="45.78583017727881" lon="9.97131744703589"><ele>341.0</ele><time>2026-04-11T15:59:54.001Z</time></trkpt><trkpt lat="45.78583905585668" lon="9.97113348976962"><ele>341.0</ele><time>2026-04-11T15:59:55.001Z</time></trkpt><trkpt lat="45.7858270760179" lon="9.970943654151935"><ele>341.0</ele><time>2026-04-11T15:59:56.001Z</time></trkpt><trkpt lat="45.78582455293442" lon="9.97073750128427"><ele>341.0</ele><time>2026-04-11T15:59:57.001Z</time></trkpt><trkpt lat="45.78583099820005" lon="9.97051266109734"><ele>341.0</ele><time>2026-04-11T15:59:58.001Z</time></trkpt><trkpt lat="45.785851818841394" lon="9.970261741939295"><ele>342.33333333333337</ele><time>2026-04-11T15:59:59.001Z</time></trkpt><trkpt lat="45.7858840426138" lon="9.96999697604336"><ele>343.6666666666667</ele><time>2026-04-11T16:00:00.001Z</time></trkpt><trkpt lat="45.78592504639254" lon="9.969722111213127"><ele>345.0</ele><time>2026-04-11T16:00:01.001Z</time></trkpt><trkpt lat="45.7859774762319" lon="9.969446367409788"><ele>341.0</ele><time>2026-04-11T16:00:02.001Z</time></trkpt><trkpt lat="45.786019191411604" lon="9.969172043915936"><ele>337.0</ele><time>2026-04-11T16:00:03.001Z</time></trkpt><trkpt lat="45.786056730203654" lon="9.968867346196893"><ele>333.0</ele><time>2026-04-11T16:00:04.001Z</time></trkpt><trkpt lat="45.786092033598685" lon="9.968586411398482"><ele>333.3333333333333</ele><time>2026-04-11T16:00:05.001Z</time></trkpt><trkpt lat="45.786127238183305" lon="9.968317404443294"><ele>333.66666666666663</ele><time>2026-04-11T16:00:06.001Z</time></trkpt><trkpt lat="45.78615859438158" lon="9.968075080947266"><ele>334.0</ele><time>2026-04-11T16:00:07.001Z</time></trkpt><trkpt lat="45.786195630161885" lon="9.96785949963905"><ele>334.0</ele><time>2026-04-11T16:00:08.001Z</time></trkpt><trkpt lat="45.78623373963124" lon="9.967662699832005"><ele>334.0</ele><time>2026-04-11T16:00:09.001Z</time></trkpt><trkpt lat="45.78628227568564" lon="9.967459712347603"><ele>334.0</ele><time>2026-04-11T16:00:10.001Z</time></trkpt><trkpt lat="45.78633872314796" lon="9.967257720680735"><ele>334.0</ele><time>2026-04-11T16:00:11.001Z</time></trkpt><trkpt lat="45.78639986715907" lon="9.967050877029457"><ele>335.0</ele><time>2026-04-11T16:00:12.001Z</time></trkpt><trkpt lat="45.78646539623144" lon="9.9668467668788"><ele>336.0</ele><time>2026-04-11T16:00:13.001Z</time></trkpt><trkpt lat="45.78655196833351" lon="9.966652769894035"><ele>337.0</ele><time>2026-04-11T16:00:14.001Z</time></trkpt><trkpt lat="45.78663904073205" lon="9.966460233408721"><ele>337.0</ele><time>2026-04-11T16:00:15.001Z</time></trkpt><trkpt lat="45.786720788497696" lon="9.96626204810898"><ele>337.0</ele><time>2026-04-11T16:00:16.001Z</time></trkpt><trkpt lat="45.786794833382764" lon="9.966057879075237"><ele>337.0</ele><time>2026-04-11T16:00:17.001Z</time></trkpt><trkpt lat="45.78686316484079" lon="9.965848291719038"><ele>336.25</ele><time>2026-04-11T16:00:18.001Z</time></trkpt><trkpt lat="45.786919141381894" lon="9.965643854914223"><ele>335.5</ele><time>2026-04-11T16:00:19.001Z</time></trkpt><trkpt lat="45.786957563547666" lon="9.965440820914683"><ele>334.75</ele><time>2026-04-11T16:00:20.001Z</time></trkpt><trkpt lat="45.78697756890611" lon="9.96522849257611"><ele>334.0</ele><time>2026-04-11T16:00:21.001Z</time></trkpt><trkpt lat="45.78696487037862" lon="9.965008433980048"><ele>334.0</ele><time>2026-04-11T16:00:22.001Z</time></trkpt><trkpt lat="45.78693684151142" lon="9.96477423468864"><ele>334.0</ele><time>2026-04-11T16:00:23.001Z</time></trkpt><trkpt lat="45.78690008005959" lon="9.964537652883802"><ele>334.0</ele><time>2026-04-11T16:00:24.001Z</time></trkpt><trkpt lat="45.786875715873116" lon="9.964313533039098"><ele>333.66666666666663</ele><time>2026-04-11T16:00:25.001Z</time></trkpt><trkpt lat="45.78685060914531" lon="9.964077713042167"><ele>333.3333333333333</ele><time>2026-04-11T16:00:26.001Z</time></trkpt><trkpt lat="45.78683891358946" lon="9.963845992031349"><ele>333.0</ele><time>2026-04-11T16:00:27.001Z</time></trkpt><trkpt lat="45.78683960730844" lon="9.963621806256636"><ele>333.0</ele><time>2026-04-11T16:00:28.001Z</time></trkpt><trkpt lat="45.786858584259036" lon="9.963406303571139"><ele>333.0</ele><time>2026-04-11T16:00:29.001Z</time></trkpt><trkpt lat="45.78688229037724" lon="9.963182685464515"><ele>333.0</ele><time>2026-04-11T16:00:30.001Z</time></trkpt><trkpt lat="45.786907009219554" lon="9.96294608796529"><ele>333.3333333333333</ele><time>2026-04-11T16:00:31.001Z</time></trkpt><trkpt lat="45.7869380655033" lon="9.96270370247814"><ele>333.66666666666663</ele><time>2026-04-11T16:00:32.001Z</time></trkpt><trkpt lat="45.786967342826685" lon="9.962446399103483"><ele>334.0</ele><time>2026-04-11T16:00:33.001Z</time></trkpt><trkpt lat="45.78698825768384" lon="9.962205341335551"><ele>334.3333333333333</ele><time>2026-04-11T16:00:34.001Z</time></trkpt><trkpt lat="45.78700356465272" lon="9.9619752876376"><ele>334.6666666666667</ele><time>2026-04-11T16:00:35.001Z</time></trkpt><trkpt lat="45.78700780249108" lon="9.961753832626163"><ele>335.0</ele><time>2026-04-11T16:00:36.001Z</time></trkpt><trkpt lat="45.787021791630416" lon="9.961536549279492"><ele>336.0</ele><time>2026-04-11T16:00:37.001Z</time></trkpt><trkpt lat="45.787027031857306" lon="9.961323341550298"><ele>337.0</ele><time>2026-04-11T16:00:38.001Z</time></trkpt><trkpt lat="45.787035946175756" lon="9.961106013318243"><ele>338.0</ele><time>2026-04-11T16:00:39.001Z</time></trkpt><trkpt lat="45.78703991470776" lon="9.960891460848934"><ele>338.5</ele><time>2026-04-11T16:00:40.001Z</time></trkpt><trkpt lat="45.78706519305298" lon="9.960684229673365"><ele>339.0</ele><time>2026-04-11T16:00:41.001Z</time></trkpt><trkpt lat="45.787093819457546" lon="9.960475664958885"><ele>339.5</ele><time>2026-04-11T16:00:42.001Z</time></trkpt><trkpt lat="45.7871210793878" lon="9.960259576426143"><ele>340.0</ele><time>2026-04-11T16:00:43Z</time></trkpt><trkpt lat="45.78713865042198" lon="9.96003763150182"><ele>340.5</ele><time>2026-04-11T16:00:44Z</time></trkpt><trkpt lat="45.787148646495936" lon="9.959825907523559"><ele>341.0</ele><time>2026-04-11T16:00:45Z</time></trkpt><trkpt lat="45.78713822199588" lon="9.959629316407852"><ele>341.5</ele><time>2026-04-11T16:00:46Z</time></trkpt><trkpt lat="45.78713476059919" lon="9.959480345512338"><ele>342.0</ele><time>2026-04-11T16:00:47Z</time></trkpt><trkpt lat="45.787119588741184" lon="9.959341769634523"><ele>342.0</ele><time>2026-04-11T16:00:48Z</time></trkpt><trkpt lat="45.787067981523855" lon="9.959225559439597"><ele>342.0</ele><time>2026-04-11T16:00:49Z</time></trkpt><trkpt lat="45.78698250712295" lon="9.959124879919173"><ele>342.0</ele><time>2026-04-11T16:00:50Z</time></trkpt><trkpt lat="45.78686933648526" lon="9.959031526478867"><ele>342.0</ele><time>2026-04-11T16:00:51Z</time></trkpt><trkpt lat="45.78675915841766" lon="9.958908892993993"><ele>343.6666666666667</ele><time>2026-04-11T16:00:52Z</time></trkpt><trkpt lat="45.7866597967866" lon="9.958770091374895"><ele>345.33333333333337</ele><time>2026-04-11T16:00:53Z</time></trkpt><trkpt lat="45.78656371615109" lon="9.958603701809423"><ele>347.0</ele><time>2026-04-11T16:00:54Z</time></trkpt><trkpt lat="45.78643824719298" lon="9.958406780158494"><ele>344.6666666666667</ele><time>2026-04-11T16:00:55Z</time></trkpt><trkpt lat="45.78632221219931" lon="9.958190999876788"><ele>342.3333333333333</ele><time>2026-04-11T16:00:56Z</time></trkpt><trkpt lat="45.78621314636867" lon="9.95799441554017"><ele>340.0</ele><time>2026-04-11T16:00:57Z</time></trkpt><trkpt lat="45.786114249574275" lon="9.957806642954644"><ele>340.0</ele><time>2026-04-11T16:00:58Z</time></trkpt><trkpt lat="45.786039113071745" lon="9.9576153525839"><ele>340.0</ele><time>2026-04-11T16:00:59Z</time></trkpt><trkpt lat="45.7860072029295" lon="9.957412367865153"><ele>340.0</ele><time>2026-04-11T16:01:00Z</time></trkpt><trkpt lat="45.78599006059074" lon="9.957169718501529"><ele>342.3333333333333</ele><time>2026-04-11T16:01:01Z</time></trkpt><trkpt lat="45.785996201236976" lon="9.956922870598076"><ele>344.6666666666667</ele><time>2026-04-11T16:01:02Z</time></trkpt><trkpt lat="45.7859885318692" lon="9.956662203849328"><ele>347.0</ele><time>2026-04-11T16:01:03Z</time></trkpt><trkpt lat="45.78596806771231" lon="9.9564168972285"><ele>348.0</ele><time>2026-04-11T16:01:04Z</time></trkpt><trkpt lat="45.78596452809828" lon="9.956147584950624"><ele>349.0</ele><time>2026-04-11T16:01:05Z</time></trkpt><trkpt lat="45.78595063511119" lon="9.955901306136116"><ele>350.0</ele><time>2026-04-11T16:01:06Z</time></trkpt><trkpt lat="45.785956738933656" lon="9.955629617731912"><ele>351.33333333333337</ele><time>2026-04-11T16:01:07Z</time></trkpt><trkpt lat="45.78600579169695" lon="9.955383683159024"><ele>352.6666666666667</ele><time>2026-04-11T16:01:08Z</time></trkpt><trkpt lat="45.78606188015741" lon="9.955103059306222"><ele>354.0</ele><time>2026-04-11T16:01:09Z</time></trkpt><trkpt lat="45.78609700565087" lon="9.954830375012365"><ele>348.75</ele><time>2026-04-11T16:01:10Z</time></trkpt><trkpt lat="45.78610073551566" lon="9.954622667715418"><ele>343.5</ele><time>2026-04-11T16:01:11Z</time></trkpt><trkpt lat="45.786095495088894" lon="9.95440981294648"><ele>338.25</ele><time>2026-04-11T16:01:12Z</time></trkpt><trkpt lat="45.786089859550444" lon="9.954220477933339"><ele>333.0</ele><time>2026-04-11T16:01:13Z</time></trkpt><trkpt lat="45.78608650772275" lon="9.954031286991349"><ele>332.75</ele><time>2026-04-11T16:01:14Z</time></trkpt><trkpt lat="45.78606402613233" lon="9.953843257408842"><ele>332.5</ele><time>2026-04-11T16:01:15Z</time></trkpt><trkpt lat="45.78603609214385" lon="9.95367333918925"><ele>332.25</ele><time>2026-04-11T16:01:16Z</time></trkpt><trkpt lat="45.78597847056985" lon="9.953514498612902"><ele>332.0</ele><time>2026-04-11T16:01:17Z</time></trkpt><trkpt lat="45.78590257151405" lon="9.953341493149464"><ele>334.6666666666667</ele><time>2026-04-11T16:01:18Z</time></trkpt><trkpt lat="45.78580601990964" lon="9.95313902360209"><ele>337.3333333333333</ele><time>2026-04-11T16:01:19Z</time></trkpt><trkpt lat="45.785699777833344" lon="9.95294175430516"><ele>340.0</ele><time>2026-04-11T16:01:20Z</time></trkpt><trkpt lat="45.78559549919181" lon="9.952718329540609"><ele>338.3333333333333</ele><time>2026-04-11T16:01:21Z</time></trkpt><trkpt lat="45.78547329760069" lon="9.952478629477275"><ele>336.6666666666667</ele><time>2026-04-11T16:01:22Z</time></trkpt><trkpt lat="45.78535689304094" lon="9.952249258019414"><ele>335.0</ele><time>2026-04-11T16:01:23Z</time></trkpt><trkpt lat="45.78525750887136" lon="9.952041143588183"><ele>338.33333333333337</ele><time>2026-04-11T16:01:24Z</time></trkpt><trkpt lat="45.78515338223603" lon="9.951858602341598"><ele>341.6666666666667</ele><time>2026-04-11T16:01:25Z</time></trkpt><trkpt lat="45.78505105301573" lon="9.951649024928603"><ele>345.0</ele><time>2026-04-11T16:01:26Z</time></trkpt><trkpt lat="45.784955996300006" lon="9.951416403464025"><ele>345.0</ele><time>2026-04-11T16:01:27Z</time></trkpt><trkpt lat="45.78489161241525" lon="9.95118454526611"><ele>345.0</ele><time>2026-04-11T16:01:28Z</time></trkpt><trkpt lat="45.78485883889765" lon="9.950918910515492"><ele>345.0</ele><time>2026-04-11T16:01:29Z</time></trkpt><trkpt lat="45.784839269016345" lon="9.950643756546686"><ele>343.5</ele><time>2026-04-11T16:01:30Z</time></trkpt><trkpt lat="45.78483007587215" lon="9.950393013423868"><ele>342.0</ele><time>2026-04-11T16:01:31Z</time></trkpt><trkpt lat="45.78481408333605" lon="9.950187739494083"><ele>340.5</ele><time>2026-04-11T16:01:32Z</time></trkpt><trkpt lat="45.784780636864156" lon="9.950009994770843"><ele>339.0</ele><time>2026-04-11T16:01:33Z</time></trkpt><trkpt lat="45.78472467088231" lon="9.949823133156814"><ele>338.5</ele><time>2026-04-11T16:01:34Z</time></trkpt><trkpt lat="45.784646833537494" lon="9.949643406090997"><ele>338.0</ele><time>2026-04-11T16:01:35Z</time></trkpt><trkpt lat="45.78457128525216" lon="9.949480940239258"><ele>337.5</ele><time>2026-04-11T16:01:36Z</time></trkpt><trkpt lat="45.784483060477626" lon="9.949334225549173"><ele>337.0</ele><time>2026-04-11T16:01:37Z</time></trkpt><trkpt lat="45.78436561487373" lon="9.949210966236786"><ele>338.5</ele><time>2026-04-11T16:01:38Z</time></trkpt><trkpt lat="45.78422221465913" lon="9.949123226305522"><ele>340.0</ele><time>2026-04-11T16:01:39Z</time></trkpt><trkpt lat="45.78407960468434" lon="9.94906795700124"><ele>341.5</ele><time>2026-04-11T16:01:40Z</time></trkpt><trkpt lat="45.78395534865638" lon="9.948982634473047"><ele>343.0</ele><time>2026-04-11T16:01:41Z</time></trkpt><trkpt lat="45.7838561059066" lon="9.94885327275419"><ele>343.0</ele><time>2026-04-11T16:01:42Z</time></trkpt><trkpt lat="45.783786847575186" lon="9.948679873588048"><ele>343.0</ele><time>2026-04-11T16:01:43Z</time></trkpt><trkpt lat="45.78374843526144" lon="9.94844717260944"><ele>343.0</ele><time>2026-04-11T16:01:44Z</time></trkpt><trkpt lat="45.78372397698223" lon="9.948222587425533"><ele>342.0</ele><time>2026-04-11T16:01:45Z</time></trkpt><trkpt lat="45.783691416762494" lon="9.948001918482003"><ele>341.0</ele><time>2026-04-11T16:01:46Z</time></trkpt><trkpt lat="45.78363314228116" lon="9.94778699725915"><ele>340.0</ele><time>2026-04-11T16:01:47Z</time></trkpt><trkpt lat="45.78355662600991" lon="9.947556462114434"><ele>343.0</ele><time>2026-04-11T16:01:48Z</time></trkpt><trkpt lat="45.7834769065274" lon="9.947308472823664"><ele>346.0</ele><time>2026-04-11T16:01:49Z</time></trkpt><trkpt lat="45.78340038551889" lon="9.947054874294096"><ele>349.0</ele><time>2026-04-11T16:01:50Z</time></trkpt><trkpt lat="45.78332872964062" lon="9.946813181172983"><ele>346.3333333333333</ele><time>2026-04-11T16:01:51Z</time></trkpt><trkpt lat="45.78326876168516" lon="9.946590752491636"><ele>343.6666666666667</ele><time>2026-04-11T16:01:52Z</time></trkpt><trkpt lat="45.78322521056002" lon="9.946387325772067"><ele>341.0</ele><time>2026-04-11T16:01:53Z</time></trkpt><trkpt lat="45.78317782485199" lon="9.946206179741925"><ele>341.0</ele><time>2026-04-11T16:01:54.001Z</time></trkpt><trkpt lat="45.78314048079998" lon="9.946047095052126"><ele>341.0</ele><time>2026-04-11T16:01:55.001Z</time></trkpt><trkpt lat="45.78308425076924" lon="9.945921267070453"><ele>341.0</ele><time>2026-04-11T16:01:56.001Z</time></trkpt><trkpt lat="45.783016035881516" lon="9.945810100225625"><ele>341.0</ele><time>2026-04-11T16:01:57.001Z</time></trkpt><trkpt lat="45.78294105419371" lon="9.945730057581164"><ele>341.0</ele><time>2026-04-11T16:01:58.001Z</time></trkpt><trkpt lat="45.7828363621956" lon="9.945599108670443"><ele>340.5</ele><time>2026-04-11T16:01:59.001Z</time></trkpt><trkpt lat="45.78268842381085" lon="9.945505021735345"><ele>340.0</ele><time>2026-04-11T16:02:00.001Z</time></trkpt><trkpt lat="45.78255486518496" lon="9.945445633667795"><ele>339.5</ele><time>2026-04-11T16:02:01.001Z</time></trkpt><trkpt lat="45.782428890183795" lon="9.945344571064462"><ele>339.0</ele><time>2026-04-11T16:02:02.001Z</time></trkpt><trkpt lat="45.782310771675476" lon="9.945207289265397"><ele>338.3333333333333</ele><time>2026-04-11T16:02:03.001Z</time></trkpt><trkpt lat="45.78218592600742" lon="9.945078039728099"><ele>337.66666666666663</ele><time>2026-04-11T16:02:04.001Z</time></trkpt><trkpt lat="45.782052062563196" lon="9.944943717005973"><ele>337.0</ele><time>2026-04-11T16:02:05.001Z</time></trkpt><trkpt lat="45.78189267619541" lon="9.944842823600197"><ele>338.3333333333333</ele><time>2026-04-11T16:02:06.001Z</time></trkpt><trkpt lat="45.7817238060846" lon="9.944755920380612"><ele>339.6666666666667</ele><time>2026-04-11T16:02:07.001Z</time></trkpt><trkpt lat="45.78154133804937" lon="9.944671472808771"><ele>341.0</ele><time>2026-04-11T16:02:08.001Z</time></trkpt><trkpt lat="45.781361604804104" lon="9.944586765555687"><ele>341.0</ele><time>2026-04-11T16:02:09.001Z</time></trkpt><trkpt lat="45.781183437181504" lon="9.944497511796149"><ele>341.0</ele><time>2026-04-11T16:02:10.001Z</time></trkpt><trkpt lat="45.78101138491993" lon="9.944411993558056"><ele>341.0</ele><time>2026-04-11T16:02:11.001Z</time></trkpt><trkpt lat="45.78084133299795" lon="9.944326454701734"><ele>342.0</ele><time>2026-04-11T16:02:12.001Z</time></trkpt><trkpt lat="45.78067656685643" lon="9.944238910943175"><ele>343.0</ele><time>2026-04-11T16:02:13.001Z</time></trkpt><trkpt lat="45.78052201511272" lon="9.944153318689251"><ele>344.0</ele><time>2026-04-11T16:02:14.001Z</time></trkpt><trkpt lat="45.780372120700804" lon="9.94406826361176"><ele>342.33333333333337</ele><time>2026-04-11T16:02:15.001Z</time></trkpt><trkpt lat="45.7802267470253" lon="9.94397681404649"><ele>340.6666666666667</ele><time>2026-04-11T16:02:16.001Z</time></trkpt><trkpt lat="45.78007802837862" lon="9.943889286863405"><ele>339.0</ele><time>2026-04-11T16:02:17.001Z</time></trkpt><trkpt lat="45.77993376217938" lon="9.943809278068498"><ele>339.0</ele><time>2026-04-11T16:02:18.001Z</time></trkpt><trkpt lat="45.779800416838825" lon="9.943737375428716"><ele>339.0</ele><time>2026-04-11T16:02:19.001Z</time></trkpt><trkpt lat="45.77966899773417" lon="9.943663096636778"><ele>339.0</ele><time>2026-04-11T16:02:20.001Z</time></trkpt><trkpt lat="45.77955030060022" lon="9.943593905831476"><ele>339.0</ele><time>2026-04-11T16:02:21.001Z</time></trkpt><trkpt lat="45.77944433014182" lon="9.943531827562584"><ele>339.0</ele><time>2026-04-11T16:02:22.001Z</time></trkpt><trkpt lat="45.779345829558416" lon="9.943467193827695"><ele>339.0</ele><time>2026-04-11T16:02:23.001Z</time></trkpt><trkpt lat="45.77925404205429" lon="9.943413316819356"><ele>339.0</ele><time>2026-04-11T16:02:24.001Z</time></trkpt><trkpt lat="45.77917933152252" lon="9.943367846836173"><ele>339.0</ele><time>2026-04-11T16:02:25.001Z</time></trkpt><trkpt lat="45.77907624646206" lon="9.943323112966269"><ele>339.0</ele><time>2026-04-11T16:02:27.001Z</time></trkpt><trkpt lat="45.77901190285715" lon="9.943292957338441"><ele>339.0</ele><time>2026-04-11T16:02:30.001Z</time></trkpt><trkpt lat="45.77890695494103" lon="9.943240425765724"><ele>339.0</ele><time>2026-04-11T16:02:53Z</time></trkpt><trkpt lat="45.77878180074981" lon="9.943190403389151"><ele>339.0</ele><time>2026-04-11T16:02:55Z</time></trkpt><trkpt lat="45.77871465676233" lon="9.943154724657942"><ele>339.0</ele><time>2026-04-11T16:02:56Z</time></trkpt><trkpt lat="45.77861971355531" lon="9.943104219891005"><ele>339.0</ele><time>2026-04-11T16:02:58Z</time></trkpt><trkpt lat="45.778541537296626" lon="9.943147020581312"><ele>339.3333333333333</ele><time>2026-04-11T16:03:00Z</time></trkpt><trkpt lat="45.7785159138805" lon="9.94324847676741"><ele>339.6666666666667</ele><time>2026-04-11T16:03:02Z</time></trkpt><trkpt lat="45.778477712394135" lon="9.943331780631855"><ele>340.0</ele><time>2026-04-11T16:03:04Z</time></trkpt><trkpt lat="45.77842996595395" lon="9.943412803233473"><ele>340.33333333333337</ele><time>2026-04-11T16:03:06Z</time></trkpt><trkpt lat="45.77833768554686" lon="9.943409512754055"><ele>340.6666666666667</ele><time>2026-04-11T16:03:08Z</time></trkpt><trkpt lat="45.77822622611422" lon="9.94339718251969"><ele>341.0</ele><time>2026-04-11T16:03:10Z</time></trkpt><trkpt lat="45.778156968343765" lon="9.94339093545868"><ele>341.0</ele><time>2026-04-11T16:03:11Z</time></trkpt><trkpt lat="45.778035198040435" lon="9.943402416434303"><ele>341.0</ele><time>2026-04-11T16:03:13Z</time></trkpt><trkpt lat="45.77791846571322" lon="9.943369077596582"><ele>341.0</ele><time>2026-04-11T16:03:15Z</time></trkpt><trkpt lat="45.77785354261849" lon="9.943364330146995"><ele>341.0</ele><time>2026-04-11T16:03:16Z</time></trkpt><trkpt lat="45.77773558464358" lon="9.943384249089469"><ele>341.0</ele><time>2026-04-11T16:03:18Z</time></trkpt><trkpt lat="45.77767155345059" lon="9.94339017512791"><ele>343.0</ele><time>2026-04-11T16:03:19Z</time></trkpt><trkpt lat="45.77759903366243" lon="9.943406503298013"><ele>345.0</ele><time>2026-04-11T16:03:20Z</time></trkpt><trkpt lat="45.777522735937254" lon="9.943423713311473"><ele>347.0</ele><time>2026-04-11T16:03:21Z</time></trkpt><trkpt lat="45.777439234736626" lon="9.943434327025917"><ele>349.0</ele><time>2026-04-11T16:03:22Z</time></trkpt><trkpt lat="45.77737708410883" lon="9.943456408190283"><ele>351.0</ele><time>2026-04-11T16:03:23Z</time></trkpt><trkpt lat="45.77730980071294" lon="9.943489559644341"><ele>353.0</ele><time>2026-04-11T16:03:24Z</time></trkpt><trkpt lat="45.777256098404784" lon="9.943576505858159"><ele>353.0</ele><time>2026-04-11T16:03:26Z</time></trkpt><trkpt lat="45.777188642501415" lon="9.943603522970923"><ele>353.0</ele><time>2026-04-11T16:03:27Z</time></trkpt><trkpt lat="45.7771100953571" lon="9.94364428941333"><ele>353.0</ele><time>2026-04-11T16:03:28Z</time></trkpt><trkpt lat="45.777043509769555" lon="9.943649091369661"><ele>353.0</ele><time>2026-04-11T16:03:29Z</time></trkpt><trkpt lat="45.77696853326279" lon="9.94367684815961"><ele>353.0</ele><time>2026-04-11T16:03:30Z</time></trkpt><trkpt lat="45.77689470233288" lon="9.943702497889662"><ele>353.0</ele><time>2026-04-11T16:03:31Z</time></trkpt><trkpt lat="45.7768281448894" lon="9.943725620845981"><ele>353.0</ele><time>2026-04-11T16:03:32Z</time></trkpt><trkpt lat="45.77676464896659" lon="9.943743684815075"><ele>352.2</ele><time>2026-04-11T16:03:33Z</time></trkpt><trkpt lat="45.77664170700672" lon="9.94379307481144"><ele>351.4</ele><time>2026-04-11T16:03:35Z</time></trkpt><trkpt lat="45.77656681625783" lon="9.943790013738639"><ele>350.59999999999997</ele><time>2026-04-11T16:03:36Z</time></trkpt><trkpt lat="45.77648272802369" lon="9.943794322834146"><ele>349.79999999999995</ele><time>2026-04-11T16:03:37Z</time></trkpt><trkpt lat="45.776401085577305" lon="9.943776577190576"><ele>349.0</ele><time>2026-04-11T16:03:38Z</time></trkpt><trkpt lat="45.77631340555726" lon="9.943737055402133"><ele>349.0</ele><time>2026-04-11T16:03:39Z</time></trkpt><trkpt lat="45.776234278776656" lon="9.943674356346449"><ele>349.0</ele><time>2026-04-11T16:03:40Z</time></trkpt><trkpt lat="45.776150131785705" lon="9.943607658642579"><ele>349.0</ele><time>2026-04-11T16:03:41Z</time></trkpt><trkpt lat="45.7760642695906" lon="9.943532969083837"><ele>349.0</ele><time>2026-04-11T16:03:42Z</time></trkpt><trkpt lat="45.77598654122299" lon="9.943435142045239"><ele>349.0</ele><time>2026-04-11T16:03:43Z</time></trkpt><trkpt lat="45.77590756505258" lon="9.943339063418938"><ele>347.0</ele><time>2026-04-11T16:03:44Z</time></trkpt><trkpt lat="45.775834400448424" lon="9.943236759401474"><ele>345.0</ele><time>2026-04-11T16:03:45Z</time></trkpt><trkpt lat="45.77575428950645" lon="9.943159291177022"><ele>343.0</ele><time>2026-04-11T16:03:46Z</time></trkpt><trkpt lat="45.775659368725485" lon="9.94306771715714"><ele>341.0</ele><time>2026-04-11T16:03:47Z</time></trkpt><trkpt lat="45.77558341552632" lon="9.942990500201093"><ele>339.0</ele><time>2026-04-11T16:03:48.001Z</time></trkpt><trkpt lat="45.77551126833637" lon="9.9429185631594"><ele>339.0</ele><time>2026-04-11T16:03:49.001Z</time></trkpt><trkpt lat="45.77543184074551" lon="9.942842653594706"><ele>339.0</ele><time>2026-04-11T16:03:50.001Z</time></trkpt><trkpt lat="45.77532796366458" lon="9.942748601529933"><ele>339.0</ele><time>2026-04-11T16:03:51.001Z</time></trkpt><trkpt lat="45.77519827782949" lon="9.942626060316838"><ele>339.0</ele><time>2026-04-11T16:03:52.001Z</time></trkpt><trkpt lat="45.77503958782701" lon="9.942512495475244"><ele>339.0</ele><time>2026-04-11T16:03:53.001Z</time></trkpt><trkpt lat="45.774865239302436" lon="9.942412001305282"><ele>339.0</ele><time>2026-04-11T16:03:54.001Z</time></trkpt><trkpt lat="45.774674549213174" lon="9.942308328808117"><ele>339.0</ele><time>2026-04-11T16:03:55.001Z</time></trkpt><trkpt lat="45.77447209889582" lon="9.94219040463196"><ele>340.0</ele><time>2026-04-11T16:03:56.001Z</time></trkpt><trkpt lat="45.77427493726204" lon="9.942062287922006"><ele>341.0</ele><time>2026-04-11T16:03:57.001Z</time></trkpt><trkpt lat="45.774128912433866" lon="9.941953427244677"><ele>342.0</ele><time>2026-04-11T16:03:58.001Z</time></trkpt><trkpt lat="45.77396826561473" lon="9.941837981056683"><ele>342.0</ele><time>2026-04-11T16:03:59.001Z</time></trkpt><trkpt lat="45.773814807812364" lon="9.941745596870582"><ele>342.0</ele><time>2026-04-11T16:04:00.001Z</time></trkpt><trkpt lat="45.77365911083212" lon="9.941643588989168"><ele>342.0</ele><time>2026-04-11T16:04:01.001Z</time></trkpt><trkpt lat="45.77349509910539" lon="9.941534652979293"><ele>342.3333333333333</ele><time>2026-04-11T16:04:02.001Z</time></trkpt><trkpt lat="45.77332362204501" lon="9.941418766485558"><ele>342.66666666666663</ele><time>2026-04-11T16:04:03.001Z</time></trkpt><trkpt lat="45.77314886374532" lon="9.94129672485998"><ele>343.0</ele><time>2026-04-11T16:04:04.001Z</time></trkpt><trkpt lat="45.77296548522807" lon="9.941159197641333"><ele>343.0</ele><time>2026-04-11T16:04:05.001Z</time></trkpt><trkpt lat="45.7727942007455" lon="9.94102603390773"><ele>343.0</ele><time>2026-04-11T16:04:06.001Z</time></trkpt><trkpt lat="45.7726170536776" lon="9.940890030930928"><ele>343.0</ele><time>2026-04-11T16:04:07.001Z</time></trkpt><trkpt lat="45.77244090259461" lon="9.94075358954535"><ele>341.66666666666663</ele><time>2026-04-11T16:04:08.001Z</time></trkpt><trkpt lat="45.77226175629514" lon="9.94062643996275"><ele>340.3333333333333</ele><time>2026-04-11T16:04:09.001Z</time></trkpt><trkpt lat="45.772079601674555" lon="9.940528103530667"><ele>339.0</ele><time>2026-04-11T16:04:10.001Z</time></trkpt><trkpt lat="45.771899696169136" lon="9.940439648287239"><ele>340.0</ele><time>2026-04-11T16:04:11.001Z</time></trkpt><trkpt lat="45.77171483829286" lon="9.940356292790964"><ele>341.0</ele><time>2026-04-11T16:04:12.001Z</time></trkpt><trkpt lat="45.77153864739242" lon="9.940247203499487"><ele>342.0</ele><time>2026-04-11T16:04:13.001Z</time></trkpt><trkpt lat="45.771367493582076" lon="9.94011251385483"><ele>342.0</ele><time>2026-04-11T16:04:14.001Z</time></trkpt><trkpt lat="45.77121415694124" lon="9.939981792254663"><ele>342.0</ele><time>2026-04-11T16:04:15.001Z</time></trkpt><trkpt lat="45.77106848001716" lon="9.939836895474905"><ele>342.0</ele><time>2026-04-11T16:04:16.001Z</time></trkpt><trkpt lat="45.77092242412382" lon="9.939693040561862"><ele>342.0</ele><time>2026-04-11T16:04:17.001Z</time></trkpt><trkpt lat="45.770776087904615" lon="9.939559313744544"><ele>342.0</ele><time>2026-04-11T16:04:18.001Z</time></trkpt><trkpt lat="45.77064224663957" lon="9.939427170573065"><ele>342.0</ele><time>2026-04-11T16:04:19.001Z</time></trkpt><trkpt lat="45.77049471983138" lon="9.939280624444633"><ele>341.6666666666667</ele><time>2026-04-11T16:04:20.001Z</time></trkpt><trkpt lat="45.770347563780895" lon="9.939145187490043"><ele>341.33333333333337</ele><time>2026-04-11T16:04:21.001Z</time></trkpt><trkpt lat="45.77019595584717" lon="9.939013283829562"><ele>341.0</ele><time>2026-04-11T16:04:22.001Z</time></trkpt><trkpt lat="45.770047216366336" lon="9.938900262328753"><ele>341.0</ele><time>2026-04-11T16:04:23.001Z</time></trkpt><trkpt lat="45.769891395444475" lon="9.938753170681055"><ele>341.0</ele><time>2026-04-11T16:04:24.001Z</time></trkpt><trkpt lat="45.76976003355554" lon="9.93865903581088"><ele>341.0</ele><time>2026-04-11T16:04:25.001Z</time></trkpt><trkpt lat="45.769632344750995" lon="9.938581797028203"><ele>341.0</ele><time>2026-04-11T16:04:26.001Z</time></trkpt><trkpt lat="45.769491712798946" lon="9.938494173095222"><ele>341.0</ele><time>2026-04-11T16:04:27.001Z</time></trkpt><trkpt lat="45.76933642157144" lon="9.938418463466896"><ele>341.0</ele><time>2026-04-11T16:04:28.001Z</time></trkpt><trkpt lat="45.76918484024718" lon="9.938355009581773"><ele>339.6666666666667</ele><time>2026-04-11T16:04:29.001Z</time></trkpt><trkpt lat="45.7690291503579" lon="9.938296604496514"><ele>338.3333333333333</ele><time>2026-04-11T16:04:30.001Z</time></trkpt><trkpt lat="45.76886615536101" lon="9.938246268891325"><ele>337.0</ele><time>2026-04-11T16:04:31.001Z</time></trkpt><trkpt lat="45.76870631777525" lon="9.938205233213825"><ele>337.0</ele><time>2026-04-11T16:04:32.001Z</time></trkpt><trkpt lat="45.76855160306175" lon="9.938178035705"><ele>337.0</ele><time>2026-04-11T16:04:33.001Z</time></trkpt><trkpt lat="45.7683921037272" lon="9.938167616575187"><ele>337.0</ele><time>2026-04-11T16:04:34.001Z</time></trkpt><trkpt lat="45.76823801949316" lon="9.938185838935688"><ele>337.66666666666663</ele><time>2026-04-11T16:04:35.001Z</time></trkpt><trkpt lat="45.76808531524822" lon="9.938202998574772"><ele>338.3333333333333</ele><time>2026-04-11T16:04:36.001Z</time></trkpt><trkpt lat="45.767924480188654" lon="9.938226768227887"><ele>339.0</ele><time>2026-04-11T16:04:37.001Z</time></trkpt><trkpt lat="45.76776259639309" lon="9.93824902584807"><ele>340.0</ele><time>2026-04-11T16:04:38.001Z</time></trkpt><trkpt lat="45.76760372334569" lon="9.938281007596062"><ele>341.0</ele><time>2026-04-11T16:04:39.001Z</time></trkpt><trkpt lat="45.76744578962952" lon="9.9382754685755"><ele>342.0</ele><time>2026-04-11T16:04:40.001Z</time></trkpt><trkpt lat="45.76729032476507" lon="9.938231883490266"><ele>342.0</ele><time>2026-04-11T16:04:41.001Z</time></trkpt><trkpt lat="45.76713198394276" lon="9.938160624452609"><ele>342.0</ele><time>2026-04-11T16:04:42.001Z</time></trkpt><trkpt lat="45.76698135986231" lon="9.93804931501343"><ele>342.0</ele><time>2026-04-11T16:04:43.001Z</time></trkpt><trkpt lat="45.76683721501211" lon="9.937927416202129"><ele>342.0</ele><time>2026-04-11T16:04:44.001Z</time></trkpt><trkpt lat="45.76666507283695" lon="9.937804472318552"><ele>342.0</ele><time>2026-04-11T16:04:45.001Z</time></trkpt><trkpt lat="45.76650137787752" lon="9.93766290683873"><ele>342.0</ele><time>2026-04-11T16:04:46.001Z</time></trkpt><trkpt lat="45.76633241430344" lon="9.937515471105263"><ele>342.0</ele><time>2026-04-11T16:04:47.001Z</time></trkpt><trkpt lat="45.76616686351231" lon="9.937371173862926"><ele>342.0</ele><time>2026-04-11T16:04:48.001Z</time></trkpt><trkpt lat="45.76600071941279" lon="9.937224163622433"><ele>342.0</ele><time>2026-04-11T16:04:49.001Z</time></trkpt><trkpt lat="45.7658381729841" lon="9.93708377109604"><ele>342.0</ele><time>2026-04-11T16:04:50.001Z</time></trkpt><trkpt lat="45.765678022242085" lon="9.936947294896337"><ele>342.0</ele><time>2026-04-11T16:04:51.001Z</time></trkpt><trkpt lat="45.76552001674339" lon="9.936807058952862"><ele>342.0</ele><time>2026-04-11T16:04:52.001Z</time></trkpt><trkpt lat="45.76536228249175" lon="9.93666902471319"><ele>342.0</ele><time>2026-04-11T16:04:53.001Z</time></trkpt><trkpt lat="45.76520556016983" lon="9.936545839440447"><ele>342.0</ele><time>2026-04-11T16:04:54.001Z</time></trkpt><trkpt lat="45.76506034441988" lon="9.936431742119247"><ele>342.0</ele><time>2026-04-11T16:04:55Z</time></trkpt><trkpt lat="45.76492645813643" lon="9.936297157342217"><ele>347.6666666666667</ele><time>2026-04-11T16:04:56Z</time></trkpt><trkpt lat="45.764785736696226" lon="9.936198726592387"><ele>353.33333333333337</ele><time>2026-04-11T16:04:57Z</time></trkpt><trkpt lat="45.76465366906612" lon="9.936078928337649"><ele>359.0</ele><time>2026-04-11T16:04:58Z</time></trkpt><trkpt lat="45.76451567466529" lon="9.935954540318079"><ele>360.0</ele><time>2026-04-11T16:04:59Z</time></trkpt><trkpt lat="45.764360737985164" lon="9.935821733432592"><ele>361.0</ele><time>2026-04-11T16:05:00Z</time></trkpt><trkpt lat="45.7642155849951" lon="9.935678079095139"><ele>362.0</ele><time>2026-04-11T16:05:01Z</time></trkpt><trkpt lat="45.764071943111006" lon="9.935549086162029"><ele>362.0</ele><time>2026-04-11T16:05:02Z</time></trkpt><trkpt lat="45.7639367183985" lon="9.935441271039762"><ele>362.0</ele><time>2026-04-11T16:05:03Z</time></trkpt><trkpt lat="45.76379987480477" lon="9.935308711987512"><ele>362.0</ele><time>2026-04-11T16:05:04Z</time></trkpt><trkpt lat="45.76365289870935" lon="9.93518226028432"><ele>364.6666666666667</ele><time>2026-04-11T16:05:05Z</time></trkpt><trkpt lat="45.76350599853491" lon="9.935060668904606"><ele>367.3333333333333</ele><time>2026-04-11T16:05:06Z</time></trkpt><trkpt lat="45.763362153035914" lon="9.93494798726068"><ele>370.0</ele><time>2026-04-11T16:05:07Z</time></trkpt><trkpt lat="45.76322276142409" lon="9.93482663400078"><ele>370.0</ele><time>2026-04-11T16:05:08Z</time></trkpt><trkpt lat="45.76308818081111" lon="9.934719835497539"><ele>370.0</ele><time>2026-04-11T16:05:09Z</time></trkpt><trkpt lat="45.762963929429795" lon="9.934610303825616"><ele>370.0</ele><time>2026-04-11T16:05:10Z</time></trkpt><trkpt lat="45.762847526713024" lon="9.934502108056346"><ele>370.0</ele><time>2026-04-11T16:05:11Z</time></trkpt><trkpt lat="45.762739789096265" lon="9.934397308667839"><ele>371.0</ele><time>2026-04-11T16:05:12Z</time></trkpt><trkpt lat="45.762647058275604" lon="9.934285573824928"><ele>372.0</ele><time>2026-04-11T16:05:13Z</time></trkpt><trkpt lat="45.76256134240464" lon="9.934163858936781"><ele>373.0</ele><time>2026-04-11T16:05:14Z</time></trkpt><trkpt lat="45.762485823958784" lon="9.934064619830778"><ele>374.0</ele><time>2026-04-11T16:05:15Z</time></trkpt><trkpt lat="45.76242495468542" lon="9.933981669543746"><ele>375.0</ele><time>2026-04-11T16:05:16Z</time></trkpt><trkpt lat="45.762385809823606" lon="9.933910884303794"><ele>375.0</ele><time>2026-04-11T16:05:17Z</time></trkpt><trkpt lat="45.76233782908235" lon="9.933790161898214"><ele>375.0</ele><time>2026-04-11T16:05:19Z</time></trkpt><trkpt lat="45.762398103240855" lon="9.933632201648997"><ele>375.0</ele><time>2026-04-11T16:05:22Z</time></trkpt><trkpt lat="45.76246707872119" lon="9.933484212295287"><ele>375.0</ele><time>2026-04-11T16:05:24Z</time></trkpt><trkpt lat="45.76250568057449" lon="9.933397568439869"><ele>375.0</ele><time>2026-04-11T16:05:26Z</time></trkpt><trkpt lat="45.7625445200966" lon="9.933310392059225"><ele>372.2</ele><time>2026-04-11T16:05:30Z</time></trkpt><trkpt lat="45.762470656002655" lon="9.9331756092987"><ele>369.4</ele><time>2026-04-11T16:05:34Z</time></trkpt><trkpt lat="45.76242686526237" lon="9.93308246277053"><ele>366.6</ele><time>2026-04-11T16:05:36Z</time></trkpt><trkpt lat="45.76236190780001" lon="9.932967805145328"><ele>363.8</ele><time>2026-04-11T16:05:38Z</time></trkpt><trkpt lat="45.76224829523196" lon="9.93284048763542"><ele>361.0</ele><time>2026-04-11T16:05:40Z</time></trkpt><trkpt lat="45.76223472281925" lon="9.932676268061417"><ele>361.0</ele><time>2026-04-11T16:05:41Z</time></trkpt><trkpt lat="45.76225217335097" lon="9.932571809262507"><ele>361.0</ele><time>2026-04-11T16:05:42Z</time></trkpt><trkpt lat="45.762269097918505" lon="9.93247489992396"><ele>361.0</ele><time>2026-04-11T16:05:43.001Z</time></trkpt><trkpt lat="45.76226922437612" lon="9.932321946557733"><ele>361.0</ele><time>2026-04-11T16:05:46.001Z</time></trkpt><trkpt lat="45.76227490884601" lon="9.932184455634692"><ele>361.0</ele><time>2026-04-11T16:05:48.001Z</time></trkpt><trkpt lat="45.76235534877602" lon="9.932080912077003"><ele>360.0</ele><time>2026-04-11T16:05:50.001Z</time></trkpt><trkpt lat="45.762464251940564" lon="9.931989656554663"><ele>359.0</ele><time>2026-04-11T16:05:52.001Z</time></trkpt><trkpt lat="45.7625200315065" lon="9.931940863404533"><ele>358.0</ele><time>2026-04-11T16:05:53.001Z</time></trkpt><trkpt lat="45.762579827832504" lon="9.931896646524308"><ele>357.0</ele><time>2026-04-11T16:05:54.001Z</time></trkpt><trkpt lat="45.762672910651546" lon="9.931818321295642"><ele>356.0</ele><time>2026-04-11T16:05:56.001Z</time></trkpt><trkpt lat="45.76272129072778" lon="9.931745615618592"><ele>355.0</ele><time>2026-04-11T16:05:59.001Z</time></trkpt><trkpt lat="45.76280748400916" lon="9.931658159943664"><ele>354.4</ele><time>2026-04-11T16:06:02.001Z</time></trkpt><trkpt lat="45.76288699501714" lon="9.931737369716085"><ele>353.8</ele><time>2026-04-11T16:06:04.001Z</time></trkpt><trkpt lat="45.762980262494885" lon="9.931588232412073"><ele>353.20000000000005</ele><time>2026-04-11T16:06:09.001Z</time></trkpt><trkpt lat="45.763047385309505" lon="9.931497009440873"><ele>352.6</ele><time>2026-04-11T16:06:11.016Z</time></trkpt><trkpt lat="45.76311638602127" lon="9.931387554389271"><ele>352.0</ele><time>2026-04-11T16:06:13.017Z</time></trkpt><trkpt lat="45.763106474320246" lon="9.931294503125432"><ele>352.0</ele><time>2026-04-11T16:06:14.001Z</time></trkpt><trkpt lat="45.76308291668769" lon="9.931130754771885"><ele>352.0</ele><time>2026-04-11T16:06:16.001Z</time></trkpt><trkpt lat="45.76312033492738" lon="9.931003657667873"><ele>352.0</ele><time>2026-04-11T16:06:18.001Z</time></trkpt><trkpt lat="45.76316364993908" lon="9.930881027668478"><ele>352.0</ele><time>2026-04-11T16:06:20.001Z</time></trkpt><trkpt lat="45.763090352968526" lon="9.930702324469376"><ele>351.66666666666663</ele><time>2026-04-11T16:06:22.001Z</time></trkpt><trkpt lat="45.76310637671813" lon="9.930565733641194"><ele>351.3333333333333</ele><time>2026-04-11T16:06:24.001Z</time></trkpt><trkpt lat="45.76311445131571" lon="9.930424066254995"><ele>351.0</ele><time>2026-04-11T16:06:26.001Z</time></trkpt><trkpt lat="45.76313636198278" lon="9.930314014949946"><ele>350.6666666666667</ele><time>2026-04-11T16:06:28.001Z</time></trkpt><trkpt lat="45.76316381582039" lon="9.930205525089749"><ele>350.33333333333337</ele><time>2026-04-11T16:06:31.001Z</time></trkpt><trkpt lat="45.7631890006664" lon="9.930099898069077"><ele>350.0</ele><time>2026-04-11T16:06:34.001Z</time></trkpt><trkpt lat="45.76314978377596" lon="9.930234313711514"><ele>350.0</ele><time>2026-04-11T16:06:46.001Z</time></trkpt><trkpt lat="45.76312396594585" lon="9.930350193002875"><ele>350.0</ele><time>2026-04-11T16:06:47.001Z</time></trkpt><trkpt lat="45.76308912532938" lon="9.93050807216362"><ele>350.0</ele><time>2026-04-11T16:06:49.001Z</time></trkpt><trkpt lat="45.76310226673109" lon="9.930662416417915"><ele>350.0</ele><time>2026-04-11T16:06:51.001Z</time></trkpt><trkpt lat="45.763109497674954" lon="9.930786531400742"><ele>350.0</ele><time>2026-04-11T16:06:53.001Z</time></trkpt><trkpt lat="45.76313062836055" lon="9.930925153259716"><ele>350.33333333333337</ele><time>2026-04-11T16:06:55.001Z</time></trkpt><trkpt lat="45.76311404341549" lon="9.931028230359386"><ele>350.6666666666667</ele><time>2026-04-11T16:06:56.001Z</time></trkpt><trkpt lat="45.76309206643553" lon="9.931144784225244"><ele>351.0</ele><time>2026-04-11T16:06:58.001Z</time></trkpt><trkpt lat="45.76309353495926" lon="9.931284006142288"><ele>351.3333333333333</ele><time>2026-04-11T16:07:00.001Z</time></trkpt><trkpt lat="45.76307286005462" lon="9.931423379932857"><ele>351.66666666666663</ele><time>2026-04-11T16:07:02Z</time></trkpt><trkpt lat="45.76302849780465" lon="9.931517468926097"><ele>352.0</ele><time>2026-04-11T16:07:04Z</time></trkpt><trkpt lat="45.76298653196537" lon="9.931647148459236"><ele>352.0</ele><time>2026-04-11T16:07:06Z</time></trkpt><trkpt lat="45.76291682892335" lon="9.93166276600802"><ele>352.0</ele><time>2026-04-11T16:07:08Z</time></trkpt><trkpt lat="45.762762018728935" lon="9.931621166555027"><ele>352.0</ele><time>2026-04-11T16:07:16Z</time></trkpt><trkpt lat="45.76269497957287" lon="9.931613242028487"><ele>352.0</ele><time>2026-04-11T16:07:19Z</time></trkpt><trkpt lat="45.762804670103655" lon="9.93164176319531"><ele>352.0</ele><time>2026-04-11T16:15:44.001Z</time></trkpt><trkpt lat="45.76291037869935" lon="9.931741076454742"><ele>352.0</ele><time>2026-04-11T16:15:46.001Z</time></trkpt><trkpt lat="45.76296607255311" lon="9.931820566670497"><ele>352.0</ele><time>2026-04-11T16:15:47.001Z</time></trkpt><trkpt lat="45.763015724128" lon="9.931876933017566"><ele>352.0</ele><time>2026-04-11T16:15:48.001Z</time></trkpt><trkpt lat="45.76308047003881" lon="9.932078387490384"><ele>352.0</ele><time>2026-04-11T16:15:50.001Z</time></trkpt><trkpt lat="45.76313972827864" lon="9.932117645247482"><ele>352.0</ele><time>2026-04-11T16:15:51.001Z</time></trkpt><trkpt lat="45.763186700062924" lon="9.93218135582032"><ele>352.0</ele><time>2026-04-11T16:15:52Z</time></trkpt><trkpt lat="45.763281384532" lon="9.932335816658894"><ele>352.0</ele><time>2026-04-11T16:15:54Z</time></trkpt><trkpt lat="45.763343482156365" lon="9.932407175130502"><ele>352.0</ele><time>2026-04-11T16:15:56Z</time></trkpt><trkpt lat="45.76341196404747" lon="9.93248565920336"><ele>352.0</ele><time>2026-04-11T16:15:58Z</time></trkpt><trkpt lat="45.76347394005985" lon="9.932570130649337"><ele>352.0</ele><time>2026-04-11T16:16:01Z</time></trkpt><trkpt lat="45.76352552455854" lon="9.932630088639486"><ele>352.0</ele><time>2026-04-11T16:16:03Z</time></trkpt><trkpt lat="45.76358616432498" lon="9.932732084286952"><ele>352.0</ele><time>2026-04-11T16:16:05Z</time></trkpt><trkpt lat="45.7636643755134" lon="9.932812427512307"><ele>350.40000000000003</ele><time>2026-04-11T16:16:07Z</time></trkpt><trkpt lat="45.763740812412834" lon="9.932862873664009"><ele>348.8</ele><time>2026-04-11T16:16:09Z</time></trkpt><trkpt lat="45.76381941488412" lon="9.93292822793"><ele>347.2</ele><time>2026-04-11T16:16:11Z</time></trkpt><trkpt lat="45.76390643439994" lon="9.933004265424392"><ele>345.6</ele><time>2026-04-11T16:16:13Z</time></trkpt><trkpt lat="45.7639714471922" lon="9.93307117268472"><ele>344.0</ele><time>2026-04-11T16:16:14Z</time></trkpt><trkpt lat="45.76405030712315" lon="9.933174058899498"><ele>344.0</ele><time>2026-04-11T16:16:16Z</time></trkpt><trkpt lat="45.7641195510463" lon="9.933271221705581"><ele>344.0</ele><time>2026-04-11T16:16:18Z</time></trkpt><trkpt lat="45.7641623490369" lon="9.933369994015061"><ele>344.0</ele><time>2026-04-11T16:16:20Z</time></trkpt><trkpt lat="45.76424279511851" lon="9.933253280550515"><ele>344.0</ele><time>2026-04-11T16:16:21Z</time></trkpt><trkpt lat="45.76433230237469" lon="9.933295769445772"><ele>344.0</ele><time>2026-04-11T16:16:22Z</time></trkpt><trkpt lat="45.76443936817036" lon="9.933360842912945"><ele>343.6</ele><time>2026-04-11T16:16:23Z</time></trkpt><trkpt lat="45.764525946598226" lon="9.93342404383984"><ele>343.2</ele><time>2026-04-11T16:16:24Z</time></trkpt><trkpt lat="45.76463993335041" lon="9.933491013460047"><ele>342.8</ele><time>2026-04-11T16:16:25Z</time></trkpt><trkpt lat="45.76473739851994" lon="9.933552852035358"><ele>342.40000000000003</ele><time>2026-04-11T16:16:26Z</time></trkpt><trkpt lat="45.76483554162556" lon="9.933605904418727"><ele>342.0</ele><time>2026-04-11T16:16:27Z</time></trkpt><trkpt lat="45.764923562801606" lon="9.933663745858132"><ele>342.0</ele><time>2026-04-11T16:16:28Z</time></trkpt><trkpt lat="45.76500575272711" lon="9.933729311463193"><ele>342.0</ele><time>2026-04-11T16:16:29Z</time></trkpt><trkpt lat="45.76507282431775" lon="9.933775959945189"><ele>342.0</ele><time>2026-04-11T16:16:30Z</time></trkpt><trkpt lat="45.76516807450909" lon="9.9338438033278"><ele>342.0</ele><time>2026-04-11T16:16:31Z</time></trkpt><trkpt lat="45.76526019519019" lon="9.933899357555738"><ele>342.0</ele><time>2026-04-11T16:16:32Z</time></trkpt><trkpt lat="45.76534015444228" lon="9.933967105363706"><ele>341.6</ele><time>2026-04-11T16:16:33Z</time></trkpt><trkpt lat="45.76539047468421" lon="9.934032336693722"><ele>341.20000000000005</ele><time>2026-04-11T16:16:34Z</time></trkpt><trkpt lat="45.76546371357211" lon="9.93403749344107"><ele>340.8</ele><time>2026-04-11T16:16:35Z</time></trkpt><trkpt lat="45.76552641303127" lon="9.93387553349051"><ele>340.4</ele><time>2026-04-11T16:16:43Z</time></trkpt><trkpt lat="45.76558225398259" lon="9.933792189843578"><ele>340.0</ele><time>2026-04-11T16:16:44Z</time></trkpt><trkpt lat="45.76565163826484" lon="9.933616168414435"><ele>340.0</ele><time>2026-04-11T16:16:46Z</time></trkpt><trkpt lat="45.76571198437409" lon="9.933497291674607"><ele>340.0</ele><time>2026-04-11T16:16:47Z</time></trkpt><trkpt lat="45.76576520690369" lon="9.933388643561225"><ele>340.0</ele><time>2026-04-11T16:16:48Z</time></trkpt><trkpt lat="45.76581563219294" lon="9.933284069286247"><ele>340.0</ele><time>2026-04-11T16:16:49Z</time></trkpt><trkpt lat="45.76586372244528" lon="9.933184337526418"><ele>340.0</ele><time>2026-04-11T16:16:50Z</time></trkpt><trkpt lat="45.76590743220893" lon="9.933095958482442"><ele>340.0</ele><time>2026-04-11T16:16:51Z</time></trkpt><trkpt lat="45.765949790257366" lon="9.933025702107688"><ele>339.8333333333333</ele><time>2026-04-11T16:16:52Z</time></trkpt><trkpt lat="45.76599694135667" lon="9.93295246196319"><ele>339.66666666666663</ele><time>2026-04-11T16:16:53Z</time></trkpt><trkpt lat="45.76604625463953" lon="9.932869976417216"><ele>339.5</ele><time>2026-04-11T16:16:54Z</time></trkpt><trkpt lat="45.76608280648097" lon="9.932792690073759"><ele>339.3333333333333</ele><time>2026-04-11T16:16:55Z</time></trkpt><trkpt lat="45.76615731988308" lon="9.932673733547691"><ele>339.1666666666667</ele><time>2026-04-11T16:16:57Z</time></trkpt><trkpt lat="45.76624721741048" lon="9.932660511127327"><ele>339.0</ele><time>2026-04-11T16:17:00Z</time></trkpt><trkpt lat="45.766335644211665" lon="9.932699093746075"><ele>339.0</ele><time>2026-04-11T16:17:03Z</time></trkpt><trkpt lat="45.766412816518205" lon="9.93271091000963"><ele>339.0</ele><time>2026-04-11T16:17:05Z</time></trkpt><trkpt lat="45.76648367820808" lon="9.932769288880044"><ele>339.0</ele><time>2026-04-11T16:17:07Z</time></trkpt><trkpt lat="45.76654730699526" lon="9.932657411513562"><ele>339.0</ele><time>2026-04-11T16:17:10Z</time></trkpt><trkpt lat="45.76634608750745" lon="9.932777540015394"><ele>339.0</ele><time>2026-04-11T16:17:17Z</time></trkpt><trkpt lat="45.76624507331714" lon="9.93272639837897"><ele>339.0</ele><time>2026-04-11T16:17:19Z</time></trkpt><trkpt lat="45.76616895146236" lon="9.932687859491342"><ele>339.0</ele><time>2026-04-11T16:17:20Z</time></trkpt><trkpt lat="45.766081008990525" lon="9.93269883720286"><ele>339.0</ele><time>2026-04-11T16:17:21Z</time></trkpt><trkpt lat="45.766034113491095" lon="9.93276858617036"><ele>339.0</ele><time>2026-04-11T16:17:23Z</time></trkpt><trkpt lat="45.76600186000303" lon="9.932881829387322"><ele>339.0</ele><time>2026-04-11T16:17:24Z</time></trkpt><trkpt lat="45.76587036363961" lon="9.933088113794959"><ele>339.25</ele><time>2026-04-11T16:17:25Z</time></trkpt><trkpt lat="45.76577702218642" lon="9.93332089016953"><ele>339.5</ele><time>2026-04-11T16:17:26Z</time></trkpt><trkpt lat="45.765683868668475" lon="9.93345176046108"><ele>339.75</ele><time>2026-04-11T16:17:27Z</time></trkpt><trkpt lat="45.76561333839955" lon="9.93357383860218"><ele>340.0</ele><time>2026-04-11T16:17:28Z</time></trkpt><trkpt lat="45.76555500402506" lon="9.933685805956424"><ele>340.0</ele><time>2026-04-11T16:17:29Z</time></trkpt><trkpt lat="45.76551949620345" lon="9.933783657890181"><ele>340.0</ele><time>2026-04-11T16:17:30Z</time></trkpt><trkpt lat="45.765466662289015" lon="9.93385846448977"><ele>340.0</ele><time>2026-04-11T16:17:31Z</time></trkpt><trkpt lat="45.76538585152473" lon="9.933944561473597"><ele>340.0</ele><time>2026-04-11T16:17:33Z</time></trkpt><trkpt lat="45.76530641256397" lon="9.93393089601131"><ele>340.0</ele><time>2026-04-11T16:17:34Z</time></trkpt><trkpt lat="45.76524597877978" lon="9.933820962086731"><ele>340.0</ele><time>2026-04-11T16:17:35Z</time></trkpt><trkpt lat="45.76515917320288" lon="9.933760887453202"><ele>340.5</ele><time>2026-04-11T16:17:36Z</time></trkpt><trkpt lat="45.76507539152148" lon="9.933704315459389"><ele>341.0</ele><time>2026-04-11T16:17:37Z</time></trkpt><trkpt lat="45.764959623448796" lon="9.93362636249915"><ele>341.5</ele><time>2026-04-11T16:17:38Z</time></trkpt><trkpt lat="45.76485039202243" lon="9.93355417475539"><ele>342.0</ele><time>2026-04-11T16:17:39Z</time></trkpt><trkpt lat="45.76475609629116" lon="9.933472267888941"><ele>342.40000000000003</ele><time>2026-04-11T16:17:40Z</time></trkpt><trkpt lat="45.76465607335411" lon="9.93338463735818"><ele>342.8</ele><time>2026-04-11T16:17:41Z</time></trkpt><trkpt lat="45.7645454297361" lon="9.933326159629338"><ele>343.2</ele><time>2026-04-11T16:17:42Z</time></trkpt><trkpt lat="45.76445219635061" lon="9.933264384898738"><ele>343.6</ele><time>2026-04-11T16:17:43Z</time></trkpt><trkpt lat="45.764362924053856" lon="9.93321101489937"><ele>344.0</ele><time>2026-04-11T16:17:44Z</time></trkpt><trkpt lat="45.76428150136951" lon="9.933167927670768"><ele>344.0</ele><time>2026-04-11T16:17:45Z</time></trkpt><trkpt lat="45.764217496328406" lon="9.933142117787371"><ele>344.0</ele><time>2026-04-11T16:17:46Z</time></trkpt><trkpt lat="45.76412948800632" lon="9.933119148373093"><ele>344.0</ele><time>2026-04-11T16:17:48Z</time></trkpt><trkpt lat="45.764112651261165" lon="9.933020114812818"><ele>344.0</ele><time>2026-04-11T16:17:51Z</time></trkpt><trkpt lat="45.763999805696734" lon="9.932942035983093"><ele>344.0</ele><time>2026-04-11T16:17:53Z</time></trkpt><trkpt lat="45.76391204287265" lon="9.932888367760864"><ele>344.0</ele><time>2026-04-11T16:17:54Z</time></trkpt><trkpt lat="45.76381183664894" lon="9.932833012607963"><ele>344.0</ele><time>2026-04-11T16:17:55Z</time></trkpt><trkpt lat="45.763733444840376" lon="9.932780519582323"><ele>344.0</ele><time>2026-04-11T16:17:56Z</time></trkpt><trkpt lat="45.76364885961545" lon="9.932732229680006"><ele>344.0</ele><time>2026-04-11T16:17:57Z</time></trkpt><trkpt lat="45.763564983094064" lon="9.93266128453861"><ele>344.0</ele><time>2026-04-11T16:17:58Z</time></trkpt><trkpt lat="45.763507197313366" lon="9.932567970493743"><ele>344.0</ele><time>2026-04-11T16:17:59Z</time></trkpt><trkpt lat="45.763455047931416" lon="9.93249667575209"><ele>344.0</ele><time>2026-04-11T16:18:00Z</time></trkpt><trkpt lat="45.7634078127085" lon="9.932430602689614"><ele>345.6</ele><time>2026-04-11T16:18:01Z</time></trkpt><trkpt lat="45.763361048122746" lon="9.932365189193773"><ele>347.2</ele><time>2026-04-11T16:18:02Z</time></trkpt><trkpt lat="45.7633168490285" lon="9.93227806499429"><ele>348.8</ele><time>2026-04-11T16:18:03Z</time></trkpt><trkpt lat="45.763218681968524" lon="9.932155331702354"><ele>350.40000000000003</ele><time>2026-04-11T16:18:05Z</time></trkpt><trkpt lat="45.76311904927692" lon="9.932048767015427"><ele>352.0</ele><time>2026-04-11T16:18:07Z</time></trkpt><trkpt lat="45.76308367932521" lon="9.931967360009569"><ele>352.0</ele><time>2026-04-11T16:18:08Z</time></trkpt><trkpt lat="45.76301121825168" lon="9.931885351382759"><ele>352.0</ele><time>2026-04-11T16:18:10Z</time></trkpt><trkpt lat="45.76296893661362" lon="9.931803914978886"><ele>352.0</ele><time>2026-04-11T16:18:12Z</time></trkpt><trkpt lat="45.76288729519613" lon="9.931679547756634"><ele>352.0</ele><time>2026-04-11T16:18:14Z</time></trkpt><trkpt lat="45.76275397249225" lon="9.931801459841672"><ele>352.0</ele><time>2026-04-11T16:18:17Z</time></trkpt><trkpt lat="45.762664868182654" lon="9.931696787503467"><ele>351.8</ele><time>2026-04-11T16:18:18Z</time></trkpt><trkpt lat="45.76261428919665" lon="9.931587230630493"><ele>351.6</ele><time>2026-04-11T16:18:19Z</time></trkpt><trkpt lat="45.762524205389006" lon="9.931472691279932"><ele>351.40000000000003</ele><time>2026-04-11T16:18:21Z</time></trkpt><trkpt lat="45.76250242542324" lon="9.931380973571615"><ele>351.20000000000005</ele><time>2026-04-11T16:18:22Z</time></trkpt><trkpt lat="45.76245318087951" lon="9.931262493641904"><ele>351.0</ele><time>2026-04-11T16:18:23Z</time></trkpt><trkpt lat="45.762429845533674" lon="9.931127591801504"><ele>351.0</ele><time>2026-04-11T16:18:24Z</time></trkpt><trkpt lat="45.76237502840349" lon="9.931026171952082"><ele>351.0</ele><time>2026-04-11T16:18:25Z</time></trkpt><trkpt lat="45.76231427395863" lon="9.930895722815572"><ele>351.0</ele><time>2026-04-11T16:18:26Z</time></trkpt><trkpt lat="45.76228145500817" lon="9.930729610710747"><ele>351.0</ele><time>2026-04-11T16:18:27Z</time></trkpt><trkpt lat="45.76223019179076" lon="9.930618374467862"><ele>351.0</ele><time>2026-04-11T16:18:28Z</time></trkpt><trkpt lat="45.76217352339856" lon="9.930493623520814"><ele>350.0</ele><time>2026-04-11T16:18:29Z</time></trkpt><trkpt lat="45.762105489542186" lon="9.930411763975691"><ele>349.0</ele><time>2026-04-11T16:18:30Z</time></trkpt><trkpt lat="45.762048592435804" lon="9.930301501114052"><ele>348.0</ele><time>2026-04-11T16:18:31Z</time></trkpt><trkpt lat="45.76198471611362" lon="9.930212922018146"><ele>347.0</ele><time>2026-04-11T16:18:32Z</time></trkpt><trkpt lat="45.76192005867717" lon="9.93013442120483"><ele>346.0</ele><time>2026-04-11T16:18:33Z</time></trkpt><trkpt lat="45.76184475884458" lon="9.930050682254778"><ele>345.20000000000005</ele><time>2026-04-11T16:18:34Z</time></trkpt><trkpt lat="45.761777894544196" lon="9.929980739841945"><ele>344.40000000000003</ele><time>2026-04-11T16:18:35Z</time></trkpt><trkpt lat="45.76169913945455" lon="9.929924336744142"><ele>343.6</ele><time>2026-04-11T16:18:36Z</time></trkpt><trkpt lat="45.761617879625106" lon="9.929844530747214"><ele>342.8</ele><time>2026-04-11T16:18:37Z</time></trkpt><trkpt lat="45.76152265307773" lon="9.929755566102594"><ele>342.0</ele><time>2026-04-11T16:18:38Z</time></trkpt><trkpt lat="45.76142156433862" lon="9.929649208558287"><ele>342.0</ele><time>2026-04-11T16:18:39Z</time></trkpt><trkpt lat="45.76129981054464" lon="9.929566382391407"><ele>342.0</ele><time>2026-04-11T16:18:40Z</time></trkpt><trkpt lat="45.761157345161365" lon="9.929488233026257"><ele>342.0</ele><time>2026-04-11T16:18:41Z</time></trkpt><trkpt lat="45.76100872133361" lon="9.929406024675558"><ele>342.0</ele><time>2026-04-11T16:18:42Z</time></trkpt><trkpt lat="45.760835794821375" lon="9.92937460562575"><ele>341.75</ele><time>2026-04-11T16:18:43Z</time></trkpt><trkpt lat="45.76070946984076" lon="9.929323046632318"><ele>341.5</ele><time>2026-04-11T16:18:44Z</time></trkpt><trkpt lat="45.76059316585896" lon="9.92927838150669"><ele>341.25</ele><time>2026-04-11T16:18:45Z</time></trkpt><trkpt lat="45.76048534808924" lon="9.929234583305947"><ele>341.0</ele><time>2026-04-11T16:18:46Z</time></trkpt><trkpt lat="45.760371346165314" lon="9.92915956984605"><ele>341.0</ele><time>2026-04-11T16:18:47Z</time></trkpt><trkpt lat="45.7602638793694" lon="9.92904241374426"><ele>341.0</ele><time>2026-04-11T16:18:48Z</time></trkpt><trkpt lat="45.76015285389348" lon="9.92891158315484"><ele>341.0</ele><time>2026-04-11T16:18:49Z</time></trkpt><trkpt lat="45.76007278829368" lon="9.928727010949492"><ele>341.0</ele><time>2026-04-11T16:18:50Z</time></trkpt><trkpt lat="45.75999905176088" lon="9.928539377107157"><ele>341.5</ele><time>2026-04-11T16:18:51Z</time></trkpt><trkpt lat="45.75991978087095" lon="9.928376338336225"><ele>342.0</ele><time>2026-04-11T16:18:52Z</time></trkpt><trkpt lat="45.75983639626561" lon="9.92819255433352"><ele>342.5</ele><time>2026-04-11T16:18:53Z</time></trkpt><trkpt lat="45.759746117325314" lon="9.928024241585982"><ele>343.0</ele><time>2026-04-11T16:18:54Z</time></trkpt><trkpt lat="45.75963924628633" lon="9.927834048839559"><ele>343.0</ele><time>2026-04-11T16:18:55Z</time></trkpt><trkpt lat="45.75954098804983" lon="9.92762999247716"><ele>343.0</ele><time>2026-04-11T16:18:56Z</time></trkpt><trkpt lat="45.75944192124697" lon="9.927420054203505"><ele>343.0</ele><time>2026-04-11T16:18:57Z</time></trkpt><trkpt lat="45.75935313549646" lon="9.927207595101793"><ele>342.0</ele><time>2026-04-11T16:18:58Z</time></trkpt><trkpt lat="45.75923508285545" lon="9.926975127827557"><ele>341.0</ele><time>2026-04-11T16:18:59Z</time></trkpt><trkpt lat="45.759125047765735" lon="9.92674386860347"><ele>340.0</ele><time>2026-04-11T16:19:00Z</time></trkpt><trkpt lat="45.75902096704701" lon="9.92652223660617"><ele>340.0</ele><time>2026-04-11T16:19:01Z</time></trkpt><trkpt lat="45.758920041487926" lon="9.926303250296774"><ele>340.0</ele><time>2026-04-11T16:19:02Z</time></trkpt><trkpt lat="45.75884436893646" lon="9.92609110383553"><ele>340.0</ele><time>2026-04-11T16:19:03Z</time></trkpt><trkpt lat="45.75875601800677" lon="9.925925186738978"><ele>338.5</ele><time>2026-04-11T16:19:04Z</time></trkpt><trkpt lat="45.7586907502436" lon="9.925767043823308"><ele>337.0</ele><time>2026-04-11T16:19:05Z</time></trkpt><trkpt lat="45.75863813554927" lon="9.92559951387188"><ele>335.5</ele><time>2026-04-11T16:19:06Z</time></trkpt><trkpt lat="45.75860670024819" lon="9.925429803819654"><ele>334.0</ele><time>2026-04-11T16:19:07Z</time></trkpt><trkpt lat="45.75856856874978" lon="9.92528732905093"><ele>334.0</ele><time>2026-04-11T16:19:08Z</time></trkpt><trkpt lat="45.758535265407616" lon="9.925180914213273"><ele>334.0</ele><time>2026-04-11T16:19:09Z</time></trkpt><trkpt lat="45.758481057608165" lon="9.925096966863565"><ele>334.0</ele><time>2026-04-11T16:19:10Z</time></trkpt><trkpt lat="45.75844454961293" lon="9.924964315935192"><ele>334.0</ele><time>2026-04-11T16:19:12Z</time></trkpt><trkpt lat="45.75843052720886" lon="9.924827156327241"><ele>334.0</ele><time>2026-04-11T16:19:13Z</time></trkpt><trkpt lat="45.75841187356939" lon="9.92465368342619"><ele>336.25</ele><time>2026-04-11T16:19:14Z</time></trkpt><trkpt lat="45.75839032994415" lon="9.92448049597762"><ele>338.5</ele><time>2026-04-11T16:19:15Z</time></trkpt><trkpt lat="45.758353713810365" lon="9.924249470660959"><ele>340.75</ele><time>2026-04-11T16:19:16Z</time></trkpt><trkpt lat="45.758287042386065" lon="9.92405571905249"><ele>343.0</ele><time>2026-04-11T16:19:17Z</time></trkpt><trkpt lat="45.758237523323814" lon="9.923836952080999"><ele>343.0</ele><time>2026-04-11T16:19:18Z</time></trkpt><trkpt lat="45.75818265648296" lon="9.923667816133305"><ele>343.0</ele><time>2026-04-11T16:19:19Z</time></trkpt><trkpt lat="45.758116304958925" lon="9.923480463432238"><ele>343.0</ele><time>2026-04-11T16:19:20Z</time></trkpt><trkpt lat="45.75803383080796" lon="9.923343241699573"><ele>343.0</ele><time>2026-04-11T16:19:21Z</time></trkpt><trkpt lat="45.7579394584668" lon="9.923230729796783"><ele>342.3333333333333</ele><time>2026-04-11T16:19:22Z</time></trkpt><trkpt lat="45.75779066170024" lon="9.923075065065921"><ele>341.6666666666667</ele><time>2026-04-11T16:19:23Z</time></trkpt><trkpt lat="45.75768526095116" lon="9.922966402009216"><ele>341.0</ele><time>2026-04-11T16:19:24Z</time></trkpt><trkpt lat="45.75756906679136" lon="9.922828749051773"><ele>342.5</ele><time>2026-04-11T16:19:25Z</time></trkpt><trkpt lat="45.75748279773542" lon="9.922688103944488"><ele>344.0</ele><time>2026-04-11T16:19:26Z</time></trkpt><trkpt lat="45.75740699705404" lon="9.922500740028047"><ele>345.5</ele><time>2026-04-11T16:19:27Z</time></trkpt><trkpt lat="45.75734246355099" lon="9.922297232841164"><ele>347.0</ele><time>2026-04-11T16:19:28Z</time></trkpt><trkpt lat="45.75726982409669" lon="9.922056623999952"><ele>347.0</ele><time>2026-04-11T16:19:29Z</time></trkpt><trkpt lat="45.75719504295045" lon="9.921804348962226"><ele>347.0</ele><time>2026-04-11T16:19:30Z</time></trkpt><trkpt lat="45.75712407090331" lon="9.921564922992179"><ele>347.0</ele><time>2026-04-11T16:19:31Z</time></trkpt><trkpt lat="45.757051872725825" lon="9.921319767848685"><ele>347.0</ele><time>2026-04-11T16:19:31.999Z</time></trkpt><trkpt lat="45.75698476173927" lon="9.92108522411864"><ele>347.0</ele><time>2026-04-11T16:19:32.999Z</time></trkpt><trkpt lat="45.7569376356701" lon="9.920866907136377"><ele>347.0</ele><time>2026-04-11T16:19:33.999Z</time></trkpt><trkpt lat="45.75692190341053" lon="9.920748132289651"><ele>347.0</ele><time>2026-04-11T16:19:34.999Z</time></trkpt><trkpt lat="45.75692731209173" lon="9.920563059699854"><ele>347.0</ele><time>2026-04-11T16:19:35.999Z</time></trkpt><trkpt lat="45.7569520810285" lon="9.920343120603803"><ele>347.0</ele><time>2026-04-11T16:19:36.999Z</time></trkpt><trkpt lat="45.75698331063062" lon="9.92012205247026"><ele>347.0</ele><time>2026-04-11T16:19:37.999Z</time></trkpt><trkpt lat="45.757016922763036" lon="9.919886429420927"><ele>346.6666666666667</ele><time>2026-04-11T16:19:38.999Z</time></trkpt><trkpt lat="45.7570492506805" lon="9.919664628266615"><ele>346.3333333333333</ele><time>2026-04-11T16:19:40Z</time></trkpt><trkpt lat="45.7570825021276" lon="9.919458879086136"><ele>346.0</ele><time>2026-04-11T16:19:41Z</time></trkpt><trkpt lat="45.75709984379334" lon="9.919210404314097"><ele>346.0</ele><time>2026-04-11T16:19:42Z</time></trkpt><trkpt lat="45.7570787150399" lon="9.918977376005794"><ele>346.0</ele><time>2026-04-11T16:19:43Z</time></trkpt><trkpt lat="45.75701886727468" lon="9.918746337868555"><ele>346.0</ele><time>2026-04-11T16:19:44Z</time></trkpt><trkpt lat="45.75692550284346" lon="9.918509860483804"><ele>344.0</ele><time>2026-04-11T16:19:45Z</time></trkpt><trkpt lat="45.756824526297926" lon="9.918252963271726"><ele>342.0</ele><time>2026-04-11T16:19:46Z</time></trkpt><trkpt lat="45.756730471567735" lon="9.917987642502316"><ele>340.0</ele><time>2026-04-11T16:19:47Z</time></trkpt><trkpt lat="45.75664414224773" lon="9.917781431509963"><ele>339.3333333333333</ele><time>2026-04-11T16:19:48Z</time></trkpt><trkpt lat="45.7565287961343" lon="9.91755286802104"><ele>338.6666666666667</ele><time>2026-04-11T16:19:49Z</time></trkpt><trkpt lat="45.75641670570715" lon="9.917310343067292"><ele>338.0</ele><time>2026-04-11T16:19:50Z</time></trkpt><trkpt lat="45.75634099719782" lon="9.917084872801656"><ele>338.0</ele><time>2026-04-11T16:19:51Z</time></trkpt><trkpt lat="45.75625645243645" lon="9.916857178283013"><ele>338.0</ele><time>2026-04-11T16:19:52Z</time></trkpt><trkpt lat="45.7561854227753" lon="9.91661146023309"><ele>338.0</ele><time>2026-04-11T16:19:53Z</time></trkpt><trkpt lat="45.75611701496832" lon="9.91635688092219"><ele>338.0</ele><time>2026-04-11T16:19:54Z</time></trkpt><trkpt lat="45.756042659693904" lon="9.916131237959574"><ele>338.0</ele><time>2026-04-11T16:19:55Z</time></trkpt><trkpt lat="45.7559672373123" lon="9.915910171448006"><ele>338.0</ele><time>2026-04-11T16:19:56Z</time></trkpt><trkpt lat="45.755889725539404" lon="9.915684172797862"><ele>337.75</ele><time>2026-04-11T16:19:57Z</time></trkpt><trkpt lat="45.755810388915236" lon="9.915480331012455"><ele>337.5</ele><time>2026-04-11T16:19:58Z</time></trkpt><trkpt lat="45.75573970046356" lon="9.9153054918918"><ele>337.25</ele><time>2026-04-11T16:19:59Z</time></trkpt><trkpt lat="45.75568196800801" lon="9.915164482207665"><ele>337.0</ele><time>2026-04-11T16:20:00Z</time></trkpt><trkpt lat="45.75562566521418" lon="9.915009144689131"><ele>337.0</ele><time>2026-04-11T16:20:01Z</time></trkpt><trkpt lat="45.755572413539355" lon="9.914839381135119"><ele>337.0</ele><time>2026-04-11T16:20:02Z</time></trkpt><trkpt lat="45.7554929449024" lon="9.91465850498471"><ele>337.0</ele><time>2026-04-11T16:20:03Z</time></trkpt><trkpt lat="45.75539494243352" lon="9.914444821775584"><ele>337.0</ele><time>2026-04-11T16:20:04Z</time></trkpt><trkpt lat="45.755312227784515" lon="9.914244452936586"><ele>337.0</ele><time>2026-04-11T16:20:05Z</time></trkpt><trkpt lat="45.755221126285385" lon="9.914045550305136"><ele>337.0</ele><time>2026-04-11T16:20:06Z</time></trkpt><trkpt lat="45.75514325345143" lon="9.913851961082354"><ele>337.25</ele><time>2026-04-11T16:20:07Z</time></trkpt><trkpt lat="45.75508112267763" lon="9.91366818514006"><ele>337.5</ele><time>2026-04-11T16:20:08Z</time></trkpt><trkpt lat="45.7550330559135" lon="9.913491288263359"><ele>337.75</ele><time>2026-04-11T16:20:09Z</time></trkpt><trkpt lat="45.75497664032829" lon="9.913280183558227"><ele>338.0</ele><time>2026-04-11T16:20:10Z</time></trkpt><trkpt lat="45.75492618708518" lon="9.91306005643218"><ele>338.0</ele><time>2026-04-11T16:20:11Z</time></trkpt><trkpt lat="45.75487919625408" lon="9.9128358187768"><ele>338.0</ele><time>2026-04-11T16:20:12Z</time></trkpt><trkpt lat="45.75482194725343" lon="9.912632203409663"><ele>338.0</ele><time>2026-04-11T16:20:13Z</time></trkpt><trkpt lat="45.754807675534046" lon="9.912445538546425"><ele>338.0</ele><time>2026-04-11T16:20:14Z</time></trkpt><trkpt lat="45.75476660710749" lon="9.912279998062155"><ele>338.0</ele><time>2026-04-11T16:20:15Z</time></trkpt><trkpt lat="45.7547331927764" lon="9.912131239535382"><ele>338.0</ele><time>2026-04-11T16:20:16Z</time></trkpt><trkpt lat="45.754702741731315" lon="9.911974242876482"><ele>338.0</ele><time>2026-04-11T16:20:17Z</time></trkpt><trkpt lat="45.75467321818951" lon="9.911837166528203"><ele>338.0</ele><time>2026-04-11T16:20:18Z</time></trkpt><trkpt lat="45.75464362410869" lon="9.911712728647526"><ele>338.0</ele><time>2026-04-11T16:20:19Z</time></trkpt><trkpt lat="45.75464529882696" lon="9.911619625664208"><ele>338.0</ele><time>2026-04-11T16:20:21Z</time></trkpt><trkpt lat="45.754598254072874" lon="9.911408393720178"><ele>338.0</ele><time>2026-04-11T16:21:06Z</time></trkpt><trkpt lat="45.754501476541954" lon="9.911281540362802"><ele>338.0</ele><time>2026-04-11T16:21:07Z</time></trkpt><trkpt lat="45.75440703059614" lon="9.911169239583101"><ele>338.0</ele><time>2026-04-11T16:21:08Z</time></trkpt><trkpt lat="45.754328584223025" lon="9.911039659588516"><ele>337.6666666666667</ele><time>2026-04-11T16:21:09Z</time></trkpt><trkpt lat="45.75422062987491" lon="9.91089665352341"><ele>337.3333333333333</ele><time>2026-04-11T16:21:10Z</time></trkpt><trkpt lat="45.75410449815359" lon="9.910756319932604"><ele>337.0</ele><time>2026-04-11T16:21:11Z</time></trkpt><trkpt lat="45.753977287950725" lon="9.910631171349971"><ele>337.0</ele><time>2026-04-11T16:21:12Z</time></trkpt><trkpt lat="45.75384369018162" lon="9.91047926243292"><ele>337.0</ele><time>2026-04-11T16:21:13Z</time></trkpt><trkpt lat="45.75370047832975" lon="9.910318244988325"><ele>337.0</ele><time>2026-04-11T16:21:14Z</time></trkpt><trkpt lat="45.753558574505135" lon="9.910158698126857"><ele>336.5</ele><time>2026-04-11T16:21:15Z</time></trkpt><trkpt lat="45.75345830858276" lon="9.910045966203368"><ele>336.0</ele><time>2026-04-11T16:21:16Z</time></trkpt><trkpt lat="45.75338267506329" lon="9.909962340998849"><ele>335.5</ele><time>2026-04-11T16:21:17Z</time></trkpt><trkpt lat="45.7532884545106" lon="9.90985915512137"><ele>335.0</ele><time>2026-04-11T16:21:18Z</time></trkpt><trkpt lat="45.75319250055897" lon="9.90972920910564"><ele>335.0</ele><time>2026-04-11T16:21:19Z</time></trkpt><trkpt lat="45.7530927887466" lon="9.909642555216337"><ele>335.0</ele><time>2026-04-11T16:21:20Z</time></trkpt><trkpt lat="45.75296625511971" lon="9.909534760564329"><ele>335.0</ele><time>2026-04-11T16:21:21Z</time></trkpt><trkpt lat="45.75282793574156" lon="9.909477339982809"><ele>335.0</ele><time>2026-04-11T16:21:22Z</time></trkpt><trkpt lat="45.75269942784727" lon="9.909425292739096"><ele>335.2</ele><time>2026-04-11T16:21:23Z</time></trkpt><trkpt lat="45.75259539746815" lon="9.909370727807868"><ele>335.4</ele><time>2026-04-11T16:21:24Z</time></trkpt><trkpt lat="45.75250032078401" lon="9.90932456389872"><ele>335.6</ele><time>2026-04-11T16:21:25Z</time></trkpt><trkpt lat="45.752411524080856" lon="9.909315810850815"><ele>335.8</ele><time>2026-04-11T16:21:26Z</time></trkpt><trkpt lat="45.7523367086699" lon="9.909282506118428"><ele>336.0</ele><time>2026-04-11T16:21:27Z</time></trkpt><trkpt lat="45.75221796004972" lon="9.909211415890637"><ele>336.0</ele><time>2026-04-11T16:21:29Z</time></trkpt><trkpt lat="45.75214990566437" lon="9.909184058845556"><ele>336.0</ele><time>2026-04-11T16:21:30Z</time></trkpt><trkpt lat="45.75208237758912" lon="9.909174623375778"><ele>336.0</ele><time>2026-04-11T16:21:31Z</time></trkpt><trkpt lat="45.751990589568706" lon="9.909172424472185"><ele>336.0</ele><time>2026-04-11T16:21:32Z</time></trkpt><trkpt lat="45.75193733864602" lon="9.909085061109522"><ele>336.0</ele><time>2026-04-11T16:21:33Z</time></trkpt><trkpt lat="45.75187203977193" lon="9.909068038286657"><ele>336.0</ele><time>2026-04-11T16:21:34Z</time></trkpt><trkpt lat="45.751809747280525" lon="9.9090437973289"><ele>336.0</ele><time>2026-04-11T16:21:35Z</time></trkpt><trkpt lat="45.75174357837719" lon="9.909008644625587"><ele>336.1666666666667</ele><time>2026-04-11T16:21:36Z</time></trkpt><trkpt lat="45.751680603457295" lon="9.90898895590149"><ele>336.3333333333333</ele><time>2026-04-11T16:21:37Z</time></trkpt><trkpt lat="45.75161954959854" lon="9.908950171049648"><ele>336.5</ele><time>2026-04-11T16:21:38Z</time></trkpt><trkpt lat="45.75152005389291" lon="9.908899407917515"><ele>336.66666666666663</ele><time>2026-04-11T16:21:39Z</time></trkpt><trkpt lat="45.75142725154453" lon="9.90883863110591"><ele>336.8333333333333</ele><time>2026-04-11T16:21:40Z</time></trkpt><trkpt lat="45.75132969382955" lon="9.90880042247302"><ele>337.0</ele><time>2026-04-11T16:21:41Z</time></trkpt><trkpt lat="45.751225975593265" lon="9.908755112095038"><ele>337.0</ele><time>2026-04-11T16:21:42Z</time></trkpt><trkpt lat="45.751157526942336" lon="9.908759257930909"><ele>337.0</ele><time>2026-04-11T16:21:44Z</time></trkpt><trkpt lat="45.7510767260352" lon="9.908758040656254"><ele>337.0</ele><time>2026-04-11T16:21:47Z</time></trkpt><trkpt lat="45.75099932412366" lon="9.908728845380093"><ele>337.0</ele><time>2026-04-11T16:21:48Z</time></trkpt><trkpt lat="45.75090567302442" lon="9.90867444935641"><ele>337.0</ele><time>2026-04-11T16:21:49Z</time></trkpt><trkpt lat="45.75079860574334" lon="9.908629804786159"><ele>337.0</ele><time>2026-04-11T16:21:50Z</time></trkpt><trkpt lat="45.75066785126147" lon="9.908571199851322"><ele>337.3333333333333</ele><time>2026-04-11T16:21:51Z</time></trkpt><trkpt lat="45.750522732489465" lon="9.90850654093978"><ele>337.6666666666667</ele><time>2026-04-11T16:21:52Z</time></trkpt><trkpt lat="45.75035848535902" lon="9.908428262398697"><ele>338.0</ele><time>2026-04-11T16:21:53Z</time></trkpt><trkpt lat="45.750197591537926" lon="9.908355087917847"><ele>338.33333333333337</ele><time>2026-04-11T16:21:54Z</time></trkpt><trkpt lat="45.750017130532235" lon="9.908348008147694"><ele>338.6666666666667</ele><time>2026-04-11T16:21:55Z</time></trkpt><trkpt lat="45.74985170629667" lon="9.908270608208342"><ele>339.0</ele><time>2026-04-11T16:21:56Z</time></trkpt><trkpt lat="45.74966747140594" lon="9.90819362837832"><ele>339.0</ele><time>2026-04-11T16:21:57Z</time></trkpt><trkpt lat="45.74953986175384" lon="9.908213973292185"><ele>339.0</ele><time>2026-04-11T16:21:58Z</time></trkpt><trkpt lat="45.749361796814476" lon="9.908167423127484"><ele>339.0</ele><time>2026-04-11T16:21:59Z</time></trkpt><trkpt lat="45.7491765184256" lon="9.908161393209756"><ele>338.3333333333333</ele><time>2026-04-11T16:22:00Z</time></trkpt><trkpt lat="45.74899031209516" lon="9.908151135556166"><ele>337.66666666666663</ele><time>2026-04-11T16:22:01Z</time></trkpt><trkpt lat="45.748803545712825" lon="9.908143403788491"><ele>337.0</ele><time>2026-04-11T16:22:02Z</time></trkpt><trkpt lat="45.74862108249666" lon="9.908141586115875"><ele>336.3333333333333</ele><time>2026-04-11T16:22:03Z</time></trkpt><trkpt lat="45.748443297096394" lon="9.908126386909213"><ele>335.6666666666667</ele><time>2026-04-11T16:22:04Z</time></trkpt><trkpt lat="45.748258183733725" lon="9.908132761540957"><ele>335.0</ele><time>2026-04-11T16:22:05Z</time></trkpt><trkpt lat="45.748083495284426" lon="9.908123447467704"><ele>335.0</ele><time>2026-04-11T16:22:06Z</time></trkpt><trkpt lat="45.74789548389953" lon="9.908127505378744"><ele>335.0</ele><time>2026-04-11T16:22:07Z</time></trkpt><trkpt lat="45.74771038790272" lon="9.908134568930775"><ele>335.0</ele><time>2026-04-11T16:22:08Z</time></trkpt><trkpt lat="45.747523831604404" lon="9.90814161746703"><ele>334.33333333333337</ele><time>2026-04-11T16:22:09Z</time></trkpt><trkpt lat="45.74733332826919" lon="9.908177445893973"><ele>333.6666666666667</ele><time>2026-04-11T16:22:10Z</time></trkpt><trkpt lat="45.74713895739465" lon="9.908239758682466"><ele>333.0</ele><time>2026-04-11T16:22:11Z</time></trkpt><trkpt lat="45.74694720748106" lon="9.908318034533089"><ele>332.3333333333333</ele><time>2026-04-11T16:22:12Z</time></trkpt><trkpt lat="45.74675414463151" lon="9.908395219162351"><ele>331.66666666666663</ele><time>2026-04-11T16:22:13Z</time></trkpt><trkpt lat="45.746569563884485" lon="9.908490836769381"><ele>331.0</ele><time>2026-04-11T16:22:14Z</time></trkpt><trkpt lat="45.74638517262307" lon="9.908575506611639"><ele>331.0</ele><time>2026-04-11T16:22:15Z</time></trkpt><trkpt lat="45.74620978881844" lon="9.908648847557597"><ele>331.0</ele><time>2026-04-11T16:22:16Z</time></trkpt><trkpt lat="45.746042911619696" lon="9.908711628279688"><ele>331.0</ele><time>2026-04-11T16:22:17Z</time></trkpt><trkpt lat="45.74586911835807" lon="9.90878266400701"><ele>331.0</ele><time>2026-04-11T16:22:18Z</time></trkpt><trkpt lat="45.74571433381249" lon="9.908858198530696"><ele>331.0</ele><time>2026-04-11T16:22:19Z</time></trkpt><trkpt lat="45.7455426950242" lon="9.908930701024921"><ele>331.0</ele><time>2026-04-11T16:22:20Z</time></trkpt><trkpt lat="45.74538146943086" lon="9.908993632603845"><ele>330.66666666666663</ele><time>2026-04-11T16:22:21Z</time></trkpt><trkpt lat="45.74521107700656" lon="9.909042749913556"><ele>330.3333333333333</ele><time>2026-04-11T16:22:22Z</time></trkpt><trkpt lat="45.74504208193386" lon="9.909072142309748"><ele>330.0</ele><time>2026-04-11T16:22:23Z</time></trkpt><trkpt lat="45.74486690184706" lon="9.909063782447637"><ele>330.0</ele><time>2026-04-11T16:22:24Z</time></trkpt><trkpt lat="45.74468942786457" lon="9.909056581046249"><ele>330.0</ele><time>2026-04-11T16:22:25Z</time></trkpt><trkpt lat="45.74451278414096" lon="9.909034979047203"><ele>330.0</ele><time>2026-04-11T16:22:26Z</time></trkpt><trkpt lat="45.74434107897779" lon="9.908989506974654"><ele>329.0</ele><time>2026-04-11T16:22:27Z</time></trkpt><trkpt lat="45.74415898728716" lon="9.908929539621804"><ele>328.0</ele><time>2026-04-11T16:22:28Z</time></trkpt><trkpt lat="45.74398162983139" lon="9.908843604560563"><ele>327.0</ele><time>2026-04-11T16:22:29Z</time></trkpt><trkpt lat="45.74380076660715" lon="9.908782306464646"><ele>327.0</ele><time>2026-04-11T16:22:30Z</time></trkpt><trkpt lat="45.74361328158645" lon="9.908722846008237"><ele>327.0</ele><time>2026-04-11T16:22:31Z</time></trkpt><trkpt lat="45.743432107020745" lon="9.908655566354692"><ele>327.0</ele><time>2026-04-11T16:22:32Z</time></trkpt><trkpt lat="45.74325171452637" lon="9.908595712200075"><ele>327.0</ele><time>2026-04-11T16:22:33Z</time></trkpt><trkpt lat="45.7430741357248" lon="9.908540553915378"><ele>327.0</ele><time>2026-04-11T16:22:34Z</time></trkpt><trkpt lat="45.74291306642967" lon="9.908469499625058"><ele>327.0</ele><time>2026-04-11T16:22:35Z</time></trkpt><trkpt lat="45.742759486855384" lon="9.908415493773582"><ele>326.3333333333333</ele><time>2026-04-11T16:22:36Z</time></trkpt><trkpt lat="45.74261192777265" lon="9.908356151544575"><ele>325.66666666666663</ele><time>2026-04-11T16:22:37Z</time></trkpt><trkpt lat="45.742445370346054" lon="9.908309036310701"><ele>325.0</ele><time>2026-04-11T16:22:38Z</time></trkpt><trkpt lat="45.742274383227894" lon="9.908261582197994"><ele>325.0</ele><time>2026-04-11T16:22:39Z</time></trkpt><trkpt lat="45.742103747027066" lon="9.908199239761167"><ele>325.0</ele><time>2026-04-11T16:22:40Z</time></trkpt><trkpt lat="45.74192149391319" lon="9.90813967578171"><ele>325.0</ele><time>2026-04-11T16:22:41Z</time></trkpt><trkpt lat="45.74174396077283" lon="9.908068738215075"><ele>324.66666666666663</ele><time>2026-04-11T16:22:42Z</time></trkpt><trkpt lat="45.74156990452" lon="9.907991427018118"><ele>324.3333333333333</ele><time>2026-04-11T16:22:43Z</time></trkpt><trkpt lat="45.74138976098599" lon="9.907908553444935"><ele>324.0</ele><time>2026-04-11T16:22:44Z</time></trkpt><trkpt lat="45.74121309482678" lon="9.907835953397615"><ele>323.6666666666667</ele><time>2026-04-11T16:22:45Z</time></trkpt><trkpt lat="45.74104483086545" lon="9.907749116653495"><ele>323.33333333333337</ele><time>2026-04-11T16:22:46Z</time></trkpt><trkpt lat="45.7408790881629" lon="9.907642625879252"><ele>323.0</ele><time>2026-04-11T16:22:47Z</time></trkpt><trkpt lat="45.74074109929288" lon="9.907493944686511"><ele>322.75</ele><time>2026-04-11T16:22:48Z</time></trkpt><trkpt lat="45.740596034385845" lon="9.907393900679768"><ele>322.5</ele><time>2026-04-11T16:22:49Z</time></trkpt><trkpt lat="45.74046922133346" lon="9.907314394809339"><ele>322.25</ele><time>2026-04-11T16:22:50Z</time></trkpt><trkpt lat="45.740357654020904" lon="9.907235374832126"><ele>322.0</ele><time>2026-04-11T16:22:51Z</time></trkpt><trkpt lat="45.74025269505134" lon="9.907167232038002"><ele>322.0</ele><time>2026-04-11T16:22:52Z</time></trkpt><trkpt lat="45.740163305442614" lon="9.907130264747233"><ele>322.0</ele><time>2026-04-11T16:22:53Z</time></trkpt><trkpt lat="45.74009772458501" lon="9.907065891422087"><ele>322.0</ele><time>2026-04-11T16:22:54Z</time></trkpt><trkpt lat="45.74002203932542" lon="9.907010171884208"><ele>322.0</ele><time>2026-04-11T16:22:55Z</time></trkpt><trkpt lat="45.739957893566846" lon="9.906951590224827"><ele>322.0</ele><time>2026-04-11T16:22:56Z</time></trkpt><trkpt lat="45.73988123497345" lon="9.906902159809029"><ele>322.0</ele><time>2026-04-11T16:22:57Z</time></trkpt><trkpt lat="45.73980934422122" lon="9.906829023033787"><ele>322.0</ele><time>2026-04-11T16:22:58Z</time></trkpt><trkpt lat="45.739718929097535" lon="9.90681515748544"><ele>322.0</ele><time>2026-04-11T16:22:59Z</time></trkpt><trkpt lat="45.739627033444386" lon="9.906818492581298"><ele>322.0</ele><time>2026-04-11T16:23:00Z</time></trkpt><trkpt lat="45.7395287566158" lon="9.906810064222954"><ele>322.0</ele><time>2026-04-11T16:23:01Z</time></trkpt><trkpt lat="45.73940556029086" lon="9.9067351196547"><ele>322.0</ele><time>2026-04-11T16:23:02Z</time></trkpt><trkpt lat="45.739250288460745" lon="9.906630795561293"><ele>321.0</ele><time>2026-04-11T16:23:03Z</time></trkpt><trkpt lat="45.73907715338148" lon="9.906523957839415"><ele>320.0</ele><time>2026-04-11T16:23:04Z</time></trkpt><trkpt lat="45.738898639604464" lon="9.90642156583615"><ele>319.0</ele><time>2026-04-11T16:23:05Z</time></trkpt><trkpt lat="45.73869842677268" lon="9.906320963091067"><ele>319.3333333333333</ele><time>2026-04-11T16:23:06Z</time></trkpt><trkpt lat="45.738509323342086" lon="9.906221949341754"><ele>319.6666666666667</ele><time>2026-04-11T16:23:07Z</time></trkpt><trkpt lat="45.73831989187246" lon="9.90616216480663"><ele>320.0</ele><time>2026-04-11T16:23:08Z</time></trkpt><trkpt lat="45.73812609234506" lon="9.906126845691212"><ele>320.0</ele><time>2026-04-11T16:23:09Z</time></trkpt><trkpt lat="45.73792541901848" lon="9.906115206275265"><ele>320.0</ele><time>2026-04-11T16:23:10Z</time></trkpt><trkpt lat="45.737741650725766" lon="9.906034430231754"><ele>320.0</ele><time>2026-04-11T16:23:11Z</time></trkpt><trkpt lat="45.73754441394865" lon="9.906055946796155"><ele>319.33333333333337</ele><time>2026-04-11T16:23:12Z</time></trkpt><trkpt lat="45.737362222646226" lon="9.906069837546585"><ele>318.6666666666667</ele><time>2026-04-11T16:23:13Z</time></trkpt><trkpt lat="45.73717952312296" lon="9.906045320337354"><ele>318.0</ele><time>2026-04-11T16:23:14Z</time></trkpt><trkpt lat="45.73694988661954" lon="9.90605406077528"><ele>318.3333333333333</ele><time>2026-04-11T16:23:15Z</time></trkpt><trkpt lat="45.73671215376052" lon="9.906074758761418"><ele>318.66666666666663</ele><time>2026-04-11T16:23:16Z</time></trkpt><trkpt lat="45.73653425299867" lon="9.906094907840842"><ele>319.0</ele><time>2026-04-11T16:23:17Z</time></trkpt><trkpt lat="45.73638074805459" lon="9.905997951751583"><ele>319.0</ele><time>2026-04-11T16:23:18Z</time></trkpt><trkpt lat="45.73621505744556" lon="9.90599265865507"><ele>319.0</ele><time>2026-04-11T16:23:19Z</time></trkpt><trkpt lat="45.73605318561243" lon="9.905979484233677"><ele>319.0</ele><time>2026-04-11T16:23:20Z</time></trkpt><trkpt lat="45.73588678230899" lon="9.905938738834443"><ele>318.66666666666663</ele><time>2026-04-11T16:23:21Z</time></trkpt><trkpt lat="45.73571843961097" lon="9.905957999096138"><ele>318.3333333333333</ele><time>2026-04-11T16:23:22Z</time></trkpt><trkpt lat="45.73553275283754" lon="9.906029839798576"><ele>318.0</ele><time>2026-04-11T16:23:23Z</time></trkpt><trkpt lat="45.73536734000059" lon="9.906145772148319"><ele>317.3333333333333</ele><time>2026-04-11T16:23:24Z</time></trkpt><trkpt lat="45.73521602562794" lon="9.906284057290742"><ele>316.66666666666663</ele><time>2026-04-11T16:23:25Z</time></trkpt><trkpt lat="45.73509103263679" lon="9.906426369510882"><ele>316.0</ele><time>2026-04-11T16:23:26Z</time></trkpt><trkpt lat="45.73497558102387" lon="9.906592176345352"><ele>316.0</ele><time>2026-04-11T16:23:27Z</time></trkpt><trkpt lat="45.73485146769302" lon="9.906719178056937"><ele>316.0</ele><time>2026-04-11T16:23:28Z</time></trkpt><trkpt lat="45.73471163330775" lon="9.906844092548912"><ele>316.0</ele><time>2026-04-11T16:23:29Z</time></trkpt><trkpt lat="45.73458378799363" lon="9.9069503881257"><ele>316.0</ele><time>2026-04-11T16:23:30Z</time></trkpt><trkpt lat="45.734450175489606" lon="9.907043032222191"><ele>316.0</ele><time>2026-04-11T16:23:31Z</time></trkpt><trkpt lat="45.73430079573746" lon="9.907111576503937"><ele>316.0</ele><time>2026-04-11T16:23:32Z</time></trkpt><trkpt lat="45.734154545139006" lon="9.907164358768753"><ele>316.0</ele><time>2026-04-11T16:23:33Z</time></trkpt><trkpt lat="45.734015445111986" lon="9.90719506939571"><ele>316.0</ele><time>2026-04-11T16:23:34Z</time></trkpt><trkpt lat="45.733889216329786" lon="9.907224377392003"><ele>316.0</ele><time>2026-04-11T16:23:35Z</time></trkpt><trkpt lat="45.73378867118402" lon="9.907206729215398"><ele>316.0</ele><time>2026-04-11T16:23:36Z</time></trkpt><trkpt lat="45.733718323868935" lon="9.907183345479702"><ele>316.0</ele><time>2026-04-11T16:23:37Z</time></trkpt><trkpt lat="45.73363660456287" lon="9.907134297104347"><ele>316.0</ele><time>2026-04-11T16:23:39Z</time></trkpt><trkpt lat="45.7335626709521" lon="9.90721538632842"><ele>316.0</ele><time>2026-04-11T16:23:42Z</time></trkpt><trkpt lat="45.733476889625976" lon="9.907480219381112"><ele>316.0</ele><time>2026-04-11T16:23:44Z</time></trkpt><trkpt lat="45.73347486264513" lon="9.907649360332439"><ele>316.0</ele><time>2026-04-11T16:23:46Z</time></trkpt><trkpt lat="45.733609509005014" lon="9.90781023539582"><ele>315.5</ele><time>2026-04-11T16:23:48Z</time></trkpt><trkpt lat="45.73361508534224" lon="9.907934352484851"><ele>315.0</ele><time>2026-04-11T16:23:51Z</time></trkpt><trkpt lat="45.73364334262559" lon="9.908018943957781"><ele>314.5</ele><time>2026-04-11T16:23:53Z</time></trkpt><trkpt lat="45.733475456082246" lon="9.908041322070355"><ele>314.0</ele><time>2026-04-11T16:23:55Z</time></trkpt><trkpt lat="45.73357314097635" lon="9.907881674602338"><ele>314.0</ele><time>2026-04-11T16:28:02Z</time></trkpt><trkpt lat="45.73353326739008" lon="9.907959617402925"><ele>314.0</ele><time>2026-04-11T16:28:10Z</time></trkpt><trkpt lat="45.733493192079976" lon="9.907888676419695"><ele>314.0</ele><time>2026-04-11T16:28:12Z</time></trkpt><trkpt lat="45.733515658354655" lon="9.907784210321479"><ele>314.0</ele><time>2026-04-11T16:28:14Z</time></trkpt><trkpt lat="45.73351142461788" lon="9.907614816425735"><ele>314.0</ele><time>2026-04-11T16:28:16Z</time></trkpt><trkpt lat="45.73351489591104" lon="9.90752070260074"><ele>314.0</ele><time>2026-04-11T16:28:17Z</time></trkpt><trkpt lat="45.7335188639378" lon="9.907366660395375"><ele>313.8</ele><time>2026-04-11T16:28:19Z</time></trkpt><trkpt lat="45.73351517062218" lon="9.907269001890288"><ele>313.59999999999997</ele><time>2026-04-11T16:28:21Z</time></trkpt><trkpt lat="45.73340719029274" lon="9.907186666689164"><ele>313.4</ele><time>2026-04-11T16:28:34Z</time></trkpt><trkpt lat="45.73328082563593" lon="9.907165009330871"><ele>313.2</ele><time>2026-04-11T16:28:35Z</time></trkpt><trkpt lat="45.73316200992693" lon="9.907138751296984"><ele>313.0</ele><time>2026-04-11T16:28:36Z</time></trkpt><trkpt lat="45.73302598079179" lon="9.907139990737988"><ele>313.0</ele><time>2026-04-11T16:28:37Z</time></trkpt><trkpt lat="45.732883769180226" lon="9.9071278457756"><ele>313.0</ele><time>2026-04-11T16:28:38Z</time></trkpt><trkpt lat="45.73272231635504" lon="9.907104922500858"><ele>313.0</ele><time>2026-04-11T16:28:39Z</time></trkpt><trkpt lat="45.73255891875091" lon="9.907075369954814"><ele>312.66666666666663</ele><time>2026-04-11T16:28:40Z</time></trkpt><trkpt lat="45.73237476257049" lon="9.907049630952878"><ele>312.3333333333333</ele><time>2026-04-11T16:28:41Z</time></trkpt><trkpt lat="45.7321818365103" lon="9.90702407988421"><ele>312.0</ele><time>2026-04-11T16:28:42Z</time></trkpt><trkpt lat="45.731935932292565" lon="9.906914581698365"><ele>312.0</ele><time>2026-04-11T16:28:43Z</time></trkpt><trkpt lat="45.73173695218936" lon="9.906942693889782"><ele>312.0</ele><time>2026-04-11T16:28:44Z</time></trkpt><trkpt lat="45.73155142531462" lon="9.906963682145001"><ele>312.0</ele><time>2026-04-11T16:28:45Z</time></trkpt><trkpt lat="45.73136922086516" lon="9.906940788502833"><ele>312.0</ele><time>2026-04-11T16:28:46Z</time></trkpt><trkpt lat="45.73121001331018" lon="9.906858477992827"><ele>312.0</ele><time>2026-04-11T16:28:47Z</time></trkpt><trkpt lat="45.73106794412344" lon="9.906787236912505"><ele>312.0</ele><time>2026-04-11T16:28:48Z</time></trkpt><trkpt lat="45.730965502400835" lon="9.906719874279917"><ele>312.0</ele><time>2026-04-11T16:28:49Z</time></trkpt><trkpt lat="45.73085056118329" lon="9.90663374860047"><ele>312.0</ele><time>2026-04-11T16:28:50Z</time></trkpt><trkpt lat="45.73074833848404" lon="9.906547175500743"><ele>312.0</ele><time>2026-04-11T16:28:51Z</time></trkpt><trkpt lat="45.730647371057486" lon="9.906446492640654"><ele>312.0</ele><time>2026-04-11T16:28:52Z</time></trkpt><trkpt lat="45.73056067520377" lon="9.906338790398692"><ele>312.0</ele><time>2026-04-11T16:28:53Z</time></trkpt><trkpt lat="45.73048563574309" lon="9.906235966679612"><ele>312.0</ele><time>2026-04-11T16:28:54Z</time></trkpt><trkpt lat="45.730409902852145" lon="9.906123514582598"><ele>312.0</ele><time>2026-04-11T16:28:55Z</time></trkpt><trkpt lat="45.73033351769081" lon="9.906003404555952"><ele>312.0</ele><time>2026-04-11T16:28:56Z</time></trkpt><trkpt lat="45.73025704672237" lon="9.905881769529316"><ele>312.0</ele><time>2026-04-11T16:28:57Z</time></trkpt><trkpt lat="45.730172879438136" lon="9.905745158622008"><ele>311.75</ele><time>2026-04-11T16:28:58Z</time></trkpt><trkpt lat="45.730071487792756" lon="9.905588500698684"><ele>311.5</ele><time>2026-04-11T16:28:59Z</time></trkpt><trkpt lat="45.72997922486495" lon="9.905450601715327"><ele>311.25</ele><time>2026-04-11T16:29:00Z</time></trkpt><trkpt lat="45.72989263653888" lon="9.90530289414316"><ele>311.0</ele><time>2026-04-11T16:29:01Z</time></trkpt><trkpt lat="45.729804098507834" lon="9.905165399480198"><ele>311.25</ele><time>2026-04-11T16:29:02Z</time></trkpt><trkpt lat="45.72971602695178" lon="9.905027267760559"><ele>311.5</ele><time>2026-04-11T16:29:03Z</time></trkpt><trkpt lat="45.72962905651234" lon="9.904887252257902"><ele>311.75</ele><time>2026-04-11T16:29:04Z</time></trkpt><trkpt lat="45.729542384262196" lon="9.904747125888159"><ele>312.0</ele><time>2026-04-11T16:29:05Z</time></trkpt><trkpt lat="45.72945411265644" lon="9.904604997006423"><ele>311.5</ele><time>2026-04-11T16:29:06Z</time></trkpt><trkpt lat="45.7293673656546" lon="9.904457319279505"><ele>311.0</ele><time>2026-04-11T16:29:07Z</time></trkpt><trkpt lat="45.729278973701554" lon="9.904310566346968"><ele>310.5</ele><time>2026-04-11T16:29:08Z</time></trkpt><trkpt lat="45.729184162436844" lon="9.9041581163666"><ele>310.0</ele><time>2026-04-11T16:29:09Z</time></trkpt><trkpt lat="45.729074618411836" lon="9.903999600079356"><ele>312.0</ele><time>2026-04-11T16:29:10Z</time></trkpt><trkpt lat="45.72897175599599" lon="9.903831124073474"><ele>314.0</ele><time>2026-04-11T16:29:11Z</time></trkpt><trkpt lat="45.72886347497172" lon="9.90367495703508"><ele>316.0</ele><time>2026-04-11T16:29:12Z</time></trkpt><trkpt lat="45.72875760738707" lon="9.903522419857694"><ele>316.75</ele><time>2026-04-11T16:29:13Z</time></trkpt><trkpt lat="45.728681683511105" lon="9.90335449877403"><ele>317.5</ele><time>2026-04-11T16:29:14Z</time></trkpt><trkpt lat="45.72858454696023" lon="9.903201622199868"><ele>318.25</ele><time>2026-04-11T16:29:15Z</time></trkpt><trkpt lat="45.72850314697638" lon="9.903026601953703"><ele>319.0</ele><time>2026-04-11T16:29:16Z</time></trkpt><trkpt lat="45.72840742021658" lon="9.90290601697409"><ele>319.0</ele><time>2026-04-11T16:29:17Z</time></trkpt><trkpt lat="45.72829749647122" lon="9.902767622490169"><ele>319.0</ele><time>2026-04-11T16:29:18Z</time></trkpt><trkpt lat="45.72815616151499" lon="9.902711801904456"><ele>319.0</ele><time>2026-04-11T16:29:19Z</time></trkpt><trkpt lat="45.728004464681945" lon="9.902640641767814"><ele>317.75</ele><time>2026-04-11T16:29:20Z</time></trkpt><trkpt lat="45.72788295573201" lon="9.902557472506158"><ele>316.5</ele><time>2026-04-11T16:29:21Z</time></trkpt><trkpt lat="45.72777065931339" lon="9.902465100924957"><ele>315.25</ele><time>2026-04-11T16:29:22Z</time></trkpt><trkpt lat="45.72768465898255" lon="9.90230745207094"><ele>314.0</ele><time>2026-04-11T16:29:23Z</time></trkpt><trkpt lat="45.72758092518818" lon="9.902214622210735"><ele>314.0</ele><time>2026-04-11T16:29:24Z</time></trkpt><trkpt lat="45.727466235490965" lon="9.90212250486011"><ele>314.0</ele><time>2026-04-11T16:29:25.001Z</time></trkpt><trkpt lat="45.727349222932524" lon="9.902020177522477"><ele>314.0</ele><time>2026-04-11T16:29:26.001Z</time></trkpt><trkpt lat="45.727231062762726" lon="9.901926466232393"><ele>314.0</ele><time>2026-04-11T16:29:27.001Z</time></trkpt><trkpt lat="45.72711680703543" lon="9.901827838550629"><ele>314.25</ele><time>2026-04-11T16:29:28.001Z</time></trkpt><trkpt lat="45.72699071978767" lon="9.901738779603873"><ele>314.5</ele><time>2026-04-11T16:29:29.001Z</time></trkpt><trkpt lat="45.72687904533095" lon="9.901659107963589"><ele>314.75</ele><time>2026-04-11T16:29:30.001Z</time></trkpt><trkpt lat="45.72675761133349" lon="9.901622559216886"><ele>315.0</ele><time>2026-04-11T16:29:31.001Z</time></trkpt><trkpt lat="45.72665151834924" lon="9.901574542381079"><ele>315.0</ele><time>2026-04-11T16:29:32.001Z</time></trkpt><trkpt lat="45.72652265441271" lon="9.90155041756751"><ele>315.0</ele><time>2026-04-11T16:29:33.001Z</time></trkpt><trkpt lat="45.72638791601197" lon="9.901497068564824"><ele>315.0</ele><time>2026-04-11T16:29:34.001Z</time></trkpt><trkpt lat="45.72623583221446" lon="9.901473636892062"><ele>315.0</ele><time>2026-04-11T16:29:35Z</time></trkpt><trkpt lat="45.72608464719654" lon="9.901434888779972"><ele>313.5</ele><time>2026-04-11T16:29:36Z</time></trkpt><trkpt lat="45.725942040758795" lon="9.9013910197663"><ele>312.0</ele><time>2026-04-11T16:29:37Z</time></trkpt><trkpt lat="45.72581173326036" lon="9.901332962779808"><ele>310.5</ele><time>2026-04-11T16:29:38Z</time></trkpt><trkpt lat="45.725701959100725" lon="9.90122897416274"><ele>309.0</ele><time>2026-04-11T16:29:39Z</time></trkpt><trkpt lat="45.72559879801642" lon="9.901144573994406"><ele>309.0</ele><time>2026-04-11T16:29:40Z</time></trkpt><trkpt lat="45.725514669207755" lon="9.901071810369812"><ele>309.0</ele><time>2026-04-11T16:29:41Z</time></trkpt><trkpt lat="45.72540410420983" lon="9.900976808109492"><ele>309.0</ele><time>2026-04-11T16:29:42Z</time></trkpt><trkpt lat="45.72529202652838" lon="9.900880506027562"><ele>309.0</ele><time>2026-04-11T16:29:43Z</time></trkpt><trkpt lat="45.725179825571914" lon="9.900785087473746"><ele>308.0</ele><time>2026-04-11T16:29:44Z</time></trkpt><trkpt lat="45.72505464618916" lon="9.90070041071585"><ele>307.0</ele><time>2026-04-11T16:29:45Z</time></trkpt><trkpt lat="45.72492505470003" lon="9.90059270886355"><ele>306.0</ele><time>2026-04-11T16:29:46Z</time></trkpt><trkpt lat="45.724786249931924" lon="9.900467947149176"><ele>306.0</ele><time>2026-04-11T16:29:47Z</time></trkpt><trkpt lat="45.724629470485034" lon="9.90033575981146"><ele>306.0</ele><time>2026-04-11T16:29:48Z</time></trkpt><trkpt lat="45.72446878871163" lon="9.900190660119549"><ele>306.0</ele><time>2026-04-11T16:29:49Z</time></trkpt><trkpt lat="45.724288147293926" lon="9.90004377899949"><ele>305.3333333333333</ele><time>2026-04-11T16:29:50Z</time></trkpt><trkpt lat="45.72414279043092" lon="9.899903454201588"><ele>304.66666666666663</ele><time>2026-04-11T16:29:51Z</time></trkpt><trkpt lat="45.723997484975875" lon="9.899771828318919"><ele>304.0</ele><time>2026-04-11T16:29:52Z</time></trkpt><trkpt lat="45.72385147502785" lon="9.89965531806921"><ele>304.0</ele><time>2026-04-11T16:29:53Z</time></trkpt><trkpt lat="45.7237159471918" lon="9.899521684143554"><ele>304.0</ele><time>2026-04-11T16:29:54Z</time></trkpt><trkpt lat="45.723579858339015" lon="9.899401508473272"><ele>304.0</ele><time>2026-04-11T16:29:55Z</time></trkpt><trkpt lat="45.72344521946809" lon="9.899309535996291"><ele>303.75</ele><time>2026-04-11T16:29:56Z</time></trkpt><trkpt lat="45.72332212214907" lon="9.899202328643382"><ele>303.5</ele><time>2026-04-11T16:29:57Z</time></trkpt><trkpt lat="45.723202565588544" lon="9.899128341972276"><ele>303.25</ele><time>2026-04-11T16:29:58Z</time></trkpt><trkpt lat="45.72309977131921" lon="9.899016017854303"><ele>303.0</ele><time>2026-04-11T16:29:59Z</time></trkpt><trkpt lat="45.72299139312039" lon="9.898925992039272"><ele>303.0</ele><time>2026-04-11T16:30:00Z</time></trkpt><trkpt lat="45.72288380535638" lon="9.8988346120365"><ele>303.0</ele><time>2026-04-11T16:30:01Z</time></trkpt><trkpt lat="45.72277395192616" lon="9.898739625589583"><ele>303.0</ele><time>2026-04-11T16:30:02Z</time></trkpt><trkpt lat="45.72266650564046" lon="9.89864752945392"><ele>303.0</ele><time>2026-04-11T16:30:03Z</time></trkpt><trkpt lat="45.72254621605904" lon="9.89853917723648"><ele>302.6666666666667</ele><time>2026-04-11T16:30:04Z</time></trkpt><trkpt lat="45.72242356272222" lon="9.898425113920169"><ele>302.33333333333337</ele><time>2026-04-11T16:30:05Z</time></trkpt><trkpt lat="45.72229919623791" lon="9.898292603191642"><ele>302.0</ele><time>2026-04-11T16:30:06Z</time></trkpt><trkpt lat="45.72217223381008" lon="9.89816487376864"><ele>302.0</ele><time>2026-04-11T16:30:07Z</time></trkpt><trkpt lat="45.722064822141974" lon="9.898026922929855"><ele>302.0</ele><time>2026-04-11T16:30:08Z</time></trkpt><trkpt lat="45.72197990983995" lon="9.897871584870234"><ele>302.0</ele><time>2026-04-11T16:30:09Z</time></trkpt><trkpt lat="45.72188317971349" lon="9.897710535469036"><ele>302.0</ele><time>2026-04-11T16:30:10Z</time></trkpt><trkpt lat="45.721780546014635" lon="9.897531754266387"><ele>302.75</ele><time>2026-04-11T16:30:11Z</time></trkpt><trkpt lat="45.721695240584026" lon="9.897360050835076"><ele>303.5</ele><time>2026-04-11T16:30:12Z</time></trkpt><trkpt lat="45.721610081208524" lon="9.897181632706836"><ele>304.25</ele><time>2026-04-11T16:30:13Z</time></trkpt><trkpt lat="45.72155398482871" lon="9.896992841613452"><ele>305.0</ele><time>2026-04-11T16:30:14Z</time></trkpt><trkpt lat="45.72148962486854" lon="9.89683602778093"><ele>304.25</ele><time>2026-04-11T16:30:15Z</time></trkpt><trkpt lat="45.721440057892636" lon="9.896654330825255"><ele>303.5</ele><time>2026-04-11T16:30:16Z</time></trkpt><trkpt lat="45.72140196841609" lon="9.89647042359087"><ele>302.75</ele><time>2026-04-11T16:30:17Z</time></trkpt><trkpt lat="45.72136310430278" lon="9.896285032105055"><ele>302.0</ele><time>2026-04-11T16:30:18Z</time></trkpt><trkpt lat="45.72132601504502" lon="9.896084106463265"><ele>302.0</ele><time>2026-04-11T16:30:19Z</time></trkpt><trkpt lat="45.721299383576216" lon="9.895890590083756"><ele>302.0</ele><time>2026-04-11T16:30:20Z</time></trkpt><trkpt lat="45.72127409335766" lon="9.895693813302039"><ele>302.0</ele><time>2026-04-11T16:30:21Z</time></trkpt><trkpt lat="45.72124909773525" lon="9.895492390217397"><ele>302.0</ele><time>2026-04-11T16:30:22Z</time></trkpt><trkpt lat="45.72122422368989" lon="9.895290258435013"><ele>302.0</ele><time>2026-04-11T16:30:23Z</time></trkpt><trkpt lat="45.72120136211816" lon="9.89511453125749"><ele>302.0</ele><time>2026-04-11T16:30:24Z</time></trkpt><trkpt lat="45.721163927884916" lon="9.894951898852227"><ele>302.0</ele><time>2026-04-11T16:30:25Z</time></trkpt><trkpt lat="45.72116741620773" lon="9.89480791072239"><ele>302.0</ele><time>2026-04-11T16:30:26Z</time></trkpt><trkpt lat="45.7211418401224" lon="9.894683895456625"><ele>302.0</ele><time>2026-04-11T16:30:27Z</time></trkpt><trkpt lat="45.721114043896215" lon="9.89456398513938"><ele>301.8</ele><time>2026-04-11T16:30:28Z</time></trkpt><trkpt lat="45.72108683728425" lon="9.894447930432788"><ele>301.6</ele><time>2026-04-11T16:30:29Z</time></trkpt><trkpt lat="45.721055505222346" lon="9.894329318153442"><ele>301.40000000000003</ele><time>2026-04-11T16:30:30Z</time></trkpt><trkpt lat="45.72103577079379" lon="9.894198586920895"><ele>301.2</ele><time>2026-04-11T16:30:31Z</time></trkpt><trkpt lat="45.72099572078508" lon="9.894035485696197"><ele>301.0</ele><time>2026-04-11T16:30:32Z</time></trkpt><trkpt lat="45.72094418898235" lon="9.89386465164769"><ele>301.0</ele><time>2026-04-11T16:30:33Z</time></trkpt><trkpt lat="45.720879079036074" lon="9.893696925603441"><ele>301.0</ele><time>2026-04-11T16:30:34Z</time></trkpt><trkpt lat="45.72079663056288" lon="9.893527275999139"><ele>301.0</ele><time>2026-04-11T16:30:35Z</time></trkpt><trkpt lat="45.72072325504421" lon="9.893375349016583"><ele>301.0</ele><time>2026-04-11T16:30:36Z</time></trkpt><trkpt lat="45.72067034600159" lon="9.893205847990012"><ele>301.0</ele><time>2026-04-11T16:30:37Z</time></trkpt><trkpt lat="45.720625417443806" lon="9.893036794595709"><ele>301.0</ele><time>2026-04-11T16:30:38Z</time></trkpt><trkpt lat="45.720576900382724" lon="9.892882366438839"><ele>301.0</ele><time>2026-04-11T16:30:39Z</time></trkpt><trkpt lat="45.72056025029638" lon="9.89270417585133"><ele>301.0</ele><time>2026-04-11T16:30:40Z</time></trkpt><trkpt lat="45.72050439382872" lon="9.892553868713504"><ele>301.75</ele><time>2026-04-11T16:30:41Z</time></trkpt><trkpt lat="45.72047461768152" lon="9.892392899328389"><ele>302.5</ele><time>2026-04-11T16:30:42Z</time></trkpt><trkpt lat="45.7204330258056" lon="9.892236735064634"><ele>303.25</ele><time>2026-04-11T16:30:43Z</time></trkpt><trkpt lat="45.720387165443746" lon="9.892068436548888"><ele>304.0</ele><time>2026-04-11T16:30:44Z</time></trkpt><trkpt lat="45.72034181424145" lon="9.891895123430452"><ele>303.5</ele><time>2026-04-11T16:30:45Z</time></trkpt><trkpt lat="45.72028563451333" lon="9.891692547359478"><ele>303.0</ele><time>2026-04-11T16:30:46Z</time></trkpt><trkpt lat="45.72023848132299" lon="9.891505775596798"><ele>302.5</ele><time>2026-04-11T16:30:47Z</time></trkpt><trkpt lat="45.72018071987984" lon="9.891323150746523"><ele>302.0</ele><time>2026-04-11T16:30:48Z</time></trkpt><trkpt lat="45.720123388938475" lon="9.891156994882607"><ele>300.5</ele><time>2026-04-11T16:30:49Z</time></trkpt><trkpt lat="45.72006622285977" lon="9.890976929706788"><ele>299.0</ele><time>2026-04-11T16:30:50Z</time></trkpt><trkpt lat="45.719991205074834" lon="9.890818076353797"><ele>297.5</ele><time>2026-04-11T16:30:51Z</time></trkpt><trkpt lat="45.719911963216255" lon="9.890673332645886"><ele>296.0</ele><time>2026-04-11T16:30:52Z</time></trkpt><trkpt lat="45.71984037620286" lon="9.890531758202682"><ele>296.0</ele><time>2026-04-11T16:30:53Z</time></trkpt><trkpt lat="45.719763903274" lon="9.890390418752451"><ele>296.0</ele><time>2026-04-11T16:30:54Z</time></trkpt><trkpt lat="45.71969775524818" lon="9.890262202545875"><ele>296.0</ele><time>2026-04-11T16:30:55Z</time></trkpt><trkpt lat="45.7196365599763" lon="9.890161868869576"><ele>296.0</ele><time>2026-04-11T16:30:56Z</time></trkpt><trkpt lat="45.719580132981775" lon="9.890081368869325"><ele>296.0</ele><time>2026-04-11T16:30:57Z</time></trkpt><trkpt lat="45.71952083338438" lon="9.889994860163851"><ele>296.8</ele><time>2026-04-11T16:30:58Z</time></trkpt><trkpt lat="45.719457068763" lon="9.889916977855721"><ele>297.6</ele><time>2026-04-11T16:30:59Z</time></trkpt><trkpt lat="45.71940874795521" lon="9.889845689370409"><ele>298.4</ele><time>2026-04-11T16:31:00Z</time></trkpt><trkpt lat="45.719322818084734" lon="9.889728816990226"><ele>299.2</ele><time>2026-04-11T16:31:02Z</time></trkpt><trkpt lat="45.71924882242874" lon="9.889633404158975"><ele>300.0</ele><time>2026-04-11T16:31:04Z</time></trkpt><trkpt lat="45.71915259525878" lon="9.889562435051623"><ele>299.0</ele><time>2026-04-11T16:31:06Z</time></trkpt><trkpt lat="45.719062801523776" lon="9.889403832724167"><ele>298.0</ele><time>2026-04-11T16:31:08Z</time></trkpt><trkpt lat="45.71899734729152" lon="9.889302046540195"><ele>297.0</ele><time>2026-04-11T16:31:09Z</time></trkpt><trkpt lat="45.718927866399895" lon="9.889204786516657"><ele>296.0</ele><time>2026-04-11T16:31:10Z</time></trkpt><trkpt lat="45.71886501668995" lon="9.889128329927036"><ele>295.0</ele><time>2026-04-11T16:31:11Z</time></trkpt><trkpt lat="45.71875205648239" lon="9.888988357400235"><ele>295.0</ele><time>2026-04-11T16:31:12Z</time></trkpt><trkpt lat="45.718689186915256" lon="9.888861737561967"><ele>295.0</ele><time>2026-04-11T16:31:13Z</time></trkpt><trkpt lat="45.71862544293771" lon="9.888751382721088"><ele>295.0</ele><time>2026-04-11T16:31:14Z</time></trkpt><trkpt lat="45.7185642759276" lon="9.888668411151704"><ele>295.0</ele><time>2026-04-11T16:31:15Z</time></trkpt><trkpt lat="45.71850699314322" lon="9.888589232522301"><ele>295.0</ele><time>2026-04-11T16:31:16Z</time></trkpt><trkpt lat="45.718460918559245" lon="9.888527679479594"><ele>295.0</ele><time>2026-04-11T16:31:17Z</time></trkpt><trkpt lat="45.71842333846209" lon="9.888454681386875"><ele>294.4</ele><time>2026-04-11T16:31:18Z</time></trkpt><trkpt lat="45.71839089308618" lon="9.888355088830153"><ele>293.8</ele><time>2026-04-11T16:31:19Z</time></trkpt><trkpt lat="45.71831163839873" lon="9.888245058055825"><ele>293.2</ele><time>2026-04-11T16:31:21Z</time></trkpt><trkpt lat="45.7182189213131" lon="9.88812177136496"><ele>292.6</ele><time>2026-04-11T16:31:23Z</time></trkpt><trkpt lat="45.718160443384406" lon="9.88804514437373"><ele>292.0</ele><time>2026-04-11T16:31:24Z</time></trkpt><trkpt lat="45.718105362159775" lon="9.88797827981732"><ele>292.0</ele><time>2026-04-11T16:31:25Z</time></trkpt><trkpt lat="45.71800265475322" lon="9.887828054803581"><ele>292.0</ele><time>2026-04-11T16:31:27Z</time></trkpt><trkpt lat="45.71794630730646" lon="9.88773238854329"><ele>292.0</ele><time>2026-04-11T16:31:28Z</time></trkpt><trkpt lat="45.71789114426102" lon="9.887639486068533"><ele>292.0</ele><time>2026-04-11T16:31:29Z</time></trkpt><trkpt lat="45.717836369655096" lon="9.887555747253291"><ele>292.0</ele><time>2026-04-11T16:31:30Z</time></trkpt><trkpt lat="45.71779008653682" lon="9.887481190283214"><ele>292.5</ele><time>2026-04-11T16:31:31Z</time></trkpt><trkpt lat="45.71773961521913" lon="9.88739508775871"><ele>293.0</ele><time>2026-04-11T16:31:32Z</time></trkpt><trkpt lat="45.71767935464706" lon="9.88730543814367"><ele>293.5</ele><time>2026-04-11T16:31:33Z</time></trkpt><trkpt lat="45.717621067092935" lon="9.887203552510806"><ele>294.0</ele><time>2026-04-11T16:31:34Z</time></trkpt><trkpt lat="45.71756205617407" lon="9.88709532544539"><ele>294.5</ele><time>2026-04-11T16:31:35Z</time></trkpt><trkpt lat="45.7174947603361" lon="9.886998650399132"><ele>295.0</ele><time>2026-04-11T16:31:36Z</time></trkpt><trkpt lat="45.71742217218394" lon="9.886884329891473"><ele>294.4</ele><time>2026-04-11T16:31:37Z</time></trkpt><trkpt lat="45.71735243593661" lon="9.886801434728204"><ele>293.8</ele><time>2026-04-11T16:31:38Z</time></trkpt><trkpt lat="45.717299778135605" lon="9.88671801694132"><ele>293.2</ele><time>2026-04-11T16:31:39Z</time></trkpt><trkpt lat="45.717260251941134" lon="9.886641254073579"><ele>292.6</ele><time>2026-04-11T16:31:40Z</time></trkpt><trkpt lat="45.71719191877568" lon="9.886433632661584"><ele>292.0</ele><time>2026-04-11T16:31:42Z</time></trkpt><trkpt lat="45.71715621218333" lon="9.88627908889721"><ele>292.0</ele><time>2026-04-11T16:31:43Z</time></trkpt><trkpt lat="45.71710267224608" lon="9.88619091375999"><ele>292.0</ele><time>2026-04-11T16:31:44Z</time></trkpt><trkpt lat="45.717049283284055" lon="9.886102987439179"><ele>292.0</ele><time>2026-04-11T16:31:45Z</time></trkpt><trkpt lat="45.716991015853225" lon="9.886008117530992"><ele>292.0</ele><time>2026-04-11T16:31:46Z</time></trkpt><trkpt lat="45.71688221750283" lon="9.885856960028779"><ele>292.0</ele><time>2026-04-11T16:31:47Z</time></trkpt><trkpt lat="45.71681696247819" lon="9.885727809640633"><ele>291.25</ele><time>2026-04-11T16:31:48Z</time></trkpt><trkpt lat="45.71671400333775" lon="9.885551055799548"><ele>290.5</ele><time>2026-04-11T16:31:49Z</time></trkpt><trkpt lat="45.716636429121564" lon="9.885411753945865"><ele>289.75</ele><time>2026-04-11T16:31:50Z</time></trkpt><trkpt lat="45.716558266213696" lon="9.885283543988686"><ele>289.0</ele><time>2026-04-11T16:31:51Z</time></trkpt><trkpt lat="45.71643967787879" lon="9.885115256634156"><ele>289.5</ele><time>2026-04-11T16:31:52Z</time></trkpt><trkpt lat="45.71633603652407" lon="9.884944564128855"><ele>290.0</ele><time>2026-04-11T16:31:53Z</time></trkpt><trkpt lat="45.71624342328574" lon="9.884790073688565"><ele>290.5</ele><time>2026-04-11T16:31:54Z</time></trkpt><trkpt lat="45.716161586489896" lon="9.884659574984262"><ele>291.0</ele><time>2026-04-11T16:31:55Z</time></trkpt><trkpt lat="45.71606591605225" lon="9.88453323320368"><ele>290.0</ele><time>2026-04-11T16:31:56Z</time></trkpt><trkpt lat="45.71599107825895" lon="9.884473505733428"><ele>289.0</ele><time>2026-04-11T16:31:57Z</time></trkpt><trkpt lat="45.71590957624545" lon="9.884349672327454"><ele>288.0</ele><time>2026-04-11T16:31:58Z</time></trkpt><trkpt lat="45.71582119046473" lon="9.884215323055558"><ele>287.0</ele><time>2026-04-11T16:31:59Z</time></trkpt><trkpt lat="45.715739369559145" lon="9.884069569696779"><ele>287.0</ele><time>2026-04-11T16:32:00Z</time></trkpt><trkpt lat="45.715655994566454" lon="9.883924302948502"><ele>287.0</ele><time>2026-04-11T16:32:01Z</time></trkpt><trkpt lat="45.715567785541836" lon="9.883791828400586"><ele>287.0</ele><time>2026-04-11T16:32:02Z</time></trkpt><trkpt lat="45.715480458142025" lon="9.883675876630083"><ele>287.0</ele><time>2026-04-11T16:32:03Z</time></trkpt><trkpt lat="45.71539771800107" lon="9.883548606369356"><ele>287.0</ele><time>2026-04-11T16:32:04Z</time></trkpt><trkpt lat="45.71532564902722" lon="9.88342427724426"><ele>287.0</ele><time>2026-04-11T16:32:05Z</time></trkpt><trkpt lat="45.71525407868218" lon="9.883308553831563"><ele>287.0</ele><time>2026-04-11T16:32:06Z</time></trkpt><trkpt lat="45.71519553453073" lon="9.883211629003302"><ele>287.0</ele><time>2026-04-11T16:32:07Z</time></trkpt><trkpt lat="45.7151336961854" lon="9.883112137943233"><ele>287.0</ele><time>2026-04-11T16:32:08Z</time></trkpt><trkpt lat="45.71507255751736" lon="9.883017021596192"><ele>286.4</ele><time>2026-04-11T16:32:09Z</time></trkpt><trkpt lat="45.715012094189625" lon="9.882917004092663"><ele>285.79999999999995</ele><time>2026-04-11T16:32:10Z</time></trkpt><trkpt lat="45.714936600151624" lon="9.882810215873246"><ele>285.2</ele><time>2026-04-11T16:32:11Z</time></trkpt><trkpt lat="45.71489894600711" lon="9.882725876189442"><ele>284.59999999999997</ele><time>2026-04-11T16:32:12Z</time></trkpt><trkpt lat="45.71479806507841" lon="9.882605480100205"><ele>284.0</ele><time>2026-04-11T16:32:14Z</time></trkpt><trkpt lat="45.71473471849426" lon="9.882523309803508"><ele>284.0</ele><time>2026-04-11T16:32:15Z</time></trkpt><trkpt lat="45.714675646848626" lon="9.88242368706787"><ele>284.0</ele><time>2026-04-11T16:32:16Z</time></trkpt><trkpt lat="45.7146068414647" lon="9.882310715621973"><ele>284.0</ele><time>2026-04-11T16:32:17Z</time></trkpt><trkpt lat="45.7145323707079" lon="9.882187934590046"><ele>284.0</ele><time>2026-04-11T16:32:18Z</time></trkpt><trkpt lat="45.71444901276082" lon="9.882045218630866"><ele>284.0</ele><time>2026-04-11T16:32:19Z</time></trkpt><trkpt lat="45.71435519424318" lon="9.881893154093953"><ele>283.33333333333337</ele><time>2026-04-11T16:32:20Z</time></trkpt><trkpt lat="45.71425597878235" lon="9.88173158033453"><ele>282.6666666666667</ele><time>2026-04-11T16:32:21Z</time></trkpt><trkpt lat="45.71415732884054" lon="9.881559578034727"><ele>282.0</ele><time>2026-04-11T16:32:22Z</time></trkpt><trkpt lat="45.71404131871874" lon="9.881378906374826"><ele>282.0</ele><time>2026-04-11T16:32:23Z</time></trkpt><trkpt lat="45.713935403121006" lon="9.881197387443194"><ele>282.0</ele><time>2026-04-11T16:32:24Z</time></trkpt><trkpt lat="45.71383374398618" lon="9.881020568972975"><ele>282.0</ele><time>2026-04-11T16:32:25Z</time></trkpt><trkpt lat="45.713731931518645" lon="9.880846175950053"><ele>282.0</ele><time>2026-04-11T16:32:26Z</time></trkpt><trkpt lat="45.71364071083428" lon="9.880677193738395"><ele>282.0</ele><time>2026-04-11T16:32:27Z</time></trkpt><trkpt lat="45.71355820626228" lon="9.88050758232222"><ele>282.0</ele><time>2026-04-11T16:32:28Z</time></trkpt><trkpt lat="45.71347148784784" lon="9.880344652919037"><ele>282.0</ele><time>2026-04-11T16:32:29Z</time></trkpt><trkpt lat="45.71338642991482" lon="9.88017082485247"><ele>282.0</ele><time>2026-04-11T16:32:30Z</time></trkpt><trkpt lat="45.71330526658725" lon="9.879996471155213"><ele>282.0</ele><time>2026-04-11T16:32:31Z</time></trkpt><trkpt lat="45.713210090704806" lon="9.879828362222552"><ele>282.0</ele><time>2026-04-11T16:32:32Z</time></trkpt><trkpt lat="45.713067002068236" lon="9.879616644555943"><ele>282.0</ele><time>2026-04-11T16:32:33Z</time></trkpt><trkpt lat="45.71293606283559" lon="9.879395995315194"><ele>282.0</ele><time>2026-04-11T16:32:34Z</time></trkpt><trkpt lat="45.71282529882747" lon="9.879193552520652"><ele>282.0</ele><time>2026-04-11T16:32:35Z</time></trkpt><trkpt lat="45.712716131515" lon="9.878996858753927"><ele>281.6666666666667</ele><time>2026-04-11T16:32:36Z</time></trkpt><trkpt lat="45.71260486773769" lon="9.87880318154824"><ele>281.33333333333337</ele><time>2026-04-11T16:32:37Z</time></trkpt><trkpt lat="45.712496932393925" lon="9.878602141757817"><ele>281.0</ele><time>2026-04-11T16:32:38Z</time></trkpt><trkpt lat="45.71236843165328" lon="9.87837771578934"><ele>281.0</ele><time>2026-04-11T16:32:39Z</time></trkpt><trkpt lat="45.71222141546814" lon="9.878131984214432"><ele>281.0</ele><time>2026-04-11T16:32:40Z</time></trkpt><trkpt lat="45.71207441644979" lon="9.877874540896645"><ele>281.0</ele><time>2026-04-11T16:32:41Z</time></trkpt><trkpt lat="45.711960566136774" lon="9.877637877390896"><ele>281.0</ele><time>2026-04-11T16:32:42Z</time></trkpt><trkpt lat="45.71184261054986" lon="9.877406207724393"><ele>281.0</ele><time>2026-04-11T16:32:43Z</time></trkpt><trkpt lat="45.711716972858575" lon="9.877170181248397"><ele>279.6666666666667</ele><time>2026-04-11T16:32:44Z</time></trkpt><trkpt lat="45.71158957035681" lon="9.876933402969629"><ele>278.3333333333333</ele><time>2026-04-11T16:32:45Z</time></trkpt><trkpt lat="45.71145732990015" lon="9.876710063286707"><ele>277.0</ele><time>2026-04-11T16:32:46Z</time></trkpt><trkpt lat="45.71130917577699" lon="9.876503750894496"><ele>277.0</ele><time>2026-04-11T16:32:47Z</time></trkpt><trkpt lat="45.71114016408334" lon="9.876305799211583"><ele>277.0</ele><time>2026-04-11T16:32:48Z</time></trkpt><trkpt lat="45.710969710435016" lon="9.876095321397115"><ele>277.0</ele><time>2026-04-11T16:32:49Z</time></trkpt><trkpt lat="45.71080748704988" lon="9.875889662844253"><ele>276.66666666666663</ele><time>2026-04-11T16:32:50Z</time></trkpt><trkpt lat="45.71064327366362" lon="9.875679907783967"><ele>276.3333333333333</ele><time>2026-04-11T16:32:51Z</time></trkpt><trkpt lat="45.71049550806626" lon="9.87546701374355"><ele>276.0</ele><time>2026-04-11T16:32:52Z</time></trkpt><trkpt lat="45.71034598924743" lon="9.875259043563501"><ele>275.6666666666667</ele><time>2026-04-11T16:32:53Z</time></trkpt><trkpt lat="45.71020344677915" lon="9.87503314075171"><ele>275.33333333333337</ele><time>2026-04-11T16:32:54Z</time></trkpt><trkpt lat="45.7100703234565" lon="9.874813283350399"><ele>275.0</ele><time>2026-04-11T16:32:55Z</time></trkpt><trkpt lat="45.709949966982165" lon="9.874601987712671"><ele>275.0</ele><time>2026-04-11T16:32:56Z</time></trkpt><trkpt lat="45.70983374516071" lon="9.874425920833751"><ele>275.0</ele><time>2026-04-11T16:32:57Z</time></trkpt><trkpt lat="45.70972997092343" lon="9.874252773447086"><ele>275.0</ele><time>2026-04-11T16:32:58Z</time></trkpt><trkpt lat="45.70963478578853" lon="9.87408936774278"><ele>274.75</ele><time>2026-04-11T16:32:59Z</time></trkpt><trkpt lat="45.70956295913833" lon="9.873898491754542"><ele>274.5</ele><time>2026-04-11T16:33:00Z</time></trkpt><trkpt lat="45.709485797669835" lon="9.873771931494497"><ele>274.25</ele><time>2026-04-11T16:33:01Z</time></trkpt><trkpt lat="45.70939977840042" lon="9.8736278461007"><ele>274.0</ele><time>2026-04-11T16:33:02Z</time></trkpt><trkpt lat="45.70932049431488" lon="9.873487252014169"><ele>274.25</ele><time>2026-04-11T16:33:03Z</time></trkpt><trkpt lat="45.70924723561726" lon="9.873348454700869"><ele>274.5</ele><time>2026-04-11T16:33:04Z</time></trkpt><trkpt lat="45.70918432732603" lon="9.873213749210645"><ele>274.75</ele><time>2026-04-11T16:33:05Z</time></trkpt><trkpt lat="45.709118838772575" lon="9.873077936875402"><ele>275.0</ele><time>2026-04-11T16:33:06Z</time></trkpt><trkpt lat="45.70905281046334" lon="9.872949799464362"><ele>275.0</ele><time>2026-04-11T16:33:07Z</time></trkpt><trkpt lat="45.708965033278055" lon="9.872807861092525"><ele>275.0</ele><time>2026-04-11T16:33:08Z</time></trkpt><trkpt lat="45.70887689276488" lon="9.872684809260527"><ele>275.0</ele><time>2026-04-11T16:33:09Z</time></trkpt><trkpt lat="45.70879899513224" lon="9.872517167905434"><ele>275.0</ele><time>2026-04-11T16:33:10Z</time></trkpt><trkpt lat="45.70870305145225" lon="9.872385025989349"><ele>274.75</ele><time>2026-04-11T16:33:11Z</time></trkpt><trkpt lat="45.708583745529694" lon="9.872252534723943"><ele>274.5</ele><time>2026-04-11T16:33:12Z</time></trkpt><trkpt lat="45.70848903744284" lon="9.872128783819612"><ele>274.25</ele><time>2026-04-11T16:33:13Z</time></trkpt><trkpt lat="45.70839813249063" lon="9.871996618228039"><ele>274.0</ele><time>2026-04-11T16:33:14Z</time></trkpt><trkpt lat="45.70830160765511" lon="9.871876212600833"><ele>274.0</ele><time>2026-04-11T16:33:15Z</time></trkpt><trkpt lat="45.70818789940927" lon="9.871751150765332"><ele>274.0</ele><time>2026-04-11T16:33:16Z</time></trkpt><trkpt lat="45.70808257214679" lon="9.871624855023258"><ele>274.0</ele><time>2026-04-11T16:33:17Z</time></trkpt><trkpt lat="45.70798425583316" lon="9.871483027771658"><ele>274.0</ele><time>2026-04-11T16:33:18Z</time></trkpt><trkpt lat="45.70788049872016" lon="9.871329139924548"><ele>274.0</ele><time>2026-04-11T16:33:19Z</time></trkpt><trkpt lat="45.7077941791107" lon="9.87118736477448"><ele>274.0</ele><time>2026-04-11T16:33:20Z</time></trkpt><trkpt lat="45.70772372237532" lon="9.871052542911004"><ele>274.0</ele><time>2026-04-11T16:33:21Z</time></trkpt><trkpt lat="45.707655471787966" lon="9.870917587544145"><ele>274.0</ele><time>2026-04-11T16:33:22Z</time></trkpt><trkpt lat="45.707589950148034" lon="9.870784031241172"><ele>274.0</ele><time>2026-04-11T16:33:23Z</time></trkpt><trkpt lat="45.707522784659545" lon="9.870640587674371"><ele>274.0</ele><time>2026-04-11T16:33:24Z</time></trkpt><trkpt lat="45.707462817241506" lon="9.870490541558256"><ele>274.0</ele><time>2026-04-11T16:33:25Z</time></trkpt><trkpt lat="45.70739758623867" lon="9.870333067525104"><ele>274.0</ele><time>2026-04-11T16:33:26Z</time></trkpt><trkpt lat="45.70732760135334" lon="9.870166197054319"><ele>273.75</ele><time>2026-04-11T16:33:27Z</time></trkpt><trkpt lat="45.707261841867314" lon="9.869992125652951"><ele>273.5</ele><time>2026-04-11T16:33:28Z</time></trkpt><trkpt lat="45.70721454570262" lon="9.86979074362732"><ele>273.25</ele><time>2026-04-11T16:33:29Z</time></trkpt><trkpt lat="45.70716715605225" lon="9.869591041925649"><ele>273.0</ele><time>2026-04-11T16:33:30Z</time></trkpt><trkpt lat="45.70713135267829" lon="9.869399222155772"><ele>273.5</ele><time>2026-04-11T16:33:31Z</time></trkpt><trkpt lat="45.70709715325109" lon="9.869215747543244"><ele>274.0</ele><time>2026-04-11T16:33:32Z</time></trkpt><trkpt lat="45.70707227678481" lon="9.869058027665618"><ele>274.5</ele><time>2026-04-11T16:33:33Z</time></trkpt><trkpt lat="45.70705719069004" lon="9.868877167584968"><ele>275.0</ele><time>2026-04-11T16:33:34Z</time></trkpt><trkpt lat="45.70702960245158" lon="9.868700529153083"><ele>275.0</ele><time>2026-04-11T16:33:35Z</time></trkpt><trkpt lat="45.70699522664713" lon="9.868503319864326"><ele>275.0</ele><time>2026-04-11T16:33:36Z</time></trkpt><trkpt lat="45.706947559595434" lon="9.868303047115097"><ele>275.0</ele><time>2026-04-11T16:33:37Z</time></trkpt><trkpt lat="45.70689915220726" lon="9.868095867971153"><ele>275.0</ele><time>2026-04-11T16:33:38Z</time></trkpt><trkpt lat="45.70685805423952" lon="9.867893066593362"><ele>273.75</ele><time>2026-04-11T16:33:39Z</time></trkpt><trkpt lat="45.706822652526164" lon="9.867700507730603"><ele>272.5</ele><time>2026-04-11T16:33:40Z</time></trkpt><trkpt lat="45.706787386211914" lon="9.867523086867214"><ele>271.25</ele><time>2026-04-11T16:33:41Z</time></trkpt><trkpt lat="45.7067503178372" lon="9.867355895730979"><ele>270.0</ele><time>2026-04-11T16:33:42Z</time></trkpt><trkpt lat="45.706712050150735" lon="9.867172063121405"><ele>270.0</ele><time>2026-04-11T16:33:43Z</time></trkpt><trkpt lat="45.70667036360151" lon="9.86701030034047"><ele>270.0</ele><time>2026-04-11T16:33:44Z</time></trkpt><trkpt lat="45.70663284549074" lon="9.866829026473523"><ele>270.0</ele><time>2026-04-11T16:33:45Z</time></trkpt><trkpt lat="45.70659415614021" lon="9.866646756125755"><ele>270.0</ele><time>2026-04-11T16:33:46Z</time></trkpt><trkpt lat="45.706553132597485" lon="9.866467133560368"><ele>270.0</ele><time>2026-04-11T16:33:47Z</time></trkpt><trkpt lat="45.70651829013201" lon="9.866292035143726"><ele>270.0</ele><time>2026-04-11T16:33:48Z</time></trkpt><trkpt lat="45.7064933245834" lon="9.866111132299197"><ele>270.0</ele><time>2026-04-11T16:33:49Z</time></trkpt><trkpt lat="45.706476113484655" lon="9.865926278584693"><ele>270.0</ele><time>2026-04-11T16:33:50Z</time></trkpt><trkpt lat="45.70645029711442" lon="9.865749834948657"><ele>270.25</ele><time>2026-04-11T16:33:51Z</time></trkpt><trkpt lat="45.70642807444535" lon="9.865571907622737"><ele>270.5</ele><time>2026-04-11T16:33:52Z</time></trkpt><trkpt lat="45.70640845319861" lon="9.865402548032637"><ele>270.75</ele><time>2026-04-11T16:33:53Z</time></trkpt><trkpt lat="45.706391632272314" lon="9.86522114472929"><ele>271.0</ele><time>2026-04-11T16:33:54Z</time></trkpt><trkpt lat="45.70636332450082" lon="9.865052189891125"><ele>271.0</ele><time>2026-04-11T16:33:55Z</time></trkpt><trkpt lat="45.70635656860756" lon="9.864898228313917"><ele>271.0</ele><time>2026-04-11T16:33:56Z</time></trkpt><trkpt lat="45.70633702003099" lon="9.864707277877342"><ele>271.0</ele><time>2026-04-11T16:33:57Z</time></trkpt><trkpt lat="45.70631738779802" lon="9.864515470807495"><ele>271.0</ele><time>2026-04-11T16:33:58Z</time></trkpt><trkpt lat="45.706296652118034" lon="9.864312509318612"><ele>270.75</ele><time>2026-04-11T16:33:59Z</time></trkpt><trkpt lat="45.706277493979385" lon="9.864124988871772"><ele>270.5</ele><time>2026-04-11T16:34:00Z</time></trkpt><trkpt lat="45.70625719436046" lon="9.863926295672597"><ele>270.25</ele><time>2026-04-11T16:34:01Z</time></trkpt><trkpt lat="45.70623659565001" lon="9.863732727032984"><ele>270.0</ele><time>2026-04-11T16:34:02Z</time></trkpt><trkpt lat="45.70621730551885" lon="9.863551322381218"><ele>270.5</ele><time>2026-04-11T16:34:03Z</time></trkpt><trkpt lat="45.706189224954265" lon="9.863378769490668"><ele>271.0</ele><time>2026-04-11T16:34:04Z</time></trkpt><trkpt lat="45.70617595096748" lon="9.863211388979682"><ele>271.5</ele><time>2026-04-11T16:34:05Z</time></trkpt><trkpt lat="45.70616427107451" lon="9.863069369628045"><ele>272.0</ele><time>2026-04-11T16:34:06Z</time></trkpt><trkpt lat="45.70614679162128" lon="9.86291183200986"><ele>272.0</ele><time>2026-04-11T16:34:07Z</time></trkpt><trkpt lat="45.7061294958122" lon="9.862755949527306"><ele>272.0</ele><time>2026-04-11T16:34:08Z</time></trkpt><trkpt lat="45.70610921300376" lon="9.862573146037116"><ele>272.0</ele><time>2026-04-11T16:34:09Z</time></trkpt><trkpt lat="45.70608672098821" lon="9.862365410997631"><ele>272.0</ele><time>2026-04-11T16:34:10Z</time></trkpt><trkpt lat="45.706065595655396" lon="9.862159717008026"><ele>269.6666666666667</ele><time>2026-04-11T16:34:11Z</time></trkpt><trkpt lat="45.7060426286565" lon="9.861936090885846"><ele>267.3333333333333</ele><time>2026-04-11T16:34:12Z</time></trkpt><trkpt lat="45.70601747625592" lon="9.861691183689423"><ele>265.0</ele><time>2026-04-11T16:34:13Z</time></trkpt><trkpt lat="45.70597761490309" lon="9.861469371427914"><ele>264.3333333333333</ele><time>2026-04-11T16:34:14Z</time></trkpt><trkpt lat="45.70595508221158" lon="9.861240233512689"><ele>263.6666666666667</ele><time>2026-04-11T16:34:15Z</time></trkpt><trkpt lat="45.70592939218938" lon="9.861008281508273"><ele>263.0</ele><time>2026-04-11T16:34:16Z</time></trkpt><trkpt lat="45.705896785927024" lon="9.860803351931892"><ele>263.0</ele><time>2026-04-11T16:34:17Z</time></trkpt><trkpt lat="45.705848327171736" lon="9.86060330196282"><ele>263.0</ele><time>2026-04-11T16:34:18Z</time></trkpt><trkpt lat="45.705791819826985" lon="9.860409249381243"><ele>263.0</ele><time>2026-04-11T16:34:19Z</time></trkpt><trkpt lat="45.70572528871704" lon="9.860218953327031"><ele>263.0</ele><time>2026-04-11T16:34:20Z</time></trkpt><trkpt lat="45.70565628757835" lon="9.860028769555456"><ele>262.75</ele><time>2026-04-11T16:34:21Z</time></trkpt><trkpt lat="45.70558483135113" lon="9.859852651814993"><ele>262.5</ele><time>2026-04-11T16:34:22Z</time></trkpt><trkpt lat="45.70550719899263" lon="9.859668315625624"><ele>262.25</ele><time>2026-04-11T16:34:23Z</time></trkpt><trkpt lat="45.705428282413614" lon="9.859494770858015"><ele>262.0</ele><time>2026-04-11T16:34:24Z</time></trkpt><trkpt lat="45.705368664303805" lon="9.859325121754978"><ele>262.0</ele><time>2026-04-11T16:34:25Z</time></trkpt><trkpt lat="45.70528568706853" lon="9.85920031953141"><ele>262.0</ele><time>2026-04-11T16:34:26Z</time></trkpt><trkpt lat="45.70519607941757" lon="9.859083865554783"><ele>262.0</ele><time>2026-04-11T16:34:27Z</time></trkpt><trkpt lat="45.70509267624924" lon="9.858964203198802"><ele>262.0</ele><time>2026-04-11T16:34:28Z</time></trkpt><trkpt lat="45.70497959830083" lon="9.858865991462888"><ele>262.0</ele><time>2026-04-11T16:34:29Z</time></trkpt><trkpt lat="45.70485103151109" lon="9.858792701062194"><ele>262.0</ele><time>2026-04-11T16:34:30Z</time></trkpt><trkpt lat="45.70471508771857" lon="9.85872821563366"><ele>262.0</ele><time>2026-04-11T16:34:31Z</time></trkpt><trkpt lat="45.70459743306619" lon="9.858686012274708"><ele>262.0</ele><time>2026-04-11T16:34:32Z</time></trkpt><trkpt lat="45.70448306186118" lon="9.85864324121925"><ele>261.8</ele><time>2026-04-11T16:34:33Z</time></trkpt><trkpt lat="45.70438741779388" lon="9.858606367160245"><ele>261.6</ele><time>2026-04-11T16:34:34Z</time></trkpt><trkpt lat="45.70429475345194" lon="9.858573782161512"><ele>261.40000000000003</ele><time>2026-04-11T16:34:35Z</time></trkpt><trkpt lat="45.70420284296662" lon="9.858543048907329"><ele>261.2</ele><time>2026-04-11T16:34:36Z</time></trkpt><trkpt lat="45.70411243014426" lon="9.85850510500465"><ele>261.0</ele><time>2026-04-11T16:34:37Z</time></trkpt><trkpt lat="45.70401893168861" lon="9.85847418909319"><ele>261.25</ele><time>2026-04-11T16:34:38Z</time></trkpt><trkpt lat="45.703912010261504" lon="9.85843823597579"><ele>261.5</ele><time>2026-04-11T16:34:39Z</time></trkpt><trkpt lat="45.70378893670933" lon="9.858407558016948"><ele>261.75</ele><time>2026-04-11T16:34:40Z</time></trkpt><trkpt lat="45.70367101805983" lon="9.858363771785553"><ele>262.0</ele><time>2026-04-11T16:34:41Z</time></trkpt><trkpt lat="45.70355904904106" lon="9.858310122548884"><ele>262.4</ele><time>2026-04-11T16:34:42Z</time></trkpt><trkpt lat="45.70344109074948" lon="9.858284748944477"><ele>262.79999999999995</ele><time>2026-04-11T16:34:43Z</time></trkpt><trkpt lat="45.7033399745974" lon="9.858256306291066"><ele>263.2</ele><time>2026-04-11T16:34:44Z</time></trkpt><trkpt lat="45.70326544796567" lon="9.858266991706344"><ele>263.59999999999997</ele><time>2026-04-11T16:34:45Z</time></trkpt><trkpt lat="45.70319067932851" lon="9.858278583433462"><ele>264.0</ele><time>2026-04-11T16:34:47Z</time></trkpt><trkpt lat="45.702747644556005" lon="9.85820668969079"><ele>264.0</ele><time>2026-04-11T16:34:49Z</time></trkpt><trkpt lat="45.70263586940451" lon="9.858211929966023"><ele>264.0</ele><time>2026-04-11T16:34:50Z</time></trkpt><trkpt lat="45.7025165131319" lon="9.85820827341172"><ele>264.0</ele><time>2026-04-11T16:34:51Z</time></trkpt><trkpt lat="45.70239228640331" lon="9.858157464309043"><ele>264.0</ele><time>2026-04-11T16:34:52Z</time></trkpt><trkpt lat="45.70227888066406" lon="9.8580798832957"><ele>264.0</ele><time>2026-04-11T16:34:53Z</time></trkpt><trkpt lat="45.70213819089665" lon="9.857996272013196"><ele>264.0</ele><time>2026-04-11T16:34:54Z</time></trkpt><trkpt lat="45.70199374739628" lon="9.857894919374742"><ele>264.0</ele><time>2026-04-11T16:34:55Z</time></trkpt><trkpt lat="45.70184693128484" lon="9.85780080043509"><ele>264.6666666666667</ele><time>2026-04-11T16:34:56Z</time></trkpt><trkpt lat="45.70170836665196" lon="9.857665505668251"><ele>265.33333333333337</ele><time>2026-04-11T16:34:57Z</time></trkpt><trkpt lat="45.701570034345856" lon="9.857535028717066"><ele>266.0</ele><time>2026-04-11T16:34:58Z</time></trkpt><trkpt lat="45.70140216283313" lon="9.857370428058442"><ele>266.0</ele><time>2026-04-11T16:34:59Z</time></trkpt><trkpt lat="45.70127347264279" lon="9.857181444614854"><ele>266.0</ele><time>2026-04-11T16:35:00Z</time></trkpt><trkpt lat="45.70112470609035" lon="9.856978888440834"><ele>266.0</ele><time>2026-04-11T16:35:01Z</time></trkpt><trkpt lat="45.70100982288357" lon="9.85676628355124"><ele>267.0</ele><time>2026-04-11T16:35:02Z</time></trkpt><trkpt lat="45.70089483981605" lon="9.856555785330778"><ele>268.0</ele><time>2026-04-11T16:35:03Z</time></trkpt><trkpt lat="45.700804339999394" lon="9.856325094839155"><ele>269.0</ele><time>2026-04-11T16:35:04Z</time></trkpt><trkpt lat="45.70068461040841" lon="9.856085522353087"><ele>275.0</ele><time>2026-04-11T16:35:05Z</time></trkpt><trkpt lat="45.70057843783736" lon="9.855852109115911"><ele>281.0</ele><time>2026-04-11T16:35:06Z</time></trkpt><trkpt lat="45.70046262404144" lon="9.855613854421353"><ele>287.0</ele><time>2026-04-11T16:35:07Z</time></trkpt><trkpt lat="45.70035293957808" lon="9.855366090367813"><ele>281.6666666666667</ele><time>2026-04-11T16:35:08Z</time></trkpt><trkpt lat="45.700272409204594" lon="9.85511100392992"><ele>276.3333333333333</ele><time>2026-04-11T16:35:09Z</time></trkpt><trkpt lat="45.70016527583919" lon="9.854864176881376"><ele>271.0</ele><time>2026-04-11T16:35:10Z</time></trkpt><trkpt lat="45.70006509603575" lon="9.854632124422727"><ele>271.0</ele><time>2026-04-11T16:35:11Z</time></trkpt><trkpt lat="45.699958378190296" lon="9.85438619414813"><ele>271.0</ele><time>2026-04-11T16:35:12Z</time></trkpt><trkpt lat="45.69987110625587" lon="9.85418683650884"><ele>271.0</ele><time>2026-04-11T16:35:13Z</time></trkpt><trkpt lat="45.69978286145348" lon="9.85398584373285"><ele>276.66666666666663</ele><time>2026-04-11T16:35:14Z</time></trkpt><trkpt lat="45.699679422666144" lon="9.853748782899585"><ele>282.3333333333333</ele><time>2026-04-11T16:35:15Z</time></trkpt><trkpt lat="45.69957227275871" lon="9.853503767903433"><ele>288.0</ele><time>2026-04-11T16:35:16Z</time></trkpt><trkpt lat="45.69945919000378" lon="9.853245186388904"><ele>279.5</ele><time>2026-04-11T16:35:17Z</time></trkpt><trkpt lat="45.69933738456536" lon="9.852966401879419"><ele>271.0</ele><time>2026-04-11T16:35:18Z</time></trkpt><trkpt lat="45.69920680127838" lon="9.852693492415348"><ele>274.3333333333333</ele><time>2026-04-11T16:35:19Z</time></trkpt><trkpt lat="45.6990981066409" lon="9.852446916579156"><ele>277.6666666666667</ele><time>2026-04-11T16:35:20Z</time></trkpt><trkpt lat="45.69896834688468" lon="9.852185863736153"><ele>281.0</ele><time>2026-04-11T16:35:21Z</time></trkpt><trkpt lat="45.698830726226575" lon="9.851939812826247"><ele>276.6666666666667</ele><time>2026-04-11T16:35:22Z</time></trkpt><trkpt lat="45.69866484822968" lon="9.851720569699433"><ele>272.3333333333333</ele><time>2026-04-11T16:35:23Z</time></trkpt><trkpt lat="45.69851300619031" lon="9.851502613891396"><ele>268.0</ele><time>2026-04-11T16:35:24Z</time></trkpt><trkpt lat="45.69837182128856" lon="9.851274943843276"><ele>268.0</ele><time>2026-04-11T16:35:25Z</time></trkpt><trkpt lat="45.698246033253405" lon="9.85105997231781"><ele>268.0</ele><time>2026-04-11T16:35:26Z</time></trkpt><trkpt lat="45.69812191754257" lon="9.850862467603593"><ele>268.0</ele><time>2026-04-11T16:35:27Z</time></trkpt><trkpt lat="45.69802758509363" lon="9.850664938801183"><ele>274.66666666666663</ele><time>2026-04-11T16:35:28Z</time></trkpt><trkpt lat="45.69792984334822" lon="9.850472077052832"><ele>281.3333333333333</ele><time>2026-04-11T16:35:29Z</time></trkpt><trkpt lat="45.697837462191735" lon="9.850260206810907"><ele>288.0</ele><time>2026-04-11T16:35:30Z</time></trkpt><trkpt lat="45.69776312326093" lon="9.850015376557737"><ele>282.0</ele><time>2026-04-11T16:35:31Z</time></trkpt><trkpt lat="45.69765984036743" lon="9.849761208244924"><ele>276.0</ele><time>2026-04-11T16:35:32Z</time></trkpt><trkpt lat="45.69757255743759" lon="9.849532718202735"><ele>270.0</ele><time>2026-04-11T16:35:33Z</time></trkpt><trkpt lat="45.69749889258097" lon="9.849308760586384"><ele>271.0</ele><time>2026-04-11T16:35:34Z</time></trkpt><trkpt lat="45.697448765204115" lon="9.849086674280604"><ele>272.0</ele><time>2026-04-11T16:35:35Z</time></trkpt><trkpt lat="45.69740970396573" lon="9.84887665497478"><ele>273.0</ele><time>2026-04-11T16:35:36Z</time></trkpt><trkpt lat="45.69738396713653" lon="9.84865887012941"><ele>274.0</ele><time>2026-04-11T16:35:37Z</time></trkpt><trkpt lat="45.697355825230304" lon="9.848456679994193"><ele>275.0</ele><time>2026-04-11T16:35:38Z</time></trkpt><trkpt lat="45.69735124669253" lon="9.848248817287065"><ele>276.0</ele><time>2026-04-11T16:35:39Z</time></trkpt><trkpt lat="45.69733810337464" lon="9.848053732960725"><ele>277.0</ele><time>2026-04-11T16:35:40Z</time></trkpt><trkpt lat="45.697342754103396" lon="9.847926442777274"><ele>277.0</ele><time>2026-04-11T16:35:41Z</time></trkpt><trkpt lat="45.69733934010291" lon="9.847763045514606"><ele>277.0</ele><time>2026-04-11T16:35:42Z</time></trkpt><trkpt lat="45.697326598657206" lon="9.847608680208978"><ele>277.0</ele><time>2026-04-11T16:35:43Z</time></trkpt><trkpt lat="45.69731419357053" lon="9.847456443517519"><ele>277.0</ele><time>2026-04-11T16:35:44Z</time></trkpt><trkpt lat="45.69731642277351" lon="9.847331232143478"><ele>277.0</ele><time>2026-04-11T16:35:45Z</time></trkpt><trkpt lat="45.69731863925271" lon="9.84720921119481"><ele>277.0</ele><time>2026-04-11T16:35:46Z</time></trkpt><trkpt lat="45.69731935479869" lon="9.847097791388832"><ele>277.0</ele><time>2026-04-11T16:35:47Z</time></trkpt><trkpt lat="45.69729493284523" lon="9.846939656380377"><ele>277.0</ele><time>2026-04-11T16:35:49Z</time></trkpt><trkpt lat="45.69728258683075" lon="9.846803092053788"><ele>277.0</ele><time>2026-04-11T16:35:51Z</time></trkpt><trkpt lat="45.69726100818559" lon="9.846682705120518"><ele>277.0</ele><time>2026-04-11T16:35:53Z</time></trkpt><trkpt lat="45.69726385959015" lon="9.846582085945402"><ele>277.0</ele><time>2026-04-11T16:35:55Z</time></trkpt><trkpt lat="45.69727937693405" lon="9.846489857204881"><ele>277.0</ele><time>2026-04-11T16:36:02Z</time></trkpt><trkpt lat="45.697254842314294" lon="9.846312828355256"><ele>277.0</ele><time>2026-04-11T16:36:13Z</time></trkpt><trkpt lat="45.69725379517329" lon="9.84619317900813"><ele>277.0</ele><time>2026-04-11T16:36:14Z</time></trkpt><trkpt lat="45.69724311359429" lon="9.845967013510801"><ele>277.0</ele><time>2026-04-11T16:36:15Z</time></trkpt><trkpt lat="45.6972357318053" lon="9.845750807955437"><ele>276.66666666666663</ele><time>2026-04-11T16:36:16Z</time></trkpt><trkpt lat="45.69721751691318" lon="9.845553744380698"><ele>276.3333333333333</ele><time>2026-04-11T16:36:17Z</time></trkpt><trkpt lat="45.69718710226519" lon="9.845306498156202"><ele>276.0</ele><time>2026-04-11T16:36:18Z</time></trkpt><trkpt lat="45.697170478367994" lon="9.845068448711555"><ele>276.0</ele><time>2026-04-11T16:36:19Z</time></trkpt><trkpt lat="45.69713713939429" lon="9.84481711580351"><ele>276.0</ele><time>2026-04-11T16:36:20Z</time></trkpt><trkpt lat="45.697119015890266" lon="9.84457344297412"><ele>276.0</ele><time>2026-04-11T16:36:21Z</time></trkpt><trkpt lat="45.69709119821456" lon="9.844295539442683"><ele>275.6666666666667</ele><time>2026-04-11T16:36:22Z</time></trkpt><trkpt lat="45.69708452626854" lon="9.84403655513115"><ele>275.33333333333337</ele><time>2026-04-11T16:36:23Z</time></trkpt><trkpt lat="45.697068615685545" lon="9.843786398222006"><ele>275.0</ele><time>2026-04-11T16:36:24Z</time></trkpt><trkpt lat="45.69704825668196" lon="9.843520834925565"><ele>275.33333333333337</ele><time>2026-04-11T16:36:25Z</time></trkpt><trkpt lat="45.69702523552661" lon="9.843261509579778"><ele>275.6666666666667</ele><time>2026-04-11T16:36:26Z</time></trkpt><trkpt lat="45.69699864185639" lon="9.842994455438353"><ele>276.0</ele><time>2026-04-11T16:36:27Z</time></trkpt><trkpt lat="45.69697504933701" lon="9.842741634166162"><ele>276.3333333333333</ele><time>2026-04-11T16:36:28Z</time></trkpt><trkpt lat="45.69696512845234" lon="9.842467068876708"><ele>276.66666666666663</ele><time>2026-04-11T16:36:29Z</time></trkpt><trkpt lat="45.69694657910696" lon="9.842198521263583"><ele>277.0</ele><time>2026-04-11T16:36:30Z</time></trkpt><trkpt lat="45.696926287401624" lon="9.84192623026033"><ele>276.66666666666663</ele><time>2026-04-11T16:36:31Z</time></trkpt><trkpt lat="45.6968893795923" lon="9.841685656983977"><ele>276.3333333333333</ele><time>2026-04-11T16:36:32Z</time></trkpt><trkpt lat="45.69685646085634" lon="9.841473085847412"><ele>276.0</ele><time>2026-04-11T16:36:33Z</time></trkpt><trkpt lat="45.69681522402788" lon="9.84128485920623"><ele>276.0</ele><time>2026-04-11T16:36:34Z</time></trkpt><trkpt lat="45.696795617152205" lon="9.84117172111658"><ele>276.0</ele><time>2026-04-11T16:36:35Z</time></trkpt><trkpt lat="45.69676278976754" lon="9.841049724150206"><ele>276.0</ele><time>2026-04-11T16:36:36Z</time></trkpt><trkpt lat="45.696729801893575" lon="9.840934859531806"><ele>276.0</ele><time>2026-04-11T16:36:37Z</time></trkpt><trkpt lat="45.696698805349556" lon="9.840847130910014"><ele>276.0</ele><time>2026-04-11T16:36:39Z</time></trkpt><trkpt lat="45.69663452176322" lon="9.84069099695328"><ele>276.0</ele><time>2026-04-11T16:36:51Z</time></trkpt><trkpt lat="45.696591854516534" lon="9.840581719272219"><ele>276.0</ele><time>2026-04-11T16:36:52Z</time></trkpt><trkpt lat="45.696549645256134" lon="9.840404485397599"><ele>276.0</ele><time>2026-04-11T16:36:53Z</time></trkpt><trkpt lat="45.6965125952391" lon="9.84025681748836"><ele>276.0</ele><time>2026-04-11T16:36:54Z</time></trkpt><trkpt lat="45.69645973915358" lon="9.840079688649961"><ele>275.0</ele><time>2026-04-11T16:36:55Z</time></trkpt><trkpt lat="45.69639643161964" lon="9.83990476549325"><ele>274.0</ele><time>2026-04-11T16:36:56Z</time></trkpt><trkpt lat="45.69631367312825" lon="9.839692190098402"><ele>273.0</ele><time>2026-04-11T16:36:57Z</time></trkpt><trkpt lat="45.69624102327635" lon="9.839490126168998"><ele>271.6666666666667</ele><time>2026-04-11T16:36:58Z</time></trkpt><trkpt lat="45.69615624761917" lon="9.839257790823897"><ele>270.33333333333337</ele><time>2026-04-11T16:36:59Z</time></trkpt><trkpt lat="45.696074326902846" lon="9.839015682167233"><ele>269.0</ele><time>2026-04-11T16:37:00Z</time></trkpt><trkpt lat="45.69599096821778" lon="9.838773871105733"><ele>269.0</ele><time>2026-04-11T16:37:01Z</time></trkpt><trkpt lat="45.695911350625664" lon="9.8385528521205"><ele>269.0</ele><time>2026-04-11T16:37:02Z</time></trkpt><trkpt lat="45.695832624002755" lon="9.838309264954876"><ele>269.0</ele><time>2026-04-11T16:37:03Z</time></trkpt><trkpt lat="45.69576370215312" lon="9.838067323519942"><ele>268.6666666666667</ele><time>2026-04-11T16:37:04Z</time></trkpt><trkpt lat="45.6956854779618" lon="9.83784362729196"><ele>268.3333333333333</ele><time>2026-04-11T16:37:05Z</time></trkpt><trkpt lat="45.69561045820005" lon="9.837630781051137"><ele>268.0</ele><time>2026-04-11T16:37:06Z</time></trkpt><trkpt lat="45.69554016853813" lon="9.837415297883442"><ele>268.0</ele><time>2026-04-11T16:37:07Z</time></trkpt><trkpt lat="45.695473888542736" lon="9.8372003093391"><ele>268.0</ele><time>2026-04-11T16:37:08Z</time></trkpt><trkpt lat="45.695403461619904" lon="9.837002093116997"><ele>268.0</ele><time>2026-04-11T16:37:09Z</time></trkpt><trkpt lat="45.69533966757773" lon="9.83680975068578"><ele>268.25</ele><time>2026-04-11T16:37:10Z</time></trkpt><trkpt lat="45.69527698321422" lon="9.836643268763348"><ele>268.5</ele><time>2026-04-11T16:37:11Z</time></trkpt><trkpt lat="45.695225877721114" lon="9.836471641644941"><ele>268.75</ele><time>2026-04-11T16:37:12Z</time></trkpt><trkpt lat="45.69516355062115" lon="9.836304725649727"><ele>269.0</ele><time>2026-04-11T16:37:13Z</time></trkpt><trkpt lat="45.69508577122163" lon="9.836133893801838"><ele>269.0</ele><time>2026-04-11T16:37:14Z</time></trkpt><trkpt lat="45.695009725195696" lon="9.835980451828322"><ele>269.0</ele><time>2026-04-11T16:37:15Z</time></trkpt><trkpt lat="45.694928649394754" lon="9.83581982137871"><ele>269.0</ele><time>2026-04-11T16:37:16Z</time></trkpt><trkpt lat="45.69485234429914" lon="9.835642059518014"><ele>269.0</ele><time>2026-04-11T16:37:17Z</time></trkpt><trkpt lat="45.69475649834181" lon="9.835433985401886"><ele>269.33333333333337</ele><time>2026-04-11T16:37:18Z</time></trkpt><trkpt lat="45.69465090435153" lon="9.83524528432306"><ele>269.6666666666667</ele><time>2026-04-11T16:37:19Z</time></trkpt><trkpt lat="45.694559471277955" lon="9.835041692368963"><ele>270.0</ele><time>2026-04-11T16:37:20Z</time></trkpt><trkpt lat="45.69447180116854" lon="9.834828334598805"><ele>269.5</ele><time>2026-04-11T16:37:21Z</time></trkpt><trkpt lat="45.694400223449044" lon="9.83465832332358"><ele>269.0</ele><time>2026-04-11T16:37:22Z</time></trkpt><trkpt lat="45.694328735246344" lon="9.834484119751526"><ele>268.5</ele><time>2026-04-11T16:37:23Z</time></trkpt><trkpt lat="45.69425283786985" lon="9.83430539839712"><ele>268.0</ele><time>2026-04-11T16:37:24Z</time></trkpt><trkpt lat="45.69416752478474" lon="9.834127943748433"><ele>268.0</ele><time>2026-04-11T16:37:25Z</time></trkpt><trkpt lat="45.69409694784166" lon="9.833934841622188"><ele>268.0</ele><time>2026-04-11T16:37:26Z</time></trkpt><trkpt lat="45.694027469901954" lon="9.833743059750278"><ele>268.0</ele><time>2026-04-11T16:37:27Z</time></trkpt><trkpt lat="45.69396377404149" lon="9.833535046680321"><ele>267.5</ele><time>2026-04-11T16:37:28Z</time></trkpt><trkpt lat="45.69390865168262" lon="9.833333478279929"><ele>267.0</ele><time>2026-04-11T16:37:29Z</time></trkpt><trkpt lat="45.69385938901114" lon="9.833138540856442"><ele>266.5</ele><time>2026-04-11T16:37:30Z</time></trkpt><trkpt lat="45.69381813229646" lon="9.832945494806273"><ele>266.0</ele><time>2026-04-11T16:37:31Z</time></trkpt><trkpt lat="45.69380744385736" lon="9.832749166923051"><ele>265.6666666666667</ele><time>2026-04-11T16:37:32Z</time></trkpt><trkpt lat="45.693762401886495" lon="9.83253911442342"><ele>265.3333333333333</ele><time>2026-04-11T16:37:33Z</time></trkpt><trkpt lat="45.69371550928108" lon="9.832310955435565"><ele>265.0</ele><time>2026-04-11T16:37:34Z</time></trkpt><trkpt lat="45.69364505356415" lon="9.83209126344443"><ele>265.0</ele><time>2026-04-11T16:37:35Z</time></trkpt><trkpt lat="45.693587352142714" lon="9.831894567425335"><ele>265.0</ele><time>2026-04-11T16:37:36Z</time></trkpt><trkpt lat="45.693513881317116" lon="9.831692020983324"><ele>265.0</ele><time>2026-04-11T16:37:37Z</time></trkpt><trkpt lat="45.69343334406105" lon="9.831474501206396"><ele>265.0</ele><time>2026-04-11T16:37:38Z</time></trkpt><trkpt lat="45.6933445575577" lon="9.831275163190119"><ele>265.0</ele><time>2026-04-11T16:37:39Z</time></trkpt><trkpt lat="45.69326626240641" lon="9.831102127688132"><ele>265.0</ele><time>2026-04-11T16:37:40Z</time></trkpt><trkpt lat="45.69319918028072" lon="9.830942589541822"><ele>265.0</ele><time>2026-04-11T16:37:41Z</time></trkpt><trkpt lat="45.693150734401456" lon="9.83081125574321"><ele>264.8</ele><time>2026-04-11T16:37:42Z</time></trkpt><trkpt lat="45.693104570855745" lon="9.830690746178066"><ele>264.6</ele><time>2026-04-11T16:37:43Z</time></trkpt><trkpt lat="45.693069424487625" lon="9.830578684959379"><ele>264.4</ele><time>2026-04-11T16:37:44Z</time></trkpt><trkpt lat="45.693022293556695" lon="9.83044446167857"><ele>264.2</ele><time>2026-04-11T16:37:45Z</time></trkpt><trkpt lat="45.692958116505054" lon="9.830287405102903"><ele>264.0</ele><time>2026-04-11T16:37:46Z</time></trkpt><trkpt lat="45.69287443274041" lon="9.830116287909071"><ele>263.3333333333333</ele><time>2026-04-11T16:37:47Z</time></trkpt><trkpt lat="45.69279079977236" lon="9.82991555535802"><ele>262.66666666666663</ele><time>2026-04-11T16:37:48Z</time></trkpt><trkpt lat="45.692697564003836" lon="9.829692623265798"><ele>262.0</ele><time>2026-04-11T16:37:49Z</time></trkpt><trkpt lat="45.69259561331349" lon="9.829474646516116"><ele>261.3333333333333</ele><time>2026-04-11T16:37:50Z</time></trkpt><trkpt lat="45.69250360870888" lon="9.829218689810613"><ele>260.6666666666667</ele><time>2026-04-11T16:37:51Z</time></trkpt><trkpt lat="45.69240658306541" lon="9.828958075741426"><ele>260.0</ele><time>2026-04-11T16:37:52Z</time></trkpt><trkpt lat="45.69229807447447" lon="9.82868018145514"><ele>259.0</ele><time>2026-04-11T16:37:53Z</time></trkpt><trkpt lat="45.69220222737242" lon="9.828395981038803"><ele>258.0</ele><time>2026-04-11T16:37:54Z</time></trkpt><trkpt lat="45.69208156036215" lon="9.82811580480446"><ele>258.0</ele><time>2026-04-11T16:37:55Z</time></trkpt><trkpt lat="45.69197935567575" lon="9.827859848938383"><ele>258.0</ele><time>2026-04-11T16:37:56Z</time></trkpt><trkpt lat="45.6918861914705" lon="9.827619664550387"><ele>258.0</ele><time>2026-04-11T16:37:57Z</time></trkpt><trkpt lat="45.691788127018285" lon="9.827370863323281"><ele>258.0</ele><time>2026-04-11T16:37:58Z</time></trkpt><trkpt lat="45.691696542709636" lon="9.827126801212396"><ele>258.0</ele><time>2026-04-11T16:37:59Z</time></trkpt><trkpt lat="45.691614718124576" lon="9.82691427676609"><ele>258.0</ele><time>2026-04-11T16:38:00Z</time></trkpt><trkpt lat="45.6915286959144" lon="9.826711751643355"><ele>258.0</ele><time>2026-04-11T16:38:01Z</time></trkpt><trkpt lat="45.69145313769269" lon="9.826512776589901"><ele>258.0</ele><time>2026-04-11T16:38:02Z</time></trkpt><trkpt lat="45.691376518319366" lon="9.826315276351412"><ele>258.0</ele><time>2026-04-11T16:38:03Z</time></trkpt><trkpt lat="45.691312817913406" lon="9.826159879156272"><ele>258.0</ele><time>2026-04-11T16:38:04Z</time></trkpt><trkpt lat="45.69124208304571" lon="9.826011101489721"><ele>257.8</ele><time>2026-04-11T16:38:05Z</time></trkpt><trkpt lat="45.6911935843051" lon="9.82587478562069"><ele>257.6</ele><time>2026-04-11T16:38:06Z</time></trkpt><trkpt lat="45.69114274212809" lon="9.82574606452641"><ele>257.4</ele><time>2026-04-11T16:38:07Z</time></trkpt><trkpt lat="45.69109227449017" lon="9.82564507379329"><ele>257.2</ele><time>2026-04-11T16:38:08Z</time></trkpt><trkpt lat="45.6910410832086" lon="9.825534919744547"><ele>257.0</ele><time>2026-04-11T16:38:09Z</time></trkpt><trkpt lat="45.69100001316097" lon="9.825406828519903"><ele>256.6666666666667</ele><time>2026-04-11T16:38:10Z</time></trkpt><trkpt lat="45.690965233490644" lon="9.825291680543796"><ele>256.33333333333337</ele><time>2026-04-11T16:38:11Z</time></trkpt><trkpt lat="45.69092111501885" lon="9.82518726214392"><ele>256.0</ele><time>2026-04-11T16:38:12Z</time></trkpt><trkpt lat="45.69086001468889" lon="9.825104942003106"><ele>255.66666666666669</ele><time>2026-04-11T16:38:13Z</time></trkpt><trkpt lat="45.690778816140345" lon="9.825051205373809"><ele>255.33333333333334</ele><time>2026-04-11T16:38:14Z</time></trkpt><trkpt lat="45.69070453745299" lon="9.825044563183804"><ele>255.0</ele><time>2026-04-11T16:38:15Z</time></trkpt><trkpt lat="45.69062868705275" lon="9.825075573695178"><ele>255.0</ele><time>2026-04-11T16:38:16Z</time></trkpt><trkpt lat="45.69055730040955" lon="9.825142968201499"><ele>255.0</ele><time>2026-04-11T16:38:17Z</time></trkpt><trkpt lat="45.69048173935173" lon="9.825211138472802"><ele>255.0</ele><time>2026-04-11T16:38:18Z</time></trkpt><trkpt lat="45.690408472690436" lon="9.825282617813919"><ele>255.0</ele><time>2026-04-11T16:38:19Z</time></trkpt><trkpt lat="45.690315564590065" lon="9.82533413177319"><ele>255.0</ele><time>2026-04-11T16:38:20Z</time></trkpt><trkpt lat="45.69021466504391" lon="9.825354772090009"><ele>254.83333333333334</ele><time>2026-04-11T16:38:21Z</time></trkpt><trkpt lat="45.69012636664427" lon="9.825334302932514"><ele>254.66666666666669</ele><time>2026-04-11T16:38:22Z</time></trkpt><trkpt lat="45.69004275780078" lon="9.825309931575985"><ele>254.5</ele><time>2026-04-11T16:38:23Z</time></trkpt><trkpt lat="45.689972297010804" lon="9.825284516175287"><ele>254.33333333333334</ele><time>2026-04-11T16:38:24Z</time></trkpt><trkpt lat="45.68988825584753" lon="9.825285651986588"><ele>254.16666666666669</ele><time>2026-04-11T16:38:26Z</time></trkpt><trkpt lat="45.68978307429422" lon="9.825283229260311"><ele>254.0</ele><time>2026-04-11T16:38:30Z</time></trkpt><trkpt lat="45.68964852149075" lon="9.825273357618286"><ele>254.00000000000003</ele><time>2026-04-11T16:38:32Z</time></trkpt><trkpt lat="45.68958171854048" lon="9.825260704293633"><ele>254.0</ele><time>2026-04-11T16:38:33Z</time></trkpt><trkpt lat="45.68950603029944" lon="9.825249194850182"><ele>254.0</ele><time>2026-04-11T16:38:34Z</time></trkpt><trkpt lat="45.689423764363376" lon="9.825239473953813"><ele>254.0</ele><time>2026-04-11T16:38:35Z</time></trkpt><trkpt lat="45.68933137890194" lon="9.825225639764584"><ele>254.00000000000003</ele><time>2026-04-11T16:38:36Z</time></trkpt><trkpt lat="45.68922751741535" lon="9.825205566102124"><ele>254.0</ele><time>2026-04-11T16:38:37Z</time></trkpt><trkpt lat="45.689110250527406" lon="9.825204971388818"><ele>254.0</ele><time>2026-04-11T16:38:38Z</time></trkpt><trkpt lat="45.68898578383561" lon="9.825196034084467"><ele>254.0</ele><time>2026-04-11T16:38:39Z</time></trkpt><trkpt lat="45.688841727540414" lon="9.825167239643424"><ele>254.0</ele><time>2026-04-11T16:38:40Z</time></trkpt><trkpt lat="45.68871494989144" lon="9.825142385356589"><ele>254.0</ele><time>2026-04-11T16:38:41Z</time></trkpt><trkpt lat="45.68858585402021" lon="9.825129644813277"><ele>253.75</ele><time>2026-04-11T16:38:42Z</time></trkpt><trkpt lat="45.68845796523836" lon="9.825110651304316"><ele>253.5</ele><time>2026-04-11T16:38:43Z</time></trkpt><trkpt lat="45.68832367157842" lon="9.825095840268789"><ele>253.25</ele><time>2026-04-11T16:38:44Z</time></trkpt><trkpt lat="45.68820742052408" lon="9.825065147626816"><ele>253.0</ele><time>2026-04-11T16:38:45Z</time></trkpt><trkpt lat="45.68809961446736" lon="9.825030374507097"><ele>252.99999999999997</ele><time>2026-04-11T16:38:46Z</time></trkpt><trkpt lat="45.68800206331473" lon="9.825005109662893"><ele>253.0</ele><time>2026-04-11T16:38:47Z</time></trkpt><trkpt lat="45.68791831549851" lon="9.824976188414118"><ele>253.0</ele><time>2026-04-11T16:38:48Z</time></trkpt><trkpt lat="45.687845243690276" lon="9.82495473250934"><ele>253.0</ele><time>2026-04-11T16:38:49Z</time></trkpt><trkpt lat="45.687780875267556" lon="9.824927508702952"><ele>252.99999999999997</ele><time>2026-04-11T16:38:50Z</time></trkpt><trkpt lat="45.68772052299353" lon="9.824884453233055"><ele>253.0</ele><time>2026-04-11T16:38:51Z</time></trkpt><trkpt lat="45.687655424964255" lon="9.824803411105334"><ele>253.0</ele><time>2026-04-11T16:38:52Z</time></trkpt><trkpt lat="45.68758423375214" lon="9.82473305922812"><ele>253.0</ele><time>2026-04-11T16:38:53Z</time></trkpt><trkpt lat="45.68749017710495" lon="9.824709167654104"><ele>253.0</ele><time>2026-04-11T16:38:54Z</time></trkpt><trkpt lat="45.687382834011764" lon="9.824733742003529"><ele>253.0</ele><time>2026-04-11T16:38:55Z</time></trkpt><trkpt lat="45.6872641395479" lon="9.82478845982058"><ele>253.0</ele><time>2026-04-11T16:38:56Z</time></trkpt><trkpt lat="45.687137340360316" lon="9.824827954329521"><ele>253.0</ele><time>2026-04-11T16:38:57Z</time></trkpt><trkpt lat="45.686982783796964" lon="9.824838935364168"><ele>253.0</ele><time>2026-04-11T16:38:58Z</time></trkpt><trkpt lat="45.68682663858414" lon="9.824848677136044"><ele>253.0</ele><time>2026-04-11T16:38:59Z</time></trkpt><trkpt lat="45.68666734887307" lon="9.82484921631683"><ele>253.0</ele><time>2026-04-11T16:39:00Z</time></trkpt><trkpt lat="45.68648946629666" lon="9.824866187479437"><ele>253.0</ele><time>2026-04-11T16:39:01Z</time></trkpt><trkpt lat="45.686303218051236" lon="9.824875489114344"><ele>253.0</ele><time>2026-04-11T16:39:02Z</time></trkpt><trkpt lat="45.68615889587238" lon="9.824881454642034"><ele>252.5</ele><time>2026-04-11T16:39:03Z</time></trkpt><trkpt lat="45.686026334762225" lon="9.82486658621452"><ele>252.0</ele><time>2026-04-11T16:39:04Z</time></trkpt><trkpt lat="45.685902347503344" lon="9.8248633793248"><ele>251.5</ele><time>2026-04-11T16:39:05Z</time></trkpt><trkpt lat="45.68577805874251" lon="9.824830547634212"><ele>251.0</ele><time>2026-04-11T16:39:06Z</time></trkpt><trkpt lat="45.68565067312409" lon="9.824803682132064"><ele>251.0</ele><time>2026-04-11T16:39:07Z</time></trkpt><trkpt lat="45.685525885559976" lon="9.824768021171417"><ele>251.0</ele><time>2026-04-11T16:39:08Z</time></trkpt><trkpt lat="45.68540627569193" lon="9.824731453892499"><ele>251.0</ele><time>2026-04-11T16:39:09Z</time></trkpt><trkpt lat="45.68529945173184" lon="9.824682430837472"><ele>251.0</ele><time>2026-04-11T16:39:10Z</time></trkpt><trkpt lat="45.685163540879074" lon="9.824596199119663"><ele>251.25</ele><time>2026-04-11T16:39:11Z</time></trkpt><trkpt lat="45.68499936742287" lon="9.824552228341426"><ele>251.5</ele><time>2026-04-11T16:39:12Z</time></trkpt><trkpt lat="45.68485615660718" lon="9.824526246415115"><ele>251.75</ele><time>2026-04-11T16:39:13Z</time></trkpt><trkpt lat="45.684751454427655" lon="9.824487331709689"><ele>252.0</ele><time>2026-04-11T16:39:14Z</time></trkpt><trkpt lat="45.684655278703744" lon="9.824453541753499"><ele>252.0</ele><time>2026-04-11T16:39:15Z</time></trkpt><trkpt lat="45.68455321743545" lon="9.824436146218174"><ele>252.0</ele><time>2026-04-11T16:39:16Z</time></trkpt><trkpt lat="45.68445530822074" lon="9.82442469083179"><ele>252.0</ele><time>2026-04-11T16:39:17Z</time></trkpt><trkpt lat="45.68437089042603" lon="9.824403417276853"><ele>252.0</ele><time>2026-04-11T16:39:18Z</time></trkpt><trkpt lat="45.684285834908025" lon="9.824392952301858"><ele>252.0</ele><time>2026-04-11T16:39:19Z</time></trkpt><trkpt lat="45.68421587939786" lon="9.824321202882357"><ele>251.39999999999998</ele><time>2026-04-11T16:39:20Z</time></trkpt><trkpt lat="45.68414413383058" lon="9.824233059759068"><ele>250.79999999999998</ele><time>2026-04-11T16:39:21Z</time></trkpt><trkpt lat="45.684093532134" lon="9.82415359819735"><ele>250.2</ele><time>2026-04-11T16:39:22Z</time></trkpt><trkpt lat="45.684044306192355" lon="9.824038835652445"><ele>249.6</ele><time>2026-04-11T16:39:23Z</time></trkpt><trkpt lat="45.684006146919515" lon="9.823935980098687"><ele>249.0</ele><time>2026-04-11T16:39:24Z</time></trkpt><trkpt lat="45.683965260277134" lon="9.8237915871268"><ele>249.0</ele><time>2026-04-11T16:39:25Z</time></trkpt><trkpt lat="45.68393322930712" lon="9.8236405486438"><ele>249.0</ele><time>2026-04-11T16:39:26Z</time></trkpt><trkpt lat="45.683910481498096" lon="9.823475995101996"><ele>249.0</ele><time>2026-04-11T16:39:27Z</time></trkpt><trkpt lat="45.68389283586201" lon="9.823295378340475"><ele>249.0</ele><time>2026-04-11T16:39:28Z</time></trkpt><trkpt lat="45.683858483100956" lon="9.82309654284375"><ele>248.66666666666669</ele><time>2026-04-11T16:39:29Z</time></trkpt><trkpt lat="45.68383352169461" lon="9.822898912578742"><ele>248.33333333333334</ele><time>2026-04-11T16:39:30Z</time></trkpt><trkpt lat="45.68379158630402" lon="9.822682734094375"><ele>248.0</ele><time>2026-04-11T16:39:31Z</time></trkpt><trkpt lat="45.683730997994026" lon="9.822435374462115"><ele>248.0</ele><time>2026-04-11T16:39:32Z</time></trkpt><trkpt lat="45.68366157892411" lon="9.82217886024893"><ele>248.0</ele><time>2026-04-11T16:39:33Z</time></trkpt><trkpt lat="45.68360362872993" lon="9.82195143839371"><ele>248.0</ele><time>2026-04-11T16:39:34Z</time></trkpt><trkpt lat="45.68353651904181" lon="9.821692656622597"><ele>247.33333333333334</ele><time>2026-04-11T16:39:35Z</time></trkpt><trkpt lat="45.68345568663571" lon="9.821432307036806"><ele>246.66666666666669</ele><time>2026-04-11T16:39:36Z</time></trkpt><trkpt lat="45.683373753668135" lon="9.82113757220034"><ele>246.0</ele><time>2026-04-11T16:39:37Z</time></trkpt><trkpt lat="45.68327676731173" lon="9.820855347441253"><ele>246.0</ele><time>2026-04-11T16:39:38Z</time></trkpt><trkpt lat="45.68321266969329" lon="9.820558349798738"><ele>246.0</ele><time>2026-04-11T16:39:39Z</time></trkpt><trkpt lat="45.683150464909005" lon="9.820266074034253"><ele>246.0</ele><time>2026-04-11T16:39:40Z</time></trkpt><trkpt lat="45.68307710026299" lon="9.819990002570217"><ele>245.33333333333331</ele><time>2026-04-11T16:39:41Z</time></trkpt><trkpt lat="45.68301622886847" lon="9.819728767836228"><ele>244.66666666666666</ele><time>2026-04-11T16:39:42Z</time></trkpt><trkpt lat="45.68294086694688" lon="9.819500164912446"><ele>244.0</ele><time>2026-04-11T16:39:43Z</time></trkpt><trkpt lat="45.682885618032394" lon="9.819264587203174"><ele>244.0</ele><time>2026-04-11T16:39:44Z</time></trkpt><trkpt lat="45.68281718214174" lon="9.819031250838654"><ele>244.0</ele><time>2026-04-11T16:39:45Z</time></trkpt><trkpt lat="45.68274463497467" lon="9.818801285635898"><ele>244.0</ele><time>2026-04-11T16:39:46Z</time></trkpt><trkpt lat="45.68268040011996" lon="9.818561671983508"><ele>244.33333333333331</ele><time>2026-04-11T16:39:47Z</time></trkpt><trkpt lat="45.68261558095369" lon="9.81832414077477"><ele>244.66666666666669</ele><time>2026-04-11T16:39:48Z</time></trkpt><trkpt lat="45.682551894611485" lon="9.818101900695309"><ele>245.0</ele><time>2026-04-11T16:39:49Z</time></trkpt><trkpt lat="45.68246792450929" lon="9.817847734533357"><ele>244.33333333333334</ele><time>2026-04-11T16:39:50Z</time></trkpt><trkpt lat="45.68239828245953" lon="9.81761791902584"><ele>243.66666666666669</ele><time>2026-04-11T16:39:51Z</time></trkpt><trkpt lat="45.68233086533493" lon="9.817371591423255"><ele>243.0</ele><time>2026-04-11T16:39:52Z</time></trkpt><trkpt lat="45.68225685041639" lon="9.817105608647815"><ele>243.0</ele><time>2026-04-11T16:39:53Z</time></trkpt><trkpt lat="45.68217829845566" lon="9.816821788374593"><ele>243.0</ele><time>2026-04-11T16:39:54Z</time></trkpt><trkpt lat="45.68211795832995" lon="9.816528045499007"><ele>243.0</ele><time>2026-04-11T16:39:55Z</time></trkpt><trkpt lat="45.68202829804935" lon="9.816219533325864"><ele>241.5</ele><time>2026-04-11T16:39:56Z</time></trkpt><trkpt lat="45.681951701728366" lon="9.815911514006928"><ele>240.0</ele><time>2026-04-11T16:39:57Z</time></trkpt><trkpt lat="45.68186868533626" lon="9.815597742858612"><ele>240.0</ele><time>2026-04-11T16:39:58Z</time></trkpt><trkpt lat="45.6817878454073" lon="9.815290478528189"><ele>240.0</ele><time>2026-04-11T16:39:59Z</time></trkpt><trkpt lat="45.68171521456538" lon="9.814989400096799"><ele>240.0</ele><time>2026-04-11T16:40:00Z</time></trkpt><trkpt lat="45.681636216410766" lon="9.81469623687558"><ele>240.0</ele><time>2026-04-11T16:40:01Z</time></trkpt><trkpt lat="45.68155552697008" lon="9.814415971530867"><ele>240.0</ele><time>2026-04-11T16:40:02Z</time></trkpt><trkpt lat="45.68148409228829" lon="9.814151109485259"><ele>240.0</ele><time>2026-04-11T16:40:03Z</time></trkpt><trkpt lat="45.681414905515396" lon="9.813887738458511"><ele>240.0</ele><time>2026-04-11T16:40:04Z</time></trkpt><trkpt lat="45.681338272737264" lon="9.813617797718647"><ele>240.0</ele><time>2026-04-11T16:40:05Z</time></trkpt><trkpt lat="45.68128663180179" lon="9.813354294146833"><ele>239.66666666666669</ele><time>2026-04-11T16:40:06Z</time></trkpt><trkpt lat="45.68122264858938" lon="9.813087612742482"><ele>239.33333333333334</ele><time>2026-04-11T16:40:07Z</time></trkpt><trkpt lat="45.681154509216185" lon="9.812818768390649"><ele>239.0</ele><time>2026-04-11T16:40:08Z</time></trkpt><trkpt lat="45.68109335155497" lon="9.812545555911068"><ele>238.66666666666669</ele><time>2026-04-11T16:40:09Z</time></trkpt><trkpt lat="45.68103969911193" lon="9.812280633863578"><ele>238.33333333333331</ele><time>2026-04-11T16:40:10Z</time></trkpt><trkpt lat="45.68099329652029" lon="9.812020634608755"><ele>238.0</ele><time>2026-04-11T16:40:11Z</time></trkpt><trkpt lat="45.68095260685618" lon="9.811759772006896"><ele>238.0</ele><time>2026-04-11T16:40:12Z</time></trkpt><trkpt lat="45.68090928589271" lon="9.811492668900849"><ele>238.0</ele><time>2026-04-11T16:40:13Z</time></trkpt><trkpt lat="45.68087156967014" lon="9.811217844429432"><ele>238.0</ele><time>2026-04-11T16:40:14Z</time></trkpt><trkpt lat="45.68083958575969" lon="9.810947120716238"><ele>237.66666666666666</ele><time>2026-04-11T16:40:15Z</time></trkpt><trkpt lat="45.68081586233185" lon="9.810680667476367"><ele>237.33333333333331</ele><time>2026-04-11T16:40:16Z</time></trkpt><trkpt lat="45.68079446411406" lon="9.810416194612921"><ele>237.0</ele><time>2026-04-11T16:40:17Z</time></trkpt><trkpt lat="45.68076537384573" lon="9.810149618385557"><ele>237.0</ele><time>2026-04-11T16:40:18Z</time></trkpt><trkpt lat="45.68073984367572" lon="9.809885565096133"><ele>237.0</ele><time>2026-04-11T16:40:19Z</time></trkpt><trkpt lat="45.68072688954993" lon="9.809613173596194"><ele>237.0</ele><time>2026-04-11T16:40:20Z</time></trkpt><trkpt lat="45.68071915360619" lon="9.809318528209534"><ele>237.0</ele><time>2026-04-11T16:40:21Z</time></trkpt><trkpt lat="45.68069346928939" lon="9.80904064879319"><ele>237.0</ele><time>2026-04-11T16:40:22Z</time></trkpt><trkpt lat="45.68068195078635" lon="9.808748767944666"><ele>237.0</ele><time>2026-04-11T16:40:23Z</time></trkpt><trkpt lat="45.680670966208574" lon="9.808455565295311"><ele>236.33333333333331</ele><time>2026-04-11T16:40:24Z</time></trkpt><trkpt lat="45.680658525758275" lon="9.808153807222618"><ele>235.66666666666666</ele><time>2026-04-11T16:40:25Z</time></trkpt><trkpt lat="45.68064092860476" lon="9.807860850969613"><ele>235.0</ele><time>2026-04-11T16:40:26Z</time></trkpt><trkpt lat="45.680628917435534" lon="9.807595408849316"><ele>234.33333333333331</ele><time>2026-04-11T16:40:27Z</time></trkpt><trkpt lat="45.680605472207986" lon="9.807321556590567"><ele>233.66666666666669</ele><time>2026-04-11T16:40:28Z</time></trkpt><trkpt lat="45.68057906767345" lon="9.80707030661823"><ele>233.0</ele><time>2026-04-11T16:40:29Z</time></trkpt><trkpt lat="45.680553574533" lon="9.806829422549624"><ele>233.33333333333334</ele><time>2026-04-11T16:40:30Z</time></trkpt><trkpt lat="45.68051432895396" lon="9.806575811459624"><ele>233.66666666666669</ele><time>2026-04-11T16:40:31Z</time></trkpt><trkpt lat="45.680474475129174" lon="9.80634385711241"><ele>234.0</ele><time>2026-04-11T16:40:32Z</time></trkpt><trkpt lat="45.6804302941366" lon="9.80610681811953"><ele>234.0</ele><time>2026-04-11T16:40:33Z</time></trkpt><trkpt lat="45.680385969809954" lon="9.80588276348929"><ele>234.0</ele><time>2026-04-11T16:40:34Z</time></trkpt><trkpt lat="45.680341149622535" lon="9.805643365773289"><ele>234.0</ele><time>2026-04-11T16:40:35Z</time></trkpt><trkpt lat="45.68028915262597" lon="9.805417345185903"><ele>234.0</ele><time>2026-04-11T16:40:36Z</time></trkpt><trkpt lat="45.68023702477189" lon="9.80519859821487"><ele>234.0</ele><time>2026-04-11T16:40:37Z</time></trkpt><trkpt lat="45.68018357758305" lon="9.8049911946585"><ele>234.0</ele><time>2026-04-11T16:40:38Z</time></trkpt><trkpt lat="45.68013994154999" lon="9.804788635105641"><ele>234.0</ele><time>2026-04-11T16:40:39Z</time></trkpt><trkpt lat="45.6800863891642" lon="9.804567993738845"><ele>234.0</ele><time>2026-04-11T16:40:40Z</time></trkpt><trkpt lat="45.6800297390017" lon="9.804361501245456"><ele>234.0</ele><time>2026-04-11T16:40:41Z</time></trkpt><trkpt lat="45.67997071789513" lon="9.80412596867155"><ele>233.66666666666669</ele><time>2026-04-11T16:40:42Z</time></trkpt><trkpt lat="45.679898409666194" lon="9.803874154693453"><ele>233.33333333333334</ele><time>2026-04-11T16:40:43Z</time></trkpt><trkpt lat="45.679824078774914" lon="9.80362787609669"><ele>233.0</ele><time>2026-04-11T16:40:44Z</time></trkpt><trkpt lat="45.67975591135708" lon="9.80335403647474"><ele>232.66666666666669</ele><time>2026-04-11T16:40:45Z</time></trkpt><trkpt lat="45.67970135360476" lon="9.80306857074919"><ele>232.33333333333331</ele><time>2026-04-11T16:40:46Z</time></trkpt><trkpt lat="45.679628413226446" lon="9.80281757018385"><ele>232.0</ele><time>2026-04-11T16:40:47Z</time></trkpt><trkpt lat="45.67956947825458" lon="9.802577811518105"><ele>232.0</ele><time>2026-04-11T16:40:48Z</time></trkpt><trkpt lat="45.679504840643425" lon="9.802329216948104"><ele>232.0</ele><time>2026-04-11T16:40:49Z</time></trkpt><trkpt lat="45.67943679380871" lon="9.802081534471483"><ele>232.0</ele><time>2026-04-11T16:40:50Z</time></trkpt><trkpt lat="45.67937493787479" lon="9.801837793702743"><ele>231.33333333333331</ele><time>2026-04-11T16:40:51Z</time></trkpt><trkpt lat="45.67931556055024" lon="9.801588120604903"><ele>230.66666666666669</ele><time>2026-04-11T16:40:52Z</time></trkpt><trkpt lat="45.67925787511269" lon="9.801345627952355"><ele>230.0</ele><time>2026-04-11T16:40:53Z</time></trkpt><trkpt lat="45.67920273626507" lon="9.801105657297082"><ele>230.0</ele><time>2026-04-11T16:40:54Z</time></trkpt><trkpt lat="45.67914846921452" lon="9.800871372982403"><ele>230.0</ele><time>2026-04-11T16:40:55Z</time></trkpt><trkpt lat="45.679095668737965" lon="9.800629855075197"><ele>230.0</ele><time>2026-04-11T16:40:56Z</time></trkpt><trkpt lat="45.679047406036595" lon="9.800394883752602"><ele>230.33333333333334</ele><time>2026-04-11T16:40:57Z</time></trkpt><trkpt lat="45.67900351582421" lon="9.800161709019939"><ele>230.66666666666669</ele><time>2026-04-11T16:40:58Z</time></trkpt><trkpt lat="45.678957857281084" lon="9.799943349486353"><ele>231.0</ele><time>2026-04-11T16:40:59Z</time></trkpt><trkpt lat="45.67890655123838" lon="9.79971818485232"><ele>231.0</ele><time>2026-04-11T16:41:00Z</time></trkpt><trkpt lat="45.678850289321296" lon="9.799494644650848"><ele>231.0</ele><time>2026-04-11T16:41:01Z</time></trkpt><trkpt lat="45.678788062529335" lon="9.799270068587346"><ele>231.0</ele><time>2026-04-11T16:41:02Z</time></trkpt><trkpt lat="45.678725873083245" lon="9.799050847370875"><ele>231.0</ele><time>2026-04-11T16:41:03Z</time></trkpt><trkpt lat="45.678671031198924" lon="9.798824213315779"><ele>231.0</ele><time>2026-04-11T16:41:04Z</time></trkpt><trkpt lat="45.67862340148649" lon="9.798611329214737"><ele>231.0</ele><time>2026-04-11T16:41:05Z</time></trkpt><trkpt lat="45.678580892237626" lon="9.798409790531203"><ele>231.0</ele><time>2026-04-11T16:41:06Z</time></trkpt><trkpt lat="45.67853746784188" lon="9.798217478129141"><ele>231.00000000000003</ele><time>2026-04-11T16:41:07Z</time></trkpt><trkpt lat="45.67849843883542" lon="9.798051813620289"><ele>231.00000000000003</ele><time>2026-04-11T16:41:08Z</time></trkpt><trkpt lat="45.6784713607163" lon="9.797916189683919"><ele>231.0</ele><time>2026-04-11T16:41:09Z</time></trkpt><trkpt lat="45.6784458571047" lon="9.79781411872069"><ele>231.0</ele><time>2026-04-11T16:41:10Z</time></trkpt><trkpt lat="45.678413636567335" lon="9.797688831279912"><ele>231.16666666666666</ele><time>2026-04-11T16:41:12Z</time></trkpt><trkpt lat="45.67839721737714" lon="9.797580746200081"><ele>231.33333333333331</ele><time>2026-04-11T16:41:17Z</time></trkpt><trkpt lat="45.67839882869904" lon="9.797416830747633"><ele>231.5</ele><time>2026-04-11T16:41:19Z</time></trkpt><trkpt lat="45.678402121159465" lon="9.79727248622427"><ele>231.66666666666666</ele><time>2026-04-11T16:41:20Z</time></trkpt><trkpt lat="45.678409022626774" lon="9.797170560790008"><ele>231.83333333333331</ele><time>2026-04-11T16:41:21Z</time></trkpt><trkpt lat="45.67838411977002" lon="9.797062760944161"><ele>232.0</ele><time>2026-04-11T16:41:22Z</time></trkpt><trkpt lat="45.67832730291593" lon="9.796962045495867"><ele>231.99999999999997</ele><time>2026-04-11T16:41:23Z</time></trkpt><trkpt lat="45.67826447036965" lon="9.79687678334706"><ele>232.0</ele><time>2026-04-11T16:41:24Z</time></trkpt><trkpt lat="45.678177463878896" lon="9.796815457308226"><ele>232.0</ele><time>2026-04-11T16:41:25Z</time></trkpt><trkpt lat="45.678090220993276" lon="9.796810894290374"><ele>232.0</ele><time>2026-04-11T16:41:26Z</time></trkpt><trkpt lat="45.67799891697241" lon="9.79681295994114"><ele>231.99999999999997</ele><time>2026-04-11T16:41:27Z</time></trkpt><trkpt lat="45.677925930815555" lon="9.796853063486832"><ele>232.0</ele><time>2026-04-11T16:41:28Z</time></trkpt><trkpt lat="45.6778572162367" lon="9.79688281995532"><ele>232.0</ele><time>2026-04-11T16:41:29Z</time></trkpt><trkpt lat="45.677785480932236" lon="9.796982612324113"><ele>232.0</ele><time>2026-04-11T16:41:30Z</time></trkpt><trkpt lat="45.677732180638756" lon="9.797133270627523"><ele>232.0</ele><time>2026-04-11T16:41:31Z</time></trkpt><trkpt lat="45.67772375782039" lon="9.797378457628033"><ele>232.0</ele><time>2026-04-11T16:41:32Z</time></trkpt><trkpt lat="45.67773074457351" lon="9.797558552787208"><ele>231.5</ele><time>2026-04-11T16:41:33Z</time></trkpt><trkpt lat="45.67768715574581" lon="9.79773801225031"><ele>231.0</ele><time>2026-04-11T16:41:34Z</time></trkpt><trkpt lat="45.67763121135134" lon="9.797928662183025"><ele>230.5</ele><time>2026-04-11T16:41:35Z</time></trkpt><trkpt lat="45.67758209688101" lon="9.798149104758714"><ele>230.0</ele><time>2026-04-11T16:41:36Z</time></trkpt><trkpt lat="45.67753219338129" lon="9.798383660242237"><ele>229.33333333333334</ele><time>2026-04-11T16:41:37Z</time></trkpt><trkpt lat="45.67746612379779" lon="9.798593140994416"><ele>228.66666666666669</ele><time>2026-04-11T16:41:38Z</time></trkpt><trkpt lat="45.67737813123709" lon="9.79876039545267"><ele>228.0</ele><time>2026-04-11T16:41:39Z</time></trkpt><trkpt lat="45.67727322400975" lon="9.798952415219556"><ele>228.0</ele><time>2026-04-11T16:41:40Z</time></trkpt><trkpt lat="45.677179838961514" lon="9.799150582813851"><ele>228.0</ele><time>2026-04-11T16:41:41Z</time></trkpt><trkpt lat="45.67710349632748" lon="9.799336559616597"><ele>228.0</ele><time>2026-04-11T16:41:42Z</time></trkpt><trkpt lat="45.677011787060366" lon="9.799504836424449"><ele>228.0</ele><time>2026-04-11T16:41:43Z</time></trkpt><trkpt lat="45.676924026986036" lon="9.799664178154998"><ele>228.0</ele><time>2026-04-11T16:41:44Z</time></trkpt><trkpt lat="45.67682879768167" lon="9.799801814520478"><ele>228.0</ele><time>2026-04-11T16:41:45Z</time></trkpt><trkpt lat="45.676735675944535" lon="9.799943906805444"><ele>228.0</ele><time>2026-04-11T16:41:46Z</time></trkpt><trkpt lat="45.676652587773255" lon="9.800111837477383"><ele>228.0</ele><time>2026-04-11T16:41:47Z</time></trkpt><trkpt lat="45.67660233482484" lon="9.800278919757815"><ele>228.0</ele><time>2026-04-11T16:41:48Z</time></trkpt><trkpt lat="45.676542123141424" lon="9.800438332579729"><ele>228.0</ele><time>2026-04-11T16:41:49Z</time></trkpt><trkpt lat="45.676469570743265" lon="9.800577788277668"><ele>228.0</ele><time>2026-04-11T16:41:50Z</time></trkpt><trkpt lat="45.67639652620698" lon="9.800665212862064"><ele>228.0</ele><time>2026-04-11T16:41:51Z</time></trkpt><trkpt lat="45.676301704034586" lon="9.800836559355586"><ele>228.0</ele><time>2026-04-11T16:41:52Z</time></trkpt><trkpt lat="45.67621407708398" lon="9.801012297558895"><ele>228.0</ele><time>2026-04-11T16:41:53Z</time></trkpt><trkpt lat="45.676137634755456" lon="9.801175797862108"><ele>228.0</ele><time>2026-04-11T16:41:54Z</time></trkpt><trkpt lat="45.67606485432384" lon="9.801318680417099"><ele>228.0</ele><time>2026-04-11T16:41:55Z</time></trkpt><trkpt lat="45.67598093596104" lon="9.801468762927856"><ele>228.0</ele><time>2026-04-11T16:41:56Z</time></trkpt><trkpt lat="45.6759065070747" lon="9.801629982931262"><ele>228.0</ele><time>2026-04-11T16:41:57Z</time></trkpt><trkpt lat="45.675824951352155" lon="9.801795281166141"><ele>228.0</ele><time>2026-04-11T16:41:58Z</time></trkpt><trkpt lat="45.6757465376307" lon="9.801954641231847"><ele>228.0</ele><time>2026-04-11T16:41:59Z</time></trkpt><trkpt lat="45.67567504134423" lon="9.802120512801224"><ele>228.0</ele><time>2026-04-11T16:42:00Z</time></trkpt><trkpt lat="45.675595974148926" lon="9.802275727784478"><ele>228.0</ele><time>2026-04-11T16:42:01Z</time></trkpt><trkpt lat="45.67553093237208" lon="9.802428124447227"><ele>228.0</ele><time>2026-04-11T16:42:02Z</time></trkpt><trkpt lat="45.675468187921055" lon="9.802602646939672"><ele>227.75</ele><time>2026-04-11T16:42:03Z</time></trkpt><trkpt lat="45.67541975303734" lon="9.802765291569523"><ele>227.5</ele><time>2026-04-11T16:42:04Z</time></trkpt><trkpt lat="45.6753841419151" lon="9.802908378305608"><ele>227.25</ele><time>2026-04-11T16:42:05Z</time></trkpt><trkpt lat="45.675337933630004" lon="9.80306721683372"><ele>227.0</ele><time>2026-04-11T16:42:06Z</time></trkpt><trkpt lat="45.675281809669805" lon="9.803227221363793"><ele>226.8</ele><time>2026-04-11T16:42:07Z</time></trkpt><trkpt lat="45.67524929276561" lon="9.803370449045088"><ele>226.6</ele><time>2026-04-11T16:42:08Z</time></trkpt><trkpt lat="45.67521181978732" lon="9.803505466740194"><ele>226.40000000000003</ele><time>2026-04-11T16:42:09Z</time></trkpt><trkpt lat="45.67518336465331" lon="9.803624304686002"><ele>226.20000000000002</ele><time>2026-04-11T16:42:10Z</time></trkpt><trkpt lat="45.67515128997428" lon="9.803764519315024"><ele>226.0</ele><time>2026-04-11T16:42:11Z</time></trkpt><trkpt lat="45.675116537410254" lon="9.803896441120473"><ele>226.5</ele><time>2026-04-11T16:42:12Z</time></trkpt><trkpt lat="45.67507154653274" lon="9.804060105399037"><ele>227.0</ele><time>2026-04-11T16:42:13Z</time></trkpt><trkpt lat="45.675039143829935" lon="9.804226566385564"><ele>227.5</ele><time>2026-04-11T16:42:14Z</time></trkpt><trkpt lat="45.67499110135546" lon="9.80440304744627"><ele>228.0</ele><time>2026-04-11T16:42:15Z</time></trkpt><trkpt lat="45.674948833539354" lon="9.804585547363752"><ele>228.0</ele><time>2026-04-11T16:42:16Z</time></trkpt><trkpt lat="45.6748967661925" lon="9.804764683575058"><ele>228.0</ele><time>2026-04-11T16:42:17Z</time></trkpt><trkpt lat="45.67484093119595" lon="9.804924149111487"><ele>228.0</ele><time>2026-04-11T16:42:18Z</time></trkpt><trkpt lat="45.674790809128126" lon="9.805083986658538"><ele>228.0</ele><time>2026-04-11T16:42:19Z</time></trkpt><trkpt lat="45.674751476658074" lon="9.80522922208502"><ele>228.2</ele><time>2026-04-11T16:42:20Z</time></trkpt><trkpt lat="45.67472446117356" lon="9.80536826657025"><ele>228.4</ele><time>2026-04-11T16:42:21Z</time></trkpt><trkpt lat="45.67467885299106" lon="9.805512372621314"><ele>228.59999999999997</ele><time>2026-04-11T16:42:22Z</time></trkpt><trkpt lat="45.674634387763035" lon="9.805646493000992"><ele>228.79999999999998</ele><time>2026-04-11T16:42:23Z</time></trkpt><trkpt lat="45.67459187737059" lon="9.805762434568823"><ele>229.0</ele><time>2026-04-11T16:42:24Z</time></trkpt><trkpt lat="45.674542390602085" lon="9.805845380972917"><ele>229.0</ele><time>2026-04-11T16:42:25Z</time></trkpt><trkpt lat="45.67448914093335" lon="9.805920636455415"><ele>228.99999999999997</ele><time>2026-04-11T16:42:26Z</time></trkpt><trkpt lat="45.67439725778059" lon="9.806068136366882"><ele>228.99999999999997</ele><time>2026-04-11T16:42:28Z</time></trkpt><trkpt lat="45.674335778772" lon="9.806098355056392"><ele>229.0</ele><time>2026-04-11T16:42:29Z</time></trkpt><trkpt lat="45.67428820352822" lon="9.806182424537395"><ele>229.0</ele><time>2026-04-11T16:42:30Z</time></trkpt><trkpt lat="45.674252295504594" lon="9.806343203729208"><ele>228.99999999999997</ele><time>2026-04-11T16:42:31Z</time></trkpt><trkpt lat="45.67421594871961" lon="9.806480903168376"><ele>229.0</ele><time>2026-04-11T16:42:32Z</time></trkpt><trkpt lat="45.67417572313842" lon="9.806599180813977"><ele>229.0</ele><time>2026-04-11T16:42:33Z</time></trkpt><trkpt lat="45.67414237587026" lon="9.80670010576386"><ele>229.0</ele><time>2026-04-11T16:42:34Z</time></trkpt><trkpt lat="45.67410436446232" lon="9.80678621828078"><ele>228.99999999999997</ele><time>2026-04-11T16:42:35Z</time></trkpt><trkpt lat="45.6740592327649" lon="9.806852840055688"><ele>229.0</ele><time>2026-04-11T16:42:36Z</time></trkpt><trkpt lat="45.674006402305" lon="9.806907895967907"><ele>229.25</ele><time>2026-04-11T16:42:37Z</time></trkpt><trkpt lat="45.67394987059855" lon="9.806997887585933"><ele>229.5</ele><time>2026-04-11T16:42:38Z</time></trkpt><trkpt lat="45.67388143300712" lon="9.80710651269453"><ele>229.75</ele><time>2026-04-11T16:42:39Z</time></trkpt><trkpt lat="45.673791401545515" lon="9.807259258725782"><ele>230.0</ele><time>2026-04-11T16:42:40Z</time></trkpt><trkpt lat="45.67369252617052" lon="9.807406848591622"><ele>230.0</ele><time>2026-04-11T16:42:41Z</time></trkpt><trkpt lat="45.67358192094845" lon="9.807553042753439"><ele>230.0</ele><time>2026-04-11T16:42:42Z</time></trkpt><trkpt lat="45.67343842675621" lon="9.807723539025694"><ele>230.0</ele><time>2026-04-11T16:42:43Z</time></trkpt><trkpt lat="45.673286801562604" lon="9.80789588144757"><ele>230.0</ele><time>2026-04-11T16:42:44Z</time></trkpt><trkpt lat="45.67312936715878" lon="9.80810733979342"><ele>230.0</ele><time>2026-04-11T16:42:45Z</time></trkpt><trkpt lat="45.67299748840684" lon="9.808293261261245"><ele>230.0</ele><time>2026-04-11T16:42:46Z</time></trkpt><trkpt lat="45.67284371094846" lon="9.808492932081254"><ele>230.66666666666669</ele><time>2026-04-11T16:42:47Z</time></trkpt><trkpt lat="45.672718947414836" lon="9.808664603451245"><ele>231.33333333333331</ele><time>2026-04-11T16:42:48Z</time></trkpt><trkpt lat="45.67259070536831" lon="9.808842843736958"><ele>232.0</ele><time>2026-04-11T16:42:49Z</time></trkpt><trkpt lat="45.67245834428894" lon="9.809019564183496"><ele>232.0</ele><time>2026-04-11T16:42:50Z</time></trkpt><trkpt lat="45.672337593579655" lon="9.809167897426793"><ele>232.0</ele><time>2026-04-11T16:42:51Z</time></trkpt><trkpt lat="45.67223032305402" lon="9.809322090676812"><ele>232.0</ele><time>2026-04-11T16:42:52Z</time></trkpt><trkpt lat="45.67213017602129" lon="9.809458288382839"><ele>232.0</ele><time>2026-04-11T16:42:53Z</time></trkpt><trkpt lat="45.67201567015835" lon="9.809590038142648"><ele>231.5</ele><time>2026-04-11T16:42:54Z</time></trkpt><trkpt lat="45.671912105360995" lon="9.809728970879943"><ele>231.0</ele><time>2026-04-11T16:42:55Z</time></trkpt><trkpt lat="45.67180936095389" lon="9.809868628195613"><ele>230.5</ele><time>2026-04-11T16:42:56Z</time></trkpt><trkpt lat="45.67170463584609" lon="9.810018398069758"><ele>230.0</ele><time>2026-04-11T16:42:57Z</time></trkpt><trkpt lat="45.67160599030834" lon="9.810154189845472"><ele>229.75</ele><time>2026-04-11T16:42:58Z</time></trkpt><trkpt lat="45.67152542969315" lon="9.810270983167637"><ele>229.5</ele><time>2026-04-11T16:42:59Z</time></trkpt><trkpt lat="45.671427400195455" lon="9.810395888674462"><ele>229.25</ele><time>2026-04-11T16:43:00Z</time></trkpt><trkpt lat="45.67133615587719" lon="9.810510963108035"><ele>229.0</ele><time>2026-04-11T16:43:01Z</time></trkpt><trkpt lat="45.67125390042846" lon="9.810620054645552"><ele>229.0</ele><time>2026-04-11T16:43:02Z</time></trkpt><trkpt lat="45.671169149821985" lon="9.810726863525502"><ele>229.0</ele><time>2026-04-11T16:43:03Z</time></trkpt><trkpt lat="45.67107131953227" lon="9.810853282840002"><ele>229.0</ele><time>2026-04-11T16:43:04Z</time></trkpt><trkpt lat="45.67097053174873" lon="9.810984967095463"><ele>229.0</ele><time>2026-04-11T16:43:05Z</time></trkpt><trkpt lat="45.67087518676215" lon="9.811110377290813"><ele>229.25</ele><time>2026-04-11T16:43:06Z</time></trkpt><trkpt lat="45.67077639176552" lon="9.811245350610266"><ele>229.5</ele><time>2026-04-11T16:43:07Z</time></trkpt><trkpt lat="45.67067513693627" lon="9.811386784151612"><ele>229.75</ele><time>2026-04-11T16:43:08Z</time></trkpt><trkpt lat="45.670589114690245" lon="9.81150925283096"><ele>230.0</ele><time>2026-04-11T16:43:09Z</time></trkpt><trkpt lat="45.67048704857347" lon="9.811637445058969"><ele>230.0</ele><time>2026-04-11T16:43:10Z</time></trkpt><trkpt lat="45.67038047973759" lon="9.811779395780496"><ele>230.0</ele><time>2026-04-11T16:43:11Z</time></trkpt><trkpt lat="45.67027147998971" lon="9.811930126742952"><ele>230.0</ele><time>2026-04-11T16:43:12Z</time></trkpt><trkpt lat="45.67016779815224" lon="9.812083617364447"><ele>230.0</ele><time>2026-04-11T16:43:13Z</time></trkpt><trkpt lat="45.67005135645824" lon="9.812241646706536"><ele>229.33333333333334</ele><time>2026-04-11T16:43:14Z</time></trkpt><trkpt lat="45.66994177984086" lon="9.812382322207325"><ele>228.66666666666669</ele><time>2026-04-11T16:43:15Z</time></trkpt><trkpt lat="45.66981698632832" lon="9.812536662141948"><ele>228.0</ele><time>2026-04-11T16:43:16Z</time></trkpt><trkpt lat="45.66970595388819" lon="9.812687593132237"><ele>227.33333333333331</ele><time>2026-04-11T16:43:17Z</time></trkpt><trkpt lat="45.66959445118914" lon="9.812839039048297"><ele>226.66666666666666</ele><time>2026-04-11T16:43:18Z</time></trkpt><trkpt lat="45.66948232240863" lon="9.812991354708446"><ele>226.0</ele><time>2026-04-11T16:43:19Z</time></trkpt><trkpt lat="45.66937086863215" lon="9.813144201145406"><ele>225.75</ele><time>2026-04-11T16:43:20Z</time></trkpt><trkpt lat="45.66927517239563" lon="9.813286330875341"><ele>225.5</ele><time>2026-04-11T16:43:21Z</time></trkpt><trkpt lat="45.66917599986135" lon="9.813424873539565"><ele>225.25</ele><time>2026-04-11T16:43:22Z</time></trkpt><trkpt lat="45.66908893880316" lon="9.813543404377532"><ele>225.0</ele><time>2026-04-11T16:43:23Z</time></trkpt><trkpt lat="45.66900317563847" lon="9.813671682737091"><ele>225.0</ele><time>2026-04-11T16:43:24Z</time></trkpt><trkpt lat="45.668914526401316" lon="9.813801303699275"><ele>225.0</ele><time>2026-04-11T16:43:25Z</time></trkpt><trkpt lat="45.66881460981641" lon="9.813919618675616"><ele>225.0</ele><time>2026-04-11T16:43:26Z</time></trkpt><trkpt lat="45.66871760602844" lon="9.814047265156516"><ele>225.0</ele><time>2026-04-11T16:43:27Z</time></trkpt><trkpt lat="45.66863035801583" lon="9.81418528359103"><ele>225.0</ele><time>2026-04-11T16:43:28Z</time></trkpt><trkpt lat="45.66855079402808" lon="9.814317771120866"><ele>225.0</ele><time>2026-04-11T16:43:29Z</time></trkpt><trkpt lat="45.66845301012329" lon="9.814401030323364"><ele>225.0</ele><time>2026-04-11T16:43:30Z</time></trkpt><trkpt lat="45.66837636787252" lon="9.814522625084455"><ele>225.0</ele><time>2026-04-11T16:43:31Z</time></trkpt><trkpt lat="45.668304894892216" lon="9.814653388053372"><ele>225.0</ele><time>2026-04-11T16:43:32Z</time></trkpt><trkpt lat="45.6682387136348" lon="9.814779593623106"><ele>225.0</ele><time>2026-04-11T16:43:33Z</time></trkpt><trkpt lat="45.66818274952246" lon="9.814884051376925"><ele>225.0</ele><time>2026-04-11T16:43:34Z</time></trkpt><trkpt lat="45.66810544500301" lon="9.814972184424786"><ele>225.0</ele><time>2026-04-11T16:43:35Z</time></trkpt><trkpt lat="45.667985664818936" lon="9.815015497089584"><ele>225.0</ele><time>2026-04-11T16:43:36Z</time></trkpt><trkpt lat="45.66786967357145" lon="9.81508770712981"><ele>225.0</ele><time>2026-04-11T16:43:37Z</time></trkpt><trkpt lat="45.66778158257655" lon="9.815168423623744"><ele>225.0</ele><time>2026-04-11T16:43:38Z</time></trkpt><trkpt lat="45.66764964520926" lon="9.814970216308"><ele>225.0</ele><time>2026-04-11T16:43:39Z</time></trkpt><trkpt lat="45.66751128094448" lon="9.814870696021769"><ele>225.33333333333331</ele><time>2026-04-11T16:43:40Z</time></trkpt><trkpt lat="45.667379581354204" lon="9.814793255616584"><ele>225.66666666666666</ele><time>2026-04-11T16:43:41Z</time></trkpt><trkpt lat="45.667231853159485" lon="9.814708017757313"><ele>226.0</ele><time>2026-04-11T16:43:42Z</time></trkpt><trkpt lat="45.667077133245776" lon="9.814618745638525"><ele>226.0</ele><time>2026-04-11T16:43:43Z</time></trkpt><trkpt lat="45.6669189884116" lon="9.81452749746056"><ele>226.0</ele><time>2026-04-11T16:43:44Z</time></trkpt><trkpt lat="45.666746919852116" lon="9.814442354369213"><ele>226.0</ele><time>2026-04-11T16:43:45Z</time></trkpt><trkpt lat="45.66655445025196" lon="9.81431743605428"><ele>226.33333333333331</ele><time>2026-04-11T16:43:46Z</time></trkpt><trkpt lat="45.66634856853059" lon="9.814198806213298"><ele>226.66666666666669</ele><time>2026-04-11T16:43:47Z</time></trkpt><trkpt lat="45.66614947437371" lon="9.814085284128831"><ele>227.0</ele><time>2026-04-11T16:43:48Z</time></trkpt><trkpt lat="45.66593285749272" lon="9.81396179567068"><ele>227.5</ele><time>2026-04-11T16:43:49Z</time></trkpt><trkpt lat="45.66572680074429" lon="9.813842312089587"><ele>228.0</ele><time>2026-04-11T16:43:50Z</time></trkpt><trkpt lat="45.66550980372862" lon="9.81371696693616"><ele>228.0</ele><time>2026-04-11T16:43:51Z</time></trkpt><trkpt lat="45.66528198557309" lon="9.813585561617701"><ele>228.0</ele><time>2026-04-11T16:43:52Z</time></trkpt><trkpt lat="45.6650500072449" lon="9.81345185245173"><ele>226.0</ele><time>2026-04-11T16:43:53Z</time></trkpt><trkpt lat="45.664810005503284" lon="9.813313525772852"><ele>224.0</ele><time>2026-04-11T16:43:54Z</time></trkpt><trkpt lat="45.664569588740854" lon="9.813196574616374"><ele>223.5</ele><time>2026-04-11T16:43:55Z</time></trkpt><trkpt lat="45.66433885889446" lon="9.813043598480947"><ele>223.0</ele><time>2026-04-11T16:43:56Z</time></trkpt><trkpt lat="45.66410694926767" lon="9.812930222216147"><ele>223.0</ele><time>2026-04-11T16:43:57Z</time></trkpt><trkpt lat="45.663881263834355" lon="9.812806361659597"><ele>223.0</ele><time>2026-04-11T16:43:58Z</time></trkpt><trkpt lat="45.663669278111705" lon="9.812658824106265"><ele>222.33333333333331</ele><time>2026-04-11T16:43:59Z</time></trkpt><trkpt lat="45.663464373637254" lon="9.812540350264719"><ele>221.66666666666669</ele><time>2026-04-11T16:44:00Z</time></trkpt><trkpt lat="45.66326587169336" lon="9.812425869304231"><ele>221.0</ele><time>2026-04-11T16:44:01Z</time></trkpt><trkpt lat="45.663072442137604" lon="9.812315770364153"><ele>221.0</ele><time>2026-04-11T16:44:02Z</time></trkpt><trkpt lat="45.662883706175805" lon="9.812203065197092"><ele>221.0</ele><time>2026-04-11T16:44:03Z</time></trkpt><trkpt lat="45.66269814362262" lon="9.812088099517258"><ele>221.0</ele><time>2026-04-11T16:44:04Z</time></trkpt><trkpt lat="45.66253149465317" lon="9.811978170466658"><ele>221.0</ele><time>2026-04-11T16:44:05Z</time></trkpt><trkpt lat="45.66235407729479" lon="9.81187079589579"><ele>221.0</ele><time>2026-04-11T16:44:06Z</time></trkpt><trkpt lat="45.66218161754646" lon="9.811744683187205"><ele>221.0</ele><time>2026-04-11T16:44:07Z</time></trkpt><trkpt lat="45.66201882227714" lon="9.811633580411321"><ele>220.66666666666669</ele><time>2026-04-11T16:44:08Z</time></trkpt><trkpt lat="45.661869035145905" lon="9.81152548206971"><ele>220.33333333333331</ele><time>2026-04-11T16:44:09Z</time></trkpt><trkpt lat="45.661749425048626" lon="9.81138492398288"><ele>220.0</ele><time>2026-04-11T16:44:10Z</time></trkpt><trkpt lat="45.66160742474766" lon="9.811270588410519"><ele>220.0</ele><time>2026-04-11T16:44:11Z</time></trkpt><trkpt lat="45.661466393428455" lon="9.811156239639194"><ele>220.0</ele><time>2026-04-11T16:44:12Z</time></trkpt><trkpt lat="45.66130385173009" lon="9.81102942489304"><ele>220.0</ele><time>2026-04-11T16:44:13Z</time></trkpt><trkpt lat="45.661140405153624" lon="9.81089554739386"><ele>219.66666666666666</ele><time>2026-04-11T16:44:14Z</time></trkpt><trkpt lat="45.660965740078645" lon="9.81075974920234"><ele>219.33333333333331</ele><time>2026-04-11T16:44:15Z</time></trkpt><trkpt lat="45.66080002776235" lon="9.810634551225707"><ele>219.0</ele><time>2026-04-11T16:44:16Z</time></trkpt><trkpt lat="45.660638104399695" lon="9.81052148187804"><ele>219.0</ele><time>2026-04-11T16:44:17Z</time></trkpt><trkpt lat="45.66049074529059" lon="9.810407574409904"><ele>219.0</ele><time>2026-04-11T16:44:18Z</time></trkpt><trkpt lat="45.660352791733544" lon="9.810308317069552"><ele>219.0</ele><time>2026-04-11T16:44:19Z</time></trkpt><trkpt lat="45.660218014080534" lon="9.8102114807346"><ele>218.66666666666669</ele><time>2026-04-11T16:44:20Z</time></trkpt><trkpt lat="45.66008766095048" lon="9.810118006301064"><ele>218.33333333333334</ele><time>2026-04-11T16:44:21Z</time></trkpt><trkpt lat="45.659938577805285" lon="9.81002685899276"><ele>218.0</ele><time>2026-04-11T16:44:22Z</time></trkpt><trkpt lat="45.65980580496927" lon="9.809929723955715"><ele>218.0</ele><time>2026-04-11T16:44:23Z</time></trkpt><trkpt lat="45.659660606941486" lon="9.809801463944813"><ele>218.0</ele><time>2026-04-11T16:44:24Z</time></trkpt><trkpt lat="45.659525131005765" lon="9.809728917512397"><ele>218.0</ele><time>2026-04-11T16:44:25Z</time></trkpt><trkpt lat="45.65940343337174" lon="9.809582977039277"><ele>218.0</ele><time>2026-04-11T16:44:26Z</time></trkpt><trkpt lat="45.659274014288954" lon="9.809490683256303"><ele>218.0</ele><time>2026-04-11T16:44:27Z</time></trkpt><trkpt lat="45.65912411882366" lon="9.809388559607871"><ele>218.0</ele><time>2026-04-11T16:44:28Z</time></trkpt><trkpt lat="45.65896678542967" lon="9.809292405496501"><ele>217.66666666666669</ele><time>2026-04-11T16:44:29Z</time></trkpt><trkpt lat="45.65883062947989" lon="9.80919078219271"><ele>217.33333333333331</ele><time>2026-04-11T16:44:30Z</time></trkpt><trkpt lat="45.65868127562903" lon="9.80909471710027"><ele>217.0</ele><time>2026-04-11T16:44:31Z</time></trkpt><trkpt lat="45.658541138937466" lon="9.808991755431759"><ele>217.0</ele><time>2026-04-11T16:44:32Z</time></trkpt><trkpt lat="45.65839437088472" lon="9.808897907365548"><ele>217.0</ele><time>2026-04-11T16:44:33Z</time></trkpt><trkpt lat="45.65823329299574" lon="9.80884800499308"><ele>217.0</ele><time>2026-04-11T16:44:34Z</time></trkpt><trkpt lat="45.658069486405715" lon="9.80879014332953"><ele>217.0</ele><time>2026-04-11T16:44:35Z</time></trkpt><trkpt lat="45.65791476158473" lon="9.808741075566957"><ele>217.0</ele><time>2026-04-11T16:44:36Z</time></trkpt><trkpt lat="45.65776691310687" lon="9.808696465546706"><ele>217.0</ele><time>2026-04-11T16:44:37Z</time></trkpt><trkpt lat="45.657618919792725" lon="9.808651811873558"><ele>216.75</ele><time>2026-04-11T16:44:38Z</time></trkpt><trkpt lat="45.65747629872188" lon="9.808608779126297"><ele>216.5</ele><time>2026-04-11T16:44:39Z</time></trkpt><trkpt lat="45.65734501406503" lon="9.808569332663264"><ele>216.25</ele><time>2026-04-11T16:44:40Z</time></trkpt><trkpt lat="45.65722217834194" lon="9.808532424414883"><ele>216.0</ele><time>2026-04-11T16:44:41Z</time></trkpt><trkpt lat="45.657090851680096" lon="9.808492964784824"><ele>216.0</ele><time>2026-04-11T16:44:42Z</time></trkpt><trkpt lat="45.65694056511512" lon="9.80844757269102"><ele>216.0</ele><time>2026-04-11T16:44:43Z</time></trkpt><trkpt lat="45.656814496935525" lon="9.808398332389334"><ele>216.0</ele><time>2026-04-11T16:44:44Z</time></trkpt><trkpt lat="45.65669430122743" lon="9.808354057505335"><ele>216.0</ele><time>2026-04-11T16:44:45Z</time></trkpt><trkpt lat="45.656579173570165" lon="9.808328091256897"><ele>216.0</ele><time>2026-04-11T16:44:46Z</time></trkpt><trkpt lat="45.65647785117379" lon="9.808323266525973"><ele>216.00000000000003</ele><time>2026-04-11T16:44:47Z</time></trkpt><trkpt lat="45.65637944560057" lon="9.808341947803584"><ele>216.00000000000003</ele><time>2026-04-11T16:44:48Z</time></trkpt><trkpt lat="45.656286951495986" lon="9.808334768835088"><ele>216.0</ele><time>2026-04-11T16:44:49Z</time></trkpt><trkpt lat="45.65620054768424" lon="9.80830848071516"><ele>216.0</ele><time>2026-04-11T16:44:50Z</time></trkpt><trkpt lat="45.65614525996343" lon="9.808230641430955"><ele>215.75</ele><time>2026-04-11T16:44:58Z</time></trkpt><trkpt lat="45.65608793438223" lon="9.808187768936346"><ele>215.5</ele><time>2026-04-11T16:45:01Z</time></trkpt><trkpt lat="45.655984651830536" lon="9.808002778389119"><ele>215.25</ele><time>2026-04-11T16:45:02Z</time></trkpt><trkpt lat="45.65611007592593" lon="9.807948813964618"><ele>215.0</ele><time>2026-04-11T16:45:03Z</time></trkpt><trkpt lat="45.656011496213274" lon="9.807828353937042"><ele>215.0</ele><time>2026-04-11T16:45:05Z</time></trkpt><trkpt lat="45.65582367241" lon="9.807637557901012"><ele>215.0</ele><time>2026-04-11T16:45:06Z</time></trkpt><trkpt lat="45.65574904253203" lon="9.807553238712101"><ele>215.0</ele><time>2026-04-11T16:45:07Z</time></trkpt><trkpt lat="45.65551633539493" lon="9.807663475789633"><ele>215.4</ele><time>2026-04-11T16:45:08Z</time></trkpt><trkpt lat="45.65536517777848" lon="9.807543209730346"><ele>215.8</ele><time>2026-04-11T16:45:09Z</time></trkpt><trkpt lat="45.6552803536274" lon="9.807557967960358"><ele>216.2</ele><time>2026-04-11T16:45:10Z</time></trkpt><trkpt lat="45.65518749119149" lon="9.807535426903767"><ele>216.6</ele><time>2026-04-11T16:45:11Z</time></trkpt><trkpt lat="45.65511809049943" lon="9.807490469394972"><ele>217.0</ele><time>2026-04-11T16:45:12Z</time></trkpt><trkpt lat="45.655028156670554" lon="9.807490329806358"><ele>217.0</ele><time>2026-04-11T16:45:13Z</time></trkpt><trkpt lat="45.654959702501415" lon="9.807466044008756"><ele>217.0</ele><time>2026-04-11T16:45:14Z</time></trkpt><trkpt lat="45.65480279159878" lon="9.80741455595993"><ele>217.0</ele><time>2026-04-11T16:45:15Z</time></trkpt><trkpt lat="45.654646716856064" lon="9.807367021390244"><ele>217.0</ele><time>2026-04-11T16:45:16Z</time></trkpt><trkpt lat="45.65438922476227" lon="9.807425234652458"><ele>214.0</ele><time>2026-04-11T16:45:17Z</time></trkpt><trkpt lat="45.65390700409054" lon="9.807703195130433"><ele>214.0</ele><time>2026-04-11T16:45:18Z</time></trkpt><trkpt lat="45.653728226718286" lon="9.807680022044321"><ele>214.0</ele><time>2026-04-11T16:45:19Z</time></trkpt><trkpt lat="45.653529126964656" lon="9.80747620182236"><ele>214.0</ele><time>2026-04-11T16:45:20Z</time></trkpt><trkpt lat="45.65334591603694" lon="9.807487617534761"><ele>214.0</ele><time>2026-04-11T16:45:21Z</time></trkpt><trkpt lat="45.653154889778826" lon="9.807499520196059"><ele>214.0</ele><time>2026-04-11T16:45:22Z</time></trkpt><trkpt lat="45.65296377670647" lon="9.807512158078488"><ele>214.0</ele><time>2026-04-11T16:45:23Z</time></trkpt><trkpt lat="45.65277718433735" lon="9.807524925343204"><ele>214.0</ele><time>2026-04-11T16:45:24Z</time></trkpt><trkpt lat="45.65259562074092" lon="9.807537348438265"><ele>214.0</ele><time>2026-04-11T16:45:25Z</time></trkpt><trkpt lat="45.65239421848094" lon="9.80755146813967"><ele>214.0</ele><time>2026-04-11T16:45:26Z</time></trkpt><trkpt lat="45.65218788947742" lon="9.807564217012755"><ele>214.0</ele><time>2026-04-11T16:45:27Z</time></trkpt><trkpt lat="45.65197307605458" lon="9.80757691232691"><ele>214.0</ele><time>2026-04-11T16:45:28Z</time></trkpt><trkpt lat="45.65174176246461" lon="9.807594481906019"><ele>214.0</ele><time>2026-04-11T16:45:29Z</time></trkpt><trkpt lat="45.65153962858947" lon="9.807706609558613"><ele>213.66666666666666</ele><time>2026-04-11T16:45:30Z</time></trkpt><trkpt lat="45.65132779105153" lon="9.80771804513703"><ele>213.33333333333331</ele><time>2026-04-11T16:45:31Z</time></trkpt><trkpt lat="45.65111592540156" lon="9.807729482237237"><ele>213.0</ele><time>2026-04-11T16:45:32Z</time></trkpt><trkpt lat="45.65091763504673" lon="9.808165904772252"><ele>213.0</ele><time>2026-04-11T16:45:33Z</time></trkpt><trkpt lat="45.6507055431856" lon="9.808183739255876"><ele>213.0</ele><time>2026-04-11T16:45:34Z</time></trkpt><trkpt lat="45.650497848973856" lon="9.80819520060731"><ele>213.0</ele><time>2026-04-11T16:45:35Z</time></trkpt><trkpt lat="45.65029843746415" lon="9.808167097090744"><ele>212.33333333333331</ele><time>2026-04-11T16:45:36Z</time></trkpt><trkpt lat="45.65010727480036" lon="9.808147270577676"><ele>211.66666666666666</ele><time>2026-04-11T16:45:37Z</time></trkpt><trkpt lat="45.64992001606313" lon="9.808123167286547"><ele>211.0</ele><time>2026-04-11T16:45:38Z</time></trkpt><trkpt lat="45.64974440766452" lon="9.808097710548"><ele>211.0</ele><time>2026-04-11T16:45:39Z</time></trkpt><trkpt lat="45.64957789159108" lon="9.808073571783234"><ele>211.0</ele><time>2026-04-11T16:45:40Z</time></trkpt><trkpt lat="45.64943106043955" lon="9.808050702626266"><ele>211.0</ele><time>2026-04-11T16:45:41Z</time></trkpt><trkpt lat="45.64927243531866" lon="9.80802715345311"><ele>211.0</ele><time>2026-04-11T16:45:42Z</time></trkpt><trkpt lat="45.649116177988354" lon="9.80800480671937"><ele>211.0</ele><time>2026-04-11T16:45:43Z</time></trkpt><trkpt lat="45.64896245815185" lon="9.80798327975185"><ele>211.0</ele><time>2026-04-11T16:45:44Z</time></trkpt><trkpt lat="45.64882387914686" lon="9.807940065329602"><ele>211.0</ele><time>2026-04-11T16:45:45Z</time></trkpt><trkpt lat="45.64870403363846" lon="9.807913623064772"><ele>211.0</ele><time>2026-04-11T16:45:46Z</time></trkpt><trkpt lat="45.64859217705275" lon="9.80789868953163"><ele>211.0</ele><time>2026-04-11T16:45:47Z</time></trkpt><trkpt lat="45.648502644992895" lon="9.807889047494267"><ele>211.0</ele><time>2026-04-11T16:45:48Z</time></trkpt><trkpt lat="45.64842289106257" lon="9.807863890389157"><ele>211.0</ele><time>2026-04-11T16:45:49Z</time></trkpt><trkpt lat="45.64835666484707" lon="9.807699172637335"><ele>211.16666666666666</ele><time>2026-04-11T16:45:51Z</time></trkpt><trkpt lat="45.64834470912924" lon="9.807585744716754"><ele>211.33333333333331</ele><time>2026-04-11T16:45:52Z</time></trkpt><trkpt lat="45.64826489074261" lon="9.807487176049724"><ele>211.5</ele><time>2026-04-11T16:45:54Z</time></trkpt><trkpt lat="45.6481731148961" lon="9.807484962942931"><ele>211.66666666666669</ele><time>2026-04-11T16:45:56Z</time></trkpt><trkpt lat="45.6481230817778" lon="9.807553150452527"><ele>211.83333333333334</ele><time>2026-04-11T16:45:57Z</time></trkpt><trkpt lat="45.648082201993255" lon="9.807631450476388"><ele>212.0</ele><time>2026-04-11T16:45:58Z</time></trkpt><trkpt lat="45.64802188531063" lon="9.80776940510067"><ele>212.0</ele><time>2026-04-11T16:45:59Z</time></trkpt><trkpt lat="45.64797503683977" lon="9.80784213981377"><ele>212.0</ele><time>2026-04-11T16:46:00Z</time></trkpt><trkpt lat="45.6478987539339" lon="9.807908107098347"><ele>212.0</ele><time>2026-04-11T16:46:01Z</time></trkpt><trkpt lat="45.647761560239125" lon="9.807956754799127"><ele>212.0</ele><time>2026-04-11T16:46:02Z</time></trkpt><trkpt lat="45.647620484311325" lon="9.807945884818128"><ele>212.0</ele><time>2026-04-11T16:46:03Z</time></trkpt><trkpt lat="45.647495314367475" lon="9.807952788933264"><ele>211.33333333333334</ele><time>2026-04-11T16:46:04Z</time></trkpt><trkpt lat="45.64733278856064" lon="9.807914646368987"><ele>210.66666666666669</ele><time>2026-04-11T16:46:05Z</time></trkpt><trkpt lat="45.647171632706666" lon="9.807912112287884"><ele>210.0</ele><time>2026-04-11T16:46:06Z</time></trkpt><trkpt lat="45.64699980920045" lon="9.807914439609338"><ele>209.33333333333331</ele><time>2026-04-11T16:46:07Z</time></trkpt><trkpt lat="45.64683122875676" lon="9.807908717338101"><ele>208.66666666666666</ele><time>2026-04-11T16:46:08Z</time></trkpt><trkpt lat="45.64665760553198" lon="9.80791138582475"><ele>208.0</ele><time>2026-04-11T16:46:09Z</time></trkpt><trkpt lat="45.64647731983636" lon="9.807910114245798"><ele>208.0</ele><time>2026-04-11T16:46:10Z</time></trkpt><trkpt lat="45.64628849933706" lon="9.807907321738982"><ele>208.0</ele><time>2026-04-11T16:46:11Z</time></trkpt><trkpt lat="45.64610516074106" lon="9.807910885286004"><ele>208.0</ele><time>2026-04-11T16:46:12Z</time></trkpt><trkpt lat="45.645935822528585" lon="9.80792504583429"><ele>207.66666666666666</ele><time>2026-04-11T16:46:13Z</time></trkpt><trkpt lat="45.645779921685" lon="9.80792289029394"><ele>207.33333333333331</ele><time>2026-04-11T16:46:14Z</time></trkpt><trkpt lat="45.6456240553934" lon="9.80793266286693"><ele>207.0</ele><time>2026-04-11T16:46:15Z</time></trkpt><trkpt lat="45.64546676771109" lon="9.807933161065053"><ele>207.0</ele><time>2026-04-11T16:46:16Z</time></trkpt><trkpt lat="45.645308810430535" lon="9.80791094602408"><ele>207.0</ele><time>2026-04-11T16:46:17Z</time></trkpt><trkpt lat="45.64516204918755" lon="9.807911335919917"><ele>207.0</ele><time>2026-04-11T16:46:18Z</time></trkpt><trkpt lat="45.645025290257806" lon="9.80793162704941"><ele>207.0</ele><time>2026-04-11T16:46:19Z</time></trkpt><trkpt lat="45.64491428990213" lon="9.8078919404414"><ele>206.75</ele><time>2026-04-11T16:46:20Z</time></trkpt><trkpt lat="45.644790075822314" lon="9.807898728495553"><ele>206.5</ele><time>2026-04-11T16:46:21Z</time></trkpt><trkpt lat="45.64466248710261" lon="9.80790920120016"><ele>206.25</ele><time>2026-04-11T16:46:22Z</time></trkpt><trkpt lat="45.644523459639885" lon="9.807934944989439"><ele>206.0</ele><time>2026-04-11T16:46:23Z</time></trkpt><trkpt lat="45.6443693022185" lon="9.807958843855603"><ele>206.66666666666669</ele><time>2026-04-11T16:46:24Z</time></trkpt><trkpt lat="45.644199737673645" lon="9.807999405199348"><ele>207.33333333333331</ele><time>2026-04-11T16:46:25Z</time></trkpt><trkpt lat="45.644052330697654" lon="9.80800789817611"><ele>208.0</ele><time>2026-04-11T16:46:26Z</time></trkpt><trkpt lat="45.64390607707459" lon="9.807992483391692"><ele>208.0</ele><time>2026-04-11T16:46:27Z</time></trkpt><trkpt lat="45.643766012140865" lon="9.80797810967835"><ele>208.0</ele><time>2026-04-11T16:46:28Z</time></trkpt><trkpt lat="45.64362498979161" lon="9.807972642711295"><ele>208.0</ele><time>2026-04-11T16:46:29Z</time></trkpt><trkpt lat="45.64348460499707" lon="9.807957494518758"><ele>208.0</ele><time>2026-04-11T16:46:30Z</time></trkpt><trkpt lat="45.64334566916332" lon="9.80792473965525"><ele>207.5</ele><time>2026-04-11T16:46:31Z</time></trkpt><trkpt lat="45.64319409317502" lon="9.807932766463887"><ele>207.0</ele><time>2026-04-11T16:46:32Z</time></trkpt><trkpt lat="45.643050247922304" lon="9.807930381296366"><ele>206.5</ele><time>2026-04-11T16:46:33Z</time></trkpt><trkpt lat="45.64289884836524" lon="9.807937188357904"><ele>206.0</ele><time>2026-04-11T16:46:34Z</time></trkpt><trkpt lat="45.6427474046401" lon="9.807928014948155"><ele>205.33333333333334</ele><time>2026-04-11T16:46:35Z</time></trkpt><trkpt lat="45.64259587194269" lon="9.807911365437889"><ele>204.66666666666669</ele><time>2026-04-11T16:46:36Z</time></trkpt><trkpt lat="45.642433581598056" lon="9.807893433100789"><ele>204.0</ele><time>2026-04-11T16:46:37Z</time></trkpt><trkpt lat="45.64226739939725" lon="9.807882523866857"><ele>204.0</ele><time>2026-04-11T16:46:38Z</time></trkpt><trkpt lat="45.64209991314729" lon="9.807875668845226"><ele>204.0</ele><time>2026-04-11T16:46:39Z</time></trkpt><trkpt lat="45.641926919226975" lon="9.807871501018099"><ele>204.0</ele><time>2026-04-11T16:46:40Z</time></trkpt><trkpt lat="45.64174875488872" lon="9.807887406692386"><ele>204.33333333333331</ele><time>2026-04-11T16:46:41Z</time></trkpt><trkpt lat="45.64157855558605" lon="9.807920432727862"><ele>204.66666666666666</ele><time>2026-04-11T16:46:42Z</time></trkpt><trkpt lat="45.641365595635456" lon="9.807958093342808"><ele>205.0</ele><time>2026-04-11T16:46:43Z</time></trkpt><trkpt lat="45.64110149213361" lon="9.807978461883774"><ele>203.5</ele><time>2026-04-11T16:46:44Z</time></trkpt><trkpt lat="45.640858600172784" lon="9.808029767132526"><ele>202.0</ele><time>2026-04-11T16:46:45Z</time></trkpt><trkpt lat="45.640639811663966" lon="9.808050655054759"><ele>202.0</ele><time>2026-04-11T16:46:46Z</time></trkpt><trkpt lat="45.640426767981985" lon="9.808072931512704"><ele>202.0</ele><time>2026-04-11T16:46:47Z</time></trkpt><trkpt lat="45.640224968698305" lon="9.808070963659478"><ele>202.0</ele><time>2026-04-11T16:46:48Z</time></trkpt><trkpt lat="45.640032672055696" lon="9.808055737338297"><ele>202.33333333333331</ele><time>2026-04-11T16:46:49Z</time></trkpt><trkpt lat="45.63984360802952" lon="9.80801753330699"><ele>202.66666666666669</ele><time>2026-04-11T16:46:50Z</time></trkpt><trkpt lat="45.63964530603375" lon="9.80799084885788"><ele>203.0</ele><time>2026-04-11T16:46:51Z</time></trkpt><trkpt lat="45.63944875186483" lon="9.8079499934065"><ele>202.33333333333334</ele><time>2026-04-11T16:46:52Z</time></trkpt><trkpt lat="45.63925153654867" lon="9.807922579693507"><ele>201.66666666666669</ele><time>2026-04-11T16:46:53Z</time></trkpt><trkpt lat="45.639057385833794" lon="9.807890713107437"><ele>201.0</ele><time>2026-04-11T16:46:54Z</time></trkpt><trkpt lat="45.63887669063699" lon="9.807848366088162"><ele>201.0</ele><time>2026-04-11T16:46:55Z</time></trkpt><trkpt lat="45.638687912899435" lon="9.807823777296218"><ele>201.0</ele><time>2026-04-11T16:46:56Z</time></trkpt><trkpt lat="45.63850012075566" lon="9.807834780600112"><ele>201.0</ele><time>2026-04-11T16:46:57Z</time></trkpt><trkpt lat="45.63832213092522" lon="9.807848858389656"><ele>201.66666666666669</ele><time>2026-04-11T16:46:58Z</time></trkpt><trkpt lat="45.63817103854523" lon="9.807862055699836"><ele>202.33333333333334</ele><time>2026-04-11T16:46:59Z</time></trkpt><trkpt lat="45.63800452033728" lon="9.80787966778398"><ele>203.0</ele><time>2026-04-11T16:47:00Z</time></trkpt><trkpt lat="45.637852837141374" lon="9.807909590691292"><ele>202.4</ele><time>2026-04-11T16:47:01Z</time></trkpt><trkpt lat="45.63772833770487" lon="9.807931054507574"><ele>201.8</ele><time>2026-04-11T16:47:02Z</time></trkpt><trkpt lat="45.6376161306945" lon="9.807917022837321"><ele>201.2</ele><time>2026-04-11T16:47:03Z</time></trkpt><trkpt lat="45.637509855842424" lon="9.807925832123622"><ele>200.6</ele><time>2026-04-11T16:47:04Z</time></trkpt><trkpt lat="45.63743582366762" lon="9.807935195234172"><ele>200.0</ele><time>2026-04-11T16:47:05Z</time></trkpt><trkpt lat="45.637364579757374" lon="9.807924550513098"><ele>200.0</ele><time>2026-04-11T16:47:06Z</time></trkpt><trkpt lat="45.637286064657395" lon="9.807918709789455"><ele>200.0</ele><time>2026-04-11T16:47:09Z</time></trkpt><trkpt lat="45.63718866158976" lon="9.807964527015976"><ele>200.0</ele><time>2026-04-11T16:47:34Z</time></trkpt><trkpt lat="45.63709372706581" lon="9.807960069304311"><ele>200.0</ele><time>2026-04-11T16:47:35Z</time></trkpt><trkpt lat="45.636985535522975" lon="9.807966372739807"><ele>200.0</ele><time>2026-04-11T16:47:36Z</time></trkpt><trkpt lat="45.63686388884877" lon="9.80797690228729"><ele>200.33333333333334</ele><time>2026-04-11T16:47:37Z</time></trkpt><trkpt lat="45.636710647161316" lon="9.807991931710456"><ele>200.66666666666669</ele><time>2026-04-11T16:47:38Z</time></trkpt><trkpt lat="45.63655994192013" lon="9.808019750621908"><ele>201.0</ele><time>2026-04-11T16:47:39Z</time></trkpt><trkpt lat="45.63638543744901" lon="9.808004279708033"><ele>201.0</ele><time>2026-04-11T16:47:40Z</time></trkpt><trkpt lat="45.63622420344662" lon="9.808012865324185"><ele>201.0</ele><time>2026-04-11T16:47:41Z</time></trkpt><trkpt lat="45.63607635999788" lon="9.80799589531617"><ele>201.0</ele><time>2026-04-11T16:47:42Z</time></trkpt><trkpt lat="45.63590367983538" lon="9.80797805097178"><ele>201.0</ele><time>2026-04-11T16:47:43Z</time></trkpt><trkpt lat="45.63570597630143" lon="9.807943428968294"><ele>201.0</ele><time>2026-04-11T16:47:44Z</time></trkpt><trkpt lat="45.63549977930495" lon="9.807952461520799"><ele>201.0</ele><time>2026-04-11T16:47:45Z</time></trkpt><trkpt lat="45.63530378335655" lon="9.807945432147593"><ele>201.0</ele><time>2026-04-11T16:47:46Z</time></trkpt><trkpt lat="45.635127219907595" lon="9.80794086673783"><ele>201.0</ele><time>2026-04-11T16:47:47Z</time></trkpt><trkpt lat="45.63496959659712" lon="9.807927655168175"><ele>201.0</ele><time>2026-04-11T16:47:48Z</time></trkpt><trkpt lat="45.634834582668624" lon="9.807927041141044"><ele>201.0</ele><time>2026-04-11T16:47:49Z</time></trkpt><trkpt lat="45.63471450073884" lon="9.807924595113422"><ele>201.0</ele><time>2026-04-11T16:47:50Z</time></trkpt><trkpt lat="45.6346249627503" lon="9.807925873942319"><ele>201.0</ele><time>2026-04-11T16:47:51Z</time></trkpt><trkpt lat="45.634555875974954" lon="9.807918831724765"><ele>201.0</ele><time>2026-04-11T16:47:52Z</time></trkpt><trkpt lat="45.63445178568091" lon="9.807852687849735"><ele>201.0</ele><time>2026-04-11T16:47:54Z</time></trkpt><trkpt lat="45.63439655563422" lon="9.807767058071793"><ele>200.8</ele><time>2026-04-11T16:47:55Z</time></trkpt><trkpt lat="45.63433332869554" lon="9.807711564399824"><ele>200.60000000000002</ele><time>2026-04-11T16:47:57Z</time></trkpt><trkpt lat="45.63423369195009" lon="9.807797568906631"><ele>200.4</ele><time>2026-04-11T16:47:58Z</time></trkpt><trkpt lat="45.634149102137314" lon="9.807851026050823"><ele>200.2</ele><time>2026-04-11T16:47:59Z</time></trkpt><trkpt lat="45.634030456156694" lon="9.807859660223835"><ele>200.0</ele><time>2026-04-11T16:48:00Z</time></trkpt><trkpt lat="45.63387116184185" lon="9.807886857276394"><ele>200.0</ele><time>2026-04-11T16:48:01Z</time></trkpt><trkpt lat="45.633727656174024" lon="9.807898575382747"><ele>200.0</ele><time>2026-04-11T16:48:02Z</time></trkpt><trkpt lat="45.63353980044614" lon="9.807907673573569"><ele>200.0</ele><time>2026-04-11T16:48:03Z</time></trkpt><trkpt lat="45.633350401155575" lon="9.807900412321777"><ele>198.66666666666669</ele><time>2026-04-11T16:48:04Z</time></trkpt><trkpt lat="45.63315248457894" lon="9.807893175622262"><ele>197.33333333333331</ele><time>2026-04-11T16:48:05Z</time></trkpt><trkpt lat="45.632945411303375" lon="9.807886114998027"><ele>196.0</ele><time>2026-04-11T16:48:06Z</time></trkpt><trkpt lat="45.63273292747876" lon="9.807891116105807"><ele>195.66666666666666</ele><time>2026-04-11T16:48:07Z</time></trkpt><trkpt lat="45.632524451681135" lon="9.80787853008281"><ele>195.33333333333331</ele><time>2026-04-11T16:48:08Z</time></trkpt><trkpt lat="45.63231395802851" lon="9.807841388305098"><ele>195.0</ele><time>2026-04-11T16:48:09Z</time></trkpt><trkpt lat="45.63209364196147" lon="9.807822119184353"><ele>195.0</ele><time>2026-04-11T16:48:10Z</time></trkpt><trkpt lat="45.631849436896495" lon="9.807821413236672"><ele>195.0</ele><time>2026-04-11T16:48:11Z</time></trkpt><trkpt lat="45.63160973925376" lon="9.807837690783513"><ele>195.0</ele><time>2026-04-11T16:48:12Z</time></trkpt><trkpt lat="45.63138866657593" lon="9.807821639221487"><ele>195.0</ele><time>2026-04-11T16:48:13Z</time></trkpt><trkpt lat="45.63116999083472" lon="9.807807415643415"><ele>195.0</ele><time>2026-04-11T16:48:14Z</time></trkpt><trkpt lat="45.6309639321268" lon="9.807794009303942"><ele>194.33333333333331</ele><time>2026-04-11T16:48:15Z</time></trkpt><trkpt lat="45.63077352699697" lon="9.807781175067893"><ele>193.66666666666666</ele><time>2026-04-11T16:48:16Z</time></trkpt><trkpt lat="45.63059831230465" lon="9.807769341111415"><ele>193.0</ele><time>2026-04-11T16:48:17Z</time></trkpt><trkpt lat="45.63043709143203" lon="9.807769442598916"><ele>193.0</ele><time>2026-04-11T16:48:18Z</time></trkpt><trkpt lat="45.63030166387485" lon="9.807773473480546"><ele>193.0</ele><time>2026-04-11T16:48:19Z</time></trkpt><trkpt lat="45.63019604622607" lon="9.807767492347311"><ele>193.0</ele><time>2026-04-11T16:48:20Z</time></trkpt><trkpt lat="45.63011748798442" lon="9.807752989629455"><ele>193.0</ele><time>2026-04-11T16:48:21Z</time></trkpt><trkpt lat="45.63004115828978" lon="9.807740621002282"><ele>193.0</ele><time>2026-04-11T16:48:22Z</time></trkpt><trkpt lat="45.62998452607693" lon="9.80761451730638"><ele>193.0</ele><time>2026-04-11T16:48:23Z</time></trkpt><trkpt lat="45.62991865823346" lon="9.807571482424027"><ele>193.0</ele><time>2026-04-11T16:48:24Z</time></trkpt><trkpt lat="45.629840557995976" lon="9.80753103147046"><ele>193.0</ele><time>2026-04-11T16:48:25Z</time></trkpt><trkpt lat="45.62971841772349" lon="9.807561875034878"><ele>193.0</ele><time>2026-04-11T16:48:26Z</time></trkpt><trkpt lat="45.629624638238916" lon="9.80772620226253"><ele>193.0</ele><time>2026-04-11T16:48:27Z</time></trkpt><trkpt lat="45.629497720046935" lon="9.807753531732077"><ele>193.0</ele><time>2026-04-11T16:48:28Z</time></trkpt><trkpt lat="45.62934794939532" lon="9.807747118503896"><ele>193.0</ele><time>2026-04-11T16:48:29Z</time></trkpt><trkpt lat="45.62918783340707" lon="9.807763149929942"><ele>193.0</ele><time>2026-04-11T16:48:30Z</time></trkpt><trkpt lat="45.62903198467907" lon="9.807708730777088"><ele>193.0</ele><time>2026-04-11T16:48:31Z</time></trkpt><trkpt lat="45.628863287413814" lon="9.807691122734989"><ele>193.0</ele><time>2026-04-11T16:48:32Z</time></trkpt><trkpt lat="45.6286583746366" lon="9.807687913656459"><ele>193.0</ele><time>2026-04-11T16:48:33Z</time></trkpt><trkpt lat="45.62845127170664" lon="9.807672999401762"><ele>192.66666666666666</ele><time>2026-04-11T16:48:34Z</time></trkpt><trkpt lat="45.62826525116457" lon="9.807650015467727"><ele>192.33333333333331</ele><time>2026-04-11T16:48:35Z</time></trkpt><trkpt lat="45.62808300581839" lon="9.807598011244862"><ele>192.0</ele><time>2026-04-11T16:48:36Z</time></trkpt><trkpt lat="45.62790234216358" lon="9.80760775609017"><ele>191.33333333333334</ele><time>2026-04-11T16:48:37Z</time></trkpt><trkpt lat="45.627707071856165" lon="9.807600361757459"><ele>190.66666666666669</ele><time>2026-04-11T16:48:38Z</time></trkpt><trkpt lat="45.62748747124393" lon="9.807598649815011"><ele>190.0</ele><time>2026-04-11T16:48:39Z</time></trkpt><trkpt lat="45.627253927322" lon="9.807615969919334"><ele>190.0</ele><time>2026-04-11T16:48:40Z</time></trkpt><trkpt lat="45.62701222999223" lon="9.807605349007206"><ele>190.0</ele><time>2026-04-11T16:48:41Z</time></trkpt><trkpt lat="45.62676149252208" lon="9.807564555386142"><ele>189.5</ele><time>2026-04-11T16:48:42Z</time></trkpt><trkpt lat="45.6265293174331" lon="9.807555763581286"><ele>189.0</ele><time>2026-04-11T16:48:43Z</time></trkpt><trkpt lat="45.62627076569312" lon="9.8075459729922"><ele>189.0</ele><time>2026-04-11T16:48:44Z</time></trkpt><trkpt lat="45.626020699782714" lon="9.807536503710658"><ele>189.0</ele><time>2026-04-11T16:48:45Z</time></trkpt><trkpt lat="45.62575992443227" lon="9.807528014094823"><ele>189.0</ele><time>2026-04-11T16:48:46Z</time></trkpt><trkpt lat="45.625487490878854" lon="9.807517315407335"><ele>189.0</ele><time>2026-04-11T16:48:47Z</time></trkpt><trkpt lat="45.62521293368031" lon="9.807507048956815"><ele>189.5</ele><time>2026-04-11T16:48:48Z</time></trkpt><trkpt lat="45.62492342544891" lon="9.807496232479217"><ele>190.0</ele><time>2026-04-11T16:48:49Z</time></trkpt><trkpt lat="45.624632378638424" lon="9.80748534943576"><ele>189.0</ele><time>2026-04-11T16:48:50Z</time></trkpt><trkpt lat="45.624327280516766" lon="9.807473940965961"><ele>188.0</ele><time>2026-04-11T16:48:51Z</time></trkpt><trkpt lat="45.62402020502296" lon="9.807462458644277"><ele>188.0</ele><time>2026-04-11T16:48:52Z</time></trkpt><trkpt lat="45.62371070755266" lon="9.807451294663696"><ele>188.0</ele><time>2026-04-11T16:48:53Z</time></trkpt><trkpt lat="45.623396389172704" lon="9.807439911195484"><ele>187.5</ele><time>2026-04-11T16:48:54Z</time></trkpt><trkpt lat="45.62307861531017" lon="9.807428402562925"><ele>187.0</ele><time>2026-04-11T16:48:55Z</time></trkpt><trkpt lat="45.62276556824644" lon="9.807396599237153"><ele>186.0</ele><time>2026-04-11T16:48:56Z</time></trkpt><trkpt lat="45.62247999099245" lon="9.807404426953738"><ele>185.0</ele><time>2026-04-11T16:48:57Z</time></trkpt><trkpt lat="45.62221210634891" lon="9.80739488169528"><ele>184.5</ele><time>2026-04-11T16:48:58Z</time></trkpt><trkpt lat="45.62195818694382" lon="9.807285535166027"><ele>184.0</ele><time>2026-04-11T16:48:59Z</time></trkpt><trkpt lat="45.62172856558446" lon="9.807246516103225"><ele>184.0</ele><time>2026-04-11T16:49:00Z</time></trkpt><trkpt lat="45.62151264822284" lon="9.807233995931858"><ele>184.0</ele><time>2026-04-11T16:49:01Z</time></trkpt><trkpt lat="45.621310977849404" lon="9.807229768972201"><ele>184.0</ele><time>2026-04-11T16:49:02Z</time></trkpt><trkpt lat="45.62113170162119" lon="9.8072480810563"><ele>183.5</ele><time>2026-04-11T16:49:03Z</time></trkpt><trkpt lat="45.62098200387764" lon="9.80723642755451"><ele>183.0</ele><time>2026-04-11T16:49:04Z</time></trkpt><trkpt lat="45.62083470118236" lon="9.807262448830716"><ele>182.5</ele><time>2026-04-11T16:49:05Z</time></trkpt><trkpt lat="45.62070662799919" lon="9.807255840184332"><ele>182.0</ele><time>2026-04-11T16:49:06Z</time></trkpt><trkpt lat="45.6205844047168" lon="9.807261209462354"><ele>182.0</ele><time>2026-04-11T16:49:07Z</time></trkpt><trkpt lat="45.62048059770458" lon="9.807260700213641"><ele>182.0</ele><time>2026-04-11T16:49:08Z</time></trkpt><trkpt lat="45.62037361209242" lon="9.807259032849409"><ele>182.0</ele><time>2026-04-11T16:49:09Z</time></trkpt><trkpt lat="45.620260928875034" lon="9.807273363372829"><ele>182.0</ele><time>2026-04-11T16:49:10Z</time></trkpt><trkpt lat="45.62017942473891" lon="9.807258783260364"><ele>182.0</ele><time>2026-04-11T16:49:11Z</time></trkpt><trkpt lat="45.62012568637719" lon="9.807211849874086"><ele>182.2</ele><time>2026-04-11T16:49:12Z</time></trkpt><trkpt lat="45.62006493292726" lon="9.807142631107475"><ele>182.39999999999998</ele><time>2026-04-11T16:49:13Z</time></trkpt><trkpt lat="45.619972483902714" lon="9.80711778383718"><ele>182.60000000000002</ele><time>2026-04-11T16:49:14Z</time></trkpt><trkpt lat="45.61989626943979" lon="9.80707609892223"><ele>182.8</ele><time>2026-04-11T16:49:15Z</time></trkpt><trkpt lat="45.619809623821695" lon="9.807160878193582"><ele>183.0</ele><time>2026-04-11T16:49:16Z</time></trkpt><trkpt lat="45.61970279785309" lon="9.807278261524516"><ele>183.0</ele><time>2026-04-11T16:49:17Z</time></trkpt><trkpt lat="45.619587082241814" lon="9.807390516009132"><ele>183.0</ele><time>2026-04-11T16:49:18Z</time></trkpt><trkpt lat="45.619425870075936" lon="9.807367015356057"><ele>183.0</ele><time>2026-04-11T16:49:19Z</time></trkpt><trkpt lat="45.61929300124016" lon="9.8073647431388"><ele>183.0</ele><time>2026-04-11T16:49:20Z</time></trkpt><trkpt lat="45.619229740659954" lon="9.807362613417551"><ele>183.0</ele><time>2026-04-11T16:49:21Z</time></trkpt><trkpt lat="45.61912218770437" lon="9.807358146551175"><ele>183.0</ele><time>2026-04-11T16:49:22Z</time></trkpt><trkpt lat="45.61899477662801" lon="9.80735255946489"><ele>183.0</ele><time>2026-04-11T16:49:23Z</time></trkpt><trkpt lat="45.61887120429805" lon="9.80734714073199"><ele>183.0</ele><time>2026-04-11T16:49:24Z</time></trkpt><trkpt lat="45.618739741642244" lon="9.807342160976516"><ele>182.75</ele><time>2026-04-11T16:49:25Z</time></trkpt><trkpt lat="45.61861407077564" lon="9.80733808609658"><ele>182.5</ele><time>2026-04-11T16:49:26Z</time></trkpt><trkpt lat="45.61850499170376" lon="9.807334549235515"><ele>182.25</ele><time>2026-04-11T16:49:27Z</time></trkpt><trkpt lat="45.61837876243414" lon="9.80732979227901"><ele>182.0</ele><time>2026-04-11T16:49:28Z</time></trkpt><trkpt lat="45.618197414900706" lon="9.807323050470128"><ele>182.0</ele><time>2026-04-11T16:49:29Z</time></trkpt><trkpt lat="45.6179992521347" lon="9.807315591259881"><ele>182.0</ele><time>2026-04-11T16:49:30Z</time></trkpt><trkpt lat="45.61778369651261" lon="9.807306117477458"><ele>182.0</ele><time>2026-04-11T16:49:31Z</time></trkpt><trkpt lat="45.617585111490484" lon="9.80729738957863"><ele>182.33333333333331</ele><time>2026-04-11T16:49:32Z</time></trkpt><trkpt lat="45.61740890654177" lon="9.807289645279951"><ele>182.66666666666666</ele><time>2026-04-11T16:49:33Z</time></trkpt><trkpt lat="45.61725221866112" lon="9.807282758750269"><ele>183.0</ele><time>2026-04-11T16:49:34Z</time></trkpt><trkpt lat="45.617129111802114" lon="9.807277317236071"><ele>183.0</ele><time>2026-04-11T16:49:35Z</time></trkpt><trkpt lat="45.61702992279958" lon="9.807272924482335"><ele>183.0</ele><time>2026-04-11T16:49:36Z</time></trkpt><trkpt lat="45.617001625966296" lon="9.807157227114566"><ele>183.0</ele><time>2026-04-11T16:49:37Z</time></trkpt><trkpt lat="45.61689333130316" lon="9.807074390321116"><ele>183.0</ele><time>2026-04-11T16:49:38Z</time></trkpt><trkpt lat="45.6167438058968" lon="9.807079607661832"><ele>182.5</ele><time>2026-04-11T16:49:39Z</time></trkpt><trkpt lat="45.61666408114906" lon="9.807229253668288"><ele>182.0</ele><time>2026-04-11T16:49:40Z</time></trkpt><trkpt lat="45.61654258325844" lon="9.807296702424225"><ele>181.5</ele><time>2026-04-11T16:49:41Z</time></trkpt><trkpt lat="45.61643326916814" lon="9.807292795583427"><ele>181.0</ele><time>2026-04-11T16:49:42Z</time></trkpt><trkpt lat="45.61629358825929" lon="9.807268910570912"><ele>180.66666666666669</ele><time>2026-04-11T16:49:43Z</time></trkpt><trkpt lat="45.61614830182267" lon="9.807248170701168"><ele>180.33333333333334</ele><time>2026-04-11T16:49:44Z</time></trkpt><trkpt lat="45.61598038587555" lon="9.80723305303342"><ele>180.0</ele><time>2026-04-11T16:49:45Z</time></trkpt><trkpt lat="45.61580574165676" lon="9.807205483326573"><ele>180.0</ele><time>2026-04-11T16:49:46Z</time></trkpt><trkpt lat="45.61559870851207" lon="9.807189093346961"><ele>180.0</ele><time>2026-04-11T16:49:47Z</time></trkpt><trkpt lat="45.61537003087767" lon="9.80718296705663"><ele>180.0</ele><time>2026-04-11T16:49:48Z</time></trkpt><trkpt lat="45.615117634440395" lon="9.807170953741139"><ele>178.5</ele><time>2026-04-11T16:49:49Z</time></trkpt><trkpt lat="45.61487082750801" lon="9.807148756046027"><ele>177.0</ele><time>2026-04-11T16:49:50Z</time></trkpt><trkpt lat="45.61459378263892" lon="9.807157674005529"><ele>177.5</ele><time>2026-04-11T16:49:51Z</time></trkpt><trkpt lat="45.61431713087889" lon="9.807157568543518"><ele>178.0</ele><time>2026-04-11T16:49:52Z</time></trkpt><trkpt lat="45.614044167213905" lon="9.807156475732599"><ele>178.0</ele><time>2026-04-11T16:49:53Z</time></trkpt><trkpt lat="45.61375085682891" lon="9.807159060702244"><ele>178.0</ele><time>2026-04-11T16:49:54Z</time></trkpt><trkpt lat="45.6134580791243" lon="9.80714320464256"><ele>178.0</ele><time>2026-04-11T16:49:55Z</time></trkpt><trkpt lat="45.613169241381826" lon="9.80712324510958"><ele>178.0</ele><time>2026-04-11T16:49:56Z</time></trkpt><trkpt lat="45.61287630908818" lon="9.807151895075116"><ele>177.5</ele><time>2026-04-11T16:49:57Z</time></trkpt><trkpt lat="45.61260803110683" lon="9.807118458565855"><ele>177.0</ele><time>2026-04-11T16:49:58Z</time></trkpt><trkpt lat="45.61232329060837" lon="9.807112393836162"><ele>177.0</ele><time>2026-04-11T16:49:59Z</time></trkpt><trkpt lat="45.61206712686862" lon="9.807096549272373"><ele>177.0</ele><time>2026-04-11T16:50:00Z</time></trkpt><trkpt lat="45.611811289785976" lon="9.807074881029262"><ele>176.5</ele><time>2026-04-11T16:50:01Z</time></trkpt><trkpt lat="45.611568994840944" lon="9.807073482438792"><ele>176.0</ele><time>2026-04-11T16:50:02Z</time></trkpt><trkpt lat="45.6113144550379" lon="9.807091250881077"><ele>176.0</ele><time>2026-04-11T16:50:03Z</time></trkpt><trkpt lat="45.61105529087441" lon="9.807089883924805"><ele>176.0</ele><time>2026-04-11T16:50:04Z</time></trkpt><trkpt lat="45.6107795601025" lon="9.807096445627137"><ele>176.0</ele><time>2026-04-11T16:50:05Z</time></trkpt><trkpt lat="45.61051011330717" lon="9.807106197530784"><ele>176.0</ele><time>2026-04-11T16:50:06Z</time></trkpt><trkpt lat="45.61023548431788" lon="9.80709329607901"><ele>176.0</ele><time>2026-04-11T16:50:07Z</time></trkpt><trkpt lat="45.60998438713003" lon="9.807100538528195"><ele>176.0</ele><time>2026-04-11T16:50:08Z</time></trkpt><trkpt lat="45.60974674935932" lon="9.807107537799089"><ele>176.0</ele><time>2026-04-11T16:50:09Z</time></trkpt><trkpt lat="45.60951412428226" lon="9.807114389429936"><ele>176.0</ele><time>2026-04-11T16:50:10Z</time></trkpt><trkpt lat="45.609311195645965" lon="9.807119599427208"><ele>176.0</ele><time>2026-04-11T16:50:11Z</time></trkpt><trkpt lat="45.60911431709879" lon="9.807124280449967"><ele>175.66666666666666</ele><time>2026-04-11T16:50:12Z</time></trkpt><trkpt lat="45.608934547447305" lon="9.807128554690568"><ele>175.33333333333334</ele><time>2026-04-11T16:50:13Z</time></trkpt><trkpt lat="45.60877620077267" lon="9.8071323195741"><ele>175.0</ele><time>2026-04-11T16:50:14Z</time></trkpt><trkpt lat="45.60863954226385" lon="9.807135568798445"><ele>175.0</ele><time>2026-04-11T16:50:15Z</time></trkpt><trkpt lat="45.60853673500883" lon="9.807138013173885"><ele>175.0</ele><time>2026-04-11T16:50:16Z</time></trkpt><trkpt lat="45.60842494305821" lon="9.807149966010343"><ele>175.0</ele><time>2026-04-11T16:50:17Z</time></trkpt><trkpt lat="45.60832193790731" lon="9.807075624082286"><ele>175.0</ele><time>2026-04-11T16:50:18Z</time></trkpt><trkpt lat="45.6082445130644" lon="9.806949820457508"><ele>175.0</ele><time>2026-04-11T16:50:19Z</time></trkpt><trkpt lat="45.60813461456778" lon="9.806937676887198"><ele>175.0</ele><time>2026-04-11T16:50:20Z</time></trkpt><trkpt lat="45.608038159821845" lon="9.807024962065887"><ele>175.0</ele><time>2026-04-11T16:50:21Z</time></trkpt><trkpt lat="45.6079331732824" lon="9.807101784907601"><ele>175.0</ele><time>2026-04-11T16:50:22Z</time></trkpt><trkpt lat="45.607814756147796" lon="9.807169465578188"><ele>175.0</ele><time>2026-04-11T16:50:23Z</time></trkpt><trkpt lat="45.60767003927937" lon="9.807217950750092"><ele>174.0</ele><time>2026-04-11T16:50:24Z</time></trkpt><trkpt lat="45.6075000266755" lon="9.80716673511511"><ele>173.0</ele><time>2026-04-11T16:50:25Z</time></trkpt><trkpt lat="45.60730704338476" lon="9.80717095995101"><ele>172.0</ele><time>2026-04-11T16:50:26Z</time></trkpt><trkpt lat="45.607122215431964" lon="9.807175006262307"><ele>173.0</ele><time>2026-04-11T16:50:27Z</time></trkpt><trkpt lat="45.60692057974722" lon="9.80717942052912"><ele>174.0</ele><time>2026-04-11T16:50:28Z</time></trkpt><trkpt lat="45.60672877922481" lon="9.807183755284214"><ele>175.0</ele><time>2026-04-11T16:50:29Z</time></trkpt><trkpt lat="45.60653976141319" lon="9.80719034042066"><ele>175.0</ele><time>2026-04-11T16:50:30Z</time></trkpt><trkpt lat="45.60636455404875" lon="9.807196444413304"><ele>175.0</ele><time>2026-04-11T16:50:31Z</time></trkpt><trkpt lat="45.60617631829095" lon="9.807258839043381"><ele>175.0</ele><time>2026-04-11T16:50:32Z</time></trkpt><trkpt lat="45.60597745876253" lon="9.807264700344197"><ele>174.33333333333334</ele><time>2026-04-11T16:50:33Z</time></trkpt><trkpt lat="45.60578269179685" lon="9.807280312997552"><ele>173.66666666666666</ele><time>2026-04-11T16:50:34Z</time></trkpt><trkpt lat="45.60560107876575" lon="9.807280172963488"><ele>173.0</ele><time>2026-04-11T16:50:35Z</time></trkpt><trkpt lat="45.60541909447065" lon="9.807222971943364"><ele>173.33333333333331</ele><time>2026-04-11T16:50:36Z</time></trkpt><trkpt lat="45.605251931149425" lon="9.80722862361371"><ele>173.66666666666666</ele><time>2026-04-11T16:50:37Z</time></trkpt><trkpt lat="45.60508992682752" lon="9.807234100855974"><ele>174.0</ele><time>2026-04-11T16:50:38Z</time></trkpt><trkpt lat="45.60492539240716" lon="9.807239013921073"><ele>174.0</ele><time>2026-04-11T16:50:39Z</time></trkpt><trkpt lat="45.60476904097919" lon="9.807243413202253"><ele>174.0</ele><time>2026-04-11T16:50:40Z</time></trkpt><trkpt lat="45.60461430806369" lon="9.807247766940645"><ele>174.0</ele><time>2026-04-11T16:50:41Z</time></trkpt><trkpt lat="45.604463115472306" lon="9.807252021065695"><ele>173.75</ele><time>2026-04-11T16:50:42Z</time></trkpt><trkpt lat="45.604308330466665" lon="9.807255306623029"><ele>173.5</ele><time>2026-04-11T16:50:43Z</time></trkpt><trkpt lat="45.60416214897167" lon="9.8072580396295"><ele>173.25</ele><time>2026-04-11T16:50:44Z</time></trkpt><trkpt lat="45.60403493088162" lon="9.807260418090367"><ele>173.0</ele><time>2026-04-11T16:50:45Z</time></trkpt><trkpt lat="45.60391170085093" lon="9.807264872926176"><ele>173.0</ele><time>2026-04-11T16:50:46Z</time></trkpt><trkpt lat="45.60379848805125" lon="9.807289352100408"><ele>173.0</ele><time>2026-04-11T16:50:47Z</time></trkpt><trkpt lat="45.603722166380756" lon="9.807263720956403"><ele>173.0</ele><time>2026-04-11T16:50:48Z</time></trkpt><trkpt lat="45.6036360964688" lon="9.80730002327384"><ele>173.0</ele><time>2026-04-11T16:50:49Z</time></trkpt><trkpt lat="45.60356468255197" lon="9.807277987153386"><ele>173.0</ele><time>2026-04-11T16:50:50Z</time></trkpt><trkpt lat="45.603498751735756" lon="9.807441610913052"><ele>172.2</ele><time>2026-04-11T16:50:51Z</time></trkpt><trkpt lat="45.60342875760074" lon="9.807565500782248"><ele>171.4</ele><time>2026-04-11T16:50:52Z</time></trkpt><trkpt lat="45.60335700100179" lon="9.807674501969112"><ele>170.6</ele><time>2026-04-11T16:50:53Z</time></trkpt><trkpt lat="45.60327447848352" lon="9.807758432067434"><ele>169.79999999999998</ele><time>2026-04-11T16:50:54Z</time></trkpt><trkpt lat="45.60319922139889" lon="9.807809143636135"><ele>169.0</ele><time>2026-04-11T16:50:55Z</time></trkpt><trkpt lat="45.60312025152997" lon="9.807829253883463"><ele>169.0</ele><time>2026-04-11T16:50:56Z</time></trkpt><trkpt lat="45.60301929499654" lon="9.807854166180872"><ele>169.0</ele><time>2026-04-11T16:50:57Z</time></trkpt><trkpt lat="45.602943444486485" lon="9.807864322030204"><ele>169.0</ele><time>2026-04-11T16:50:58Z</time></trkpt><trkpt lat="45.60284206823048" lon="9.807778288416362"><ele>169.0</ele><time>2026-04-11T16:51:00Z</time></trkpt><trkpt lat="45.60283300800614" lon="9.807666839674505"><ele>169.0</ele><time>2026-04-11T16:51:01Z</time></trkpt><trkpt lat="45.6027842160874" lon="9.80758186509688"><ele>169.2</ele><time>2026-04-11T16:51:02Z</time></trkpt><trkpt lat="45.60272558942303" lon="9.807482341647756"><ele>169.39999999999998</ele><time>2026-04-11T16:51:03Z</time></trkpt><trkpt lat="45.602626205866535" lon="9.80740379776218"><ele>169.6</ele><time>2026-04-11T16:51:04Z</time></trkpt><trkpt lat="45.60255214545419" lon="9.807345695180368"><ele>169.8</ele><time>2026-04-11T16:51:05Z</time></trkpt><trkpt lat="45.60245489201192" lon="9.807290248114164"><ele>170.0</ele><time>2026-04-11T16:51:06Z</time></trkpt><trkpt lat="45.602342103978756" lon="9.807302240371355"><ele>170.0</ele><time>2026-04-11T16:51:07Z</time></trkpt><trkpt lat="45.602252755198755" lon="9.807342787510832"><ele>170.0</ele><time>2026-04-11T16:51:08Z</time></trkpt><trkpt lat="45.602158945571546" lon="9.807434525498369"><ele>170.0</ele><time>2026-04-11T16:51:09Z</time></trkpt><trkpt lat="45.60208246117926" lon="9.807582968628587"><ele>170.0</ele><time>2026-04-11T16:51:10Z</time></trkpt><trkpt lat="45.60203230183251" lon="9.807705827479747"><ele>170.0</ele><time>2026-04-11T16:51:11Z</time></trkpt><trkpt lat="45.60198523411459" lon="9.807797059633142"><ele>170.0</ele><time>2026-04-11T16:51:12Z</time></trkpt><trkpt lat="45.601837184962804" lon="9.807916632399628"><ele>170.0</ele><time>2026-04-11T16:51:14Z</time></trkpt><trkpt lat="45.601752063313455" lon="9.807961850826715"><ele>170.0</ele><time>2026-04-11T16:51:15Z</time></trkpt><trkpt lat="45.601691545581865" lon="9.808064766217862"><ele>170.0</ele><time>2026-04-11T16:51:16Z</time></trkpt><trkpt lat="45.60162378408044" lon="9.80819751701228"><ele>170.0</ele><time>2026-04-11T16:51:17Z</time></trkpt><trkpt lat="45.60155415033526" lon="9.808332935888785"><ele>170.0</ele><time>2026-04-11T16:51:18Z</time></trkpt><trkpt lat="45.60148088720097" lon="9.808487940731743"><ele>170.0</ele><time>2026-04-11T16:51:19Z</time></trkpt><trkpt lat="45.60140388969584" lon="9.808596430064776"><ele>170.0</ele><time>2026-04-11T16:51:20Z</time></trkpt><trkpt lat="45.60130649425224" lon="9.808640835387603"><ele>170.0</ele><time>2026-04-11T16:51:21Z</time></trkpt><trkpt lat="45.601209138415825" lon="9.808668984221988"><ele>170.0</ele><time>2026-04-11T16:51:22Z</time></trkpt><trkpt lat="45.601119928122586" lon="9.80868259613622"><ele>170.0</ele><time>2026-04-11T16:51:23Z</time></trkpt><trkpt lat="45.601024439833516" lon="9.808689369762098"><ele>170.0</ele><time>2026-04-11T16:51:24Z</time></trkpt><trkpt lat="45.60092211558361" lon="9.808679623515983"><ele>170.0</ele><time>2026-04-11T16:51:25Z</time></trkpt><trkpt lat="45.60081031887714" lon="9.80866255678653"><ele>169.5</ele><time>2026-04-11T16:51:26Z</time></trkpt><trkpt lat="45.6006950737118" lon="9.808679367602473"><ele>169.0</ele><time>2026-04-11T16:51:27Z</time></trkpt><trkpt lat="45.600563098587926" lon="9.808671122002394"><ele>168.5</ele><time>2026-04-11T16:51:28Z</time></trkpt><trkpt lat="45.600432359643854" lon="9.808678678221327"><ele>168.0</ele><time>2026-04-11T16:51:29Z</time></trkpt><trkpt lat="45.600295702743026" lon="9.808701588950592"><ele>168.0</ele><time>2026-04-11T16:51:30Z</time></trkpt><trkpt lat="45.60016184315032" lon="9.80868167795191"><ele>168.0</ele><time>2026-04-11T16:51:31Z</time></trkpt><trkpt lat="45.60000950532728" lon="9.808690121971155"><ele>168.0</ele><time>2026-04-11T16:51:32Z</time></trkpt><trkpt lat="45.59989118280383" lon="9.808690897776893"><ele>168.0</ele><time>2026-04-11T16:51:33Z</time></trkpt><trkpt lat="45.59975947574517" lon="9.808694082522734"><ele>168.0</ele><time>2026-04-11T16:51:34Z</time></trkpt><trkpt lat="45.59964168592946" lon="9.80869486512517"><ele>168.0</ele><time>2026-04-11T16:51:35Z</time></trkpt><trkpt lat="45.59950424872232" lon="9.808702736799013"><ele>168.0</ele><time>2026-04-11T16:51:36Z</time></trkpt><trkpt lat="45.59936126637678" lon="9.808730233701805"><ele>168.0</ele><time>2026-04-11T16:51:37Z</time></trkpt><trkpt lat="45.5992261057083" lon="9.808720033557131"><ele>168.0</ele><time>2026-04-11T16:51:38Z</time></trkpt><trkpt lat="45.59908917473092" lon="9.808756143320288"><ele>168.0</ele><time>2026-04-11T16:51:39Z</time></trkpt><trkpt lat="45.598964782294246" lon="9.808752680206776"><ele>168.0</ele><time>2026-04-11T16:51:40Z</time></trkpt><trkpt lat="45.5988343079062" lon="9.808755486099983"><ele>168.0</ele><time>2026-04-11T16:51:41Z</time></trkpt><trkpt lat="45.59871823561826" lon="9.808770180949471"><ele>167.8</ele><time>2026-04-11T16:51:42Z</time></trkpt><trkpt lat="45.59861122769608" lon="9.808778029554476"><ele>167.60000000000002</ele><time>2026-04-11T16:51:43Z</time></trkpt><trkpt lat="45.59852170134949" lon="9.80878043671283"><ele>167.39999999999998</ele><time>2026-04-11T16:51:44Z</time></trkpt><trkpt lat="45.59843725791081" lon="9.80878050196243"><ele>167.2</ele><time>2026-04-11T16:51:45Z</time></trkpt><trkpt lat="45.59832611315414" lon="9.80874537164201"><ele>167.0</ele><time>2026-04-11T16:51:46Z</time></trkpt><trkpt lat="45.59823778706284" lon="9.808754531080105"><ele>167.0</ele><time>2026-04-11T16:51:47Z</time></trkpt><trkpt lat="45.59814083578527" lon="9.808765152059989"><ele>167.0</ele><time>2026-04-11T16:51:48Z</time></trkpt><trkpt lat="45.598031080136224" lon="9.808787839295357"><ele>167.0</ele><time>2026-04-11T16:51:49Z</time></trkpt><trkpt lat="45.597918746191986" lon="9.808773196268197"><ele>167.0</ele><time>2026-04-11T16:51:50Z</time></trkpt><trkpt lat="45.59779785034695" lon="9.808766163914726"><ele>167.0</ele><time>2026-04-11T16:51:51Z</time></trkpt><trkpt lat="45.59764707776568" lon="9.808785130082407"><ele>165.66666666666666</ele><time>2026-04-11T16:51:52Z</time></trkpt><trkpt lat="45.59747834076532" lon="9.808832647728845"><ele>164.33333333333334</ele><time>2026-04-11T16:51:53Z</time></trkpt><trkpt lat="45.59734328983951" lon="9.80886138100271"><ele>163.0</ele><time>2026-04-11T16:51:54Z</time></trkpt><trkpt lat="45.59715804597108" lon="9.808901320277979"><ele>164.0</ele><time>2026-04-11T16:51:55Z</time></trkpt><trkpt lat="45.59699365486973" lon="9.808936482635389"><ele>165.0</ele><time>2026-04-11T16:51:56Z</time></trkpt><trkpt lat="45.5968328698952" lon="9.808969720493373"><ele>166.0</ele><time>2026-04-11T16:51:57Z</time></trkpt><trkpt lat="45.59666597613321" lon="9.808997127699744"><ele>166.0</ele><time>2026-04-11T16:51:58Z</time></trkpt><trkpt lat="45.5964523494409" lon="9.809013763006831"><ele>166.0</ele><time>2026-04-11T16:51:59Z</time></trkpt><trkpt lat="45.596235246035064" lon="9.80901467891523"><ele>166.0</ele><time>2026-04-11T16:52:00Z</time></trkpt><trkpt lat="45.59601054053203" lon="9.809012654583379"><ele>166.0</ele><time>2026-04-11T16:52:01Z</time></trkpt><trkpt lat="45.59583868473242" lon="9.809009496918346"><ele>166.0</ele><time>2026-04-11T16:52:02Z</time></trkpt><trkpt lat="45.595687746277704" lon="9.809006723587204"><ele>166.0</ele><time>2026-04-11T16:52:03Z</time></trkpt><trkpt lat="45.595553805519025" lon="9.80900401473689"><ele>166.0</ele><time>2026-04-11T16:52:04Z</time></trkpt><trkpt lat="45.59540735528071" lon="9.809004889861068"><ele>166.0</ele><time>2026-04-11T16:52:05Z</time></trkpt><trkpt lat="45.59532063558287" lon="9.809021080780694"><ele>166.0</ele><time>2026-04-11T16:52:06Z</time></trkpt><trkpt lat="45.595252617383196" lon="9.80903959196971"><ele>166.0</ele><time>2026-04-11T16:52:07Z</time></trkpt><trkpt lat="45.59516870728081" lon="9.809048720430475"><ele>166.0</ele><time>2026-04-11T16:52:09Z</time></trkpt><trkpt lat="45.59510111705265" lon="9.80906178827401"><ele>166.0</ele><time>2026-04-11T16:52:13Z</time></trkpt><trkpt lat="45.59500902182032" lon="9.809040303174543"><ele>166.0</ele><time>2026-04-11T16:52:16Z</time></trkpt><trkpt lat="45.59493458919763" lon="9.809039364553435"><ele>166.0</ele><time>2026-04-11T16:52:17Z</time></trkpt><trkpt lat="45.59483001626021" lon="9.809038045851622"><ele>166.0</ele><time>2026-04-11T16:52:18Z</time></trkpt><trkpt lat="45.59473299425813" lon="9.809036822353251"><ele>166.0</ele><time>2026-04-11T16:52:19Z</time></trkpt><trkpt lat="45.59461693230376" lon="9.80903608634534"><ele>166.0</ele><time>2026-04-11T16:52:20Z</time></trkpt><trkpt lat="45.5944919186267" lon="9.80903663879157"><ele>166.0</ele><time>2026-04-11T16:52:21Z</time></trkpt><trkpt lat="45.59436788643007" lon="9.809038306554095"><ele>166.0</ele><time>2026-04-11T16:52:22Z</time></trkpt><trkpt lat="45.59425953257515" lon="9.809058812213811"><ele>166.0</ele><time>2026-04-11T16:52:23Z</time></trkpt><trkpt lat="45.594150212750506" lon="9.809031874568094"><ele>166.0</ele><time>2026-04-11T16:52:24Z</time></trkpt><trkpt lat="45.59403471923502" lon="9.809007775210603"><ele>166.0</ele><time>2026-04-11T16:52:25Z</time></trkpt><trkpt lat="45.59391996979624" lon="9.808990938616622"><ele>166.0</ele><time>2026-04-11T16:52:26Z</time></trkpt><trkpt lat="45.59380554851407" lon="9.808968551580541"><ele>166.0</ele><time>2026-04-11T16:52:27Z</time></trkpt><trkpt lat="45.59370854539457" lon="9.808947011468902"><ele>166.0</ele><time>2026-04-11T16:52:28Z</time></trkpt><trkpt lat="45.59361399220955" lon="9.808926897305914"><ele>165.5</ele><time>2026-04-11T16:52:29Z</time></trkpt><trkpt lat="45.59350534679043" lon="9.80890378297385"><ele>165.0</ele><time>2026-04-11T16:52:30Z</time></trkpt><trkpt lat="45.5933999636298" lon="9.808881361409163"><ele>164.5</ele><time>2026-04-11T16:52:31Z</time></trkpt><trkpt lat="45.5932650794023" lon="9.808852149713658"><ele>164.0</ele><time>2026-04-11T16:52:32Z</time></trkpt><trkpt lat="45.59311807586964" lon="9.808820313255254"><ele>164.0</ele><time>2026-04-11T16:52:33Z</time></trkpt><trkpt lat="45.59302339042658" lon="9.808801798202625"><ele>164.0</ele><time>2026-04-11T16:52:34Z</time></trkpt><trkpt lat="45.59292041570682" lon="9.808781889540514"><ele>164.0</ele><time>2026-04-11T16:52:35Z</time></trkpt><trkpt lat="45.59283870462238" lon="9.808766313484512"><ele>164.0</ele><time>2026-04-11T16:52:36Z</time></trkpt><trkpt lat="45.592755320828594" lon="9.808751822497216"><ele>164.0</ele><time>2026-04-11T16:52:37Z</time></trkpt><trkpt lat="45.592685012176375" lon="9.808740265380333"><ele>164.0</ele><time>2026-04-11T16:52:38Z</time></trkpt><trkpt lat="45.59260611266911" lon="9.80872729620116"><ele>164.0</ele><time>2026-04-11T16:52:39Z</time></trkpt><trkpt lat="45.59255698236587" lon="9.808524380747992"><ele>164.0</ele><time>2026-04-11T16:52:40Z</time></trkpt><trkpt lat="45.59248999413501" lon="9.80854778360092"><ele>164.0</ele><time>2026-04-11T16:52:41Z</time></trkpt><trkpt lat="45.59241690090537" lon="9.808651790469472"><ele>164.0</ele><time>2026-04-11T16:52:42Z</time></trkpt><trkpt lat="45.59235761174108" lon="9.808721691262647"><ele>164.0</ele><time>2026-04-11T16:52:43Z</time></trkpt><trkpt lat="45.592311274165034" lon="9.808804073458465"><ele>164.0</ele><time>2026-04-11T16:52:44Z</time></trkpt><trkpt lat="45.59225159837962" lon="9.808865235294826"><ele>164.0</ele><time>2026-04-11T16:52:45Z</time></trkpt><trkpt lat="45.5921785779612" lon="9.808932313188484"><ele>164.0</ele><time>2026-04-11T16:52:46Z</time></trkpt><trkpt lat="45.59204328730454" lon="9.809050706893618"><ele>164.0</ele><time>2026-04-11T16:52:48Z</time></trkpt><trkpt lat="45.591796784794525" lon="9.809147735960181"><ele>164.0</ele><time>2026-04-11T16:52:49Z</time></trkpt><trkpt lat="45.59153687812112" lon="9.809193845990748"><ele>164.0</ele><time>2026-04-11T16:52:50Z</time></trkpt><trkpt lat="45.59138766306828" lon="9.809161703942507"><ele>164.0</ele><time>2026-04-11T16:52:51Z</time></trkpt><trkpt lat="45.59125399958244" lon="9.809161596662522"><ele>164.0</ele><time>2026-04-11T16:52:52Z</time></trkpt><trkpt lat="45.591120846680774" lon="9.809195109010206"><ele>164.0</ele><time>2026-04-11T16:52:53Z</time></trkpt><trkpt lat="45.59099142992141" lon="9.80915889314066"><ele>164.0</ele><time>2026-04-11T16:52:54Z</time></trkpt><trkpt lat="45.590876386642684" lon="9.809157449808742"><ele>164.0</ele><time>2026-04-11T16:52:55Z</time></trkpt><trkpt lat="45.59077296494309" lon="9.80916433645844"><ele>164.0</ele><time>2026-04-11T16:52:56Z</time></trkpt><trkpt lat="45.590674049575306" lon="9.809168610963688"><ele>164.0</ele><time>2026-04-11T16:52:57Z</time></trkpt><trkpt lat="45.59056258576751" lon="9.80917803856707"><ele>164.0</ele><time>2026-04-11T16:52:58Z</time></trkpt><trkpt lat="45.590459002033654" lon="9.809230951242954"><ele>164.0</ele><time>2026-04-11T16:52:59Z</time></trkpt><trkpt lat="45.59036840616171" lon="9.809343596765217"><ele>164.0</ele><time>2026-04-11T16:53:00Z</time></trkpt><trkpt lat="45.59024442646158" lon="9.809426572397483"><ele>163.79999999999998</ele><time>2026-04-11T16:53:01Z</time></trkpt><trkpt lat="45.59013703280985" lon="9.809477800878183"><ele>163.6</ele><time>2026-04-11T16:53:02Z</time></trkpt><trkpt lat="45.59002556675732" lon="9.809505751933811"><ele>163.4</ele><time>2026-04-11T16:53:03Z</time></trkpt><trkpt lat="45.58993362080298" lon="9.809532462148788"><ele>163.2</ele><time>2026-04-11T16:53:04Z</time></trkpt><trkpt lat="45.58983499456258" lon="9.809555406157868"><ele>163.0</ele><time>2026-04-11T16:53:05Z</time></trkpt><trkpt lat="45.58972916551215" lon="9.80958380481398"><ele>161.0</ele><time>2026-04-11T16:53:09Z</time></trkpt><trkpt lat="45.589977044713784" lon="9.81045638094246"><ele>161.0</ele><time>2026-04-11T16:53:11Z</time></trkpt><trkpt lat="45.58998840908422" lon="9.810729066318574"><ele>161.0</ele><time>2026-04-11T16:53:12Z</time></trkpt><trkpt lat="45.59000079457067" lon="9.810970059323754"><ele>161.0</ele><time>2026-04-11T16:53:13Z</time></trkpt><trkpt lat="45.59001488935086" lon="9.811256244496708"><ele>161.0</ele><time>2026-04-11T16:53:14Z</time></trkpt><trkpt lat="45.59002289678448" lon="9.81150081131539"><ele>161.0</ele><time>2026-04-11T16:53:15Z</time></trkpt><trkpt lat="45.590024402769544" lon="9.811741499003151"><ele>161.0</ele><time>2026-04-11T16:53:16Z</time></trkpt><trkpt lat="45.59003700761113" lon="9.811977616570717"><ele>160.5</ele><time>2026-04-11T16:53:17Z</time></trkpt><trkpt lat="45.59000599197402" lon="9.812198914588807"><ele>160.0</ele><time>2026-04-11T16:53:18Z</time></trkpt><trkpt lat="45.589971355842714" lon="9.81236743919635"><ele>159.5</ele><time>2026-04-11T16:53:19Z</time></trkpt><trkpt lat="45.589919293092706" lon="9.812476635195262"><ele>159.0</ele><time>2026-04-11T16:53:20Z</time></trkpt><trkpt lat="45.589861265191324" lon="9.812605993291255"><ele>159.0</ele><time>2026-04-11T16:53:21Z</time></trkpt><trkpt lat="45.58971666332106" lon="9.812652112490444"><ele>159.0</ele><time>2026-04-11T16:53:22Z</time></trkpt><trkpt lat="45.58956998187617" lon="9.812695957861276"><ele>159.0</ele><time>2026-04-11T16:53:23Z</time></trkpt><trkpt lat="45.58941395790584" lon="9.812718552751319"><ele>159.0</ele><time>2026-04-11T16:53:24Z</time></trkpt><trkpt lat="45.58921686469305" lon="9.812740719725348"><ele>159.0</ele><time>2026-04-11T16:53:25Z</time></trkpt><trkpt lat="45.58901603577622" lon="9.812765846672109"><ele>159.0</ele><time>2026-04-11T16:53:26Z</time></trkpt><trkpt lat="45.588794994526104" lon="9.812810929973159"><ele>159.5</ele><time>2026-04-11T16:53:27Z</time></trkpt><trkpt lat="45.58854455483458" lon="9.812821503631099"><ele>160.0</ele><time>2026-04-11T16:53:28Z</time></trkpt><trkpt lat="45.58831975045924" lon="9.812843551132776"><ele>160.0</ele><time>2026-04-11T16:53:29Z</time></trkpt><trkpt lat="45.58808287317264" lon="9.812890541289013"><ele>160.0</ele><time>2026-04-11T16:53:30Z</time></trkpt><trkpt lat="45.58785982662385" lon="9.812935286124713"><ele>160.5</ele><time>2026-04-11T16:53:31Z</time></trkpt><trkpt lat="45.58762704215713" lon="9.813010136930485"><ele>161.0</ele><time>2026-04-11T16:53:32Z</time></trkpt><trkpt lat="45.587389376749" lon="9.813102955841801"><ele>161.0</ele><time>2026-04-11T16:53:33Z</time></trkpt><trkpt lat="45.58716384517677" lon="9.813200776117313"><ele>161.0</ele><time>2026-04-11T16:53:34Z</time></trkpt><trkpt lat="45.58690754505895" lon="9.813329800529871"><ele>160.0</ele><time>2026-04-11T16:53:35Z</time></trkpt><trkpt lat="45.58668977713948" lon="9.813425073251159"><ele>159.0</ele><time>2026-04-11T16:53:36Z</time></trkpt><trkpt lat="45.58647986541144" lon="9.813528612605266"><ele>159.0</ele><time>2026-04-11T16:53:37Z</time></trkpt><trkpt lat="45.58627540897685" lon="9.813631918821631"><ele>159.0</ele><time>2026-04-11T16:53:38Z</time></trkpt><trkpt lat="45.58607381464786" lon="9.813727452072156"><ele>159.0</ele><time>2026-04-11T16:53:39Z</time></trkpt><trkpt lat="45.58590974213747" lon="9.813798309400582"><ele>158.5</ele><time>2026-04-11T16:53:40Z</time></trkpt><trkpt lat="45.58574062450945" lon="9.8138499753248"><ele>158.0</ele><time>2026-04-11T16:53:41Z</time></trkpt><trkpt lat="45.585596891394474" lon="9.81391065062076"><ele>157.5</ele><time>2026-04-11T16:53:42Z</time></trkpt><trkpt lat="45.58548029398239" lon="9.81395970520352"><ele>157.0</ele><time>2026-04-11T16:53:43Z</time></trkpt><trkpt lat="45.5853485719824" lon="9.814015122899752"><ele>157.0</ele><time>2026-04-11T16:53:44Z</time></trkpt><trkpt lat="45.585213910032515" lon="9.814071777584283"><ele>157.0</ele><time>2026-04-11T16:53:45Z</time></trkpt><trkpt lat="45.5851179428415" lon="9.81411215266818"><ele>157.0</ele><time>2026-04-11T16:53:46Z</time></trkpt><trkpt lat="45.58501241926021" lon="9.814157242878288"><ele>157.0</ele><time>2026-04-11T16:53:47Z</time></trkpt><trkpt lat="45.58489777573842" lon="9.814207843153934"><ele>157.0</ele><time>2026-04-11T16:53:48Z</time></trkpt><trkpt lat="45.58478286070063" lon="9.814263090433613"><ele>157.0</ele><time>2026-04-11T16:53:49Z</time></trkpt><trkpt lat="45.58465747888071" lon="9.814348756965792"><ele>157.0</ele><time>2026-04-11T16:53:50Z</time></trkpt><trkpt lat="45.58453323811392" lon="9.814409313812252"><ele>157.0</ele><time>2026-04-11T16:53:51Z</time></trkpt><trkpt lat="45.58441066400367" lon="9.814474495386277"><ele>157.0</ele><time>2026-04-11T16:53:52Z</time></trkpt><trkpt lat="45.58429723707369" lon="9.814558244659283"><ele>157.0</ele><time>2026-04-11T16:53:53Z</time></trkpt><trkpt lat="45.58417681433138" lon="9.814637432723313"><ele>157.0</ele><time>2026-04-11T16:53:54Z</time></trkpt><trkpt lat="45.58401788880913" lon="9.814741490332821"><ele>157.0</ele><time>2026-04-11T16:53:55Z</time></trkpt><trkpt lat="45.58387213097505" lon="9.814816132480606"><ele>157.0</ele><time>2026-04-11T16:53:56Z</time></trkpt><trkpt lat="45.583731081007386" lon="9.814884295609382"><ele>157.0</ele><time>2026-04-11T16:53:57Z</time></trkpt><trkpt lat="45.58360533697498" lon="9.814933557178332"><ele>157.0</ele><time>2026-04-11T16:53:58Z</time></trkpt><trkpt lat="45.583469771434416" lon="9.814983389597561"><ele>157.0</ele><time>2026-04-11T16:53:59Z</time></trkpt><trkpt lat="45.58332423913558" lon="9.815035966353822"><ele>156.79999999999998</ele><time>2026-04-11T16:54:00Z</time></trkpt><trkpt lat="45.58321230895425" lon="9.815088996007377"><ele>156.6</ele><time>2026-04-11T16:54:01Z</time></trkpt><trkpt lat="45.583126498063294" lon="9.81513818892471"><ele>156.39999999999998</ele><time>2026-04-11T16:54:02Z</time></trkpt><trkpt lat="45.58304814630538" lon="9.815217076472752"><ele>156.2</ele><time>2026-04-11T16:54:03Z</time></trkpt><trkpt lat="45.58300043561128" lon="9.815304832300386"><ele>156.0</ele><time>2026-04-11T16:54:04Z</time></trkpt><trkpt lat="45.583019254872454" lon="9.815465223004809"><ele>155.8</ele><time>2026-04-11T16:54:06Z</time></trkpt><trkpt lat="45.58299979271634" lon="9.81558647374891"><ele>155.6</ele><time>2026-04-11T16:54:07Z</time></trkpt><trkpt lat="45.58298451129112" lon="9.815695636745662"><ele>155.4</ele><time>2026-04-11T16:54:08Z</time></trkpt><trkpt lat="45.582951892129856" lon="9.815833019515434"><ele>155.2</ele><time>2026-04-11T16:54:09Z</time></trkpt><trkpt lat="45.58289239274139" lon="9.815958706191273"><ele>155.0</ele><time>2026-04-11T16:54:10Z</time></trkpt><trkpt lat="45.58281994537712" lon="9.816118367692212"><ele>155.0</ele><time>2026-04-11T16:54:11Z</time></trkpt><trkpt lat="45.582814735168014" lon="9.816298481780034"><ele>155.0</ele><time>2026-04-11T16:54:12Z</time></trkpt><trkpt lat="45.5827838063902" lon="9.81648227226227"><ele>155.0</ele><time>2026-04-11T16:54:13Z</time></trkpt><trkpt lat="45.58275351863009" lon="9.81666040345869"><ele>155.0</ele><time>2026-04-11T16:54:14Z</time></trkpt><trkpt lat="45.58269406181331" lon="9.8168505183005"><ele>154.66666666666666</ele><time>2026-04-11T16:54:15Z</time></trkpt><trkpt lat="45.58256810062087" lon="9.816980394281892"><ele>154.33333333333334</ele><time>2026-04-11T16:54:16Z</time></trkpt><trkpt lat="45.58245303799473" lon="9.817175098076591"><ele>154.0</ele><time>2026-04-11T16:54:17Z</time></trkpt><trkpt lat="45.58232374746885" lon="9.81738243479007"><ele>154.0</ele><time>2026-04-11T16:54:18Z</time></trkpt><trkpt lat="45.58218693051578" lon="9.817610531956474"><ele>154.0</ele><time>2026-04-11T16:54:19Z</time></trkpt><trkpt lat="45.582047749143875" lon="9.817840987686807"><ele>154.0</ele><time>2026-04-11T16:54:20Z</time></trkpt><trkpt lat="45.58187487402315" lon="9.818093298340216"><ele>153.0</ele><time>2026-04-11T16:54:21Z</time></trkpt><trkpt lat="45.581703201535625" lon="9.818309599529778"><ele>152.0</ele><time>2026-04-11T16:54:22Z</time></trkpt><trkpt lat="45.58150708594555" lon="9.818489752621172"><ele>152.0</ele><time>2026-04-11T16:54:23Z</time></trkpt><trkpt lat="45.58131132934797" lon="9.818630671241026"><ele>152.0</ele><time>2026-04-11T16:54:24Z</time></trkpt><trkpt lat="45.58110607401635" lon="9.818770481703194"><ele>152.0</ele><time>2026-04-11T16:54:25Z</time></trkpt><trkpt lat="45.58090122515256" lon="9.81891820755098"><ele>152.0</ele><time>2026-04-11T16:54:26Z</time></trkpt><trkpt lat="45.58069488305332" lon="9.81905198215559"><ele>152.0</ele><time>2026-04-11T16:54:27Z</time></trkpt><trkpt lat="45.58050910524953" lon="9.819147637127982"><ele>152.0</ele><time>2026-04-11T16:54:28Z</time></trkpt><trkpt lat="45.580318797335146" lon="9.819199165829716"><ele>153.0</ele><time>2026-04-11T16:54:29Z</time></trkpt><trkpt lat="45.5801631870679" lon="9.819248627951614"><ele>154.0</ele><time>2026-04-11T16:54:30Z</time></trkpt><trkpt lat="45.58002620107108" lon="9.819278133963216"><ele>155.0</ele><time>2026-04-11T16:54:31Z</time></trkpt><trkpt lat="45.5798363854761" lon="9.819309156820065"><ele>153.66666666666666</ele><time>2026-04-11T16:54:32Z</time></trkpt><trkpt lat="45.57964704183667" lon="9.819336933282473"><ele>152.33333333333334</ele><time>2026-04-11T16:54:33Z</time></trkpt><trkpt lat="45.57944517173547" lon="9.819335467682528"><ele>151.0</ele><time>2026-04-11T16:54:34Z</time></trkpt><trkpt lat="45.5792526092121" lon="9.819353846496588"><ele>151.0</ele><time>2026-04-11T16:54:35Z</time></trkpt><trkpt lat="45.579059682536915" lon="9.819391860900515"><ele>151.0</ele><time>2026-04-11T16:54:36Z</time></trkpt><trkpt lat="45.57887345547814" lon="9.81943618772996"><ele>151.0</ele><time>2026-04-11T16:54:37Z</time></trkpt><trkpt lat="45.578687638750075" lon="9.819495902316012"><ele>151.33333333333334</ele><time>2026-04-11T16:54:38Z</time></trkpt><trkpt lat="45.578500063947665" lon="9.819571585446099"><ele>151.66666666666666</ele><time>2026-04-11T16:54:39Z</time></trkpt><trkpt lat="45.57833690233647" lon="9.819643264711143"><ele>152.0</ele><time>2026-04-11T16:54:40Z</time></trkpt><trkpt lat="45.578183980807275" lon="9.81972598943632"><ele>152.0</ele><time>2026-04-11T16:54:41Z</time></trkpt><trkpt lat="45.578029175536756" lon="9.819799709189086"><ele>152.0</ele><time>2026-04-11T16:54:42Z</time></trkpt><trkpt lat="45.57789382053196" lon="9.819875547241963"><ele>152.0</ele><time>2026-04-11T16:54:43Z</time></trkpt><trkpt lat="45.57775670345369" lon="9.819955233207741"><ele>152.0</ele><time>2026-04-11T16:54:44Z</time></trkpt><trkpt lat="45.57761900831182" lon="9.82004803818314"><ele>152.0</ele><time>2026-04-11T16:54:45Z</time></trkpt><trkpt lat="45.57748026076832" lon="9.820154436052285"><ele>152.0</ele><time>2026-04-11T16:54:46Z</time></trkpt><trkpt lat="45.577342358647776" lon="9.820268944369213"><ele>152.0</ele><time>2026-04-11T16:54:47Z</time></trkpt><trkpt lat="45.57721532476596" lon="9.82037695992206"><ele>152.0</ele><time>2026-04-11T16:54:48Z</time></trkpt><trkpt lat="45.57709273939569" lon="9.82048315342466"><ele>152.0</ele><time>2026-04-11T16:54:49Z</time></trkpt><trkpt lat="45.576978183350924" lon="9.820579393159795"><ele>152.0</ele><time>2026-04-11T16:54:50Z</time></trkpt><trkpt lat="45.57686072956958" lon="9.820675839911928"><ele>152.0</ele><time>2026-04-11T16:54:51Z</time></trkpt><trkpt lat="45.576744297774184" lon="9.820732219041233"><ele>152.0</ele><time>2026-04-11T16:54:52Z</time></trkpt><trkpt lat="45.5766453054466" lon="9.820829423244628"><ele>152.0</ele><time>2026-04-11T16:54:53Z</time></trkpt><trkpt lat="45.57654534848532" lon="9.820931207430114"><ele>152.0</ele><time>2026-04-11T16:54:54Z</time></trkpt><trkpt lat="45.576444761055626" lon="9.821021286510724"><ele>151.79999999999998</ele><time>2026-04-11T16:54:55Z</time></trkpt><trkpt lat="45.57635864345549" lon="9.821098955236197"><ele>151.6</ele><time>2026-04-11T16:54:56Z</time></trkpt><trkpt lat="45.57628343390688" lon="9.821184032377417"><ele>151.39999999999998</ele><time>2026-04-11T16:54:57Z</time></trkpt><trkpt lat="45.57620575874222" lon="9.821236605060784"><ele>151.2</ele><time>2026-04-11T16:54:58Z</time></trkpt><trkpt lat="45.5761093704543" lon="9.821281634354994"><ele>151.0</ele><time>2026-04-11T16:54:59Z</time></trkpt><trkpt lat="45.57602558262937" lon="9.821335709116372"><ele>151.2</ele><time>2026-04-11T16:55:00Z</time></trkpt><trkpt lat="45.57595241166717" lon="9.821392094892172"><ele>151.39999999999998</ele><time>2026-04-11T16:55:01Z</time></trkpt><trkpt lat="45.575887288445095" lon="9.82150585849452"><ele>151.6</ele><time>2026-04-11T16:55:02Z</time></trkpt><trkpt lat="45.575793345828295" lon="9.821626750466983"><ele>151.79999999999998</ele><time>2026-04-11T16:55:03Z</time></trkpt><trkpt lat="45.57575044416687" lon="9.821711731295"><ele>152.0</ele><time>2026-04-11T16:55:04Z</time></trkpt><trkpt lat="45.57567619838593" lon="9.821865067855772"><ele>152.0</ele><time>2026-04-11T16:55:06Z</time></trkpt><trkpt lat="45.57561233522502" lon="9.821928052219906"><ele>152.0</ele><time>2026-04-11T16:55:07Z</time></trkpt><trkpt lat="45.575523746326525" lon="9.821942365927853"><ele>152.0</ele><time>2026-04-11T16:55:09Z</time></trkpt><trkpt lat="45.57542571374302" lon="9.821918164641493"><ele>152.0</ele><time>2026-04-11T16:55:11Z</time></trkpt><trkpt lat="45.575407215407466" lon="9.821804657216884"><ele>152.0</ele><time>2026-04-11T16:55:12Z</time></trkpt><trkpt lat="45.57537015992956" lon="9.821730976570224"><ele>152.0</ele><time>2026-04-11T16:55:13Z</time></trkpt><trkpt lat="45.575329274501996" lon="9.821615641203548"><ele>152.2</ele><time>2026-04-11T16:55:14Z</time></trkpt><trkpt lat="45.57530512689754" lon="9.82148384488285"><ele>152.39999999999998</ele><time>2026-04-11T16:55:15Z</time></trkpt><trkpt lat="45.57527659045722" lon="9.821354116283151"><ele>152.60000000000002</ele><time>2026-04-11T16:55:16Z</time></trkpt><trkpt lat="45.57527146638849" lon="9.821212844476701"><ele>152.8</ele><time>2026-04-11T16:55:17Z</time></trkpt><trkpt lat="45.5752372662452" lon="9.821050401789527"><ele>153.0</ele><time>2026-04-11T16:55:18Z</time></trkpt><trkpt lat="45.57519991855569" lon="9.820887501232304"><ele>153.25</ele><time>2026-04-11T16:55:19Z</time></trkpt><trkpt lat="45.575195432263236" lon="9.820711020215443"><ele>153.5</ele><time>2026-04-11T16:55:20Z</time></trkpt><trkpt lat="45.57516390307059" lon="9.820540203768537"><ele>153.75</ele><time>2026-04-11T16:55:21Z</time></trkpt><trkpt lat="45.57515557530081" lon="9.820372417897202"><ele>154.0</ele><time>2026-04-11T16:55:22Z</time></trkpt><trkpt lat="45.57516161798343" lon="9.820201924243174"><ele>154.0</ele><time>2026-04-11T16:55:23Z</time></trkpt><trkpt lat="45.57514825437419" lon="9.82004289760272"><ele>154.0</ele><time>2026-04-11T16:55:24Z</time></trkpt><trkpt lat="45.575133544767596" lon="9.819874660460762"><ele>154.0</ele><time>2026-04-11T16:55:25Z</time></trkpt><trkpt lat="45.575116943988384" lon="9.819705782712344"><ele>154.0</ele><time>2026-04-11T16:55:26Z</time></trkpt><trkpt lat="45.575104021039984" lon="9.819525863872887"><ele>154.0</ele><time>2026-04-11T16:55:27Z</time></trkpt><trkpt lat="45.57508809133376" lon="9.819351306548267"><ele>154.0</ele><time>2026-04-11T16:55:28Z</time></trkpt><trkpt lat="45.57507734813628" lon="9.819175623899035"><ele>154.0</ele><time>2026-04-11T16:55:29Z</time></trkpt><trkpt lat="45.5750659528398" lon="9.81900930472884"><ele>154.0</ele><time>2026-04-11T16:55:30Z</time></trkpt><trkpt lat="45.57505521228119" lon="9.818851830405917"><ele>153.75</ele><time>2026-04-11T16:55:31Z</time></trkpt><trkpt lat="45.57504997714578" lon="9.818703246293493"><ele>153.5</ele><time>2026-04-11T16:55:32Z</time></trkpt><trkpt lat="45.57506632416947" lon="9.818559055213738"><ele>153.25</ele><time>2026-04-11T16:55:33Z</time></trkpt><trkpt lat="45.57509300277011" lon="9.818446125104266"><ele>153.0</ele><time>2026-04-11T16:55:34Z</time></trkpt><trkpt lat="45.575215458561686" lon="9.818271994404578"><ele>153.0</ele><time>2026-04-11T16:55:36Z</time></trkpt><trkpt lat="45.575248952529215" lon="9.818114865316183"><ele>153.0</ele><time>2026-04-11T16:55:37Z</time></trkpt><trkpt lat="45.57522724983644" lon="9.817956706728785"><ele>153.0</ele><time>2026-04-11T16:55:38Z</time></trkpt><trkpt lat="45.57518174580758" lon="9.817847341428614"><ele>153.0</ele><time>2026-04-11T16:55:39Z</time></trkpt><trkpt lat="45.5751048515512" lon="9.817737613300013"><ele>153.0</ele><time>2026-04-11T16:55:40Z</time></trkpt><trkpt lat="45.57504559010016" lon="9.817634159380532"><ele>153.0</ele><time>2026-04-11T16:55:41Z</time></trkpt><trkpt lat="45.57498922683691" lon="9.817538491010355"><ele>153.0</ele><time>2026-04-11T16:55:42Z</time></trkpt><trkpt lat="45.57496170291124" lon="9.817441133097184"><ele>153.0</ele><time>2026-04-11T16:55:43Z</time></trkpt><trkpt lat="45.57494144962248" lon="9.817318745937886"><ele>153.0</ele><time>2026-04-11T16:55:44Z</time></trkpt><trkpt lat="45.574933659711135" lon="9.8171722763993"><ele>153.0</ele><time>2026-04-11T16:55:45Z</time></trkpt><trkpt lat="45.574950574633405" lon="9.817015278463453"><ele>153.0</ele><time>2026-04-11T16:55:46Z</time></trkpt><trkpt lat="45.57494343865303" lon="9.816820469841575"><ele>153.0</ele><time>2026-04-11T16:55:47Z</time></trkpt><trkpt lat="45.57493527378616" lon="9.81659757315209"><ele>153.0</ele><time>2026-04-11T16:55:48Z</time></trkpt><trkpt lat="45.574929916808294" lon="9.816373221974073"><ele>153.33333333333334</ele><time>2026-04-11T16:55:49Z</time></trkpt><trkpt lat="45.57491214292333" lon="9.816107201853818"><ele>153.66666666666669</ele><time>2026-04-11T16:55:50Z</time></trkpt><trkpt lat="45.5749114544932" lon="9.815829715484467"><ele>154.0</ele><time>2026-04-11T16:55:51Z</time></trkpt><trkpt lat="45.574915358718464" lon="9.815503754233445"><ele>154.0</ele><time>2026-04-11T16:55:52Z</time></trkpt><trkpt lat="45.5749128899658" lon="9.815162365767597"><ele>154.0</ele><time>2026-04-11T16:55:53Z</time></trkpt><trkpt lat="45.57491602673804" lon="9.814809623385253"><ele>153.0</ele><time>2026-04-11T16:55:54Z</time></trkpt><trkpt lat="45.57493024091796" lon="9.814478462720476"><ele>152.0</ele><time>2026-04-11T16:55:55Z</time></trkpt><trkpt lat="45.574941414968386" lon="9.814127033718243"><ele>151.5</ele><time>2026-04-11T16:55:56Z</time></trkpt><trkpt lat="45.5749471518084" lon="9.813782372895577"><ele>151.0</ele><time>2026-04-11T16:55:57Z</time></trkpt><trkpt lat="45.5749577723056" lon="9.813441999664965"><ele>151.0</ele><time>2026-04-11T16:55:58Z</time></trkpt><trkpt lat="45.574961813314424" lon="9.813089255078921"><ele>151.0</ele><time>2026-04-11T16:55:59Z</time></trkpt><trkpt lat="45.5749680520878" lon="9.812731893341356"><ele>151.5</ele><time>2026-04-11T16:56:00Z</time></trkpt><trkpt lat="45.57497276784249" lon="9.812387307898286"><ele>152.0</ele><time>2026-04-11T16:56:01Z</time></trkpt><trkpt lat="45.57499112680712" lon="9.812062245006135"><ele>152.0</ele><time>2026-04-11T16:56:02Z</time></trkpt><trkpt lat="45.575013106077925" lon="9.811730507536412"><ele>152.0</ele><time>2026-04-11T16:56:03Z</time></trkpt><trkpt lat="45.5750392978527" lon="9.811417251410125"><ele>152.0</ele><time>2026-04-11T16:56:04Z</time></trkpt><trkpt lat="45.57507486070284" lon="9.811100697392622"><ele>152.0</ele><time>2026-04-11T16:56:05Z</time></trkpt><trkpt lat="45.57511170908529" lon="9.810818746652151"><ele>152.0</ele><time>2026-04-11T16:56:06Z</time></trkpt><trkpt lat="45.57514328655565" lon="9.810525727944874"><ele>152.0</ele><time>2026-04-11T16:56:07Z</time></trkpt><trkpt lat="45.57515470783217" lon="9.81017883887908"><ele>152.0</ele><time>2026-04-11T16:56:08Z</time></trkpt><trkpt lat="45.57516568787118" lon="9.809813807345737"><ele>151.0</ele><time>2026-04-11T16:56:09Z</time></trkpt><trkpt lat="45.57517067773332" lon="9.80944578386239"><ele>150.0</ele><time>2026-04-11T16:56:10Z</time></trkpt><trkpt lat="45.5751809105499" lon="9.80907575216937"><ele>150.0</ele><time>2026-04-11T16:56:11Z</time></trkpt><trkpt lat="45.57518154178761" lon="9.808687064388115"><ele>150.0</ele><time>2026-04-11T16:56:12Z</time></trkpt><trkpt lat="45.57518549984108" lon="9.8083172145588"><ele>150.5</ele><time>2026-04-11T16:56:13Z</time></trkpt><trkpt lat="45.575191828061236" lon="9.807968834307001"><ele>151.0</ele><time>2026-04-11T16:56:14Z</time></trkpt><trkpt lat="45.57519898318354" lon="9.807646768160714"><ele>151.33333333333334</ele><time>2026-04-11T16:56:15Z</time></trkpt><trkpt lat="45.575201025534305" lon="9.807369783379647"><ele>151.66666666666666</ele><time>2026-04-11T16:56:16Z</time></trkpt><trkpt lat="45.57520705689339" lon="9.807106835968174"><ele>152.0</ele><time>2026-04-11T16:56:17Z</time></trkpt><trkpt lat="45.57522114329478" lon="9.806815242389094"><ele>152.0</ele><time>2026-04-11T16:56:18Z</time></trkpt><trkpt lat="45.575254307732116" lon="9.806549785935442"><ele>152.0</ele><time>2026-04-11T16:56:19Z</time></trkpt><trkpt lat="45.57528850574772" lon="9.806220655759697"><ele>152.0</ele><time>2026-04-11T16:56:20Z</time></trkpt><trkpt lat="45.57533552292857" lon="9.80590376758462"><ele>152.0</ele><time>2026-04-11T16:56:21Z</time></trkpt><trkpt lat="45.57537463948138" lon="9.805572240853607"><ele>152.0</ele><time>2026-04-11T16:56:22Z</time></trkpt><trkpt lat="45.575413761533945" lon="9.805216812885185"><ele>152.0</ele><time>2026-04-11T16:56:23Z</time></trkpt><trkpt lat="45.5754618598422" lon="9.80488723739871"><ele>152.0</ele><time>2026-04-11T16:56:24Z</time></trkpt><trkpt lat="45.57551521208912" lon="9.804561221276227"><ele>152.5</ele><time>2026-04-11T16:56:25Z</time></trkpt><trkpt lat="45.57556448640268" lon="9.804218756404492"><ele>153.0</ele><time>2026-04-11T16:56:26Z</time></trkpt><trkpt lat="45.57563506999498" lon="9.80388633084793"><ele>153.0</ele><time>2026-04-11T16:56:27Z</time></trkpt><trkpt lat="45.575685706940064" lon="9.803546490695128"><ele>153.0</ele><time>2026-04-11T16:56:28Z</time></trkpt><trkpt lat="45.57571718894229" lon="9.803182088003195"><ele>153.0</ele><time>2026-04-11T16:56:29Z</time></trkpt><trkpt lat="45.57574359873046" lon="9.802828232985892"><ele>153.0</ele><time>2026-04-11T16:56:30Z</time></trkpt><trkpt lat="45.57575514500516" lon="9.802473119033335"><ele>153.0</ele><time>2026-04-11T16:56:31Z</time></trkpt><trkpt lat="45.57576573004085" lon="9.802109764560619"><ele>153.0</ele><time>2026-04-11T16:56:32Z</time></trkpt><trkpt lat="45.575755809641336" lon="9.801731447117684"><ele>153.0</ele><time>2026-04-11T16:56:33Z</time></trkpt><trkpt lat="45.575749954841676" lon="9.801357833757471"><ele>153.0</ele><time>2026-04-11T16:56:34Z</time></trkpt><trkpt lat="45.57571614565071" lon="9.800962892231803"><ele>153.0</ele><time>2026-04-11T16:56:35Z</time></trkpt><trkpt lat="45.57570226597417" lon="9.800548194526057"><ele>153.0</ele><time>2026-04-11T16:56:36Z</time></trkpt><trkpt lat="45.575639836730296" lon="9.800143033055972"><ele>152.5</ele><time>2026-04-11T16:56:37Z</time></trkpt><trkpt lat="45.57560078804653" lon="9.79972568013392"><ele>152.0</ele><time>2026-04-11T16:56:38Z</time></trkpt><trkpt lat="45.57557024657905" lon="9.79933541007896"><ele>152.0</ele><time>2026-04-11T16:56:39Z</time></trkpt><trkpt lat="45.575535268909334" lon="9.798938471038122"><ele>152.0</ele><time>2026-04-11T16:56:40Z</time></trkpt><trkpt lat="45.57550429362085" lon="9.798561012144502"><ele>153.0</ele><time>2026-04-11T16:56:41Z</time></trkpt><trkpt lat="45.57549020687441" lon="9.79822802228655"><ele>154.0</ele><time>2026-04-11T16:56:42Z</time></trkpt><trkpt lat="45.57548842672569" lon="9.797916232752234"><ele>155.5</ele><time>2026-04-11T16:56:43Z</time></trkpt><trkpt lat="45.575486061564376" lon="9.797584786684274"><ele>157.0</ele><time>2026-04-11T16:56:44Z</time></trkpt><trkpt lat="45.57549160113198" lon="9.797261232695822"><ele>157.0</ele><time>2026-04-11T16:56:45Z</time></trkpt><trkpt lat="45.57549518700834" lon="9.796930782334238"><ele>157.0</ele><time>2026-04-11T16:56:46Z</time></trkpt><trkpt lat="45.575515825867335" lon="9.796618258930607"><ele>156.33333333333334</ele><time>2026-04-11T16:56:47Z</time></trkpt><trkpt lat="45.57552729979227" lon="9.796292826601587"><ele>155.66666666666666</ele><time>2026-04-11T16:56:48Z</time></trkpt><trkpt lat="45.57554188809814" lon="9.795977477805655"><ele>155.0</ele><time>2026-04-11T16:56:49Z</time></trkpt><trkpt lat="45.575555311922855" lon="9.795664080542696"><ele>154.0</ele><time>2026-04-11T16:56:50Z</time></trkpt><trkpt lat="45.575573312404984" lon="9.795349268657564"><ele>153.0</ele><time>2026-04-11T16:56:51Z</time></trkpt><trkpt lat="45.57558989140227" lon="9.795033037557227"><ele>152.0</ele><time>2026-04-11T16:56:52Z</time></trkpt><trkpt lat="45.57560964196776" lon="9.794718599941335"><ele>151.66666666666666</ele><time>2026-04-11T16:56:53Z</time></trkpt><trkpt lat="45.57561959294638" lon="9.794408182936044"><ele>151.33333333333334</ele><time>2026-04-11T16:56:54Z</time></trkpt><trkpt lat="45.57563440412307" lon="9.794121019799858"><ele>151.0</ele><time>2026-04-11T16:56:55Z</time></trkpt><trkpt lat="45.575648710908524" lon="9.793848015027846"><ele>151.0</ele><time>2026-04-11T16:56:56Z</time></trkpt><trkpt lat="45.57566527953042" lon="9.793593609148997"><ele>151.0</ele><time>2026-04-11T16:56:57Z</time></trkpt><trkpt lat="45.575680602581535" lon="9.793327338993208"><ele>151.0</ele><time>2026-04-11T16:56:58Z</time></trkpt><trkpt lat="45.5756967694832" lon="9.793064223022089"><ele>151.33333333333334</ele><time>2026-04-11T16:56:59Z</time></trkpt><trkpt lat="45.57570202367255" lon="9.792796363403832"><ele>151.66666666666666</ele><time>2026-04-11T16:57:00Z</time></trkpt><trkpt lat="45.57571957067904" lon="9.79254623061983"><ele>152.0</ele><time>2026-04-11T16:57:01Z</time></trkpt><trkpt lat="45.575726104994175" lon="9.792282509560817"><ele>152.0</ele><time>2026-04-11T16:57:02Z</time></trkpt><trkpt lat="45.57573751097758" lon="9.792042240907024"><ele>152.0</ele><time>2026-04-11T16:57:03Z</time></trkpt><trkpt lat="45.575752929641624" lon="9.791818010901075"><ele>152.0</ele><time>2026-04-11T16:57:04Z</time></trkpt><trkpt lat="45.57575698471341" lon="9.791577123514314"><ele>152.0</ele><time>2026-04-11T16:57:05Z</time></trkpt><trkpt lat="45.57577291386839" lon="9.791349917422572"><ele>152.0</ele><time>2026-04-11T16:57:06Z</time></trkpt><trkpt lat="45.575790863858394" lon="9.791124516450747"><ele>152.0</ele><time>2026-04-11T16:57:07Z</time></trkpt><trkpt lat="45.57579699719602" lon="9.79088558851348"><ele>152.66666666666666</ele><time>2026-04-11T16:57:08Z</time></trkpt><trkpt lat="45.57579825702845" lon="9.790661829072134"><ele>153.33333333333334</ele><time>2026-04-11T16:57:09Z</time></trkpt><trkpt lat="45.575778745908444" lon="9.790416803657328"><ele>154.0</ele><time>2026-04-11T16:57:10Z</time></trkpt><trkpt lat="45.575754954948344" lon="9.790184029951048"><ele>153.33333333333334</ele><time>2026-04-11T16:57:11Z</time></trkpt><trkpt lat="45.575709171927365" lon="9.789928725799061"><ele>152.66666666666666</ele><time>2026-04-11T16:57:12Z</time></trkpt><trkpt lat="45.57566683827093" lon="9.78965264190912"><ele>152.0</ele><time>2026-04-11T16:57:13Z</time></trkpt><trkpt lat="45.57560570600576" lon="9.789354361450364"><ele>152.0</ele><time>2026-04-11T16:57:14Z</time></trkpt><trkpt lat="45.57550817026378" lon="9.78900606149571"><ele>152.0</ele><time>2026-04-11T16:57:15Z</time></trkpt><trkpt lat="45.575440042940116" lon="9.788703715559999"><ele>152.33333333333331</ele><time>2026-04-11T16:57:16Z</time></trkpt><trkpt lat="45.57537256292676" lon="9.788421519519387"><ele>152.66666666666666</ele><time>2026-04-11T16:57:17Z</time></trkpt><trkpt lat="45.57531851811601" lon="9.788148404547128"><ele>153.0</ele><time>2026-04-11T16:57:18Z</time></trkpt><trkpt lat="45.57526792589292" lon="9.787907932556175"><ele>153.33333333333334</ele><time>2026-04-11T16:57:19Z</time></trkpt><trkpt lat="45.57521048203658" lon="9.787665033173754"><ele>153.66666666666669</ele><time>2026-04-11T16:57:20Z</time></trkpt><trkpt lat="45.575168136095996" lon="9.787445810847482"><ele>154.0</ele><time>2026-04-11T16:57:21Z</time></trkpt><trkpt lat="45.57512711667505" lon="9.787227052592744"><ele>154.0</ele><time>2026-04-11T16:57:22Z</time></trkpt><trkpt lat="45.575080407761796" lon="9.78702631223393"><ele>154.0</ele><time>2026-04-11T16:57:23Z</time></trkpt><trkpt lat="45.57503040647408" lon="9.786807715211276"><ele>154.0</ele><time>2026-04-11T16:57:24Z</time></trkpt><trkpt lat="45.57497449039179" lon="9.786565792232352"><ele>153.66666666666669</ele><time>2026-04-11T16:57:25Z</time></trkpt><trkpt lat="45.57490396556915" lon="9.786270724214225"><ele>153.33333333333334</ele><time>2026-04-11T16:57:26Z</time></trkpt><trkpt lat="45.57482917754046" lon="9.785972902540966"><ele>153.0</ele><time>2026-04-11T16:57:27Z</time></trkpt><trkpt lat="45.574784732018" lon="9.785741201327816"><ele>153.0</ele><time>2026-04-11T16:57:28Z</time></trkpt><trkpt lat="45.57474038993204" lon="9.785519017575158"><ele>153.0</ele><time>2026-04-11T16:57:29Z</time></trkpt><trkpt lat="45.57469479039965" lon="9.785285721450348"><ele>153.0</ele><time>2026-04-11T16:57:30Z</time></trkpt><trkpt lat="45.57465913474945" lon="9.785101460060224"><ele>153.0</ele><time>2026-04-11T16:57:31Z</time></trkpt><trkpt lat="45.574609641477245" lon="9.784914690129094"><ele>153.0</ele><time>2026-04-11T16:57:32Z</time></trkpt><trkpt lat="45.57457711875396" lon="9.784751184653832"><ele>153.0</ele><time>2026-04-11T16:57:33Z</time></trkpt><trkpt lat="45.5745411310054" lon="9.78457237318244"><ele>153.0</ele><time>2026-04-11T16:57:34Z</time></trkpt><trkpt lat="45.57450234154385" lon="9.78440372270376"><ele>152.4</ele><time>2026-04-11T16:57:35Z</time></trkpt><trkpt lat="45.57447746927581" lon="9.784267219072037"><ele>151.8</ele><time>2026-04-11T16:57:36Z</time></trkpt><trkpt lat="45.574450353329624" lon="9.784133592910436"><ele>151.2</ele><time>2026-04-11T16:57:37Z</time></trkpt><trkpt lat="45.57441385433708" lon="9.783979265982273"><ele>150.6</ele><time>2026-04-11T16:57:38Z</time></trkpt><trkpt lat="45.57438482753972" lon="9.783832414992098"><ele>150.0</ele><time>2026-04-11T16:57:39Z</time></trkpt><trkpt lat="45.57434945013085" lon="9.783679203393431"><ele>150.0</ele><time>2026-04-11T16:57:40Z</time></trkpt><trkpt lat="45.57432159215531" lon="9.783534396826262"><ele>150.0</ele><time>2026-04-11T16:57:41Z</time></trkpt><trkpt lat="45.57429277459061" lon="9.783384585076872"><ele>150.0</ele><time>2026-04-11T16:57:42Z</time></trkpt><trkpt lat="45.57425865313597" lon="9.783221602789082"><ele>150.0</ele><time>2026-04-11T16:57:43Z</time></trkpt><trkpt lat="45.574227045177444" lon="9.783054021832543"><ele>150.5</ele><time>2026-04-11T16:57:44Z</time></trkpt><trkpt lat="45.574187601234" lon="9.782880872823666"><ele>151.0</ele><time>2026-04-11T16:57:45Z</time></trkpt><trkpt lat="45.57413526462363" lon="9.782658601141494"><ele>151.5</ele><time>2026-04-11T16:57:46Z</time></trkpt><trkpt lat="45.57408997794172" lon="9.782453413392517"><ele>152.0</ele><time>2026-04-11T16:57:47Z</time></trkpt><trkpt lat="45.5740369900441" lon="9.782239735533787"><ele>152.0</ele><time>2026-04-11T16:57:48Z</time></trkpt><trkpt lat="45.57397842813034" lon="9.782004918063674"><ele>152.0</ele><time>2026-04-11T16:57:49Z</time></trkpt><trkpt lat="45.57391318295387" lon="9.781741151627921"><ele>152.0</ele><time>2026-04-11T16:57:50Z</time></trkpt><trkpt lat="45.57386043612081" lon="9.781489900991746"><ele>152.0</ele><time>2026-04-11T16:57:51Z</time></trkpt><trkpt lat="45.57383808429281" lon="9.781227100173771"><ele>152.0</ele><time>2026-04-11T16:57:52Z</time></trkpt><trkpt lat="45.573773747517606" lon="9.780995628610954"><ele>152.0</ele><time>2026-04-11T16:57:53Z</time></trkpt><trkpt lat="45.573717047071405" lon="9.780765362131772"><ele>151.75</ele><time>2026-04-11T16:57:54Z</time></trkpt><trkpt lat="45.57368481463453" lon="9.780570812452506"><ele>151.5</ele><time>2026-04-11T16:57:55Z</time></trkpt><trkpt lat="45.57363931237634" lon="9.780365875063753"><ele>151.25</ele><time>2026-04-11T16:57:56Z</time></trkpt><trkpt lat="45.57360692000447" lon="9.780193211469127"><ele>151.0</ele><time>2026-04-11T16:57:57Z</time></trkpt><trkpt lat="45.573572982228185" lon="9.780010705422768"><ele>151.0</ele><time>2026-04-11T16:57:58Z</time></trkpt><trkpt lat="45.57353411085572" lon="9.77983849970252"><ele>151.0</ele><time>2026-04-11T16:57:59Z</time></trkpt><trkpt lat="45.57349563007717" lon="9.779665666641078"><ele>151.0</ele><time>2026-04-11T16:58:00Z</time></trkpt><trkpt lat="45.57346398058183" lon="9.779494335714027"><ele>151.0</ele><time>2026-04-11T16:58:01Z</time></trkpt><trkpt lat="45.573420746535625" lon="9.779295841946773"><ele>151.33333333333334</ele><time>2026-04-11T16:58:02Z</time></trkpt><trkpt lat="45.5733778069531" lon="9.77909317709645"><ele>151.66666666666666</ele><time>2026-04-11T16:58:03Z</time></trkpt><trkpt lat="45.573336762854716" lon="9.778889773637173"><ele>152.0</ele><time>2026-04-11T16:58:04Z</time></trkpt><trkpt lat="45.57329370378186" lon="9.778673862701918"><ele>152.0</ele><time>2026-04-11T16:58:05Z</time></trkpt><trkpt lat="45.57324746528339" lon="9.778456392673199"><ele>152.0</ele><time>2026-04-11T16:58:06Z</time></trkpt><trkpt lat="45.573197329434784" lon="9.778232521254967"><ele>152.0</ele><time>2026-04-11T16:58:07Z</time></trkpt><trkpt lat="45.573157349791096" lon="9.778005276568543"><ele>152.0</ele><time>2026-04-11T16:58:08Z</time></trkpt><trkpt lat="45.57311127109313" lon="9.777781643165921"><ele>152.0</ele><time>2026-04-11T16:58:09Z</time></trkpt><trkpt lat="45.57306723101222" lon="9.777575672471878"><ele>152.0</ele><time>2026-04-11T16:58:10Z</time></trkpt><trkpt lat="45.57302792259167" lon="9.777381421457278"><ele>152.0</ele><time>2026-04-11T16:58:11Z</time></trkpt><trkpt lat="45.57298873162076" lon="9.777193254132381"><ele>152.0</ele><time>2026-04-11T16:58:12Z</time></trkpt><trkpt lat="45.572953003452014" lon="9.777004557456825"><ele>152.0</ele><time>2026-04-11T16:58:13Z</time></trkpt><trkpt lat="45.57290885753213" lon="9.77679592920612"><ele>152.0</ele><time>2026-04-11T16:58:14Z</time></trkpt><trkpt lat="45.57287087064406" lon="9.776603723013807"><ele>152.0</ele><time>2026-04-11T16:58:15Z</time></trkpt><trkpt lat="45.57282827397131" lon="9.77640899143722"><ele>152.0</ele><time>2026-04-11T16:58:16Z</time></trkpt><trkpt lat="45.57278623017766" lon="9.776196425519961"><ele>152.0</ele><time>2026-04-11T16:58:17Z</time></trkpt><trkpt lat="45.57276111708326" lon="9.775993467531356"><ele>152.0</ele><time>2026-04-11T16:58:18Z</time></trkpt><trkpt lat="45.57270452669878" lon="9.775803650291149"><ele>152.0</ele><time>2026-04-11T16:58:19Z</time></trkpt><trkpt lat="45.57267973846943" lon="9.775600715652937"><ele>152.0</ele><time>2026-04-11T16:58:20Z</time></trkpt><trkpt lat="45.572629127508876" lon="9.775402194204778"><ele>152.0</ele><time>2026-04-11T16:58:21Z</time></trkpt><trkpt lat="45.57258573043107" lon="9.77522416267018"><ele>152.0</ele><time>2026-04-11T16:58:22Z</time></trkpt><trkpt lat="45.572554642946045" lon="9.775046958851616"><ele>151.6</ele><time>2026-04-11T16:58:23Z</time></trkpt><trkpt lat="45.57253447667844" lon="9.774896470641167"><ele>151.2</ele><time>2026-04-11T16:58:24Z</time></trkpt><trkpt lat="45.57251700782516" lon="9.774775908930563"><ele>150.8</ele><time>2026-04-11T16:58:25Z</time></trkpt><trkpt lat="45.572492351150714" lon="9.774651296509397"><ele>150.4</ele><time>2026-04-11T16:58:26Z</time></trkpt><trkpt lat="45.572465944969785" lon="9.774547115176109"><ele>150.0</ele><time>2026-04-11T16:58:27Z</time></trkpt><trkpt lat="45.57243330116128" lon="9.774419018949972"><ele>150.0</ele><time>2026-04-11T16:58:28Z</time></trkpt><trkpt lat="45.57241432002572" lon="9.77432949095722"><ele>150.0</ele><time>2026-04-11T16:58:29Z</time></trkpt><trkpt lat="45.57239691262255" lon="9.77420163372597"><ele>150.0</ele><time>2026-04-11T16:58:31Z</time></trkpt><trkpt lat="45.57238008486763" lon="9.774084834625258"><ele>150.0</ele><time>2026-04-11T16:58:33Z</time></trkpt><trkpt lat="45.57241984775497" lon="9.774002265920378"><ele>150.0</ele><time>2026-04-11T16:58:35Z</time></trkpt><trkpt lat="45.572512407582366" lon="9.773923763774931"><ele>150.0</ele><time>2026-04-11T16:58:37Z</time></trkpt><trkpt lat="45.572451048449636" lon="9.7737492497952"><ele>150.0</ele><time>2026-04-11T16:58:39Z</time></trkpt><trkpt lat="45.57237302418738" lon="9.773759310918022"><ele>150.0</ele><time>2026-04-11T16:58:40Z</time></trkpt><trkpt lat="45.57230963474867" lon="9.773866176913309"><ele>150.0</ele><time>2026-04-11T16:58:41Z</time></trkpt><trkpt lat="45.57226752324976" lon="9.77395744355875"><ele>150.0</ele><time>2026-04-11T16:58:42Z</time></trkpt><trkpt lat="45.5722023394031" lon="9.774043642140821"><ele>150.0</ele><time>2026-04-11T16:58:43Z</time></trkpt><trkpt lat="45.57211013032588" lon="9.774076714833223"><ele>150.0</ele><time>2026-04-11T16:58:44Z</time></trkpt><trkpt lat="45.57200966896185" lon="9.774094865208278"><ele>149.75</ele><time>2026-04-11T16:58:45Z</time></trkpt><trkpt lat="45.57190815004381" lon="9.774174732171812"><ele>149.5</ele><time>2026-04-11T16:58:46Z</time></trkpt><trkpt lat="45.57177400466627" lon="9.774249508059688"><ele>149.25</ele><time>2026-04-11T16:58:47Z</time></trkpt><trkpt lat="45.57162077019888" lon="9.774306276261141"><ele>149.0</ele><time>2026-04-11T16:58:48Z</time></trkpt><trkpt lat="45.57147531147075" lon="9.774371527375399"><ele>149.0</ele><time>2026-04-11T16:58:49Z</time></trkpt><trkpt lat="45.57131377504241" lon="9.774439909464043"><ele>149.0</ele><time>2026-04-11T16:58:50Z</time></trkpt><trkpt lat="45.57114552378422" lon="9.774501028623943"><ele>149.0</ele><time>2026-04-11T16:58:51Z</time></trkpt><trkpt lat="45.57098320440965" lon="9.774561013664838"><ele>148.33333333333331</ele><time>2026-04-11T16:58:52Z</time></trkpt><trkpt lat="45.57079926254643" lon="9.77463035882233"><ele>147.66666666666666</ele><time>2026-04-11T16:58:53Z</time></trkpt><trkpt lat="45.57063359899564" lon="9.774710481716886"><ele>147.0</ele><time>2026-04-11T16:58:54Z</time></trkpt><trkpt lat="45.570472305309124" lon="9.774774423323406"><ele>147.66666666666666</ele><time>2026-04-11T16:58:55Z</time></trkpt><trkpt lat="45.57031446089285" lon="9.774856842308308"><ele>148.33333333333331</ele><time>2026-04-11T16:58:56Z</time></trkpt><trkpt lat="45.57013792074927" lon="9.774931577497037"><ele>149.0</ele><time>2026-04-11T16:58:57Z</time></trkpt><trkpt lat="45.56998539440212" lon="9.774966948232944"><ele>149.0</ele><time>2026-04-11T16:58:58Z</time></trkpt><trkpt lat="45.56981704474062" lon="9.775030695027706"><ele>149.0</ele><time>2026-04-11T16:58:59Z</time></trkpt><trkpt lat="45.56965173231123" lon="9.775054048135491"><ele>149.0</ele><time>2026-04-11T16:59:00Z</time></trkpt><trkpt lat="45.5694922399027" lon="9.775095888501241"><ele>149.0</ele><time>2026-04-11T16:59:01Z</time></trkpt><trkpt lat="45.56935871601029" lon="9.775130832552568"><ele>149.0</ele><time>2026-04-11T16:59:02Z</time></trkpt><trkpt lat="45.56922952753424" lon="9.775164602318009"><ele>149.0</ele><time>2026-04-11T16:59:03Z</time></trkpt><trkpt lat="45.569114111387286" lon="9.775195019345254"><ele>149.0</ele><time>2026-04-11T16:59:04Z</time></trkpt><trkpt lat="45.56901479373716" lon="9.775219612742418"><ele>149.0</ele><time>2026-04-11T16:59:05Z</time></trkpt><trkpt lat="45.568925728556195" lon="9.775223849781003"><ele>149.0</ele><time>2026-04-11T16:59:06Z</time></trkpt><trkpt lat="45.56882872754994" lon="9.775228207586654"><ele>149.0</ele><time>2026-04-11T16:59:07Z</time></trkpt><trkpt lat="45.56874947921417" lon="9.775163271777378"><ele>149.0</ele><time>2026-04-11T16:59:08Z</time></trkpt><trkpt lat="45.56869034503121" lon="9.775110834460639"><ele>149.0</ele><time>2026-04-11T16:59:09Z</time></trkpt><trkpt lat="45.568564271931294" lon="9.775133205950763"><ele>148.5</ele><time>2026-04-11T16:59:11Z</time></trkpt><trkpt lat="45.56848000523132" lon="9.775183408814495"><ele>148.0</ele><time>2026-04-11T16:59:12Z</time></trkpt><trkpt lat="45.56837476434006" lon="9.775238046391475"><ele>147.5</ele><time>2026-04-11T16:59:13Z</time></trkpt><trkpt lat="45.56826918980761" lon="9.775309649224056"><ele>147.0</ele><time>2026-04-11T16:59:14Z</time></trkpt><trkpt lat="45.56814303129508" lon="9.77539074426736"><ele>146.75</ele><time>2026-04-11T16:59:15Z</time></trkpt><trkpt lat="45.56801669722764" lon="9.775486495085337"><ele>146.5</ele><time>2026-04-11T16:59:16Z</time></trkpt><trkpt lat="45.56789966579808" lon="9.775594010659763"><ele>146.25</ele><time>2026-04-11T16:59:17Z</time></trkpt><trkpt lat="45.5678107924612" lon="9.77567209273847"><ele>146.0</ele><time>2026-04-11T16:59:18Z</time></trkpt><trkpt lat="45.5677010280775" lon="9.775738184373141"><ele>146.0</ele><time>2026-04-11T16:59:19Z</time></trkpt><trkpt lat="45.567582563218814" lon="9.775821170115238"><ele>146.0</ele><time>2026-04-11T16:59:20Z</time></trkpt><trkpt lat="45.56748199537369" lon="9.775917759780782"><ele>146.0</ele><time>2026-04-11T16:59:21Z</time></trkpt><trkpt lat="45.56738472644014" lon="9.775988919037207"><ele>146.0</ele><time>2026-04-11T16:59:22Z</time></trkpt><trkpt lat="45.56730297839081" lon="9.776058590375923"><ele>146.33333333333331</ele><time>2026-04-11T16:59:23Z</time></trkpt><trkpt lat="45.56722754707987" lon="9.776121327184088"><ele>146.66666666666666</ele><time>2026-04-11T16:59:24Z</time></trkpt><trkpt lat="45.567180815233016" lon="9.776192902005336"><ele>147.0</ele><time>2026-04-11T16:59:25Z</time></trkpt><trkpt lat="45.56716817922178" lon="9.776281331262402"><ele>147.33333333333334</ele><time>2026-04-11T16:59:26Z</time></trkpt><trkpt lat="45.56715771385287" lon="9.776415146284169"><ele>147.66666666666669</ele><time>2026-04-11T16:59:27Z</time></trkpt><trkpt lat="45.56716390944661" lon="9.776577286370864"><ele>148.0</ele><time>2026-04-11T16:59:28Z</time></trkpt><trkpt lat="45.5671858488137" lon="9.776769792666242"><ele>148.25</ele><time>2026-04-11T16:59:29Z</time></trkpt><trkpt lat="45.56718054583039" lon="9.776969336870062"><ele>148.5</ele><time>2026-04-11T16:59:30Z</time></trkpt><trkpt lat="45.56718262958927" lon="9.777135630202896"><ele>148.75</ele><time>2026-04-11T16:59:31Z</time></trkpt><trkpt lat="45.56720399059536" lon="9.77727915649379"><ele>149.0</ele><time>2026-04-11T16:59:32Z</time></trkpt><trkpt lat="45.56719314412887" lon="9.777420005998783"><ele>149.0</ele><time>2026-04-11T16:59:33Z</time></trkpt><trkpt lat="45.567193301795385" lon="9.777566800335796"><ele>149.0</ele><time>2026-04-11T16:59:34Z</time></trkpt><trkpt lat="45.5671346353383" lon="9.777698168311968"><ele>149.0</ele><time>2026-04-11T16:59:35Z</time></trkpt><trkpt lat="45.56706709916817" lon="9.777814414985947"><ele>149.0</ele><time>2026-04-11T16:59:36Z</time></trkpt><trkpt lat="45.566988712641006" lon="9.777923960717024"><ele>149.0</ele><time>2026-04-11T16:59:37Z</time></trkpt><trkpt lat="45.56690231311545" lon="9.778026849345563"><ele>148.6</ele><time>2026-04-11T16:59:38Z</time></trkpt><trkpt lat="45.56682761056268" lon="9.778131680529151"><ele>148.2</ele><time>2026-04-11T16:59:39Z</time></trkpt><trkpt lat="45.56676471141264" lon="9.778226409202865"><ele>147.79999999999998</ele><time>2026-04-11T16:59:40Z</time></trkpt><trkpt lat="45.56670732090533" lon="9.77832155053593"><ele>147.4</ele><time>2026-04-11T16:59:41Z</time></trkpt><trkpt lat="45.566636179128935" lon="9.778448260823337"><ele>147.0</ele><time>2026-04-11T16:59:42Z</time></trkpt><trkpt lat="45.566584675353845" lon="9.778589534195566"><ele>146.5</ele><time>2026-04-11T16:59:43Z</time></trkpt><trkpt lat="45.566525488907814" lon="9.778750501323684"><ele>146.0</ele><time>2026-04-11T16:59:44Z</time></trkpt><trkpt lat="45.56647761494273" lon="9.778938471624194"><ele>145.5</ele><time>2026-04-11T16:59:45Z</time></trkpt><trkpt lat="45.566437978353015" lon="9.77913939377435"><ele>145.0</ele><time>2026-04-11T16:59:46Z</time></trkpt><trkpt lat="45.5663896664093" lon="9.779355721678415"><ele>144.5</ele><time>2026-04-11T16:59:47Z</time></trkpt><trkpt lat="45.56637100755533" lon="9.779539111125928"><ele>144.0</ele><time>2026-04-11T16:59:48Z</time></trkpt><trkpt lat="45.56634053274011" lon="9.77972577455304"><ele>143.5</ele><time>2026-04-11T16:59:49Z</time></trkpt><trkpt lat="45.566331656986506" lon="9.779920735310661"><ele>143.0</ele><time>2026-04-11T16:59:50Z</time></trkpt><trkpt lat="45.56632140880945" lon="9.780114228963901"><ele>143.0</ele><time>2026-04-11T16:59:51Z</time></trkpt><trkpt lat="45.566284725154226" lon="9.780320862606374"><ele>143.0</ele><time>2026-04-11T16:59:52Z</time></trkpt><trkpt lat="45.56625114232974" lon="9.780522779126029"><ele>143.0</ele><time>2026-04-11T16:59:53Z</time></trkpt><trkpt lat="45.566210609868456" lon="9.780696677480792"><ele>143.0</ele><time>2026-04-11T16:59:54Z</time></trkpt><trkpt lat="45.566177029319654" lon="9.78089684528583"><ele>143.0</ele><time>2026-04-11T16:59:55Z</time></trkpt><trkpt lat="45.56611405938679" lon="9.781070215797813"><ele>143.0</ele><time>2026-04-11T16:59:56Z</time></trkpt><trkpt lat="45.566043455948254" lon="9.781300821870396"><ele>143.0</ele><time>2026-04-11T16:59:57Z</time></trkpt><trkpt lat="45.565973062583026" lon="9.781545862180144"><ele>143.0</ele><time>2026-04-11T16:59:58Z</time></trkpt><trkpt lat="45.56591268344938" lon="9.781785936052836"><ele>143.0</ele><time>2026-04-11T16:59:59Z</time></trkpt><trkpt lat="45.56587406655079" lon="9.782029133910273"><ele>143.0</ele><time>2026-04-11T17:00:00Z</time></trkpt><trkpt lat="45.565849911169785" lon="9.782248858221935"><ele>143.33333333333331</ele><time>2026-04-11T17:00:01Z</time></trkpt><trkpt lat="45.56582425674718" lon="9.7824807835573"><ele>143.66666666666666</ele><time>2026-04-11T17:00:02Z</time></trkpt><trkpt lat="45.56582738828529" lon="9.7827091927126"><ele>144.0</ele><time>2026-04-11T17:00:03Z</time></trkpt><trkpt lat="45.565839539325594" lon="9.782936374817698"><ele>144.25</ele><time>2026-04-11T17:00:04Z</time></trkpt><trkpt lat="45.56586277430578" lon="9.78314741707355"><ele>144.5</ele><time>2026-04-11T17:00:05Z</time></trkpt><trkpt lat="45.56589634585451" lon="9.783337991274523"><ele>144.75</ele><time>2026-04-11T17:00:06Z</time></trkpt><trkpt lat="45.56590884524937" lon="9.783519983208446"><ele>145.0</ele><time>2026-04-11T17:00:07Z</time></trkpt><trkpt lat="45.56593154654468" lon="9.783686785165267"><ele>145.0</ele><time>2026-04-11T17:00:08Z</time></trkpt><trkpt lat="45.565944478816014" lon="9.783842742629263"><ele>145.0</ele><time>2026-04-11T17:00:09Z</time></trkpt><trkpt lat="45.56593310443799" lon="9.78398889634662"><ele>145.0</ele><time>2026-04-11T17:00:10Z</time></trkpt><trkpt lat="45.56586657184006" lon="9.784090960725937"><ele>145.0</ele><time>2026-04-11T17:00:11Z</time></trkpt><trkpt lat="45.565792987826995" lon="9.784107272918808"><ele>145.0</ele><time>2026-04-11T17:00:12Z</time></trkpt><trkpt lat="45.565710918596295" lon="9.784146722873624"><ele>145.0</ele><time>2026-04-11T17:00:13Z</time></trkpt><trkpt lat="45.56561182709784" lon="9.784208085430915"><ele>145.0</ele><time>2026-04-11T17:00:14Z</time></trkpt><trkpt lat="45.56547929436055" lon="9.784227507913966"><ele>145.0</ele><time>2026-04-11T17:00:15Z</time></trkpt><trkpt lat="45.56531121126114" lon="9.784246910860531"><ele>145.0</ele><time>2026-04-11T17:00:16Z</time></trkpt><trkpt lat="45.56512065663477" lon="9.784269421844668"><ele>144.66666666666669</ele><time>2026-04-11T17:00:17Z</time></trkpt><trkpt lat="45.5649115052482" lon="9.78430506190516"><ele>144.33333333333334</ele><time>2026-04-11T17:00:18Z</time></trkpt><trkpt lat="45.56468870408856" lon="9.78432752749559"><ele>144.0</ele><time>2026-04-11T17:00:19Z</time></trkpt><trkpt lat="45.564494290104804" lon="9.784374249731446"><ele>143.66666666666666</ele><time>2026-04-11T17:00:20Z</time></trkpt><trkpt lat="45.56428501208002" lon="9.78442070789954"><ele>143.33333333333331</ele><time>2026-04-11T17:00:21Z</time></trkpt><trkpt lat="45.564077007983286" lon="9.784457571297374"><ele>143.0</ele><time>2026-04-11T17:00:22Z</time></trkpt><trkpt lat="45.563872852068855" lon="9.784483047792206"><ele>143.33333333333331</ele><time>2026-04-11T17:00:23Z</time></trkpt><trkpt lat="45.563661431710294" lon="9.784525312472905"><ele>143.66666666666666</ele><time>2026-04-11T17:00:24Z</time></trkpt><trkpt lat="45.563473390808596" lon="9.784562903401895"><ele>144.0</ele><time>2026-04-11T17:00:25Z</time></trkpt><trkpt lat="45.563280939002965" lon="9.784601392260294"><ele>144.0</ele><time>2026-04-11T17:00:26Z</time></trkpt><trkpt lat="45.56309972823691" lon="9.784637659322087"><ele>144.0</ele><time>2026-04-11T17:00:27Z</time></trkpt><trkpt lat="45.56291661285469" lon="9.784674307638966"><ele>144.0</ele><time>2026-04-11T17:00:28Z</time></trkpt><trkpt lat="45.562750554841585" lon="9.784702915408705"><ele>143.75</ele><time>2026-04-11T17:00:29Z</time></trkpt><trkpt lat="45.562604325929094" lon="9.784727286899987"><ele>143.5</ele><time>2026-04-11T17:00:30Z</time></trkpt><trkpt lat="45.56247557342272" lon="9.784746793956748"><ele>143.25</ele><time>2026-04-11T17:00:31Z</time></trkpt><trkpt lat="45.56237299162973" lon="9.78474365992613"><ele>143.0</ele><time>2026-04-11T17:00:32Z</time></trkpt><trkpt lat="45.562274775131314" lon="9.784711968035568"><ele>143.0</ele><time>2026-04-11T17:00:33Z</time></trkpt><trkpt lat="45.562188607684355" lon="9.784638530605893"><ele>143.0</ele><time>2026-04-11T17:00:34Z</time></trkpt><trkpt lat="45.56212053268391" lon="9.78449703611911"><ele>143.0</ele><time>2026-04-11T17:00:35Z</time></trkpt><trkpt lat="45.562002525716494" lon="9.784441532415455"><ele>143.0</ele><time>2026-04-11T17:00:36Z</time></trkpt><trkpt lat="45.56187060442549" lon="9.78444005357272"><ele>143.25</ele><time>2026-04-11T17:00:37Z</time></trkpt><trkpt lat="45.56172428403759" lon="9.784470857076222"><ele>143.5</ele><time>2026-04-11T17:00:38Z</time></trkpt><trkpt lat="45.561612760759246" lon="9.784527386790328"><ele>143.75</ele><time>2026-04-11T17:00:39Z</time></trkpt><trkpt lat="45.561458797385754" lon="9.784559300031932"><ele>144.0</ele><time>2026-04-11T17:00:40Z</time></trkpt><trkpt lat="45.56130890934447" lon="9.78459433443147"><ele>144.0</ele><time>2026-04-11T17:00:41Z</time></trkpt><trkpt lat="45.561129291565265" lon="9.784629926592947"><ele>144.0</ele><time>2026-04-11T17:00:42Z</time></trkpt><trkpt lat="45.56098495213562" lon="9.78465056196974"><ele>144.0</ele><time>2026-04-11T17:00:43Z</time></trkpt><trkpt lat="45.56082675064014" lon="9.784675855208752"><ele>144.0</ele><time>2026-04-11T17:00:44Z</time></trkpt><trkpt lat="45.56067946867871" lon="9.784692317397232"><ele>144.0</ele><time>2026-04-11T17:00:45Z</time></trkpt><trkpt lat="45.5605488392715" lon="9.784708411272375"><ele>144.0</ele><time>2026-04-11T17:00:46Z</time></trkpt><trkpt lat="45.56044187481001" lon="9.784745947947172"><ele>144.0</ele><time>2026-04-11T17:00:47Z</time></trkpt><trkpt lat="45.560338805019825" lon="9.784765887310156"><ele>143.8</ele><time>2026-04-11T17:00:48Z</time></trkpt><trkpt lat="45.5602425672407" lon="9.784777252307302"><ele>143.60000000000002</ele><time>2026-04-11T17:00:49Z</time></trkpt><trkpt lat="45.560135901175606" lon="9.784785851189717"><ele>143.4</ele><time>2026-04-11T17:00:50Z</time></trkpt><trkpt lat="45.56005211818473" lon="9.784804809803115"><ele>143.20000000000002</ele><time>2026-04-11T17:00:51Z</time></trkpt><trkpt lat="45.55993911541798" lon="9.784866737378605"><ele>143.0</ele><time>2026-04-11T17:00:52Z</time></trkpt><trkpt lat="45.559823358298594" lon="9.784998396916503"><ele>143.0</ele><time>2026-04-11T17:00:53Z</time></trkpt><trkpt lat="45.55973225934458" lon="9.785175511250442"><ele>143.0</ele><time>2026-04-11T17:00:54Z</time></trkpt><trkpt lat="45.55961081586284" lon="9.785472946698434"><ele>143.0</ele><time>2026-04-11T17:00:55Z</time></trkpt><trkpt lat="45.55954713943998" lon="9.785658694528399"><ele>142.75</ele><time>2026-04-11T17:00:56Z</time></trkpt><trkpt lat="45.55950003946722" lon="9.78585034507115"><ele>142.5</ele><time>2026-04-11T17:00:57Z</time></trkpt><trkpt lat="45.559473552922825" lon="9.786036559815022"><ele>142.25</ele><time>2026-04-11T17:00:58Z</time></trkpt><trkpt lat="45.5594725891879" lon="9.786174000822465"><ele>142.0</ele><time>2026-04-11T17:00:59Z</time></trkpt><trkpt lat="45.55944226260857" lon="9.786315162291123"><ele>142.0</ele><time>2026-04-11T17:01:00Z</time></trkpt><trkpt lat="45.55941345797775" lon="9.786447067511894"><ele>142.0</ele><time>2026-04-11T17:01:01Z</time></trkpt><trkpt lat="45.55933025657088" lon="9.786582378463441"><ele>142.0</ele><time>2026-04-11T17:01:02Z</time></trkpt><trkpt lat="45.55920447130458" lon="9.786635310637697"><ele>142.0</ele><time>2026-04-11T17:01:03Z</time></trkpt><trkpt lat="45.559077058518206" lon="9.786677301199106"><ele>142.0</ele><time>2026-04-11T17:01:04Z</time></trkpt><trkpt lat="45.55894047660264" lon="9.786718578115476"><ele>142.0</ele><time>2026-04-11T17:01:05Z</time></trkpt><trkpt lat="45.55877219833991" lon="9.786786062392263"><ele>142.0</ele><time>2026-04-11T17:01:06Z</time></trkpt><trkpt lat="45.55857753691985" lon="9.786870227284341"><ele>141.33333333333334</ele><time>2026-04-11T17:01:07Z</time></trkpt><trkpt lat="45.5583951589611" lon="9.786951066205987"><ele>140.66666666666666</ele><time>2026-04-11T17:01:08Z</time></trkpt><trkpt lat="45.5582365874925" lon="9.786991239168099"><ele>140.0</ele><time>2026-04-11T17:01:09Z</time></trkpt><trkpt lat="45.55807757640757" lon="9.787054163625026"><ele>140.0</ele><time>2026-04-11T17:01:10Z</time></trkpt><trkpt lat="45.557912367858364" lon="9.787115452156332"><ele>140.0</ele><time>2026-04-11T17:01:11Z</time></trkpt><trkpt lat="45.55777431232768" lon="9.787164194809403"><ele>140.0</ele><time>2026-04-11T17:01:12Z</time></trkpt><trkpt lat="45.55760270677802" lon="9.787222944329967"><ele>140.0</ele><time>2026-04-11T17:01:13Z</time></trkpt><trkpt lat="45.557423713856124" lon="9.787284222963597"><ele>140.0</ele><time>2026-04-11T17:01:14Z</time></trkpt><trkpt lat="45.55721513670274" lon="9.787356239401975"><ele>140.0</ele><time>2026-04-11T17:01:15Z</time></trkpt><trkpt lat="45.55699923540118" lon="9.78743132839"><ele>140.0</ele><time>2026-04-11T17:01:16Z</time></trkpt><trkpt lat="45.55680580572897" lon="9.787498601900507"><ele>140.0</ele><time>2026-04-11T17:01:17Z</time></trkpt><trkpt lat="45.55659944088401" lon="9.787571108720309"><ele>140.0</ele><time>2026-04-11T17:01:18Z</time></trkpt><trkpt lat="45.55640126775935" lon="9.787642171140472"><ele>140.33333333333331</ele><time>2026-04-11T17:01:19Z</time></trkpt><trkpt lat="45.55624199675956" lon="9.78770184059775"><ele>140.66666666666666</ele><time>2026-04-11T17:01:20Z</time></trkpt><trkpt lat="45.55607379883966" lon="9.787764852382503"><ele>141.0</ele><time>2026-04-11T17:01:21Z</time></trkpt><trkpt lat="45.55591426180814" lon="9.787824619618235"><ele>140.5</ele><time>2026-04-11T17:01:22Z</time></trkpt><trkpt lat="45.55579069767668" lon="9.787870910301498"><ele>140.0</ele><time>2026-04-11T17:01:23Z</time></trkpt><trkpt lat="45.55566999595272" lon="9.787916476530146"><ele>139.5</ele><time>2026-04-11T17:01:24Z</time></trkpt><trkpt lat="45.55556135804789" lon="9.787974173180224"><ele>139.0</ele><time>2026-04-11T17:01:25Z</time></trkpt><trkpt lat="45.555452712857225" lon="9.787984463441664"><ele>139.0</ele><time>2026-04-11T17:01:26Z</time></trkpt><trkpt lat="45.555325540029365" lon="9.788012645504514"><ele>139.0</ele><time>2026-04-11T17:01:27Z</time></trkpt><trkpt lat="45.55522452327952" lon="9.788037188343145"><ele>139.0</ele><time>2026-04-11T17:01:28Z</time></trkpt><trkpt lat="45.55513559872093" lon="9.788078418015356"><ele>139.0</ele><time>2026-04-11T17:01:29Z</time></trkpt><trkpt lat="45.55507399008455" lon="9.788135076115408"><ele>139.0</ele><time>2026-04-11T17:01:30Z</time></trkpt><trkpt lat="45.55500523169885" lon="9.788209911436054"><ele>139.0</ele><time>2026-04-11T17:01:31Z</time></trkpt><trkpt lat="45.5549729190149" lon="9.788322019300058"><ele>139.0</ele><time>2026-04-11T17:01:32Z</time></trkpt><trkpt lat="45.55497863309803" lon="9.788455733281559"><ele>139.0</ele><time>2026-04-11T17:01:33Z</time></trkpt><trkpt lat="45.555021275293846" lon="9.788572875546615"><ele>139.0</ele><time>2026-04-11T17:01:34Z</time></trkpt><trkpt lat="45.55504997419428" lon="9.788699411377456"><ele>139.0</ele><time>2026-04-11T17:01:35Z</time></trkpt><trkpt lat="45.555080409891566" lon="9.788844867863842"><ele>138.8</ele><time>2026-04-11T17:01:36Z</time></trkpt><trkpt lat="45.55511405515934" lon="9.788953321474661"><ele>138.60000000000002</ele><time>2026-04-11T17:01:37Z</time></trkpt><trkpt lat="45.55510957529825" lon="9.789063088044502"><ele>138.4</ele><time>2026-04-11T17:01:38Z</time></trkpt><trkpt lat="45.55506124457674" lon="9.789213935373464"><ele>138.20000000000002</ele><time>2026-04-11T17:01:40Z</time></trkpt><trkpt lat="45.554926964984354" lon="9.789247918273604"><ele>138.0</ele><time>2026-04-11T17:01:42Z</time></trkpt><trkpt lat="45.55477854721566" lon="9.789298679011052"><ele>138.0</ele><time>2026-04-11T17:01:43Z</time></trkpt><trkpt lat="45.554617926006124" lon="9.789331415234939"><ele>138.0</ele><time>2026-04-11T17:01:44Z</time></trkpt><trkpt lat="45.55445619862419" lon="9.789390314566628"><ele>138.0</ele><time>2026-04-11T17:01:45Z</time></trkpt><trkpt lat="45.55428743795994" lon="9.789473650985844"><ele>138.33333333333334</ele><time>2026-04-11T17:01:46Z</time></trkpt><trkpt lat="45.5540879552257" lon="9.789549120593891"><ele>138.66666666666669</ele><time>2026-04-11T17:01:47Z</time></trkpt><trkpt lat="45.553891526073656" lon="9.7895948485114"><ele>139.0</ele><time>2026-04-11T17:01:48Z</time></trkpt><trkpt lat="45.55369851096145" lon="9.78966162287672"><ele>138.33333333333334</ele><time>2026-04-11T17:01:49Z</time></trkpt><trkpt lat="45.55350233006409" lon="9.789728898851466"><ele>137.66666666666666</ele><time>2026-04-11T17:01:50Z</time></trkpt><trkpt lat="45.55332450397531" lon="9.789789044130481"><ele>137.0</ele><time>2026-04-11T17:01:51Z</time></trkpt><trkpt lat="45.55316619454975" lon="9.78984189305072"><ele>137.0</ele><time>2026-04-11T17:01:52Z</time></trkpt><trkpt lat="45.553020763801385" lon="9.789889733739907"><ele>137.0</ele><time>2026-04-11T17:01:53Z</time></trkpt><trkpt lat="45.55286590793531" lon="9.789939670348167"><ele>137.0</ele><time>2026-04-11T17:01:54Z</time></trkpt><trkpt lat="45.552745397659706" lon="9.789978531474553"><ele>137.0</ele><time>2026-04-11T17:01:55Z</time></trkpt><trkpt lat="45.552662389916726" lon="9.790029064039643"><ele>137.0</ele><time>2026-04-11T17:01:56Z</time></trkpt><trkpt lat="45.55259963717906" lon="9.790043282896882"><ele>137.0</ele><time>2026-04-11T17:01:57Z</time></trkpt><trkpt lat="45.552535128179926" lon="9.790018033471043"><ele>137.0</ele><time>2026-04-11T17:02:00Z</time></trkpt><trkpt lat="45.552515830128705" lon="9.789847511163156"><ele>137.0</ele><time>2026-04-11T17:02:05Z</time></trkpt><trkpt lat="45.552539567321645" lon="9.789720758830217"><ele>137.0</ele><time>2026-04-11T17:02:07Z</time></trkpt><trkpt lat="45.55254121490029" lon="9.789625081775455"><ele>137.0</ele><time>2026-04-11T17:02:09Z</time></trkpt><trkpt lat="45.552536804543585" lon="9.789503252461506"><ele>137.0</ele><time>2026-04-11T17:02:10Z</time></trkpt><trkpt lat="45.552550477991346" lon="9.78938621962219"><ele>137.0</ele><time>2026-04-11T17:02:12Z</time></trkpt><trkpt lat="45.55257231102009" lon="9.78926264354346"><ele>137.0</ele><time>2026-04-11T17:02:14Z</time></trkpt><trkpt lat="45.55258649487222" lon="9.789112744317706"><ele>137.0</ele><time>2026-04-11T17:02:16Z</time></trkpt><trkpt lat="45.55261412574508" lon="9.788966763278717"><ele>137.0</ele><time>2026-04-11T17:02:18Z</time></trkpt><trkpt lat="45.552610889018204" lon="9.78883367873381"><ele>137.0</ele><time>2026-04-11T17:02:20Z</time></trkpt><trkpt lat="45.55263391855027" lon="9.788727762576487"><ele>137.0</ele><time>2026-04-11T17:02:22Z</time></trkpt><trkpt lat="45.552637360278965" lon="9.78857819917652"><ele>137.0</ele><time>2026-04-11T17:02:24Z</time></trkpt><trkpt lat="45.55268779289728" lon="9.788434901041265"><ele>137.0</ele><time>2026-04-11T17:02:26Z</time></trkpt><trkpt lat="45.552688748844275" lon="9.78833216689362"><ele>137.0</ele><time>2026-04-11T17:02:27Z</time></trkpt><trkpt lat="45.55270247595166" lon="9.788239481601838"><ele>137.0</ele><time>2026-04-11T17:02:28Z</time></trkpt><trkpt lat="45.55275995681382" lon="9.788078800253846"><ele>137.0</ele><time>2026-04-11T17:02:30Z</time></trkpt><trkpt lat="45.55279966375728" lon="9.788001006473074"><ele>137.0</ele><time>2026-04-11T17:02:31Z</time></trkpt><trkpt lat="45.5528516825529" lon="9.787878349879968"><ele>137.0</ele><time>2026-04-11T17:02:33Z</time></trkpt><trkpt lat="45.552904315592734" lon="9.78774452834326"><ele>137.0</ele><time>2026-04-11T17:02:35Z</time></trkpt><trkpt lat="45.552948531563075" lon="9.787627349191308"><ele>137.0</ele><time>2026-04-11T17:02:37Z</time></trkpt><trkpt lat="45.55296749670559" lon="9.787448371210104"><ele>136.83333333333331</ele><time>2026-04-11T17:02:39Z</time></trkpt><trkpt lat="45.55297543986961" lon="9.787340049384568"><ele>136.66666666666666</ele><time>2026-04-11T17:02:40Z</time></trkpt><trkpt lat="45.55298310189519" lon="9.787241379552741"><ele>136.5</ele><time>2026-04-11T17:02:41Z</time></trkpt><trkpt lat="45.55298986800532" lon="9.78714837181725"><ele>136.33333333333334</ele><time>2026-04-11T17:02:42Z</time></trkpt><trkpt lat="45.552974916229" lon="9.787049320642119"><ele>136.16666666666669</ele><time>2026-04-11T17:02:43Z</time></trkpt><trkpt lat="45.55297555848521" lon="9.786865872618426"><ele>136.0</ele><time>2026-04-11T17:02:45Z</time></trkpt><trkpt lat="45.552967180919104" lon="9.786749867355343"><ele>136.33333333333334</ele><time>2026-04-11T17:02:46Z</time></trkpt><trkpt lat="45.55296171719475" lon="9.786635185647164"><ele>136.66666666666669</ele><time>2026-04-11T17:02:47Z</time></trkpt><trkpt lat="45.5529659354718" lon="9.786515148753214"><ele>137.0</ele><time>2026-04-11T17:02:48Z</time></trkpt><trkpt lat="45.55296345086432" lon="9.78639234434075"><ele>137.33333333333334</ele><time>2026-04-11T17:02:49Z</time></trkpt><trkpt lat="45.55295625875021" lon="9.786271073739249"><ele>137.66666666666666</ele><time>2026-04-11T17:02:50Z</time></trkpt><trkpt lat="45.552941241300644" lon="9.786142842585111"><ele>138.0</ele><time>2026-04-11T17:02:51Z</time></trkpt><trkpt lat="45.55292748039243" lon="9.786005525046715"><ele>138.0</ele><time>2026-04-11T17:02:52Z</time></trkpt><trkpt lat="45.552922088651776" lon="9.785875743312952"><ele>138.0</ele><time>2026-04-11T17:02:53Z</time></trkpt><trkpt lat="45.55290356751959" lon="9.785733091014112"><ele>138.0</ele><time>2026-04-11T17:02:54Z</time></trkpt><trkpt lat="45.552892890784484" lon="9.78560864838742"><ele>138.0</ele><time>2026-04-11T17:02:55Z</time></trkpt><trkpt lat="45.55288524649941" lon="9.785482412737633"><ele>138.0</ele><time>2026-04-11T17:02:56Z</time></trkpt><trkpt lat="45.55287391429424" lon="9.785362133377827"><ele>137.83333333333334</ele><time>2026-04-11T17:02:57Z</time></trkpt><trkpt lat="45.55285614833081" lon="9.78523488732542"><ele>137.66666666666666</ele><time>2026-04-11T17:02:58Z</time></trkpt><trkpt lat="45.55283042074" lon="9.785119506107279"><ele>137.5</ele><time>2026-04-11T17:02:59Z</time></trkpt><trkpt lat="45.55282228318587" lon="9.785018391212608"><ele>137.33333333333331</ele><time>2026-04-11T17:03:00Z</time></trkpt><trkpt lat="45.552814969511616" lon="9.784911133952344"><ele>137.16666666666666</ele><time>2026-04-11T17:03:01Z</time></trkpt><trkpt lat="45.55280356057791" lon="9.784794466166039"><ele>137.0</ele><time>2026-04-11T17:03:02Z</time></trkpt><trkpt lat="45.55279814348116" lon="9.78468805786231"><ele>137.0</ele><time>2026-04-11T17:03:03Z</time></trkpt><trkpt lat="45.552793445485804" lon="9.784573415897928"><ele>137.0</ele><time>2026-04-11T17:03:04Z</time></trkpt><trkpt lat="45.55280349700794" lon="9.784458001721067"><ele>137.0</ele><time>2026-04-11T17:03:05Z</time></trkpt><trkpt lat="45.55281109770219" lon="9.784343021745975"><ele>137.0</ele><time>2026-04-11T17:03:06Z</time></trkpt><trkpt lat="45.55281344503326" lon="9.78420831233086"><ele>137.0</ele><time>2026-04-11T17:03:07Z</time></trkpt><trkpt lat="45.5528313546637" lon="9.784076434125424"><ele>137.0</ele><time>2026-04-11T17:03:08Z</time></trkpt><trkpt lat="45.55284961933902" lon="9.783953859591698"><ele>137.0</ele><time>2026-04-11T17:03:09Z</time></trkpt><trkpt lat="45.55286628686551" lon="9.78383478787022"><ele>137.0</ele><time>2026-04-11T17:03:10Z</time></trkpt><trkpt lat="45.552884185699114" lon="9.783722416188354"><ele>137.0</ele><time>2026-04-11T17:03:11Z</time></trkpt><trkpt lat="45.55288995357278" lon="9.783593635243662"><ele>137.0</ele><time>2026-04-11T17:03:12Z</time></trkpt><trkpt lat="45.55290726867829" lon="9.783470111189125"><ele>137.0</ele><time>2026-04-11T17:03:13Z</time></trkpt><trkpt lat="45.55292253400869" lon="9.783340317066765"><ele>137.0</ele><time>2026-04-11T17:03:14Z</time></trkpt><trkpt lat="45.552930259972065" lon="9.783202263765824"><ele>137.16666666666666</ele><time>2026-04-11T17:03:15Z</time></trkpt><trkpt lat="45.55294621813474" lon="9.783083840890647"><ele>137.33333333333331</ele><time>2026-04-11T17:03:16Z</time></trkpt><trkpt lat="45.55294608940978" lon="9.782963967091096"><ele>137.5</ele><time>2026-04-11T17:03:17Z</time></trkpt><trkpt lat="45.55295032031119" lon="9.782861603461136"><ele>137.66666666666666</ele><time>2026-04-11T17:03:18Z</time></trkpt><trkpt lat="45.5529676318193" lon="9.782759156207309"><ele>137.83333333333334</ele><time>2026-04-11T17:03:19Z</time></trkpt><trkpt lat="45.552970886292016" lon="9.782626455997264"><ele>138.0</ele><time>2026-04-11T17:03:20Z</time></trkpt><trkpt lat="45.55298289385072" lon="9.78250081126359"><ele>138.0</ele><time>2026-04-11T17:03:21Z</time></trkpt><trkpt lat="45.55298546003958" lon="9.782359213878218"><ele>138.0</ele><time>2026-04-11T17:03:22Z</time></trkpt><trkpt lat="45.55300274757601" lon="9.782244416324748"><ele>138.0</ele><time>2026-04-11T17:03:23Z</time></trkpt><trkpt lat="45.552990923085574" lon="9.782117531472826"><ele>138.0</ele><time>2026-04-11T17:03:24Z</time></trkpt><trkpt lat="45.55297463319502" lon="9.781995118987414"><ele>138.0</ele><time>2026-04-11T17:03:25Z</time></trkpt><trkpt lat="45.55296911378809" lon="9.781888341212188"><ele>138.0</ele><time>2026-04-11T17:03:26Z</time></trkpt><trkpt lat="45.55295687330255" lon="9.781786648785296"><ele>138.0</ele><time>2026-04-11T17:03:27Z</time></trkpt><trkpt lat="45.5529530501784" lon="9.781684374181335"><ele>138.0</ele><time>2026-04-11T17:03:28Z</time></trkpt><trkpt lat="45.5529475981012" lon="9.781534648844799"><ele>138.0</ele><time>2026-04-11T17:03:30Z</time></trkpt><trkpt lat="45.55294618468029" lon="9.781366167565748"><ele>138.0</ele><time>2026-04-11T17:03:32Z</time></trkpt><trkpt lat="45.5529683413312" lon="9.781265344080605"><ele>138.0</ele><time>2026-04-11T17:03:33Z</time></trkpt><trkpt lat="45.55297724666995" lon="9.781162460111904"><ele>138.0</ele><time>2026-04-11T17:03:34Z</time></trkpt><trkpt lat="45.55300924984799" lon="9.781060382392434"><ele>138.4</ele><time>2026-04-11T17:03:35Z</time></trkpt><trkpt lat="45.553003507680465" lon="9.780969414486323"><ele>138.8</ele><time>2026-04-11T17:03:36Z</time></trkpt><trkpt lat="45.55301201203152" lon="9.780795973351506"><ele>139.2</ele><time>2026-04-11T17:03:38Z</time></trkpt><trkpt lat="45.55301005097112" lon="9.780617772191176"><ele>139.6</ele><time>2026-04-11T17:03:40Z</time></trkpt><trkpt lat="45.55295767119664" lon="9.780522965355583"><ele>140.0</ele><time>2026-04-11T17:03:41Z</time></trkpt><trkpt lat="45.55292037734865" lon="9.780413415017879"><ele>140.0</ele><time>2026-04-11T17:03:42Z</time></trkpt><trkpt lat="45.552880158548184" lon="9.780343133502905"><ele>140.0</ele><time>2026-04-11T17:03:43Z</time></trkpt><trkpt lat="45.55286801318558" lon="9.780154359147296"><ele>140.0</ele><time>2026-04-11T17:03:45Z</time></trkpt><trkpt lat="45.55286759445778" lon="9.780052834965625"><ele>140.0</ele><time>2026-04-11T17:03:46Z</time></trkpt><trkpt lat="45.55285424455368" lon="9.779917895616276"><ele>140.0</ele><time>2026-04-11T17:03:48Z</time></trkpt><trkpt lat="45.552861404325014" lon="9.779774162599352"><ele>139.66666666666666</ele><time>2026-04-11T17:03:50Z</time></trkpt><trkpt lat="45.55286696053043" lon="9.779673332353203"><ele>139.33333333333331</ele><time>2026-04-11T17:03:53Z</time></trkpt><trkpt lat="45.552781252143554" lon="9.779671700462014"><ele>139.0</ele><time>2026-04-11T17:03:55Z</time></trkpt><trkpt lat="45.55264948796723" lon="9.779707776877405"><ele>138.66666666666666</ele><time>2026-04-11T17:03:57Z</time></trkpt><trkpt lat="45.55258234714035" lon="9.779719228545522"><ele>138.33333333333334</ele><time>2026-04-11T17:03:58Z</time></trkpt><trkpt lat="45.5525193350925" lon="9.779760799697973"><ele>138.0</ele><time>2026-04-11T17:03:59Z</time></trkpt><trkpt lat="45.55244666001125" lon="9.779755295337281"><ele>138.0</ele><time>2026-04-11T17:04:02Z</time></trkpt><trkpt lat="45.55239907388647" lon="9.779693435042574"><ele>138.0</ele><time>2026-04-11T17:04:04Z</time></trkpt><trkpt lat="45.5523955066283" lon="9.779537050131955"><ele>138.0</ele><time>2026-04-11T17:04:06Z</time></trkpt><trkpt lat="45.55238958351433" lon="9.779433057496561"><ele>138.0</ele><time>2026-04-11T17:04:07Z</time></trkpt><trkpt lat="45.55238287842067" lon="9.779333526379556"><ele>138.0</ele><time>2026-04-11T17:04:08Z</time></trkpt><trkpt lat="45.55237576533273" lon="9.77923648619597"><ele>138.0</ele><time>2026-04-11T17:04:09Z</time></trkpt><trkpt lat="45.552363611161326" lon="9.779114123621458"><ele>137.83333333333334</ele><time>2026-04-11T17:04:10Z</time></trkpt><trkpt lat="45.55235416268873" lon="9.779015442594478"><ele>137.66666666666666</ele><time>2026-04-11T17:04:11Z</time></trkpt><trkpt lat="45.552336778655935" lon="9.778894889068852"><ele>137.5</ele><time>2026-04-11T17:04:12Z</time></trkpt><trkpt lat="45.55231866281936" lon="9.77875239161328"><ele>137.33333333333331</ele><time>2026-04-11T17:04:13Z</time></trkpt><trkpt lat="45.552307929651256" lon="9.778632833676916"><ele>137.16666666666666</ele><time>2026-04-11T17:04:14Z</time></trkpt><trkpt lat="45.55228959494203" lon="9.778515140467276"><ele>137.0</ele><time>2026-04-11T17:04:15Z</time></trkpt><trkpt lat="45.552274507107036" lon="9.778395455205384"><ele>137.0</ele><time>2026-04-11T17:04:16Z</time></trkpt><trkpt lat="45.552280459076385" lon="9.778282898682368"><ele>137.0</ele><time>2026-04-11T17:04:17Z</time></trkpt><trkpt lat="45.552271585478465" lon="9.77817837256276"><ele>137.0</ele><time>2026-04-11T17:04:18Z</time></trkpt><trkpt lat="45.55224220179014" lon="9.778014034644935"><ele>137.0</ele><time>2026-04-11T17:04:20Z</time></trkpt><trkpt lat="45.55223491769786" lon="9.777854597738578"><ele>137.0</ele><time>2026-04-11T17:04:22Z</time></trkpt><trkpt lat="45.55223959792725" lon="9.77772637223404"><ele>136.6</ele><time>2026-04-11T17:04:24Z</time></trkpt><trkpt lat="45.552234423548704" lon="9.777607982421321"><ele>136.2</ele><time>2026-04-11T17:04:26Z</time></trkpt><trkpt lat="45.55222164805988" lon="9.777496660126655"><ele>135.8</ele><time>2026-04-11T17:04:35Z</time></trkpt><trkpt lat="45.55204329566117" lon="9.777473143618213"><ele>135.4</ele><time>2026-04-11T17:04:36Z</time></trkpt><trkpt lat="45.55195226737122" lon="9.777472013198048"><ele>135.0</ele><time>2026-04-11T17:04:37Z</time></trkpt><trkpt lat="45.55184873976928" lon="9.777477837229123"><ele>135.0</ele><time>2026-04-11T17:04:38Z</time></trkpt><trkpt lat="45.551710780740414" lon="9.777502178113403"><ele>135.0</ele><time>2026-04-11T17:04:39Z</time></trkpt><trkpt lat="45.55156863306037" lon="9.777508046341335"><ele>135.0</ele><time>2026-04-11T17:04:40Z</time></trkpt><trkpt lat="45.55141099735292" lon="9.777511409990026"><ele>135.0</ele><time>2026-04-11T17:04:41Z</time></trkpt><trkpt lat="45.5512307000834" lon="9.777504245884383"><ele>135.0</ele><time>2026-04-11T17:04:42Z</time></trkpt><trkpt lat="45.55105492360616" lon="9.777522070913001"><ele>135.0</ele><time>2026-04-11T17:04:43Z</time></trkpt><trkpt lat="45.55084755678733" lon="9.777526635922067"><ele>135.0</ele><time>2026-04-11T17:04:44Z</time></trkpt><trkpt lat="45.550639751585095" lon="9.777527528998306"><ele>135.0</ele><time>2026-04-11T17:04:45Z</time></trkpt><trkpt lat="45.55043220630754" lon="9.777498971137863"><ele>135.0</ele><time>2026-04-11T17:04:46Z</time></trkpt><trkpt lat="45.55021402263409" lon="9.777513396263249"><ele>135.0</ele><time>2026-04-11T17:04:47Z</time></trkpt><trkpt lat="45.550008885018805" lon="9.77751119945567"><ele>135.0</ele><time>2026-04-11T17:04:48Z</time></trkpt><trkpt lat="45.549801773536664" lon="9.777517567853065"><ele>135.0</ele><time>2026-04-11T17:04:49Z</time></trkpt><trkpt lat="45.54959680840462" lon="9.777539318950785"><ele>135.0</ele><time>2026-04-11T17:04:50Z</time></trkpt><trkpt lat="45.54939714998172" lon="9.777576548912513"><ele>135.33333333333334</ele><time>2026-04-11T17:04:51Z</time></trkpt><trkpt lat="45.54922067204322" lon="9.77760964146489"><ele>135.66666666666669</ele><time>2026-04-11T17:04:52Z</time></trkpt><trkpt lat="45.5490533687504" lon="9.777685632782324"><ele>136.0</ele><time>2026-04-11T17:04:53Z</time></trkpt><trkpt lat="45.54888032556799" lon="9.777760164146402"><ele>135.66666666666669</ele><time>2026-04-11T17:04:54Z</time></trkpt><trkpt lat="45.54869726282884" lon="9.777876053430715"><ele>135.33333333333334</ele><time>2026-04-11T17:04:55Z</time></trkpt><trkpt lat="45.54849064012432" lon="9.77803549634546"><ele>135.0</ele><time>2026-04-11T17:04:56Z</time></trkpt><trkpt lat="45.548321393322205" lon="9.778170902016504"><ele>135.0</ele><time>2026-04-11T17:04:57Z</time></trkpt><trkpt lat="45.54813985140585" lon="9.778267171479435"><ele>135.0</ele><time>2026-04-11T17:04:58Z</time></trkpt><trkpt lat="45.547947209729685" lon="9.778373773777359"><ele>135.0</ele><time>2026-04-11T17:04:59Z</time></trkpt><trkpt lat="45.54773691049458" lon="9.778461822494599"><ele>134.33333333333334</ele><time>2026-04-11T17:05:00Z</time></trkpt><trkpt lat="45.5475311912218" lon="9.778523518493056"><ele>133.66666666666669</ele><time>2026-04-11T17:05:01Z</time></trkpt><trkpt lat="45.54738828315742" lon="9.778560118516017"><ele>133.0</ele><time>2026-04-11T17:05:02Z</time></trkpt><trkpt lat="45.54722647868859" lon="9.778599346224373"><ele>133.0</ele><time>2026-04-11T17:05:03Z</time></trkpt><trkpt lat="45.54704621422757" lon="9.77865326982144"><ele>133.0</ele><time>2026-04-11T17:05:04Z</time></trkpt><trkpt lat="45.54688268725328" lon="9.778657249824247"><ele>133.0</ele><time>2026-04-11T17:05:05Z</time></trkpt><trkpt lat="45.54670294129556" lon="9.778703998655374"><ele>133.0</ele><time>2026-04-11T17:05:06Z</time></trkpt><trkpt lat="45.546533728169074" lon="9.778764837007143"><ele>133.0</ele><time>2026-04-11T17:05:07Z</time></trkpt><trkpt lat="45.546356629056135" lon="9.778855265028943"><ele>133.0</ele><time>2026-04-11T17:05:08Z</time></trkpt><trkpt lat="45.546198664731804" lon="9.778978745242469"><ele>133.0</ele><time>2026-04-11T17:05:09Z</time></trkpt><trkpt lat="45.54604625812691" lon="9.779127277489293"><ele>133.0</ele><time>2026-04-11T17:05:10Z</time></trkpt><trkpt lat="45.54589775710197" lon="9.779280972212408"><ele>133.0</ele><time>2026-04-11T17:05:11Z</time></trkpt><trkpt lat="45.545756194663916" lon="9.779425540581325"><ele>133.0</ele><time>2026-04-11T17:05:12Z</time></trkpt><trkpt lat="45.545621112025465" lon="9.779563911514582"><ele>133.0</ele><time>2026-04-11T17:05:13Z</time></trkpt><trkpt lat="45.545498512562084" lon="9.779687208936684"><ele>133.0</ele><time>2026-04-11T17:05:14Z</time></trkpt><trkpt lat="45.54537752174863" lon="9.779772935719787"><ele>133.33333333333334</ele><time>2026-04-11T17:05:15Z</time></trkpt><trkpt lat="45.54528098829626" lon="9.779860748174057"><ele>133.66666666666666</ele><time>2026-04-11T17:05:16Z</time></trkpt><trkpt lat="45.54507347944866" lon="9.780027781683927"><ele>134.0</ele><time>2026-04-11T17:05:17Z</time></trkpt><trkpt lat="45.54496246440171" lon="9.780121129176893"><ele>134.0</ele><time>2026-04-11T17:05:18Z</time></trkpt><trkpt lat="45.54483657644319" lon="9.780175814573619"><ele>134.0</ele><time>2026-04-11T17:05:19Z</time></trkpt><trkpt lat="45.544711923065485" lon="9.780212068108673"><ele>134.0</ele><time>2026-04-11T17:05:20Z</time></trkpt><trkpt lat="45.544598036689386" lon="9.78023409413034"><ele>134.0</ele><time>2026-04-11T17:05:21Z</time></trkpt><trkpt lat="45.54448569309171" lon="9.780247313709554"><ele>134.25</ele><time>2026-04-11T17:05:22Z</time></trkpt><trkpt lat="45.54437096748251" lon="9.780260158921951"><ele>134.5</ele><time>2026-04-11T17:05:23Z</time></trkpt><trkpt lat="45.54424027337341" lon="9.780264155717626"><ele>134.75</ele><time>2026-04-11T17:05:24Z</time></trkpt><trkpt lat="45.54411406970136" lon="9.780258828663998"><ele>135.0</ele><time>2026-04-11T17:05:25Z</time></trkpt><trkpt lat="45.54398810652313" lon="9.780250051856571"><ele>135.0</ele><time>2026-04-11T17:05:26Z</time></trkpt><trkpt lat="45.54388196161909" lon="9.78023741087269"><ele>135.0</ele><time>2026-04-11T17:05:27Z</time></trkpt><trkpt lat="45.543781520489524" lon="9.780237410872488"><ele>135.0</ele><time>2026-04-11T17:05:28Z</time></trkpt><trkpt lat="45.54370855544174" lon="9.780265589758399"><ele>135.0</ele><time>2026-04-11T17:05:29Z</time></trkpt><trkpt lat="45.54367722089503" lon="9.78039264492574"><ele>135.0</ele><time>2026-04-11T17:05:30Z</time></trkpt><trkpt lat="45.54364255939786" lon="9.78049389412443"><ele>135.0</ele><time>2026-04-11T17:05:31Z</time></trkpt><trkpt lat="45.54362514043415" lon="9.780609637796486"><ele>135.0</ele><time>2026-04-11T17:05:32Z</time></trkpt><trkpt lat="45.543595992192294" lon="9.780719324963673"><ele>135.0</ele><time>2026-04-11T17:05:33Z</time></trkpt><trkpt lat="45.54355757934919" lon="9.78082947000955"><ele>135.0</ele><time>2026-04-11T17:05:34Z</time></trkpt><trkpt lat="45.54350376942252" lon="9.780940882644106"><ele>135.0</ele><time>2026-04-11T17:05:35Z</time></trkpt><trkpt lat="45.543453770328426" lon="9.781036785319884"><ele>135.0</ele><time>2026-04-11T17:05:36Z</time></trkpt><trkpt lat="45.5433904343038" lon="9.781164975597763"><ele>135.0</ele><time>2026-04-11T17:05:37Z</time></trkpt><trkpt lat="45.54332664654141" lon="9.781281171648828"><ele>135.0</ele><time>2026-04-11T17:05:38Z</time></trkpt><trkpt lat="45.54326562955822" lon="9.78140446856679"><ele>135.0</ele><time>2026-04-11T17:05:39Z</time></trkpt><trkpt lat="45.54317958569373" lon="9.781521475820455"><ele>135.0</ele><time>2026-04-11T17:05:40Z</time></trkpt><trkpt lat="45.54310656189413" lon="9.781630727210263"><ele>135.0</ele><time>2026-04-11T17:05:41Z</time></trkpt><trkpt lat="45.5430273166539" lon="9.781749745165614"><ele>134.8</ele><time>2026-04-11T17:05:42Z</time></trkpt><trkpt lat="45.542955965183694" lon="9.781871818167335"><ele>134.6</ele><time>2026-04-11T17:05:43Z</time></trkpt><trkpt lat="45.54289354800582" lon="9.782007082998083"><ele>134.4</ele><time>2026-04-11T17:05:44Z</time></trkpt><trkpt lat="45.54283241743202" lon="9.782144640633966"><ele>134.2</ele><time>2026-04-11T17:05:45Z</time></trkpt><trkpt lat="45.542774035461264" lon="9.782267721436977"><ele>134.0</ele><time>2026-04-11T17:05:46Z</time></trkpt><trkpt lat="45.54270277851834" lon="9.782389207889633"><ele>133.6</ele><time>2026-04-11T17:05:47Z</time></trkpt><trkpt lat="45.54265109932031" lon="9.782509900787709"><ele>133.2</ele><time>2026-04-11T17:05:48Z</time></trkpt><trkpt lat="45.542587198213944" lon="9.782626880967557"><ele>132.79999999999998</ele><time>2026-04-11T17:05:49Z</time></trkpt><trkpt lat="45.542536412961866" lon="9.782750341571763"><ele>132.4</ele><time>2026-04-11T17:05:50Z</time></trkpt><trkpt lat="45.54245862194389" lon="9.78290871201343"><ele>132.0</ele><time>2026-04-11T17:05:51Z</time></trkpt><trkpt lat="45.54238575294701" lon="9.783054368945384"><ele>131.33333333333334</ele><time>2026-04-11T17:05:52Z</time></trkpt><trkpt lat="45.542276002237685" lon="9.783222326613878"><ele>130.66666666666669</ele><time>2026-04-11T17:05:53Z</time></trkpt><trkpt lat="45.54215339429106" lon="9.783416976935287"><ele>130.0</ele><time>2026-04-11T17:05:54Z</time></trkpt><trkpt lat="45.54203498530279" lon="9.783611588635775"><ele>130.0</ele><time>2026-04-11T17:05:55Z</time></trkpt><trkpt lat="45.54191113706454" lon="9.783802617867325"><ele>130.0</ele><time>2026-04-11T17:05:56Z</time></trkpt><trkpt lat="45.541787773820474" lon="9.783969014984132"><ele>130.0</ele><time>2026-04-11T17:05:57Z</time></trkpt><trkpt lat="45.54166255292906" lon="9.784146333332615"><ele>130.0</ele><time>2026-04-11T17:05:58Z</time></trkpt><trkpt lat="45.54154443975466" lon="9.784311586445751"><ele>130.0</ele><time>2026-04-11T17:05:59Z</time></trkpt><trkpt lat="45.541430122103854" lon="9.784502529631432"><ele>130.0</ele><time>2026-04-11T17:06:00Z</time></trkpt><trkpt lat="45.54130496658959" lon="9.784645336304079"><ele>130.33333333333334</ele><time>2026-04-11T17:06:01Z</time></trkpt><trkpt lat="45.54121048874915" lon="9.784834359085373"><ele>130.66666666666666</ele><time>2026-04-11T17:06:02Z</time></trkpt><trkpt lat="45.54109289100379" lon="9.78500107161737"><ele>131.0</ele><time>2026-04-11T17:06:03Z</time></trkpt><trkpt lat="45.54096709207837" lon="9.785159315517625"><ele>131.66666666666666</ele><time>2026-04-11T17:06:04Z</time></trkpt><trkpt lat="45.54085870104322" lon="9.785324571109296"><ele>132.33333333333334</ele><time>2026-04-11T17:06:05Z</time></trkpt><trkpt lat="45.54073119778633" lon="9.785466687043877"><ele>133.0</ele><time>2026-04-11T17:06:06Z</time></trkpt><trkpt lat="45.540634903608066" lon="9.78562295932294"><ele>133.0</ele><time>2026-04-11T17:06:07Z</time></trkpt><trkpt lat="45.540525302528565" lon="9.785753250793775"><ele>133.0</ele><time>2026-04-11T17:06:08Z</time></trkpt><trkpt lat="45.54043473906146" lon="9.785856680735858"><ele>133.0</ele><time>2026-04-11T17:06:09Z</time></trkpt><trkpt lat="45.54036256139328" lon="9.785939973881561"><ele>133.0</ele><time>2026-04-11T17:06:10Z</time></trkpt><trkpt lat="45.54025488635079" lon="9.786071546671364"><ele>133.33333333333334</ele><time>2026-04-11T17:06:12Z</time></trkpt><trkpt lat="45.54020016390099" lon="9.786138540482423"><ele>133.66666666666669</ele><time>2026-04-11T17:06:13Z</time></trkpt><trkpt lat="45.54015026720456" lon="9.786198821956699"><ele>134.0</ele><time>2026-04-11T17:06:15Z</time></trkpt><trkpt lat="45.54007059685013" lon="9.786288660070834"><ele>134.33333333333334</ele><time>2026-04-11T17:06:17Z</time></trkpt><trkpt lat="45.540001749263205" lon="9.786369583649423"><ele>134.66666666666666</ele><time>2026-04-11T17:06:19Z</time></trkpt><trkpt lat="45.539946649551354" lon="9.786414161983286"><ele>135.0</ele><time>2026-04-11T17:06:21Z</time></trkpt><trkpt lat="45.539896792650296" lon="9.78648991647521"><ele>135.0</ele><time>2026-04-11T17:06:50Z</time></trkpt><trkpt lat="45.53981881970901" lon="9.786580612684673"><ele>135.0</ele><time>2026-04-11T17:07:00Z</time></trkpt><trkpt lat="45.53977082434172" lon="9.786648623162247"><ele>135.0</ele><time>2026-04-11T17:07:01Z</time></trkpt><trkpt lat="45.53970743962912" lon="9.786697070967731"><ele>135.0</ele><time>2026-04-11T17:07:02Z</time></trkpt><trkpt lat="45.53965272454374" lon="9.786766352541587"><ele>135.0</ele><time>2026-04-11T17:07:03Z</time></trkpt><trkpt lat="45.53981804831531" lon="9.787018595327204"><ele>135.5</ele><time>2026-04-11T17:07:04Z</time></trkpt><trkpt lat="45.539838026755106" lon="9.787175991277252"><ele>136.0</ele><time>2026-04-11T17:07:05Z</time></trkpt><trkpt lat="45.53989936688203" lon="9.78765119227609"><ele>135.66666666666669</ele><time>2026-04-11T17:07:06Z</time></trkpt><trkpt lat="45.53994956325305" lon="9.787968207685111"><ele>135.33333333333334</ele><time>2026-04-11T17:07:07Z</time></trkpt><trkpt lat="45.540002996506416" lon="9.788195490142648"><ele>135.0</ele><time>2026-04-11T17:07:08Z</time></trkpt><trkpt lat="45.54007011728167" lon="9.788443638118647"><ele>134.66666666666666</ele><time>2026-04-11T17:07:09Z</time></trkpt><trkpt lat="45.54016720939856" lon="9.788727120785282"><ele>134.33333333333331</ele><time>2026-04-11T17:07:10Z</time></trkpt><trkpt lat="45.54025464647297" lon="9.788989811560246"><ele>134.0</ele><time>2026-04-11T17:07:11Z</time></trkpt><trkpt lat="45.54036889172014" lon="9.789197442643124"><ele>133.33333333333331</ele><time>2026-04-11T17:07:12Z</time></trkpt><trkpt lat="45.54046848967377" lon="9.789397642207245"><ele>132.66666666666666</ele><time>2026-04-11T17:07:13Z</time></trkpt><trkpt lat="45.540568058059236" lon="9.789595697074652"><ele>132.0</ele><time>2026-04-11T17:07:14Z</time></trkpt><trkpt lat="45.54066093992013" lon="9.78978269379614"><ele>132.0</ele><time>2026-04-11T17:07:15Z</time></trkpt><trkpt lat="45.54076668371379" lon="9.78997544822986"><ele>132.0</ele><time>2026-04-11T17:07:16Z</time></trkpt><trkpt lat="45.540865552729805" lon="9.790146644045617"><ele>132.0</ele><time>2026-04-11T17:07:17Z</time></trkpt><trkpt lat="45.54097926804294" lon="9.790325185975846"><ele>132.33333333333334</ele><time>2026-04-11T17:07:18Z</time></trkpt><trkpt lat="45.541089358468014" lon="9.790515028128015"><ele>132.66666666666669</ele><time>2026-04-11T17:07:19Z</time></trkpt><trkpt lat="45.54121164632693" lon="9.790740163343294"><ele>133.0</ele><time>2026-04-11T17:07:20Z</time></trkpt><trkpt lat="45.5413299302807" lon="9.790991227450595"><ele>133.0</ele><time>2026-04-11T17:07:21Z</time></trkpt><trkpt lat="45.5414413163726" lon="9.791232147402805"><ele>133.0</ele><time>2026-04-11T17:07:22Z</time></trkpt><trkpt lat="45.54154282521574" lon="9.79145070042778"><ele>133.0</ele><time>2026-04-11T17:07:23Z</time></trkpt><trkpt lat="45.54165355148708" lon="9.79166180074971"><ele>133.0</ele><time>2026-04-11T17:07:24Z</time></trkpt><trkpt lat="45.54174692191837" lon="9.791845449476611"><ele>133.0</ele><time>2026-04-11T17:07:25Z</time></trkpt><trkpt lat="45.54182548696491" lon="9.792063551750994"><ele>133.0</ele><time>2026-04-11T17:07:26Z</time></trkpt><trkpt lat="45.54190724663911" lon="9.792269951358055"><ele>133.0</ele><time>2026-04-11T17:07:27Z</time></trkpt><trkpt lat="45.54200099786121" lon="9.79248946017882"><ele>133.0</ele><time>2026-04-11T17:07:28Z</time></trkpt><trkpt lat="45.54210724882798" lon="9.792730974020131"><ele>133.0</ele><time>2026-04-11T17:07:29Z</time></trkpt><trkpt lat="45.5422234262359" lon="9.792993123929394"><ele>133.0</ele><time>2026-04-11T17:07:30Z</time></trkpt><trkpt lat="45.5423264248609" lon="9.793302101978082"><ele>133.0</ele><time>2026-04-11T17:07:31Z</time></trkpt><trkpt lat="45.542414004419" lon="9.793612250877281"><ele>133.0</ele><time>2026-04-11T17:07:32Z</time></trkpt><trkpt lat="45.542511769541974" lon="9.793933235991847"><ele>133.0</ele><time>2026-04-11T17:07:33Z</time></trkpt><trkpt lat="45.54261229144525" lon="9.794262860159916"><ele>133.0</ele><time>2026-04-11T17:07:34Z</time></trkpt><trkpt lat="45.542703527868134" lon="9.794597097621772"><ele>133.0</ele><time>2026-04-11T17:07:35Z</time></trkpt><trkpt lat="45.54278427671501" lon="9.794933426580297"><ele>132.5</ele><time>2026-04-11T17:07:36Z</time></trkpt><trkpt lat="45.542862595637644" lon="9.795273895007167"><ele>132.0</ele><time>2026-04-11T17:07:37Z</time></trkpt><trkpt lat="45.54292634237094" lon="9.795616035298865"><ele>133.0</ele><time>2026-04-11T17:07:38Z</time></trkpt><trkpt lat="45.54298674837035" lon="9.795948235413599"><ele>134.0</ele><time>2026-04-11T17:07:39Z</time></trkpt><trkpt lat="45.54302706157725" lon="9.796281297445928"><ele>134.33333333333331</ele><time>2026-04-11T17:07:40Z</time></trkpt><trkpt lat="45.54308608285359" lon="9.796588860795126"><ele>134.66666666666666</ele><time>2026-04-11T17:07:41Z</time></trkpt><trkpt lat="45.5431259113816" lon="9.796885406182009"><ele>135.0</ele><time>2026-04-11T17:07:42Z</time></trkpt><trkpt lat="45.54315785139434" lon="9.79718598954315"><ele>135.0</ele><time>2026-04-11T17:07:43Z</time></trkpt><trkpt lat="45.54320577822587" lon="9.797483433842599"><ele>135.0</ele><time>2026-04-11T17:07:44Z</time></trkpt><trkpt lat="45.54324959319012" lon="9.797764402385663"><ele>135.0</ele><time>2026-04-11T17:07:45Z</time></trkpt><trkpt lat="45.54329122916187" lon="9.798052571239145"><ele>134.66666666666666</ele><time>2026-04-11T17:07:46Z</time></trkpt><trkpt lat="45.54333071177308" lon="9.79834025920087"><ele>134.33333333333331</ele><time>2026-04-11T17:07:47Z</time></trkpt><trkpt lat="45.5433736768581" lon="9.79864525641728"><ele>134.0</ele><time>2026-04-11T17:07:48Z</time></trkpt><trkpt lat="45.543418007083" lon="9.79895076088717"><ele>134.0</ele><time>2026-04-11T17:07:49Z</time></trkpt><trkpt lat="45.54346006942569" lon="9.799262665643782"><ele>134.0</ele><time>2026-04-11T17:07:50Z</time></trkpt><trkpt lat="45.54349842422997" lon="9.799577114715456"><ele>134.0</ele><time>2026-04-11T17:07:51Z</time></trkpt><trkpt lat="45.54354409121351" lon="9.79989700423473"><ele>134.0</ele><time>2026-04-11T17:07:52Z</time></trkpt><trkpt lat="45.54359035354755" lon="9.800208616523783"><ele>134.0</ele><time>2026-04-11T17:07:53Z</time></trkpt><trkpt lat="45.54364612336449" lon="9.800509937047243"><ele>134.0</ele><time>2026-04-11T17:07:54Z</time></trkpt><trkpt lat="45.5436906923971" lon="9.800817086241265"><ele>133.66666666666666</ele><time>2026-04-11T17:07:55Z</time></trkpt><trkpt lat="45.54373321872517" lon="9.801120897143608"><ele>133.33333333333334</ele><time>2026-04-11T17:07:56Z</time></trkpt><trkpt lat="45.54377574777899" lon="9.801426982072753"><ele>133.0</ele><time>2026-04-11T17:07:57Z</time></trkpt><trkpt lat="45.543821025219415" lon="9.801735773460653"><ele>133.33333333333334</ele><time>2026-04-11T17:07:58Z</time></trkpt><trkpt lat="45.5438681168062" lon="9.802043419703459"><ele>133.66666666666666</ele><time>2026-04-11T17:07:59Z</time></trkpt><trkpt lat="45.54390896308334" lon="9.80234662464763"><ele>134.0</ele><time>2026-04-11T17:08:00Z</time></trkpt><trkpt lat="45.5439563908404" lon="9.802654308833306"><ele>134.0</ele><time>2026-04-11T17:08:01Z</time></trkpt><trkpt lat="45.543995976529416" lon="9.802963681482034"><ele>134.0</ele><time>2026-04-11T17:08:02Z</time></trkpt><trkpt lat="45.544021983054826" lon="9.803265175598415"><ele>134.0</ele><time>2026-04-11T17:08:03Z</time></trkpt><trkpt lat="45.54407471656942" lon="9.803551911882174"><ele>134.33333333333331</ele><time>2026-04-11T17:08:04Z</time></trkpt><trkpt lat="45.54410658407291" lon="9.803841510694541"><ele>134.66666666666666</ele><time>2026-04-11T17:08:05Z</time></trkpt><trkpt lat="45.54413937387235" lon="9.80411277847306"><ele>135.0</ele><time>2026-04-11T17:08:06Z</time></trkpt><trkpt lat="45.54417115997385" lon="9.80438213504866"><ele>135.66666666666666</ele><time>2026-04-11T17:08:07Z</time></trkpt><trkpt lat="45.54417906164946" lon="9.80463666011697"><ele>136.33333333333331</ele><time>2026-04-11T17:08:08Z</time></trkpt><trkpt lat="45.544216752878995" lon="9.804886645393758"><ele>137.0</ele><time>2026-04-11T17:08:09Z</time></trkpt><trkpt lat="45.544245134211934" lon="9.805144623838753"><ele>137.0</ele><time>2026-04-11T17:08:10Z</time></trkpt><trkpt lat="45.54427688695072" lon="9.805390168642562"><ele>137.0</ele><time>2026-04-11T17:08:11Z</time></trkpt><trkpt lat="45.5443077582586" lon="9.805655060603067"><ele>137.0</ele><time>2026-04-11T17:08:12Z</time></trkpt><trkpt lat="45.544338752097666" lon="9.805930644352742"><ele>136.33333333333331</ele><time>2026-04-11T17:08:13Z</time></trkpt><trkpt lat="45.5443797547053" lon="9.806193485118799"><ele>135.66666666666666</ele><time>2026-04-11T17:08:14Z</time></trkpt><trkpt lat="45.54443724382269" lon="9.806453965635956"><ele>135.0</ele><time>2026-04-11T17:08:15Z</time></trkpt><trkpt lat="45.544520794902596" lon="9.80671563276035"><ele>135.66666666666666</ele><time>2026-04-11T17:08:16Z</time></trkpt><trkpt lat="45.54460516549851" lon="9.80697396526168"><ele>136.33333333333331</ele><time>2026-04-11T17:08:17Z</time></trkpt><trkpt lat="45.54469120661607" lon="9.807241280058383"><ele>137.0</ele><time>2026-04-11T17:08:18Z</time></trkpt><trkpt lat="45.544770071121945" lon="9.807504565141093"><ele>137.0</ele><time>2026-04-11T17:08:19Z</time></trkpt><trkpt lat="45.544850266936024" lon="9.807769456766684"><ele>137.0</ele><time>2026-04-11T17:08:20Z</time></trkpt><trkpt lat="45.54493327633734" lon="9.808023727447557"><ele>137.0</ele><time>2026-04-11T17:08:21Z</time></trkpt><trkpt lat="45.54500863242127" lon="9.808292195400464"><ele>136.66666666666666</ele><time>2026-04-11T17:08:22Z</time></trkpt><trkpt lat="45.54509092937092" lon="9.808569878549056"><ele>136.33333333333334</ele><time>2026-04-11T17:08:23Z</time></trkpt><trkpt lat="45.54517434677913" lon="9.808836443957011"><ele>136.0</ele><time>2026-04-11T17:08:24Z</time></trkpt><trkpt lat="45.54525977982487" lon="9.809113845068383"><ele>136.0</ele><time>2026-04-11T17:08:25Z</time></trkpt><trkpt lat="45.54534471678333" lon="9.809391906071756"><ele>136.0</ele><time>2026-04-11T17:08:26Z</time></trkpt><trkpt lat="45.545426558413375" lon="9.809673926051033"><ele>136.0</ele><time>2026-04-11T17:08:27Z</time></trkpt><trkpt lat="45.54550568466857" lon="9.80995231444129"><ele>136.0</ele><time>2026-04-11T17:08:28Z</time></trkpt><trkpt lat="45.5455881388655" lon="9.810229472479852"><ele>136.0</ele><time>2026-04-11T17:08:29Z</time></trkpt><trkpt lat="45.54567362113379" lon="9.81050273150479"><ele>136.0</ele><time>2026-04-11T17:08:30Z</time></trkpt><trkpt lat="45.54575431709396" lon="9.810777580013907"><ele>136.0</ele><time>2026-04-11T17:08:31Z</time></trkpt><trkpt lat="45.54583932169018" lon="9.811046451720175"><ele>136.0</ele><time>2026-04-11T17:08:32Z</time></trkpt><trkpt lat="45.545918997303446" lon="9.811311407893534"><ele>136.0</ele><time>2026-04-11T17:08:33Z</time></trkpt><trkpt lat="45.54599593658045" lon="9.811576568706132"><ele>136.0</ele><time>2026-04-11T17:08:34Z</time></trkpt><trkpt lat="45.546071446797" lon="9.811835988697574"><ele>136.0</ele><time>2026-04-11T17:08:35Z</time></trkpt><trkpt lat="45.546144874922504" lon="9.812087115935528"><ele>136.0</ele><time>2026-04-11T17:08:36Z</time></trkpt><trkpt lat="45.54622104116816" lon="9.812335003560513"><ele>136.0</ele><time>2026-04-11T17:08:37Z</time></trkpt><trkpt lat="45.54630109571861" lon="9.812585685828745"><ele>136.0</ele><time>2026-04-11T17:08:38Z</time></trkpt><trkpt lat="45.546377283825926" lon="9.8128428752541"><ele>136.0</ele><time>2026-04-11T17:08:39Z</time></trkpt><trkpt lat="45.54645063629912" lon="9.813096076296937"><ele>136.0</ele><time>2026-04-11T17:08:40Z</time></trkpt><trkpt lat="45.546532370130976" lon="9.813362244256862"><ele>136.0</ele><time>2026-04-11T17:08:41Z</time></trkpt><trkpt lat="45.546615003742104" lon="9.813643013854696"><ele>136.0</ele><time>2026-04-11T17:08:42Z</time></trkpt><trkpt lat="45.54670684585829" lon="9.813925105529135"><ele>136.0</ele><time>2026-04-11T17:08:43Z</time></trkpt><trkpt lat="45.54679382071793" lon="9.814206980767812"><ele>136.0</ele><time>2026-04-11T17:08:44Z</time></trkpt><trkpt lat="45.546884104304524" lon="9.814490901460976"><ele>136.0</ele><time>2026-04-11T17:08:45Z</time></trkpt><trkpt lat="45.54696170917465" lon="9.814779418172993"><ele>137.0</ele><time>2026-04-11T17:08:46Z</time></trkpt><trkpt lat="45.547050796350405" lon="9.815056187731816"><ele>138.0</ele><time>2026-04-11T17:08:47Z</time></trkpt><trkpt lat="45.547134126608384" lon="9.815333566592068"><ele>139.0</ele><time>2026-04-11T17:08:48Z</time></trkpt><trkpt lat="45.547205949252124" lon="9.815607506051641"><ele>139.0</ele><time>2026-04-11T17:08:49Z</time></trkpt><trkpt lat="45.54727879236881" lon="9.81588410495753"><ele>139.0</ele><time>2026-04-11T17:08:50Z</time></trkpt><trkpt lat="45.547345600933355" lon="9.816161175185986"><ele>139.0</ele><time>2026-04-11T17:08:51Z</time></trkpt><trkpt lat="45.54740144388504" lon="9.816438211001019"><ele>138.33333333333334</ele><time>2026-04-11T17:08:52Z</time></trkpt><trkpt lat="45.54744865964468" lon="9.816713703422517"><ele>137.66666666666666</ele><time>2026-04-11T17:08:53Z</time></trkpt><trkpt lat="45.547494210470454" lon="9.816989984981094"><ele>137.0</ele><time>2026-04-11T17:08:54Z</time></trkpt><trkpt lat="45.547528754359675" lon="9.817277395580158"><ele>137.0</ele><time>2026-04-11T17:08:55Z</time></trkpt><trkpt lat="45.547561882778034" lon="9.817578166767332"><ele>137.0</ele><time>2026-04-11T17:08:56Z</time></trkpt><trkpt lat="45.547587597191225" lon="9.817880586042047"><ele>137.0</ele><time>2026-04-11T17:08:57Z</time></trkpt><trkpt lat="45.54761414469767" lon="9.818187389136373"><ele>136.66666666666666</ele><time>2026-04-11T17:08:58Z</time></trkpt><trkpt lat="45.54764084691675" lon="9.818489470343476"><ele>136.33333333333334</ele><time>2026-04-11T17:08:59Z</time></trkpt><trkpt lat="45.547658996510435" lon="9.818776944405863"><ele>136.0</ele><time>2026-04-11T17:09:00Z</time></trkpt><trkpt lat="45.54767291486906" lon="9.819057689201024"><ele>136.66666666666669</ele><time>2026-04-11T17:09:01Z</time></trkpt><trkpt lat="45.54769134359341" lon="9.819325579730926"><ele>137.33333333333334</ele><time>2026-04-11T17:09:02Z</time></trkpt><trkpt lat="45.547706157027534" lon="9.819583245443843"><ele>138.0</ele><time>2026-04-11T17:09:03Z</time></trkpt><trkpt lat="45.54771956496418" lon="9.819818844856096"><ele>138.0</ele><time>2026-04-11T17:09:04Z</time></trkpt><trkpt lat="45.54773759434455" lon="9.820054452191656"><ele>138.0</ele><time>2026-04-11T17:09:05Z</time></trkpt><trkpt lat="45.547762762224494" lon="9.820285759952379"><ele>138.0</ele><time>2026-04-11T17:09:06Z</time></trkpt><trkpt lat="45.5477752755529" lon="9.820500834699756"><ele>138.0</ele><time>2026-04-11T17:09:07Z</time></trkpt><trkpt lat="45.54779036308304" lon="9.820701377391197"><ele>138.0</ele><time>2026-04-11T17:09:08Z</time></trkpt><trkpt lat="45.54780821601935" lon="9.820914127122776"><ele>138.0</ele><time>2026-04-11T17:09:09Z</time></trkpt><trkpt lat="45.54782416601587" lon="9.821118392830524"><ele>138.0</ele><time>2026-04-11T17:09:10Z</time></trkpt><trkpt lat="45.54783827292275" lon="9.821327890817265"><ele>138.25</ele><time>2026-04-11T17:09:11Z</time></trkpt><trkpt lat="45.54784950068561" lon="9.821530159176689"><ele>138.5</ele><time>2026-04-11T17:09:12Z</time></trkpt><trkpt lat="45.5478647925702" lon="9.821720143145525"><ele>138.75</ele><time>2026-04-11T17:09:13Z</time></trkpt><trkpt lat="45.54788222645932" lon="9.821923937032922"><ele>139.0</ele><time>2026-04-11T17:09:14Z</time></trkpt><trkpt lat="45.54788621018811" lon="9.822126615373062"><ele>139.0</ele><time>2026-04-11T17:09:15Z</time></trkpt><trkpt lat="45.54790478565898" lon="9.82230819811359"><ele>139.0</ele><time>2026-04-11T17:09:16Z</time></trkpt><trkpt lat="45.54792253249086" lon="9.822475442052818"><ele>139.0</ele><time>2026-04-11T17:09:17Z</time></trkpt><trkpt lat="45.547914875506805" lon="9.82263459960756"><ele>139.0</ele><time>2026-04-11T17:09:18Z</time></trkpt><trkpt lat="45.54789191598062" lon="9.822790608249381"><ele>138.5</ele><time>2026-04-11T17:09:19Z</time></trkpt><trkpt lat="45.54783608645879" lon="9.822930403179283"><ele>138.0</ele><time>2026-04-11T17:09:20Z</time></trkpt><trkpt lat="45.54776796089745" lon="9.82306140669933"><ele>137.5</ele><time>2026-04-11T17:09:21Z</time></trkpt><trkpt lat="45.54767621558031" lon="9.823164748444542"><ele>137.0</ele><time>2026-04-11T17:09:22Z</time></trkpt><trkpt lat="45.54756717990242" lon="9.823243158028177"><ele>137.0</ele><time>2026-04-11T17:09:23Z</time></trkpt><trkpt lat="45.54744076796994" lon="9.823303715188505"><ele>137.0</ele><time>2026-04-11T17:09:24Z</time></trkpt><trkpt lat="45.54728599179526" lon="9.823349326584143"><ele>137.0</ele><time>2026-04-11T17:09:25Z</time></trkpt><trkpt lat="45.547118966548794" lon="9.823397023381231"><ele>137.33333333333331</ele><time>2026-04-11T17:09:26Z</time></trkpt><trkpt lat="45.54693598139712" lon="9.823450248651818"><ele>137.66666666666666</ele><time>2026-04-11T17:09:27Z</time></trkpt><trkpt lat="45.54673509476718" lon="9.823515732774103"><ele>138.0</ele><time>2026-04-11T17:09:28Z</time></trkpt><trkpt lat="45.54651967684627" lon="9.823594122552882"><ele>138.0</ele><time>2026-04-11T17:09:29Z</time></trkpt><trkpt lat="45.54627215959567" lon="9.82368124365347"><ele>138.0</ele><time>2026-04-11T17:09:30Z</time></trkpt><trkpt lat="45.54603516185935" lon="9.823762320288163"><ele>139.0</ele><time>2026-04-11T17:09:31Z</time></trkpt><trkpt lat="45.54577846500117" lon="9.823894186125742"><ele>140.0</ele><time>2026-04-11T17:09:32Z</time></trkpt><trkpt lat="45.545506119761036" lon="9.82403032843681"><ele>139.0</ele><time>2026-04-11T17:09:33Z</time></trkpt><trkpt lat="45.54525068024416" lon="9.824144627310181"><ele>138.0</ele><time>2026-04-11T17:09:34Z</time></trkpt><trkpt lat="45.54500600526185" lon="9.824271348992552"><ele>138.0</ele><time>2026-04-11T17:09:35Z</time></trkpt><trkpt lat="45.54476294066642" lon="9.824401542194634"><ele>138.0</ele><time>2026-04-11T17:09:36Z</time></trkpt><trkpt lat="45.54451353953207" lon="9.824535520028705"><ele>138.0</ele><time>2026-04-11T17:09:37Z</time></trkpt><trkpt lat="45.54426588581309" lon="9.824675091885046"><ele>138.0</ele><time>2026-04-11T17:09:38Z</time></trkpt><trkpt lat="45.544010891232716" lon="9.824829985708362"><ele>138.0</ele><time>2026-04-11T17:09:39Z</time></trkpt><trkpt lat="45.54376387368548" lon="9.824996816313671"><ele>138.0</ele><time>2026-04-11T17:09:40Z</time></trkpt><trkpt lat="45.54351570862912" lon="9.82515600530415"><ele>137.5</ele><time>2026-04-11T17:09:41Z</time></trkpt><trkpt lat="45.54328667721364" lon="9.825314535920299"><ele>137.0</ele><time>2026-04-11T17:09:42Z</time></trkpt><trkpt lat="45.543068676873276" lon="9.825468019967103"><ele>137.0</ele><time>2026-04-11T17:09:43Z</time></trkpt><trkpt lat="45.54286686720626" lon="9.825618346239098"><ele>137.0</ele><time>2026-04-11T17:09:44Z</time></trkpt><trkpt lat="45.54268781928801" lon="9.825739997381241"><ele>137.0</ele><time>2026-04-11T17:09:45Z</time></trkpt><trkpt lat="45.542507290176886" lon="9.825891264094889"><ele>137.0</ele><time>2026-04-11T17:09:46Z</time></trkpt><trkpt lat="45.542331131601195" lon="9.826029234926423"><ele>137.0</ele><time>2026-04-11T17:09:47Z</time></trkpt><trkpt lat="45.54216971577735" lon="9.826162117051368"><ele>137.0</ele><time>2026-04-11T17:09:48Z</time></trkpt><trkpt lat="45.54202883054183" lon="9.826285030768036"><ele>136.66666666666666</ele><time>2026-04-11T17:09:49Z</time></trkpt><trkpt lat="45.54186766089779" lon="9.82643702462526"><ele>136.33333333333334</ele><time>2026-04-11T17:09:50Z</time></trkpt><trkpt lat="45.541722317126144" lon="9.826559263295485"><ele>136.0</ele><time>2026-04-11T17:09:51Z</time></trkpt><trkpt lat="45.54157322871063" lon="9.826702583383604"><ele>136.0</ele><time>2026-04-11T17:09:52Z</time></trkpt><trkpt lat="45.54143094903698" lon="9.826845572159392"><ele>136.0</ele><time>2026-04-11T17:09:53Z</time></trkpt><trkpt lat="45.5412892498338" lon="9.826984590841354"><ele>136.0</ele><time>2026-04-11T17:09:54Z</time></trkpt><trkpt lat="45.54113601868223" lon="9.827133534350777"><ele>136.33333333333334</ele><time>2026-04-11T17:09:55Z</time></trkpt><trkpt lat="45.540990951019346" lon="9.827279929029356"><ele>136.66666666666666</ele><time>2026-04-11T17:09:56Z</time></trkpt><trkpt lat="45.54084059338198" lon="9.827409811156317"><ele>137.0</ele><time>2026-04-11T17:09:57Z</time></trkpt><trkpt lat="45.54072362298899" lon="9.82755203002838"><ele>137.0</ele><time>2026-04-11T17:09:58Z</time></trkpt><trkpt lat="45.54059083231645" lon="9.827660513216381"><ele>137.0</ele><time>2026-04-11T17:09:59Z</time></trkpt><trkpt lat="45.54046692106779" lon="9.827771411303134"><ele>137.0</ele><time>2026-04-11T17:10:00Z</time></trkpt><trkpt lat="45.54036547843588" lon="9.827864258902475"><ele>137.0</ele><time>2026-04-11T17:10:01Z</time></trkpt><trkpt lat="45.54027367128178" lon="9.82794723742838"><ele>136.79999999999998</ele><time>2026-04-11T17:10:02Z</time></trkpt><trkpt lat="45.5401777154742" lon="9.828029798906135"><ele>136.6</ele><time>2026-04-11T17:10:03Z</time></trkpt><trkpt lat="45.54008392641671" lon="9.828115907835876"><ele>136.39999999999998</ele><time>2026-04-11T17:10:04Z</time></trkpt><trkpt lat="45.54000776768633" lon="9.828188664330181"><ele>136.2</ele><time>2026-04-11T17:10:05Z</time></trkpt><trkpt lat="45.53993820734073" lon="9.828249634722203"><ele>136.0</ele><time>2026-04-11T17:10:06Z</time></trkpt><trkpt lat="45.539850436124695" lon="9.828314629188252"><ele>136.0</ele><time>2026-04-11T17:10:07Z</time></trkpt><trkpt lat="45.53976469647336" lon="9.828366960336151"><ele>136.0</ele><time>2026-04-11T17:10:08Z</time></trkpt><trkpt lat="45.53967539619951" lon="9.828389787168277"><ele>136.0</ele><time>2026-04-11T17:10:09Z</time></trkpt><trkpt lat="45.539596030810664" lon="9.828361114937012"><ele>136.0</ele><time>2026-04-11T17:10:10Z</time></trkpt><trkpt lat="45.53951620356638" lon="9.828319993937525"><ele>136.0</ele><time>2026-04-11T17:10:11Z</time></trkpt><trkpt lat="45.5394210394002" lon="9.828350836652126"><ele>136.0</ele><time>2026-04-11T17:10:12Z</time></trkpt><trkpt lat="45.53935702540512" lon="9.82841786747766"><ele>136.2</ele><time>2026-04-11T17:10:13Z</time></trkpt><trkpt lat="45.539301421104604" lon="9.828484987460264"><ele>136.39999999999998</ele><time>2026-04-11T17:10:14Z</time></trkpt><trkpt lat="45.53926086862588" lon="9.82856803561003"><ele>136.6</ele><time>2026-04-11T17:10:15Z</time></trkpt><trkpt lat="45.539209548266335" lon="9.828785575327153"><ele>136.79999999999998</ele><time>2026-04-11T17:10:17Z</time></trkpt><trkpt lat="45.539181675532426" lon="9.828885236791223"><ele>137.0</ele><time>2026-04-11T17:10:18Z</time></trkpt><trkpt lat="45.539123507341635" lon="9.828994389247686"><ele>137.0</ele><time>2026-04-11T17:10:19Z</time></trkpt><trkpt lat="45.539008364486" lon="9.829044478355943"><ele>137.0</ele><time>2026-04-11T17:10:20Z</time></trkpt><trkpt lat="45.53887779438574" lon="9.82915005472075"><ele>137.0</ele><time>2026-04-11T17:10:21Z</time></trkpt><trkpt lat="45.5387490562753" lon="9.829267037835452"><ele>137.0</ele><time>2026-04-11T17:10:22Z</time></trkpt><trkpt lat="45.53859758235842" lon="9.829382632898794"><ele>136.66666666666666</ele><time>2026-04-11T17:10:23Z</time></trkpt><trkpt lat="45.53844336875383" lon="9.82949234366884"><ele>136.33333333333334</ele><time>2026-04-11T17:10:24Z</time></trkpt><trkpt lat="45.53829232478903" lon="9.829624821188904"><ele>136.0</ele><time>2026-04-11T17:10:25Z</time></trkpt><trkpt lat="45.53813358046057" lon="9.829744115929465"><ele>136.0</ele><time>2026-04-11T17:10:26Z</time></trkpt><trkpt lat="45.537958105226366" lon="9.829877521790625"><ele>136.0</ele><time>2026-04-11T17:10:27Z</time></trkpt><trkpt lat="45.53780494743735" lon="9.829990478792523"><ele>136.0</ele><time>2026-04-11T17:10:28Z</time></trkpt><trkpt lat="45.53764575244881" lon="9.830106763527994"><ele>136.0</ele><time>2026-04-11T17:10:29Z</time></trkpt><trkpt lat="45.53749817084152" lon="9.83020403329735"><ele>136.0</ele><time>2026-04-11T17:10:30Z</time></trkpt><trkpt lat="45.53735118113264" lon="9.83033322652816"><ele>136.0</ele><time>2026-04-11T17:10:31Z</time></trkpt><trkpt lat="45.53719898969682" lon="9.830446134582868"><ele>136.0</ele><time>2026-04-11T17:10:32Z</time></trkpt><trkpt lat="45.53702919029967" lon="9.830567968597865"><ele>136.0</ele><time>2026-04-11T17:10:33Z</time></trkpt><trkpt lat="45.53684537270247" lon="9.83068465431995"><ele>136.0</ele><time>2026-04-11T17:10:34Z</time></trkpt><trkpt lat="45.53664718979827" lon="9.830818462094552"><ele>136.0</ele><time>2026-04-11T17:10:35Z</time></trkpt><trkpt lat="45.53643716923382" lon="9.830960357342764"><ele>136.0</ele><time>2026-04-11T17:10:36Z</time></trkpt><trkpt lat="45.53619746548416" lon="9.831115935505641"><ele>135.5</ele><time>2026-04-11T17:10:37Z</time></trkpt><trkpt lat="45.53596254228001" lon="9.83125493581136"><ele>135.0</ele><time>2026-04-11T17:10:38Z</time></trkpt><trkpt lat="45.53572035835924" lon="9.831415424609546"><ele>135.0</ele><time>2026-04-11T17:10:39Z</time></trkpt><trkpt lat="45.535453093616546" lon="9.831582184617707"><ele>135.0</ele><time>2026-04-11T17:10:40Z</time></trkpt><trkpt lat="45.535196947548265" lon="9.831726590838043"><ele>135.0</ele><time>2026-04-11T17:10:41Z</time></trkpt><trkpt lat="45.53494207589331" lon="9.831870150204878"><ele>135.0</ele><time>2026-04-11T17:10:42Z</time></trkpt><trkpt lat="45.534690718537924" lon="9.831991130118865"><ele>135.5</ele><time>2026-04-11T17:10:43Z</time></trkpt><trkpt lat="45.53445518513198" lon="9.832100110903468"><ele>136.0</ele><time>2026-04-11T17:10:44Z</time></trkpt><trkpt lat="45.53423176928901" lon="9.83216768599529"><ele>136.0</ele><time>2026-04-11T17:10:45Z</time></trkpt><trkpt lat="45.534016172820145" lon="9.832224119547204"><ele>136.0</ele><time>2026-04-11T17:10:46Z</time></trkpt><trkpt lat="45.53378475912146" lon="9.832285968142816"><ele>135.66666666666669</ele><time>2026-04-11T17:10:47Z</time></trkpt><trkpt lat="45.533601489569776" lon="9.832303574494148"><ele>135.33333333333334</ele><time>2026-04-11T17:10:48Z</time></trkpt><trkpt lat="45.53340801396583" lon="9.83235410588203"><ele>135.0</ele><time>2026-04-11T17:10:49Z</time></trkpt><trkpt lat="45.533217497642895" lon="9.832389110629801"><ele>135.0</ele><time>2026-04-11T17:10:50Z</time></trkpt><trkpt lat="45.53301884239044" lon="9.832444991320545"><ele>135.0</ele><time>2026-04-11T17:10:51Z</time></trkpt><trkpt lat="45.53282060189363" lon="9.832499839056132"><ele>135.0</ele><time>2026-04-11T17:10:52Z</time></trkpt><trkpt lat="45.5326179449379" lon="9.832552663598015"><ele>134.66666666666666</ele><time>2026-04-11T17:10:53Z</time></trkpt><trkpt lat="45.53240577001317" lon="9.83260147208597"><ele>134.33333333333331</ele><time>2026-04-11T17:10:54Z</time></trkpt><trkpt lat="45.53219136257529" lon="9.832643315687793"><ele>134.0</ele><time>2026-04-11T17:10:55Z</time></trkpt><trkpt lat="45.53196660278846" lon="9.832702034263766"><ele>134.0</ele><time>2026-04-11T17:10:56Z</time></trkpt><trkpt lat="45.531731109119896" lon="9.832766169439136"><ele>134.0</ele><time>2026-04-11T17:10:57Z</time></trkpt><trkpt lat="45.531491430007655" lon="9.83282167998766"><ele>134.0</ele><time>2026-04-11T17:10:58Z</time></trkpt><trkpt lat="45.53123369522114" lon="9.83288259177251"><ele>134.0</ele><time>2026-04-11T17:10:59Z</time></trkpt><trkpt lat="45.53096333535968" lon="9.83292574949139"><ele>133.5</ele><time>2026-04-11T17:11:00Z</time></trkpt><trkpt lat="45.53067650889861" lon="9.832991263611529"><ele>133.0</ele><time>2026-04-11T17:11:01Z</time></trkpt><trkpt lat="45.53035946150061" lon="9.833058011719281"><ele>131.5</ele><time>2026-04-11T17:11:02Z</time></trkpt><trkpt lat="45.530068416745955" lon="9.833106819767002"><ele>130.0</ele><time>2026-04-11T17:11:03Z</time></trkpt><trkpt lat="45.52978933365268" lon="9.833149104660931"><ele>130.0</ele><time>2026-04-11T17:11:04Z</time></trkpt><trkpt lat="45.5295155490803" lon="9.833189000030966"><ele>130.0</ele><time>2026-04-11T17:11:05Z</time></trkpt><trkpt lat="45.52926883036092" lon="9.833224952012557"><ele>130.0</ele><time>2026-04-11T17:11:06Z</time></trkpt><trkpt lat="45.529017976055535" lon="9.833261503492869"><ele>130.0</ele><time>2026-04-11T17:11:07Z</time></trkpt><trkpt lat="45.52878018394353" lon="9.833298157001801"><ele>130.33333333333334</ele><time>2026-04-11T17:11:08Z</time></trkpt><trkpt lat="45.528550781819476" lon="9.833334634692742"><ele>130.66666666666666</ele><time>2026-04-11T17:11:09Z</time></trkpt><trkpt lat="45.528350939891276" lon="9.833408994566165"><ele>131.0</ele><time>2026-04-11T17:11:10Z</time></trkpt><trkpt lat="45.5281580869091" lon="9.833445859193883"><ele>131.0</ele><time>2026-04-11T17:11:11Z</time></trkpt><trkpt lat="45.52797945621644" lon="9.833465413399749"><ele>131.0</ele><time>2026-04-11T17:11:12Z</time></trkpt><trkpt lat="45.52779744665549" lon="9.833485714012022"><ele>131.0</ele><time>2026-04-11T17:11:13Z</time></trkpt><trkpt lat="45.52762250233465" lon="9.833504378378889"><ele>130.66666666666666</ele><time>2026-04-11T17:11:14Z</time></trkpt><trkpt lat="45.52746075604475" lon="9.833534279209953"><ele>130.33333333333334</ele><time>2026-04-11T17:11:15Z</time></trkpt><trkpt lat="45.52729686944175" lon="9.833557269319094"><ele>130.0</ele><time>2026-04-11T17:11:16Z</time></trkpt><trkpt lat="45.527147106045945" lon="9.833566047195802"><ele>129.66666666666669</ele><time>2026-04-11T17:11:17Z</time></trkpt><trkpt lat="45.5269810173228" lon="9.833598149880348"><ele>129.33333333333334</ele><time>2026-04-11T17:11:18Z</time></trkpt><trkpt lat="45.52682611680127" lon="9.833620825401914"><ele>129.0</ele><time>2026-04-11T17:11:19Z</time></trkpt><trkpt lat="45.52667135635789" lon="9.833630861599882"><ele>129.0</ele><time>2026-04-11T17:11:20Z</time></trkpt><trkpt lat="45.526531929366094" lon="9.833643853626604"><ele>129.0</ele><time>2026-04-11T17:11:21Z</time></trkpt><trkpt lat="45.526419002606005" lon="9.83367732374687"><ele>129.0</ele><time>2026-04-11T17:11:22Z</time></trkpt><trkpt lat="45.52631498541178" lon="9.83367010152609"><ele>129.0</ele><time>2026-04-11T17:11:23Z</time></trkpt><trkpt lat="45.52620806958161" lon="9.83363025581784"><ele>129.0</ele><time>2026-04-11T17:11:24Z</time></trkpt><trkpt lat="45.52611420310958" lon="9.833563656937464"><ele>129.0</ele><time>2026-04-11T17:11:25Z</time></trkpt><trkpt lat="45.52603638557739" lon="9.833471493795757"><ele>129.0</ele><time>2026-04-11T17:11:26Z</time></trkpt><trkpt lat="45.525974466466245" lon="9.833411918325094"><ele>129.0</ele><time>2026-04-11T17:11:27Z</time></trkpt><trkpt lat="45.52589617065251" lon="9.833442171532004"><ele>129.0</ele><time>2026-04-11T17:11:28Z</time></trkpt><trkpt lat="45.52583361597636" lon="9.833481164527152"><ele>129.0</ele><time>2026-04-11T17:11:29Z</time></trkpt><trkpt lat="45.5257819563959" lon="9.833617237486013"><ele>129.0</ele><time>2026-04-11T17:11:30Z</time></trkpt><trkpt lat="45.52576153045364" lon="9.833752888145845"><ele>129.0</ele><time>2026-04-11T17:11:31Z</time></trkpt><trkpt lat="45.52578257413487" lon="9.833880917586137"><ele>129.0</ele><time>2026-04-11T17:11:32Z</time></trkpt><trkpt lat="45.52585728973567" lon="9.83401547075381"><ele>129.0</ele><time>2026-04-11T17:11:33Z</time></trkpt><trkpt lat="45.525965656237126" lon="9.834173246322829"><ele>128.66666666666666</ele><time>2026-04-11T17:11:34Z</time></trkpt><trkpt lat="45.5260155448713" lon="9.834360797219645"><ele>128.33333333333331</ele><time>2026-04-11T17:11:35Z</time></trkpt><trkpt lat="45.526024903288764" lon="9.834572608780508"><ele>128.0</ele><time>2026-04-11T17:11:36Z</time></trkpt><trkpt lat="45.52602501215162" lon="9.834827726448463"><ele>128.0</ele><time>2026-04-11T17:11:37Z</time></trkpt><trkpt lat="45.52603730784158" lon="9.83507831445045"><ele>128.0</ele><time>2026-04-11T17:11:38Z</time></trkpt><trkpt lat="45.52605607032045" lon="9.835349838854505"><ele>128.0</ele><time>2026-04-11T17:11:39Z</time></trkpt><trkpt lat="45.52606801997235" lon="9.835645321550595"><ele>128.66666666666666</ele><time>2026-04-11T17:11:40Z</time></trkpt><trkpt lat="45.52606600601566" lon="9.835940008165696"><ele>129.33333333333334</ele><time>2026-04-11T17:11:41Z</time></trkpt><trkpt lat="45.526084854352284" lon="9.836224590654664"><ele>130.0</ele><time>2026-04-11T17:11:42Z</time></trkpt><trkpt lat="45.52609693029263" lon="9.836477166030576"><ele>130.33333333333334</ele><time>2026-04-11T17:11:43Z</time></trkpt><trkpt lat="45.52610483994416" lon="9.836717659254438"><ele>130.66666666666666</ele><time>2026-04-11T17:11:44Z</time></trkpt><trkpt lat="45.52611165544294" lon="9.836937427853115"><ele>131.0</ele><time>2026-04-11T17:11:45Z</time></trkpt><trkpt lat="45.52609803846503" lon="9.837132426195618"><ele>131.0</ele><time>2026-04-11T17:11:46Z</time></trkpt><trkpt lat="45.52606874500592" lon="9.837306894078763"><ele>131.0</ele><time>2026-04-11T17:11:47Z</time></trkpt><trkpt lat="45.526009642472644" lon="9.837467006603381"><ele>131.0</ele><time>2026-04-11T17:11:48Z</time></trkpt><trkpt lat="45.5259572528123" lon="9.837658730856935"><ele>131.0</ele><time>2026-04-11T17:11:49Z</time></trkpt><trkpt lat="45.52596296606311" lon="9.83788009931162"><ele>131.0</ele><time>2026-04-11T17:11:50Z</time></trkpt><trkpt lat="45.52600422431679" lon="9.838067982537872"><ele>131.0</ele><time>2026-04-11T17:11:51Z</time></trkpt><trkpt lat="45.52604963437813" lon="9.838293845803472"><ele>131.0</ele><time>2026-04-11T17:11:52Z</time></trkpt><trkpt lat="45.5260553563129" lon="9.838544465093346"><ele>131.0</ele><time>2026-04-11T17:11:53Z</time></trkpt><trkpt lat="45.526043118358025" lon="9.838808002799235"><ele>131.0</ele><time>2026-04-11T17:11:54Z</time></trkpt><trkpt lat="45.52603063494028" lon="9.839078268080268"><ele>131.0</ele><time>2026-04-11T17:11:55Z</time></trkpt><trkpt lat="45.52602463582204" lon="9.839364669355346"><ele>130.0</ele><time>2026-04-11T17:11:56Z</time></trkpt><trkpt lat="45.526033870914034" lon="9.839688510287283"><ele>129.0</ele><time>2026-04-11T17:11:57Z</time></trkpt><trkpt lat="45.52604049821755" lon="9.840020773206419"><ele>128.0</ele><time>2026-04-11T17:11:58Z</time></trkpt><trkpt lat="45.5260711568567" lon="9.84036568777063"><ele>127.0</ele><time>2026-04-11T17:11:59Z</time></trkpt><trkpt lat="45.52609919952914" lon="9.840726637071047"><ele>126.5</ele><time>2026-04-11T17:12:00Z</time></trkpt><trkpt lat="45.52613027771416" lon="9.841094644188777"><ele>126.0</ele><time>2026-04-11T17:12:01Z</time></trkpt><trkpt lat="45.52615899949158" lon="9.84146403340849"><ele>126.0</ele><time>2026-04-11T17:12:02Z</time></trkpt><trkpt lat="45.526179804763665" lon="9.841805224836843"><ele>126.0</ele><time>2026-04-11T17:12:03Z</time></trkpt><trkpt lat="45.52620374440559" lon="9.842135583924117"><ele>126.0</ele><time>2026-04-11T17:12:04Z</time></trkpt><trkpt lat="45.52622557008891" lon="9.84244945105462"><ele>126.0</ele><time>2026-04-11T17:12:05Z</time></trkpt><trkpt lat="45.52626186977478" lon="9.84276477631299"><ele>126.0</ele><time>2026-04-11T17:12:06Z</time></trkpt><trkpt lat="45.52632329926156" lon="9.84308723151628"><ele>126.33333333333334</ele><time>2026-04-11T17:12:07Z</time></trkpt><trkpt lat="45.526378134175715" lon="9.843375242350078"><ele>126.66666666666667</ele><time>2026-04-11T17:12:08Z</time></trkpt><trkpt lat="45.526436779403426" lon="9.84362137447862"><ele>127.0</ele><time>2026-04-11T17:12:09Z</time></trkpt><trkpt lat="45.52649585336631" lon="9.843846593407985"><ele>127.0</ele><time>2026-04-11T17:12:10Z</time></trkpt><trkpt lat="45.52656005060834" lon="9.84406138442665"><ele>127.0</ele><time>2026-04-11T17:12:11Z</time></trkpt><trkpt lat="45.52663336105203" lon="9.84425827689761"><ele>127.0</ele><time>2026-04-11T17:12:12Z</time></trkpt><trkpt lat="45.52671626804251" lon="9.844454088585168"><ele>127.0</ele><time>2026-04-11T17:12:13Z</time></trkpt><trkpt lat="45.526785987041436" lon="9.84461550154061"><ele>127.0</ele><time>2026-04-11T17:12:14Z</time></trkpt><trkpt lat="45.52685012991167" lon="9.844757936682122"><ele>127.0</ele><time>2026-04-11T17:12:15Z</time></trkpt><trkpt lat="45.52690417318151" lon="9.84490291908393"><ele>127.0</ele><time>2026-04-11T17:12:16Z</time></trkpt><trkpt lat="45.52695525345644" lon="9.845068533595882"><ele>127.0</ele><time>2026-04-11T17:12:17Z</time></trkpt><trkpt lat="45.527018790630315" lon="9.845200863257977"><ele>127.0</ele><time>2026-04-11T17:12:18Z</time></trkpt><trkpt lat="45.526963311965176" lon="9.845390829523444"><ele>127.0</ele><time>2026-04-11T17:12:19Z</time></trkpt><trkpt lat="45.52696319132205" lon="9.845540962576145"><ele>127.0</ele><time>2026-04-11T17:12:20Z</time></trkpt><trkpt lat="45.52697842069714" lon="9.845682836219952"><ele>127.0</ele><time>2026-04-11T17:12:21Z</time></trkpt><trkpt lat="45.526975078050995" lon="9.845833345995898"><ele>127.0</ele><time>2026-04-11T17:12:22Z</time></trkpt><trkpt lat="45.526836659644566" lon="9.84595799977084"><ele>127.0</ele><time>2026-04-11T17:12:23Z</time></trkpt><trkpt lat="45.52671144851285" lon="9.84602240779859"><ele>127.0</ele><time>2026-04-11T17:12:24Z</time></trkpt><trkpt lat="45.52657958924473" lon="9.846044651978547"><ele>127.25</ele><time>2026-04-11T17:12:25Z</time></trkpt><trkpt lat="45.526447361376135" lon="9.846049733894175"><ele>127.5</ele><time>2026-04-11T17:12:26Z</time></trkpt><trkpt lat="45.52631064157795" lon="9.846041460539196"><ele>127.75</ele><time>2026-04-11T17:12:27Z</time></trkpt><trkpt lat="45.52614815801781" lon="9.846007863280905"><ele>128.0</ele><time>2026-04-11T17:12:28Z</time></trkpt><trkpt lat="45.52600706292448" lon="9.845853261118782"><ele>128.0</ele><time>2026-04-11T17:12:29Z</time></trkpt><trkpt lat="45.5258443643149" lon="9.845783646266515"><ele>128.0</ele><time>2026-04-11T17:12:30Z</time></trkpt><trkpt lat="45.52566429418818" lon="9.845703703413133"><ele>128.0</ele><time>2026-04-11T17:12:31Z</time></trkpt><trkpt lat="45.52550992486943" lon="9.8456351705679"><ele>127.33333333333333</ele><time>2026-04-11T17:12:32Z</time></trkpt><trkpt lat="45.525350373927274" lon="9.845564337235201"><ele>126.66666666666666</ele><time>2026-04-11T17:12:33Z</time></trkpt><trkpt lat="45.52516038166986" lon="9.8454765988004"><ele>126.0</ele><time>2026-04-11T17:12:34Z</time></trkpt><trkpt lat="45.52498522692976" lon="9.845385801285795"><ele>126.0</ele><time>2026-04-11T17:12:35Z</time></trkpt><trkpt lat="45.52483191481622" lon="9.845285805132209"><ele>126.0</ele><time>2026-04-11T17:12:36Z</time></trkpt><trkpt lat="45.52465514123359" lon="9.845139518711816"><ele>126.0</ele><time>2026-04-11T17:12:37Z</time></trkpt><trkpt lat="45.52451141248438" lon="9.844981996454575"><ele>126.0</ele><time>2026-04-11T17:12:38Z</time></trkpt><trkpt lat="45.524383811548695" lon="9.844789900644031"><ele>126.0</ele><time>2026-04-11T17:12:39Z</time></trkpt><trkpt lat="45.52426065526696" lon="9.844579175206752"><ele>126.0</ele><time>2026-04-11T17:12:40Z</time></trkpt><trkpt lat="45.5241363984734" lon="9.844365898048677"><ele>126.0</ele><time>2026-04-11T17:12:41Z</time></trkpt><trkpt lat="45.52401002222023" lon="9.844148983007468"><ele>126.0</ele><time>2026-04-11T17:12:42Z</time></trkpt><trkpt lat="45.523892074193895" lon="9.843948588773294"><ele>126.0</ele><time>2026-04-11T17:12:43Z</time></trkpt><trkpt lat="45.523772882724934" lon="9.843780390482125"><ele>126.0</ele><time>2026-04-11T17:12:44Z</time></trkpt><trkpt lat="45.523669732144164" lon="9.843610996971718"><ele>126.0</ele><time>2026-04-11T17:12:45Z</time></trkpt><trkpt lat="45.52355409321473" lon="9.843470400526195"><ele>126.0</ele><time>2026-04-11T17:12:46Z</time></trkpt><trkpt lat="45.52341312734739" lon="9.843377563663667"><ele>126.0</ele><time>2026-04-11T17:12:47Z</time></trkpt><trkpt lat="45.52323584674531" lon="9.843313710510438"><ele>126.0</ele><time>2026-04-11T17:12:48Z</time></trkpt><trkpt lat="45.52305970187955" lon="9.843298964685737"><ele>126.0</ele><time>2026-04-11T17:12:49Z</time></trkpt><trkpt lat="45.52287791074572" lon="9.84330812912122"><ele>126.33333333333334</ele><time>2026-04-11T17:12:50Z</time></trkpt><trkpt lat="45.522696491170755" lon="9.84333190224136"><ele>126.66666666666667</ele><time>2026-04-11T17:12:51Z</time></trkpt><trkpt lat="45.522511216079806" lon="9.843371525346479"><ele>127.0</ele><time>2026-04-11T17:12:52Z</time></trkpt><trkpt lat="45.52232771239308" lon="9.84344256787358"><ele>126.33333333333334</ele><time>2026-04-11T17:12:53Z</time></trkpt><trkpt lat="45.52211842215676" lon="9.843559414126176"><ele>125.66666666666666</ele><time>2026-04-11T17:12:54Z</time></trkpt><trkpt lat="45.52192037521778" lon="9.84366795694123"><ele>125.0</ele><time>2026-04-11T17:12:55Z</time></trkpt><trkpt lat="45.521726597791755" lon="9.84377850888568"><ele>125.0</ele><time>2026-04-11T17:12:56Z</time></trkpt><trkpt lat="45.52154097315509" lon="9.843903042238557"><ele>125.0</ele><time>2026-04-11T17:12:57Z</time></trkpt><trkpt lat="45.52136168013711" lon="9.844055455355987"><ele>125.0</ele><time>2026-04-11T17:12:58Z</time></trkpt><trkpt lat="45.52116685196484" lon="9.844222599478348"><ele>124.5</ele><time>2026-04-11T17:12:59Z</time></trkpt><trkpt lat="45.520963323144414" lon="9.844383239886291"><ele>124.0</ele><time>2026-04-11T17:13:00Z</time></trkpt><trkpt lat="45.520745938570315" lon="9.844548305490386"><ele>124.0</ele><time>2026-04-11T17:13:01Z</time></trkpt><trkpt lat="45.520542436767954" lon="9.844701577792263"><ele>124.0</ele><time>2026-04-11T17:13:02Z</time></trkpt><trkpt lat="45.5203551610116" lon="9.844858260780818"><ele>124.0</ele><time>2026-04-11T17:13:03Z</time></trkpt><trkpt lat="45.52016502958488" lon="9.845018729313573"><ele>123.66666666666667</ele><time>2026-04-11T17:13:04Z</time></trkpt><trkpt lat="45.519985469220536" lon="9.845187444521505"><ele>123.33333333333334</ele><time>2026-04-11T17:13:05Z</time></trkpt><trkpt lat="45.5198111757178" lon="9.845377141492074"><ele>123.0</ele><time>2026-04-11T17:13:06Z</time></trkpt><trkpt lat="45.51961412673359" lon="9.845571737886972"><ele>123.0</ele><time>2026-04-11T17:13:07Z</time></trkpt><trkpt lat="45.51944691141821" lon="9.845801791260898"><ele>123.0</ele><time>2026-04-11T17:13:08Z</time></trkpt><trkpt lat="45.519266464848506" lon="9.845993073732629"><ele>123.0</ele><time>2026-04-11T17:13:09Z</time></trkpt><trkpt lat="45.51910288468211" lon="9.846207950895012"><ele>123.0</ele><time>2026-04-11T17:13:10Z</time></trkpt><trkpt lat="45.51891396604649" lon="9.846393196995889"><ele>123.33333333333334</ele><time>2026-04-11T17:13:11Z</time></trkpt><trkpt lat="45.51871534635071" lon="9.846511560837184"><ele>123.66666666666667</ele><time>2026-04-11T17:13:12Z</time></trkpt><trkpt lat="45.51848986822097" lon="9.84658123056098"><ele>124.0</ele><time>2026-04-11T17:13:13Z</time></trkpt><trkpt lat="45.518292840369966" lon="9.846626309170317"><ele>124.0</ele><time>2026-04-11T17:13:14Z</time></trkpt><trkpt lat="45.518074428193536" lon="9.84664400353551"><ele>124.0</ele><time>2026-04-11T17:13:15Z</time></trkpt><trkpt lat="45.51787365383549" lon="9.846660791228217"><ele>124.0</ele><time>2026-04-11T17:13:16Z</time></trkpt><trkpt lat="45.51765294039016" lon="9.846676813906106"><ele>124.33333333333334</ele><time>2026-04-11T17:13:17Z</time></trkpt><trkpt lat="45.5174381919356" lon="9.846684167407597"><ele>124.66666666666666</ele><time>2026-04-11T17:13:18Z</time></trkpt><trkpt lat="45.51723461156593" lon="9.84663803033121"><ele>125.0</ele><time>2026-04-11T17:13:19Z</time></trkpt><trkpt lat="45.51705289696582" lon="9.846592626636737"><ele>125.25</ele><time>2026-04-11T17:13:20Z</time></trkpt><trkpt lat="45.516874372087315" lon="9.846548021022512"><ele>125.5</ele><time>2026-04-11T17:13:21Z</time></trkpt><trkpt lat="45.51670618923692" lon="9.846512311027565"><ele>125.75</ele><time>2026-04-11T17:13:22Z</time></trkpt><trkpt lat="45.51662066067685" lon="9.84650519331748"><ele>126.0</ele><time>2026-04-11T17:13:23Z</time></trkpt><trkpt lat="45.51647740074499" lon="9.846559363224875"><ele>126.0</ele><time>2026-04-11T17:13:24Z</time></trkpt><trkpt lat="45.516332537578684" lon="9.846598213260318"><ele>126.0</ele><time>2026-04-11T17:13:25Z</time></trkpt><trkpt lat="45.516183790707935" lon="9.846672687052036"><ele>126.0</ele><time>2026-04-11T17:13:26Z</time></trkpt><trkpt lat="45.51601925765993" lon="9.846754659791944"><ele>125.66666666666666</ele><time>2026-04-11T17:13:27Z</time></trkpt><trkpt lat="45.51581586115737" lon="9.846851405583502"><ele>125.33333333333333</ele><time>2026-04-11T17:13:28Z</time></trkpt><trkpt lat="45.515605195088796" lon="9.846917212678324"><ele>125.0</ele><time>2026-04-11T17:13:29Z</time></trkpt><trkpt lat="45.51541376629616" lon="9.846997747942648"><ele>124.66666666666666</ele><time>2026-04-11T17:13:30Z</time></trkpt><trkpt lat="45.515236801540816" lon="9.847072200827295"><ele>124.33333333333334</ele><time>2026-04-11T17:13:31Z</time></trkpt><trkpt lat="45.51506345735135" lon="9.8471451304614"><ele>124.0</ele><time>2026-04-11T17:13:32Z</time></trkpt><trkpt lat="45.51487955382965" lon="9.847220383489914"><ele>124.0</ele><time>2026-04-11T17:13:33Z</time></trkpt><trkpt lat="45.51468322595303" lon="9.847314501444613"><ele>124.0</ele><time>2026-04-11T17:13:34Z</time></trkpt><trkpt lat="45.51450306560612" lon="9.847379290039376"><ele>124.0</ele><time>2026-04-11T17:13:35Z</time></trkpt><trkpt lat="45.5143241205594" lon="9.847389699085204"><ele>124.0</ele><time>2026-04-11T17:13:36Z</time></trkpt><trkpt lat="45.514153405494575" lon="9.84737635651553"><ele>124.0</ele><time>2026-04-11T17:13:37Z</time></trkpt><trkpt lat="45.513985867584815" lon="9.847352361704875"><ele>124.0</ele><time>2026-04-11T17:13:38Z</time></trkpt><trkpt lat="45.5138246604264" lon="9.847302279684591"><ele>124.0</ele><time>2026-04-11T17:13:39Z</time></trkpt><trkpt lat="45.51366737148633" lon="9.847253826401975"><ele>124.0</ele><time>2026-04-11T17:13:40Z</time></trkpt><trkpt lat="45.51352403845542" lon="9.847174599406213"><ele>124.0</ele><time>2026-04-11T17:13:41Z</time></trkpt><trkpt lat="45.5133794977783" lon="9.847051472631486"><ele>124.0</ele><time>2026-04-11T17:13:42Z</time></trkpt><trkpt lat="45.51322507838622" lon="9.846944886486103"><ele>124.0</ele><time>2026-04-11T17:13:43Z</time></trkpt><trkpt lat="45.51303861210231" lon="9.846895835568484"><ele>124.0</ele><time>2026-04-11T17:13:44Z</time></trkpt><trkpt lat="45.5128509715633" lon="9.846848918691649"><ele>123.33333333333334</ele><time>2026-04-11T17:13:45Z</time></trkpt><trkpt lat="45.51265142243333" lon="9.846822717654282"><ele>122.66666666666666</ele><time>2026-04-11T17:13:46Z</time></trkpt><trkpt lat="45.51246570374744" lon="9.846785125626107"><ele>122.0</ele><time>2026-04-11T17:13:47Z</time></trkpt><trkpt lat="45.51227222528377" lon="9.84675731699438"><ele>123.0</ele><time>2026-04-11T17:13:48Z</time></trkpt><trkpt lat="45.51207765057488" lon="9.846767778907283"><ele>124.0</ele><time>2026-04-11T17:13:49Z</time></trkpt><trkpt lat="45.51189525312368" lon="9.846749022063005"><ele>125.0</ele><time>2026-04-11T17:13:50Z</time></trkpt><trkpt lat="45.511718623059345" lon="9.846719204770142"><ele>125.0</ele><time>2026-04-11T17:13:51Z</time></trkpt><trkpt lat="45.51157002382806" lon="9.846700565816535"><ele>125.0</ele><time>2026-04-11T17:13:52Z</time></trkpt><trkpt lat="45.51141974686104" lon="9.84669544201035"><ele>125.0</ele><time>2026-04-11T17:13:53Z</time></trkpt><trkpt lat="45.511265630051255" lon="9.846690991924966"><ele>125.25</ele><time>2026-04-11T17:13:54Z</time></trkpt><trkpt lat="45.51111798350459" lon="9.846701525771943"><ele>125.5</ele><time>2026-04-11T17:13:55Z</time></trkpt><trkpt lat="45.510986375268836" lon="9.846715852531434"><ele>125.75</ele><time>2026-04-11T17:13:56Z</time></trkpt><trkpt lat="45.51084022037233" lon="9.846754713016386"><ele>126.0</ele><time>2026-04-11T17:13:57Z</time></trkpt><trkpt lat="45.51070509404265" lon="9.846787568783549"><ele>125.5</ele><time>2026-04-11T17:13:58Z</time></trkpt><trkpt lat="45.51057254208208" lon="9.846806968840875"><ele>125.0</ele><time>2026-04-11T17:13:59Z</time></trkpt><trkpt lat="45.51045168856342" lon="9.846838886484807"><ele>124.5</ele><time>2026-04-11T17:14:00Z</time></trkpt><trkpt lat="45.510346834707605" lon="9.84686606851308"><ele>124.0</ele><time>2026-04-11T17:14:01Z</time></trkpt><trkpt lat="45.51023116346514" lon="9.846882864554516"><ele>124.00000000000001</ele><time>2026-04-11T17:14:02Z</time></trkpt><trkpt lat="45.510126806976466" lon="9.846902790344705"><ele>124.0</ele><time>2026-04-11T17:14:03Z</time></trkpt><trkpt lat="45.510032220817166" lon="9.846911397817387"><ele>124.0</ele><time>2026-04-11T17:14:04Z</time></trkpt><trkpt lat="45.50996050144087" lon="9.846897835524715"><ele>124.0</ele><time>2026-04-11T17:14:05Z</time></trkpt><trkpt lat="45.50986776141616" lon="9.84688337975675"><ele>124.00000000000001</ele><time>2026-04-11T17:14:06Z</time></trkpt><trkpt lat="45.509797557241875" lon="9.84685494617862"><ele>124.0</ele><time>2026-04-11T17:14:07Z</time></trkpt><trkpt lat="45.50973183410757" lon="9.846838574324789"><ele>124.00000000000001</ele><time>2026-04-11T17:14:08Z</time></trkpt><trkpt lat="45.5096642372402" lon="9.84682645336599"><ele>124.0</ele><time>2026-04-11T17:14:09Z</time></trkpt><trkpt lat="45.5096196845665" lon="9.84690220909359"><ele>124.0</ele><time>2026-04-11T17:14:10Z</time></trkpt><trkpt lat="45.50961140243696" lon="9.846999920274897"><ele>124.0</ele><time>2026-04-11T17:14:11Z</time></trkpt><trkpt lat="45.509640811286104" lon="9.84708350389307"><ele>124.00000000000001</ele><time>2026-04-11T17:14:12Z</time></trkpt><trkpt lat="45.50976799155538" lon="9.847084465453891"><ele>124.0</ele><time>2026-04-11T17:14:14Z</time></trkpt><trkpt lat="45.50984011985406" lon="9.847014034151123"><ele>124.0</ele><time>2026-04-11T17:14:15Z</time></trkpt><trkpt lat="45.50993421102972" lon="9.846957366781927"><ele>124.0</ele><time>2026-04-11T17:14:16Z</time></trkpt><trkpt lat="45.510064287210874" lon="9.846925667460768"><ele>124.0</ele><time>2026-04-11T17:14:17Z</time></trkpt><trkpt lat="45.51021183193147" lon="9.846908622128762"><ele>124.0</ele><time>2026-04-11T17:14:18Z</time></trkpt><trkpt lat="45.51035607875611" lon="9.846894383178428"><ele>123.66666666666667</ele><time>2026-04-11T17:14:19Z</time></trkpt><trkpt lat="45.510512732276624" lon="9.846853651170639"><ele>123.33333333333334</ele><time>2026-04-11T17:14:20Z</time></trkpt><trkpt lat="45.51068915140758" lon="9.846813303235008"><ele>123.0</ele><time>2026-04-11T17:14:21Z</time></trkpt><trkpt lat="45.51086280487437" lon="9.84678137175084"><ele>123.66666666666666</ele><time>2026-04-11T17:14:22Z</time></trkpt><trkpt lat="45.511047026683904" lon="9.846752942152003"><ele>124.33333333333333</ele><time>2026-04-11T17:14:23Z</time></trkpt><trkpt lat="45.511246275784764" lon="9.846717523181391"><ele>125.0</ele><time>2026-04-11T17:14:24Z</time></trkpt><trkpt lat="45.511446934931435" lon="9.84672599437059"><ele>125.0</ele><time>2026-04-11T17:14:25Z</time></trkpt><trkpt lat="45.51165163385053" lon="9.84675708663631"><ele>125.0</ele><time>2026-04-11T17:14:26Z</time></trkpt><trkpt lat="45.51186226001871" lon="9.846781576214337"><ele>125.0</ele><time>2026-04-11T17:14:27Z</time></trkpt><trkpt lat="45.51208664389178" lon="9.846811426777169"><ele>123.5</ele><time>2026-04-11T17:14:28Z</time></trkpt><trkpt lat="45.51232432565118" lon="9.846837795367561"><ele>122.0</ele><time>2026-04-11T17:14:29Z</time></trkpt><trkpt lat="45.51256798547466" lon="9.846850543535261"><ele>122.0</ele><time>2026-04-11T17:14:30Z</time></trkpt><trkpt lat="45.51279879381596" lon="9.846867500289758"><ele>122.0</ele><time>2026-04-11T17:14:31Z</time></trkpt><trkpt lat="45.5130037351596" lon="9.846903277054983"><ele>122.0</ele><time>2026-04-11T17:14:32Z</time></trkpt><trkpt lat="45.51319297925179" lon="9.84694066352388"><ele>122.66666666666666</ele><time>2026-04-11T17:14:33Z</time></trkpt><trkpt lat="45.51339359097975" lon="9.846994496880606"><ele>123.33333333333334</ele><time>2026-04-11T17:14:34Z</time></trkpt><trkpt lat="45.51357361536269" lon="9.847093990226835"><ele>124.0</ele><time>2026-04-11T17:14:35Z</time></trkpt><trkpt lat="45.51375456579206" lon="9.847201845529625"><ele>124.0</ele><time>2026-04-11T17:14:36Z</time></trkpt><trkpt lat="45.51394658834572" lon="9.847273675264672"><ele>124.0</ele><time>2026-04-11T17:14:37Z</time></trkpt><trkpt lat="45.51413422151852" lon="9.847305132342008"><ele>124.0</ele><time>2026-04-11T17:14:38Z</time></trkpt><trkpt lat="45.514319308660575" lon="9.847333684673117"><ele>124.0</ele><time>2026-04-11T17:14:39Z</time></trkpt><trkpt lat="45.514498671827" lon="9.8473372026498"><ele>124.0</ele><time>2026-04-11T17:14:40Z</time></trkpt><trkpt lat="45.51469981051823" lon="9.847300653500449"><ele>124.0</ele><time>2026-04-11T17:14:41Z</time></trkpt><trkpt lat="45.514920765265366" lon="9.847239565314748"><ele>124.0</ele><time>2026-04-11T17:14:42Z</time></trkpt><trkpt lat="45.5151482314645" lon="9.847152679737082"><ele>124.0</ele><time>2026-04-11T17:14:43Z</time></trkpt><trkpt lat="45.51538403198533" lon="9.847058090929547"><ele>124.33333333333334</ele><time>2026-04-11T17:14:44Z</time></trkpt><trkpt lat="45.51553738884678" lon="9.847026588984994"><ele>124.66666666666666</ele><time>2026-04-11T17:14:45Z</time></trkpt><trkpt lat="45.5157593862684" lon="9.846932170343837"><ele>125.0</ele><time>2026-04-11T17:14:46Z</time></trkpt><trkpt lat="45.515974086361766" lon="9.846828776027401"><ele>125.33333333333333</ele><time>2026-04-11T17:14:47Z</time></trkpt><trkpt lat="45.51618084680748" lon="9.846738909278693"><ele>125.66666666666666</ele><time>2026-04-11T17:14:48Z</time></trkpt><trkpt lat="45.516366695726184" lon="9.846660425657825"><ele>126.0</ele><time>2026-04-11T17:14:49Z</time></trkpt><trkpt lat="45.51655071562116" lon="9.846590694626732"><ele>126.0</ele><time>2026-04-11T17:14:50Z</time></trkpt><trkpt lat="45.516723575706365" lon="9.84657697530359"><ele>126.0</ele><time>2026-04-11T17:14:51Z</time></trkpt><trkpt lat="45.51689364884243" lon="9.846601061814157"><ele>126.0</ele><time>2026-04-11T17:14:52Z</time></trkpt><trkpt lat="45.517077081055476" lon="9.846646909003042"><ele>125.66666666666666</ele><time>2026-04-11T17:14:53Z</time></trkpt><trkpt lat="45.517266391576804" lon="9.846672322976039"><ele>125.33333333333333</ele><time>2026-04-11T17:14:54Z</time></trkpt><trkpt lat="45.51747209743957" lon="9.846712775155702"><ele>125.0</ele><time>2026-04-11T17:14:55Z</time></trkpt><trkpt lat="45.51768772089024" lon="9.846723168911574"><ele>125.0</ele><time>2026-04-11T17:14:56Z</time></trkpt><trkpt lat="45.51789341270873" lon="9.846712955987154"><ele>125.0</ele><time>2026-04-11T17:14:57Z</time></trkpt><trkpt lat="45.51809939574203" lon="9.846703415968667"><ele>125.0</ele><time>2026-04-11T17:14:58Z</time></trkpt><trkpt lat="45.51829813475318" lon="9.846670295033716"><ele>124.66666666666666</ele><time>2026-04-11T17:14:59Z</time></trkpt><trkpt lat="45.51849498368498" lon="9.84663509466694"><ele>124.33333333333334</ele><time>2026-04-11T17:15:00Z</time></trkpt><trkpt lat="45.51868785522435" lon="9.846579626359064"><ele>124.0</ele><time>2026-04-11T17:15:01Z</time></trkpt><trkpt lat="45.51885619516631" lon="9.84651491618239"><ele>123.66666666666667</ele><time>2026-04-11T17:15:02Z</time></trkpt><trkpt lat="45.51900353917077" lon="9.846387671986486"><ele>123.33333333333334</ele><time>2026-04-11T17:15:03Z</time></trkpt><trkpt lat="45.51914803117356" lon="9.84623192300966"><ele>123.0</ele><time>2026-04-11T17:15:04Z</time></trkpt><trkpt lat="45.51932612612083" lon="9.84601354442792"><ele>123.0</ele><time>2026-04-11T17:15:05Z</time></trkpt><trkpt lat="45.51949942641001" lon="9.845800061068648"><ele>123.0</ele><time>2026-04-11T17:15:06Z</time></trkpt><trkpt lat="45.51968499942198" lon="9.84560426232359"><ele>123.0</ele><time>2026-04-11T17:15:07Z</time></trkpt><trkpt lat="45.51987576455571" lon="9.845351615530411"><ele>123.0</ele><time>2026-04-11T17:15:08Z</time></trkpt><trkpt lat="45.520054003421535" lon="9.845150871248386"><ele>123.5</ele><time>2026-04-11T17:15:09Z</time></trkpt><trkpt lat="45.52025226114403" lon="9.84498327992165"><ele>124.0</ele><time>2026-04-11T17:15:10Z</time></trkpt><trkpt lat="45.5204513415079" lon="9.844823679798196"><ele>124.0</ele><time>2026-04-11T17:15:11Z</time></trkpt><trkpt lat="45.520636136261565" lon="9.84466828348639"><ele>124.0</ele><time>2026-04-11T17:15:12Z</time></trkpt><trkpt lat="45.52082240335565" lon="9.844532907389071"><ele>124.0</ele><time>2026-04-11T17:15:13Z</time></trkpt><trkpt lat="45.521008479350115" lon="9.844389466790908"><ele>124.33333333333334</ele><time>2026-04-11T17:15:14Z</time></trkpt><trkpt lat="45.52119026706458" lon="9.844240088957424"><ele>124.66666666666666</ele><time>2026-04-11T17:15:15Z</time></trkpt><trkpt lat="45.52136949808022" lon="9.844093296412202"><ele>125.0</ele><time>2026-04-11T17:15:16Z</time></trkpt><trkpt lat="45.521542557714824" lon="9.843957302383615"><ele>125.0</ele><time>2026-04-11T17:15:17Z</time></trkpt><trkpt lat="45.52172275416456" lon="9.843840440908421"><ele>125.0</ele><time>2026-04-11T17:15:18Z</time></trkpt><trkpt lat="45.52190056140628" lon="9.843694147872762"><ele>125.0</ele><time>2026-04-11T17:15:19Z</time></trkpt><trkpt lat="45.52209565200047" lon="9.843610818142059"><ele>125.0</ele><time>2026-04-11T17:15:20Z</time></trkpt><trkpt lat="45.52227086086727" lon="9.843523689935623"><ele>125.0</ele><time>2026-04-11T17:15:21Z</time></trkpt><trkpt lat="45.52244283450466" lon="9.843450292805903"><ele>125.0</ele><time>2026-04-11T17:15:22Z</time></trkpt><trkpt lat="45.52259748729221" lon="9.843400992080628"><ele>125.33333333333333</ele><time>2026-04-11T17:15:23Z</time></trkpt><trkpt lat="45.522757151869534" lon="9.84336916277969"><ele>125.66666666666666</ele><time>2026-04-11T17:15:24Z</time></trkpt><trkpt lat="45.522918528816" lon="9.843356309347545"><ele>126.0</ele><time>2026-04-11T17:15:25Z</time></trkpt><trkpt lat="45.52309275217829" lon="9.843350667148123"><ele>126.0</ele><time>2026-04-11T17:15:26Z</time></trkpt><trkpt lat="45.523253015802304" lon="9.843363246815889"><ele>126.0</ele><time>2026-04-11T17:15:27Z</time></trkpt><trkpt lat="45.52340497950243" lon="9.843405887925414"><ele>126.0</ele><time>2026-04-11T17:15:28Z</time></trkpt><trkpt lat="45.52354186898624" lon="9.8434985349743"><ele>126.0</ele><time>2026-04-11T17:15:29Z</time></trkpt><trkpt lat="45.523667798047946" lon="9.843643691465356"><ele>126.0</ele><time>2026-04-11T17:15:30Z</time></trkpt><trkpt lat="45.5237801134111" lon="9.843832693455056"><ele>126.0</ele><time>2026-04-11T17:15:31Z</time></trkpt><trkpt lat="45.523898521532196" lon="9.844033106578648"><ele>126.0</ele><time>2026-04-11T17:15:32Z</time></trkpt><trkpt lat="45.524020861877375" lon="9.844241803324165"><ele>126.0</ele><time>2026-04-11T17:15:33Z</time></trkpt><trkpt lat="45.52415959120045" lon="9.844479921347098"><ele>126.0</ele><time>2026-04-11T17:15:34Z</time></trkpt><trkpt lat="45.52429954555456" lon="9.844720142153305"><ele>126.0</ele><time>2026-04-11T17:15:35Z</time></trkpt><trkpt lat="45.52444178340883" lon="9.844931602953606"><ele>126.0</ele><time>2026-04-11T17:15:36Z</time></trkpt><trkpt lat="45.524569980917754" lon="9.845109511843233"><ele>126.0</ele><time>2026-04-11T17:15:37Z</time></trkpt><trkpt lat="45.52470805557602" lon="9.845265169558525"><ele>126.0</ele><time>2026-04-11T17:15:38Z</time></trkpt><trkpt lat="45.52489119734032" lon="9.845356840410846"><ele>126.0</ele><time>2026-04-11T17:15:39Z</time></trkpt><trkpt lat="45.52506874443671" lon="9.845468433334007"><ele>126.0</ele><time>2026-04-11T17:15:40Z</time></trkpt><trkpt lat="45.525257183577835" lon="9.845570618442158"><ele>126.66666666666666</ele><time>2026-04-11T17:15:41Z</time></trkpt><trkpt lat="45.52545211490671" lon="9.845653320083905"><ele>127.33333333333333</ele><time>2026-04-11T17:15:42Z</time></trkpt><trkpt lat="45.52565237993058" lon="9.845744050304583"><ele>128.0</ele><time>2026-04-11T17:15:43Z</time></trkpt><trkpt lat="45.525847592949646" lon="9.845822511762732"><ele>128.0</ele><time>2026-04-11T17:15:44Z</time></trkpt><trkpt lat="45.52603136798939" lon="9.845893825079644"><ele>128.0</ele><time>2026-04-11T17:15:45Z</time></trkpt><trkpt lat="45.526195763943555" lon="9.84596314916292"><ele>128.0</ele><time>2026-04-11T17:15:46Z</time></trkpt><trkpt lat="45.5263506233604" lon="9.846016994086998"><ele>127.0</ele><time>2026-04-11T17:15:47Z</time></trkpt><trkpt lat="45.52650245470695" lon="9.846069233088137"><ele>126.0</ele><time>2026-04-11T17:15:48Z</time></trkpt><trkpt lat="45.526647980703416" lon="9.846052238185347"><ele>125.0</ele><time>2026-04-11T17:15:49Z</time></trkpt><trkpt lat="45.526756685515615" lon="9.846055370575982"><ele>124.0</ele><time>2026-04-11T17:15:50Z</time></trkpt><trkpt lat="45.52685210209118" lon="9.8459857155771"><ele>124.4</ele><time>2026-04-11T17:15:51Z</time></trkpt><trkpt lat="45.52694766356753" lon="9.845939603724677"><ele>124.80000000000001</ele><time>2026-04-11T17:15:52Z</time></trkpt><trkpt lat="45.527045331882825" lon="9.845853876126107"><ele>125.19999999999999</ele><time>2026-04-11T17:15:53Z</time></trkpt><trkpt lat="45.52715605229572" lon="9.845828881694603"><ele>125.6</ele><time>2026-04-11T17:15:55Z</time></trkpt><trkpt lat="45.52723293196004" lon="9.84583938998549"><ele>126.0</ele><time>2026-04-11T17:15:56Z</time></trkpt><trkpt lat="45.52733179154032" lon="9.845821678947795"><ele>126.0</ele><time>2026-04-11T17:15:57Z</time></trkpt><trkpt lat="45.52742534386352" lon="9.845754777265146"><ele>126.0</ele><time>2026-04-11T17:15:58Z</time></trkpt><trkpt lat="45.52750002225803" lon="9.845591233529989"><ele>126.0</ele><time>2026-04-11T17:15:59Z</time></trkpt><trkpt lat="45.5276567706098" lon="9.845627665364836"><ele>126.0</ele><time>2026-04-11T17:16:00Z</time></trkpt><trkpt lat="45.527791167771916" lon="9.845618662163695"><ele>126.0</ele><time>2026-04-11T17:16:01Z</time></trkpt><trkpt lat="45.52795964418351" lon="9.845613081123338"><ele>126.0</ele><time>2026-04-11T17:16:02Z</time></trkpt><trkpt lat="45.52811724282377" lon="9.845571050345361"><ele>126.0</ele><time>2026-04-11T17:16:03Z</time></trkpt><trkpt lat="45.52829645869742" lon="9.845478551364328"><ele>126.0</ele><time>2026-04-11T17:16:04Z</time></trkpt><trkpt lat="45.528474629506036" lon="9.845380816864223"><ele>126.0</ele><time>2026-04-11T17:16:05Z</time></trkpt><trkpt lat="45.528636801307556" lon="9.845292042191408"><ele>126.0</ele><time>2026-04-11T17:16:06Z</time></trkpt><trkpt lat="45.52876773676017" lon="9.845208540862405"><ele>126.33333333333334</ele><time>2026-04-11T17:16:07Z</time></trkpt><trkpt lat="45.52889846650303" lon="9.845084840419181"><ele>126.66666666666667</ele><time>2026-04-11T17:16:08Z</time></trkpt><trkpt lat="45.529030222087655" lon="9.84494889277248"><ele>127.0</ele><time>2026-04-11T17:16:09Z</time></trkpt><trkpt lat="45.52915270841327" lon="9.844820782379378"><ele>127.0</ele><time>2026-04-11T17:16:10Z</time></trkpt><trkpt lat="45.52926217988183" lon="9.844711678743485"><ele>127.0</ele><time>2026-04-11T17:16:11Z</time></trkpt><trkpt lat="45.529382995066314" lon="9.844629651761357"><ele>127.0</ele><time>2026-04-11T17:16:12Z</time></trkpt><trkpt lat="45.52949141403293" lon="9.844523540398123"><ele>127.0</ele><time>2026-04-11T17:16:13Z</time></trkpt><trkpt lat="45.52958532523269" lon="9.844447537882067"><ele>126.75</ele><time>2026-04-11T17:16:14Z</time></trkpt><trkpt lat="45.529690704750806" lon="9.84437699273089"><ele>126.5</ele><time>2026-04-11T17:16:15Z</time></trkpt><trkpt lat="45.52980645205082" lon="9.844329373626326"><ele>126.25</ele><time>2026-04-11T17:16:16Z</time></trkpt><trkpt lat="45.5299277608578" lon="9.844297500914228"><ele>126.0</ele><time>2026-04-11T17:16:17Z</time></trkpt><trkpt lat="45.53006256918281" lon="9.844264994314592"><ele>126.33333333333334</ele><time>2026-04-11T17:16:18Z</time></trkpt><trkpt lat="45.53021202906401" lon="9.844225335220255"><ele>126.66666666666667</ele><time>2026-04-11T17:16:19Z</time></trkpt><trkpt lat="45.53036746018828" lon="9.84418538191091"><ele>127.0</ele><time>2026-04-11T17:16:20Z</time></trkpt><trkpt lat="45.530539708533034" lon="9.844174487064224"><ele>127.0</ele><time>2026-04-11T17:16:21Z</time></trkpt><trkpt lat="45.530715416407034" lon="9.844151453270893"><ele>127.0</ele><time>2026-04-11T17:16:22Z</time></trkpt><trkpt lat="45.53091679053206" lon="9.844113277445011"><ele>127.0</ele><time>2026-04-11T17:16:23Z</time></trkpt><trkpt lat="45.53110247365723" lon="9.84409552648546"><ele>127.33333333333334</ele><time>2026-04-11T17:16:24Z</time></trkpt><trkpt lat="45.53127403234305" lon="9.844071242357483"><ele>127.66666666666666</ele><time>2026-04-11T17:16:25Z</time></trkpt><trkpt lat="45.5314249934083" lon="9.84403449644405"><ele>128.0</ele><time>2026-04-11T17:16:26Z</time></trkpt><trkpt lat="45.531576780655925" lon="9.843973448738614"><ele>128.0</ele><time>2026-04-11T17:16:27Z</time></trkpt><trkpt lat="45.531714642690545" lon="9.843907218249218"><ele>128.0</ele><time>2026-04-11T17:16:28Z</time></trkpt><trkpt lat="45.531841554975976" lon="9.843844203443584"><ele>128.0</ele><time>2026-04-11T17:16:29Z</time></trkpt><trkpt lat="45.53196503364422" lon="9.843797251919176"><ele>128.0</ele><time>2026-04-11T17:16:30Z</time></trkpt><trkpt lat="45.532083246704204" lon="9.843733791054282"><ele>128.5</ele><time>2026-04-11T17:16:31Z</time></trkpt><trkpt lat="45.532199327635404" lon="9.84367746735777"><ele>129.0</ele><time>2026-04-11T17:16:32Z</time></trkpt><trkpt lat="45.53232226533815" lon="9.84360940817015"><ele>129.5</ele><time>2026-04-11T17:16:33Z</time></trkpt><trkpt lat="45.532443299916466" lon="9.84354652995611"><ele>130.0</ele><time>2026-04-11T17:16:34Z</time></trkpt><trkpt lat="45.53256408034103" lon="9.843502217643318"><ele>130.0</ele><time>2026-04-11T17:16:35Z</time></trkpt><trkpt lat="45.532674786871596" lon="9.843455346026586"><ele>130.0</ele><time>2026-04-11T17:16:36Z</time></trkpt><trkpt lat="45.53277327514277" lon="9.843405384034812"><ele>130.0</ele><time>2026-04-11T17:16:37Z</time></trkpt><trkpt lat="45.5328485238338" lon="9.84335889918018"><ele>130.0</ele><time>2026-04-11T17:16:38Z</time></trkpt><trkpt lat="45.53290413271416" lon="9.843313284437425"><ele>130.0</ele><time>2026-04-11T17:16:39Z</time></trkpt><trkpt lat="45.53296782926358" lon="9.84329093808493"><ele>130.0</ele><time>2026-04-11T17:16:40Z</time></trkpt><trkpt lat="45.53296096771171" lon="9.843090791254207"><ele>130.0</ele><time>2026-04-11T17:16:43Z</time></trkpt><trkpt lat="45.53281017811297" lon="9.843136125594269"><ele>130.0</ele><time>2026-04-11T17:16:48Z</time></trkpt><trkpt lat="45.53277996143591" lon="9.843277367722301"><ele>130.0</ele><time>2026-04-11T17:16:49Z</time></trkpt><trkpt lat="45.53281674526678" lon="9.843353983987916"><ele>130.0</ele><time>2026-04-11T17:16:50Z</time></trkpt><trkpt lat="45.53267859229636" lon="9.84339933923438"><ele>130.0</ele><time>2026-04-11T17:16:51Z</time></trkpt><trkpt lat="45.53257385661916" lon="9.843445673057197"><ele>130.0</ele><time>2026-04-11T17:16:52Z</time></trkpt><trkpt lat="45.532462531225036" lon="9.84349939696328"><ele>130.0</ele><time>2026-04-11T17:16:53Z</time></trkpt><trkpt lat="45.53234319663586" lon="9.843549263817627"><ele>130.0</ele><time>2026-04-11T17:16:54Z</time></trkpt><trkpt lat="45.53221658560522" lon="9.843616973615656"><ele>130.0</ele><time>2026-04-11T17:16:55Z</time></trkpt><trkpt lat="45.53206057247153" lon="9.843715526458336"><ele>130.0</ele><time>2026-04-11T17:16:56Z</time></trkpt><trkpt lat="45.53189647025675" lon="9.843793721982637"><ele>130.0</ele><time>2026-04-11T17:16:57Z</time></trkpt><trkpt lat="45.53170732592893" lon="9.843861548301204"><ele>129.33333333333334</ele><time>2026-04-11T17:16:58Z</time></trkpt><trkpt lat="45.531505366044364" lon="9.843974632605955"><ele>128.66666666666666</ele><time>2026-04-11T17:16:59Z</time></trkpt><trkpt lat="45.53130207688754" lon="9.844021177190637"><ele>128.0</ele><time>2026-04-11T17:17:00Z</time></trkpt><trkpt lat="45.53112227616896" lon="9.844053562337434"><ele>127.66666666666666</ele><time>2026-04-11T17:17:01Z</time></trkpt><trkpt lat="45.530935921491015" lon="9.844077228903778"><ele>127.33333333333334</ele><time>2026-04-11T17:17:02Z</time></trkpt><trkpt lat="45.530741033983546" lon="9.844122826056255"><ele>127.0</ele><time>2026-04-11T17:17:03Z</time></trkpt><trkpt lat="45.530552866228135" lon="9.844137608905289"><ele>127.66666666666667</ele><time>2026-04-11T17:17:04Z</time></trkpt><trkpt lat="45.53036407501087" lon="9.844166806188353"><ele>128.33333333333334</ele><time>2026-04-11T17:17:05Z</time></trkpt><trkpt lat="45.53018132623139" lon="9.84420610335975"><ele>129.0</ele><time>2026-04-11T17:17:06Z</time></trkpt><trkpt lat="45.53000633533437" lon="9.844247421518924"><ele>129.0</ele><time>2026-04-11T17:17:07Z</time></trkpt><trkpt lat="45.529829882583286" lon="9.844291452241169"><ele>129.0</ele><time>2026-04-11T17:17:08Z</time></trkpt><trkpt lat="45.52966833430797" lon="9.844350635941645"><ele>129.0</ele><time>2026-04-11T17:17:09Z</time></trkpt><trkpt lat="45.52951487738532" lon="9.844438499122884"><ele>128.33333333333334</ele><time>2026-04-11T17:17:10Z</time></trkpt><trkpt lat="45.52937206541291" lon="9.844556200606705"><ele>127.66666666666667</ele><time>2026-04-11T17:17:11Z</time></trkpt><trkpt lat="45.52921989176929" lon="9.844707712112085"><ele>127.0</ele><time>2026-04-11T17:17:12Z</time></trkpt><trkpt lat="45.529057732547386" lon="9.844865331304213"><ele>127.0</ele><time>2026-04-11T17:17:13Z</time></trkpt><trkpt lat="45.52884805552027" lon="9.845093037659579"><ele>127.0</ele><time>2026-04-11T17:17:14Z</time></trkpt><trkpt lat="45.528681041877896" lon="9.845221120975383"><ele>126.66666666666667</ele><time>2026-04-11T17:17:15Z</time></trkpt><trkpt lat="45.52850871807331" lon="9.845320130382085"><ele>126.33333333333334</ele><time>2026-04-11T17:17:16Z</time></trkpt><trkpt lat="45.52834986700785" lon="9.845400156981317"><ele>126.0</ele><time>2026-04-11T17:17:17Z</time></trkpt><trkpt lat="45.52817717765638" lon="9.845476954416437"><ele>126.0</ele><time>2026-04-11T17:17:18Z</time></trkpt><trkpt lat="45.52803801768659" lon="9.845530473556556"><ele>126.0</ele><time>2026-04-11T17:17:19Z</time></trkpt><trkpt lat="45.52789819849234" lon="9.845583294862381"><ele>126.0</ele><time>2026-04-11T17:17:20Z</time></trkpt><trkpt lat="45.527765085083736" lon="9.845586992576088"><ele>126.0</ele><time>2026-04-11T17:17:21Z</time></trkpt><trkpt lat="45.52763979080259" lon="9.84556750619448"><ele>126.0</ele><time>2026-04-11T17:17:22Z</time></trkpt><trkpt lat="45.52752934516839" lon="9.84553345077929"><ele>126.0</ele><time>2026-04-11T17:17:23Z</time></trkpt><trkpt lat="45.52745056924467" lon="9.845391290922771"><ele>126.0</ele><time>2026-04-11T17:17:24Z</time></trkpt><trkpt lat="45.52738995023213" lon="9.845273527612944"><ele>126.0</ele><time>2026-04-11T17:17:25Z</time></trkpt><trkpt lat="45.52728142367575" lon="9.845189617672697"><ele>126.0</ele><time>2026-04-11T17:17:26Z</time></trkpt><trkpt lat="45.527162460762355" lon="9.845145030510476"><ele>126.0</ele><time>2026-04-11T17:17:27Z</time></trkpt><trkpt lat="45.527042504328065" lon="9.845149455065757"><ele>126.0</ele><time>2026-04-11T17:17:28Z</time></trkpt><trkpt lat="45.52694487742021" lon="9.844928374643251"><ele>126.0</ele><time>2026-04-11T17:17:29Z</time></trkpt><trkpt lat="45.52685474935379" lon="9.844740452400522"><ele>126.33333333333334</ele><time>2026-04-11T17:17:30Z</time></trkpt><trkpt lat="45.526763943895546" lon="9.844531780715835"><ele>126.66666666666667</ele><time>2026-04-11T17:17:31Z</time></trkpt><trkpt lat="45.526673948800806" lon="9.844301716366967"><ele>127.0</ele><time>2026-04-11T17:17:32Z</time></trkpt><trkpt lat="45.52658208477785" lon="9.844057316234412"><ele>127.0</ele><time>2026-04-11T17:17:33Z</time></trkpt><trkpt lat="45.52650919975961" lon="9.843806144360252"><ele>127.0</ele><time>2026-04-11T17:17:34Z</time></trkpt><trkpt lat="45.52644534856566" lon="9.843532911349037"><ele>127.0</ele><time>2026-04-11T17:17:35Z</time></trkpt><trkpt lat="45.52638299266967" lon="9.84324630944975"><ele>127.0</ele><time>2026-04-11T17:17:36Z</time></trkpt><trkpt lat="45.52633102575264" lon="9.842959655410255"><ele>127.0</ele><time>2026-04-11T17:17:37Z</time></trkpt><trkpt lat="45.526283896776626" lon="9.842616951772865"><ele>127.0</ele><time>2026-04-11T17:17:38Z</time></trkpt><trkpt lat="45.52624629216152" lon="9.842262335417974"><ele>127.0</ele><time>2026-04-11T17:17:39Z</time></trkpt><trkpt lat="45.52622208527188" lon="9.841883421015433"><ele>126.5</ele><time>2026-04-11T17:17:40Z</time></trkpt><trkpt lat="45.526191183382906" lon="9.841533984700426"><ele>126.0</ele><time>2026-04-11T17:17:41Z</time></trkpt><trkpt lat="45.5261592132103" lon="9.841194516210379"><ele>126.33333333333334</ele><time>2026-04-11T17:17:42Z</time></trkpt><trkpt lat="45.526141034524244" lon="9.840869218490594"><ele>126.66666666666667</ele><time>2026-04-11T17:17:43Z</time></trkpt><trkpt lat="45.526120840415906" lon="9.84056219363178"><ele>127.0</ele><time>2026-04-11T17:17:44Z</time></trkpt><trkpt lat="45.526096808469134" lon="9.840283494286945"><ele>127.66666666666667</ele><time>2026-04-11T17:17:45Z</time></trkpt><trkpt lat="45.52609054599158" lon="9.840009175599281"><ele>128.33333333333334</ele><time>2026-04-11T17:17:46Z</time></trkpt><trkpt lat="45.526086057974105" lon="9.83973467054319"><ele>129.0</ele><time>2026-04-11T17:17:47Z</time></trkpt><trkpt lat="45.526088830181095" lon="9.839462623121506"><ele>129.66666666666666</ele><time>2026-04-11T17:17:48Z</time></trkpt><trkpt lat="45.52608792742741" lon="9.839195126153987"><ele>130.33333333333331</ele><time>2026-04-11T17:17:49Z</time></trkpt><trkpt lat="45.52608331218184" lon="9.838948539234584"><ele>131.0</ele><time>2026-04-11T17:17:50Z</time></trkpt><trkpt lat="45.52607593263785" lon="9.838727514263908"><ele>131.0</ele><time>2026-04-11T17:17:51Z</time></trkpt><trkpt lat="45.52607331020976" lon="9.838524807843726"><ele>131.0</ele><time>2026-04-11T17:17:52Z</time></trkpt><trkpt lat="45.526093938721274" lon="9.838355806271842"><ele>131.0</ele><time>2026-04-11T17:17:53Z</time></trkpt><trkpt lat="45.52609943141106" lon="9.838213045217318"><ele>131.0</ele><time>2026-04-11T17:17:54Z</time></trkpt><trkpt lat="45.52613503599434" lon="9.838111204369751"><ele>131.0</ele><time>2026-04-11T17:17:55Z</time></trkpt><trkpt lat="45.526223475879995" lon="9.838057490597878"><ele>130.75</ele><time>2026-04-11T17:17:56Z</time></trkpt><trkpt lat="45.52632658444004" lon="9.837973234948723"><ele>130.5</ele><time>2026-04-11T17:17:57Z</time></trkpt><trkpt lat="45.52642668252897" lon="9.837827486327795"><ele>130.25</ele><time>2026-04-11T17:17:58Z</time></trkpt><trkpt lat="45.526481739436754" lon="9.83762336640499"><ele>130.0</ele><time>2026-04-11T17:17:59Z</time></trkpt><trkpt lat="45.526363375178235" lon="9.837455281405024"><ele>129.75</ele><time>2026-04-11T17:18:00Z</time></trkpt><trkpt lat="45.52624866569348" lon="9.837325545928591"><ele>129.5</ele><time>2026-04-11T17:18:01Z</time></trkpt><trkpt lat="45.52616485022556" lon="9.837214143853336"><ele>129.25</ele><time>2026-04-11T17:18:02Z</time></trkpt><trkpt lat="45.52609719454719" lon="9.837024647663801"><ele>129.0</ele><time>2026-04-11T17:18:03Z</time></trkpt><trkpt lat="45.52613943326998" lon="9.836835928339381"><ele>130.0</ele><time>2026-04-11T17:18:04Z</time></trkpt><trkpt lat="45.526128016973665" lon="9.836593573378284"><ele>131.0</ele><time>2026-04-11T17:18:05Z</time></trkpt><trkpt lat="45.52612089020307" lon="9.836327437870155"><ele>132.0</ele><time>2026-04-11T17:18:06Z</time></trkpt><trkpt lat="45.52612623279503" lon="9.836036101764144"><ele>131.33333333333334</ele><time>2026-04-11T17:18:07Z</time></trkpt><trkpt lat="45.526115206126846" lon="9.835772499740417"><ele>130.66666666666669</ele><time>2026-04-11T17:18:08Z</time></trkpt><trkpt lat="45.52611192201826" lon="9.83562938371004"><ele>130.0</ele><time>2026-04-11T17:18:09Z</time></trkpt><trkpt lat="45.52610031328093" lon="9.83537100367753"><ele>129.33333333333334</ele><time>2026-04-11T17:18:10Z</time></trkpt><trkpt lat="45.526083995921134" lon="9.8351372645953"><ele>128.66666666666666</ele><time>2026-04-11T17:18:11Z</time></trkpt><trkpt lat="45.526070207554106" lon="9.83490924375754"><ele>128.0</ele><time>2026-04-11T17:18:12Z</time></trkpt><trkpt lat="45.526059329815745" lon="9.834709950754842"><ele>128.0</ele><time>2026-04-11T17:18:13Z</time></trkpt><trkpt lat="45.52604376364937" lon="9.834508192379944"><ele>128.0</ele><time>2026-04-11T17:18:14Z</time></trkpt><trkpt lat="45.52605139055369" lon="9.834328672568365"><ele>128.0</ele><time>2026-04-11T17:18:15Z</time></trkpt><trkpt lat="45.526037823366345" lon="9.834195888293122"><ele>128.0</ele><time>2026-04-11T17:18:16Z</time></trkpt><trkpt lat="45.52605470619526" lon="9.83405353729215"><ele>128.25</ele><time>2026-04-11T17:18:17Z</time></trkpt><trkpt lat="45.52617692688037" lon="9.833945994870854"><ele>128.5</ele><time>2026-04-11T17:18:18Z</time></trkpt><trkpt lat="45.526237165789325" lon="9.83378188028413"><ele>128.75</ele><time>2026-04-11T17:18:19Z</time></trkpt><trkpt lat="45.52631489036804" lon="9.833647434353015"><ele>129.0</ele><time>2026-04-11T17:18:20Z</time></trkpt><trkpt lat="45.526477761802774" lon="9.83368087647232"><ele>129.0</ele><time>2026-04-11T17:18:21Z</time></trkpt><trkpt lat="45.52663605720339" lon="9.833659379604416"><ele>129.0</ele><time>2026-04-11T17:18:22Z</time></trkpt><trkpt lat="45.52679603086856" lon="9.833616759827695"><ele>129.0</ele><time>2026-04-11T17:18:23Z</time></trkpt><trkpt lat="45.52697769489995" lon="9.833597385744161"><ele>129.33333333333334</ele><time>2026-04-11T17:18:24Z</time></trkpt><trkpt lat="45.527167188205446" lon="9.833567921451165"><ele>129.66666666666669</ele><time>2026-04-11T17:18:25Z</time></trkpt><trkpt lat="45.52737142024093" lon="9.833543242278301"><ele>130.0</ele><time>2026-04-11T17:18:26Z</time></trkpt><trkpt lat="45.5275929348122" lon="9.833510365096751"><ele>130.0</ele><time>2026-04-11T17:18:27Z</time></trkpt><trkpt lat="45.52781660309122" lon="9.833488753080244"><ele>130.0</ele><time>2026-04-11T17:18:28Z</time></trkpt><trkpt lat="45.52804524031284" lon="9.833463426418461"><ele>130.5</ele><time>2026-04-11T17:18:29Z</time></trkpt><trkpt lat="45.52828013069927" lon="9.833434288841046"><ele>131.0</ele><time>2026-04-11T17:18:30Z</time></trkpt><trkpt lat="45.528517733340294" lon="9.833395750793153"><ele>130.5</ele><time>2026-04-11T17:18:31Z</time></trkpt><trkpt lat="45.52877913469731" lon="9.833362122632627"><ele>130.0</ele><time>2026-04-11T17:18:32Z</time></trkpt><trkpt lat="45.52902268087056" lon="9.83333126389455"><ele>130.0</ele><time>2026-04-11T17:18:33Z</time></trkpt><trkpt lat="45.52926611295235" lon="9.833290489186673"><ele>130.0</ele><time>2026-04-11T17:18:34Z</time></trkpt><trkpt lat="45.52951987925482" lon="9.833243193927077"><ele>130.0</ele><time>2026-04-11T17:18:35Z</time></trkpt><trkpt lat="45.52977417332198" lon="9.833202412698766"><ele>130.0</ele><time>2026-04-11T17:18:36Z</time></trkpt><trkpt lat="45.53003321146533" lon="9.833164902093436"><ele>130.0</ele><time>2026-04-11T17:18:37Z</time></trkpt><trkpt lat="45.53028506112383" lon="9.833122443543568"><ele>130.0</ele><time>2026-04-11T17:18:38Z</time></trkpt><trkpt lat="45.53054068256251" lon="9.833080139551813"><ele>131.5</ele><time>2026-04-11T17:18:39Z</time></trkpt><trkpt lat="45.53080409602576" lon="9.83301322554476"><ele>133.0</ele><time>2026-04-11T17:18:40Z</time></trkpt><trkpt lat="45.53105194430585" lon="9.832957482367236"><ele>133.5</ele><time>2026-04-11T17:18:41Z</time></trkpt><trkpt lat="45.531297884422735" lon="9.832898401219104"><ele>134.0</ele><time>2026-04-11T17:18:42Z</time></trkpt><trkpt lat="45.531538752982264" lon="9.832850596499759"><ele>134.0</ele><time>2026-04-11T17:18:43Z</time></trkpt><trkpt lat="45.53178340739127" lon="9.832792863805064"><ele>134.0</ele><time>2026-04-11T17:18:44Z</time></trkpt><trkpt lat="45.53203066695584" lon="9.832728420122093"><ele>134.0</ele><time>2026-04-11T17:18:45Z</time></trkpt><trkpt lat="45.53226802115956" lon="9.832670809851695"><ele>134.0</ele><time>2026-04-11T17:18:46Z</time></trkpt><trkpt lat="45.53251559705739" lon="9.83261328756002"><ele>134.0</ele><time>2026-04-11T17:18:47Z</time></trkpt><trkpt lat="45.532760742992295" lon="9.832557853132894"><ele>134.0</ele><time>2026-04-11T17:18:48Z</time></trkpt><trkpt lat="45.533019899104666" lon="9.832499343821612"><ele>134.5</ele><time>2026-04-11T17:18:49Z</time></trkpt><trkpt lat="45.533287751720266" lon="9.83243544568399"><ele>135.0</ele><time>2026-04-11T17:18:50Z</time></trkpt><trkpt lat="45.53355932529189" lon="9.832363373261913"><ele>135.5</ele><time>2026-04-11T17:18:51Z</time></trkpt><trkpt lat="45.533826347417026" lon="9.832325800540193"><ele>136.0</ele><time>2026-04-11T17:18:52Z</time></trkpt><trkpt lat="45.53408078141818" lon="9.832265806220423"><ele>136.0</ele><time>2026-04-11T17:18:53Z</time></trkpt><trkpt lat="45.53432852770561" lon="9.832192072168336"><ele>136.0</ele><time>2026-04-11T17:18:54Z</time></trkpt><trkpt lat="45.53456574621925" lon="9.832095662803917"><ele>135.5</ele><time>2026-04-11T17:18:55Z</time></trkpt><trkpt lat="45.53481017799882" lon="9.831998161600119"><ele>135.0</ele><time>2026-04-11T17:18:56Z</time></trkpt><trkpt lat="45.535057675463214" lon="9.831879093748066"><ele>135.0</ele><time>2026-04-11T17:18:57Z</time></trkpt><trkpt lat="45.53529386805738" lon="9.83173187814861"><ele>135.0</ele><time>2026-04-11T17:18:58Z</time></trkpt><trkpt lat="45.53555204579965" lon="9.831565677599777"><ele>135.0</ele><time>2026-04-11T17:18:59Z</time></trkpt><trkpt lat="45.535808922729494" lon="9.831402105253106"><ele>135.0</ele><time>2026-04-11T17:19:00Z</time></trkpt><trkpt lat="45.53606802194547" lon="9.831237460009987"><ele>135.5</ele><time>2026-04-11T17:19:01Z</time></trkpt><trkpt lat="45.53632396416973" lon="9.831074214122522"><ele>136.0</ele><time>2026-04-11T17:19:02Z</time></trkpt><trkpt lat="45.53656633164247" lon="9.830905447723417"><ele>136.0</ele><time>2026-04-11T17:19:03Z</time></trkpt><trkpt lat="45.5368036060205" lon="9.8307494861401"><ele>136.0</ele><time>2026-04-11T17:19:04Z</time></trkpt><trkpt lat="45.53704002143889" lon="9.830586468456625"><ele>136.0</ele><time>2026-04-11T17:19:05Z</time></trkpt><trkpt lat="45.53727423718276" lon="9.830420964498087"><ele>136.0</ele><time>2026-04-11T17:19:06Z</time></trkpt><trkpt lat="45.53750307029214" lon="9.830259347934392"><ele>136.0</ele><time>2026-04-11T17:19:07Z</time></trkpt><trkpt lat="45.537720311469364" lon="9.830097540695398"><ele>136.0</ele><time>2026-04-11T17:19:08Z</time></trkpt><trkpt lat="45.53794085945621" lon="9.829933298079068"><ele>136.0</ele><time>2026-04-11T17:19:09Z</time></trkpt><trkpt lat="45.53815087957741" lon="9.829773299675068"><ele>136.0</ele><time>2026-04-11T17:19:10Z</time></trkpt><trkpt lat="45.5383498718472" lon="9.829616943872402"><ele>136.0</ele><time>2026-04-11T17:19:11Z</time></trkpt><trkpt lat="45.53853562344955" lon="9.829471988065167"><ele>136.0</ele><time>2026-04-11T17:19:12Z</time></trkpt><trkpt lat="45.53869836908379" lon="9.829334861587585"><ele>136.0</ele><time>2026-04-11T17:19:13Z</time></trkpt><trkpt lat="45.53883988533304" lon="9.829215545387022"><ele>136.25</ele><time>2026-04-11T17:19:14Z</time></trkpt><trkpt lat="45.538967298064456" lon="9.829114888849482"><ele>136.5</ele><time>2026-04-11T17:19:15Z</time></trkpt><trkpt lat="45.53907091311535" lon="9.8290318301623"><ele>136.75</ele><time>2026-04-11T17:19:16Z</time></trkpt><trkpt lat="45.53916947960461" lon="9.828958650427934"><ele>137.0</ele><time>2026-04-11T17:19:17Z</time></trkpt><trkpt lat="45.53927472647939" lon="9.828909774955859"><ele>137.0</ele><time>2026-04-11T17:19:18Z</time></trkpt><trkpt lat="45.539371630852166" lon="9.829003149900732"><ele>137.0</ele><time>2026-04-11T17:19:19Z</time></trkpt><trkpt lat="45.5394855453808" lon="9.828977927081473"><ele>137.0</ele><time>2026-04-11T17:19:20Z</time></trkpt><trkpt lat="45.53959576951248" lon="9.828957460154816"><ele>137.0</ele><time>2026-04-11T17:19:21Z</time></trkpt><trkpt lat="45.53968419044259" lon="9.828886418957815"><ele>137.0</ele><time>2026-04-11T17:19:22Z</time></trkpt><trkpt lat="45.53974141480471" lon="9.828773682856115"><ele>137.0</ele><time>2026-04-11T17:19:23Z</time></trkpt><trkpt lat="45.53979500418613" lon="9.828618668306524"><ele>137.0</ele><time>2026-04-11T17:19:24Z</time></trkpt><trkpt lat="45.53982627633738" lon="9.828472763533505"><ele>137.0</ele><time>2026-04-11T17:19:25Z</time></trkpt><trkpt lat="45.539892200752" lon="9.828321887233216"><ele>137.0</ele><time>2026-04-11T17:19:26Z</time></trkpt><trkpt lat="45.540023493522526" lon="9.828209657993607"><ele>137.0</ele><time>2026-04-11T17:19:27Z</time></trkpt><trkpt lat="45.54017530195348" lon="9.828118398445293"><ele>137.0</ele><time>2026-04-11T17:19:28Z</time></trkpt><trkpt lat="45.540322205216164" lon="9.827978629853584"><ele>137.0</ele><time>2026-04-11T17:19:29Z</time></trkpt><trkpt lat="45.54048161638239" lon="9.827829071882503"><ele>137.0</ele><time>2026-04-11T17:19:30Z</time></trkpt><trkpt lat="45.540655948924616" lon="9.827662076558989"><ele>137.0</ele><time>2026-04-11T17:19:31Z</time></trkpt><trkpt lat="45.54082627731345" lon="9.82747989834463"><ele>137.0</ele><time>2026-04-11T17:19:32Z</time></trkpt><trkpt lat="45.54102273840188" lon="9.827285137393577"><ele>137.0</ele><time>2026-04-11T17:19:33Z</time></trkpt><trkpt lat="45.54121515181065" lon="9.827094193155213"><ele>137.0</ele><time>2026-04-11T17:19:34Z</time></trkpt><trkpt lat="45.54141965809658" lon="9.82688739955072"><ele>136.5</ele><time>2026-04-11T17:19:35Z</time></trkpt><trkpt lat="45.5416350566336" lon="9.826681222388178"><ele>136.0</ele><time>2026-04-11T17:19:36Z</time></trkpt><trkpt lat="45.54184782619133" lon="9.826497819665782"><ele>136.5</ele><time>2026-04-11T17:19:37Z</time></trkpt><trkpt lat="45.54205931376544" lon="9.826317783145607"><ele>137.0</ele><time>2026-04-11T17:19:38Z</time></trkpt><trkpt lat="45.542292775565606" lon="9.826119435590835"><ele>137.0</ele><time>2026-04-11T17:19:39Z</time></trkpt><trkpt lat="45.54250919810209" lon="9.825924268620401"><ele>137.0</ele><time>2026-04-11T17:19:40Z</time></trkpt><trkpt lat="45.54274364648485" lon="9.825762074060234"><ele>137.0</ele><time>2026-04-11T17:19:41Z</time></trkpt><trkpt lat="45.54299069612628" lon="9.825578870620427"><ele>137.0</ele><time>2026-04-11T17:19:42Z</time></trkpt><trkpt lat="45.54324695250435" lon="9.825392633894984"><ele>137.0</ele><time>2026-04-11T17:19:43Z</time></trkpt><trkpt lat="45.54350867538883" lon="9.825211281225428"><ele>137.0</ele><time>2026-04-11T17:19:44Z</time></trkpt><trkpt lat="45.54378068610398" lon="9.825032429720824"><ele>137.5</ele><time>2026-04-11T17:19:45Z</time></trkpt><trkpt lat="45.54404841301678" lon="9.824841771109387"><ele>138.0</ele><time>2026-04-11T17:19:46Z</time></trkpt><trkpt lat="45.54430614298568" lon="9.82469395795409"><ele>138.0</ele><time>2026-04-11T17:19:47Z</time></trkpt><trkpt lat="45.54455299805081" lon="9.824554871148562"><ele>138.0</ele><time>2026-04-11T17:19:48Z</time></trkpt><trkpt lat="45.544799952922915" lon="9.824426856373712"><ele>138.0</ele><time>2026-04-11T17:19:49Z</time></trkpt><trkpt lat="45.54503497615213" lon="9.82430496125483"><ele>138.0</ele><time>2026-04-11T17:19:50Z</time></trkpt><trkpt lat="45.54526967014753" lon="9.824182706375797"><ele>139.0</ele><time>2026-04-11T17:19:51Z</time></trkpt><trkpt lat="45.54549145389602" lon="9.824068817977446"><ele>140.0</ele><time>2026-04-11T17:19:52Z</time></trkpt><trkpt lat="45.5457195911957" lon="9.823961394264776"><ele>140.0</ele><time>2026-04-11T17:19:53Z</time></trkpt><trkpt lat="45.54594464892849" lon="9.823862733191046"><ele>140.0</ele><time>2026-04-11T17:19:54Z</time></trkpt><trkpt lat="45.5461612804788" lon="9.823777679123321"><ele>139.33333333333331</ele><time>2026-04-11T17:19:55Z</time></trkpt><trkpt lat="45.54637284989861" lon="9.823690610469539"><ele>138.66666666666666</ele><time>2026-04-11T17:19:56Z</time></trkpt><trkpt lat="45.54658567891127" lon="9.823602762527875"><ele>138.0</ele><time>2026-04-11T17:19:57Z</time></trkpt><trkpt lat="45.54678330601679" lon="9.823528915752648"><ele>138.0</ele><time>2026-04-11T17:19:58Z</time></trkpt><trkpt lat="45.54694947189168" lon="9.8234944351832"><ele>138.0</ele><time>2026-04-11T17:19:59Z</time></trkpt><trkpt lat="45.54711340409092" lon="9.823423841724255"><ele>138.0</ele><time>2026-04-11T17:20:00Z</time></trkpt><trkpt lat="45.547268170351956" lon="9.82337541483733"><ele>137.75</ele><time>2026-04-11T17:20:01Z</time></trkpt><trkpt lat="45.54740613524718" lon="9.823319644595792"><ele>137.5</ele><time>2026-04-11T17:20:02Z</time></trkpt><trkpt lat="45.547538731389906" lon="9.823294521263636"><ele>137.25</ele><time>2026-04-11T17:20:03Z</time></trkpt><trkpt lat="45.54766603027066" lon="9.823257212389725"><ele>137.0</ele><time>2026-04-11T17:20:04Z</time></trkpt><trkpt lat="45.54777772331771" lon="9.823271735544738"><ele>137.0</ele><time>2026-04-11T17:20:05Z</time></trkpt><trkpt lat="45.547866174186815" lon="9.82342162864188"><ele>137.0</ele><time>2026-04-11T17:20:06Z</time></trkpt><trkpt lat="45.54797379100295" lon="9.823504863679316"><ele>137.0</ele><time>2026-04-11T17:20:07Z</time></trkpt><trkpt lat="45.548076183331446" lon="9.823571676589612"><ele>137.0</ele><time>2026-04-11T17:20:08Z</time></trkpt><trkpt lat="45.548091372520275" lon="9.823816468914163"><ele>138.33333333333331</ele><time>2026-04-11T17:20:09Z</time></trkpt><trkpt lat="45.5481195194293" lon="9.824021092300136"><ele>139.66666666666666</ele><time>2026-04-11T17:20:10Z</time></trkpt><trkpt lat="45.54816971943592" lon="9.824226609664064"><ele>141.0</ele><time>2026-04-11T17:20:11Z</time></trkpt><trkpt lat="45.54820123839548" lon="9.824461032698379"><ele>141.0</ele><time>2026-04-11T17:20:12Z</time></trkpt><trkpt lat="45.548244261676814" lon="9.824708311274524"><ele>141.0</ele><time>2026-04-11T17:20:13Z</time></trkpt><trkpt lat="45.54828885707979" lon="9.824976983576137"><ele>141.0</ele><time>2026-04-11T17:20:14Z</time></trkpt><trkpt lat="45.5483488811413" lon="9.82525366351019"><ele>140.66666666666666</ele><time>2026-04-11T17:20:15Z</time></trkpt><trkpt lat="45.54840250136745" lon="9.825504813875233"><ele>140.33333333333331</ele><time>2026-04-11T17:20:16Z</time></trkpt><trkpt lat="45.54845901391973" lon="9.825762362415722"><ele>140.0</ele><time>2026-04-11T17:20:17Z</time></trkpt><trkpt lat="45.548519749919016" lon="9.826018520641682"><ele>140.0</ele><time>2026-04-11T17:20:18Z</time></trkpt><trkpt lat="45.54858128331738" lon="9.826265904595047"><ele>140.0</ele><time>2026-04-11T17:20:19Z</time></trkpt><trkpt lat="45.54865042118944" lon="9.82652190176573"><ele>140.0</ele><time>2026-04-11T17:20:20Z</time></trkpt><trkpt lat="45.54871658310634" lon="9.826776610236388"><ele>140.0</ele><time>2026-04-11T17:20:21Z</time></trkpt><trkpt lat="45.54879141922895" lon="9.827034546431666"><ele>140.0</ele><time>2026-04-11T17:20:22Z</time></trkpt><trkpt lat="45.54887009057721" lon="9.827291259702362"><ele>140.0</ele><time>2026-04-11T17:20:23Z</time></trkpt><trkpt lat="45.548952538431415" lon="9.827527580558536"><ele>140.0</ele><time>2026-04-11T17:20:24Z</time></trkpt><trkpt lat="45.54903996231267" lon="9.827772798896907"><ele>140.0</ele><time>2026-04-11T17:20:25Z</time></trkpt><trkpt lat="45.549122618605644" lon="9.828018796343787"><ele>140.0</ele><time>2026-04-11T17:20:26Z</time></trkpt><trkpt lat="45.54920452970998" lon="9.828252508183175"><ele>140.0</ele><time>2026-04-11T17:20:27Z</time></trkpt><trkpt lat="45.54928745700844" lon="9.828484855549432"><ele>140.0</ele><time>2026-04-11T17:20:28Z</time></trkpt><trkpt lat="45.54936733027389" lon="9.828711262836144"><ele>140.0</ele><time>2026-04-11T17:20:29Z</time></trkpt><trkpt lat="45.54943664471194" lon="9.828923930241455"><ele>140.0</ele><time>2026-04-11T17:20:30Z</time></trkpt><trkpt lat="45.54951444294299" lon="9.829137107720415"><ele>140.0</ele><time>2026-04-11T17:20:31Z</time></trkpt><trkpt lat="45.5495842469666" lon="9.829328500664142"><ele>140.0</ele><time>2026-04-11T17:20:32Z</time></trkpt><trkpt lat="45.54965457610049" lon="9.829511369232282"><ele>140.66666666666666</ele><time>2026-04-11T17:20:33Z</time></trkpt><trkpt lat="45.549726016667016" lon="9.829686256134591"><ele>141.33333333333334</ele><time>2026-04-11T17:20:34Z</time></trkpt><trkpt lat="45.549794535269506" lon="9.829860453547168"><ele>142.0</ele><time>2026-04-11T17:20:35Z</time></trkpt><trkpt lat="45.54986879116072" lon="9.830086473611797"><ele>142.0</ele><time>2026-04-11T17:20:36Z</time></trkpt><trkpt lat="45.54994344919976" lon="9.830325210424153"><ele>142.0</ele><time>2026-04-11T17:20:37Z</time></trkpt><trkpt lat="45.550037821762885" lon="9.830566006980852"><ele>142.0</ele><time>2026-04-11T17:20:38Z</time></trkpt><trkpt lat="45.550140890709876" lon="9.830825185639208"><ele>142.0</ele><time>2026-04-11T17:20:39Z</time></trkpt><trkpt lat="45.5502391500399" lon="9.831094376263373"><ele>142.0</ele><time>2026-04-11T17:20:40Z</time></trkpt><trkpt lat="45.550327403881994" lon="9.83137412386823"><ele>142.0</ele><time>2026-04-11T17:20:41Z</time></trkpt><trkpt lat="45.55043107422864" lon="9.831652268090117"><ele>142.0</ele><time>2026-04-11T17:20:42Z</time></trkpt><trkpt lat="45.55053911199849" lon="9.831905050761542"><ele>142.0</ele><time>2026-04-11T17:20:43Z</time></trkpt><trkpt lat="45.550618858521084" lon="9.832147536917352"><ele>142.0</ele><time>2026-04-11T17:20:44Z</time></trkpt><trkpt lat="45.550688417868464" lon="9.832380814944596"><ele>142.0</ele><time>2026-04-11T17:20:45Z</time></trkpt><trkpt lat="45.55076053441256" lon="9.832601103965015"><ele>142.0</ele><time>2026-04-11T17:20:46Z</time></trkpt><trkpt lat="45.5508345883756" lon="9.832798892390425"><ele>142.0</ele><time>2026-04-11T17:20:47Z</time></trkpt><trkpt lat="45.550901585104825" lon="9.832954820925774"><ele>141.5</ele><time>2026-04-11T17:20:48Z</time></trkpt><trkpt lat="45.55095174328431" lon="9.833086630574384"><ele>141.0</ele><time>2026-04-11T17:20:49Z</time></trkpt><trkpt lat="45.55097462521536" lon="9.83319028103708"><ele>140.5</ele><time>2026-04-11T17:20:50Z</time></trkpt><trkpt lat="45.550994464666736" lon="9.833294588215615"><ele>140.0</ele><time>2026-04-11T17:20:51Z</time></trkpt><trkpt lat="45.551019396020365" lon="9.833407219578781"><ele>139.5</ele><time>2026-04-11T17:20:52Z</time></trkpt><trkpt lat="45.551068076609255" lon="9.833470576606818"><ele>139.0</ele><time>2026-04-11T17:20:53Z</time></trkpt><trkpt lat="45.551141389959554" lon="9.833483425628064"><ele>139.25</ele><time>2026-04-11T17:20:54Z</time></trkpt><trkpt lat="45.55122730599787" lon="9.833452756975463"><ele>139.5</ele><time>2026-04-11T17:20:55Z</time></trkpt><trkpt lat="45.55133765585541" lon="9.833438787179198"><ele>139.75</ele><time>2026-04-11T17:20:56Z</time></trkpt><trkpt lat="45.55148830478203" lon="9.833418545987215"><ele>140.0</ele><time>2026-04-11T17:20:57Z</time></trkpt><trkpt lat="45.5516712121227" lon="9.833412086194036"><ele>140.0</ele><time>2026-04-11T17:20:58Z</time></trkpt><trkpt lat="45.55185281719309" lon="9.83339740366608"><ele>140.0</ele><time>2026-04-11T17:20:59Z</time></trkpt><trkpt lat="45.5520154097825" lon="9.833384068733464"><ele>140.0</ele><time>2026-04-11T17:21:00Z</time></trkpt><trkpt lat="45.55216663835312" lon="9.833372619103109"><ele>141.25</ele><time>2026-04-11T17:21:01Z</time></trkpt><trkpt lat="45.55231934668736" lon="9.833352924184796"><ele>142.5</ele><time>2026-04-11T17:21:02Z</time></trkpt><trkpt lat="45.55245571303024" lon="9.833347384445984"><ele>143.75</ele><time>2026-04-11T17:21:03Z</time></trkpt><trkpt lat="45.55258153476174" lon="9.833328560011502"><ele>145.0</ele><time>2026-04-11T17:21:04Z</time></trkpt><trkpt lat="45.55273243316287" lon="9.833309227957779"><ele>145.0</ele><time>2026-04-11T17:21:05Z</time></trkpt><trkpt lat="45.552870614848814" lon="9.833329519544996"><ele>145.0</ele><time>2026-04-11T17:21:06Z</time></trkpt><trkpt lat="45.553000311848436" lon="9.833323365311388"><ele>145.0</ele><time>2026-04-11T17:21:07Z</time></trkpt><trkpt lat="45.55311693705281" lon="9.833314036505826"><ele>145.0</ele><time>2026-04-11T17:21:08Z</time></trkpt><trkpt lat="45.55321398316765" lon="9.833290406774285"><ele>145.4</ele><time>2026-04-11T17:21:09Z</time></trkpt><trkpt lat="45.5533251467843" lon="9.833242955529782"><ele>145.8</ele><time>2026-04-11T17:21:10Z</time></trkpt><trkpt lat="45.553426934107904" lon="9.833218092842387"><ele>146.2</ele><time>2026-04-11T17:21:11Z</time></trkpt><trkpt lat="45.55353372965468" lon="9.833196467779986"><ele>146.6</ele><time>2026-04-11T17:21:12Z</time></trkpt><trkpt lat="45.55364958121163" lon="9.833176953071215"><ele>147.0</ele><time>2026-04-11T17:21:13Z</time></trkpt><trkpt lat="45.553759750789865" lon="9.833159074705042"><ele>147.6</ele><time>2026-04-11T17:21:14Z</time></trkpt><trkpt lat="45.553861930778005" lon="9.833135744325165"><ele>148.2</ele><time>2026-04-11T17:21:15Z</time></trkpt><trkpt lat="45.55395608143821" lon="9.83311073454459"><ele>148.8</ele><time>2026-04-11T17:21:16Z</time></trkpt><trkpt lat="45.554047928013375" lon="9.833094790555492"><ele>149.4</ele><time>2026-04-11T17:21:17Z</time></trkpt><trkpt lat="45.55414856737364" lon="9.833062100833523"><ele>150.0</ele><time>2026-04-11T17:21:18Z</time></trkpt><trkpt lat="45.55424638470247" lon="9.83294475797063"><ele>150.0</ele><time>2026-04-11T17:21:19Z</time></trkpt><trkpt lat="45.55434086100928" lon="9.832775069926313"><ele>150.0</ele><time>2026-04-11T17:21:20Z</time></trkpt><trkpt lat="45.554423510249514" lon="9.83266177407806"><ele>150.0</ele><time>2026-04-11T17:21:21Z</time></trkpt><trkpt lat="45.5545178583417" lon="9.83257437441684"><ele>150.0</ele><time>2026-04-11T17:21:22Z</time></trkpt><trkpt lat="45.554608060560625" lon="9.83251737890699"><ele>149.99999999999997</ele><time>2026-04-11T17:21:23Z</time></trkpt><trkpt lat="45.5546859439415" lon="9.832492339484547"><ele>150.0</ele><time>2026-04-11T17:21:24Z</time></trkpt><trkpt lat="45.554749432157955" lon="9.832514846009778"><ele>150.0</ele><time>2026-04-11T17:21:25Z</time></trkpt><trkpt lat="45.55482777608277" lon="9.832500520548455"><ele>150.0</ele><time>2026-04-11T17:21:29Z</time></trkpt><trkpt lat="45.55489781546391" lon="9.8324911080019"><ele>150.0</ele><time>2026-04-11T17:21:31Z</time></trkpt><trkpt lat="45.554978294139325" lon="9.832502958013771"><ele>149.99999999999997</ele><time>2026-04-11T17:21:33Z</time></trkpt><trkpt lat="45.555051258613176" lon="9.832496049294962"><ele>150.0</ele><time>2026-04-11T17:21:35Z</time></trkpt><trkpt lat="45.555140365669494" lon="9.832494877678535"><ele>150.0</ele><time>2026-04-11T17:21:37Z</time></trkpt><trkpt lat="45.55522747364418" lon="9.832501702796586"><ele>150.0</ele><time>2026-04-11T17:21:39Z</time></trkpt><trkpt lat="45.5553092121632" lon="9.832506380480469"><ele>150.0</ele><time>2026-04-11T17:21:42Z</time></trkpt><trkpt lat="45.55538369171289" lon="9.832530247958015"><ele>150.0</ele><time>2026-04-11T17:21:45Z</time></trkpt><trkpt lat="45.55547914203454" lon="9.832566838521702"><ele>150.0</ele><time>2026-04-11T17:21:54Z</time></trkpt><trkpt lat="45.555562632504525" lon="9.832543323623247"><ele>150.0</ele><time>2026-04-11T17:21:56Z</time></trkpt><trkpt lat="45.55562690257728" lon="9.832560199567604"><ele>150.0</ele><time>2026-04-11T17:21:57Z</time></trkpt><trkpt lat="45.55572237217273" lon="9.832509545965394"><ele>150.0</ele><time>2026-04-11T17:21:59Z</time></trkpt><trkpt lat="45.55583708285731" lon="9.83251102935441"><ele>150.0</ele><time>2026-04-11T17:22:01Z</time></trkpt><trkpt lat="45.55594078611438" lon="9.832513310882655"><ele>150.0</ele><time>2026-04-11T17:22:03Z</time></trkpt><trkpt lat="45.55602335782607" lon="9.832538022111681"><ele>150.0</ele><time>2026-04-11T17:22:05Z</time></trkpt><trkpt lat="45.556111023941874" lon="9.83256439042152"><ele>150.0</ele><time>2026-04-11T17:22:07Z</time></trkpt><trkpt lat="45.556198687301574" lon="9.832572220559145"><ele>150.0</ele><time>2026-04-11T17:22:09Z</time></trkpt><trkpt lat="45.55631210511428" lon="9.832596393330244"><ele>150.0</ele><time>2026-04-11T17:22:11Z</time></trkpt><trkpt lat="45.55637438461895" lon="9.832617502763362"><ele>150.0</ele><time>2026-04-11T17:22:12Z</time></trkpt><trkpt lat="45.5564806094696" lon="9.832626943259763"><ele>150.0</ele><time>2026-04-11T17:22:14Z</time></trkpt><trkpt lat="45.55651747292565" lon="9.832514424030727"><ele>149.8</ele><time>2026-04-11T17:22:16Z</time></trkpt><trkpt lat="45.556531390983125" lon="9.832385942044096"><ele>149.6</ele><time>2026-04-11T17:22:18Z</time></trkpt><trkpt lat="45.5565143120405" lon="9.832199209436684"><ele>149.4</ele><time>2026-04-11T17:22:20Z</time></trkpt><trkpt lat="45.55648057537133" lon="9.832082963954033"><ele>149.2</ele><time>2026-04-11T17:22:21Z</time></trkpt><trkpt lat="45.556437316438405" lon="9.831940315758505"><ele>149.0</ele><time>2026-04-11T17:22:22Z</time></trkpt><trkpt lat="45.55639723268361" lon="9.831801181211521"><ele>148.83333333333331</ele><time>2026-04-11T17:22:23Z</time></trkpt><trkpt lat="45.556354525443744" lon="9.831693226416474"><ele>148.66666666666666</ele><time>2026-04-11T17:22:24Z</time></trkpt><trkpt lat="45.5563303699693" lon="9.831605278897662"><ele>148.5</ele><time>2026-04-11T17:22:25Z</time></trkpt><trkpt lat="45.55632888744567" lon="9.831430036346546"><ele>148.33333333333334</ele><time>2026-04-11T17:22:27Z</time></trkpt><trkpt lat="45.55628309597136" lon="9.831328865909667"><ele>148.16666666666669</ele><time>2026-04-11T17:22:28Z</time></trkpt><trkpt lat="45.556255922379115" lon="9.83123037875418"><ele>148.0</ele><time>2026-04-11T17:22:30Z</time></trkpt><trkpt lat="45.55622323175604" lon="9.831087189230892"><ele>147.75</ele><time>2026-04-11T17:22:32Z</time></trkpt><trkpt lat="45.556155268208194" lon="9.830901870602727"><ele>147.5</ele><time>2026-04-11T17:22:34Z</time></trkpt><trkpt lat="45.55607265401049" lon="9.830704288295442"><ele>147.25</ele><time>2026-04-11T17:22:35Z</time></trkpt><trkpt lat="45.55601006282309" lon="9.830545463500073"><ele>147.0</ele><time>2026-04-11T17:22:36Z</time></trkpt><trkpt lat="45.555952599381435" lon="9.830405945922184"><ele>147.0</ele><time>2026-04-11T17:22:37Z</time></trkpt><trkpt lat="45.55592926609573" lon="9.830282267213967"><ele>147.0</ele><time>2026-04-11T17:22:38Z</time></trkpt><trkpt lat="45.555894089174686" lon="9.830177570621215"><ele>147.0</ele><time>2026-04-11T17:22:39Z</time></trkpt><trkpt lat="45.55586019164594" lon="9.830067783939754"><ele>147.0</ele><time>2026-04-11T17:22:40Z</time></trkpt><trkpt lat="45.55583401040921" lon="9.829967281005791"><ele>147.0</ele><time>2026-04-11T17:22:41Z</time></trkpt><trkpt lat="45.555686824856" lon="9.829863614599107"><ele>147.0</ele><time>2026-04-11T17:22:42Z</time></trkpt><trkpt lat="45.555570269417785" lon="9.829857607671826"><ele>147.0</ele><time>2026-04-11T17:22:43Z</time></trkpt><trkpt lat="45.55544045409837" lon="9.829854998800222"><ele>147.0</ele><time>2026-04-11T17:22:44Z</time></trkpt><trkpt lat="45.55535099598487" lon="9.829839810896607"><ele>147.0</ele><time>2026-04-11T17:22:45Z</time></trkpt><trkpt lat="45.55527451622172" lon="9.829808405724394"><ele>147.0</ele><time>2026-04-11T17:22:46Z</time></trkpt><trkpt lat="45.55519846445229" lon="9.82976060664807"><ele>147.0</ele><time>2026-04-11T17:22:47Z</time></trkpt><trkpt lat="45.5550314956402" lon="9.82964496197265"><ele>147.0</ele><time>2026-04-11T17:22:48Z</time></trkpt><trkpt lat="45.55500714628538" lon="9.830108809813304"><ele>146.79999999999998</ele><time>2026-04-11T17:22:49Z</time></trkpt><trkpt lat="45.5549849506944" lon="9.830224047545334"><ele>146.6</ele><time>2026-04-11T17:22:50Z</time></trkpt><trkpt lat="45.55498221364282" lon="9.830340408284666"><ele>146.39999999999998</ele><time>2026-04-11T17:22:52Z</time></trkpt><trkpt lat="45.55515887588431" lon="9.830324189005005"><ele>146.2</ele><time>2026-04-11T17:22:53Z</time></trkpt><trkpt lat="45.55512100917084" lon="9.830440819563966"><ele>146.0</ele><time>2026-04-11T17:22:58Z</time></trkpt><trkpt lat="45.55503075113275" lon="9.830430210394328"><ele>146.0</ele><time>2026-04-11T17:23:01Z</time></trkpt><trkpt lat="45.55496254415678" lon="9.830434505464863"><ele>146.0</ele><time>2026-04-11T17:23:02Z</time></trkpt><trkpt lat="45.554883392093444" lon="9.830441713511918"><ele>146.0</ele><time>2026-04-11T17:23:03Z</time></trkpt><trkpt lat="45.5547913752923" lon="9.830451941671429"><ele>146.0</ele><time>2026-04-11T17:23:04Z</time></trkpt><trkpt lat="45.554716821859664" lon="9.830455714675837"><ele>146.0</ele><time>2026-04-11T17:23:05Z</time></trkpt><trkpt lat="45.55462893993469" lon="9.830463304769957"><ele>146.0</ele><time>2026-04-11T17:23:06Z</time></trkpt><trkpt lat="45.55454833128322" lon="9.830486915004661"><ele>146.33333333333331</ele><time>2026-04-11T17:23:07Z</time></trkpt><trkpt lat="45.55447363581245" lon="9.830508793140043"><ele>146.66666666666666</ele><time>2026-04-11T17:23:08Z</time></trkpt><trkpt lat="45.55440613792424" lon="9.830528563100726"><ele>147.0</ele><time>2026-04-11T17:23:09Z</time></trkpt><trkpt lat="45.55444344123891" lon="9.83118864608945"><ele>147.0</ele><time>2026-04-11T17:23:10Z</time></trkpt><trkpt lat="45.55434499400828" lon="9.831216486246467"><ele>147.0</ele><time>2026-04-11T17:23:12Z</time></trkpt><trkpt lat="45.55440717795963" lon="9.83133221492906"><ele>147.0</ele><time>2026-04-11T17:23:16Z</time></trkpt><trkpt lat="45.554463982519486" lon="9.831395195961296"><ele>147.0</ele><time>2026-04-11T17:23:19Z</time></trkpt><trkpt lat="45.55451576726488" lon="9.831522200262413"><ele>147.0</ele><time>2026-04-11T17:23:20Z</time></trkpt><trkpt lat="45.554558701598275" lon="9.83163700369978"><ele>147.2</ele><time>2026-04-11T17:23:21Z</time></trkpt><trkpt lat="45.55461579126981" lon="9.83177878127023"><ele>147.39999999999998</ele><time>2026-04-11T17:23:22Z</time></trkpt><trkpt lat="45.55466583671589" lon="9.831917482877815"><ele>147.60000000000002</ele><time>2026-04-11T17:23:23Z</time></trkpt><trkpt lat="45.55469211607415" lon="9.832012699059183"><ele>147.8</ele><time>2026-04-11T17:23:24Z</time></trkpt><trkpt lat="45.55476183131393" lon="9.832152122964963"><ele>148.0</ele><time>2026-04-11T17:23:26Z</time></trkpt><trkpt lat="45.554859762434276" lon="9.83211223488474"><ele>148.4</ele><time>2026-04-11T17:23:28Z</time></trkpt><trkpt lat="45.554952465101884" lon="9.832154995133797"><ele>148.8</ele><time>2026-04-11T17:23:29Z</time></trkpt><trkpt lat="45.55505037948693" lon="9.832132661690732"><ele>149.2</ele><time>2026-04-11T17:23:31Z</time></trkpt><trkpt lat="45.55515616534905" lon="9.832196479071772"><ele>149.6</ele><time>2026-04-11T17:23:33Z</time></trkpt><trkpt lat="45.555245102774514" lon="9.832191599945677"><ele>150.0</ele><time>2026-04-11T17:23:34Z</time></trkpt><trkpt lat="45.55538028374987" lon="9.832134325867996"><ele>150.0</ele><time>2026-04-11T17:23:36Z</time></trkpt><trkpt lat="45.55549830786709" lon="9.832010956436196"><ele>150.0</ele><time>2026-04-11T17:23:39Z</time></trkpt><trkpt lat="45.555583643937254" lon="9.831975257309306"><ele>150.0</ele><time>2026-04-11T17:23:40Z</time></trkpt><trkpt lat="45.55564251305922" lon="9.831940880126192"><ele>150.0</ele><time>2026-04-11T17:23:46Z</time></trkpt><trkpt lat="45.55552321191173" lon="9.831803169343383"><ele>149.6</ele><time>2026-04-11T17:31:36Z</time></trkpt><trkpt lat="45.55547120078686" lon="9.831640545987545"><ele>149.2</ele><time>2026-04-11T17:31:38Z</time></trkpt><trkpt lat="45.55538028108872" lon="9.831527512161363"><ele>148.8</ele><time>2026-04-11T17:31:40Z</time></trkpt><trkpt lat="45.55532855517896" lon="9.831452764824885"><ele>148.4</ele><time>2026-04-11T17:31:41Z</time></trkpt><trkpt lat="45.55528893345539" lon="9.831316266695346"><ele>148.0</ele><time>2026-04-11T17:31:42Z</time></trkpt><trkpt lat="45.55529290719694" lon="9.83114898870331"><ele>148.0</ele><time>2026-04-11T17:31:43Z</time></trkpt><trkpt lat="45.55527901044458" lon="9.83100675935398"><ele>148.0</ele><time>2026-04-11T17:31:44Z</time></trkpt><trkpt lat="45.55527997734837" lon="9.830893490187561"><ele>148.0</ele><time>2026-04-11T17:31:45Z</time></trkpt><trkpt lat="45.55528392202479" lon="9.830769099761303"><ele>148.0</ele><time>2026-04-11T17:31:46Z</time></trkpt><trkpt lat="45.55527744016369" lon="9.830656518024455"><ele>148.0</ele><time>2026-04-11T17:31:47Z</time></trkpt><trkpt lat="45.55526995112883" lon="9.830531789795627"><ele>148.0</ele><time>2026-04-11T17:31:48Z</time></trkpt><trkpt lat="45.55526856052019" lon="9.830422676708222"><ele>147.8</ele><time>2026-04-11T17:31:49Z</time></trkpt><trkpt lat="45.555272380396026" lon="9.830328928028049"><ele>147.60000000000002</ele><time>2026-04-11T17:31:50Z</time></trkpt><trkpt lat="45.55528131565474" lon="9.830216915450348"><ele>147.39999999999998</ele><time>2026-04-11T17:31:52Z</time></trkpt><trkpt lat="45.55527501524488" lon="9.830097866986248"><ele>147.2</ele><time>2026-04-11T17:32:01Z</time></trkpt><trkpt lat="45.555262091345924" lon="9.829937897539269"><ele>147.0</ele><time>2026-04-11T17:32:03Z</time></trkpt><trkpt lat="45.555342444797525" lon="9.829818472319966"><ele>147.16666666666666</ele><time>2026-04-11T17:32:05Z</time></trkpt><trkpt lat="45.555410045889815" lon="9.829810852249553"><ele>147.33333333333334</ele><time>2026-04-11T17:32:06Z</time></trkpt><trkpt lat="45.55548683243915" lon="9.829904992323716"><ele>147.5</ele><time>2026-04-11T17:32:07Z</time></trkpt><trkpt lat="45.55556366733459" lon="9.829904992325524"><ele>147.66666666666669</ele><time>2026-04-11T17:32:08Z</time></trkpt><trkpt lat="45.55564817424519" lon="9.829908640090707"><ele>147.83333333333334</ele><time>2026-04-11T17:32:09Z</time></trkpt><trkpt lat="45.55574012146938" lon="9.829912992326737"><ele>148.0</ele><time>2026-04-11T17:32:11Z</time></trkpt><trkpt lat="45.5557759211048" lon="9.829674031791862"><ele>148.0</ele><time>2026-04-11T17:32:14Z</time></trkpt><trkpt lat="45.555724938721696" lon="9.82953088794222"><ele>148.0</ele><time>2026-04-11T17:32:16Z</time></trkpt><trkpt lat="45.55571762951055" lon="9.829383741226811"><ele>148.0</ele><time>2026-04-11T17:32:18Z</time></trkpt><trkpt lat="45.555815786705445" lon="9.829381712586827"><ele>148.0</ele><time>2026-04-11T17:32:19Z</time></trkpt><trkpt lat="45.555892207298456" lon="9.82934543283744"><ele>148.0</ele><time>2026-04-11T17:32:20Z</time></trkpt><trkpt lat="45.55603184489959" lon="9.829279141826422"><ele>147.66666666666669</ele><time>2026-04-11T17:32:21Z</time></trkpt><trkpt lat="45.55616972832305" lon="9.829213683524491"><ele>147.33333333333334</ele><time>2026-04-11T17:32:22Z</time></trkpt><trkpt lat="45.55633016097396" lon="9.829137520428196"><ele>147.0</ele><time>2026-04-11T17:32:23Z</time></trkpt><trkpt lat="45.55650716679103" lon="9.829054625372684"><ele>147.0</ele><time>2026-04-11T17:32:24Z</time></trkpt><trkpt lat="45.55668960341811" lon="9.828964906989277"><ele>147.0</ele><time>2026-04-11T17:32:25Z</time></trkpt><trkpt lat="45.556845563811414" lon="9.828896087397196"><ele>147.0</ele><time>2026-04-11T17:32:26Z</time></trkpt><trkpt lat="45.55699382981968" lon="9.828821446531292"><ele>147.0</ele><time>2026-04-11T17:32:27Z</time></trkpt><trkpt lat="45.557140841796105" lon="9.828758171467523"><ele>147.0</ele><time>2026-04-11T17:32:28Z</time></trkpt><trkpt lat="45.55727147166158" lon="9.82869146289057"><ele>147.0</ele><time>2026-04-11T17:32:29Z</time></trkpt><trkpt lat="45.55740101064586" lon="9.828639662391156"><ele>147.0</ele><time>2026-04-11T17:32:30Z</time></trkpt><trkpt lat="45.557510515518935" lon="9.828576772455168"><ele>147.0</ele><time>2026-04-11T17:32:31Z</time></trkpt><trkpt lat="45.55761045239563" lon="9.828531070880155"><ele>147.0</ele><time>2026-04-11T17:32:32Z</time></trkpt><trkpt lat="45.557708209597045" lon="9.828493398558747"><ele>147.0</ele><time>2026-04-11T17:32:33Z</time></trkpt><trkpt lat="45.55780638283916" lon="9.828466666781171"><ele>147.0</ele><time>2026-04-11T17:32:34Z</time></trkpt><trkpt lat="45.55788724155772" lon="9.82845088738782"><ele>147.0</ele><time>2026-04-11T17:32:35Z</time></trkpt><trkpt lat="45.55795547233569" lon="9.828406618892435"><ele>147.0</ele><time>2026-04-11T17:32:36Z</time></trkpt><trkpt lat="45.55806114790852" lon="9.82838090924722"><ele>147.0</ele><time>2026-04-11T17:32:38Z</time></trkpt><trkpt lat="45.5581107086145" lon="9.828310997366398"><ele>147.0</ele><time>2026-04-11T17:32:42Z</time></trkpt><trkpt lat="45.558119095402034" lon="9.828141972558358"><ele>147.0</ele><time>2026-04-11T17:32:45Z</time></trkpt><trkpt lat="45.558093223392106" lon="9.82801891241096"><ele>147.0</ele><time>2026-04-11T17:32:46Z</time></trkpt><trkpt lat="45.55805841762116" lon="9.827853359043209"><ele>147.0</ele><time>2026-04-11T17:32:47Z</time></trkpt><trkpt lat="45.558022577706005" lon="9.827682887044054"><ele>147.0</ele><time>2026-04-11T17:32:48Z</time></trkpt><trkpt lat="45.55797132458253" lon="9.827439108581073"><ele>147.0</ele><time>2026-04-11T17:32:49Z</time></trkpt><trkpt lat="45.55788739104735" lon="9.827020543185153"><ele>147.33333333333334</ele><time>2026-04-11T17:32:50Z</time></trkpt><trkpt lat="45.55782680415991" lon="9.826727146982165"><ele>147.66666666666669</ele><time>2026-04-11T17:32:51Z</time></trkpt><trkpt lat="45.55777226653808" lon="9.82644313519748"><ele>148.0</ele><time>2026-04-11T17:32:52Z</time></trkpt><trkpt lat="45.557716246735986" lon="9.826176751377403"><ele>147.75</ele><time>2026-04-11T17:32:53Z</time></trkpt><trkpt lat="45.557676133958985" lon="9.825962094754493"><ele>147.5</ele><time>2026-04-11T17:32:54Z</time></trkpt><trkpt lat="45.557627428581654" lon="9.825789226977044"><ele>147.25</ele><time>2026-04-11T17:32:55Z</time></trkpt><trkpt lat="45.557589103997884" lon="9.825658812005836"><ele>147.0</ele><time>2026-04-11T17:32:56Z</time></trkpt><trkpt lat="45.55757916371134" lon="9.825560367723567"><ele>147.0</ele><time>2026-04-11T17:32:57Z</time></trkpt><trkpt lat="45.55775619449244" lon="9.825478856873834"><ele>147.0</ele><time>2026-04-11T17:33:00Z</time></trkpt><trkpt lat="45.55787524535169" lon="9.825472120237485"><ele>147.0</ele><time>2026-04-11T17:33:02Z</time></trkpt><trkpt lat="45.55797552809084" lon="9.82548417803241"><ele>147.0</ele><time>2026-04-11T17:33:03Z</time></trkpt><trkpt lat="45.5581355922042" lon="9.825481020837508"><ele>146.66666666666666</ele><time>2026-04-11T17:33:04Z</time></trkpt><trkpt lat="45.55829629790994" lon="9.825479868761231"><ele>146.33333333333331</ele><time>2026-04-11T17:33:05Z</time></trkpt><trkpt lat="45.558455929847" lon="9.82546551954563"><ele>146.0</ele><time>2026-04-11T17:33:06Z</time></trkpt><trkpt lat="45.558609019499826" lon="9.825456866341822"><ele>146.0</ele><time>2026-04-11T17:33:07Z</time></trkpt><trkpt lat="45.558749780719566" lon="9.825439456754443"><ele>146.0</ele><time>2026-04-11T17:33:08Z</time></trkpt><trkpt lat="45.55890786431246" lon="9.825429977298963"><ele>146.0</ele><time>2026-04-11T17:33:09Z</time></trkpt><trkpt lat="45.559076411711345" lon="9.82540184588869"><ele>146.0</ele><time>2026-04-11T17:33:10Z</time></trkpt><trkpt lat="45.55926502772087" lon="9.825355979368126"><ele>146.0</ele><time>2026-04-11T17:33:11Z</time></trkpt><trkpt lat="45.5594679239274" lon="9.825315561797003"><ele>146.0</ele><time>2026-04-11T17:33:12Z</time></trkpt><trkpt lat="45.55967296401478" lon="9.82528215256718"><ele>146.66666666666666</ele><time>2026-04-11T17:33:13Z</time></trkpt><trkpt lat="45.55985376501995" lon="9.825242455315344"><ele>147.33333333333334</ele><time>2026-04-11T17:33:14Z</time></trkpt><trkpt lat="45.56002443867743" lon="9.825215159598859"><ele>148.0</ele><time>2026-04-11T17:33:15Z</time></trkpt><trkpt lat="45.56018216288203" lon="9.825197445738493"><ele>148.0</ele><time>2026-04-11T17:33:16Z</time></trkpt><trkpt lat="45.560295358390015" lon="9.82517724308887"><ele>148.0</ele><time>2026-04-11T17:33:17Z</time></trkpt><trkpt lat="45.56039309230416" lon="9.825154938274792"><ele>148.0</ele><time>2026-04-11T17:33:18Z</time></trkpt><trkpt lat="45.560488938865156" lon="9.825142694175852"><ele>148.0</ele><time>2026-04-11T17:33:19Z</time></trkpt><trkpt lat="45.56059176048657" lon="9.825122006189"><ele>148.0</ele><time>2026-04-11T17:33:20Z</time></trkpt><trkpt lat="45.56065921606956" lon="9.82507516537079"><ele>147.8</ele><time>2026-04-11T17:33:21Z</time></trkpt><trkpt lat="45.560738873566265" lon="9.825078853761976"><ele>147.60000000000002</ele><time>2026-04-11T17:33:22Z</time></trkpt><trkpt lat="45.56076768789409" lon="9.825292073862327"><ele>147.39999999999998</ele><time>2026-04-11T17:33:24Z</time></trkpt><trkpt lat="45.56078978780217" lon="9.825407911231741"><ele>147.2</ele><time>2026-04-11T17:33:25Z</time></trkpt><trkpt lat="45.56081293586013" lon="9.825526444686716"><ele>147.0</ele><time>2026-04-11T17:33:26Z</time></trkpt><trkpt lat="45.56083582550082" lon="9.825643624625178"><ele>147.33333333333334</ele><time>2026-04-11T17:33:27Z</time></trkpt><trkpt lat="45.56086036261411" lon="9.825760067888643"><ele>147.66666666666666</ele><time>2026-04-11T17:33:28Z</time></trkpt><trkpt lat="45.56090101926699" lon="9.825871499428308"><ele>148.0</ele><time>2026-04-11T17:33:29Z</time></trkpt><trkpt lat="45.56091325370503" lon="9.825997049815479"><ele>148.33333333333331</ele><time>2026-04-11T17:33:30Z</time></trkpt><trkpt lat="45.560946178979144" lon="9.82613006281396"><ele>148.66666666666666</ele><time>2026-04-11T17:33:31Z</time></trkpt><trkpt lat="45.560974547673815" lon="9.826235104134211"><ele>149.0</ele><time>2026-04-11T17:33:32Z</time></trkpt><trkpt lat="45.560999762975094" lon="9.826356855762457"><ele>149.0</ele><time>2026-04-11T17:33:34Z</time></trkpt><trkpt lat="45.5608664902591" lon="9.826357241083272"><ele>149.0</ele><time>2026-04-11T17:33:55Z</time></trkpt><trkpt lat="45.5608439489964" lon="9.826269038158939"><ele>149.0</ele><time>2026-04-11T17:33:59Z</time></trkpt></trkseg></trk></gpx>